<?xml version="1.0" encoding="UTF-8" standalone="no" ?>
<gpx xmlns="http://www.topografix.com/GPX/1/1" xmlns:xsi="http://www.w3.org/2001/XMLSchema-instance" xsi:schemaLocation="http://www.topografix.com/GPX/1/1 http://www.topografix.com/GPX/1/1/gpx.xsd" version="1.1" creator="VisuGPX - https://www.visugpx.com">
  <metadata>
    <name>Sortie du 8 avril 2012</name>
    <desc><![CDATA[a faire en VTT]]></desc>
  </metadata>
  <trk>
    <name><![CDATA[2012-04-08-01]]></name>
    <trkseg>
      <trkpt lat="46.93686" lon="-0.58736">
        <ele>125.3</ele>
        <time>2012-04-08T06:40:17Z</time>
      </trkpt>
      <trkpt lat="46.93686" lon="-0.58739">
        <ele>125.1</ele>
        <time>2012-04-08T06:40:18Z</time>
      </trkpt>
      <trkpt lat="46.93685" lon="-0.58757">
        <ele>124.9</ele>
        <time>2012-04-08T06:40:23Z</time>
      </trkpt>
      <trkpt lat="46.93685" lon="-0.58769">
        <ele>124.5</ele>
        <time>2012-04-08T06:40:26Z</time>
      </trkpt>
      <trkpt lat="46.93685" lon="-0.58778">
        <ele>124.5</ele>
        <time>2012-04-08T06:40:28Z</time>
      </trkpt>
      <trkpt lat="46.93685" lon="-0.58788">
        <ele>124.5</ele>
        <time>2012-04-08T06:40:30Z</time>
      </trkpt>
      <trkpt lat="46.93685" lon="-0.58798">
        <ele>124.5</ele>
        <time>2012-04-08T06:40:32Z</time>
      </trkpt>
      <trkpt lat="46.93685" lon="-0.58807">
        <ele>124.4</ele>
        <time>2012-04-08T06:40:34Z</time>
      </trkpt>
      <trkpt lat="46.93685" lon="-0.5882">
        <ele>124.3</ele>
        <time>2012-04-08T06:40:37Z</time>
      </trkpt>
      <trkpt lat="46.93685" lon="-0.58833">
        <ele>124</ele>
        <time>2012-04-08T06:40:40Z</time>
      </trkpt>
      <trkpt lat="46.93685" lon="-0.58845">
        <ele>124</ele>
        <time>2012-04-08T06:40:43Z</time>
      </trkpt>
      <trkpt lat="46.93684" lon="-0.58857">
        <ele>124</ele>
        <time>2012-04-08T06:40:47Z</time>
      </trkpt>
      <trkpt lat="46.93686" lon="-0.58869">
        <ele>124</ele>
        <time>2012-04-08T06:40:51Z</time>
      </trkpt>
      <trkpt lat="46.93688" lon="-0.58879">
        <ele>124</ele>
        <time>2012-04-08T06:40:54Z</time>
      </trkpt>
      <trkpt lat="46.93689" lon="-0.5889">
        <ele>124</ele>
        <time>2012-04-08T06:40:57Z</time>
      </trkpt>
      <trkpt lat="46.93691" lon="-0.589">
        <ele>124</ele>
        <time>2012-04-08T06:41:00Z</time>
      </trkpt>
      <trkpt lat="46.93693" lon="-0.58909">
        <ele>124.3</ele>
        <time>2012-04-08T06:41:02Z</time>
      </trkpt>
      <trkpt lat="46.93693" lon="-0.58918">
        <ele>124.3</ele>
        <time>2012-04-08T06:41:04Z</time>
      </trkpt>
      <trkpt lat="46.93693" lon="-0.58927">
        <ele>124.4</ele>
        <time>2012-04-08T06:41:06Z</time>
      </trkpt>
      <trkpt lat="46.93692" lon="-0.58936">
        <ele>124.5</ele>
        <time>2012-04-08T06:41:08Z</time>
      </trkpt>
      <trkpt lat="46.93688" lon="-0.58945">
        <ele>124.5</ele>
        <time>2012-04-08T06:41:10Z</time>
      </trkpt>
      <trkpt lat="46.93685" lon="-0.58954">
        <ele>124.5</ele>
        <time>2012-04-08T06:41:12Z</time>
      </trkpt>
      <trkpt lat="46.93681" lon="-0.58962">
        <ele>124.5</ele>
        <time>2012-04-08T06:41:14Z</time>
      </trkpt>
      <trkpt lat="46.93679" lon="-0.58971">
        <ele>124.8</ele>
        <time>2012-04-08T06:41:16Z</time>
      </trkpt>
      <trkpt lat="46.93677" lon="-0.5898">
        <ele>124.9</ele>
        <time>2012-04-08T06:41:18Z</time>
      </trkpt>
      <trkpt lat="46.93676" lon="-0.58984">
        <ele>125</ele>
        <time>2012-04-08T06:41:19Z</time>
      </trkpt>
      <trkpt lat="46.93673" lon="-0.59004">
        <ele>125</ele>
        <time>2012-04-08T06:41:24Z</time>
      </trkpt>
      <trkpt lat="46.93672" lon="-0.59014">
        <ele>125.3</ele>
        <time>2012-04-08T06:41:27Z</time>
      </trkpt>
      <trkpt lat="46.93671" lon="-0.59025">
        <ele>125.4</ele>
        <time>2012-04-08T06:41:30Z</time>
      </trkpt>
      <trkpt lat="46.93671" lon="-0.59037">
        <ele>125.4</ele>
        <time>2012-04-08T06:41:33Z</time>
      </trkpt>
      <trkpt lat="46.93676" lon="-0.59046">
        <ele>125.5</ele>
        <time>2012-04-08T06:41:36Z</time>
      </trkpt>
      <trkpt lat="46.93681" lon="-0.59051">
        <ele>125.5</ele>
        <time>2012-04-08T06:41:38Z</time>
      </trkpt>
      <trkpt lat="46.93688" lon="-0.59054">
        <ele>125.5</ele>
        <time>2012-04-08T06:41:40Z</time>
      </trkpt>
      <trkpt lat="46.93697" lon="-0.59057">
        <ele>126.4</ele>
        <time>2012-04-08T06:41:42Z</time>
      </trkpt>
      <trkpt lat="46.93705" lon="-0.59059">
        <ele>127.8</ele>
        <time>2012-04-08T06:41:44Z</time>
      </trkpt>
      <trkpt lat="46.93713" lon="-0.59061">
        <ele>128.8</ele>
        <time>2012-04-08T06:41:46Z</time>
      </trkpt>
      <trkpt lat="46.93721" lon="-0.59063">
        <ele>129.3</ele>
        <time>2012-04-08T06:41:48Z</time>
      </trkpt>
      <trkpt lat="46.93729" lon="-0.59066">
        <ele>130</ele>
        <time>2012-04-08T06:41:50Z</time>
      </trkpt>
      <trkpt lat="46.93738" lon="-0.59067">
        <ele>130.3</ele>
        <time>2012-04-08T06:41:52Z</time>
      </trkpt>
      <trkpt lat="46.93743" lon="-0.59068">
        <ele>130.5</ele>
        <time>2012-04-08T06:41:53Z</time>
      </trkpt>
      <trkpt lat="46.93748" lon="-0.59068">
        <ele>130.5</ele>
        <time>2012-04-08T06:41:54Z</time>
      </trkpt>
      <trkpt lat="46.93753" lon="-0.59069">
        <ele>130.3</ele>
        <time>2012-04-08T06:41:55Z</time>
      </trkpt>
      <trkpt lat="46.93759" lon="-0.59069">
        <ele>130.3</ele>
        <time>2012-04-08T06:41:56Z</time>
      </trkpt>
      <trkpt lat="46.93764" lon="-0.59069">
        <ele>130.3</ele>
        <time>2012-04-08T06:41:57Z</time>
      </trkpt>
      <trkpt lat="46.9377" lon="-0.59069">
        <ele>130.3</ele>
        <time>2012-04-08T06:41:58Z</time>
      </trkpt>
      <trkpt lat="46.93775" lon="-0.59069">
        <ele>130.5</ele>
        <time>2012-04-08T06:41:59Z</time>
      </trkpt>
      <trkpt lat="46.93781" lon="-0.5907">
        <ele>130.6</ele>
        <time>2012-04-08T06:42:00Z</time>
      </trkpt>
      <trkpt lat="46.93786" lon="-0.5907">
        <ele>130.8</ele>
        <time>2012-04-08T06:42:01Z</time>
      </trkpt>
      <trkpt lat="46.93791" lon="-0.5907">
        <ele>130.8</ele>
        <time>2012-04-08T06:42:02Z</time>
      </trkpt>
      <trkpt lat="46.93797" lon="-0.5907">
        <ele>130.8</ele>
        <time>2012-04-08T06:42:03Z</time>
      </trkpt>
      <trkpt lat="46.93803" lon="-0.59071">
        <ele>130.8</ele>
        <time>2012-04-08T06:42:04Z</time>
      </trkpt>
      <trkpt lat="46.93809" lon="-0.59071">
        <ele>131</ele>
        <time>2012-04-08T06:42:05Z</time>
      </trkpt>
      <trkpt lat="46.93815" lon="-0.59071">
        <ele>130.8</ele>
        <time>2012-04-08T06:42:06Z</time>
      </trkpt>
      <trkpt lat="46.93821" lon="-0.59072">
        <ele>130.8</ele>
        <time>2012-04-08T06:42:07Z</time>
      </trkpt>
      <trkpt lat="46.93827" lon="-0.59072">
        <ele>130.8</ele>
        <time>2012-04-08T06:42:08Z</time>
      </trkpt>
      <trkpt lat="46.93833" lon="-0.59073">
        <ele>130.8</ele>
        <time>2012-04-08T06:42:09Z</time>
      </trkpt>
      <trkpt lat="46.93839" lon="-0.59074">
        <ele>130.6</ele>
        <time>2012-04-08T06:42:10Z</time>
      </trkpt>
      <trkpt lat="46.93845" lon="-0.59074">
        <ele>130.6</ele>
        <time>2012-04-08T06:42:11Z</time>
      </trkpt>
      <trkpt lat="46.93852" lon="-0.59075">
        <ele>130.6</ele>
        <time>2012-04-08T06:42:12Z</time>
      </trkpt>
      <trkpt lat="46.93858" lon="-0.59076">
        <ele>130.6</ele>
        <time>2012-04-08T06:42:13Z</time>
      </trkpt>
      <trkpt lat="46.93864" lon="-0.59077">
        <ele>130.6</ele>
        <time>2012-04-08T06:42:14Z</time>
      </trkpt>
      <trkpt lat="46.9387" lon="-0.59078">
        <ele>130.5</ele>
        <time>2012-04-08T06:42:15Z</time>
      </trkpt>
      <trkpt lat="46.93875" lon="-0.59079">
        <ele>130.5</ele>
        <time>2012-04-08T06:42:16Z</time>
      </trkpt>
      <trkpt lat="46.93881" lon="-0.5908">
        <ele>130.3</ele>
        <time>2012-04-08T06:42:17Z</time>
      </trkpt>
      <trkpt lat="46.93886" lon="-0.59081">
        <ele>130.3</ele>
        <time>2012-04-08T06:42:18Z</time>
      </trkpt>
      <trkpt lat="46.93892" lon="-0.59082">
        <ele>130.3</ele>
        <time>2012-04-08T06:42:19Z</time>
      </trkpt>
      <trkpt lat="46.93897" lon="-0.59083">
        <ele>130.3</ele>
        <time>2012-04-08T06:42:20Z</time>
      </trkpt>
      <trkpt lat="46.93903" lon="-0.59083">
        <ele>130.3</ele>
        <time>2012-04-08T06:42:21Z</time>
      </trkpt>
      <trkpt lat="46.93908" lon="-0.59084">
        <ele>130.3</ele>
        <time>2012-04-08T06:42:22Z</time>
      </trkpt>
      <trkpt lat="46.93913" lon="-0.59085">
        <ele>130.3</ele>
        <time>2012-04-08T06:42:23Z</time>
      </trkpt>
      <trkpt lat="46.93918" lon="-0.59086">
        <ele>130.3</ele>
        <time>2012-04-08T06:42:24Z</time>
      </trkpt>
      <trkpt lat="46.93923" lon="-0.59086">
        <ele>130.3</ele>
        <time>2012-04-08T06:42:25Z</time>
      </trkpt>
      <trkpt lat="46.93928" lon="-0.59086">
        <ele>130.3</ele>
        <time>2012-04-08T06:42:26Z</time>
      </trkpt>
      <trkpt lat="46.93934" lon="-0.59086">
        <ele>130.3</ele>
        <time>2012-04-08T06:42:27Z</time>
      </trkpt>
      <trkpt lat="46.93939" lon="-0.59086">
        <ele>130.3</ele>
        <time>2012-04-08T06:42:28Z</time>
      </trkpt>
      <trkpt lat="46.93944" lon="-0.59086">
        <ele>130.3</ele>
        <time>2012-04-08T06:42:29Z</time>
      </trkpt>
      <trkpt lat="46.9395" lon="-0.59087">
        <ele>130.3</ele>
        <time>2012-04-08T06:42:30Z</time>
      </trkpt>
      <trkpt lat="46.93955" lon="-0.59088">
        <ele>130.3</ele>
        <time>2012-04-08T06:42:31Z</time>
      </trkpt>
      <trkpt lat="46.9396" lon="-0.59089">
        <ele>130.3</ele>
        <time>2012-04-08T06:42:32Z</time>
      </trkpt>
      <trkpt lat="46.93966" lon="-0.59089">
        <ele>130.3</ele>
        <time>2012-04-08T06:42:33Z</time>
      </trkpt>
      <trkpt lat="46.93971" lon="-0.5909">
        <ele>130.3</ele>
        <time>2012-04-08T06:42:34Z</time>
      </trkpt>
      <trkpt lat="46.93976" lon="-0.59091">
        <ele>130.3</ele>
        <time>2012-04-08T06:42:35Z</time>
      </trkpt>
      <trkpt lat="46.93982" lon="-0.59091">
        <ele>130.3</ele>
        <time>2012-04-08T06:42:36Z</time>
      </trkpt>
      <trkpt lat="46.93987" lon="-0.59092">
        <ele>130.1</ele>
        <time>2012-04-08T06:42:37Z</time>
      </trkpt>
      <trkpt lat="46.93993" lon="-0.59092">
        <ele>130.1</ele>
        <time>2012-04-08T06:42:38Z</time>
      </trkpt>
      <trkpt lat="46.93998" lon="-0.59092">
        <ele>130</ele>
        <time>2012-04-08T06:42:39Z</time>
      </trkpt>
      <trkpt lat="46.94004" lon="-0.59091">
        <ele>129.8</ele>
        <time>2012-04-08T06:42:40Z</time>
      </trkpt>
      <trkpt lat="46.94009" lon="-0.59092">
        <ele>129.6</ele>
        <time>2012-04-08T06:42:41Z</time>
      </trkpt>
      <trkpt lat="46.94014" lon="-0.59093">
        <ele>129.6</ele>
        <time>2012-04-08T06:42:42Z</time>
      </trkpt>
      <trkpt lat="46.94019" lon="-0.59094">
        <ele>129.5</ele>
        <time>2012-04-08T06:42:43Z</time>
      </trkpt>
      <trkpt lat="46.94025" lon="-0.59095">
        <ele>129.3</ele>
        <time>2012-04-08T06:42:44Z</time>
      </trkpt>
      <trkpt lat="46.9403" lon="-0.59096">
        <ele>129.1</ele>
        <time>2012-04-08T06:42:45Z</time>
      </trkpt>
      <trkpt lat="46.94035" lon="-0.59097">
        <ele>129.1</ele>
        <time>2012-04-08T06:42:46Z</time>
      </trkpt>
      <trkpt lat="46.9404" lon="-0.59098">
        <ele>129</ele>
        <time>2012-04-08T06:42:47Z</time>
      </trkpt>
      <trkpt lat="46.94046" lon="-0.59098">
        <ele>128.8</ele>
        <time>2012-04-08T06:42:48Z</time>
      </trkpt>
      <trkpt lat="46.94051" lon="-0.59098">
        <ele>128.8</ele>
        <time>2012-04-08T06:42:49Z</time>
      </trkpt>
      <trkpt lat="46.94056" lon="-0.59098">
        <ele>128.6</ele>
        <time>2012-04-08T06:42:50Z</time>
      </trkpt>
      <trkpt lat="46.94062" lon="-0.59098">
        <ele>128.6</ele>
        <time>2012-04-08T06:42:51Z</time>
      </trkpt>
      <trkpt lat="46.94068" lon="-0.59099">
        <ele>128.5</ele>
        <time>2012-04-08T06:42:52Z</time>
      </trkpt>
      <trkpt lat="46.94074" lon="-0.591">
        <ele>128.3</ele>
        <time>2012-04-08T06:42:53Z</time>
      </trkpt>
      <trkpt lat="46.94079" lon="-0.59101">
        <ele>128.3</ele>
        <time>2012-04-08T06:42:54Z</time>
      </trkpt>
      <trkpt lat="46.94085" lon="-0.59102">
        <ele>128.1</ele>
        <time>2012-04-08T06:42:55Z</time>
      </trkpt>
      <trkpt lat="46.9409" lon="-0.59103">
        <ele>128.1</ele>
        <time>2012-04-08T06:42:56Z</time>
      </trkpt>
      <trkpt lat="46.94096" lon="-0.59104">
        <ele>128.1</ele>
        <time>2012-04-08T06:42:57Z</time>
      </trkpt>
      <trkpt lat="46.94101" lon="-0.59106">
        <ele>128.1</ele>
        <time>2012-04-08T06:42:58Z</time>
      </trkpt>
      <trkpt lat="46.94106" lon="-0.59108">
        <ele>128.1</ele>
        <time>2012-04-08T06:42:59Z</time>
      </trkpt>
      <trkpt lat="46.94112" lon="-0.5911">
        <ele>128.1</ele>
        <time>2012-04-08T06:43:00Z</time>
      </trkpt>
      <trkpt lat="46.94117" lon="-0.59113">
        <ele>128.1</ele>
        <time>2012-04-08T06:43:01Z</time>
      </trkpt>
      <trkpt lat="46.94121" lon="-0.59116">
        <ele>128.1</ele>
        <time>2012-04-08T06:43:02Z</time>
      </trkpt>
      <trkpt lat="46.94126" lon="-0.59118">
        <ele>128.3</ele>
        <time>2012-04-08T06:43:03Z</time>
      </trkpt>
      <trkpt lat="46.94131" lon="-0.59122">
        <ele>128.3</ele>
        <time>2012-04-08T06:43:04Z</time>
      </trkpt>
      <trkpt lat="46.94136" lon="-0.59125">
        <ele>128.3</ele>
        <time>2012-04-08T06:43:05Z</time>
      </trkpt>
      <trkpt lat="46.94141" lon="-0.59128">
        <ele>128.3</ele>
        <time>2012-04-08T06:43:06Z</time>
      </trkpt>
      <trkpt lat="46.94145" lon="-0.59132">
        <ele>128.3</ele>
        <time>2012-04-08T06:43:07Z</time>
      </trkpt>
      <trkpt lat="46.9415" lon="-0.59135">
        <ele>128.3</ele>
        <time>2012-04-08T06:43:08Z</time>
      </trkpt>
      <trkpt lat="46.94155" lon="-0.59139">
        <ele>128.3</ele>
        <time>2012-04-08T06:43:09Z</time>
      </trkpt>
      <trkpt lat="46.9416" lon="-0.59142">
        <ele>128.3</ele>
        <time>2012-04-08T06:43:10Z</time>
      </trkpt>
      <trkpt lat="46.94165" lon="-0.59146">
        <ele>128.3</ele>
        <time>2012-04-08T06:43:11Z</time>
      </trkpt>
      <trkpt lat="46.9417" lon="-0.59149">
        <ele>128.3</ele>
        <time>2012-04-08T06:43:12Z</time>
      </trkpt>
      <trkpt lat="46.94175" lon="-0.59152">
        <ele>128.5</ele>
        <time>2012-04-08T06:43:13Z</time>
      </trkpt>
      <trkpt lat="46.9418" lon="-0.59154">
        <ele>128.5</ele>
        <time>2012-04-08T06:43:14Z</time>
      </trkpt>
      <trkpt lat="46.94186" lon="-0.59156">
        <ele>128.5</ele>
        <time>2012-04-08T06:43:15Z</time>
      </trkpt>
      <trkpt lat="46.94191" lon="-0.59158">
        <ele>128.5</ele>
        <time>2012-04-08T06:43:16Z</time>
      </trkpt>
      <trkpt lat="46.94196" lon="-0.5916">
        <ele>128.5</ele>
        <time>2012-04-08T06:43:17Z</time>
      </trkpt>
      <trkpt lat="46.94202" lon="-0.59161">
        <ele>128.5</ele>
        <time>2012-04-08T06:43:18Z</time>
      </trkpt>
      <trkpt lat="46.94208" lon="-0.59162">
        <ele>128.6</ele>
        <time>2012-04-08T06:43:19Z</time>
      </trkpt>
      <trkpt lat="46.94213" lon="-0.59163">
        <ele>128.6</ele>
        <time>2012-04-08T06:43:20Z</time>
      </trkpt>
      <trkpt lat="46.94219" lon="-0.59164">
        <ele>128.8</ele>
        <time>2012-04-08T06:43:21Z</time>
      </trkpt>
      <trkpt lat="46.94225" lon="-0.59165">
        <ele>128.8</ele>
        <time>2012-04-08T06:43:22Z</time>
      </trkpt>
      <trkpt lat="46.94231" lon="-0.59166">
        <ele>128.8</ele>
        <time>2012-04-08T06:43:23Z</time>
      </trkpt>
      <trkpt lat="46.94237" lon="-0.59168">
        <ele>128.8</ele>
        <time>2012-04-08T06:43:24Z</time>
      </trkpt>
      <trkpt lat="46.94243" lon="-0.5917">
        <ele>128.8</ele>
        <time>2012-04-08T06:43:25Z</time>
      </trkpt>
      <trkpt lat="46.9425" lon="-0.59172">
        <ele>128.8</ele>
        <time>2012-04-08T06:43:26Z</time>
      </trkpt>
      <trkpt lat="46.94257" lon="-0.59174">
        <ele>128.6</ele>
        <time>2012-04-08T06:43:27Z</time>
      </trkpt>
      <trkpt lat="46.94264" lon="-0.59177">
        <ele>128.5</ele>
        <time>2012-04-08T06:43:28Z</time>
      </trkpt>
      <trkpt lat="46.94271" lon="-0.5918">
        <ele>128.3</ele>
        <time>2012-04-08T06:43:29Z</time>
      </trkpt>
      <trkpt lat="46.94278" lon="-0.59183">
        <ele>128.1</ele>
        <time>2012-04-08T06:43:30Z</time>
      </trkpt>
      <trkpt lat="46.94285" lon="-0.59187">
        <ele>127.9</ele>
        <time>2012-04-08T06:43:31Z</time>
      </trkpt>
      <trkpt lat="46.94292" lon="-0.59191">
        <ele>127.5</ele>
        <time>2012-04-08T06:43:32Z</time>
      </trkpt>
      <trkpt lat="46.943" lon="-0.59195">
        <ele>127.5</ele>
        <time>2012-04-08T06:43:33Z</time>
      </trkpt>
      <trkpt lat="46.94307" lon="-0.59199">
        <ele>127.4</ele>
        <time>2012-04-08T06:43:34Z</time>
      </trkpt>
      <trkpt lat="46.94315" lon="-0.59204">
        <ele>127.3</ele>
        <time>2012-04-08T06:43:35Z</time>
      </trkpt>
      <trkpt lat="46.94323" lon="-0.59208">
        <ele>127.3</ele>
        <time>2012-04-08T06:43:36Z</time>
      </trkpt>
      <trkpt lat="46.9433" lon="-0.59212">
        <ele>127.4</ele>
        <time>2012-04-08T06:43:37Z</time>
      </trkpt>
      <trkpt lat="46.94338" lon="-0.59216">
        <ele>127.5</ele>
        <time>2012-04-08T06:43:38Z</time>
      </trkpt>
      <trkpt lat="46.94345" lon="-0.5922">
        <ele>127.5</ele>
        <time>2012-04-08T06:43:39Z</time>
      </trkpt>
      <trkpt lat="46.94352" lon="-0.59224">
        <ele>127.5</ele>
        <time>2012-04-08T06:43:40Z</time>
      </trkpt>
      <trkpt lat="46.94359" lon="-0.59227">
        <ele>127.5</ele>
        <time>2012-04-08T06:43:41Z</time>
      </trkpt>
      <trkpt lat="46.94365" lon="-0.59231">
        <ele>127.4</ele>
        <time>2012-04-08T06:43:42Z</time>
      </trkpt>
      <trkpt lat="46.94372" lon="-0.59234">
        <ele>127</ele>
        <time>2012-04-08T06:43:43Z</time>
      </trkpt>
      <trkpt lat="46.94378" lon="-0.59238">
        <ele>127</ele>
        <time>2012-04-08T06:43:44Z</time>
      </trkpt>
      <trkpt lat="46.94383" lon="-0.59241">
        <ele>126.9</ele>
        <time>2012-04-08T06:43:45Z</time>
      </trkpt>
      <trkpt lat="46.94389" lon="-0.59244">
        <ele>126.8</ele>
        <time>2012-04-08T06:43:46Z</time>
      </trkpt>
      <trkpt lat="46.94394" lon="-0.59247">
        <ele>126.5</ele>
        <time>2012-04-08T06:43:47Z</time>
      </trkpt>
      <trkpt lat="46.944" lon="-0.59251">
        <ele>126.5</ele>
        <time>2012-04-08T06:43:48Z</time>
      </trkpt>
      <trkpt lat="46.94405" lon="-0.59254">
        <ele>126.4</ele>
        <time>2012-04-08T06:43:49Z</time>
      </trkpt>
      <trkpt lat="46.9441" lon="-0.59257">
        <ele>126.3</ele>
        <time>2012-04-08T06:43:50Z</time>
      </trkpt>
      <trkpt lat="46.94414" lon="-0.5926">
        <ele>126</ele>
        <time>2012-04-08T06:43:51Z</time>
      </trkpt>
      <trkpt lat="46.94419" lon="-0.59262">
        <ele>126</ele>
        <time>2012-04-08T06:43:52Z</time>
      </trkpt>
      <trkpt lat="46.94424" lon="-0.59265">
        <ele>126</ele>
        <time>2012-04-08T06:43:53Z</time>
      </trkpt>
      <trkpt lat="46.94429" lon="-0.59268">
        <ele>126</ele>
        <time>2012-04-08T06:43:54Z</time>
      </trkpt>
      <trkpt lat="46.94433" lon="-0.5927">
        <ele>125.9</ele>
        <time>2012-04-08T06:43:55Z</time>
      </trkpt>
      <trkpt lat="46.94438" lon="-0.59272">
        <ele>125.9</ele>
        <time>2012-04-08T06:43:56Z</time>
      </trkpt>
      <trkpt lat="46.94443" lon="-0.59274">
        <ele>125.8</ele>
        <time>2012-04-08T06:43:57Z</time>
      </trkpt>
      <trkpt lat="46.94447" lon="-0.59276">
        <ele>125.5</ele>
        <time>2012-04-08T06:43:58Z</time>
      </trkpt>
      <trkpt lat="46.94451" lon="-0.59278">
        <ele>125.5</ele>
        <time>2012-04-08T06:43:59Z</time>
      </trkpt>
      <trkpt lat="46.94456" lon="-0.59281">
        <ele>125.5</ele>
        <time>2012-04-08T06:44:00Z</time>
      </trkpt>
      <trkpt lat="46.9446" lon="-0.59283">
        <ele>125.5</ele>
        <time>2012-04-08T06:44:01Z</time>
      </trkpt>
      <trkpt lat="46.94464" lon="-0.59286">
        <ele>125.5</ele>
        <time>2012-04-08T06:44:02Z</time>
      </trkpt>
      <trkpt lat="46.94468" lon="-0.59289">
        <ele>125.5</ele>
        <time>2012-04-08T06:44:03Z</time>
      </trkpt>
      <trkpt lat="46.94472" lon="-0.59293">
        <ele>125.4</ele>
        <time>2012-04-08T06:44:04Z</time>
      </trkpt>
      <trkpt lat="46.94476" lon="-0.59296">
        <ele>125.4</ele>
        <time>2012-04-08T06:44:05Z</time>
      </trkpt>
      <trkpt lat="46.94484" lon="-0.59303">
        <ele>125</ele>
        <time>2012-04-08T06:44:07Z</time>
      </trkpt>
      <trkpt lat="46.94491" lon="-0.5931">
        <ele>125</ele>
        <time>2012-04-08T06:44:09Z</time>
      </trkpt>
      <trkpt lat="46.94498" lon="-0.59317">
        <ele>125</ele>
        <time>2012-04-08T06:44:11Z</time>
      </trkpt>
      <trkpt lat="46.94505" lon="-0.59323">
        <ele>124.8</ele>
        <time>2012-04-08T06:44:13Z</time>
      </trkpt>
      <trkpt lat="46.94512" lon="-0.5933">
        <ele>124.5</ele>
        <time>2012-04-08T06:44:15Z</time>
      </trkpt>
      <trkpt lat="46.94518" lon="-0.59336">
        <ele>124.5</ele>
        <time>2012-04-08T06:44:17Z</time>
      </trkpt>
      <trkpt lat="46.94525" lon="-0.59343">
        <ele>124.5</ele>
        <time>2012-04-08T06:44:19Z</time>
      </trkpt>
      <trkpt lat="46.94531" lon="-0.5935">
        <ele>124.8</ele>
        <time>2012-04-08T06:44:21Z</time>
      </trkpt>
      <trkpt lat="46.94534" lon="-0.59355">
        <ele>124.8</ele>
        <time>2012-04-08T06:44:22Z</time>
      </trkpt>
      <trkpt lat="46.94544" lon="-0.59365">
        <ele>124.9</ele>
        <time>2012-04-08T06:44:25Z</time>
      </trkpt>
      <trkpt lat="46.94552" lon="-0.5937">
        <ele>124.8</ele>
        <time>2012-04-08T06:44:27Z</time>
      </trkpt>
      <trkpt lat="46.9456" lon="-0.59374">
        <ele>124.8</ele>
        <time>2012-04-08T06:44:29Z</time>
      </trkpt>
      <trkpt lat="46.94567" lon="-0.59381">
        <ele>124.8</ele>
        <time>2012-04-08T06:44:31Z</time>
      </trkpt>
      <trkpt lat="46.94573" lon="-0.59389">
        <ele>124.8</ele>
        <time>2012-04-08T06:44:33Z</time>
      </trkpt>
      <trkpt lat="46.94581" lon="-0.59394">
        <ele>124.8</ele>
        <time>2012-04-08T06:44:35Z</time>
      </trkpt>
      <trkpt lat="46.94589" lon="-0.59397">
        <ele>124.8</ele>
        <time>2012-04-08T06:44:37Z</time>
      </trkpt>
      <trkpt lat="46.94596" lon="-0.59393">
        <ele>124.9</ele>
        <time>2012-04-08T06:44:39Z</time>
      </trkpt>
      <trkpt lat="46.94603" lon="-0.59395">
        <ele>125</ele>
        <time>2012-04-08T06:44:41Z</time>
      </trkpt>
      <trkpt lat="46.94607" lon="-0.59397">
        <ele>125</ele>
        <time>2012-04-08T06:44:42Z</time>
      </trkpt>
      <trkpt lat="46.94616" lon="-0.594">
        <ele>124.8</ele>
        <time>2012-04-08T06:44:44Z</time>
      </trkpt>
      <trkpt lat="46.94624" lon="-0.59403">
        <ele>124.9</ele>
        <time>2012-04-08T06:44:46Z</time>
      </trkpt>
      <trkpt lat="46.94633" lon="-0.59406">
        <ele>124.9</ele>
        <time>2012-04-08T06:44:48Z</time>
      </trkpt>
      <trkpt lat="46.9464" lon="-0.59408">
        <ele>124.9</ele>
        <time>2012-04-08T06:44:50Z</time>
      </trkpt>
      <trkpt lat="46.94649" lon="-0.5941">
        <ele>124.8</ele>
        <time>2012-04-08T06:44:52Z</time>
      </trkpt>
      <trkpt lat="46.94657" lon="-0.59411">
        <ele>124.5</ele>
        <time>2012-04-08T06:44:54Z</time>
      </trkpt>
      <trkpt lat="46.94665" lon="-0.59413">
        <ele>124.5</ele>
        <time>2012-04-08T06:44:56Z</time>
      </trkpt>
      <trkpt lat="46.94674" lon="-0.59415">
        <ele>124.5</ele>
        <time>2012-04-08T06:44:58Z</time>
      </trkpt>
      <trkpt lat="46.94682" lon="-0.59417">
        <ele>124.5</ele>
        <time>2012-04-08T06:45:00Z</time>
      </trkpt>
      <trkpt lat="46.9469" lon="-0.59419">
        <ele>124.5</ele>
        <time>2012-04-08T06:45:02Z</time>
      </trkpt>
      <trkpt lat="46.94698" lon="-0.5942">
        <ele>124.8</ele>
        <time>2012-04-08T06:45:04Z</time>
      </trkpt>
      <trkpt lat="46.94706" lon="-0.59421">
        <ele>124.9</ele>
        <time>2012-04-08T06:45:06Z</time>
      </trkpt>
      <trkpt lat="46.94713" lon="-0.59422">
        <ele>125</ele>
        <time>2012-04-08T06:45:08Z</time>
      </trkpt>
      <trkpt lat="46.94721" lon="-0.59423">
        <ele>125</ele>
        <time>2012-04-08T06:45:10Z</time>
      </trkpt>
      <trkpt lat="46.94728" lon="-0.59424">
        <ele>125</ele>
        <time>2012-04-08T06:45:12Z</time>
      </trkpt>
      <trkpt lat="46.94735" lon="-0.59426">
        <ele>125</ele>
        <time>2012-04-08T06:45:14Z</time>
      </trkpt>
      <trkpt lat="46.94741" lon="-0.59427">
        <ele>125</ele>
        <time>2012-04-08T06:45:16Z</time>
      </trkpt>
      <trkpt lat="46.94748" lon="-0.59429">
        <ele>125</ele>
        <time>2012-04-08T06:45:18Z</time>
      </trkpt>
      <trkpt lat="46.94755" lon="-0.5943">
        <ele>125</ele>
        <time>2012-04-08T06:45:20Z</time>
      </trkpt>
      <trkpt lat="46.94762" lon="-0.59431">
        <ele>125</ele>
        <time>2012-04-08T06:45:22Z</time>
      </trkpt>
      <trkpt lat="46.94766" lon="-0.59432">
        <ele>125</ele>
        <time>2012-04-08T06:45:23Z</time>
      </trkpt>
      <trkpt lat="46.94777" lon="-0.59432">
        <ele>125</ele>
        <time>2012-04-08T06:45:26Z</time>
      </trkpt>
      <trkpt lat="46.94784" lon="-0.59433">
        <ele>125</ele>
        <time>2012-04-08T06:45:28Z</time>
      </trkpt>
      <trkpt lat="46.94791" lon="-0.59434">
        <ele>125</ele>
        <time>2012-04-08T06:45:30Z</time>
      </trkpt>
      <trkpt lat="46.94798" lon="-0.59435">
        <ele>125.3</ele>
        <time>2012-04-08T06:45:32Z</time>
      </trkpt>
      <trkpt lat="46.94805" lon="-0.59437">
        <ele>125.4</ele>
        <time>2012-04-08T06:45:34Z</time>
      </trkpt>
      <trkpt lat="46.94811" lon="-0.5944">
        <ele>125.4</ele>
        <time>2012-04-08T06:45:36Z</time>
      </trkpt>
      <trkpt lat="46.94817" lon="-0.59445">
        <ele>125.5</ele>
        <time>2012-04-08T06:45:38Z</time>
      </trkpt>
      <trkpt lat="46.94823" lon="-0.5945">
        <ele>125.5</ele>
        <time>2012-04-08T06:45:40Z</time>
      </trkpt>
      <trkpt lat="46.94828" lon="-0.59456">
        <ele>125.8</ele>
        <time>2012-04-08T06:45:42Z</time>
      </trkpt>
      <trkpt lat="46.94833" lon="-0.59463">
        <ele>126</ele>
        <time>2012-04-08T06:45:44Z</time>
      </trkpt>
      <trkpt lat="46.94839" lon="-0.59471">
        <ele>126.3</ele>
        <time>2012-04-08T06:45:47Z</time>
      </trkpt>
      <trkpt lat="46.94846" lon="-0.59474">
        <ele>126.5</ele>
        <time>2012-04-08T06:45:50Z</time>
      </trkpt>
      <trkpt lat="46.94852" lon="-0.59479">
        <ele>126.8</ele>
        <time>2012-04-08T06:45:52Z</time>
      </trkpt>
      <trkpt lat="46.94857" lon="-0.59485">
        <ele>127</ele>
        <time>2012-04-08T06:45:54Z</time>
      </trkpt>
      <trkpt lat="46.94862" lon="-0.59494">
        <ele>127.3</ele>
        <time>2012-04-08T06:45:57Z</time>
      </trkpt>
      <trkpt lat="46.94867" lon="-0.59503">
        <ele>127.5</ele>
        <time>2012-04-08T06:46:00Z</time>
      </trkpt>
      <trkpt lat="46.94872" lon="-0.5951">
        <ele>127.8</ele>
        <time>2012-04-08T06:46:03Z</time>
      </trkpt>
      <trkpt lat="46.94879" lon="-0.59513">
        <ele>128.1</ele>
        <time>2012-04-08T06:46:06Z</time>
      </trkpt>
      <trkpt lat="46.94888" lon="-0.59512">
        <ele>128.3</ele>
        <time>2012-04-08T06:46:09Z</time>
      </trkpt>
      <trkpt lat="46.94896" lon="-0.59514">
        <ele>128.5</ele>
        <time>2012-04-08T06:46:12Z</time>
      </trkpt>
      <trkpt lat="46.94903" lon="-0.59516">
        <ele>128.6</ele>
        <time>2012-04-08T06:46:15Z</time>
      </trkpt>
      <trkpt lat="46.94911" lon="-0.59513">
        <ele>128.8</ele>
        <time>2012-04-08T06:46:18Z</time>
      </trkpt>
      <trkpt lat="46.94919" lon="-0.5951">
        <ele>128.8</ele>
        <time>2012-04-08T06:46:21Z</time>
      </trkpt>
      <trkpt lat="46.94926" lon="-0.59507">
        <ele>128.6</ele>
        <time>2012-04-08T06:46:24Z</time>
      </trkpt>
      <trkpt lat="46.94929" lon="-0.59505">
        <ele>128.6</ele>
        <time>2012-04-08T06:46:25Z</time>
      </trkpt>
      <trkpt lat="46.9494" lon="-0.59498">
        <ele>128.6</ele>
        <time>2012-04-08T06:46:29Z</time>
      </trkpt>
      <trkpt lat="46.94946" lon="-0.59494">
        <ele>128.6</ele>
        <time>2012-04-08T06:46:31Z</time>
      </trkpt>
      <trkpt lat="46.94951" lon="-0.59489">
        <ele>128.6</ele>
        <time>2012-04-08T06:46:33Z</time>
      </trkpt>
      <trkpt lat="46.94957" lon="-0.59485">
        <ele>128.8</ele>
        <time>2012-04-08T06:46:35Z</time>
      </trkpt>
      <trkpt lat="46.94963" lon="-0.59481">
        <ele>129.1</ele>
        <time>2012-04-08T06:46:37Z</time>
      </trkpt>
      <trkpt lat="46.94968" lon="-0.59477">
        <ele>129.3</ele>
        <time>2012-04-08T06:46:39Z</time>
      </trkpt>
      <trkpt lat="46.94974" lon="-0.59473">
        <ele>129.5</ele>
        <time>2012-04-08T06:46:41Z</time>
      </trkpt>
      <trkpt lat="46.9498" lon="-0.59468">
        <ele>129.6</ele>
        <time>2012-04-08T06:46:43Z</time>
      </trkpt>
      <trkpt lat="46.94985" lon="-0.59464">
        <ele>129.8</ele>
        <time>2012-04-08T06:46:45Z</time>
      </trkpt>
      <trkpt lat="46.9499" lon="-0.59459">
        <ele>130.1</ele>
        <time>2012-04-08T06:46:47Z</time>
      </trkpt>
      <trkpt lat="46.94996" lon="-0.59455">
        <ele>130.3</ele>
        <time>2012-04-08T06:46:49Z</time>
      </trkpt>
      <trkpt lat="46.95001" lon="-0.5945">
        <ele>130.5</ele>
        <time>2012-04-08T06:46:51Z</time>
      </trkpt>
      <trkpt lat="46.95007" lon="-0.59445">
        <ele>130.6</ele>
        <time>2012-04-08T06:46:53Z</time>
      </trkpt>
      <trkpt lat="46.95012" lon="-0.5944">
        <ele>131</ele>
        <time>2012-04-08T06:46:55Z</time>
      </trkpt>
      <trkpt lat="46.95019" lon="-0.59435">
        <ele>131.1</ele>
        <time>2012-04-08T06:46:57Z</time>
      </trkpt>
      <trkpt lat="46.95025" lon="-0.5943">
        <ele>133.1</ele>
        <time>2012-04-08T06:46:59Z</time>
      </trkpt>
      <trkpt lat="46.95032" lon="-0.59426">
        <ele>134.3</ele>
        <time>2012-04-08T06:47:01Z</time>
      </trkpt>
      <trkpt lat="46.95039" lon="-0.59422">
        <ele>135.3</ele>
        <time>2012-04-08T06:47:03Z</time>
      </trkpt>
      <trkpt lat="46.95046" lon="-0.59418">
        <ele>135.5</ele>
        <time>2012-04-08T06:47:05Z</time>
      </trkpt>
      <trkpt lat="46.95052" lon="-0.59416">
        <ele>135.6</ele>
        <time>2012-04-08T06:47:07Z</time>
      </trkpt>
      <trkpt lat="46.95059" lon="-0.59414">
        <ele>135.6</ele>
        <time>2012-04-08T06:47:09Z</time>
      </trkpt>
      <trkpt lat="46.95067" lon="-0.59415">
        <ele>135.8</ele>
        <time>2012-04-08T06:47:12Z</time>
      </trkpt>
      <trkpt lat="46.95075" lon="-0.59409">
        <ele>136</ele>
        <time>2012-04-08T06:47:15Z</time>
      </trkpt>
      <trkpt lat="46.95082" lon="-0.59405">
        <ele>136.1</ele>
        <time>2012-04-08T06:47:17Z</time>
      </trkpt>
      <trkpt lat="46.95088" lon="-0.59408">
        <ele>136.1</ele>
        <time>2012-04-08T06:47:19Z</time>
      </trkpt>
      <trkpt lat="46.95093" lon="-0.59414">
        <ele>136.3</ele>
        <time>2012-04-08T06:47:21Z</time>
      </trkpt>
      <trkpt lat="46.95099" lon="-0.59421">
        <ele>136.5</ele>
        <time>2012-04-08T06:47:23Z</time>
      </trkpt>
      <trkpt lat="46.95105" lon="-0.59428">
        <ele>136.6</ele>
        <time>2012-04-08T06:47:25Z</time>
      </trkpt>
      <trkpt lat="46.95108" lon="-0.59431">
        <ele>136.8</ele>
        <time>2012-04-08T06:47:26Z</time>
      </trkpt>
      <trkpt lat="46.95117" lon="-0.59441">
        <ele>137.1</ele>
        <time>2012-04-08T06:47:29Z</time>
      </trkpt>
      <trkpt lat="46.95123" lon="-0.59447">
        <ele>137.3</ele>
        <time>2012-04-08T06:47:31Z</time>
      </trkpt>
      <trkpt lat="46.95122" lon="-0.59459">
        <ele>137.8</ele>
        <time>2012-04-08T06:47:36Z</time>
      </trkpt>
      <trkpt lat="46.95118" lon="-0.59465">
        <ele>138.1</ele>
        <time>2012-04-08T06:47:38Z</time>
      </trkpt>
      <trkpt lat="46.95114" lon="-0.59473">
        <ele>140.1</ele>
        <time>2012-04-08T06:47:40Z</time>
      </trkpt>
      <trkpt lat="46.95113" lon="-0.59482">
        <ele>140.3</ele>
        <time>2012-04-08T06:47:42Z</time>
      </trkpt>
      <trkpt lat="46.95112" lon="-0.59492">
        <ele>140.3</ele>
        <time>2012-04-08T06:47:44Z</time>
      </trkpt>
      <trkpt lat="46.95117" lon="-0.595">
        <ele>140.6</ele>
        <time>2012-04-08T06:47:46Z</time>
      </trkpt>
      <trkpt lat="46.95125" lon="-0.59501">
        <ele>141.8</ele>
        <time>2012-04-08T06:47:48Z</time>
      </trkpt>
      <trkpt lat="46.95133" lon="-0.59502">
        <ele>142.8</ele>
        <time>2012-04-08T06:47:50Z</time>
      </trkpt>
      <trkpt lat="46.95142" lon="-0.59503">
        <ele>143.3</ele>
        <time>2012-04-08T06:47:52Z</time>
      </trkpt>
      <trkpt lat="46.95151" lon="-0.59505">
        <ele>143.6</ele>
        <time>2012-04-08T06:47:54Z</time>
      </trkpt>
      <trkpt lat="46.95159" lon="-0.59507">
        <ele>143.8</ele>
        <time>2012-04-08T06:47:56Z</time>
      </trkpt>
      <trkpt lat="46.95168" lon="-0.59509">
        <ele>144</ele>
        <time>2012-04-08T06:47:58Z</time>
      </trkpt>
      <trkpt lat="46.95176" lon="-0.5951">
        <ele>144.1</ele>
        <time>2012-04-08T06:48:00Z</time>
      </trkpt>
      <trkpt lat="46.95184" lon="-0.59505">
        <ele>144.1</ele>
        <time>2012-04-08T06:48:02Z</time>
      </trkpt>
      <trkpt lat="46.95188" lon="-0.59496">
        <ele>144.1</ele>
        <time>2012-04-08T06:48:04Z</time>
      </trkpt>
      <trkpt lat="46.9519" lon="-0.59484">
        <ele>144.1</ele>
        <time>2012-04-08T06:48:06Z</time>
      </trkpt>
      <trkpt lat="46.95192" lon="-0.59472">
        <ele>144.1</ele>
        <time>2012-04-08T06:48:08Z</time>
      </trkpt>
      <trkpt lat="46.95193" lon="-0.59459">
        <ele>144.3</ele>
        <time>2012-04-08T06:48:10Z</time>
      </trkpt>
      <trkpt lat="46.95195" lon="-0.59447">
        <ele>144.3</ele>
        <time>2012-04-08T06:48:12Z</time>
      </trkpt>
      <trkpt lat="46.95199" lon="-0.59436">
        <ele>144.6</ele>
        <time>2012-04-08T06:48:14Z</time>
      </trkpt>
      <trkpt lat="46.95202" lon="-0.59425">
        <ele>144.8</ele>
        <time>2012-04-08T06:48:16Z</time>
      </trkpt>
      <trkpt lat="46.95206" lon="-0.59413">
        <ele>145.1</ele>
        <time>2012-04-08T06:48:18Z</time>
      </trkpt>
      <trkpt lat="46.95211" lon="-0.59404">
        <ele>145.3</ele>
        <time>2012-04-08T06:48:20Z</time>
      </trkpt>
      <trkpt lat="46.95216" lon="-0.59395">
        <ele>145.6</ele>
        <time>2012-04-08T06:48:22Z</time>
      </trkpt>
      <trkpt lat="46.95222" lon="-0.59386">
        <ele>145.8</ele>
        <time>2012-04-08T06:48:24Z</time>
      </trkpt>
      <trkpt lat="46.95228" lon="-0.59378">
        <ele>145.8</ele>
        <time>2012-04-08T06:48:26Z</time>
      </trkpt>
      <trkpt lat="46.9523" lon="-0.59374">
        <ele>146</ele>
        <time>2012-04-08T06:48:27Z</time>
      </trkpt>
      <trkpt lat="46.95239" lon="-0.59362">
        <ele>146.3</ele>
        <time>2012-04-08T06:48:30Z</time>
      </trkpt>
      <trkpt lat="46.95244" lon="-0.59353">
        <ele>146.5</ele>
        <time>2012-04-08T06:48:32Z</time>
      </trkpt>
      <trkpt lat="46.9525" lon="-0.59345">
        <ele>146.8</ele>
        <time>2012-04-08T06:48:34Z</time>
      </trkpt>
      <trkpt lat="46.95256" lon="-0.59336">
        <ele>147</ele>
        <time>2012-04-08T06:48:36Z</time>
      </trkpt>
      <trkpt lat="46.95261" lon="-0.59328">
        <ele>147.1</ele>
        <time>2012-04-08T06:48:38Z</time>
      </trkpt>
      <trkpt lat="46.95267" lon="-0.59319">
        <ele>147.3</ele>
        <time>2012-04-08T06:48:40Z</time>
      </trkpt>
      <trkpt lat="46.95273" lon="-0.5931">
        <ele>147.3</ele>
        <time>2012-04-08T06:48:42Z</time>
      </trkpt>
      <trkpt lat="46.95278" lon="-0.59302">
        <ele>147.3</ele>
        <time>2012-04-08T06:48:44Z</time>
      </trkpt>
      <trkpt lat="46.95285" lon="-0.59295">
        <ele>147.3</ele>
        <time>2012-04-08T06:48:46Z</time>
      </trkpt>
      <trkpt lat="46.95292" lon="-0.59291">
        <ele>147.3</ele>
        <time>2012-04-08T06:48:48Z</time>
      </trkpt>
      <trkpt lat="46.95299" lon="-0.59291">
        <ele>147.5</ele>
        <time>2012-04-08T06:48:50Z</time>
      </trkpt>
      <trkpt lat="46.95306" lon="-0.59295">
        <ele>147.5</ele>
        <time>2012-04-08T06:48:52Z</time>
      </trkpt>
      <trkpt lat="46.95311" lon="-0.59301">
        <ele>147.5</ele>
        <time>2012-04-08T06:48:54Z</time>
      </trkpt>
      <trkpt lat="46.95317" lon="-0.59308">
        <ele>147.5</ele>
        <time>2012-04-08T06:48:56Z</time>
      </trkpt>
      <trkpt lat="46.95322" lon="-0.59316">
        <ele>147.6</ele>
        <time>2012-04-08T06:48:58Z</time>
      </trkpt>
      <trkpt lat="46.95328" lon="-0.59324">
        <ele>147.6</ele>
        <time>2012-04-08T06:49:00Z</time>
      </trkpt>
      <trkpt lat="46.95333" lon="-0.59332">
        <ele>147.6</ele>
        <time>2012-04-08T06:49:02Z</time>
      </trkpt>
      <trkpt lat="46.95339" lon="-0.59339">
        <ele>147.6</ele>
        <time>2012-04-08T06:49:04Z</time>
      </trkpt>
      <trkpt lat="46.95344" lon="-0.59347">
        <ele>147.6</ele>
        <time>2012-04-08T06:49:06Z</time>
      </trkpt>
      <trkpt lat="46.9535" lon="-0.59355">
        <ele>147.6</ele>
        <time>2012-04-08T06:49:08Z</time>
      </trkpt>
      <trkpt lat="46.95355" lon="-0.59363">
        <ele>147.6</ele>
        <time>2012-04-08T06:49:10Z</time>
      </trkpt>
      <trkpt lat="46.95361" lon="-0.59371">
        <ele>147.8</ele>
        <time>2012-04-08T06:49:12Z</time>
      </trkpt>
      <trkpt lat="46.95367" lon="-0.59379">
        <ele>148.1</ele>
        <time>2012-04-08T06:49:14Z</time>
      </trkpt>
      <trkpt lat="46.95373" lon="-0.59388">
        <ele>148.3</ele>
        <time>2012-04-08T06:49:16Z</time>
      </trkpt>
      <trkpt lat="46.95379" lon="-0.59396">
        <ele>148.5</ele>
        <time>2012-04-08T06:49:18Z</time>
      </trkpt>
      <trkpt lat="46.95385" lon="-0.59405">
        <ele>148.6</ele>
        <time>2012-04-08T06:49:20Z</time>
      </trkpt>
      <trkpt lat="46.95391" lon="-0.59414">
        <ele>149</ele>
        <time>2012-04-08T06:49:22Z</time>
      </trkpt>
      <trkpt lat="46.95397" lon="-0.59422">
        <ele>149.1</ele>
        <time>2012-04-08T06:49:24Z</time>
      </trkpt>
      <trkpt lat="46.95403" lon="-0.59431">
        <ele>149.3</ele>
        <time>2012-04-08T06:49:26Z</time>
      </trkpt>
      <trkpt lat="46.9541" lon="-0.59439">
        <ele>149.6</ele>
        <time>2012-04-08T06:49:28Z</time>
      </trkpt>
      <trkpt lat="46.95413" lon="-0.59443">
        <ele>149.6</ele>
        <time>2012-04-08T06:49:29Z</time>
      </trkpt>
      <trkpt lat="46.95422" lon="-0.59455">
        <ele>149.6</ele>
        <time>2012-04-08T06:49:32Z</time>
      </trkpt>
      <trkpt lat="46.95428" lon="-0.59463">
        <ele>149.6</ele>
        <time>2012-04-08T06:49:34Z</time>
      </trkpt>
      <trkpt lat="46.95434" lon="-0.59471">
        <ele>149.8</ele>
        <time>2012-04-08T06:49:36Z</time>
      </trkpt>
      <trkpt lat="46.9544" lon="-0.59479">
        <ele>149.8</ele>
        <time>2012-04-08T06:49:38Z</time>
      </trkpt>
      <trkpt lat="46.95446" lon="-0.59487">
        <ele>149.8</ele>
        <time>2012-04-08T06:49:40Z</time>
      </trkpt>
      <trkpt lat="46.95453" lon="-0.59495">
        <ele>149.8</ele>
        <time>2012-04-08T06:49:42Z</time>
      </trkpt>
      <trkpt lat="46.95458" lon="-0.59503">
        <ele>150</ele>
        <time>2012-04-08T06:49:44Z</time>
      </trkpt>
      <trkpt lat="46.95465" lon="-0.59508">
        <ele>150</ele>
        <time>2012-04-08T06:49:47Z</time>
      </trkpt>
      <trkpt lat="46.95471" lon="-0.59511">
        <ele>150</ele>
        <time>2012-04-08T06:49:49Z</time>
      </trkpt>
      <trkpt lat="46.95477" lon="-0.59517">
        <ele>150</ele>
        <time>2012-04-08T06:49:51Z</time>
      </trkpt>
      <trkpt lat="46.95483" lon="-0.59524">
        <ele>150.1</ele>
        <time>2012-04-08T06:49:53Z</time>
      </trkpt>
      <trkpt lat="46.95487" lon="-0.59529">
        <ele>150.3</ele>
        <time>2012-04-08T06:49:54Z</time>
      </trkpt>
      <trkpt lat="46.9549" lon="-0.59533">
        <ele>150.3</ele>
        <time>2012-04-08T06:49:55Z</time>
      </trkpt>
      <trkpt lat="46.95494" lon="-0.59538">
        <ele>150.3</ele>
        <time>2012-04-08T06:49:56Z</time>
      </trkpt>
      <trkpt lat="46.955" lon="-0.59546">
        <ele>150.6</ele>
        <time>2012-04-08T06:49:58Z</time>
      </trkpt>
      <trkpt lat="46.95504" lon="-0.59557">
        <ele>150.8</ele>
        <time>2012-04-08T06:50:00Z</time>
      </trkpt>
      <trkpt lat="46.95505" lon="-0.59564">
        <ele>150.8</ele>
        <time>2012-04-08T06:50:01Z</time>
      </trkpt>
      <trkpt lat="46.95506" lon="-0.59571">
        <ele>151</ele>
        <time>2012-04-08T06:50:02Z</time>
      </trkpt>
      <trkpt lat="46.95507" lon="-0.59578">
        <ele>151.1</ele>
        <time>2012-04-08T06:50:03Z</time>
      </trkpt>
      <trkpt lat="46.95507" lon="-0.59585">
        <ele>151.1</ele>
        <time>2012-04-08T06:50:04Z</time>
      </trkpt>
      <trkpt lat="46.95508" lon="-0.59593">
        <ele>151.1</ele>
        <time>2012-04-08T06:50:05Z</time>
      </trkpt>
      <trkpt lat="46.95509" lon="-0.596">
        <ele>151.1</ele>
        <time>2012-04-08T06:50:06Z</time>
      </trkpt>
      <trkpt lat="46.9551" lon="-0.59608">
        <ele>151.1</ele>
        <time>2012-04-08T06:50:07Z</time>
      </trkpt>
      <trkpt lat="46.95511" lon="-0.59615">
        <ele>151</ele>
        <time>2012-04-08T06:50:08Z</time>
      </trkpt>
      <trkpt lat="46.95513" lon="-0.59623">
        <ele>151</ele>
        <time>2012-04-08T06:50:09Z</time>
      </trkpt>
      <trkpt lat="46.95514" lon="-0.59631">
        <ele>151</ele>
        <time>2012-04-08T06:50:10Z</time>
      </trkpt>
      <trkpt lat="46.95515" lon="-0.59638">
        <ele>150.8</ele>
        <time>2012-04-08T06:50:11Z</time>
      </trkpt>
      <trkpt lat="46.95516" lon="-0.59646">
        <ele>150.8</ele>
        <time>2012-04-08T06:50:12Z</time>
      </trkpt>
      <trkpt lat="46.95517" lon="-0.59654">
        <ele>150.8</ele>
        <time>2012-04-08T06:50:13Z</time>
      </trkpt>
      <trkpt lat="46.95517" lon="-0.59661">
        <ele>150.8</ele>
        <time>2012-04-08T06:50:14Z</time>
      </trkpt>
      <trkpt lat="46.95517" lon="-0.59669">
        <ele>150.8</ele>
        <time>2012-04-08T06:50:15Z</time>
      </trkpt>
      <trkpt lat="46.95518" lon="-0.59677">
        <ele>150.8</ele>
        <time>2012-04-08T06:50:16Z</time>
      </trkpt>
      <trkpt lat="46.95518" lon="-0.59684">
        <ele>150.8</ele>
        <time>2012-04-08T06:50:17Z</time>
      </trkpt>
      <trkpt lat="46.95518" lon="-0.59696">
        <ele>150.8</ele>
        <time>2012-04-08T06:50:19Z</time>
      </trkpt>
      <trkpt lat="46.95518" lon="-0.59708">
        <ele>150.8</ele>
        <time>2012-04-08T06:50:21Z</time>
      </trkpt>
      <trkpt lat="46.95518" lon="-0.5972">
        <ele>150.8</ele>
        <time>2012-04-08T06:50:24Z</time>
      </trkpt>
      <trkpt lat="46.95518" lon="-0.59731">
        <ele>150.6</ele>
        <time>2012-04-08T06:50:42Z</time>
      </trkpt>
      <trkpt lat="46.95517" lon="-0.59737">
        <ele>150.6</ele>
        <time>2012-04-08T06:50:43Z</time>
      </trkpt>
      <trkpt lat="46.95514" lon="-0.59754">
        <ele>150.3</ele>
        <time>2012-04-08T06:50:46Z</time>
      </trkpt>
      <trkpt lat="46.95512" lon="-0.59766">
        <ele>150.3</ele>
        <time>2012-04-08T06:50:48Z</time>
      </trkpt>
      <trkpt lat="46.95511" lon="-0.59778">
        <ele>149.1</ele>
        <time>2012-04-08T06:50:50Z</time>
      </trkpt>
      <trkpt lat="46.95509" lon="-0.59791">
        <ele>148.3</ele>
        <time>2012-04-08T06:50:52Z</time>
      </trkpt>
      <trkpt lat="46.95507" lon="-0.59803">
        <ele>147.8</ele>
        <time>2012-04-08T06:50:54Z</time>
      </trkpt>
      <trkpt lat="46.95506" lon="-0.59809">
        <ele>147.6</ele>
        <time>2012-04-08T06:50:55Z</time>
      </trkpt>
      <trkpt lat="46.95505" lon="-0.59816">
        <ele>147.6</ele>
        <time>2012-04-08T06:50:56Z</time>
      </trkpt>
      <trkpt lat="46.95503" lon="-0.59823">
        <ele>147.6</ele>
        <time>2012-04-08T06:50:57Z</time>
      </trkpt>
      <trkpt lat="46.95501" lon="-0.59829">
        <ele>147.6</ele>
        <time>2012-04-08T06:50:58Z</time>
      </trkpt>
      <trkpt lat="46.95499" lon="-0.59836">
        <ele>147.6</ele>
        <time>2012-04-08T06:50:59Z</time>
      </trkpt>
      <trkpt lat="46.95497" lon="-0.59843">
        <ele>147.6</ele>
        <time>2012-04-08T06:51:00Z</time>
      </trkpt>
      <trkpt lat="46.95494" lon="-0.59849">
        <ele>147.6</ele>
        <time>2012-04-08T06:51:01Z</time>
      </trkpt>
      <trkpt lat="46.95492" lon="-0.59855">
        <ele>147.6</ele>
        <time>2012-04-08T06:51:02Z</time>
      </trkpt>
      <trkpt lat="46.95489" lon="-0.59862">
        <ele>147.3</ele>
        <time>2012-04-08T06:51:03Z</time>
      </trkpt>
      <trkpt lat="46.95487" lon="-0.59868">
        <ele>147.1</ele>
        <time>2012-04-08T06:51:04Z</time>
      </trkpt>
      <trkpt lat="46.95485" lon="-0.59874">
        <ele>147</ele>
        <time>2012-04-08T06:51:05Z</time>
      </trkpt>
      <trkpt lat="46.95482" lon="-0.59881">
        <ele>146.8</ele>
        <time>2012-04-08T06:51:06Z</time>
      </trkpt>
      <trkpt lat="46.9548" lon="-0.59888">
        <ele>146.8</ele>
        <time>2012-04-08T06:51:07Z</time>
      </trkpt>
      <trkpt lat="46.95477" lon="-0.59896">
        <ele>146.8</ele>
        <time>2012-04-08T06:51:08Z</time>
      </trkpt>
      <trkpt lat="46.95475" lon="-0.59903">
        <ele>146.8</ele>
        <time>2012-04-08T06:51:09Z</time>
      </trkpt>
      <trkpt lat="46.95472" lon="-0.59911">
        <ele>146.8</ele>
        <time>2012-04-08T06:51:10Z</time>
      </trkpt>
      <trkpt lat="46.95469" lon="-0.59918">
        <ele>146.8</ele>
        <time>2012-04-08T06:51:11Z</time>
      </trkpt>
      <trkpt lat="46.95467" lon="-0.59924">
        <ele>146.8</ele>
        <time>2012-04-08T06:51:12Z</time>
      </trkpt>
      <trkpt lat="46.95464" lon="-0.59931">
        <ele>146.6</ele>
        <time>2012-04-08T06:51:13Z</time>
      </trkpt>
      <trkpt lat="46.95461" lon="-0.59937">
        <ele>146.6</ele>
        <time>2012-04-08T06:51:14Z</time>
      </trkpt>
      <trkpt lat="46.95458" lon="-0.59943">
        <ele>146.5</ele>
        <time>2012-04-08T06:51:15Z</time>
      </trkpt>
      <trkpt lat="46.95455" lon="-0.59949">
        <ele>146.3</ele>
        <time>2012-04-08T06:51:16Z</time>
      </trkpt>
      <trkpt lat="46.95452" lon="-0.59955">
        <ele>146.3</ele>
        <time>2012-04-08T06:51:17Z</time>
      </trkpt>
      <trkpt lat="46.95447" lon="-0.59966">
        <ele>146.3</ele>
        <time>2012-04-08T06:51:19Z</time>
      </trkpt>
      <trkpt lat="46.95444" lon="-0.59975">
        <ele>146.1</ele>
        <time>2012-04-08T06:51:21Z</time>
      </trkpt>
      <trkpt lat="46.95448" lon="-0.59986">
        <ele>146.1</ele>
        <time>2012-04-08T06:51:24Z</time>
      </trkpt>
      <trkpt lat="46.95456" lon="-0.59992">
        <ele>145.1</ele>
        <time>2012-04-08T06:51:26Z</time>
      </trkpt>
      <trkpt lat="46.95461" lon="-0.59995">
        <ele>144.6</ele>
        <time>2012-04-08T06:51:27Z</time>
      </trkpt>
      <trkpt lat="46.95466" lon="-0.59998">
        <ele>144.3</ele>
        <time>2012-04-08T06:51:28Z</time>
      </trkpt>
      <trkpt lat="46.95471" lon="-0.60001">
        <ele>143.8</ele>
        <time>2012-04-08T06:51:29Z</time>
      </trkpt>
      <trkpt lat="46.95479" lon="-0.60005">
        <ele>143.1</ele>
        <time>2012-04-08T06:51:31Z</time>
      </trkpt>
      <trkpt lat="46.95487" lon="-0.6001">
        <ele>142.3</ele>
        <time>2012-04-08T06:51:33Z</time>
      </trkpt>
      <trkpt lat="46.95494" lon="-0.60015">
        <ele>142</ele>
        <time>2012-04-08T06:51:35Z</time>
      </trkpt>
      <trkpt lat="46.95502" lon="-0.6002">
        <ele>141.8</ele>
        <time>2012-04-08T06:51:37Z</time>
      </trkpt>
      <trkpt lat="46.95509" lon="-0.60024">
        <ele>141.8</ele>
        <time>2012-04-08T06:51:39Z</time>
      </trkpt>
      <trkpt lat="46.95515" lon="-0.60029">
        <ele>141.8</ele>
        <time>2012-04-08T06:51:41Z</time>
      </trkpt>
      <trkpt lat="46.95522" lon="-0.60035">
        <ele>141.8</ele>
        <time>2012-04-08T06:51:43Z</time>
      </trkpt>
      <trkpt lat="46.95525" lon="-0.60037">
        <ele>141.8</ele>
        <time>2012-04-08T06:51:44Z</time>
      </trkpt>
      <trkpt lat="46.95536" lon="-0.60043">
        <ele>142</ele>
        <time>2012-04-08T06:51:48Z</time>
      </trkpt>
      <trkpt lat="46.95543" lon="-0.60045">
        <ele>142</ele>
        <time>2012-04-08T06:52:04Z</time>
      </trkpt>
      <trkpt lat="46.95548" lon="-0.60053">
        <ele>142.1</ele>
        <time>2012-04-08T06:52:06Z</time>
      </trkpt>
      <trkpt lat="46.95553" lon="-0.6006">
        <ele>142.1</ele>
        <time>2012-04-08T06:52:09Z</time>
      </trkpt>
      <trkpt lat="46.95559" lon="-0.60067">
        <ele>142.3</ele>
        <time>2012-04-08T06:52:11Z</time>
      </trkpt>
      <trkpt lat="46.95564" lon="-0.60074">
        <ele>143.1</ele>
        <time>2012-04-08T06:52:13Z</time>
      </trkpt>
      <trkpt lat="46.9557" lon="-0.60082">
        <ele>144.3</ele>
        <time>2012-04-08T06:52:15Z</time>
      </trkpt>
      <trkpt lat="46.95577" lon="-0.6009">
        <ele>145.1</ele>
        <time>2012-04-08T06:52:17Z</time>
      </trkpt>
      <trkpt lat="46.95583" lon="-0.60098">
        <ele>145.8</ele>
        <time>2012-04-08T06:52:19Z</time>
      </trkpt>
      <trkpt lat="46.95589" lon="-0.60106">
        <ele>146.3</ele>
        <time>2012-04-08T06:52:21Z</time>
      </trkpt>
      <trkpt lat="46.95595" lon="-0.60113">
        <ele>146.3</ele>
        <time>2012-04-08T06:52:23Z</time>
      </trkpt>
      <trkpt lat="46.95601" lon="-0.6012">
        <ele>146.3</ele>
        <time>2012-04-08T06:52:25Z</time>
      </trkpt>
      <trkpt lat="46.95607" lon="-0.60127">
        <ele>146.5</ele>
        <time>2012-04-08T06:52:27Z</time>
      </trkpt>
      <trkpt lat="46.95613" lon="-0.60134">
        <ele>146.6</ele>
        <time>2012-04-08T06:52:29Z</time>
      </trkpt>
      <trkpt lat="46.95619" lon="-0.6014">
        <ele>146.6</ele>
        <time>2012-04-08T06:52:31Z</time>
      </trkpt>
      <trkpt lat="46.95625" lon="-0.60147">
        <ele>147</ele>
        <time>2012-04-08T06:52:33Z</time>
      </trkpt>
      <trkpt lat="46.95631" lon="-0.60154">
        <ele>147.1</ele>
        <time>2012-04-08T06:52:35Z</time>
      </trkpt>
      <trkpt lat="46.95635" lon="-0.60162">
        <ele>147.3</ele>
        <time>2012-04-08T06:52:37Z</time>
      </trkpt>
      <trkpt lat="46.95635" lon="-0.60171">
        <ele>147.3</ele>
        <time>2012-04-08T06:52:39Z</time>
      </trkpt>
      <trkpt lat="46.95633" lon="-0.60182">
        <ele>147.3</ele>
        <time>2012-04-08T06:52:41Z</time>
      </trkpt>
      <trkpt lat="46.95633" lon="-0.60193">
        <ele>147.3</ele>
        <time>2012-04-08T06:52:43Z</time>
      </trkpt>
      <trkpt lat="46.95637" lon="-0.60201">
        <ele>147.5</ele>
        <time>2012-04-08T06:52:45Z</time>
      </trkpt>
      <trkpt lat="46.9564" lon="-0.60205">
        <ele>147.6</ele>
        <time>2012-04-08T06:52:46Z</time>
      </trkpt>
      <trkpt lat="46.95649" lon="-0.60213">
        <ele>147.6</ele>
        <time>2012-04-08T06:52:49Z</time>
      </trkpt>
      <trkpt lat="46.95656" lon="-0.60218">
        <ele>147.8</ele>
        <time>2012-04-08T06:52:51Z</time>
      </trkpt>
      <trkpt lat="46.95662" lon="-0.60223">
        <ele>147.8</ele>
        <time>2012-04-08T06:52:53Z</time>
      </trkpt>
      <trkpt lat="46.95669" lon="-0.60228">
        <ele>147.8</ele>
        <time>2012-04-08T06:52:55Z</time>
      </trkpt>
      <trkpt lat="46.95675" lon="-0.60233">
        <ele>148</ele>
        <time>2012-04-08T06:52:57Z</time>
      </trkpt>
      <trkpt lat="46.95681" lon="-0.60237">
        <ele>148.1</ele>
        <time>2012-04-08T06:52:59Z</time>
      </trkpt>
      <trkpt lat="46.95688" lon="-0.60241">
        <ele>148.1</ele>
        <time>2012-04-08T06:53:01Z</time>
      </trkpt>
      <trkpt lat="46.95695" lon="-0.60244">
        <ele>148.3</ele>
        <time>2012-04-08T06:53:03Z</time>
      </trkpt>
      <trkpt lat="46.95702" lon="-0.60246">
        <ele>148.3</ele>
        <time>2012-04-08T06:53:05Z</time>
      </trkpt>
      <trkpt lat="46.9571" lon="-0.60247">
        <ele>149.1</ele>
        <time>2012-04-08T06:53:07Z</time>
      </trkpt>
      <trkpt lat="46.95718" lon="-0.60248">
        <ele>149.6</ele>
        <time>2012-04-08T06:53:09Z</time>
      </trkpt>
      <trkpt lat="46.95726" lon="-0.60249">
        <ele>150.1</ele>
        <time>2012-04-08T06:53:11Z</time>
      </trkpt>
      <trkpt lat="46.95734" lon="-0.60251">
        <ele>150.3</ele>
        <time>2012-04-08T06:53:13Z</time>
      </trkpt>
      <trkpt lat="46.95742" lon="-0.60254">
        <ele>150.5</ele>
        <time>2012-04-08T06:53:15Z</time>
      </trkpt>
      <trkpt lat="46.95749" lon="-0.60262">
        <ele>150.6</ele>
        <time>2012-04-08T06:53:17Z</time>
      </trkpt>
      <trkpt lat="46.95754" lon="-0.60273">
        <ele>150.6</ele>
        <time>2012-04-08T06:53:19Z</time>
      </trkpt>
      <trkpt lat="46.95757" lon="-0.60284">
        <ele>150.6</ele>
        <time>2012-04-08T06:53:21Z</time>
      </trkpt>
      <trkpt lat="46.95764" lon="-0.60287">
        <ele>150.6</ele>
        <time>2012-04-08T06:53:23Z</time>
      </trkpt>
      <trkpt lat="46.9577" lon="-0.60282">
        <ele>150.6</ele>
        <time>2012-04-08T06:53:25Z</time>
      </trkpt>
      <trkpt lat="46.95774" lon="-0.60279">
        <ele>150.6</ele>
        <time>2012-04-08T06:53:26Z</time>
      </trkpt>
      <trkpt lat="46.95778" lon="-0.60275">
        <ele>150.6</ele>
        <time>2012-04-08T06:53:27Z</time>
      </trkpt>
      <trkpt lat="46.95782" lon="-0.60271">
        <ele>150.6</ele>
        <time>2012-04-08T06:53:28Z</time>
      </trkpt>
      <trkpt lat="46.95787" lon="-0.60267">
        <ele>150.6</ele>
        <time>2012-04-08T06:53:29Z</time>
      </trkpt>
      <trkpt lat="46.95791" lon="-0.60263">
        <ele>150.6</ele>
        <time>2012-04-08T06:53:30Z</time>
      </trkpt>
      <trkpt lat="46.95795" lon="-0.60259">
        <ele>150.6</ele>
        <time>2012-04-08T06:53:31Z</time>
      </trkpt>
      <trkpt lat="46.95799" lon="-0.60254">
        <ele>150.5</ele>
        <time>2012-04-08T06:53:32Z</time>
      </trkpt>
      <trkpt lat="46.95804" lon="-0.6025">
        <ele>150.3</ele>
        <time>2012-04-08T06:53:33Z</time>
      </trkpt>
      <trkpt lat="46.95808" lon="-0.60245">
        <ele>150.1</ele>
        <time>2012-04-08T06:53:34Z</time>
      </trkpt>
      <trkpt lat="46.95813" lon="-0.60241">
        <ele>150</ele>
        <time>2012-04-08T06:53:35Z</time>
      </trkpt>
      <trkpt lat="46.95817" lon="-0.60238">
        <ele>149.8</ele>
        <time>2012-04-08T06:53:36Z</time>
      </trkpt>
      <trkpt lat="46.95822" lon="-0.60235">
        <ele>149.6</ele>
        <time>2012-04-08T06:53:37Z</time>
      </trkpt>
      <trkpt lat="46.95826" lon="-0.60232">
        <ele>149.6</ele>
        <time>2012-04-08T06:53:38Z</time>
      </trkpt>
      <trkpt lat="46.95831" lon="-0.60229">
        <ele>149.3</ele>
        <time>2012-04-08T06:53:39Z</time>
      </trkpt>
      <trkpt lat="46.95835" lon="-0.60227">
        <ele>149.3</ele>
        <time>2012-04-08T06:53:40Z</time>
      </trkpt>
      <trkpt lat="46.9584" lon="-0.60224">
        <ele>149.1</ele>
        <time>2012-04-08T06:53:41Z</time>
      </trkpt>
      <trkpt lat="46.95844" lon="-0.6022">
        <ele>149.1</ele>
        <time>2012-04-08T06:53:42Z</time>
      </trkpt>
      <trkpt lat="46.95849" lon="-0.60216">
        <ele>149</ele>
        <time>2012-04-08T06:53:43Z</time>
      </trkpt>
      <trkpt lat="46.95854" lon="-0.60212">
        <ele>149</ele>
        <time>2012-04-08T06:53:44Z</time>
      </trkpt>
      <trkpt lat="46.95858" lon="-0.60207">
        <ele>149</ele>
        <time>2012-04-08T06:53:45Z</time>
      </trkpt>
      <trkpt lat="46.95863" lon="-0.60202">
        <ele>149.1</ele>
        <time>2012-04-08T06:53:46Z</time>
      </trkpt>
      <trkpt lat="46.95867" lon="-0.60197">
        <ele>149.1</ele>
        <time>2012-04-08T06:53:47Z</time>
      </trkpt>
      <trkpt lat="46.95871" lon="-0.60192">
        <ele>149.1</ele>
        <time>2012-04-08T06:53:48Z</time>
      </trkpt>
      <trkpt lat="46.95876" lon="-0.60188">
        <ele>149.1</ele>
        <time>2012-04-08T06:53:49Z</time>
      </trkpt>
      <trkpt lat="46.9588" lon="-0.60183">
        <ele>149.1</ele>
        <time>2012-04-08T06:53:50Z</time>
      </trkpt>
      <trkpt lat="46.95885" lon="-0.60177">
        <ele>149.1</ele>
        <time>2012-04-08T06:53:51Z</time>
      </trkpt>
      <trkpt lat="46.9589" lon="-0.60172">
        <ele>149.1</ele>
        <time>2012-04-08T06:53:52Z</time>
      </trkpt>
      <trkpt lat="46.95894" lon="-0.60167">
        <ele>149.1</ele>
        <time>2012-04-08T06:53:53Z</time>
      </trkpt>
      <trkpt lat="46.95899" lon="-0.60162">
        <ele>149.1</ele>
        <time>2012-04-08T06:53:54Z</time>
      </trkpt>
      <trkpt lat="46.95904" lon="-0.60157">
        <ele>149.1</ele>
        <time>2012-04-08T06:53:55Z</time>
      </trkpt>
      <trkpt lat="46.95908" lon="-0.60151">
        <ele>149</ele>
        <time>2012-04-08T06:53:56Z</time>
      </trkpt>
      <trkpt lat="46.95913" lon="-0.60146">
        <ele>149</ele>
        <time>2012-04-08T06:53:57Z</time>
      </trkpt>
      <trkpt lat="46.95917" lon="-0.6014">
        <ele>148.8</ele>
        <time>2012-04-08T06:53:58Z</time>
      </trkpt>
      <trkpt lat="46.95922" lon="-0.60135">
        <ele>148.8</ele>
        <time>2012-04-08T06:53:59Z</time>
      </trkpt>
      <trkpt lat="46.95926" lon="-0.6013">
        <ele>148.8</ele>
        <time>2012-04-08T06:54:00Z</time>
      </trkpt>
      <trkpt lat="46.9593" lon="-0.60124">
        <ele>149</ele>
        <time>2012-04-08T06:54:01Z</time>
      </trkpt>
      <trkpt lat="46.95934" lon="-0.60119">
        <ele>149.1</ele>
        <time>2012-04-08T06:54:02Z</time>
      </trkpt>
      <trkpt lat="46.95938" lon="-0.60113">
        <ele>149.1</ele>
        <time>2012-04-08T06:54:03Z</time>
      </trkpt>
      <trkpt lat="46.95943" lon="-0.60108">
        <ele>149.1</ele>
        <time>2012-04-08T06:54:04Z</time>
      </trkpt>
      <trkpt lat="46.95948" lon="-0.60104">
        <ele>149.1</ele>
        <time>2012-04-08T06:54:05Z</time>
      </trkpt>
      <trkpt lat="46.95952" lon="-0.601">
        <ele>149.3</ele>
        <time>2012-04-08T06:54:06Z</time>
      </trkpt>
      <trkpt lat="46.95957" lon="-0.60096">
        <ele>149.3</ele>
        <time>2012-04-08T06:54:07Z</time>
      </trkpt>
      <trkpt lat="46.95963" lon="-0.60094">
        <ele>149.5</ele>
        <time>2012-04-08T06:54:08Z</time>
      </trkpt>
      <trkpt lat="46.95968" lon="-0.60094">
        <ele>149.6</ele>
        <time>2012-04-08T06:54:09Z</time>
      </trkpt>
      <trkpt lat="46.95972" lon="-0.60095">
        <ele>149.8</ele>
        <time>2012-04-08T06:54:10Z</time>
      </trkpt>
      <trkpt lat="46.95976" lon="-0.60098">
        <ele>149.6</ele>
        <time>2012-04-08T06:54:11Z</time>
      </trkpt>
      <trkpt lat="46.95985" lon="-0.60099">
        <ele>149.6</ele>
        <time>2012-04-08T06:54:13Z</time>
      </trkpt>
      <trkpt lat="46.9599" lon="-0.60097">
        <ele>149.5</ele>
        <time>2012-04-08T06:54:14Z</time>
      </trkpt>
      <trkpt lat="46.95994" lon="-0.60095">
        <ele>149.3</ele>
        <time>2012-04-08T06:54:15Z</time>
      </trkpt>
      <trkpt lat="46.95999" lon="-0.60093">
        <ele>149.1</ele>
        <time>2012-04-08T06:54:16Z</time>
      </trkpt>
      <trkpt lat="46.96004" lon="-0.6009">
        <ele>149.1</ele>
        <time>2012-04-08T06:54:17Z</time>
      </trkpt>
      <trkpt lat="46.9601" lon="-0.60087">
        <ele>149.1</ele>
        <time>2012-04-08T06:54:18Z</time>
      </trkpt>
      <trkpt lat="46.96015" lon="-0.60084">
        <ele>149.3</ele>
        <time>2012-04-08T06:54:19Z</time>
      </trkpt>
      <trkpt lat="46.9602" lon="-0.60082">
        <ele>149.3</ele>
        <time>2012-04-08T06:54:20Z</time>
      </trkpt>
      <trkpt lat="46.96025" lon="-0.60079">
        <ele>149.5</ele>
        <time>2012-04-08T06:54:21Z</time>
      </trkpt>
      <trkpt lat="46.9603" lon="-0.60076">
        <ele>149.8</ele>
        <time>2012-04-08T06:54:22Z</time>
      </trkpt>
      <trkpt lat="46.96035" lon="-0.60073">
        <ele>150</ele>
        <time>2012-04-08T06:54:23Z</time>
      </trkpt>
      <trkpt lat="46.9604" lon="-0.6007">
        <ele>150.3</ele>
        <time>2012-04-08T06:54:24Z</time>
      </trkpt>
      <trkpt lat="46.96044" lon="-0.60068">
        <ele>150.3</ele>
        <time>2012-04-08T06:54:25Z</time>
      </trkpt>
      <trkpt lat="46.96048" lon="-0.60064">
        <ele>150.3</ele>
        <time>2012-04-08T06:54:26Z</time>
      </trkpt>
      <trkpt lat="46.96052" lon="-0.60055">
        <ele>150.3</ele>
        <time>2012-04-08T06:54:28Z</time>
      </trkpt>
      <trkpt lat="46.96049" lon="-0.60045">
        <ele>150.6</ele>
        <time>2012-04-08T06:54:30Z</time>
      </trkpt>
      <trkpt lat="46.96045" lon="-0.60034">
        <ele>151</ele>
        <time>2012-04-08T06:54:32Z</time>
      </trkpt>
      <trkpt lat="46.96043" lon="-0.60028">
        <ele>151.1</ele>
        <time>2012-04-08T06:54:33Z</time>
      </trkpt>
      <trkpt lat="46.9604" lon="-0.60021">
        <ele>151.1</ele>
        <time>2012-04-08T06:54:34Z</time>
      </trkpt>
      <trkpt lat="46.96038" lon="-0.60015">
        <ele>151.3</ele>
        <time>2012-04-08T06:54:35Z</time>
      </trkpt>
      <trkpt lat="46.96035" lon="-0.60009">
        <ele>151.3</ele>
        <time>2012-04-08T06:54:36Z</time>
      </trkpt>
      <trkpt lat="46.96033" lon="-0.60003">
        <ele>151.3</ele>
        <time>2012-04-08T06:54:37Z</time>
      </trkpt>
      <trkpt lat="46.9603" lon="-0.59997">
        <ele>151.3</ele>
        <time>2012-04-08T06:54:38Z</time>
      </trkpt>
      <trkpt lat="46.96028" lon="-0.59991">
        <ele>151.3</ele>
        <time>2012-04-08T06:54:39Z</time>
      </trkpt>
      <trkpt lat="46.96025" lon="-0.59986">
        <ele>151.1</ele>
        <time>2012-04-08T06:54:40Z</time>
      </trkpt>
      <trkpt lat="46.96023" lon="-0.5998">
        <ele>151.1</ele>
        <time>2012-04-08T06:54:41Z</time>
      </trkpt>
      <trkpt lat="46.9602" lon="-0.59975">
        <ele>151.1</ele>
        <time>2012-04-08T06:54:42Z</time>
      </trkpt>
      <trkpt lat="46.96017" lon="-0.59969">
        <ele>151.1</ele>
        <time>2012-04-08T06:54:43Z</time>
      </trkpt>
      <trkpt lat="46.96015" lon="-0.59963">
        <ele>151.1</ele>
        <time>2012-04-08T06:54:44Z</time>
      </trkpt>
      <trkpt lat="46.96012" lon="-0.59957">
        <ele>151.1</ele>
        <time>2012-04-08T06:54:45Z</time>
      </trkpt>
      <trkpt lat="46.96009" lon="-0.59952">
        <ele>151.1</ele>
        <time>2012-04-08T06:54:46Z</time>
      </trkpt>
      <trkpt lat="46.96006" lon="-0.59946">
        <ele>151.1</ele>
        <time>2012-04-08T06:54:47Z</time>
      </trkpt>
      <trkpt lat="46.96003" lon="-0.5994">
        <ele>151.1</ele>
        <time>2012-04-08T06:54:48Z</time>
      </trkpt>
      <trkpt lat="46.96" lon="-0.59934">
        <ele>151.1</ele>
        <time>2012-04-08T06:54:49Z</time>
      </trkpt>
      <trkpt lat="46.95997" lon="-0.59928">
        <ele>151.1</ele>
        <time>2012-04-08T06:54:50Z</time>
      </trkpt>
      <trkpt lat="46.95994" lon="-0.59922">
        <ele>151.1</ele>
        <time>2012-04-08T06:54:51Z</time>
      </trkpt>
      <trkpt lat="46.95991" lon="-0.59917">
        <ele>151.1</ele>
        <time>2012-04-08T06:54:52Z</time>
      </trkpt>
      <trkpt lat="46.95988" lon="-0.59911">
        <ele>151.1</ele>
        <time>2012-04-08T06:54:53Z</time>
      </trkpt>
      <trkpt lat="46.95985" lon="-0.59905">
        <ele>151.1</ele>
        <time>2012-04-08T06:54:54Z</time>
      </trkpt>
      <trkpt lat="46.95981" lon="-0.59899">
        <ele>151.1</ele>
        <time>2012-04-08T06:54:55Z</time>
      </trkpt>
      <trkpt lat="46.95978" lon="-0.59894">
        <ele>151.1</ele>
        <time>2012-04-08T06:54:56Z</time>
      </trkpt>
      <trkpt lat="46.95974" lon="-0.59888">
        <ele>151.1</ele>
        <time>2012-04-08T06:54:57Z</time>
      </trkpt>
      <trkpt lat="46.95971" lon="-0.59883">
        <ele>151.1</ele>
        <time>2012-04-08T06:54:58Z</time>
      </trkpt>
      <trkpt lat="46.95967" lon="-0.59877">
        <ele>151.1</ele>
        <time>2012-04-08T06:54:59Z</time>
      </trkpt>
      <trkpt lat="46.95964" lon="-0.59872">
        <ele>151.1</ele>
        <time>2012-04-08T06:55:00Z</time>
      </trkpt>
      <trkpt lat="46.9596" lon="-0.59868">
        <ele>151.1</ele>
        <time>2012-04-08T06:55:01Z</time>
      </trkpt>
      <trkpt lat="46.95957" lon="-0.59863">
        <ele>151.1</ele>
        <time>2012-04-08T06:55:02Z</time>
      </trkpt>
      <trkpt lat="46.95953" lon="-0.59858">
        <ele>151.1</ele>
        <time>2012-04-08T06:55:03Z</time>
      </trkpt>
      <trkpt lat="46.9595" lon="-0.59853">
        <ele>151.1</ele>
        <time>2012-04-08T06:55:04Z</time>
      </trkpt>
      <trkpt lat="46.95946" lon="-0.59848">
        <ele>151.3</ele>
        <time>2012-04-08T06:55:05Z</time>
      </trkpt>
      <trkpt lat="46.95942" lon="-0.59844">
        <ele>151.3</ele>
        <time>2012-04-08T06:55:06Z</time>
      </trkpt>
      <trkpt lat="46.95939" lon="-0.59839">
        <ele>151.3</ele>
        <time>2012-04-08T06:55:07Z</time>
      </trkpt>
      <trkpt lat="46.95935" lon="-0.59834">
        <ele>151.3</ele>
        <time>2012-04-08T06:55:08Z</time>
      </trkpt>
      <trkpt lat="46.95932" lon="-0.59829">
        <ele>151.3</ele>
        <time>2012-04-08T06:55:09Z</time>
      </trkpt>
      <trkpt lat="46.95928" lon="-0.59824">
        <ele>151.3</ele>
        <time>2012-04-08T06:55:10Z</time>
      </trkpt>
      <trkpt lat="46.95925" lon="-0.59819">
        <ele>151.5</ele>
        <time>2012-04-08T06:55:11Z</time>
      </trkpt>
      <trkpt lat="46.95922" lon="-0.59814">
        <ele>151.5</ele>
        <time>2012-04-08T06:55:12Z</time>
      </trkpt>
      <trkpt lat="46.95918" lon="-0.5981">
        <ele>151.6</ele>
        <time>2012-04-08T06:55:13Z</time>
      </trkpt>
      <trkpt lat="46.95915" lon="-0.59805">
        <ele>151.6</ele>
        <time>2012-04-08T06:55:14Z</time>
      </trkpt>
      <trkpt lat="46.95911" lon="-0.598">
        <ele>151.6</ele>
        <time>2012-04-08T06:55:15Z</time>
      </trkpt>
      <trkpt lat="46.95908" lon="-0.59795">
        <ele>151.8</ele>
        <time>2012-04-08T06:55:16Z</time>
      </trkpt>
      <trkpt lat="46.95902" lon="-0.59786">
        <ele>151.8</ele>
        <time>2012-04-08T06:55:18Z</time>
      </trkpt>
      <trkpt lat="46.95896" lon="-0.59777">
        <ele>151.8</ele>
        <time>2012-04-08T06:55:20Z</time>
      </trkpt>
      <trkpt lat="46.9589" lon="-0.59769">
        <ele>151.8</ele>
        <time>2012-04-08T06:55:22Z</time>
      </trkpt>
      <trkpt lat="46.95884" lon="-0.59761">
        <ele>151.8</ele>
        <time>2012-04-08T06:55:24Z</time>
      </trkpt>
      <trkpt lat="46.95878" lon="-0.59752">
        <ele>152.1</ele>
        <time>2012-04-08T06:55:26Z</time>
      </trkpt>
      <trkpt lat="46.95872" lon="-0.59743">
        <ele>152.3</ele>
        <time>2012-04-08T06:55:28Z</time>
      </trkpt>
      <trkpt lat="46.95866" lon="-0.59734">
        <ele>152.5</ele>
        <time>2012-04-08T06:55:30Z</time>
      </trkpt>
      <trkpt lat="46.9586" lon="-0.59724">
        <ele>152.8</ele>
        <time>2012-04-08T06:55:32Z</time>
      </trkpt>
      <trkpt lat="46.95854" lon="-0.59715">
        <ele>153</ele>
        <time>2012-04-08T06:55:34Z</time>
      </trkpt>
      <trkpt lat="46.95848" lon="-0.59706">
        <ele>153.1</ele>
        <time>2012-04-08T06:55:36Z</time>
      </trkpt>
      <trkpt lat="46.95842" lon="-0.59697">
        <ele>153.3</ele>
        <time>2012-04-08T06:55:38Z</time>
      </trkpt>
      <trkpt lat="46.95839" lon="-0.59692">
        <ele>153.5</ele>
        <time>2012-04-08T06:55:39Z</time>
      </trkpt>
      <trkpt lat="46.95836" lon="-0.59687">
        <ele>153.6</ele>
        <time>2012-04-08T06:55:40Z</time>
      </trkpt>
      <trkpt lat="46.95833" lon="-0.59682">
        <ele>153.6</ele>
        <time>2012-04-08T06:55:41Z</time>
      </trkpt>
      <trkpt lat="46.9583" lon="-0.59677">
        <ele>153.8</ele>
        <time>2012-04-08T06:55:42Z</time>
      </trkpt>
      <trkpt lat="46.95827" lon="-0.59672">
        <ele>153.8</ele>
        <time>2012-04-08T06:55:43Z</time>
      </trkpt>
      <trkpt lat="46.95824" lon="-0.59667">
        <ele>153.8</ele>
        <time>2012-04-08T06:55:44Z</time>
      </trkpt>
      <trkpt lat="46.95818" lon="-0.59656">
        <ele>154.1</ele>
        <time>2012-04-08T06:55:46Z</time>
      </trkpt>
      <trkpt lat="46.95818" lon="-0.59646">
        <ele>154.1</ele>
        <time>2012-04-08T06:55:48Z</time>
      </trkpt>
      <trkpt lat="46.95819" lon="-0.59643">
        <ele>154.1</ele>
        <time>2012-04-08T06:55:49Z</time>
      </trkpt>
      <trkpt lat="46.95833" lon="-0.59641">
        <ele>154.1</ele>
        <time>2012-04-08T06:55:54Z</time>
      </trkpt>
      <trkpt lat="46.9584" lon="-0.59638">
        <ele>154.1</ele>
        <time>2012-04-08T06:55:56Z</time>
      </trkpt>
      <trkpt lat="46.95847" lon="-0.59634">
        <ele>154.1</ele>
        <time>2012-04-08T06:55:58Z</time>
      </trkpt>
      <trkpt lat="46.95855" lon="-0.59633">
        <ele>154.3</ele>
        <time>2012-04-08T06:56:00Z</time>
      </trkpt>
      <trkpt lat="46.95862" lon="-0.59632">
        <ele>154.3</ele>
        <time>2012-04-08T06:56:02Z</time>
      </trkpt>
      <trkpt lat="46.95869" lon="-0.59631">
        <ele>154.3</ele>
        <time>2012-04-08T06:56:04Z</time>
      </trkpt>
      <trkpt lat="46.95878" lon="-0.59629">
        <ele>154.3</ele>
        <time>2012-04-08T06:56:07Z</time>
      </trkpt>
      <trkpt lat="46.95883" lon="-0.59625">
        <ele>154.3</ele>
        <time>2012-04-08T06:56:09Z</time>
      </trkpt>
      <trkpt lat="46.95889" lon="-0.59621">
        <ele>154.3</ele>
        <time>2012-04-08T06:56:11Z</time>
      </trkpt>
      <trkpt lat="46.95896" lon="-0.59614">
        <ele>154.5</ele>
        <time>2012-04-08T06:56:14Z</time>
      </trkpt>
      <trkpt lat="46.95901" lon="-0.5961">
        <ele>154.5</ele>
        <time>2012-04-08T06:56:16Z</time>
      </trkpt>
      <trkpt lat="46.95908" lon="-0.59603">
        <ele>154.6</ele>
        <time>2012-04-08T06:56:19Z</time>
      </trkpt>
      <trkpt lat="46.95914" lon="-0.59595">
        <ele>154.6</ele>
        <time>2012-04-08T06:56:32Z</time>
      </trkpt>
      <trkpt lat="46.95922" lon="-0.59588">
        <ele>154.6</ele>
        <time>2012-04-08T06:56:36Z</time>
      </trkpt>
      <trkpt lat="46.95929" lon="-0.59581">
        <ele>154.6</ele>
        <time>2012-04-08T06:56:39Z</time>
      </trkpt>
      <trkpt lat="46.95935" lon="-0.59575">
        <ele>154.6</ele>
        <time>2012-04-08T06:56:41Z</time>
      </trkpt>
      <trkpt lat="46.95941" lon="-0.59568">
        <ele>154.1</ele>
        <time>2012-04-08T06:56:43Z</time>
      </trkpt>
      <trkpt lat="46.95948" lon="-0.59561">
        <ele>153.6</ele>
        <time>2012-04-08T06:56:45Z</time>
      </trkpt>
      <trkpt lat="46.95955" lon="-0.59554">
        <ele>153.1</ele>
        <time>2012-04-08T06:56:47Z</time>
      </trkpt>
      <trkpt lat="46.95962" lon="-0.59547">
        <ele>153.3</ele>
        <time>2012-04-08T06:56:49Z</time>
      </trkpt>
      <trkpt lat="46.95965" lon="-0.59544">
        <ele>153.3</ele>
        <time>2012-04-08T06:56:50Z</time>
      </trkpt>
      <trkpt lat="46.95976" lon="-0.59534">
        <ele>153.3</ele>
        <time>2012-04-08T06:56:53Z</time>
      </trkpt>
      <trkpt lat="46.9598" lon="-0.5953">
        <ele>153.3</ele>
        <time>2012-04-08T06:56:54Z</time>
      </trkpt>
      <trkpt lat="46.95984" lon="-0.59527">
        <ele>153.3</ele>
        <time>2012-04-08T06:56:55Z</time>
      </trkpt>
      <trkpt lat="46.95988" lon="-0.59524">
        <ele>153.3</ele>
        <time>2012-04-08T06:56:56Z</time>
      </trkpt>
      <trkpt lat="46.95992" lon="-0.5952">
        <ele>153.3</ele>
        <time>2012-04-08T06:56:57Z</time>
      </trkpt>
      <trkpt lat="46.95996" lon="-0.59515">
        <ele>153.5</ele>
        <time>2012-04-08T06:56:58Z</time>
      </trkpt>
      <trkpt lat="46.96" lon="-0.59511">
        <ele>153.5</ele>
        <time>2012-04-08T06:56:59Z</time>
      </trkpt>
      <trkpt lat="46.96003" lon="-0.59507">
        <ele>153.3</ele>
        <time>2012-04-08T06:57:00Z</time>
      </trkpt>
      <trkpt lat="46.96008" lon="-0.59503">
        <ele>153.3</ele>
        <time>2012-04-08T06:57:01Z</time>
      </trkpt>
      <trkpt lat="46.96015" lon="-0.59496">
        <ele>153.3</ele>
        <time>2012-04-08T06:57:03Z</time>
      </trkpt>
      <trkpt lat="46.96022" lon="-0.5949">
        <ele>153.3</ele>
        <time>2012-04-08T06:57:05Z</time>
      </trkpt>
      <trkpt lat="46.9603" lon="-0.59484">
        <ele>153.3</ele>
        <time>2012-04-08T06:57:07Z</time>
      </trkpt>
      <trkpt lat="46.96037" lon="-0.59479">
        <ele>153.3</ele>
        <time>2012-04-08T06:57:09Z</time>
      </trkpt>
      <trkpt lat="46.96042" lon="-0.59475">
        <ele>153.5</ele>
        <time>2012-04-08T06:57:16Z</time>
      </trkpt>
      <trkpt lat="46.96046" lon="-0.59471">
        <ele>153.5</ele>
        <time>2012-04-08T06:57:24Z</time>
      </trkpt>
      <trkpt lat="46.96054" lon="-0.59466">
        <ele>153.3</ele>
        <time>2012-04-08T06:57:26Z</time>
      </trkpt>
      <trkpt lat="46.9606" lon="-0.59461">
        <ele>153.3</ele>
        <time>2012-04-08T06:57:28Z</time>
      </trkpt>
      <trkpt lat="46.96067" lon="-0.59455">
        <ele>153.1</ele>
        <time>2012-04-08T06:57:30Z</time>
      </trkpt>
      <trkpt lat="46.96074" lon="-0.5945">
        <ele>152.6</ele>
        <time>2012-04-08T06:57:32Z</time>
      </trkpt>
      <trkpt lat="46.96081" lon="-0.59445">
        <ele>152.6</ele>
        <time>2012-04-08T06:57:34Z</time>
      </trkpt>
      <trkpt lat="46.96087" lon="-0.5944">
        <ele>152.5</ele>
        <time>2012-04-08T06:57:36Z</time>
      </trkpt>
      <trkpt lat="46.96093" lon="-0.59435">
        <ele>152.5</ele>
        <time>2012-04-08T06:57:38Z</time>
      </trkpt>
      <trkpt lat="46.96099" lon="-0.59429">
        <ele>152.1</ele>
        <time>2012-04-08T06:57:40Z</time>
      </trkpt>
      <trkpt lat="46.96106" lon="-0.59422">
        <ele>151.8</ele>
        <time>2012-04-08T06:57:42Z</time>
      </trkpt>
      <trkpt lat="46.96113" lon="-0.59416">
        <ele>151.6</ele>
        <time>2012-04-08T06:57:44Z</time>
      </trkpt>
      <trkpt lat="46.96121" lon="-0.59416">
        <ele>151.6</ele>
        <time>2012-04-08T06:57:46Z</time>
      </trkpt>
      <trkpt lat="46.96126" lon="-0.59422">
        <ele>151.6</ele>
        <time>2012-04-08T06:57:48Z</time>
      </trkpt>
      <trkpt lat="46.96131" lon="-0.5943">
        <ele>151.3</ele>
        <time>2012-04-08T06:57:50Z</time>
      </trkpt>
      <trkpt lat="46.96134" lon="-0.59435">
        <ele>151.3</ele>
        <time>2012-04-08T06:57:51Z</time>
      </trkpt>
      <trkpt lat="46.96141" lon="-0.59451">
        <ele>151.1</ele>
        <time>2012-04-08T06:57:54Z</time>
      </trkpt>
      <trkpt lat="46.96145" lon="-0.59461">
        <ele>151.1</ele>
        <time>2012-04-08T06:57:56Z</time>
      </trkpt>
      <trkpt lat="46.9615" lon="-0.59472">
        <ele>151.3</ele>
        <time>2012-04-08T06:57:58Z</time>
      </trkpt>
      <trkpt lat="46.96154" lon="-0.59483">
        <ele>151.3</ele>
        <time>2012-04-08T06:58:00Z</time>
      </trkpt>
      <trkpt lat="46.96159" lon="-0.59494">
        <ele>151.3</ele>
        <time>2012-04-08T06:58:02Z</time>
      </trkpt>
      <trkpt lat="46.96163" lon="-0.59505">
        <ele>151.1</ele>
        <time>2012-04-08T06:58:04Z</time>
      </trkpt>
      <trkpt lat="46.96168" lon="-0.59516">
        <ele>151.1</ele>
        <time>2012-04-08T06:58:06Z</time>
      </trkpt>
      <trkpt lat="46.96172" lon="-0.59526">
        <ele>151.1</ele>
        <time>2012-04-08T06:58:08Z</time>
      </trkpt>
      <trkpt lat="46.96176" lon="-0.59537">
        <ele>151.3</ele>
        <time>2012-04-08T06:58:10Z</time>
      </trkpt>
      <trkpt lat="46.9618" lon="-0.59548">
        <ele>151.3</ele>
        <time>2012-04-08T06:58:12Z</time>
      </trkpt>
      <trkpt lat="46.96185" lon="-0.59558">
        <ele>151.3</ele>
        <time>2012-04-08T06:58:14Z</time>
      </trkpt>
      <trkpt lat="46.96189" lon="-0.59569">
        <ele>151.3</ele>
        <time>2012-04-08T06:58:16Z</time>
      </trkpt>
      <trkpt lat="46.96194" lon="-0.59581">
        <ele>151.3</ele>
        <time>2012-04-08T06:58:18Z</time>
      </trkpt>
      <trkpt lat="46.96198" lon="-0.59592">
        <ele>151.3</ele>
        <time>2012-04-08T06:58:20Z</time>
      </trkpt>
      <trkpt lat="46.96202" lon="-0.59603">
        <ele>151.5</ele>
        <time>2012-04-08T06:58:22Z</time>
      </trkpt>
      <trkpt lat="46.96207" lon="-0.59614">
        <ele>151.6</ele>
        <time>2012-04-08T06:58:24Z</time>
      </trkpt>
      <trkpt lat="46.96211" lon="-0.59625">
        <ele>151.8</ele>
        <time>2012-04-08T06:58:26Z</time>
      </trkpt>
      <trkpt lat="46.96215" lon="-0.59637">
        <ele>151.8</ele>
        <time>2012-04-08T06:58:28Z</time>
      </trkpt>
      <trkpt lat="46.96218" lon="-0.59642">
        <ele>151.8</ele>
        <time>2012-04-08T06:58:29Z</time>
      </trkpt>
      <trkpt lat="46.9622" lon="-0.59648">
        <ele>151.8</ele>
        <time>2012-04-08T06:58:30Z</time>
      </trkpt>
      <trkpt lat="46.96222" lon="-0.59654">
        <ele>151.8</ele>
        <time>2012-04-08T06:58:31Z</time>
      </trkpt>
      <trkpt lat="46.96224" lon="-0.5966">
        <ele>151.8</ele>
        <time>2012-04-08T06:58:32Z</time>
      </trkpt>
      <trkpt lat="46.96227" lon="-0.59666">
        <ele>151.8</ele>
        <time>2012-04-08T06:58:33Z</time>
      </trkpt>
      <trkpt lat="46.96229" lon="-0.59672">
        <ele>151.8</ele>
        <time>2012-04-08T06:58:34Z</time>
      </trkpt>
      <trkpt lat="46.96231" lon="-0.59679">
        <ele>151.8</ele>
        <time>2012-04-08T06:58:35Z</time>
      </trkpt>
      <trkpt lat="46.96233" lon="-0.59685">
        <ele>151.8</ele>
        <time>2012-04-08T06:58:36Z</time>
      </trkpt>
      <trkpt lat="46.96236" lon="-0.59691">
        <ele>151.8</ele>
        <time>2012-04-08T06:58:37Z</time>
      </trkpt>
      <trkpt lat="46.96238" lon="-0.59697">
        <ele>152</ele>
        <time>2012-04-08T06:58:38Z</time>
      </trkpt>
      <trkpt lat="46.96241" lon="-0.59703">
        <ele>152</ele>
        <time>2012-04-08T06:58:39Z</time>
      </trkpt>
      <trkpt lat="46.96243" lon="-0.59709">
        <ele>152</ele>
        <time>2012-04-08T06:58:40Z</time>
      </trkpt>
      <trkpt lat="46.96245" lon="-0.59715">
        <ele>152.1</ele>
        <time>2012-04-08T06:58:41Z</time>
      </trkpt>
      <trkpt lat="46.96248" lon="-0.59721">
        <ele>152.1</ele>
        <time>2012-04-08T06:58:42Z</time>
      </trkpt>
      <trkpt lat="46.9625" lon="-0.59727">
        <ele>152.1</ele>
        <time>2012-04-08T06:58:43Z</time>
      </trkpt>
      <trkpt lat="46.96253" lon="-0.59733">
        <ele>152.1</ele>
        <time>2012-04-08T06:58:44Z</time>
      </trkpt>
      <trkpt lat="46.96255" lon="-0.59739">
        <ele>152.3</ele>
        <time>2012-04-08T06:58:45Z</time>
      </trkpt>
      <trkpt lat="46.96258" lon="-0.59745">
        <ele>152.3</ele>
        <time>2012-04-08T06:58:46Z</time>
      </trkpt>
      <trkpt lat="46.9626" lon="-0.59752">
        <ele>152.5</ele>
        <time>2012-04-08T06:58:47Z</time>
      </trkpt>
      <trkpt lat="46.96262" lon="-0.59758">
        <ele>152.5</ele>
        <time>2012-04-08T06:58:48Z</time>
      </trkpt>
      <trkpt lat="46.96265" lon="-0.59765">
        <ele>152.6</ele>
        <time>2012-04-08T06:58:49Z</time>
      </trkpt>
      <trkpt lat="46.96267" lon="-0.59771">
        <ele>152.6</ele>
        <time>2012-04-08T06:58:50Z</time>
      </trkpt>
      <trkpt lat="46.9627" lon="-0.59777">
        <ele>152.8</ele>
        <time>2012-04-08T06:58:51Z</time>
      </trkpt>
      <trkpt lat="46.96272" lon="-0.59784">
        <ele>152.8</ele>
        <time>2012-04-08T06:58:52Z</time>
      </trkpt>
      <trkpt lat="46.96274" lon="-0.5979">
        <ele>153</ele>
        <time>2012-04-08T06:58:53Z</time>
      </trkpt>
      <trkpt lat="46.96277" lon="-0.59796">
        <ele>153.1</ele>
        <time>2012-04-08T06:58:54Z</time>
      </trkpt>
      <trkpt lat="46.96279" lon="-0.59802">
        <ele>153.1</ele>
        <time>2012-04-08T06:58:55Z</time>
      </trkpt>
      <trkpt lat="46.96282" lon="-0.59808">
        <ele>153.1</ele>
        <time>2012-04-08T06:58:56Z</time>
      </trkpt>
      <trkpt lat="46.96284" lon="-0.59814">
        <ele>153.3</ele>
        <time>2012-04-08T06:58:57Z</time>
      </trkpt>
      <trkpt lat="46.96286" lon="-0.5982">
        <ele>153.3</ele>
        <time>2012-04-08T06:58:58Z</time>
      </trkpt>
      <trkpt lat="46.96289" lon="-0.59826">
        <ele>153.3</ele>
        <time>2012-04-08T06:58:59Z</time>
      </trkpt>
      <trkpt lat="46.96291" lon="-0.59833">
        <ele>153.5</ele>
        <time>2012-04-08T06:59:00Z</time>
      </trkpt>
      <trkpt lat="46.96294" lon="-0.59839">
        <ele>153.5</ele>
        <time>2012-04-08T06:59:01Z</time>
      </trkpt>
      <trkpt lat="46.96296" lon="-0.59845">
        <ele>153.6</ele>
        <time>2012-04-08T06:59:02Z</time>
      </trkpt>
      <trkpt lat="46.96298" lon="-0.59851">
        <ele>153.6</ele>
        <time>2012-04-08T06:59:03Z</time>
      </trkpt>
      <trkpt lat="46.96301" lon="-0.59857">
        <ele>153.6</ele>
        <time>2012-04-08T06:59:04Z</time>
      </trkpt>
      <trkpt lat="46.96303" lon="-0.59863">
        <ele>153.8</ele>
        <time>2012-04-08T06:59:05Z</time>
      </trkpt>
      <trkpt lat="46.96305" lon="-0.59869">
        <ele>153.8</ele>
        <time>2012-04-08T06:59:06Z</time>
      </trkpt>
      <trkpt lat="46.96308" lon="-0.59875">
        <ele>153.8</ele>
        <time>2012-04-08T06:59:07Z</time>
      </trkpt>
      <trkpt lat="46.9631" lon="-0.5988">
        <ele>153.8</ele>
        <time>2012-04-08T06:59:08Z</time>
      </trkpt>
      <trkpt lat="46.96312" lon="-0.59886">
        <ele>153.8</ele>
        <time>2012-04-08T06:59:09Z</time>
      </trkpt>
      <trkpt lat="46.96315" lon="-0.59892">
        <ele>153.8</ele>
        <time>2012-04-08T06:59:10Z</time>
      </trkpt>
      <trkpt lat="46.96317" lon="-0.59898">
        <ele>153.8</ele>
        <time>2012-04-08T06:59:11Z</time>
      </trkpt>
      <trkpt lat="46.96319" lon="-0.59903">
        <ele>153.8</ele>
        <time>2012-04-08T06:59:12Z</time>
      </trkpt>
      <trkpt lat="46.96322" lon="-0.59909">
        <ele>154</ele>
        <time>2012-04-08T06:59:13Z</time>
      </trkpt>
      <trkpt lat="46.96324" lon="-0.59915">
        <ele>154</ele>
        <time>2012-04-08T06:59:14Z</time>
      </trkpt>
      <trkpt lat="46.96326" lon="-0.59921">
        <ele>154</ele>
        <time>2012-04-08T06:59:15Z</time>
      </trkpt>
      <trkpt lat="46.96329" lon="-0.59927">
        <ele>154.1</ele>
        <time>2012-04-08T06:59:16Z</time>
      </trkpt>
      <trkpt lat="46.96331" lon="-0.59933">
        <ele>154.1</ele>
        <time>2012-04-08T06:59:17Z</time>
      </trkpt>
      <trkpt lat="46.96334" lon="-0.59939">
        <ele>154.1</ele>
        <time>2012-04-08T06:59:18Z</time>
      </trkpt>
      <trkpt lat="46.96336" lon="-0.59945">
        <ele>154.1</ele>
        <time>2012-04-08T06:59:19Z</time>
      </trkpt>
      <trkpt lat="46.96339" lon="-0.59951">
        <ele>154.1</ele>
        <time>2012-04-08T06:59:20Z</time>
      </trkpt>
      <trkpt lat="46.96341" lon="-0.59957">
        <ele>154.3</ele>
        <time>2012-04-08T06:59:21Z</time>
      </trkpt>
      <trkpt lat="46.96343" lon="-0.59963">
        <ele>154.3</ele>
        <time>2012-04-08T06:59:22Z</time>
      </trkpt>
      <trkpt lat="46.96346" lon="-0.59969">
        <ele>154.5</ele>
        <time>2012-04-08T06:59:23Z</time>
      </trkpt>
      <trkpt lat="46.96348" lon="-0.59975">
        <ele>154.6</ele>
        <time>2012-04-08T06:59:24Z</time>
      </trkpt>
      <trkpt lat="46.96351" lon="-0.59981">
        <ele>154.6</ele>
        <time>2012-04-08T06:59:25Z</time>
      </trkpt>
      <trkpt lat="46.96353" lon="-0.59987">
        <ele>154.6</ele>
        <time>2012-04-08T06:59:26Z</time>
      </trkpt>
      <trkpt lat="46.96355" lon="-0.59993">
        <ele>154.8</ele>
        <time>2012-04-08T06:59:27Z</time>
      </trkpt>
      <trkpt lat="46.96357" lon="-0.59998">
        <ele>154.8</ele>
        <time>2012-04-08T06:59:28Z</time>
      </trkpt>
      <trkpt lat="46.9636" lon="-0.60004">
        <ele>155</ele>
        <time>2012-04-08T06:59:29Z</time>
      </trkpt>
      <trkpt lat="46.96362" lon="-0.6001">
        <ele>155.1</ele>
        <time>2012-04-08T06:59:30Z</time>
      </trkpt>
      <trkpt lat="46.96364" lon="-0.60016">
        <ele>155.1</ele>
        <time>2012-04-08T06:59:31Z</time>
      </trkpt>
      <trkpt lat="46.96366" lon="-0.60022">
        <ele>155.3</ele>
        <time>2012-04-08T06:59:32Z</time>
      </trkpt>
      <trkpt lat="46.96368" lon="-0.60027">
        <ele>155.6</ele>
        <time>2012-04-08T06:59:33Z</time>
      </trkpt>
      <trkpt lat="46.96371" lon="-0.60033">
        <ele>155.6</ele>
        <time>2012-04-08T06:59:34Z</time>
      </trkpt>
      <trkpt lat="46.96373" lon="-0.60039">
        <ele>155.8</ele>
        <time>2012-04-08T06:59:35Z</time>
      </trkpt>
      <trkpt lat="46.96376" lon="-0.60045">
        <ele>156.1</ele>
        <time>2012-04-08T06:59:36Z</time>
      </trkpt>
      <trkpt lat="46.96378" lon="-0.6005">
        <ele>156.1</ele>
        <time>2012-04-08T06:59:37Z</time>
      </trkpt>
      <trkpt lat="46.9638" lon="-0.60056">
        <ele>156.3</ele>
        <time>2012-04-08T06:59:38Z</time>
      </trkpt>
      <trkpt lat="46.96383" lon="-0.60062">
        <ele>156.3</ele>
        <time>2012-04-08T06:59:39Z</time>
      </trkpt>
      <trkpt lat="46.96385" lon="-0.60068">
        <ele>156.5</ele>
        <time>2012-04-08T06:59:40Z</time>
      </trkpt>
      <trkpt lat="46.96388" lon="-0.60074">
        <ele>156.6</ele>
        <time>2012-04-08T06:59:41Z</time>
      </trkpt>
      <trkpt lat="46.9639" lon="-0.60079">
        <ele>156.6</ele>
        <time>2012-04-08T06:59:42Z</time>
      </trkpt>
      <trkpt lat="46.96392" lon="-0.60085">
        <ele>156.6</ele>
        <time>2012-04-08T06:59:43Z</time>
      </trkpt>
      <trkpt lat="46.96395" lon="-0.60091">
        <ele>156.6</ele>
        <time>2012-04-08T06:59:44Z</time>
      </trkpt>
      <trkpt lat="46.96397" lon="-0.60097">
        <ele>156.8</ele>
        <time>2012-04-08T06:59:45Z</time>
      </trkpt>
      <trkpt lat="46.96399" lon="-0.60102">
        <ele>156.8</ele>
        <time>2012-04-08T06:59:46Z</time>
      </trkpt>
      <trkpt lat="46.96401" lon="-0.60108">
        <ele>157</ele>
        <time>2012-04-08T06:59:47Z</time>
      </trkpt>
      <trkpt lat="46.96404" lon="-0.60114">
        <ele>157.1</ele>
        <time>2012-04-08T06:59:48Z</time>
      </trkpt>
      <trkpt lat="46.96406" lon="-0.6012">
        <ele>157.3</ele>
        <time>2012-04-08T06:59:49Z</time>
      </trkpt>
      <trkpt lat="46.96409" lon="-0.60126">
        <ele>157.3</ele>
        <time>2012-04-08T06:59:50Z</time>
      </trkpt>
      <trkpt lat="46.96411" lon="-0.60132">
        <ele>157.5</ele>
        <time>2012-04-08T06:59:51Z</time>
      </trkpt>
      <trkpt lat="46.96414" lon="-0.60138">
        <ele>157.6</ele>
        <time>2012-04-08T06:59:52Z</time>
      </trkpt>
      <trkpt lat="46.96416" lon="-0.60144">
        <ele>157.6</ele>
        <time>2012-04-08T06:59:53Z</time>
      </trkpt>
      <trkpt lat="46.96419" lon="-0.6015">
        <ele>157.6</ele>
        <time>2012-04-08T06:59:54Z</time>
      </trkpt>
      <trkpt lat="46.96421" lon="-0.60156">
        <ele>157.8</ele>
        <time>2012-04-08T06:59:55Z</time>
      </trkpt>
      <trkpt lat="46.96423" lon="-0.60162">
        <ele>157.8</ele>
        <time>2012-04-08T06:59:56Z</time>
      </trkpt>
      <trkpt lat="46.96425" lon="-0.60168">
        <ele>158</ele>
        <time>2012-04-08T06:59:57Z</time>
      </trkpt>
      <trkpt lat="46.96428" lon="-0.60174">
        <ele>158</ele>
        <time>2012-04-08T06:59:58Z</time>
      </trkpt>
      <trkpt lat="46.9643" lon="-0.6018">
        <ele>158.1</ele>
        <time>2012-04-08T06:59:59Z</time>
      </trkpt>
      <trkpt lat="46.96433" lon="-0.60186">
        <ele>158.1</ele>
        <time>2012-04-08T07:00:00Z</time>
      </trkpt>
      <trkpt lat="46.96435" lon="-0.60192">
        <ele>158.3</ele>
        <time>2012-04-08T07:00:01Z</time>
      </trkpt>
      <trkpt lat="46.96437" lon="-0.60198">
        <ele>158.3</ele>
        <time>2012-04-08T07:00:02Z</time>
      </trkpt>
      <trkpt lat="46.9644" lon="-0.60204">
        <ele>158.3</ele>
        <time>2012-04-08T07:00:03Z</time>
      </trkpt>
      <trkpt lat="46.96442" lon="-0.6021">
        <ele>158.3</ele>
        <time>2012-04-08T07:00:04Z</time>
      </trkpt>
      <trkpt lat="46.96444" lon="-0.60216">
        <ele>158.5</ele>
        <time>2012-04-08T07:00:05Z</time>
      </trkpt>
      <trkpt lat="46.96446" lon="-0.60222">
        <ele>158.5</ele>
        <time>2012-04-08T07:00:06Z</time>
      </trkpt>
      <trkpt lat="46.96448" lon="-0.60228">
        <ele>158.5</ele>
        <time>2012-04-08T07:00:07Z</time>
      </trkpt>
      <trkpt lat="46.96451" lon="-0.60234">
        <ele>158.5</ele>
        <time>2012-04-08T07:00:08Z</time>
      </trkpt>
      <trkpt lat="46.96453" lon="-0.6024">
        <ele>158.6</ele>
        <time>2012-04-08T07:00:09Z</time>
      </trkpt>
      <trkpt lat="46.96455" lon="-0.60246">
        <ele>158.6</ele>
        <time>2012-04-08T07:00:10Z</time>
      </trkpt>
      <trkpt lat="46.96457" lon="-0.60252">
        <ele>158.6</ele>
        <time>2012-04-08T07:00:11Z</time>
      </trkpt>
      <trkpt lat="46.96459" lon="-0.60258">
        <ele>158.6</ele>
        <time>2012-04-08T07:00:12Z</time>
      </trkpt>
      <trkpt lat="46.96462" lon="-0.60264">
        <ele>158.6</ele>
        <time>2012-04-08T07:00:13Z</time>
      </trkpt>
      <trkpt lat="46.96464" lon="-0.6027">
        <ele>158.8</ele>
        <time>2012-04-08T07:00:14Z</time>
      </trkpt>
      <trkpt lat="46.96466" lon="-0.60276">
        <ele>158.8</ele>
        <time>2012-04-08T07:00:15Z</time>
      </trkpt>
      <trkpt lat="46.96468" lon="-0.60281">
        <ele>158.8</ele>
        <time>2012-04-08T07:00:16Z</time>
      </trkpt>
      <trkpt lat="46.96473" lon="-0.60293">
        <ele>158.8</ele>
        <time>2012-04-08T07:00:18Z</time>
      </trkpt>
      <trkpt lat="46.96477" lon="-0.60304">
        <ele>158.8</ele>
        <time>2012-04-08T07:00:20Z</time>
      </trkpt>
      <trkpt lat="46.96481" lon="-0.60316">
        <ele>158.8</ele>
        <time>2012-04-08T07:00:22Z</time>
      </trkpt>
      <trkpt lat="46.96485" lon="-0.60327">
        <ele>159</ele>
        <time>2012-04-08T07:00:24Z</time>
      </trkpt>
      <trkpt lat="46.96489" lon="-0.60338">
        <ele>159</ele>
        <time>2012-04-08T07:00:26Z</time>
      </trkpt>
      <trkpt lat="46.96493" lon="-0.60349">
        <ele>159.1</ele>
        <time>2012-04-08T07:00:28Z</time>
      </trkpt>
      <trkpt lat="46.96498" lon="-0.6036">
        <ele>159.1</ele>
        <time>2012-04-08T07:00:30Z</time>
      </trkpt>
      <trkpt lat="46.96502" lon="-0.60371">
        <ele>159.3</ele>
        <time>2012-04-08T07:00:32Z</time>
      </trkpt>
      <trkpt lat="46.96506" lon="-0.60382">
        <ele>159.3</ele>
        <time>2012-04-08T07:00:34Z</time>
      </trkpt>
      <trkpt lat="46.9651" lon="-0.60393">
        <ele>159.3</ele>
        <time>2012-04-08T07:00:36Z</time>
      </trkpt>
      <trkpt lat="46.96514" lon="-0.60404">
        <ele>159.5</ele>
        <time>2012-04-08T07:00:38Z</time>
      </trkpt>
      <trkpt lat="46.96518" lon="-0.60414">
        <ele>159.6</ele>
        <time>2012-04-08T07:00:40Z</time>
      </trkpt>
      <trkpt lat="46.96522" lon="-0.60425">
        <ele>159.6</ele>
        <time>2012-04-08T07:00:42Z</time>
      </trkpt>
      <trkpt lat="46.96526" lon="-0.60436">
        <ele>159.6</ele>
        <time>2012-04-08T07:00:44Z</time>
      </trkpt>
      <trkpt lat="46.9653" lon="-0.60446">
        <ele>159.5</ele>
        <time>2012-04-08T07:00:46Z</time>
      </trkpt>
      <trkpt lat="46.96534" lon="-0.60457">
        <ele>159.3</ele>
        <time>2012-04-08T07:00:48Z</time>
      </trkpt>
      <trkpt lat="46.96539" lon="-0.60468">
        <ele>159.3</ele>
        <time>2012-04-08T07:00:50Z</time>
      </trkpt>
      <trkpt lat="46.96543" lon="-0.6048">
        <ele>159.3</ele>
        <time>2012-04-08T07:00:52Z</time>
      </trkpt>
      <trkpt lat="46.96547" lon="-0.60491">
        <ele>159.3</ele>
        <time>2012-04-08T07:00:54Z</time>
      </trkpt>
      <trkpt lat="46.96549" lon="-0.60496">
        <ele>159.3</ele>
        <time>2012-04-08T07:00:55Z</time>
      </trkpt>
      <trkpt lat="46.96555" lon="-0.60512">
        <ele>159.5</ele>
        <time>2012-04-08T07:00:58Z</time>
      </trkpt>
      <trkpt lat="46.96558" lon="-0.60522">
        <ele>159.6</ele>
        <time>2012-04-08T07:01:00Z</time>
      </trkpt>
      <trkpt lat="46.96562" lon="-0.60532">
        <ele>159.6</ele>
        <time>2012-04-08T07:01:02Z</time>
      </trkpt>
      <trkpt lat="46.96566" lon="-0.60542">
        <ele>159.6</ele>
        <time>2012-04-08T07:01:04Z</time>
      </trkpt>
      <trkpt lat="46.9657" lon="-0.60553">
        <ele>159.6</ele>
        <time>2012-04-08T07:01:06Z</time>
      </trkpt>
      <trkpt lat="46.96574" lon="-0.60563">
        <ele>159.6</ele>
        <time>2012-04-08T07:01:08Z</time>
      </trkpt>
      <trkpt lat="46.96578" lon="-0.60573">
        <ele>159.6</ele>
        <time>2012-04-08T07:01:10Z</time>
      </trkpt>
      <trkpt lat="46.96582" lon="-0.60584">
        <ele>159.6</ele>
        <time>2012-04-08T07:01:12Z</time>
      </trkpt>
      <trkpt lat="46.96586" lon="-0.60596">
        <ele>159.5</ele>
        <time>2012-04-08T07:01:14Z</time>
      </trkpt>
      <trkpt lat="46.96591" lon="-0.60607">
        <ele>159.5</ele>
        <time>2012-04-08T07:01:16Z</time>
      </trkpt>
      <trkpt lat="46.96595" lon="-0.60618">
        <ele>159.6</ele>
        <time>2012-04-08T07:01:18Z</time>
      </trkpt>
      <trkpt lat="46.96599" lon="-0.60629">
        <ele>159.8</ele>
        <time>2012-04-08T07:01:20Z</time>
      </trkpt>
      <trkpt lat="46.96603" lon="-0.60639">
        <ele>159.8</ele>
        <time>2012-04-08T07:01:22Z</time>
      </trkpt>
      <trkpt lat="46.96608" lon="-0.6065">
        <ele>159.8</ele>
        <time>2012-04-08T07:01:24Z</time>
      </trkpt>
      <trkpt lat="46.96612" lon="-0.6066">
        <ele>160</ele>
        <time>2012-04-08T07:01:26Z</time>
      </trkpt>
      <trkpt lat="46.96616" lon="-0.60671">
        <ele>160</ele>
        <time>2012-04-08T07:01:28Z</time>
      </trkpt>
      <trkpt lat="46.9662" lon="-0.60682">
        <ele>160</ele>
        <time>2012-04-08T07:01:30Z</time>
      </trkpt>
      <trkpt lat="46.96624" lon="-0.60693">
        <ele>160.1</ele>
        <time>2012-04-08T07:01:32Z</time>
      </trkpt>
      <trkpt lat="46.96626" lon="-0.60699">
        <ele>160.1</ele>
        <time>2012-04-08T07:01:33Z</time>
      </trkpt>
      <trkpt lat="46.96628" lon="-0.60704">
        <ele>160.3</ele>
        <time>2012-04-08T07:01:34Z</time>
      </trkpt>
      <trkpt lat="46.96631" lon="-0.6071">
        <ele>160.3</ele>
        <time>2012-04-08T07:01:35Z</time>
      </trkpt>
      <trkpt lat="46.96633" lon="-0.60716">
        <ele>160.5</ele>
        <time>2012-04-08T07:01:36Z</time>
      </trkpt>
      <trkpt lat="46.96635" lon="-0.60722">
        <ele>160.6</ele>
        <time>2012-04-08T07:01:37Z</time>
      </trkpt>
      <trkpt lat="46.96637" lon="-0.60728">
        <ele>160.6</ele>
        <time>2012-04-08T07:01:38Z</time>
      </trkpt>
      <trkpt lat="46.96639" lon="-0.60734">
        <ele>160.6</ele>
        <time>2012-04-08T07:01:39Z</time>
      </trkpt>
      <trkpt lat="46.96642" lon="-0.6074">
        <ele>160.8</ele>
        <time>2012-04-08T07:01:40Z</time>
      </trkpt>
      <trkpt lat="46.96644" lon="-0.60745">
        <ele>160.8</ele>
        <time>2012-04-08T07:01:41Z</time>
      </trkpt>
      <trkpt lat="46.96646" lon="-0.60751">
        <ele>161</ele>
        <time>2012-04-08T07:01:42Z</time>
      </trkpt>
      <trkpt lat="46.96648" lon="-0.60758">
        <ele>161</ele>
        <time>2012-04-08T07:01:43Z</time>
      </trkpt>
      <trkpt lat="46.96651" lon="-0.60764">
        <ele>161.1</ele>
        <time>2012-04-08T07:01:44Z</time>
      </trkpt>
      <trkpt lat="46.96653" lon="-0.6077">
        <ele>161.1</ele>
        <time>2012-04-08T07:01:45Z</time>
      </trkpt>
      <trkpt lat="46.96656" lon="-0.60776">
        <ele>161.3</ele>
        <time>2012-04-08T07:01:46Z</time>
      </trkpt>
      <trkpt lat="46.96658" lon="-0.60782">
        <ele>161.3</ele>
        <time>2012-04-08T07:01:47Z</time>
      </trkpt>
      <trkpt lat="46.9666" lon="-0.60788">
        <ele>161.5</ele>
        <time>2012-04-08T07:01:48Z</time>
      </trkpt>
      <trkpt lat="46.96663" lon="-0.60793">
        <ele>161.6</ele>
        <time>2012-04-08T07:01:49Z</time>
      </trkpt>
      <trkpt lat="46.96666" lon="-0.60799">
        <ele>161.6</ele>
        <time>2012-04-08T07:01:50Z</time>
      </trkpt>
      <trkpt lat="46.96669" lon="-0.60804">
        <ele>161.8</ele>
        <time>2012-04-08T07:01:51Z</time>
      </trkpt>
      <trkpt lat="46.96673" lon="-0.60808">
        <ele>161.8</ele>
        <time>2012-04-08T07:01:52Z</time>
      </trkpt>
      <trkpt lat="46.96677" lon="-0.60811">
        <ele>161.8</ele>
        <time>2012-04-08T07:01:53Z</time>
      </trkpt>
      <trkpt lat="46.96682" lon="-0.60813">
        <ele>162</ele>
        <time>2012-04-08T07:01:54Z</time>
      </trkpt>
      <trkpt lat="46.96686" lon="-0.60814">
        <ele>162.1</ele>
        <time>2012-04-08T07:01:55Z</time>
      </trkpt>
      <trkpt lat="46.96691" lon="-0.60815">
        <ele>162.1</ele>
        <time>2012-04-08T07:01:56Z</time>
      </trkpt>
      <trkpt lat="46.96696" lon="-0.60814">
        <ele>162.3</ele>
        <time>2012-04-08T07:01:57Z</time>
      </trkpt>
      <trkpt lat="46.96702" lon="-0.60814">
        <ele>162.3</ele>
        <time>2012-04-08T07:01:58Z</time>
      </trkpt>
      <trkpt lat="46.96707" lon="-0.60812">
        <ele>162.3</ele>
        <time>2012-04-08T07:01:59Z</time>
      </trkpt>
      <trkpt lat="46.96712" lon="-0.60811">
        <ele>162.5</ele>
        <time>2012-04-08T07:02:00Z</time>
      </trkpt>
      <trkpt lat="46.96717" lon="-0.60809">
        <ele>162.5</ele>
        <time>2012-04-08T07:02:01Z</time>
      </trkpt>
      <trkpt lat="46.96722" lon="-0.60807">
        <ele>162.5</ele>
        <time>2012-04-08T07:02:02Z</time>
      </trkpt>
      <trkpt lat="46.96728" lon="-0.60805">
        <ele>162.6</ele>
        <time>2012-04-08T07:02:03Z</time>
      </trkpt>
      <trkpt lat="46.96733" lon="-0.60803">
        <ele>162.6</ele>
        <time>2012-04-08T07:02:04Z</time>
      </trkpt>
      <trkpt lat="46.96738" lon="-0.60801">
        <ele>162.6</ele>
        <time>2012-04-08T07:02:05Z</time>
      </trkpt>
      <trkpt lat="46.96743" lon="-0.60799">
        <ele>162.6</ele>
        <time>2012-04-08T07:02:06Z</time>
      </trkpt>
      <trkpt lat="46.96749" lon="-0.60798">
        <ele>162.6</ele>
        <time>2012-04-08T07:02:07Z</time>
      </trkpt>
      <trkpt lat="46.96754" lon="-0.60796">
        <ele>162.6</ele>
        <time>2012-04-08T07:02:08Z</time>
      </trkpt>
      <trkpt lat="46.96759" lon="-0.60796">
        <ele>162.6</ele>
        <time>2012-04-08T07:02:09Z</time>
      </trkpt>
      <trkpt lat="46.96765" lon="-0.60797">
        <ele>162.6</ele>
        <time>2012-04-08T07:02:10Z</time>
      </trkpt>
      <trkpt lat="46.9677" lon="-0.60798">
        <ele>162.6</ele>
        <time>2012-04-08T07:02:11Z</time>
      </trkpt>
      <trkpt lat="46.96775" lon="-0.608">
        <ele>162.6</ele>
        <time>2012-04-08T07:02:12Z</time>
      </trkpt>
      <trkpt lat="46.9678" lon="-0.60803">
        <ele>162.6</ele>
        <time>2012-04-08T07:02:13Z</time>
      </trkpt>
      <trkpt lat="46.96784" lon="-0.60807">
        <ele>162.6</ele>
        <time>2012-04-08T07:02:14Z</time>
      </trkpt>
      <trkpt lat="46.96789" lon="-0.60811">
        <ele>162.6</ele>
        <time>2012-04-08T07:02:15Z</time>
      </trkpt>
      <trkpt lat="46.96793" lon="-0.60816">
        <ele>162.6</ele>
        <time>2012-04-08T07:02:16Z</time>
      </trkpt>
      <trkpt lat="46.96798" lon="-0.6082">
        <ele>162.6</ele>
        <time>2012-04-08T07:02:17Z</time>
      </trkpt>
      <trkpt lat="46.96802" lon="-0.60825">
        <ele>162.6</ele>
        <time>2012-04-08T07:02:18Z</time>
      </trkpt>
      <trkpt lat="46.96806" lon="-0.6083">
        <ele>162.6</ele>
        <time>2012-04-08T07:02:19Z</time>
      </trkpt>
      <trkpt lat="46.96811" lon="-0.60835">
        <ele>162.6</ele>
        <time>2012-04-08T07:02:20Z</time>
      </trkpt>
      <trkpt lat="46.96815" lon="-0.6084">
        <ele>162.6</ele>
        <time>2012-04-08T07:02:21Z</time>
      </trkpt>
      <trkpt lat="46.96819" lon="-0.60844">
        <ele>162.6</ele>
        <time>2012-04-08T07:02:22Z</time>
      </trkpt>
      <trkpt lat="46.96823" lon="-0.60848">
        <ele>162.6</ele>
        <time>2012-04-08T07:02:23Z</time>
      </trkpt>
      <trkpt lat="46.96827" lon="-0.60852">
        <ele>162.6</ele>
        <time>2012-04-08T07:02:24Z</time>
      </trkpt>
      <trkpt lat="46.96832" lon="-0.60856">
        <ele>162.8</ele>
        <time>2012-04-08T07:02:25Z</time>
      </trkpt>
      <trkpt lat="46.96836" lon="-0.60859">
        <ele>162.8</ele>
        <time>2012-04-08T07:02:26Z</time>
      </trkpt>
      <trkpt lat="46.9684" lon="-0.60863">
        <ele>162.8</ele>
        <time>2012-04-08T07:02:27Z</time>
      </trkpt>
      <trkpt lat="46.96845" lon="-0.60866">
        <ele>162.8</ele>
        <time>2012-04-08T07:02:28Z</time>
      </trkpt>
      <trkpt lat="46.9685" lon="-0.60869">
        <ele>162.8</ele>
        <time>2012-04-08T07:02:29Z</time>
      </trkpt>
      <trkpt lat="46.96854" lon="-0.60872">
        <ele>162.8</ele>
        <time>2012-04-08T07:02:30Z</time>
      </trkpt>
      <trkpt lat="46.96859" lon="-0.60875">
        <ele>162.6</ele>
        <time>2012-04-08T07:02:31Z</time>
      </trkpt>
      <trkpt lat="46.96863" lon="-0.60878">
        <ele>162.6</ele>
        <time>2012-04-08T07:02:32Z</time>
      </trkpt>
      <trkpt lat="46.96868" lon="-0.60881">
        <ele>162.6</ele>
        <time>2012-04-08T07:02:33Z</time>
      </trkpt>
      <trkpt lat="46.96873" lon="-0.60885">
        <ele>162.6</ele>
        <time>2012-04-08T07:02:34Z</time>
      </trkpt>
      <trkpt lat="46.96877" lon="-0.60888">
        <ele>162.6</ele>
        <time>2012-04-08T07:02:35Z</time>
      </trkpt>
      <trkpt lat="46.96882" lon="-0.60892">
        <ele>162.6</ele>
        <time>2012-04-08T07:02:36Z</time>
      </trkpt>
      <trkpt lat="46.96886" lon="-0.60896">
        <ele>162.6</ele>
        <time>2012-04-08T07:02:37Z</time>
      </trkpt>
      <trkpt lat="46.96891" lon="-0.609">
        <ele>162.6</ele>
        <time>2012-04-08T07:02:38Z</time>
      </trkpt>
      <trkpt lat="46.96896" lon="-0.60904">
        <ele>162.6</ele>
        <time>2012-04-08T07:02:39Z</time>
      </trkpt>
      <trkpt lat="46.969" lon="-0.60909">
        <ele>162.6</ele>
        <time>2012-04-08T07:02:40Z</time>
      </trkpt>
      <trkpt lat="46.96905" lon="-0.60913">
        <ele>162.6</ele>
        <time>2012-04-08T07:02:41Z</time>
      </trkpt>
      <trkpt lat="46.96909" lon="-0.60917">
        <ele>162.6</ele>
        <time>2012-04-08T07:02:42Z</time>
      </trkpt>
      <trkpt lat="46.96913" lon="-0.60922">
        <ele>162.8</ele>
        <time>2012-04-08T07:02:43Z</time>
      </trkpt>
      <trkpt lat="46.96918" lon="-0.60926">
        <ele>162.8</ele>
        <time>2012-04-08T07:02:44Z</time>
      </trkpt>
      <trkpt lat="46.96922" lon="-0.60931">
        <ele>162.8</ele>
        <time>2012-04-08T07:02:45Z</time>
      </trkpt>
      <trkpt lat="46.96926" lon="-0.60936">
        <ele>163</ele>
        <time>2012-04-08T07:02:46Z</time>
      </trkpt>
      <trkpt lat="46.9693" lon="-0.6094">
        <ele>163</ele>
        <time>2012-04-08T07:02:47Z</time>
      </trkpt>
      <trkpt lat="46.96934" lon="-0.60945">
        <ele>163</ele>
        <time>2012-04-08T07:02:48Z</time>
      </trkpt>
      <trkpt lat="46.96938" lon="-0.6095">
        <ele>163</ele>
        <time>2012-04-08T07:02:49Z</time>
      </trkpt>
      <trkpt lat="46.96942" lon="-0.60955">
        <ele>163</ele>
        <time>2012-04-08T07:02:50Z</time>
      </trkpt>
      <trkpt lat="46.96946" lon="-0.6096">
        <ele>162.8</ele>
        <time>2012-04-08T07:02:51Z</time>
      </trkpt>
      <trkpt lat="46.9695" lon="-0.60964">
        <ele>162.8</ele>
        <time>2012-04-08T07:02:52Z</time>
      </trkpt>
      <trkpt lat="46.96955" lon="-0.60969">
        <ele>162.8</ele>
        <time>2012-04-08T07:02:53Z</time>
      </trkpt>
      <trkpt lat="46.96959" lon="-0.60973">
        <ele>162.8</ele>
        <time>2012-04-08T07:02:54Z</time>
      </trkpt>
      <trkpt lat="46.96964" lon="-0.60977">
        <ele>162.6</ele>
        <time>2012-04-08T07:02:55Z</time>
      </trkpt>
      <trkpt lat="46.96968" lon="-0.6098">
        <ele>162.6</ele>
        <time>2012-04-08T07:02:56Z</time>
      </trkpt>
      <trkpt lat="46.96973" lon="-0.60984">
        <ele>162.6</ele>
        <time>2012-04-08T07:02:57Z</time>
      </trkpt>
      <trkpt lat="46.96978" lon="-0.60987">
        <ele>162.6</ele>
        <time>2012-04-08T07:02:58Z</time>
      </trkpt>
      <trkpt lat="46.96983" lon="-0.6099">
        <ele>162.8</ele>
        <time>2012-04-08T07:02:59Z</time>
      </trkpt>
      <trkpt lat="46.96988" lon="-0.60993">
        <ele>162.6</ele>
        <time>2012-04-08T07:03:00Z</time>
      </trkpt>
      <trkpt lat="46.96993" lon="-0.60996">
        <ele>162.6</ele>
        <time>2012-04-08T07:03:01Z</time>
      </trkpt>
      <trkpt lat="46.96998" lon="-0.60999">
        <ele>162.6</ele>
        <time>2012-04-08T07:03:02Z</time>
      </trkpt>
      <trkpt lat="46.97003" lon="-0.61002">
        <ele>162.6</ele>
        <time>2012-04-08T07:03:03Z</time>
      </trkpt>
      <trkpt lat="46.97007" lon="-0.61004">
        <ele>162.5</ele>
        <time>2012-04-08T07:03:04Z</time>
      </trkpt>
      <trkpt lat="46.97012" lon="-0.61006">
        <ele>162.3</ele>
        <time>2012-04-08T07:03:05Z</time>
      </trkpt>
      <trkpt lat="46.97017" lon="-0.61006">
        <ele>162.3</ele>
        <time>2012-04-08T07:03:06Z</time>
      </trkpt>
      <trkpt lat="46.97022" lon="-0.61004">
        <ele>162.1</ele>
        <time>2012-04-08T07:03:07Z</time>
      </trkpt>
      <trkpt lat="46.97026" lon="-0.61">
        <ele>162.1</ele>
        <time>2012-04-08T07:03:08Z</time>
      </trkpt>
      <trkpt lat="46.9703" lon="-0.60996">
        <ele>162.1</ele>
        <time>2012-04-08T07:03:09Z</time>
      </trkpt>
      <trkpt lat="46.97034" lon="-0.60991">
        <ele>162.1</ele>
        <time>2012-04-08T07:03:10Z</time>
      </trkpt>
      <trkpt lat="46.97038" lon="-0.60986">
        <ele>162.1</ele>
        <time>2012-04-08T07:03:11Z</time>
      </trkpt>
      <trkpt lat="46.97043" lon="-0.6098">
        <ele>162.3</ele>
        <time>2012-04-08T07:03:12Z</time>
      </trkpt>
      <trkpt lat="46.97047" lon="-0.60974">
        <ele>162.3</ele>
        <time>2012-04-08T07:03:13Z</time>
      </trkpt>
      <trkpt lat="46.97051" lon="-0.60968">
        <ele>162.3</ele>
        <time>2012-04-08T07:03:14Z</time>
      </trkpt>
      <trkpt lat="46.97056" lon="-0.60962">
        <ele>162.5</ele>
        <time>2012-04-08T07:03:15Z</time>
      </trkpt>
      <trkpt lat="46.9706" lon="-0.60956">
        <ele>162.6</ele>
        <time>2012-04-08T07:03:16Z</time>
      </trkpt>
      <trkpt lat="46.97065" lon="-0.6095">
        <ele>162.6</ele>
        <time>2012-04-08T07:03:17Z</time>
      </trkpt>
      <trkpt lat="46.97069" lon="-0.60945">
        <ele>162.8</ele>
        <time>2012-04-08T07:03:18Z</time>
      </trkpt>
      <trkpt lat="46.97074" lon="-0.60939">
        <ele>162.8</ele>
        <time>2012-04-08T07:03:19Z</time>
      </trkpt>
      <trkpt lat="46.97078" lon="-0.60934">
        <ele>162.8</ele>
        <time>2012-04-08T07:03:20Z</time>
      </trkpt>
      <trkpt lat="46.97082" lon="-0.60928">
        <ele>162.8</ele>
        <time>2012-04-08T07:03:21Z</time>
      </trkpt>
      <trkpt lat="46.97085" lon="-0.60921">
        <ele>162.8</ele>
        <time>2012-04-08T07:03:22Z</time>
      </trkpt>
      <trkpt lat="46.97087" lon="-0.60914">
        <ele>162.6</ele>
        <time>2012-04-08T07:03:23Z</time>
      </trkpt>
      <trkpt lat="46.9709" lon="-0.60908">
        <ele>162.6</ele>
        <time>2012-04-08T07:03:24Z</time>
      </trkpt>
      <trkpt lat="46.97092" lon="-0.60901">
        <ele>162.6</ele>
        <time>2012-04-08T07:03:25Z</time>
      </trkpt>
      <trkpt lat="46.97094" lon="-0.60895">
        <ele>162.6</ele>
        <time>2012-04-08T07:03:26Z</time>
      </trkpt>
      <trkpt lat="46.97096" lon="-0.60888">
        <ele>162.6</ele>
        <time>2012-04-08T07:03:27Z</time>
      </trkpt>
      <trkpt lat="46.97098" lon="-0.60881">
        <ele>162.6</ele>
        <time>2012-04-08T07:03:28Z</time>
      </trkpt>
      <trkpt lat="46.971" lon="-0.60875">
        <ele>162.6</ele>
        <time>2012-04-08T07:03:29Z</time>
      </trkpt>
      <trkpt lat="46.97103" lon="-0.60868">
        <ele>162.6</ele>
        <time>2012-04-08T07:03:30Z</time>
      </trkpt>
      <trkpt lat="46.97105" lon="-0.6086">
        <ele>162.6</ele>
        <time>2012-04-08T07:03:31Z</time>
      </trkpt>
      <trkpt lat="46.97107" lon="-0.60853">
        <ele>162.6</ele>
        <time>2012-04-08T07:03:32Z</time>
      </trkpt>
      <trkpt lat="46.97109" lon="-0.60844">
        <ele>162.6</ele>
        <time>2012-04-08T07:03:33Z</time>
      </trkpt>
      <trkpt lat="46.97112" lon="-0.60836">
        <ele>162.6</ele>
        <time>2012-04-08T07:03:34Z</time>
      </trkpt>
      <trkpt lat="46.97114" lon="-0.60828">
        <ele>162.6</ele>
        <time>2012-04-08T07:03:35Z</time>
      </trkpt>
      <trkpt lat="46.97117" lon="-0.60821">
        <ele>162.6</ele>
        <time>2012-04-08T07:03:36Z</time>
      </trkpt>
      <trkpt lat="46.97119" lon="-0.60813">
        <ele>162.6</ele>
        <time>2012-04-08T07:03:37Z</time>
      </trkpt>
      <trkpt lat="46.97122" lon="-0.60806">
        <ele>162.6</ele>
        <time>2012-04-08T07:03:38Z</time>
      </trkpt>
      <trkpt lat="46.97124" lon="-0.60798">
        <ele>162.6</ele>
        <time>2012-04-08T07:03:39Z</time>
      </trkpt>
      <trkpt lat="46.97127" lon="-0.60791">
        <ele>162.6</ele>
        <time>2012-04-08T07:03:40Z</time>
      </trkpt>
      <trkpt lat="46.9713" lon="-0.60783">
        <ele>162.6</ele>
        <time>2012-04-08T07:03:41Z</time>
      </trkpt>
      <trkpt lat="46.97132" lon="-0.60775">
        <ele>162.5</ele>
        <time>2012-04-08T07:03:42Z</time>
      </trkpt>
      <trkpt lat="46.97135" lon="-0.60767">
        <ele>162.5</ele>
        <time>2012-04-08T07:03:43Z</time>
      </trkpt>
      <trkpt lat="46.97137" lon="-0.60759">
        <ele>162.5</ele>
        <time>2012-04-08T07:03:44Z</time>
      </trkpt>
      <trkpt lat="46.9714" lon="-0.60751">
        <ele>162.3</ele>
        <time>2012-04-08T07:03:45Z</time>
      </trkpt>
      <trkpt lat="46.97142" lon="-0.60743">
        <ele>162.3</ele>
        <time>2012-04-08T07:03:46Z</time>
      </trkpt>
      <trkpt lat="46.97145" lon="-0.60735">
        <ele>162.3</ele>
        <time>2012-04-08T07:03:47Z</time>
      </trkpt>
      <trkpt lat="46.97147" lon="-0.60727">
        <ele>162.1</ele>
        <time>2012-04-08T07:03:48Z</time>
      </trkpt>
      <trkpt lat="46.9715" lon="-0.60718">
        <ele>162.1</ele>
        <time>2012-04-08T07:03:49Z</time>
      </trkpt>
      <trkpt lat="46.97152" lon="-0.6071">
        <ele>162.1</ele>
        <time>2012-04-08T07:03:50Z</time>
      </trkpt>
      <trkpt lat="46.97155" lon="-0.60701">
        <ele>162</ele>
        <time>2012-04-08T07:03:51Z</time>
      </trkpt>
      <trkpt lat="46.97157" lon="-0.60693">
        <ele>162</ele>
        <time>2012-04-08T07:03:52Z</time>
      </trkpt>
      <trkpt lat="46.97159" lon="-0.60684">
        <ele>161.8</ele>
        <time>2012-04-08T07:03:53Z</time>
      </trkpt>
      <trkpt lat="46.97161" lon="-0.60675">
        <ele>161.8</ele>
        <time>2012-04-08T07:03:54Z</time>
      </trkpt>
      <trkpt lat="46.97163" lon="-0.60666">
        <ele>161.8</ele>
        <time>2012-04-08T07:03:55Z</time>
      </trkpt>
      <trkpt lat="46.97165" lon="-0.60657">
        <ele>161.6</ele>
        <time>2012-04-08T07:03:56Z</time>
      </trkpt>
      <trkpt lat="46.97166" lon="-0.60648">
        <ele>161.5</ele>
        <time>2012-04-08T07:03:57Z</time>
      </trkpt>
      <trkpt lat="46.97168" lon="-0.60639">
        <ele>161.3</ele>
        <time>2012-04-08T07:03:58Z</time>
      </trkpt>
      <trkpt lat="46.97169" lon="-0.6063">
        <ele>161.3</ele>
        <time>2012-04-08T07:03:59Z</time>
      </trkpt>
      <trkpt lat="46.9717" lon="-0.6062">
        <ele>161.1</ele>
        <time>2012-04-08T07:04:00Z</time>
      </trkpt>
      <trkpt lat="46.9717" lon="-0.60611">
        <ele>161.1</ele>
        <time>2012-04-08T07:04:01Z</time>
      </trkpt>
      <trkpt lat="46.9717" lon="-0.60601">
        <ele>161.1</ele>
        <time>2012-04-08T07:04:02Z</time>
      </trkpt>
      <trkpt lat="46.97171" lon="-0.60592">
        <ele>161.1</ele>
        <time>2012-04-08T07:04:03Z</time>
      </trkpt>
      <trkpt lat="46.97171" lon="-0.60583">
        <ele>161.1</ele>
        <time>2012-04-08T07:04:04Z</time>
      </trkpt>
      <trkpt lat="46.97173" lon="-0.60575">
        <ele>161.1</ele>
        <time>2012-04-08T07:04:05Z</time>
      </trkpt>
      <trkpt lat="46.97175" lon="-0.60567">
        <ele>161</ele>
        <time>2012-04-08T07:04:06Z</time>
      </trkpt>
      <trkpt lat="46.97177" lon="-0.60559">
        <ele>160.8</ele>
        <time>2012-04-08T07:04:07Z</time>
      </trkpt>
      <trkpt lat="46.9718" lon="-0.6055">
        <ele>160.8</ele>
        <time>2012-04-08T07:04:08Z</time>
      </trkpt>
      <trkpt lat="46.97183" lon="-0.60542">
        <ele>160.6</ele>
        <time>2012-04-08T07:04:09Z</time>
      </trkpt>
      <trkpt lat="46.97185" lon="-0.60533">
        <ele>160.6</ele>
        <time>2012-04-08T07:04:10Z</time>
      </trkpt>
      <trkpt lat="46.97188" lon="-0.60525">
        <ele>160.3</ele>
        <time>2012-04-08T07:04:11Z</time>
      </trkpt>
      <trkpt lat="46.9719" lon="-0.60516">
        <ele>160.3</ele>
        <time>2012-04-08T07:04:12Z</time>
      </trkpt>
      <trkpt lat="46.97193" lon="-0.60509">
        <ele>160.1</ele>
        <time>2012-04-08T07:04:13Z</time>
      </trkpt>
      <trkpt lat="46.97195" lon="-0.60501">
        <ele>159.8</ele>
        <time>2012-04-08T07:04:14Z</time>
      </trkpt>
      <trkpt lat="46.97197" lon="-0.60494">
        <ele>159.8</ele>
        <time>2012-04-08T07:04:15Z</time>
      </trkpt>
      <trkpt lat="46.97199" lon="-0.60486">
        <ele>159.6</ele>
        <time>2012-04-08T07:04:16Z</time>
      </trkpt>
      <trkpt lat="46.97201" lon="-0.60479">
        <ele>159.5</ele>
        <time>2012-04-08T07:04:17Z</time>
      </trkpt>
      <trkpt lat="46.97203" lon="-0.60473">
        <ele>159.3</ele>
        <time>2012-04-08T07:04:18Z</time>
      </trkpt>
      <trkpt lat="46.97204" lon="-0.60466">
        <ele>159.1</ele>
        <time>2012-04-08T07:04:19Z</time>
      </trkpt>
      <trkpt lat="46.97206" lon="-0.60459">
        <ele>159</ele>
        <time>2012-04-08T07:04:20Z</time>
      </trkpt>
      <trkpt lat="46.97208" lon="-0.60452">
        <ele>158.8</ele>
        <time>2012-04-08T07:04:21Z</time>
      </trkpt>
      <trkpt lat="46.9721" lon="-0.60445">
        <ele>158.8</ele>
        <time>2012-04-08T07:04:22Z</time>
      </trkpt>
      <trkpt lat="46.97214" lon="-0.60439">
        <ele>158.6</ele>
        <time>2012-04-08T07:04:23Z</time>
      </trkpt>
      <trkpt lat="46.97218" lon="-0.60434">
        <ele>158.5</ele>
        <time>2012-04-08T07:04:24Z</time>
      </trkpt>
      <trkpt lat="46.97221" lon="-0.60428">
        <ele>158.3</ele>
        <time>2012-04-08T07:04:25Z</time>
      </trkpt>
      <trkpt lat="46.97225" lon="-0.60423">
        <ele>158.1</ele>
        <time>2012-04-08T07:04:26Z</time>
      </trkpt>
      <trkpt lat="46.97229" lon="-0.60417">
        <ele>158.1</ele>
        <time>2012-04-08T07:04:27Z</time>
      </trkpt>
      <trkpt lat="46.97233" lon="-0.6041">
        <ele>157.8</ele>
        <time>2012-04-08T07:04:28Z</time>
      </trkpt>
      <trkpt lat="46.97237" lon="-0.60404">
        <ele>157.6</ele>
        <time>2012-04-08T07:04:29Z</time>
      </trkpt>
      <trkpt lat="46.9724" lon="-0.60398">
        <ele>157.6</ele>
        <time>2012-04-08T07:04:30Z</time>
      </trkpt>
      <trkpt lat="46.97244" lon="-0.60391">
        <ele>157.5</ele>
        <time>2012-04-08T07:04:31Z</time>
      </trkpt>
      <trkpt lat="46.97247" lon="-0.60384">
        <ele>157.3</ele>
        <time>2012-04-08T07:04:32Z</time>
      </trkpt>
      <trkpt lat="46.9725" lon="-0.60378">
        <ele>157.3</ele>
        <time>2012-04-08T07:04:33Z</time>
      </trkpt>
      <trkpt lat="46.97253" lon="-0.60371">
        <ele>157.3</ele>
        <time>2012-04-08T07:04:34Z</time>
      </trkpt>
      <trkpt lat="46.97256" lon="-0.60365">
        <ele>157.1</ele>
        <time>2012-04-08T07:04:35Z</time>
      </trkpt>
      <trkpt lat="46.97259" lon="-0.60358">
        <ele>157.1</ele>
        <time>2012-04-08T07:04:36Z</time>
      </trkpt>
      <trkpt lat="46.97262" lon="-0.60352">
        <ele>157</ele>
        <time>2012-04-08T07:04:37Z</time>
      </trkpt>
      <trkpt lat="46.97265" lon="-0.60346">
        <ele>156.8</ele>
        <time>2012-04-08T07:04:38Z</time>
      </trkpt>
      <trkpt lat="46.97268" lon="-0.60339">
        <ele>156.8</ele>
        <time>2012-04-08T07:04:39Z</time>
      </trkpt>
      <trkpt lat="46.97272" lon="-0.60333">
        <ele>156.6</ele>
        <time>2012-04-08T07:04:40Z</time>
      </trkpt>
      <trkpt lat="46.97275" lon="-0.60326">
        <ele>156.6</ele>
        <time>2012-04-08T07:04:41Z</time>
      </trkpt>
      <trkpt lat="46.97278" lon="-0.60319">
        <ele>156.6</ele>
        <time>2012-04-08T07:04:42Z</time>
      </trkpt>
      <trkpt lat="46.97281" lon="-0.60313">
        <ele>156.5</ele>
        <time>2012-04-08T07:04:43Z</time>
      </trkpt>
      <trkpt lat="46.97284" lon="-0.60307">
        <ele>156.5</ele>
        <time>2012-04-08T07:04:44Z</time>
      </trkpt>
      <trkpt lat="46.97287" lon="-0.60301">
        <ele>156.5</ele>
        <time>2012-04-08T07:04:45Z</time>
      </trkpt>
      <trkpt lat="46.97289" lon="-0.60295">
        <ele>156.5</ele>
        <time>2012-04-08T07:04:46Z</time>
      </trkpt>
      <trkpt lat="46.97292" lon="-0.60289">
        <ele>156.3</ele>
        <time>2012-04-08T07:04:47Z</time>
      </trkpt>
      <trkpt lat="46.97295" lon="-0.60283">
        <ele>156.3</ele>
        <time>2012-04-08T07:04:48Z</time>
      </trkpt>
      <trkpt lat="46.97299" lon="-0.60272">
        <ele>156.3</ele>
        <time>2012-04-08T07:04:50Z</time>
      </trkpt>
      <trkpt lat="46.97303" lon="-0.6026">
        <ele>156.5</ele>
        <time>2012-04-08T07:04:52Z</time>
      </trkpt>
      <trkpt lat="46.97303" lon="-0.60247">
        <ele>156.5</ele>
        <time>2012-04-08T07:04:54Z</time>
      </trkpt>
      <trkpt lat="46.973" lon="-0.60236">
        <ele>156.5</ele>
        <time>2012-04-08T07:04:56Z</time>
      </trkpt>
      <trkpt lat="46.97297" lon="-0.60227">
        <ele>156.5</ele>
        <time>2012-04-08T07:04:58Z</time>
      </trkpt>
      <trkpt lat="46.97296" lon="-0.60222">
        <ele>156.5</ele>
        <time>2012-04-08T07:04:59Z</time>
      </trkpt>
      <trkpt lat="46.97291" lon="-0.60208">
        <ele>156.5</ele>
        <time>2012-04-08T07:05:03Z</time>
      </trkpt>
      <trkpt lat="46.97287" lon="-0.60196">
        <ele>158.1</ele>
        <time>2012-04-08T07:07:57Z</time>
      </trkpt>
      <trkpt lat="46.97287" lon="-0.60196">
        <ele>158.1</ele>
        <time>2012-04-08T07:07:58Z</time>
      </trkpt>
      <trkpt lat="46.9728" lon="-0.60181">
        <ele>160.1</ele>
        <time>2012-04-08T07:08:51Z</time>
      </trkpt>
      <trkpt lat="46.97278" lon="-0.60171">
        <ele>160.5</ele>
        <time>2012-04-08T07:08:54Z</time>
      </trkpt>
      <trkpt lat="46.97276" lon="-0.6016">
        <ele>160.8</ele>
        <time>2012-04-08T07:08:57Z</time>
      </trkpt>
      <trkpt lat="46.97273" lon="-0.60148">
        <ele>161</ele>
        <time>2012-04-08T07:09:00Z</time>
      </trkpt>
      <trkpt lat="46.97271" lon="-0.60143">
        <ele>161</ele>
        <time>2012-04-08T07:09:01Z</time>
      </trkpt>
      <trkpt lat="46.97265" lon="-0.6013">
        <ele>161.6</ele>
        <time>2012-04-08T07:09:04Z</time>
      </trkpt>
      <trkpt lat="46.9726" lon="-0.60122">
        <ele>161.6</ele>
        <time>2012-04-08T07:09:06Z</time>
      </trkpt>
      <trkpt lat="46.97255" lon="-0.60115">
        <ele>161.6</ele>
        <time>2012-04-08T07:09:08Z</time>
      </trkpt>
      <trkpt lat="46.97249" lon="-0.60108">
        <ele>161.6</ele>
        <time>2012-04-08T07:09:10Z</time>
      </trkpt>
      <trkpt lat="46.97247" lon="-0.60096">
        <ele>161.6</ele>
        <time>2012-04-08T07:09:13Z</time>
      </trkpt>
      <trkpt lat="46.97251" lon="-0.60089">
        <ele>161.6</ele>
        <time>2012-04-08T07:09:15Z</time>
      </trkpt>
      <trkpt lat="46.97259" lon="-0.60086">
        <ele>161.6</ele>
        <time>2012-04-08T07:09:17Z</time>
      </trkpt>
      <trkpt lat="46.97266" lon="-0.6008">
        <ele>161.1</ele>
        <time>2012-04-08T07:09:19Z</time>
      </trkpt>
      <trkpt lat="46.9727" lon="-0.60077">
        <ele>160.6</ele>
        <time>2012-04-08T07:09:20Z</time>
      </trkpt>
      <trkpt lat="46.97277" lon="-0.60068">
        <ele>160.1</ele>
        <time>2012-04-08T07:09:22Z</time>
      </trkpt>
      <trkpt lat="46.9728" lon="-0.60063">
        <ele>159.8</ele>
        <time>2012-04-08T07:09:23Z</time>
      </trkpt>
      <trkpt lat="46.97282" lon="-0.60058">
        <ele>159.8</ele>
        <time>2012-04-08T07:09:24Z</time>
      </trkpt>
      <trkpt lat="46.97285" lon="-0.60052">
        <ele>159.6</ele>
        <time>2012-04-08T07:09:25Z</time>
      </trkpt>
      <trkpt lat="46.97288" lon="-0.60047">
        <ele>159.5</ele>
        <time>2012-04-08T07:09:26Z</time>
      </trkpt>
      <trkpt lat="46.97291" lon="-0.60041">
        <ele>159.3</ele>
        <time>2012-04-08T07:09:27Z</time>
      </trkpt>
      <trkpt lat="46.97293" lon="-0.60035">
        <ele>158.8</ele>
        <time>2012-04-08T07:09:28Z</time>
      </trkpt>
      <trkpt lat="46.97296" lon="-0.60029">
        <ele>158.6</ele>
        <time>2012-04-08T07:09:29Z</time>
      </trkpt>
      <trkpt lat="46.97298" lon="-0.60023">
        <ele>158.3</ele>
        <time>2012-04-08T07:09:30Z</time>
      </trkpt>
      <trkpt lat="46.97301" lon="-0.60017">
        <ele>157.8</ele>
        <time>2012-04-08T07:09:31Z</time>
      </trkpt>
      <trkpt lat="46.97304" lon="-0.60011">
        <ele>157.6</ele>
        <time>2012-04-08T07:09:32Z</time>
      </trkpt>
      <trkpt lat="46.97307" lon="-0.60005">
        <ele>157.1</ele>
        <time>2012-04-08T07:09:33Z</time>
      </trkpt>
      <trkpt lat="46.9731" lon="-0.59999">
        <ele>156.8</ele>
        <time>2012-04-08T07:09:34Z</time>
      </trkpt>
      <trkpt lat="46.97313" lon="-0.59994">
        <ele>156.6</ele>
        <time>2012-04-08T07:09:35Z</time>
      </trkpt>
      <trkpt lat="46.97316" lon="-0.59988">
        <ele>156.3</ele>
        <time>2012-04-08T07:09:36Z</time>
      </trkpt>
      <trkpt lat="46.9732" lon="-0.59982">
        <ele>156.1</ele>
        <time>2012-04-08T07:09:37Z</time>
      </trkpt>
      <trkpt lat="46.97323" lon="-0.59976">
        <ele>156</ele>
        <time>2012-04-08T07:09:38Z</time>
      </trkpt>
      <trkpt lat="46.97326" lon="-0.5997">
        <ele>155.8</ele>
        <time>2012-04-08T07:09:39Z</time>
      </trkpt>
      <trkpt lat="46.97329" lon="-0.59964">
        <ele>155.6</ele>
        <time>2012-04-08T07:09:40Z</time>
      </trkpt>
      <trkpt lat="46.97332" lon="-0.59958">
        <ele>155.3</ele>
        <time>2012-04-08T07:09:41Z</time>
      </trkpt>
      <trkpt lat="46.97335" lon="-0.59952">
        <ele>155.3</ele>
        <time>2012-04-08T07:09:42Z</time>
      </trkpt>
      <trkpt lat="46.97337" lon="-0.59945">
        <ele>155.1</ele>
        <time>2012-04-08T07:09:43Z</time>
      </trkpt>
      <trkpt lat="46.9734" lon="-0.59939">
        <ele>155</ele>
        <time>2012-04-08T07:09:44Z</time>
      </trkpt>
      <trkpt lat="46.97342" lon="-0.59933">
        <ele>154.8</ele>
        <time>2012-04-08T07:09:45Z</time>
      </trkpt>
      <trkpt lat="46.97345" lon="-0.59926">
        <ele>154.8</ele>
        <time>2012-04-08T07:09:46Z</time>
      </trkpt>
      <trkpt lat="46.97348" lon="-0.5992">
        <ele>154.8</ele>
        <time>2012-04-08T07:09:47Z</time>
      </trkpt>
      <trkpt lat="46.97351" lon="-0.59914">
        <ele>154.6</ele>
        <time>2012-04-08T07:09:48Z</time>
      </trkpt>
      <trkpt lat="46.97354" lon="-0.59908">
        <ele>154.6</ele>
        <time>2012-04-08T07:09:49Z</time>
      </trkpt>
      <trkpt lat="46.97358" lon="-0.59902">
        <ele>154.6</ele>
        <time>2012-04-08T07:09:50Z</time>
      </trkpt>
      <trkpt lat="46.97361" lon="-0.59895">
        <ele>154.5</ele>
        <time>2012-04-08T07:09:51Z</time>
      </trkpt>
      <trkpt lat="46.97365" lon="-0.59889">
        <ele>154.5</ele>
        <time>2012-04-08T07:09:52Z</time>
      </trkpt>
      <trkpt lat="46.97368" lon="-0.59882">
        <ele>154.5</ele>
        <time>2012-04-08T07:09:53Z</time>
      </trkpt>
      <trkpt lat="46.97371" lon="-0.59876">
        <ele>154.3</ele>
        <time>2012-04-08T07:09:54Z</time>
      </trkpt>
      <trkpt lat="46.97373" lon="-0.5987">
        <ele>154.3</ele>
        <time>2012-04-08T07:09:55Z</time>
      </trkpt>
      <trkpt lat="46.97376" lon="-0.59864">
        <ele>154.3</ele>
        <time>2012-04-08T07:09:56Z</time>
      </trkpt>
      <trkpt lat="46.97379" lon="-0.59858">
        <ele>154.1</ele>
        <time>2012-04-08T07:09:57Z</time>
      </trkpt>
      <trkpt lat="46.97381" lon="-0.59852">
        <ele>154.1</ele>
        <time>2012-04-08T07:09:58Z</time>
      </trkpt>
      <trkpt lat="46.97384" lon="-0.59845">
        <ele>154.1</ele>
        <time>2012-04-08T07:09:59Z</time>
      </trkpt>
      <trkpt lat="46.97387" lon="-0.59838">
        <ele>154.1</ele>
        <time>2012-04-08T07:10:00Z</time>
      </trkpt>
      <trkpt lat="46.9739" lon="-0.59831">
        <ele>154.1</ele>
        <time>2012-04-08T07:10:01Z</time>
      </trkpt>
      <trkpt lat="46.97394" lon="-0.59824">
        <ele>154.1</ele>
        <time>2012-04-08T07:10:02Z</time>
      </trkpt>
      <trkpt lat="46.97397" lon="-0.59816">
        <ele>154.1</ele>
        <time>2012-04-08T07:10:03Z</time>
      </trkpt>
      <trkpt lat="46.97401" lon="-0.59808">
        <ele>154.1</ele>
        <time>2012-04-08T07:10:04Z</time>
      </trkpt>
      <trkpt lat="46.97404" lon="-0.59801">
        <ele>154</ele>
        <time>2012-04-08T07:10:05Z</time>
      </trkpt>
      <trkpt lat="46.97408" lon="-0.59793">
        <ele>154</ele>
        <time>2012-04-08T07:10:06Z</time>
      </trkpt>
      <trkpt lat="46.97412" lon="-0.59786">
        <ele>153.8</ele>
        <time>2012-04-08T07:10:07Z</time>
      </trkpt>
      <trkpt lat="46.97416" lon="-0.59779">
        <ele>153.8</ele>
        <time>2012-04-08T07:10:08Z</time>
      </trkpt>
      <trkpt lat="46.97421" lon="-0.59773">
        <ele>153.8</ele>
        <time>2012-04-08T07:10:09Z</time>
      </trkpt>
      <trkpt lat="46.97426" lon="-0.59769">
        <ele>153.6</ele>
        <time>2012-04-08T07:10:10Z</time>
      </trkpt>
      <trkpt lat="46.97431" lon="-0.59764">
        <ele>153.6</ele>
        <time>2012-04-08T07:10:11Z</time>
      </trkpt>
      <trkpt lat="46.97436" lon="-0.59761">
        <ele>153.6</ele>
        <time>2012-04-08T07:10:12Z</time>
      </trkpt>
      <trkpt lat="46.97441" lon="-0.59757">
        <ele>153.5</ele>
        <time>2012-04-08T07:10:13Z</time>
      </trkpt>
      <trkpt lat="46.97446" lon="-0.59756">
        <ele>153.3</ele>
        <time>2012-04-08T07:10:14Z</time>
      </trkpt>
      <trkpt lat="46.97451" lon="-0.59754">
        <ele>153.3</ele>
        <time>2012-04-08T07:10:15Z</time>
      </trkpt>
      <trkpt lat="46.97456" lon="-0.59755">
        <ele>153.1</ele>
        <time>2012-04-08T07:10:16Z</time>
      </trkpt>
      <trkpt lat="46.97461" lon="-0.59755">
        <ele>153</ele>
        <time>2012-04-08T07:10:17Z</time>
      </trkpt>
      <trkpt lat="46.97466" lon="-0.59757">
        <ele>152.8</ele>
        <time>2012-04-08T07:10:18Z</time>
      </trkpt>
      <trkpt lat="46.97471" lon="-0.59758">
        <ele>152.8</ele>
        <time>2012-04-08T07:10:19Z</time>
      </trkpt>
      <trkpt lat="46.97476" lon="-0.5976">
        <ele>152.6</ele>
        <time>2012-04-08T07:10:20Z</time>
      </trkpt>
      <trkpt lat="46.97481" lon="-0.59762">
        <ele>152.6</ele>
        <time>2012-04-08T07:10:21Z</time>
      </trkpt>
      <trkpt lat="46.97486" lon="-0.59765">
        <ele>152.5</ele>
        <time>2012-04-08T07:10:22Z</time>
      </trkpt>
      <trkpt lat="46.97491" lon="-0.59768">
        <ele>152.3</ele>
        <time>2012-04-08T07:10:23Z</time>
      </trkpt>
      <trkpt lat="46.97496" lon="-0.59771">
        <ele>152.3</ele>
        <time>2012-04-08T07:10:24Z</time>
      </trkpt>
      <trkpt lat="46.97501" lon="-0.59775">
        <ele>152.1</ele>
        <time>2012-04-08T07:10:25Z</time>
      </trkpt>
      <trkpt lat="46.97506" lon="-0.59778">
        <ele>152.1</ele>
        <time>2012-04-08T07:10:26Z</time>
      </trkpt>
      <trkpt lat="46.97512" lon="-0.59782">
        <ele>152</ele>
        <time>2012-04-08T07:10:27Z</time>
      </trkpt>
      <trkpt lat="46.97517" lon="-0.59786">
        <ele>151.8</ele>
        <time>2012-04-08T07:10:28Z</time>
      </trkpt>
      <trkpt lat="46.97522" lon="-0.59789">
        <ele>151.8</ele>
        <time>2012-04-08T07:10:29Z</time>
      </trkpt>
      <trkpt lat="46.97527" lon="-0.59791">
        <ele>151.8</ele>
        <time>2012-04-08T07:10:30Z</time>
      </trkpt>
      <trkpt lat="46.97532" lon="-0.59792">
        <ele>151.8</ele>
        <time>2012-04-08T07:10:31Z</time>
      </trkpt>
      <trkpt lat="46.97538" lon="-0.59792">
        <ele>151.8</ele>
        <time>2012-04-08T07:10:32Z</time>
      </trkpt>
      <trkpt lat="46.97543" lon="-0.59792">
        <ele>151.8</ele>
        <time>2012-04-08T07:10:33Z</time>
      </trkpt>
      <trkpt lat="46.97549" lon="-0.59791">
        <ele>151.8</ele>
        <time>2012-04-08T07:10:34Z</time>
      </trkpt>
      <trkpt lat="46.97554" lon="-0.59791">
        <ele>151.8</ele>
        <time>2012-04-08T07:10:35Z</time>
      </trkpt>
      <trkpt lat="46.97558" lon="-0.5979">
        <ele>151.8</ele>
        <time>2012-04-08T07:10:36Z</time>
      </trkpt>
      <trkpt lat="46.97564" lon="-0.59789">
        <ele>151.8</ele>
        <time>2012-04-08T07:10:37Z</time>
      </trkpt>
      <trkpt lat="46.97569" lon="-0.59788">
        <ele>151.8</ele>
        <time>2012-04-08T07:10:38Z</time>
      </trkpt>
      <trkpt lat="46.97574" lon="-0.59788">
        <ele>151.8</ele>
        <time>2012-04-08T07:10:39Z</time>
      </trkpt>
      <trkpt lat="46.97579" lon="-0.59786">
        <ele>151.8</ele>
        <time>2012-04-08T07:10:40Z</time>
      </trkpt>
      <trkpt lat="46.97585" lon="-0.59785">
        <ele>151.8</ele>
        <time>2012-04-08T07:10:41Z</time>
      </trkpt>
      <trkpt lat="46.9759" lon="-0.59784">
        <ele>151.6</ele>
        <time>2012-04-08T07:10:42Z</time>
      </trkpt>
      <trkpt lat="46.97595" lon="-0.59782">
        <ele>151.6</ele>
        <time>2012-04-08T07:10:43Z</time>
      </trkpt>
      <trkpt lat="46.976" lon="-0.59779">
        <ele>151.6</ele>
        <time>2012-04-08T07:10:44Z</time>
      </trkpt>
      <trkpt lat="46.97605" lon="-0.59777">
        <ele>151.6</ele>
        <time>2012-04-08T07:10:45Z</time>
      </trkpt>
      <trkpt lat="46.9761" lon="-0.59774">
        <ele>151.6</ele>
        <time>2012-04-08T07:10:46Z</time>
      </trkpt>
      <trkpt lat="46.97618" lon="-0.59769">
        <ele>151.8</ele>
        <time>2012-04-08T07:10:48Z</time>
      </trkpt>
      <trkpt lat="46.97626" lon="-0.59764">
        <ele>151.8</ele>
        <time>2012-04-08T07:10:51Z</time>
      </trkpt>
      <trkpt lat="46.97633" lon="-0.59757">
        <ele>151.8</ele>
        <time>2012-04-08T07:10:56Z</time>
      </trkpt>
      <trkpt lat="46.97634" lon="-0.59746">
        <ele>152</ele>
        <time>2012-04-08T07:11:01Z</time>
      </trkpt>
      <trkpt lat="46.97637" lon="-0.59737">
        <ele>152.1</ele>
        <time>2012-04-08T07:11:04Z</time>
      </trkpt>
      <trkpt lat="46.97639" lon="-0.59734">
        <ele>152.1</ele>
        <time>2012-04-08T07:11:05Z</time>
      </trkpt>
      <trkpt lat="46.97646" lon="-0.59723">
        <ele>152.1</ele>
        <time>2012-04-08T07:11:08Z</time>
      </trkpt>
      <trkpt lat="46.9765" lon="-0.59716">
        <ele>152.1</ele>
        <time>2012-04-08T07:11:10Z</time>
      </trkpt>
      <trkpt lat="46.97654" lon="-0.59706">
        <ele>152.3</ele>
        <time>2012-04-08T07:11:12Z</time>
      </trkpt>
      <trkpt lat="46.97657" lon="-0.59696">
        <ele>152.6</ele>
        <time>2012-04-08T07:11:14Z</time>
      </trkpt>
      <trkpt lat="46.97659" lon="-0.5969">
        <ele>152.6</ele>
        <time>2012-04-08T07:11:15Z</time>
      </trkpt>
      <trkpt lat="46.97661" lon="-0.59684">
        <ele>152.8</ele>
        <time>2012-04-08T07:11:16Z</time>
      </trkpt>
      <trkpt lat="46.97663" lon="-0.59677">
        <ele>152.8</ele>
        <time>2012-04-08T07:11:17Z</time>
      </trkpt>
      <trkpt lat="46.97665" lon="-0.59671">
        <ele>152.8</ele>
        <time>2012-04-08T07:11:18Z</time>
      </trkpt>
      <trkpt lat="46.97667" lon="-0.59664">
        <ele>152.8</ele>
        <time>2012-04-08T07:11:19Z</time>
      </trkpt>
      <trkpt lat="46.97669" lon="-0.59657">
        <ele>152.8</ele>
        <time>2012-04-08T07:11:20Z</time>
      </trkpt>
      <trkpt lat="46.97671" lon="-0.59649">
        <ele>152.8</ele>
        <time>2012-04-08T07:11:21Z</time>
      </trkpt>
      <trkpt lat="46.97673" lon="-0.59642">
        <ele>152.8</ele>
        <time>2012-04-08T07:11:22Z</time>
      </trkpt>
      <trkpt lat="46.97676" lon="-0.59634">
        <ele>152.6</ele>
        <time>2012-04-08T07:11:23Z</time>
      </trkpt>
      <trkpt lat="46.97679" lon="-0.59627">
        <ele>152.6</ele>
        <time>2012-04-08T07:11:24Z</time>
      </trkpt>
      <trkpt lat="46.97681" lon="-0.59619">
        <ele>152.6</ele>
        <time>2012-04-08T07:11:25Z</time>
      </trkpt>
      <trkpt lat="46.97684" lon="-0.59611">
        <ele>152.6</ele>
        <time>2012-04-08T07:11:26Z</time>
      </trkpt>
      <trkpt lat="46.97688" lon="-0.59603">
        <ele>152.6</ele>
        <time>2012-04-08T07:11:27Z</time>
      </trkpt>
      <trkpt lat="46.97691" lon="-0.59595">
        <ele>152.6</ele>
        <time>2012-04-08T07:11:28Z</time>
      </trkpt>
      <trkpt lat="46.97695" lon="-0.59587">
        <ele>152.6</ele>
        <time>2012-04-08T07:11:29Z</time>
      </trkpt>
      <trkpt lat="46.977" lon="-0.59581">
        <ele>152.6</ele>
        <time>2012-04-08T07:11:30Z</time>
      </trkpt>
      <trkpt lat="46.97705" lon="-0.59574">
        <ele>152.5</ele>
        <time>2012-04-08T07:11:31Z</time>
      </trkpt>
      <trkpt lat="46.97711" lon="-0.59568">
        <ele>152.3</ele>
        <time>2012-04-08T07:11:32Z</time>
      </trkpt>
      <trkpt lat="46.97716" lon="-0.59563">
        <ele>152.1</ele>
        <time>2012-04-08T07:11:33Z</time>
      </trkpt>
      <trkpt lat="46.97722" lon="-0.59558">
        <ele>152.1</ele>
        <time>2012-04-08T07:11:34Z</time>
      </trkpt>
      <trkpt lat="46.97727" lon="-0.59553">
        <ele>152.1</ele>
        <time>2012-04-08T07:11:35Z</time>
      </trkpt>
      <trkpt lat="46.97732" lon="-0.59549">
        <ele>152</ele>
        <time>2012-04-08T07:11:36Z</time>
      </trkpt>
      <trkpt lat="46.97737" lon="-0.59545">
        <ele>151.8</ele>
        <time>2012-04-08T07:11:37Z</time>
      </trkpt>
      <trkpt lat="46.97742" lon="-0.59541">
        <ele>151.8</ele>
        <time>2012-04-08T07:11:38Z</time>
      </trkpt>
      <trkpt lat="46.97747" lon="-0.59538">
        <ele>151.8</ele>
        <time>2012-04-08T07:11:39Z</time>
      </trkpt>
      <trkpt lat="46.97752" lon="-0.59534">
        <ele>151.6</ele>
        <time>2012-04-08T07:11:40Z</time>
      </trkpt>
      <trkpt lat="46.97756" lon="-0.59531">
        <ele>151.6</ele>
        <time>2012-04-08T07:11:41Z</time>
      </trkpt>
      <trkpt lat="46.97761" lon="-0.59527">
        <ele>151.6</ele>
        <time>2012-04-08T07:11:42Z</time>
      </trkpt>
      <trkpt lat="46.97766" lon="-0.59523">
        <ele>151.6</ele>
        <time>2012-04-08T07:11:43Z</time>
      </trkpt>
      <trkpt lat="46.97771" lon="-0.5952">
        <ele>151.5</ele>
        <time>2012-04-08T07:11:44Z</time>
      </trkpt>
      <trkpt lat="46.97776" lon="-0.59516">
        <ele>151.5</ele>
        <time>2012-04-08T07:11:45Z</time>
      </trkpt>
      <trkpt lat="46.97782" lon="-0.59511">
        <ele>151.5</ele>
        <time>2012-04-08T07:11:47Z</time>
      </trkpt>
      <trkpt lat="46.9779" lon="-0.59505">
        <ele>151.3</ele>
        <time>2012-04-08T07:11:51Z</time>
      </trkpt>
      <trkpt lat="46.97795" lon="-0.59503">
        <ele>151</ele>
        <time>2012-04-08T07:12:25Z</time>
      </trkpt>
      <trkpt lat="46.978" lon="-0.59504">
        <ele>150.6</ele>
        <time>2012-04-08T07:12:26Z</time>
      </trkpt>
      <trkpt lat="46.9781" lon="-0.59495">
        <ele>150.3</ele>
        <time>2012-04-08T07:12:33Z</time>
      </trkpt>
      <trkpt lat="46.97814" lon="-0.59489">
        <ele>150.3</ele>
        <time>2012-04-08T07:12:36Z</time>
      </trkpt>
      <trkpt lat="46.97821" lon="-0.59482">
        <ele>150.3</ele>
        <time>2012-04-08T07:12:39Z</time>
      </trkpt>
      <trkpt lat="46.97827" lon="-0.59478">
        <ele>150.1</ele>
        <time>2012-04-08T07:12:41Z</time>
      </trkpt>
      <trkpt lat="46.97833" lon="-0.59473">
        <ele>150.1</ele>
        <time>2012-04-08T07:12:43Z</time>
      </trkpt>
      <trkpt lat="46.97839" lon="-0.59468">
        <ele>150.1</ele>
        <time>2012-04-08T07:12:45Z</time>
      </trkpt>
      <trkpt lat="46.97845" lon="-0.59464">
        <ele>150</ele>
        <time>2012-04-08T07:12:47Z</time>
      </trkpt>
      <trkpt lat="46.9785" lon="-0.5946">
        <ele>149.8</ele>
        <time>2012-04-08T07:12:49Z</time>
      </trkpt>
      <trkpt lat="46.97856" lon="-0.59456">
        <ele>149.8</ele>
        <time>2012-04-08T07:12:51Z</time>
      </trkpt>
      <trkpt lat="46.97862" lon="-0.59451">
        <ele>149.8</ele>
        <time>2012-04-08T07:12:53Z</time>
      </trkpt>
      <trkpt lat="46.97868" lon="-0.59447">
        <ele>149.6</ele>
        <time>2012-04-08T07:12:55Z</time>
      </trkpt>
      <trkpt lat="46.97874" lon="-0.59443">
        <ele>149.6</ele>
        <time>2012-04-08T07:12:57Z</time>
      </trkpt>
      <trkpt lat="46.9788" lon="-0.59438">
        <ele>149.5</ele>
        <time>2012-04-08T07:12:59Z</time>
      </trkpt>
      <trkpt lat="46.97885" lon="-0.59433">
        <ele>149.3</ele>
        <time>2012-04-08T07:13:01Z</time>
      </trkpt>
      <trkpt lat="46.97893" lon="-0.59427">
        <ele>149.1</ele>
        <time>2012-04-08T07:13:04Z</time>
      </trkpt>
      <trkpt lat="46.979" lon="-0.59421">
        <ele>149.1</ele>
        <time>2012-04-08T07:13:07Z</time>
      </trkpt>
      <trkpt lat="46.97906" lon="-0.59413">
        <ele>148.8</ele>
        <time>2012-04-08T07:13:10Z</time>
      </trkpt>
      <trkpt lat="46.97912" lon="-0.59407">
        <ele>148.3</ele>
        <time>2012-04-08T07:13:27Z</time>
      </trkpt>
      <trkpt lat="46.97916" lon="-0.59402">
        <ele>147.8</ele>
        <time>2012-04-08T07:13:28Z</time>
      </trkpt>
      <trkpt lat="46.9792" lon="-0.59394">
        <ele>147.3</ele>
        <time>2012-04-08T07:14:40Z</time>
      </trkpt>
      <trkpt lat="46.97931" lon="-0.59381">
        <ele>146.8</ele>
        <time>2012-04-08T07:14:48Z</time>
      </trkpt>
      <trkpt lat="46.97937" lon="-0.59373">
        <ele>146.6</ele>
        <time>2012-04-08T07:14:51Z</time>
      </trkpt>
      <trkpt lat="46.97942" lon="-0.59364">
        <ele>146.6</ele>
        <time>2012-04-08T07:14:54Z</time>
      </trkpt>
      <trkpt lat="46.97948" lon="-0.59354">
        <ele>146.6</ele>
        <time>2012-04-08T07:14:57Z</time>
      </trkpt>
      <trkpt lat="46.97952" lon="-0.59347">
        <ele>146.6</ele>
        <time>2012-04-08T07:14:59Z</time>
      </trkpt>
      <trkpt lat="46.97957" lon="-0.59339">
        <ele>146.6</ele>
        <time>2012-04-08T07:15:01Z</time>
      </trkpt>
      <trkpt lat="46.97963" lon="-0.59331">
        <ele>146.6</ele>
        <time>2012-04-08T07:15:03Z</time>
      </trkpt>
      <trkpt lat="46.97968" lon="-0.59322">
        <ele>146.5</ele>
        <time>2012-04-08T07:15:05Z</time>
      </trkpt>
      <trkpt lat="46.97973" lon="-0.59312">
        <ele>145.8</ele>
        <time>2012-04-08T07:15:07Z</time>
      </trkpt>
      <trkpt lat="46.97978" lon="-0.59302">
        <ele>145.3</ele>
        <time>2012-04-08T07:15:09Z</time>
      </trkpt>
      <trkpt lat="46.97982" lon="-0.59292">
        <ele>145.1</ele>
        <time>2012-04-08T07:15:11Z</time>
      </trkpt>
      <trkpt lat="46.97986" lon="-0.59282">
        <ele>145</ele>
        <time>2012-04-08T07:15:13Z</time>
      </trkpt>
      <trkpt lat="46.97989" lon="-0.59271">
        <ele>144.8</ele>
        <time>2012-04-08T07:15:15Z</time>
      </trkpt>
      <trkpt lat="46.97992" lon="-0.5926">
        <ele>144.8</ele>
        <time>2012-04-08T07:15:17Z</time>
      </trkpt>
      <trkpt lat="46.97993" lon="-0.5925">
        <ele>144.6</ele>
        <time>2012-04-08T07:15:19Z</time>
      </trkpt>
      <trkpt lat="46.97995" lon="-0.59239">
        <ele>144.6</ele>
        <time>2012-04-08T07:15:21Z</time>
      </trkpt>
      <trkpt lat="46.97996" lon="-0.59228">
        <ele>144.5</ele>
        <time>2012-04-08T07:15:23Z</time>
      </trkpt>
      <trkpt lat="46.97996" lon="-0.59218">
        <ele>144.5</ele>
        <time>2012-04-08T07:15:25Z</time>
      </trkpt>
      <trkpt lat="46.97996" lon="-0.59207">
        <ele>144.3</ele>
        <time>2012-04-08T07:15:27Z</time>
      </trkpt>
      <trkpt lat="46.97997" lon="-0.59196">
        <ele>144.3</ele>
        <time>2012-04-08T07:15:29Z</time>
      </trkpt>
      <trkpt lat="46.97997" lon="-0.59186">
        <ele>144.3</ele>
        <time>2012-04-08T07:15:31Z</time>
      </trkpt>
      <trkpt lat="46.98" lon="-0.59176">
        <ele>144.1</ele>
        <time>2012-04-08T07:15:34Z</time>
      </trkpt>
      <trkpt lat="46.98006" lon="-0.59168">
        <ele>143.8</ele>
        <time>2012-04-08T07:15:37Z</time>
      </trkpt>
      <trkpt lat="46.98012" lon="-0.59165">
        <ele>143.6</ele>
        <time>2012-04-08T07:15:39Z</time>
      </trkpt>
      <trkpt lat="46.98018" lon="-0.59162">
        <ele>143.6</ele>
        <time>2012-04-08T07:15:41Z</time>
      </trkpt>
      <trkpt lat="46.98022" lon="-0.59161">
        <ele>143.5</ele>
        <time>2012-04-08T07:15:42Z</time>
      </trkpt>
      <trkpt lat="46.98033" lon="-0.59154">
        <ele>142.1</ele>
        <time>2012-04-08T07:15:45Z</time>
      </trkpt>
      <trkpt lat="46.98041" lon="-0.59151">
        <ele>141.8</ele>
        <time>2012-04-08T07:15:47Z</time>
      </trkpt>
      <trkpt lat="46.98048" lon="-0.59148">
        <ele>141.3</ele>
        <time>2012-04-08T07:15:49Z</time>
      </trkpt>
      <trkpt lat="46.98056" lon="-0.59146">
        <ele>141.1</ele>
        <time>2012-04-08T07:15:51Z</time>
      </trkpt>
      <trkpt lat="46.98064" lon="-0.59143">
        <ele>140.8</ele>
        <time>2012-04-08T07:15:53Z</time>
      </trkpt>
      <trkpt lat="46.98073" lon="-0.59141">
        <ele>140.6</ele>
        <time>2012-04-08T07:15:55Z</time>
      </trkpt>
      <trkpt lat="46.98082" lon="-0.59138">
        <ele>140.6</ele>
        <time>2012-04-08T07:15:57Z</time>
      </trkpt>
      <trkpt lat="46.9809" lon="-0.59136">
        <ele>140.3</ele>
        <time>2012-04-08T07:15:59Z</time>
      </trkpt>
      <trkpt lat="46.98098" lon="-0.59134">
        <ele>140.3</ele>
        <time>2012-04-08T07:16:01Z</time>
      </trkpt>
      <trkpt lat="46.98105" lon="-0.59133">
        <ele>140.3</ele>
        <time>2012-04-08T07:16:03Z</time>
      </trkpt>
      <trkpt lat="46.98111" lon="-0.59131">
        <ele>140.3</ele>
        <time>2012-04-08T07:16:05Z</time>
      </trkpt>
      <trkpt lat="46.98118" lon="-0.59129">
        <ele>140.3</ele>
        <time>2012-04-08T07:16:07Z</time>
      </trkpt>
      <trkpt lat="46.98125" lon="-0.59128">
        <ele>140.3</ele>
        <time>2012-04-08T07:16:09Z</time>
      </trkpt>
      <trkpt lat="46.98133" lon="-0.59126">
        <ele>140.1</ele>
        <time>2012-04-08T07:16:11Z</time>
      </trkpt>
      <trkpt lat="46.9814" lon="-0.59126">
        <ele>140.1</ele>
        <time>2012-04-08T07:16:13Z</time>
      </trkpt>
      <trkpt lat="46.98145" lon="-0.59133">
        <ele>140.1</ele>
        <time>2012-04-08T07:16:15Z</time>
      </trkpt>
      <trkpt lat="46.9815" lon="-0.59143">
        <ele>139.8</ele>
        <time>2012-04-08T07:16:17Z</time>
      </trkpt>
      <trkpt lat="46.98152" lon="-0.59149">
        <ele>139.8</ele>
        <time>2012-04-08T07:16:18Z</time>
      </trkpt>
      <trkpt lat="46.98155" lon="-0.59155">
        <ele>140</ele>
        <time>2012-04-08T07:16:19Z</time>
      </trkpt>
      <trkpt lat="46.98157" lon="-0.59161">
        <ele>140.1</ele>
        <time>2012-04-08T07:16:20Z</time>
      </trkpt>
      <trkpt lat="46.98159" lon="-0.59167">
        <ele>140.3</ele>
        <time>2012-04-08T07:16:21Z</time>
      </trkpt>
      <trkpt lat="46.98161" lon="-0.59173">
        <ele>140.3</ele>
        <time>2012-04-08T07:16:22Z</time>
      </trkpt>
      <trkpt lat="46.98163" lon="-0.5918">
        <ele>140.3</ele>
        <time>2012-04-08T07:16:23Z</time>
      </trkpt>
      <trkpt lat="46.98164" lon="-0.59186">
        <ele>140.3</ele>
        <time>2012-04-08T07:16:24Z</time>
      </trkpt>
      <trkpt lat="46.98167" lon="-0.59192">
        <ele>140.1</ele>
        <time>2012-04-08T07:16:25Z</time>
      </trkpt>
      <trkpt lat="46.98169" lon="-0.59198">
        <ele>140.1</ele>
        <time>2012-04-08T07:16:26Z</time>
      </trkpt>
      <trkpt lat="46.98171" lon="-0.59204">
        <ele>140</ele>
        <time>2012-04-08T07:16:27Z</time>
      </trkpt>
      <trkpt lat="46.98173" lon="-0.59211">
        <ele>139.8</ele>
        <time>2012-04-08T07:16:28Z</time>
      </trkpt>
      <trkpt lat="46.98176" lon="-0.59217">
        <ele>139.6</ele>
        <time>2012-04-08T07:16:29Z</time>
      </trkpt>
      <trkpt lat="46.98178" lon="-0.59224">
        <ele>139.6</ele>
        <time>2012-04-08T07:16:30Z</time>
      </trkpt>
      <trkpt lat="46.9818" lon="-0.59231">
        <ele>139.3</ele>
        <time>2012-04-08T07:16:31Z</time>
      </trkpt>
      <trkpt lat="46.98182" lon="-0.59238">
        <ele>139.1</ele>
        <time>2012-04-08T07:16:32Z</time>
      </trkpt>
      <trkpt lat="46.98185" lon="-0.59245">
        <ele>139.1</ele>
        <time>2012-04-08T07:16:33Z</time>
      </trkpt>
      <trkpt lat="46.98187" lon="-0.59251">
        <ele>138.8</ele>
        <time>2012-04-08T07:16:34Z</time>
      </trkpt>
      <trkpt lat="46.98189" lon="-0.59258">
        <ele>138.6</ele>
        <time>2012-04-08T07:16:35Z</time>
      </trkpt>
      <trkpt lat="46.98191" lon="-0.59265">
        <ele>138.6</ele>
        <time>2012-04-08T07:16:36Z</time>
      </trkpt>
      <trkpt lat="46.98194" lon="-0.59271">
        <ele>138.5</ele>
        <time>2012-04-08T07:16:37Z</time>
      </trkpt>
      <trkpt lat="46.98196" lon="-0.59278">
        <ele>138.3</ele>
        <time>2012-04-08T07:16:38Z</time>
      </trkpt>
      <trkpt lat="46.98198" lon="-0.59284">
        <ele>138</ele>
        <time>2012-04-08T07:16:39Z</time>
      </trkpt>
      <trkpt lat="46.982" lon="-0.59291">
        <ele>137.8</ele>
        <time>2012-04-08T07:16:40Z</time>
      </trkpt>
      <trkpt lat="46.98202" lon="-0.59297">
        <ele>137.6</ele>
        <time>2012-04-08T07:16:41Z</time>
      </trkpt>
      <trkpt lat="46.98205" lon="-0.59303">
        <ele>137.3</ele>
        <time>2012-04-08T07:16:42Z</time>
      </trkpt>
      <trkpt lat="46.98208" lon="-0.59307">
        <ele>137.6</ele>
        <time>2012-04-08T07:16:43Z</time>
      </trkpt>
      <trkpt lat="46.98212" lon="-0.59312">
        <ele>137.8</ele>
        <time>2012-04-08T07:16:44Z</time>
      </trkpt>
      <trkpt lat="46.98215" lon="-0.59317">
        <ele>138</ele>
        <time>2012-04-08T07:16:45Z</time>
      </trkpt>
      <trkpt lat="46.98218" lon="-0.59322">
        <ele>138.1</ele>
        <time>2012-04-08T07:16:46Z</time>
      </trkpt>
      <trkpt lat="46.98222" lon="-0.59327">
        <ele>138.1</ele>
        <time>2012-04-08T07:16:47Z</time>
      </trkpt>
      <trkpt lat="46.98225" lon="-0.59332">
        <ele>138.3</ele>
        <time>2012-04-08T07:16:48Z</time>
      </trkpt>
      <trkpt lat="46.98229" lon="-0.59337">
        <ele>138.3</ele>
        <time>2012-04-08T07:16:49Z</time>
      </trkpt>
      <trkpt lat="46.98232" lon="-0.59342">
        <ele>138.3</ele>
        <time>2012-04-08T07:16:50Z</time>
      </trkpt>
      <trkpt lat="46.98236" lon="-0.59346">
        <ele>138.1</ele>
        <time>2012-04-08T07:16:51Z</time>
      </trkpt>
      <trkpt lat="46.9824" lon="-0.59351">
        <ele>138.1</ele>
        <time>2012-04-08T07:16:52Z</time>
      </trkpt>
      <trkpt lat="46.98244" lon="-0.59356">
        <ele>137.8</ele>
        <time>2012-04-08T07:16:53Z</time>
      </trkpt>
      <trkpt lat="46.98248" lon="-0.59361">
        <ele>137.6</ele>
        <time>2012-04-08T07:16:54Z</time>
      </trkpt>
      <trkpt lat="46.98253" lon="-0.59366">
        <ele>137.6</ele>
        <time>2012-04-08T07:16:55Z</time>
      </trkpt>
      <trkpt lat="46.98257" lon="-0.59371">
        <ele>137.3</ele>
        <time>2012-04-08T07:16:56Z</time>
      </trkpt>
      <trkpt lat="46.98262" lon="-0.59376">
        <ele>137.3</ele>
        <time>2012-04-08T07:16:57Z</time>
      </trkpt>
      <trkpt lat="46.98266" lon="-0.59381">
        <ele>137.3</ele>
        <time>2012-04-08T07:16:58Z</time>
      </trkpt>
      <trkpt lat="46.98271" lon="-0.59385">
        <ele>137.3</ele>
        <time>2012-04-08T07:16:59Z</time>
      </trkpt>
      <trkpt lat="46.98275" lon="-0.5939">
        <ele>137.5</ele>
        <time>2012-04-08T07:17:00Z</time>
      </trkpt>
      <trkpt lat="46.9828" lon="-0.59394">
        <ele>137.6</ele>
        <time>2012-04-08T07:17:01Z</time>
      </trkpt>
      <trkpt lat="46.98284" lon="-0.59398">
        <ele>138</ele>
        <time>2012-04-08T07:17:02Z</time>
      </trkpt>
      <trkpt lat="46.98288" lon="-0.59403">
        <ele>138.3</ele>
        <time>2012-04-08T07:17:03Z</time>
      </trkpt>
      <trkpt lat="46.98293" lon="-0.59407">
        <ele>138.6</ele>
        <time>2012-04-08T07:17:04Z</time>
      </trkpt>
      <trkpt lat="46.98298" lon="-0.59412">
        <ele>138.8</ele>
        <time>2012-04-08T07:17:05Z</time>
      </trkpt>
      <trkpt lat="46.98303" lon="-0.59417">
        <ele>138.8</ele>
        <time>2012-04-08T07:17:06Z</time>
      </trkpt>
      <trkpt lat="46.98308" lon="-0.59422">
        <ele>138.8</ele>
        <time>2012-04-08T07:17:07Z</time>
      </trkpt>
      <trkpt lat="46.98312" lon="-0.59427">
        <ele>138.8</ele>
        <time>2012-04-08T07:17:08Z</time>
      </trkpt>
      <trkpt lat="46.98317" lon="-0.59432">
        <ele>138.8</ele>
        <time>2012-04-08T07:17:09Z</time>
      </trkpt>
      <trkpt lat="46.98321" lon="-0.59437">
        <ele>139</ele>
        <time>2012-04-08T07:17:10Z</time>
      </trkpt>
      <trkpt lat="46.98326" lon="-0.59442">
        <ele>139.1</ele>
        <time>2012-04-08T07:17:11Z</time>
      </trkpt>
      <trkpt lat="46.9833" lon="-0.59446">
        <ele>139.1</ele>
        <time>2012-04-08T07:17:12Z</time>
      </trkpt>
      <trkpt lat="46.98335" lon="-0.59451">
        <ele>139.1</ele>
        <time>2012-04-08T07:17:13Z</time>
      </trkpt>
      <trkpt lat="46.98339" lon="-0.59456">
        <ele>139.1</ele>
        <time>2012-04-08T07:17:14Z</time>
      </trkpt>
      <trkpt lat="46.98344" lon="-0.59461">
        <ele>139.3</ele>
        <time>2012-04-08T07:17:15Z</time>
      </trkpt>
      <trkpt lat="46.98348" lon="-0.59465">
        <ele>139.3</ele>
        <time>2012-04-08T07:17:16Z</time>
      </trkpt>
      <trkpt lat="46.98353" lon="-0.5947">
        <ele>139.5</ele>
        <time>2012-04-08T07:17:17Z</time>
      </trkpt>
      <trkpt lat="46.98356" lon="-0.59474">
        <ele>139.5</ele>
        <time>2012-04-08T07:17:18Z</time>
      </trkpt>
      <trkpt lat="46.9836" lon="-0.59478">
        <ele>139.5</ele>
        <time>2012-04-08T07:17:19Z</time>
      </trkpt>
      <trkpt lat="46.98364" lon="-0.59482">
        <ele>139.5</ele>
        <time>2012-04-08T07:17:20Z</time>
      </trkpt>
      <trkpt lat="46.98369" lon="-0.59487">
        <ele>139.5</ele>
        <time>2012-04-08T07:17:21Z</time>
      </trkpt>
      <trkpt lat="46.98373" lon="-0.59492">
        <ele>139.6</ele>
        <time>2012-04-08T07:17:22Z</time>
      </trkpt>
      <trkpt lat="46.98378" lon="-0.59496">
        <ele>139.6</ele>
        <time>2012-04-08T07:17:23Z</time>
      </trkpt>
      <trkpt lat="46.98382" lon="-0.59501">
        <ele>139.6</ele>
        <time>2012-04-08T07:17:24Z</time>
      </trkpt>
      <trkpt lat="46.98387" lon="-0.59505">
        <ele>139.6</ele>
        <time>2012-04-08T07:17:25Z</time>
      </trkpt>
      <trkpt lat="46.98391" lon="-0.59508">
        <ele>139.6</ele>
        <time>2012-04-08T07:17:26Z</time>
      </trkpt>
      <trkpt lat="46.98396" lon="-0.59512">
        <ele>139.6</ele>
        <time>2012-04-08T07:17:27Z</time>
      </trkpt>
      <trkpt lat="46.98402" lon="-0.59517">
        <ele>139.6</ele>
        <time>2012-04-08T07:17:29Z</time>
      </trkpt>
      <trkpt lat="46.98409" lon="-0.59522">
        <ele>139.6</ele>
        <time>2012-04-08T07:17:32Z</time>
      </trkpt>
      <trkpt lat="46.98416" lon="-0.59528">
        <ele>139.6</ele>
        <time>2012-04-08T07:17:35Z</time>
      </trkpt>
      <trkpt lat="46.98422" lon="-0.59532">
        <ele>139.6</ele>
        <time>2012-04-08T07:17:37Z</time>
      </trkpt>
      <trkpt lat="46.98429" lon="-0.59536">
        <ele>139.6</ele>
        <time>2012-04-08T07:17:39Z</time>
      </trkpt>
      <trkpt lat="46.98435" lon="-0.59541">
        <ele>139.6</ele>
        <time>2012-04-08T07:17:41Z</time>
      </trkpt>
      <trkpt lat="46.98442" lon="-0.59545">
        <ele>139.6</ele>
        <time>2012-04-08T07:17:43Z</time>
      </trkpt>
      <trkpt lat="46.98445" lon="-0.59547">
        <ele>139.6</ele>
        <time>2012-04-08T07:17:44Z</time>
      </trkpt>
      <trkpt lat="46.98455" lon="-0.59554">
        <ele>139.6</ele>
        <time>2012-04-08T07:17:47Z</time>
      </trkpt>
      <trkpt lat="46.98462" lon="-0.59559">
        <ele>139.6</ele>
        <time>2012-04-08T07:17:49Z</time>
      </trkpt>
      <trkpt lat="46.98469" lon="-0.59564">
        <ele>139.6</ele>
        <time>2012-04-08T07:17:51Z</time>
      </trkpt>
      <trkpt lat="46.98475" lon="-0.59568">
        <ele>139.6</ele>
        <time>2012-04-08T07:17:53Z</time>
      </trkpt>
      <trkpt lat="46.98482" lon="-0.59574">
        <ele>139.6</ele>
        <time>2012-04-08T07:17:55Z</time>
      </trkpt>
      <trkpt lat="46.9849" lon="-0.59579">
        <ele>139.6</ele>
        <time>2012-04-08T07:17:57Z</time>
      </trkpt>
      <trkpt lat="46.98497" lon="-0.59584">
        <ele>139.8</ele>
        <time>2012-04-08T07:17:59Z</time>
      </trkpt>
      <trkpt lat="46.98505" lon="-0.59589">
        <ele>139.8</ele>
        <time>2012-04-08T07:18:01Z</time>
      </trkpt>
      <trkpt lat="46.98513" lon="-0.59594">
        <ele>139.8</ele>
        <time>2012-04-08T07:18:03Z</time>
      </trkpt>
      <trkpt lat="46.98517" lon="-0.59597">
        <ele>139.8</ele>
        <time>2012-04-08T07:18:04Z</time>
      </trkpt>
      <trkpt lat="46.98525" lon="-0.59602">
        <ele>139.8</ele>
        <time>2012-04-08T07:18:06Z</time>
      </trkpt>
      <trkpt lat="46.98533" lon="-0.59607">
        <ele>139.8</ele>
        <time>2012-04-08T07:18:08Z</time>
      </trkpt>
      <trkpt lat="46.9854" lon="-0.59611">
        <ele>139.8</ele>
        <time>2012-04-08T07:18:10Z</time>
      </trkpt>
      <trkpt lat="46.98547" lon="-0.59616">
        <ele>139.8</ele>
        <time>2012-04-08T07:18:12Z</time>
      </trkpt>
      <trkpt lat="46.98553" lon="-0.59621">
        <ele>140</ele>
        <time>2012-04-08T07:18:14Z</time>
      </trkpt>
      <trkpt lat="46.9856" lon="-0.59625">
        <ele>140</ele>
        <time>2012-04-08T07:18:16Z</time>
      </trkpt>
      <trkpt lat="46.98566" lon="-0.5963">
        <ele>140</ele>
        <time>2012-04-08T07:18:18Z</time>
      </trkpt>
      <trkpt lat="46.98572" lon="-0.59635">
        <ele>140</ele>
        <time>2012-04-08T07:18:20Z</time>
      </trkpt>
      <trkpt lat="46.98579" lon="-0.59639">
        <ele>140</ele>
        <time>2012-04-08T07:18:22Z</time>
      </trkpt>
      <trkpt lat="46.98587" lon="-0.59645">
        <ele>140</ele>
        <time>2012-04-08T07:18:24Z</time>
      </trkpt>
      <trkpt lat="46.98595" lon="-0.5965">
        <ele>140.6</ele>
        <time>2012-04-08T07:18:26Z</time>
      </trkpt>
      <trkpt lat="46.98603" lon="-0.59655">
        <ele>140.8</ele>
        <time>2012-04-08T07:18:28Z</time>
      </trkpt>
      <trkpt lat="46.98607" lon="-0.59658">
        <ele>141.1</ele>
        <time>2012-04-08T07:18:29Z</time>
      </trkpt>
      <trkpt lat="46.98611" lon="-0.5966">
        <ele>141.3</ele>
        <time>2012-04-08T07:18:30Z</time>
      </trkpt>
      <trkpt lat="46.98616" lon="-0.59663">
        <ele>141.5</ele>
        <time>2012-04-08T07:18:31Z</time>
      </trkpt>
      <trkpt lat="46.98624" lon="-0.59667">
        <ele>141.5</ele>
        <time>2012-04-08T07:18:33Z</time>
      </trkpt>
      <trkpt lat="46.98631" lon="-0.59671">
        <ele>141.5</ele>
        <time>2012-04-08T07:18:35Z</time>
      </trkpt>
      <trkpt lat="46.98638" lon="-0.59676">
        <ele>141.5</ele>
        <time>2012-04-08T07:18:37Z</time>
      </trkpt>
      <trkpt lat="46.98645" lon="-0.59681">
        <ele>141.3</ele>
        <time>2012-04-08T07:18:39Z</time>
      </trkpt>
      <trkpt lat="46.98652" lon="-0.59687">
        <ele>141.3</ele>
        <time>2012-04-08T07:18:41Z</time>
      </trkpt>
      <trkpt lat="46.98659" lon="-0.59693">
        <ele>140.8</ele>
        <time>2012-04-08T07:18:43Z</time>
      </trkpt>
      <trkpt lat="46.98666" lon="-0.59699">
        <ele>140.8</ele>
        <time>2012-04-08T07:18:45Z</time>
      </trkpt>
      <trkpt lat="46.98669" lon="-0.59701">
        <ele>140.8</ele>
        <time>2012-04-08T07:18:46Z</time>
      </trkpt>
      <trkpt lat="46.9868" lon="-0.59708">
        <ele>140.8</ele>
        <time>2012-04-08T07:18:49Z</time>
      </trkpt>
      <trkpt lat="46.98687" lon="-0.59712">
        <ele>140.8</ele>
        <time>2012-04-08T07:18:51Z</time>
      </trkpt>
      <trkpt lat="46.98694" lon="-0.59716">
        <ele>140.6</ele>
        <time>2012-04-08T07:18:53Z</time>
      </trkpt>
      <trkpt lat="46.98702" lon="-0.59721">
        <ele>140.6</ele>
        <time>2012-04-08T07:18:55Z</time>
      </trkpt>
      <trkpt lat="46.98709" lon="-0.59725">
        <ele>140.1</ele>
        <time>2012-04-08T07:18:57Z</time>
      </trkpt>
      <trkpt lat="46.98716" lon="-0.59729">
        <ele>140.1</ele>
        <time>2012-04-08T07:18:59Z</time>
      </trkpt>
      <trkpt lat="46.98723" lon="-0.59732">
        <ele>140.1</ele>
        <time>2012-04-08T07:19:01Z</time>
      </trkpt>
      <trkpt lat="46.98729" lon="-0.59736">
        <ele>140.1</ele>
        <time>2012-04-08T07:19:03Z</time>
      </trkpt>
      <trkpt lat="46.98735" lon="-0.59739">
        <ele>140.1</ele>
        <time>2012-04-08T07:19:05Z</time>
      </trkpt>
      <trkpt lat="46.98743" lon="-0.59744">
        <ele>140.1</ele>
        <time>2012-04-08T07:19:07Z</time>
      </trkpt>
      <trkpt lat="46.9875" lon="-0.59748">
        <ele>140</ele>
        <time>2012-04-08T07:19:09Z</time>
      </trkpt>
      <trkpt lat="46.98757" lon="-0.59753">
        <ele>140</ele>
        <time>2012-04-08T07:19:11Z</time>
      </trkpt>
      <trkpt lat="46.98765" lon="-0.59757">
        <ele>139.8</ele>
        <time>2012-04-08T07:19:13Z</time>
      </trkpt>
      <trkpt lat="46.98773" lon="-0.59762">
        <ele>139.8</ele>
        <time>2012-04-08T07:19:15Z</time>
      </trkpt>
      <trkpt lat="46.98781" lon="-0.59767">
        <ele>140</ele>
        <time>2012-04-08T07:19:17Z</time>
      </trkpt>
      <trkpt lat="46.98789" lon="-0.59772">
        <ele>140.1</ele>
        <time>2012-04-08T07:19:19Z</time>
      </trkpt>
      <trkpt lat="46.98797" lon="-0.59778">
        <ele>140.1</ele>
        <time>2012-04-08T07:19:21Z</time>
      </trkpt>
      <trkpt lat="46.98804" lon="-0.59784">
        <ele>140.1</ele>
        <time>2012-04-08T07:19:23Z</time>
      </trkpt>
      <trkpt lat="46.98811" lon="-0.59791">
        <ele>140.3</ele>
        <time>2012-04-08T07:19:25Z</time>
      </trkpt>
      <trkpt lat="46.98818" lon="-0.59798">
        <ele>140.3</ele>
        <time>2012-04-08T07:19:27Z</time>
      </trkpt>
      <trkpt lat="46.98825" lon="-0.59804">
        <ele>140.3</ele>
        <time>2012-04-08T07:19:29Z</time>
      </trkpt>
      <trkpt lat="46.98832" lon="-0.59811">
        <ele>140.3</ele>
        <time>2012-04-08T07:19:31Z</time>
      </trkpt>
      <trkpt lat="46.9884" lon="-0.59818">
        <ele>140.5</ele>
        <time>2012-04-08T07:19:33Z</time>
      </trkpt>
      <trkpt lat="46.98847" lon="-0.59824">
        <ele>140.6</ele>
        <time>2012-04-08T07:19:35Z</time>
      </trkpt>
      <trkpt lat="46.98855" lon="-0.59831">
        <ele>140.8</ele>
        <time>2012-04-08T07:19:37Z</time>
      </trkpt>
      <trkpt lat="46.98859" lon="-0.59834">
        <ele>141</ele>
        <time>2012-04-08T07:19:38Z</time>
      </trkpt>
      <trkpt lat="46.98863" lon="-0.59838">
        <ele>141</ele>
        <time>2012-04-08T07:19:39Z</time>
      </trkpt>
      <trkpt lat="46.98867" lon="-0.59841">
        <ele>141.1</ele>
        <time>2012-04-08T07:19:40Z</time>
      </trkpt>
      <trkpt lat="46.9887" lon="-0.59845">
        <ele>141.1</ele>
        <time>2012-04-08T07:19:41Z</time>
      </trkpt>
      <trkpt lat="46.98874" lon="-0.59849">
        <ele>141.1</ele>
        <time>2012-04-08T07:19:42Z</time>
      </trkpt>
      <trkpt lat="46.98878" lon="-0.59853">
        <ele>141.1</ele>
        <time>2012-04-08T07:19:43Z</time>
      </trkpt>
      <trkpt lat="46.98882" lon="-0.59856">
        <ele>141.3</ele>
        <time>2012-04-08T07:19:44Z</time>
      </trkpt>
      <trkpt lat="46.98886" lon="-0.5986">
        <ele>141.3</ele>
        <time>2012-04-08T07:19:45Z</time>
      </trkpt>
      <trkpt lat="46.9889" lon="-0.59864">
        <ele>141.3</ele>
        <time>2012-04-08T07:19:46Z</time>
      </trkpt>
      <trkpt lat="46.98894" lon="-0.59867">
        <ele>141.1</ele>
        <time>2012-04-08T07:19:47Z</time>
      </trkpt>
      <trkpt lat="46.98898" lon="-0.59871">
        <ele>141.1</ele>
        <time>2012-04-08T07:19:48Z</time>
      </trkpt>
      <trkpt lat="46.98902" lon="-0.59875">
        <ele>141.1</ele>
        <time>2012-04-08T07:19:49Z</time>
      </trkpt>
      <trkpt lat="46.98906" lon="-0.59878">
        <ele>141.1</ele>
        <time>2012-04-08T07:19:50Z</time>
      </trkpt>
      <trkpt lat="46.9891" lon="-0.59882">
        <ele>141.1</ele>
        <time>2012-04-08T07:19:51Z</time>
      </trkpt>
      <trkpt lat="46.98914" lon="-0.59886">
        <ele>141.1</ele>
        <time>2012-04-08T07:19:52Z</time>
      </trkpt>
      <trkpt lat="46.98918" lon="-0.59889">
        <ele>141.1</ele>
        <time>2012-04-08T07:19:53Z</time>
      </trkpt>
      <trkpt lat="46.98925" lon="-0.59896">
        <ele>141.1</ele>
        <time>2012-04-08T07:19:55Z</time>
      </trkpt>
      <trkpt lat="46.98932" lon="-0.59903">
        <ele>141.1</ele>
        <time>2012-04-08T07:19:57Z</time>
      </trkpt>
      <trkpt lat="46.98938" lon="-0.59909">
        <ele>141.1</ele>
        <time>2012-04-08T07:19:59Z</time>
      </trkpt>
      <trkpt lat="46.98945" lon="-0.59915">
        <ele>141.1</ele>
        <time>2012-04-08T07:20:02Z</time>
      </trkpt>
      <trkpt lat="46.98953" lon="-0.59923">
        <ele>141.1</ele>
        <time>2012-04-08T07:20:05Z</time>
      </trkpt>
      <trkpt lat="46.98959" lon="-0.59928">
        <ele>141.1</ele>
        <time>2012-04-08T07:20:07Z</time>
      </trkpt>
      <trkpt lat="46.98966" lon="-0.59934">
        <ele>141.1</ele>
        <time>2012-04-08T07:20:09Z</time>
      </trkpt>
      <trkpt lat="46.98973" lon="-0.5994">
        <ele>141.3</ele>
        <time>2012-04-08T07:20:11Z</time>
      </trkpt>
      <trkpt lat="46.9898" lon="-0.59946">
        <ele>141.6</ele>
        <time>2012-04-08T07:20:13Z</time>
      </trkpt>
      <trkpt lat="46.98988" lon="-0.59953">
        <ele>141.6</ele>
        <time>2012-04-08T07:20:15Z</time>
      </trkpt>
      <trkpt lat="46.98991" lon="-0.59956">
        <ele>141.6</ele>
        <time>2012-04-08T07:20:16Z</time>
      </trkpt>
      <trkpt lat="46.98995" lon="-0.5996">
        <ele>141.6</ele>
        <time>2012-04-08T07:20:17Z</time>
      </trkpt>
      <trkpt lat="46.98999" lon="-0.59964">
        <ele>141.5</ele>
        <time>2012-04-08T07:20:18Z</time>
      </trkpt>
      <trkpt lat="46.99003" lon="-0.59968">
        <ele>141.5</ele>
        <time>2012-04-08T07:20:19Z</time>
      </trkpt>
      <trkpt lat="46.99007" lon="-0.59972">
        <ele>141.5</ele>
        <time>2012-04-08T07:20:20Z</time>
      </trkpt>
      <trkpt lat="46.99011" lon="-0.59976">
        <ele>141.5</ele>
        <time>2012-04-08T07:20:21Z</time>
      </trkpt>
      <trkpt lat="46.99015" lon="-0.59979">
        <ele>141.5</ele>
        <time>2012-04-08T07:20:22Z</time>
      </trkpt>
      <trkpt lat="46.99019" lon="-0.59983">
        <ele>141.6</ele>
        <time>2012-04-08T07:20:23Z</time>
      </trkpt>
      <trkpt lat="46.99023" lon="-0.59986">
        <ele>141.6</ele>
        <time>2012-04-08T07:20:24Z</time>
      </trkpt>
      <trkpt lat="46.99027" lon="-0.5999">
        <ele>141.6</ele>
        <time>2012-04-08T07:20:25Z</time>
      </trkpt>
      <trkpt lat="46.99032" lon="-0.59994">
        <ele>141.6</ele>
        <time>2012-04-08T07:20:26Z</time>
      </trkpt>
      <trkpt lat="46.99036" lon="-0.59997">
        <ele>141.6</ele>
        <time>2012-04-08T07:20:27Z</time>
      </trkpt>
      <trkpt lat="46.9904" lon="-0.60001">
        <ele>141.6</ele>
        <time>2012-04-08T07:20:28Z</time>
      </trkpt>
      <trkpt lat="46.99044" lon="-0.60004">
        <ele>141.6</ele>
        <time>2012-04-08T07:20:29Z</time>
      </trkpt>
      <trkpt lat="46.99049" lon="-0.60008">
        <ele>141.8</ele>
        <time>2012-04-08T07:20:30Z</time>
      </trkpt>
      <trkpt lat="46.99053" lon="-0.60012">
        <ele>141.8</ele>
        <time>2012-04-08T07:20:31Z</time>
      </trkpt>
      <trkpt lat="46.99057" lon="-0.60016">
        <ele>141.8</ele>
        <time>2012-04-08T07:20:32Z</time>
      </trkpt>
      <trkpt lat="46.99062" lon="-0.6002">
        <ele>141.8</ele>
        <time>2012-04-08T07:20:33Z</time>
      </trkpt>
      <trkpt lat="46.99066" lon="-0.60024">
        <ele>141.8</ele>
        <time>2012-04-08T07:20:34Z</time>
      </trkpt>
      <trkpt lat="46.9907" lon="-0.60028">
        <ele>141.6</ele>
        <time>2012-04-08T07:20:35Z</time>
      </trkpt>
      <trkpt lat="46.99075" lon="-0.60032">
        <ele>141.6</ele>
        <time>2012-04-08T07:20:36Z</time>
      </trkpt>
      <trkpt lat="46.99079" lon="-0.60035">
        <ele>141.6</ele>
        <time>2012-04-08T07:20:37Z</time>
      </trkpt>
      <trkpt lat="46.99083" lon="-0.60039">
        <ele>141.5</ele>
        <time>2012-04-08T07:20:38Z</time>
      </trkpt>
      <trkpt lat="46.99087" lon="-0.60042">
        <ele>141.5</ele>
        <time>2012-04-08T07:20:39Z</time>
      </trkpt>
      <trkpt lat="46.99092" lon="-0.60045">
        <ele>141.5</ele>
        <time>2012-04-08T07:20:40Z</time>
      </trkpt>
      <trkpt lat="46.99096" lon="-0.60048">
        <ele>141.5</ele>
        <time>2012-04-08T07:20:41Z</time>
      </trkpt>
      <trkpt lat="46.99101" lon="-0.60051">
        <ele>141.5</ele>
        <time>2012-04-08T07:20:42Z</time>
      </trkpt>
      <trkpt lat="46.99105" lon="-0.60055">
        <ele>141.6</ele>
        <time>2012-04-08T07:20:43Z</time>
      </trkpt>
      <trkpt lat="46.99109" lon="-0.60058">
        <ele>141.6</ele>
        <time>2012-04-08T07:20:44Z</time>
      </trkpt>
      <trkpt lat="46.99113" lon="-0.60062">
        <ele>141.6</ele>
        <time>2012-04-08T07:20:45Z</time>
      </trkpt>
      <trkpt lat="46.99116" lon="-0.60065">
        <ele>141.6</ele>
        <time>2012-04-08T07:20:46Z</time>
      </trkpt>
      <trkpt lat="46.9912" lon="-0.60069">
        <ele>141.6</ele>
        <time>2012-04-08T07:20:47Z</time>
      </trkpt>
      <trkpt lat="46.99124" lon="-0.60072">
        <ele>141.6</ele>
        <time>2012-04-08T07:20:48Z</time>
      </trkpt>
      <trkpt lat="46.99128" lon="-0.60076">
        <ele>141.6</ele>
        <time>2012-04-08T07:20:49Z</time>
      </trkpt>
      <trkpt lat="46.99136" lon="-0.60082">
        <ele>141.5</ele>
        <time>2012-04-08T07:20:51Z</time>
      </trkpt>
      <trkpt lat="46.99144" lon="-0.60088">
        <ele>141.3</ele>
        <time>2012-04-08T07:20:53Z</time>
      </trkpt>
      <trkpt lat="46.99151" lon="-0.60095">
        <ele>141.3</ele>
        <time>2012-04-08T07:20:55Z</time>
      </trkpt>
      <trkpt lat="46.99158" lon="-0.60101">
        <ele>141.1</ele>
        <time>2012-04-08T07:20:57Z</time>
      </trkpt>
      <trkpt lat="46.99166" lon="-0.60104">
        <ele>141.1</ele>
        <time>2012-04-08T07:20:59Z</time>
      </trkpt>
      <trkpt lat="46.99173" lon="-0.60105">
        <ele>141.1</ele>
        <time>2012-04-08T07:21:01Z</time>
      </trkpt>
      <trkpt lat="46.99179" lon="-0.60111">
        <ele>141.1</ele>
        <time>2012-04-08T07:21:03Z</time>
      </trkpt>
      <trkpt lat="46.99184" lon="-0.60122">
        <ele>141.1</ele>
        <time>2012-04-08T07:21:05Z</time>
      </trkpt>
      <trkpt lat="46.99186" lon="-0.60128">
        <ele>141</ele>
        <time>2012-04-08T07:21:06Z</time>
      </trkpt>
      <trkpt lat="46.99189" lon="-0.60134">
        <ele>140.8</ele>
        <time>2012-04-08T07:21:07Z</time>
      </trkpt>
      <trkpt lat="46.99191" lon="-0.6014">
        <ele>140.8</ele>
        <time>2012-04-08T07:21:08Z</time>
      </trkpt>
      <trkpt lat="46.99194" lon="-0.60146">
        <ele>140.8</ele>
        <time>2012-04-08T07:21:09Z</time>
      </trkpt>
      <trkpt lat="46.99196" lon="-0.60152">
        <ele>140.8</ele>
        <time>2012-04-08T07:21:10Z</time>
      </trkpt>
      <trkpt lat="46.99199" lon="-0.60157">
        <ele>140.8</ele>
        <time>2012-04-08T07:21:11Z</time>
      </trkpt>
      <trkpt lat="46.99202" lon="-0.60163">
        <ele>140.8</ele>
        <time>2012-04-08T07:21:12Z</time>
      </trkpt>
      <trkpt lat="46.99205" lon="-0.60168">
        <ele>140.8</ele>
        <time>2012-04-08T07:21:13Z</time>
      </trkpt>
      <trkpt lat="46.99208" lon="-0.60174">
        <ele>140.8</ele>
        <time>2012-04-08T07:21:14Z</time>
      </trkpt>
      <trkpt lat="46.99211" lon="-0.6018">
        <ele>140.8</ele>
        <time>2012-04-08T07:21:15Z</time>
      </trkpt>
      <trkpt lat="46.99214" lon="-0.60185">
        <ele>140.8</ele>
        <time>2012-04-08T07:21:16Z</time>
      </trkpt>
      <trkpt lat="46.99217" lon="-0.60191">
        <ele>141</ele>
        <time>2012-04-08T07:21:17Z</time>
      </trkpt>
      <trkpt lat="46.99221" lon="-0.60197">
        <ele>141</ele>
        <time>2012-04-08T07:21:18Z</time>
      </trkpt>
      <trkpt lat="46.99224" lon="-0.60203">
        <ele>141</ele>
        <time>2012-04-08T07:21:19Z</time>
      </trkpt>
      <trkpt lat="46.99227" lon="-0.60209">
        <ele>141</ele>
        <time>2012-04-08T07:21:20Z</time>
      </trkpt>
      <trkpt lat="46.9923" lon="-0.60215">
        <ele>141.1</ele>
        <time>2012-04-08T07:21:21Z</time>
      </trkpt>
      <trkpt lat="46.99233" lon="-0.60221">
        <ele>141.1</ele>
        <time>2012-04-08T07:21:22Z</time>
      </trkpt>
      <trkpt lat="46.99236" lon="-0.60227">
        <ele>141.1</ele>
        <time>2012-04-08T07:21:23Z</time>
      </trkpt>
      <trkpt lat="46.99239" lon="-0.60233">
        <ele>141.3</ele>
        <time>2012-04-08T07:21:24Z</time>
      </trkpt>
      <trkpt lat="46.99242" lon="-0.60239">
        <ele>141.3</ele>
        <time>2012-04-08T07:21:25Z</time>
      </trkpt>
      <trkpt lat="46.99245" lon="-0.60245">
        <ele>141.3</ele>
        <time>2012-04-08T07:21:26Z</time>
      </trkpt>
      <trkpt lat="46.99248" lon="-0.60251">
        <ele>141.3</ele>
        <time>2012-04-08T07:21:27Z</time>
      </trkpt>
      <trkpt lat="46.99251" lon="-0.60257">
        <ele>141.3</ele>
        <time>2012-04-08T07:21:28Z</time>
      </trkpt>
      <trkpt lat="46.99255" lon="-0.60263">
        <ele>141.3</ele>
        <time>2012-04-08T07:21:29Z</time>
      </trkpt>
      <trkpt lat="46.99258" lon="-0.60269">
        <ele>141.5</ele>
        <time>2012-04-08T07:21:30Z</time>
      </trkpt>
      <trkpt lat="46.99261" lon="-0.60275">
        <ele>141.5</ele>
        <time>2012-04-08T07:21:31Z</time>
      </trkpt>
      <trkpt lat="46.99264" lon="-0.60281">
        <ele>141.5</ele>
        <time>2012-04-08T07:21:32Z</time>
      </trkpt>
      <trkpt lat="46.99268" lon="-0.60287">
        <ele>141.5</ele>
        <time>2012-04-08T07:21:33Z</time>
      </trkpt>
      <trkpt lat="46.99271" lon="-0.60293">
        <ele>141.6</ele>
        <time>2012-04-08T07:21:34Z</time>
      </trkpt>
      <trkpt lat="46.99274" lon="-0.60299">
        <ele>141.6</ele>
        <time>2012-04-08T07:21:35Z</time>
      </trkpt>
      <trkpt lat="46.99278" lon="-0.60304">
        <ele>141.6</ele>
        <time>2012-04-08T07:21:36Z</time>
      </trkpt>
      <trkpt lat="46.99282" lon="-0.60309">
        <ele>141.6</ele>
        <time>2012-04-08T07:21:37Z</time>
      </trkpt>
      <trkpt lat="46.99285" lon="-0.60314">
        <ele>141.6</ele>
        <time>2012-04-08T07:21:38Z</time>
      </trkpt>
      <trkpt lat="46.99289" lon="-0.60319">
        <ele>141.6</ele>
        <time>2012-04-08T07:21:39Z</time>
      </trkpt>
      <trkpt lat="46.99293" lon="-0.60323">
        <ele>141.6</ele>
        <time>2012-04-08T07:21:40Z</time>
      </trkpt>
      <trkpt lat="46.99298" lon="-0.60328">
        <ele>141.6</ele>
        <time>2012-04-08T07:21:41Z</time>
      </trkpt>
      <trkpt lat="46.99302" lon="-0.60332">
        <ele>141.6</ele>
        <time>2012-04-08T07:21:42Z</time>
      </trkpt>
      <trkpt lat="46.99306" lon="-0.60337">
        <ele>141.6</ele>
        <time>2012-04-08T07:21:43Z</time>
      </trkpt>
      <trkpt lat="46.9931" lon="-0.60341">
        <ele>141.8</ele>
        <time>2012-04-08T07:21:44Z</time>
      </trkpt>
      <trkpt lat="46.99315" lon="-0.60345">
        <ele>141.8</ele>
        <time>2012-04-08T07:21:45Z</time>
      </trkpt>
      <trkpt lat="46.99319" lon="-0.60349">
        <ele>141.8</ele>
        <time>2012-04-08T07:21:46Z</time>
      </trkpt>
      <trkpt lat="46.99323" lon="-0.60353">
        <ele>141.8</ele>
        <time>2012-04-08T07:21:47Z</time>
      </trkpt>
      <trkpt lat="46.99327" lon="-0.60357">
        <ele>141.8</ele>
        <time>2012-04-08T07:21:48Z</time>
      </trkpt>
      <trkpt lat="46.99331" lon="-0.60361">
        <ele>142</ele>
        <time>2012-04-08T07:21:49Z</time>
      </trkpt>
      <trkpt lat="46.99335" lon="-0.60365">
        <ele>142</ele>
        <time>2012-04-08T07:21:50Z</time>
      </trkpt>
      <trkpt lat="46.99339" lon="-0.60369">
        <ele>142</ele>
        <time>2012-04-08T07:21:51Z</time>
      </trkpt>
      <trkpt lat="46.99343" lon="-0.60374">
        <ele>142</ele>
        <time>2012-04-08T07:21:52Z</time>
      </trkpt>
      <trkpt lat="46.99348" lon="-0.60378">
        <ele>142</ele>
        <time>2012-04-08T07:21:53Z</time>
      </trkpt>
      <trkpt lat="46.99352" lon="-0.60382">
        <ele>142</ele>
        <time>2012-04-08T07:21:54Z</time>
      </trkpt>
      <trkpt lat="46.99357" lon="-0.60386">
        <ele>142</ele>
        <time>2012-04-08T07:21:55Z</time>
      </trkpt>
      <trkpt lat="46.99361" lon="-0.60391">
        <ele>142</ele>
        <time>2012-04-08T07:21:56Z</time>
      </trkpt>
      <trkpt lat="46.99366" lon="-0.60395">
        <ele>141.8</ele>
        <time>2012-04-08T07:21:57Z</time>
      </trkpt>
      <trkpt lat="46.9937" lon="-0.60399">
        <ele>141.8</ele>
        <time>2012-04-08T07:21:58Z</time>
      </trkpt>
      <trkpt lat="46.99375" lon="-0.60403">
        <ele>141.8</ele>
        <time>2012-04-08T07:21:59Z</time>
      </trkpt>
      <trkpt lat="46.99379" lon="-0.60407">
        <ele>141.8</ele>
        <time>2012-04-08T07:22:00Z</time>
      </trkpt>
      <trkpt lat="46.99384" lon="-0.60411">
        <ele>141.8</ele>
        <time>2012-04-08T07:22:01Z</time>
      </trkpt>
      <trkpt lat="46.99389" lon="-0.60415">
        <ele>141.8</ele>
        <time>2012-04-08T07:22:02Z</time>
      </trkpt>
      <trkpt lat="46.99393" lon="-0.6042">
        <ele>141.8</ele>
        <time>2012-04-08T07:22:03Z</time>
      </trkpt>
      <trkpt lat="46.99398" lon="-0.60424">
        <ele>141.8</ele>
        <time>2012-04-08T07:22:04Z</time>
      </trkpt>
      <trkpt lat="46.99403" lon="-0.60428">
        <ele>142</ele>
        <time>2012-04-08T07:22:05Z</time>
      </trkpt>
      <trkpt lat="46.99408" lon="-0.60432">
        <ele>142</ele>
        <time>2012-04-08T07:22:06Z</time>
      </trkpt>
      <trkpt lat="46.99412" lon="-0.60436">
        <ele>142</ele>
        <time>2012-04-08T07:22:07Z</time>
      </trkpt>
      <trkpt lat="46.99417" lon="-0.6044">
        <ele>142</ele>
        <time>2012-04-08T07:22:08Z</time>
      </trkpt>
      <trkpt lat="46.99422" lon="-0.60444">
        <ele>142</ele>
        <time>2012-04-08T07:22:09Z</time>
      </trkpt>
      <trkpt lat="46.99427" lon="-0.60447">
        <ele>142</ele>
        <time>2012-04-08T07:22:10Z</time>
      </trkpt>
      <trkpt lat="46.99432" lon="-0.60451">
        <ele>142</ele>
        <time>2012-04-08T07:22:11Z</time>
      </trkpt>
      <trkpt lat="46.99437" lon="-0.60455">
        <ele>142.1</ele>
        <time>2012-04-08T07:22:12Z</time>
      </trkpt>
      <trkpt lat="46.99442" lon="-0.60458">
        <ele>142.1</ele>
        <time>2012-04-08T07:22:13Z</time>
      </trkpt>
      <trkpt lat="46.99447" lon="-0.60462">
        <ele>142.1</ele>
        <time>2012-04-08T07:22:14Z</time>
      </trkpt>
      <trkpt lat="46.99452" lon="-0.60466">
        <ele>142.3</ele>
        <time>2012-04-08T07:22:15Z</time>
      </trkpt>
      <trkpt lat="46.99457" lon="-0.60469">
        <ele>142.3</ele>
        <time>2012-04-08T07:22:16Z</time>
      </trkpt>
      <trkpt lat="46.99462" lon="-0.60472">
        <ele>142.3</ele>
        <time>2012-04-08T07:22:17Z</time>
      </trkpt>
      <trkpt lat="46.99468" lon="-0.60476">
        <ele>142.3</ele>
        <time>2012-04-08T07:22:18Z</time>
      </trkpt>
      <trkpt lat="46.99473" lon="-0.60479">
        <ele>142.3</ele>
        <time>2012-04-08T07:22:19Z</time>
      </trkpt>
      <trkpt lat="46.99478" lon="-0.60482">
        <ele>142.3</ele>
        <time>2012-04-08T07:22:20Z</time>
      </trkpt>
      <trkpt lat="46.99484" lon="-0.60486">
        <ele>142.3</ele>
        <time>2012-04-08T07:22:21Z</time>
      </trkpt>
      <trkpt lat="46.99489" lon="-0.60489">
        <ele>142.3</ele>
        <time>2012-04-08T07:22:22Z</time>
      </trkpt>
      <trkpt lat="46.99495" lon="-0.60492">
        <ele>142.3</ele>
        <time>2012-04-08T07:22:23Z</time>
      </trkpt>
      <trkpt lat="46.995" lon="-0.60495">
        <ele>142.1</ele>
        <time>2012-04-08T07:22:24Z</time>
      </trkpt>
      <trkpt lat="46.99506" lon="-0.60499">
        <ele>142.1</ele>
        <time>2012-04-08T07:22:25Z</time>
      </trkpt>
      <trkpt lat="46.99511" lon="-0.60502">
        <ele>142.1</ele>
        <time>2012-04-08T07:22:26Z</time>
      </trkpt>
      <trkpt lat="46.99517" lon="-0.60506">
        <ele>142.1</ele>
        <time>2012-04-08T07:22:27Z</time>
      </trkpt>
      <trkpt lat="46.99522" lon="-0.60509">
        <ele>142.1</ele>
        <time>2012-04-08T07:22:28Z</time>
      </trkpt>
      <trkpt lat="46.99527" lon="-0.60512">
        <ele>142.1</ele>
        <time>2012-04-08T07:22:29Z</time>
      </trkpt>
      <trkpt lat="46.99533" lon="-0.60516">
        <ele>142</ele>
        <time>2012-04-08T07:22:30Z</time>
      </trkpt>
      <trkpt lat="46.99538" lon="-0.60519">
        <ele>141.8</ele>
        <time>2012-04-08T07:22:31Z</time>
      </trkpt>
      <trkpt lat="46.99543" lon="-0.60522">
        <ele>141.8</ele>
        <time>2012-04-08T07:22:32Z</time>
      </trkpt>
      <trkpt lat="46.99548" lon="-0.60525">
        <ele>141.8</ele>
        <time>2012-04-08T07:22:33Z</time>
      </trkpt>
      <trkpt lat="46.99554" lon="-0.60528">
        <ele>142</ele>
        <time>2012-04-08T07:22:34Z</time>
      </trkpt>
      <trkpt lat="46.99559" lon="-0.60531">
        <ele>142</ele>
        <time>2012-04-08T07:22:35Z</time>
      </trkpt>
      <trkpt lat="46.99565" lon="-0.60533">
        <ele>142</ele>
        <time>2012-04-08T07:22:36Z</time>
      </trkpt>
      <trkpt lat="46.9957" lon="-0.60536">
        <ele>142</ele>
        <time>2012-04-08T07:22:37Z</time>
      </trkpt>
      <trkpt lat="46.99575" lon="-0.60538">
        <ele>141.8</ele>
        <time>2012-04-08T07:22:38Z</time>
      </trkpt>
      <trkpt lat="46.99581" lon="-0.60541">
        <ele>141.6</ele>
        <time>2012-04-08T07:22:39Z</time>
      </trkpt>
      <trkpt lat="46.99586" lon="-0.60543">
        <ele>141.6</ele>
        <time>2012-04-08T07:22:40Z</time>
      </trkpt>
      <trkpt lat="46.99592" lon="-0.60546">
        <ele>141.5</ele>
        <time>2012-04-08T07:22:41Z</time>
      </trkpt>
      <trkpt lat="46.99598" lon="-0.60548">
        <ele>141.3</ele>
        <time>2012-04-08T07:22:42Z</time>
      </trkpt>
      <trkpt lat="46.99603" lon="-0.6055">
        <ele>141.3</ele>
        <time>2012-04-08T07:22:43Z</time>
      </trkpt>
      <trkpt lat="46.99609" lon="-0.60552">
        <ele>141.3</ele>
        <time>2012-04-08T07:22:44Z</time>
      </trkpt>
      <trkpt lat="46.99615" lon="-0.60554">
        <ele>141.3</ele>
        <time>2012-04-08T07:22:45Z</time>
      </trkpt>
      <trkpt lat="46.9962" lon="-0.60556">
        <ele>141.3</ele>
        <time>2012-04-08T07:22:46Z</time>
      </trkpt>
      <trkpt lat="46.99626" lon="-0.60558">
        <ele>141.1</ele>
        <time>2012-04-08T07:22:47Z</time>
      </trkpt>
      <trkpt lat="46.99632" lon="-0.6056">
        <ele>141.1</ele>
        <time>2012-04-08T07:22:48Z</time>
      </trkpt>
      <trkpt lat="46.99638" lon="-0.60562">
        <ele>141.3</ele>
        <time>2012-04-08T07:22:49Z</time>
      </trkpt>
      <trkpt lat="46.99643" lon="-0.60565">
        <ele>141.1</ele>
        <time>2012-04-08T07:22:50Z</time>
      </trkpt>
      <trkpt lat="46.99648" lon="-0.60567">
        <ele>141.1</ele>
        <time>2012-04-08T07:22:51Z</time>
      </trkpt>
      <trkpt lat="46.99654" lon="-0.60568">
        <ele>141.1</ele>
        <time>2012-04-08T07:22:52Z</time>
      </trkpt>
      <trkpt lat="46.99659" lon="-0.6057">
        <ele>141.1</ele>
        <time>2012-04-08T07:22:53Z</time>
      </trkpt>
      <trkpt lat="46.99664" lon="-0.60574">
        <ele>141.1</ele>
        <time>2012-04-08T07:22:54Z</time>
      </trkpt>
      <trkpt lat="46.99667" lon="-0.6058">
        <ele>141.1</ele>
        <time>2012-04-08T07:22:55Z</time>
      </trkpt>
      <trkpt lat="46.9967" lon="-0.60586">
        <ele>141.1</ele>
        <time>2012-04-08T07:22:56Z</time>
      </trkpt>
      <trkpt lat="46.99672" lon="-0.60593">
        <ele>141.1</ele>
        <time>2012-04-08T07:22:57Z</time>
      </trkpt>
      <trkpt lat="46.99674" lon="-0.60601">
        <ele>141.1</ele>
        <time>2012-04-08T07:22:58Z</time>
      </trkpt>
      <trkpt lat="46.99675" lon="-0.60608">
        <ele>141.1</ele>
        <time>2012-04-08T07:22:59Z</time>
      </trkpt>
      <trkpt lat="46.99676" lon="-0.60616">
        <ele>141.1</ele>
        <time>2012-04-08T07:23:00Z</time>
      </trkpt>
      <trkpt lat="46.99678" lon="-0.60624">
        <ele>141.3</ele>
        <time>2012-04-08T07:23:01Z</time>
      </trkpt>
      <trkpt lat="46.99679" lon="-0.60632">
        <ele>141.3</ele>
        <time>2012-04-08T07:23:02Z</time>
      </trkpt>
      <trkpt lat="46.9968" lon="-0.6064">
        <ele>141.1</ele>
        <time>2012-04-08T07:23:03Z</time>
      </trkpt>
      <trkpt lat="46.99681" lon="-0.60648">
        <ele>141.1</ele>
        <time>2012-04-08T07:23:04Z</time>
      </trkpt>
      <trkpt lat="46.99681" lon="-0.60657">
        <ele>141.1</ele>
        <time>2012-04-08T07:23:05Z</time>
      </trkpt>
      <trkpt lat="46.99682" lon="-0.60665">
        <ele>141.1</ele>
        <time>2012-04-08T07:23:06Z</time>
      </trkpt>
      <trkpt lat="46.99683" lon="-0.60673">
        <ele>141.1</ele>
        <time>2012-04-08T07:23:07Z</time>
      </trkpt>
      <trkpt lat="46.99684" lon="-0.60682">
        <ele>141</ele>
        <time>2012-04-08T07:23:08Z</time>
      </trkpt>
      <trkpt lat="46.99684" lon="-0.6069">
        <ele>140.8</ele>
        <time>2012-04-08T07:23:09Z</time>
      </trkpt>
      <trkpt lat="46.99685" lon="-0.60699">
        <ele>140.8</ele>
        <time>2012-04-08T07:23:10Z</time>
      </trkpt>
      <trkpt lat="46.99686" lon="-0.60707">
        <ele>140.8</ele>
        <time>2012-04-08T07:23:11Z</time>
      </trkpt>
      <trkpt lat="46.99686" lon="-0.60716">
        <ele>140.6</ele>
        <time>2012-04-08T07:23:12Z</time>
      </trkpt>
      <trkpt lat="46.99687" lon="-0.60724">
        <ele>140.8</ele>
        <time>2012-04-08T07:23:13Z</time>
      </trkpt>
      <trkpt lat="46.99688" lon="-0.60733">
        <ele>140.8</ele>
        <time>2012-04-08T07:23:14Z</time>
      </trkpt>
      <trkpt lat="46.99689" lon="-0.60741">
        <ele>140.8</ele>
        <time>2012-04-08T07:23:15Z</time>
      </trkpt>
      <trkpt lat="46.99689" lon="-0.6075">
        <ele>140.8</ele>
        <time>2012-04-08T07:23:16Z</time>
      </trkpt>
      <trkpt lat="46.9969" lon="-0.60759">
        <ele>140.6</ele>
        <time>2012-04-08T07:23:17Z</time>
      </trkpt>
      <trkpt lat="46.99691" lon="-0.60768">
        <ele>140.6</ele>
        <time>2012-04-08T07:23:18Z</time>
      </trkpt>
      <trkpt lat="46.99692" lon="-0.60776">
        <ele>140.6</ele>
        <time>2012-04-08T07:23:19Z</time>
      </trkpt>
      <trkpt lat="46.99692" lon="-0.60784">
        <ele>140.6</ele>
        <time>2012-04-08T07:23:20Z</time>
      </trkpt>
      <trkpt lat="46.99693" lon="-0.60792">
        <ele>140.6</ele>
        <time>2012-04-08T07:23:21Z</time>
      </trkpt>
      <trkpt lat="46.99694" lon="-0.608">
        <ele>140.6</ele>
        <time>2012-04-08T07:23:22Z</time>
      </trkpt>
      <trkpt lat="46.99695" lon="-0.60809">
        <ele>140.6</ele>
        <time>2012-04-08T07:23:23Z</time>
      </trkpt>
      <trkpt lat="46.99695" lon="-0.60817">
        <ele>140.6</ele>
        <time>2012-04-08T07:23:24Z</time>
      </trkpt>
      <trkpt lat="46.99696" lon="-0.60825">
        <ele>140.6</ele>
        <time>2012-04-08T07:23:25Z</time>
      </trkpt>
      <trkpt lat="46.99697" lon="-0.60832">
        <ele>140.8</ele>
        <time>2012-04-08T07:23:26Z</time>
      </trkpt>
      <trkpt lat="46.99697" lon="-0.6084">
        <ele>140.8</ele>
        <time>2012-04-08T07:23:27Z</time>
      </trkpt>
      <trkpt lat="46.99698" lon="-0.60848">
        <ele>140.8</ele>
        <time>2012-04-08T07:23:28Z</time>
      </trkpt>
      <trkpt lat="46.99699" lon="-0.60855">
        <ele>140.8</ele>
        <time>2012-04-08T07:23:29Z</time>
      </trkpt>
      <trkpt lat="46.99699" lon="-0.60863">
        <ele>140.8</ele>
        <time>2012-04-08T07:23:30Z</time>
      </trkpt>
      <trkpt lat="46.99699" lon="-0.6087">
        <ele>140.8</ele>
        <time>2012-04-08T07:23:31Z</time>
      </trkpt>
      <trkpt lat="46.99699" lon="-0.60877">
        <ele>140.8</ele>
        <time>2012-04-08T07:23:32Z</time>
      </trkpt>
      <trkpt lat="46.99699" lon="-0.60884">
        <ele>140.8</ele>
        <time>2012-04-08T07:23:33Z</time>
      </trkpt>
      <trkpt lat="46.997" lon="-0.60891">
        <ele>140.8</ele>
        <time>2012-04-08T07:23:34Z</time>
      </trkpt>
      <trkpt lat="46.99701" lon="-0.60898">
        <ele>141</ele>
        <time>2012-04-08T07:23:35Z</time>
      </trkpt>
      <trkpt lat="46.99703" lon="-0.60904">
        <ele>141</ele>
        <time>2012-04-08T07:23:36Z</time>
      </trkpt>
      <trkpt lat="46.99711" lon="-0.60908">
        <ele>140.8</ele>
        <time>2012-04-08T07:23:38Z</time>
      </trkpt>
      <trkpt lat="46.99716" lon="-0.60906">
        <ele>141</ele>
        <time>2012-04-08T07:23:39Z</time>
      </trkpt>
      <trkpt lat="46.99721" lon="-0.60902">
        <ele>141</ele>
        <time>2012-04-08T07:23:40Z</time>
      </trkpt>
      <trkpt lat="46.99725" lon="-0.60898">
        <ele>141.1</ele>
        <time>2012-04-08T07:23:41Z</time>
      </trkpt>
      <trkpt lat="46.9973" lon="-0.60893">
        <ele>141.1</ele>
        <time>2012-04-08T07:23:42Z</time>
      </trkpt>
      <trkpt lat="46.99735" lon="-0.60888">
        <ele>141.1</ele>
        <time>2012-04-08T07:23:43Z</time>
      </trkpt>
      <trkpt lat="46.99739" lon="-0.60883">
        <ele>141.1</ele>
        <time>2012-04-08T07:23:44Z</time>
      </trkpt>
      <trkpt lat="46.99744" lon="-0.60878">
        <ele>141.1</ele>
        <time>2012-04-08T07:23:45Z</time>
      </trkpt>
      <trkpt lat="46.99749" lon="-0.60873">
        <ele>141.1</ele>
        <time>2012-04-08T07:23:46Z</time>
      </trkpt>
      <trkpt lat="46.99753" lon="-0.60868">
        <ele>141.1</ele>
        <time>2012-04-08T07:23:47Z</time>
      </trkpt>
      <trkpt lat="46.99758" lon="-0.60864">
        <ele>141.3</ele>
        <time>2012-04-08T07:23:48Z</time>
      </trkpt>
      <trkpt lat="46.99762" lon="-0.60859">
        <ele>141.3</ele>
        <time>2012-04-08T07:23:49Z</time>
      </trkpt>
      <trkpt lat="46.99767" lon="-0.60855">
        <ele>141.3</ele>
        <time>2012-04-08T07:23:50Z</time>
      </trkpt>
      <trkpt lat="46.99771" lon="-0.60851">
        <ele>141.3</ele>
        <time>2012-04-08T07:23:51Z</time>
      </trkpt>
      <trkpt lat="46.99776" lon="-0.60846">
        <ele>141.5</ele>
        <time>2012-04-08T07:23:52Z</time>
      </trkpt>
      <trkpt lat="46.9978" lon="-0.60842">
        <ele>141.5</ele>
        <time>2012-04-08T07:23:53Z</time>
      </trkpt>
      <trkpt lat="46.99783" lon="-0.60838">
        <ele>141.6</ele>
        <time>2012-04-08T07:23:54Z</time>
      </trkpt>
      <trkpt lat="46.99787" lon="-0.60833">
        <ele>141.6</ele>
        <time>2012-04-08T07:23:55Z</time>
      </trkpt>
      <trkpt lat="46.99791" lon="-0.60829">
        <ele>141.6</ele>
        <time>2012-04-08T07:23:56Z</time>
      </trkpt>
      <trkpt lat="46.99795" lon="-0.60825">
        <ele>141.6</ele>
        <time>2012-04-08T07:23:57Z</time>
      </trkpt>
      <trkpt lat="46.99799" lon="-0.60821">
        <ele>141.6</ele>
        <time>2012-04-08T07:23:58Z</time>
      </trkpt>
      <trkpt lat="46.99802" lon="-0.60816">
        <ele>141.6</ele>
        <time>2012-04-08T07:23:59Z</time>
      </trkpt>
      <trkpt lat="46.99806" lon="-0.60812">
        <ele>141.6</ele>
        <time>2012-04-08T07:24:00Z</time>
      </trkpt>
      <trkpt lat="46.9981" lon="-0.60808">
        <ele>141.6</ele>
        <time>2012-04-08T07:24:01Z</time>
      </trkpt>
      <trkpt lat="46.99814" lon="-0.60804">
        <ele>141.6</ele>
        <time>2012-04-08T07:24:02Z</time>
      </trkpt>
      <trkpt lat="46.99818" lon="-0.60799">
        <ele>141.6</ele>
        <time>2012-04-08T07:24:03Z</time>
      </trkpt>
      <trkpt lat="46.99821" lon="-0.60795">
        <ele>141.6</ele>
        <time>2012-04-08T07:24:04Z</time>
      </trkpt>
      <trkpt lat="46.99825" lon="-0.60791">
        <ele>141.6</ele>
        <time>2012-04-08T07:24:05Z</time>
      </trkpt>
      <trkpt lat="46.99829" lon="-0.60786">
        <ele>141.6</ele>
        <time>2012-04-08T07:24:06Z</time>
      </trkpt>
      <trkpt lat="46.99835" lon="-0.60779">
        <ele>141.6</ele>
        <time>2012-04-08T07:24:08Z</time>
      </trkpt>
      <trkpt lat="46.99842" lon="-0.60771">
        <ele>141.8</ele>
        <time>2012-04-08T07:24:10Z</time>
      </trkpt>
      <trkpt lat="46.99849" lon="-0.60764">
        <ele>141.8</ele>
        <time>2012-04-08T07:24:12Z</time>
      </trkpt>
      <trkpt lat="46.99856" lon="-0.60757">
        <ele>142</ele>
        <time>2012-04-08T07:24:14Z</time>
      </trkpt>
      <trkpt lat="46.99864" lon="-0.60751">
        <ele>142.1</ele>
        <time>2012-04-08T07:24:16Z</time>
      </trkpt>
      <trkpt lat="46.99868" lon="-0.60748">
        <ele>142.1</ele>
        <time>2012-04-08T07:24:17Z</time>
      </trkpt>
      <trkpt lat="46.99873" lon="-0.60747">
        <ele>142.1</ele>
        <time>2012-04-08T07:24:18Z</time>
      </trkpt>
      <trkpt lat="46.99878" lon="-0.60747">
        <ele>142.1</ele>
        <time>2012-04-08T07:24:19Z</time>
      </trkpt>
      <trkpt lat="46.99882" lon="-0.60746">
        <ele>142.1</ele>
        <time>2012-04-08T07:24:20Z</time>
      </trkpt>
      <trkpt lat="46.99887" lon="-0.60747">
        <ele>142.1</ele>
        <time>2012-04-08T07:24:21Z</time>
      </trkpt>
      <trkpt lat="46.99892" lon="-0.60747">
        <ele>142.1</ele>
        <time>2012-04-08T07:24:22Z</time>
      </trkpt>
      <trkpt lat="46.99896" lon="-0.60747">
        <ele>142.1</ele>
        <time>2012-04-08T07:24:23Z</time>
      </trkpt>
      <trkpt lat="46.99901" lon="-0.60746">
        <ele>142.1</ele>
        <time>2012-04-08T07:24:24Z</time>
      </trkpt>
      <trkpt lat="46.99905" lon="-0.60745">
        <ele>142.1</ele>
        <time>2012-04-08T07:24:25Z</time>
      </trkpt>
      <trkpt lat="46.9991" lon="-0.60744">
        <ele>142.3</ele>
        <time>2012-04-08T07:24:26Z</time>
      </trkpt>
      <trkpt lat="46.99914" lon="-0.60743">
        <ele>142.3</ele>
        <time>2012-04-08T07:24:27Z</time>
      </trkpt>
      <trkpt lat="46.99923" lon="-0.60739">
        <ele>142.3</ele>
        <time>2012-04-08T07:24:29Z</time>
      </trkpt>
      <trkpt lat="46.99931" lon="-0.60735">
        <ele>142.3</ele>
        <time>2012-04-08T07:24:31Z</time>
      </trkpt>
      <trkpt lat="46.9994" lon="-0.60731">
        <ele>142.5</ele>
        <time>2012-04-08T07:24:33Z</time>
      </trkpt>
      <trkpt lat="46.99948" lon="-0.60726">
        <ele>142.6</ele>
        <time>2012-04-08T07:24:35Z</time>
      </trkpt>
      <trkpt lat="46.99957" lon="-0.60722">
        <ele>142.6</ele>
        <time>2012-04-08T07:24:37Z</time>
      </trkpt>
      <trkpt lat="46.99961" lon="-0.6072">
        <ele>142.6</ele>
        <time>2012-04-08T07:24:38Z</time>
      </trkpt>
      <trkpt lat="46.99965" lon="-0.60717">
        <ele>142.6</ele>
        <time>2012-04-08T07:24:39Z</time>
      </trkpt>
      <trkpt lat="46.9997" lon="-0.60715">
        <ele>142.6</ele>
        <time>2012-04-08T07:24:40Z</time>
      </trkpt>
      <trkpt lat="46.99974" lon="-0.60713">
        <ele>142.6</ele>
        <time>2012-04-08T07:24:41Z</time>
      </trkpt>
      <trkpt lat="46.99978" lon="-0.60711">
        <ele>142.6</ele>
        <time>2012-04-08T07:24:42Z</time>
      </trkpt>
      <trkpt lat="46.99983" lon="-0.60709">
        <ele>142.6</ele>
        <time>2012-04-08T07:24:43Z</time>
      </trkpt>
      <trkpt lat="46.99988" lon="-0.60707">
        <ele>142.6</ele>
        <time>2012-04-08T07:24:44Z</time>
      </trkpt>
      <trkpt lat="46.99993" lon="-0.60706">
        <ele>142.6</ele>
        <time>2012-04-08T07:24:45Z</time>
      </trkpt>
      <trkpt lat="46.99998" lon="-0.60706">
        <ele>142.6</ele>
        <time>2012-04-08T07:24:46Z</time>
      </trkpt>
      <trkpt lat="47.00003" lon="-0.60707">
        <ele>142.6</ele>
        <time>2012-04-08T07:24:47Z</time>
      </trkpt>
      <trkpt lat="47.00008" lon="-0.60708">
        <ele>142.6</ele>
        <time>2012-04-08T07:24:48Z</time>
      </trkpt>
      <trkpt lat="47.00013" lon="-0.60709">
        <ele>142.6</ele>
        <time>2012-04-08T07:24:49Z</time>
      </trkpt>
      <trkpt lat="47.00017" lon="-0.60711">
        <ele>142.6</ele>
        <time>2012-04-08T07:24:50Z</time>
      </trkpt>
      <trkpt lat="47.00022" lon="-0.60713">
        <ele>142.6</ele>
        <time>2012-04-08T07:24:51Z</time>
      </trkpt>
      <trkpt lat="47.00027" lon="-0.60715">
        <ele>142.6</ele>
        <time>2012-04-08T07:24:52Z</time>
      </trkpt>
      <trkpt lat="47.00032" lon="-0.60716">
        <ele>142.6</ele>
        <time>2012-04-08T07:24:53Z</time>
      </trkpt>
      <trkpt lat="47.00037" lon="-0.60718">
        <ele>142.6</ele>
        <time>2012-04-08T07:24:54Z</time>
      </trkpt>
      <trkpt lat="47.00042" lon="-0.60719">
        <ele>142.6</ele>
        <time>2012-04-08T07:24:55Z</time>
      </trkpt>
      <trkpt lat="47.00047" lon="-0.6072">
        <ele>142.8</ele>
        <time>2012-04-08T07:24:56Z</time>
      </trkpt>
      <trkpt lat="47.00051" lon="-0.6072">
        <ele>142.8</ele>
        <time>2012-04-08T07:24:57Z</time>
      </trkpt>
      <trkpt lat="47.00056" lon="-0.60721">
        <ele>143</ele>
        <time>2012-04-08T07:24:58Z</time>
      </trkpt>
      <trkpt lat="47.0006" lon="-0.60721">
        <ele>143.1</ele>
        <time>2012-04-08T07:24:59Z</time>
      </trkpt>
      <trkpt lat="47.00065" lon="-0.60721">
        <ele>143.1</ele>
        <time>2012-04-08T07:25:00Z</time>
      </trkpt>
      <trkpt lat="47.0007" lon="-0.60722">
        <ele>143.1</ele>
        <time>2012-04-08T07:25:01Z</time>
      </trkpt>
      <trkpt lat="47.00074" lon="-0.60723">
        <ele>143.1</ele>
        <time>2012-04-08T07:25:02Z</time>
      </trkpt>
      <trkpt lat="47.00079" lon="-0.60724">
        <ele>143.3</ele>
        <time>2012-04-08T07:25:03Z</time>
      </trkpt>
      <trkpt lat="47.00083" lon="-0.60725">
        <ele>143.3</ele>
        <time>2012-04-08T07:25:04Z</time>
      </trkpt>
      <trkpt lat="47.00092" lon="-0.60728">
        <ele>143.3</ele>
        <time>2012-04-08T07:25:06Z</time>
      </trkpt>
      <trkpt lat="47.00096" lon="-0.6073">
        <ele>143.5</ele>
        <time>2012-04-08T07:25:07Z</time>
      </trkpt>
      <trkpt lat="47.00101" lon="-0.60733">
        <ele>143.5</ele>
        <time>2012-04-08T07:25:08Z</time>
      </trkpt>
      <trkpt lat="47.00104" lon="-0.60737">
        <ele>143.5</ele>
        <time>2012-04-08T07:25:09Z</time>
      </trkpt>
      <trkpt lat="47.00108" lon="-0.60741">
        <ele>143.3</ele>
        <time>2012-04-08T07:25:10Z</time>
      </trkpt>
      <trkpt lat="47.00112" lon="-0.60746">
        <ele>143.3</ele>
        <time>2012-04-08T07:25:11Z</time>
      </trkpt>
      <trkpt lat="47.00115" lon="-0.60751">
        <ele>143.5</ele>
        <time>2012-04-08T07:25:12Z</time>
      </trkpt>
      <trkpt lat="47.00119" lon="-0.60756">
        <ele>143.5</ele>
        <time>2012-04-08T07:25:13Z</time>
      </trkpt>
      <trkpt lat="47.00122" lon="-0.60761">
        <ele>143.6</ele>
        <time>2012-04-08T07:25:14Z</time>
      </trkpt>
      <trkpt lat="47.00125" lon="-0.60767">
        <ele>143.6</ele>
        <time>2012-04-08T07:25:15Z</time>
      </trkpt>
      <trkpt lat="47.00128" lon="-0.60772">
        <ele>143.8</ele>
        <time>2012-04-08T07:25:16Z</time>
      </trkpt>
      <trkpt lat="47.00132" lon="-0.60777">
        <ele>143.8</ele>
        <time>2012-04-08T07:25:17Z</time>
      </trkpt>
      <trkpt lat="47.00135" lon="-0.60783">
        <ele>144</ele>
        <time>2012-04-08T07:25:18Z</time>
      </trkpt>
      <trkpt lat="47.00138" lon="-0.60788">
        <ele>144.1</ele>
        <time>2012-04-08T07:25:19Z</time>
      </trkpt>
      <trkpt lat="47.00141" lon="-0.60793">
        <ele>144.3</ele>
        <time>2012-04-08T07:25:20Z</time>
      </trkpt>
      <trkpt lat="47.00144" lon="-0.60798">
        <ele>144.3</ele>
        <time>2012-04-08T07:25:21Z</time>
      </trkpt>
      <trkpt lat="47.00148" lon="-0.60803">
        <ele>144.6</ele>
        <time>2012-04-08T07:25:22Z</time>
      </trkpt>
      <trkpt lat="47.00154" lon="-0.60812">
        <ele>144.8</ele>
        <time>2012-04-08T07:25:24Z</time>
      </trkpt>
      <trkpt lat="47.0016" lon="-0.60821">
        <ele>145</ele>
        <time>2012-04-08T07:25:26Z</time>
      </trkpt>
      <trkpt lat="47.00167" lon="-0.60829">
        <ele>145.1</ele>
        <time>2012-04-08T07:25:28Z</time>
      </trkpt>
      <trkpt lat="47.00174" lon="-0.60836">
        <ele>145.1</ele>
        <time>2012-04-08T07:25:30Z</time>
      </trkpt>
      <trkpt lat="47.00181" lon="-0.6084">
        <ele>145.3</ele>
        <time>2012-04-08T07:25:32Z</time>
      </trkpt>
      <trkpt lat="47.00189" lon="-0.60844">
        <ele>145.6</ele>
        <time>2012-04-08T07:25:34Z</time>
      </trkpt>
      <trkpt lat="47.00198" lon="-0.60847">
        <ele>145.8</ele>
        <time>2012-04-08T07:25:36Z</time>
      </trkpt>
      <trkpt lat="47.00206" lon="-0.6085">
        <ele>146.1</ele>
        <time>2012-04-08T07:25:38Z</time>
      </trkpt>
      <trkpt lat="47.00214" lon="-0.60853">
        <ele>146.3</ele>
        <time>2012-04-08T07:25:40Z</time>
      </trkpt>
      <trkpt lat="47.00222" lon="-0.60856">
        <ele>146.6</ele>
        <time>2012-04-08T07:25:42Z</time>
      </trkpt>
      <trkpt lat="47.0023" lon="-0.60859">
        <ele>147.1</ele>
        <time>2012-04-08T07:25:44Z</time>
      </trkpt>
      <trkpt lat="47.00239" lon="-0.60862">
        <ele>147.5</ele>
        <time>2012-04-08T07:25:46Z</time>
      </trkpt>
      <trkpt lat="47.00247" lon="-0.60866">
        <ele>147.8</ele>
        <time>2012-04-08T07:25:48Z</time>
      </trkpt>
      <trkpt lat="47.00255" lon="-0.60869">
        <ele>148.3</ele>
        <time>2012-04-08T07:25:50Z</time>
      </trkpt>
      <trkpt lat="47.00264" lon="-0.60873">
        <ele>148.8</ele>
        <time>2012-04-08T07:25:52Z</time>
      </trkpt>
      <trkpt lat="47.00268" lon="-0.60875">
        <ele>149.1</ele>
        <time>2012-04-08T07:25:53Z</time>
      </trkpt>
      <trkpt lat="47.0028" lon="-0.60881">
        <ele>149.6</ele>
        <time>2012-04-08T07:25:56Z</time>
      </trkpt>
      <trkpt lat="47.00285" lon="-0.60888">
        <ele>149.8</ele>
        <time>2012-04-08T07:25:58Z</time>
      </trkpt>
      <trkpt lat="47.00286" lon="-0.60901">
        <ele>149.8</ele>
        <time>2012-04-08T07:26:00Z</time>
      </trkpt>
      <trkpt lat="47.00285" lon="-0.60913">
        <ele>150</ele>
        <time>2012-04-08T07:26:02Z</time>
      </trkpt>
      <trkpt lat="47.00284" lon="-0.6092">
        <ele>150.1</ele>
        <time>2012-04-08T07:26:03Z</time>
      </trkpt>
      <trkpt lat="47.00282" lon="-0.60926">
        <ele>150.3</ele>
        <time>2012-04-08T07:26:04Z</time>
      </trkpt>
      <trkpt lat="47.00281" lon="-0.60933">
        <ele>150.3</ele>
        <time>2012-04-08T07:26:05Z</time>
      </trkpt>
      <trkpt lat="47.0028" lon="-0.6094">
        <ele>150.3</ele>
        <time>2012-04-08T07:26:06Z</time>
      </trkpt>
      <trkpt lat="47.00278" lon="-0.60947">
        <ele>150.3</ele>
        <time>2012-04-08T07:26:07Z</time>
      </trkpt>
      <trkpt lat="47.00277" lon="-0.60955">
        <ele>150.5</ele>
        <time>2012-04-08T07:26:08Z</time>
      </trkpt>
      <trkpt lat="47.00276" lon="-0.60963">
        <ele>150.6</ele>
        <time>2012-04-08T07:26:09Z</time>
      </trkpt>
      <trkpt lat="47.00275" lon="-0.6097">
        <ele>150.6</ele>
        <time>2012-04-08T07:26:10Z</time>
      </trkpt>
      <trkpt lat="47.00273" lon="-0.60978">
        <ele>150.6</ele>
        <time>2012-04-08T07:26:11Z</time>
      </trkpt>
      <trkpt lat="47.00272" lon="-0.60986">
        <ele>150.6</ele>
        <time>2012-04-08T07:26:12Z</time>
      </trkpt>
      <trkpt lat="47.00271" lon="-0.60994">
        <ele>150.8</ele>
        <time>2012-04-08T07:26:13Z</time>
      </trkpt>
      <trkpt lat="47.0027" lon="-0.61002">
        <ele>150.8</ele>
        <time>2012-04-08T07:26:14Z</time>
      </trkpt>
      <trkpt lat="47.00269" lon="-0.6101">
        <ele>151</ele>
        <time>2012-04-08T07:26:15Z</time>
      </trkpt>
      <trkpt lat="47.00268" lon="-0.61018">
        <ele>151</ele>
        <time>2012-04-08T07:26:16Z</time>
      </trkpt>
      <trkpt lat="47.00266" lon="-0.61025">
        <ele>151</ele>
        <time>2012-04-08T07:26:17Z</time>
      </trkpt>
      <trkpt lat="47.00265" lon="-0.61033">
        <ele>151.1</ele>
        <time>2012-04-08T07:26:18Z</time>
      </trkpt>
      <trkpt lat="47.00263" lon="-0.61041">
        <ele>151.1</ele>
        <time>2012-04-08T07:26:19Z</time>
      </trkpt>
      <trkpt lat="47.00262" lon="-0.61049">
        <ele>151.1</ele>
        <time>2012-04-08T07:26:20Z</time>
      </trkpt>
      <trkpt lat="47.00261" lon="-0.61057">
        <ele>151.1</ele>
        <time>2012-04-08T07:26:21Z</time>
      </trkpt>
      <trkpt lat="47.0026" lon="-0.61065">
        <ele>151.1</ele>
        <time>2012-04-08T07:26:22Z</time>
      </trkpt>
      <trkpt lat="47.0026" lon="-0.61073">
        <ele>151.3</ele>
        <time>2012-04-08T07:26:23Z</time>
      </trkpt>
      <trkpt lat="47.00259" lon="-0.6108">
        <ele>151.3</ele>
        <time>2012-04-08T07:26:24Z</time>
      </trkpt>
      <trkpt lat="47.00259" lon="-0.61088">
        <ele>151.5</ele>
        <time>2012-04-08T07:26:25Z</time>
      </trkpt>
      <trkpt lat="47.00258" lon="-0.61095">
        <ele>151.6</ele>
        <time>2012-04-08T07:26:26Z</time>
      </trkpt>
      <trkpt lat="47.00257" lon="-0.61102">
        <ele>151.6</ele>
        <time>2012-04-08T07:26:27Z</time>
      </trkpt>
      <trkpt lat="47.00257" lon="-0.61109">
        <ele>151.6</ele>
        <time>2012-04-08T07:26:28Z</time>
      </trkpt>
      <trkpt lat="47.00256" lon="-0.61116">
        <ele>151.6</ele>
        <time>2012-04-08T07:26:29Z</time>
      </trkpt>
      <trkpt lat="47.00255" lon="-0.61124">
        <ele>151.6</ele>
        <time>2012-04-08T07:26:30Z</time>
      </trkpt>
      <trkpt lat="47.00255" lon="-0.61131">
        <ele>151.6</ele>
        <time>2012-04-08T07:26:31Z</time>
      </trkpt>
      <trkpt lat="47.00254" lon="-0.61138">
        <ele>151.8</ele>
        <time>2012-04-08T07:26:32Z</time>
      </trkpt>
      <trkpt lat="47.00253" lon="-0.61146">
        <ele>151.8</ele>
        <time>2012-04-08T07:26:33Z</time>
      </trkpt>
      <trkpt lat="47.00253" lon="-0.61153">
        <ele>151.8</ele>
        <time>2012-04-08T07:26:34Z</time>
      </trkpt>
      <trkpt lat="47.00252" lon="-0.6116">
        <ele>151.8</ele>
        <time>2012-04-08T07:26:35Z</time>
      </trkpt>
      <trkpt lat="47.00251" lon="-0.61167">
        <ele>152</ele>
        <time>2012-04-08T07:26:36Z</time>
      </trkpt>
      <trkpt lat="47.0025" lon="-0.61174">
        <ele>152</ele>
        <time>2012-04-08T07:26:37Z</time>
      </trkpt>
      <trkpt lat="47.00249" lon="-0.61181">
        <ele>152.1</ele>
        <time>2012-04-08T07:26:38Z</time>
      </trkpt>
      <trkpt lat="47.00248" lon="-0.61187">
        <ele>152.1</ele>
        <time>2012-04-08T07:26:39Z</time>
      </trkpt>
      <trkpt lat="47.00246" lon="-0.61194">
        <ele>152.1</ele>
        <time>2012-04-08T07:26:40Z</time>
      </trkpt>
      <trkpt lat="47.00245" lon="-0.61202">
        <ele>152.1</ele>
        <time>2012-04-08T07:26:41Z</time>
      </trkpt>
      <trkpt lat="47.00244" lon="-0.61208">
        <ele>152.1</ele>
        <time>2012-04-08T07:26:42Z</time>
      </trkpt>
      <trkpt lat="47.00243" lon="-0.61215">
        <ele>152.1</ele>
        <time>2012-04-08T07:26:43Z</time>
      </trkpt>
      <trkpt lat="47.00242" lon="-0.61222">
        <ele>152.1</ele>
        <time>2012-04-08T07:26:44Z</time>
      </trkpt>
      <trkpt lat="47.00242" lon="-0.6123">
        <ele>152.1</ele>
        <time>2012-04-08T07:26:45Z</time>
      </trkpt>
      <trkpt lat="47.00241" lon="-0.61237">
        <ele>152.1</ele>
        <time>2012-04-08T07:26:46Z</time>
      </trkpt>
      <trkpt lat="47.00241" lon="-0.61244">
        <ele>152.3</ele>
        <time>2012-04-08T07:26:47Z</time>
      </trkpt>
      <trkpt lat="47.0024" lon="-0.61252">
        <ele>152.3</ele>
        <time>2012-04-08T07:26:48Z</time>
      </trkpt>
      <trkpt lat="47.00239" lon="-0.6126">
        <ele>152.3</ele>
        <time>2012-04-08T07:26:49Z</time>
      </trkpt>
      <trkpt lat="47.00237" lon="-0.61268">
        <ele>152.1</ele>
        <time>2012-04-08T07:26:50Z</time>
      </trkpt>
      <trkpt lat="47.00236" lon="-0.61276">
        <ele>152.1</ele>
        <time>2012-04-08T07:26:51Z</time>
      </trkpt>
      <trkpt lat="47.00234" lon="-0.61284">
        <ele>152.1</ele>
        <time>2012-04-08T07:26:52Z</time>
      </trkpt>
      <trkpt lat="47.00232" lon="-0.61292">
        <ele>152.1</ele>
        <time>2012-04-08T07:26:53Z</time>
      </trkpt>
      <trkpt lat="47.0023" lon="-0.61301">
        <ele>152</ele>
        <time>2012-04-08T07:26:54Z</time>
      </trkpt>
      <trkpt lat="47.00228" lon="-0.61309">
        <ele>152</ele>
        <time>2012-04-08T07:26:55Z</time>
      </trkpt>
      <trkpt lat="47.00226" lon="-0.61317">
        <ele>152</ele>
        <time>2012-04-08T07:26:56Z</time>
      </trkpt>
      <trkpt lat="47.00224" lon="-0.61325">
        <ele>152.1</ele>
        <time>2012-04-08T07:26:57Z</time>
      </trkpt>
      <trkpt lat="47.00221" lon="-0.61334">
        <ele>152.1</ele>
        <time>2012-04-08T07:26:58Z</time>
      </trkpt>
      <trkpt lat="47.00219" lon="-0.61342">
        <ele>152.1</ele>
        <time>2012-04-08T07:26:59Z</time>
      </trkpt>
      <trkpt lat="47.00216" lon="-0.61351">
        <ele>152.1</ele>
        <time>2012-04-08T07:27:00Z</time>
      </trkpt>
      <trkpt lat="47.00214" lon="-0.6136">
        <ele>152.1</ele>
        <time>2012-04-08T07:27:01Z</time>
      </trkpt>
      <trkpt lat="47.00211" lon="-0.61368">
        <ele>152.1</ele>
        <time>2012-04-08T07:27:02Z</time>
      </trkpt>
      <trkpt lat="47.00208" lon="-0.61377">
        <ele>152.1</ele>
        <time>2012-04-08T07:27:03Z</time>
      </trkpt>
      <trkpt lat="47.00205" lon="-0.61386">
        <ele>152.1</ele>
        <time>2012-04-08T07:27:04Z</time>
      </trkpt>
      <trkpt lat="47.00202" lon="-0.61394">
        <ele>152.3</ele>
        <time>2012-04-08T07:27:05Z</time>
      </trkpt>
      <trkpt lat="47.002" lon="-0.61403">
        <ele>152.3</ele>
        <time>2012-04-08T07:27:06Z</time>
      </trkpt>
      <trkpt lat="47.00197" lon="-0.61412">
        <ele>152.3</ele>
        <time>2012-04-08T07:27:07Z</time>
      </trkpt>
      <trkpt lat="47.00194" lon="-0.61421">
        <ele>152.3</ele>
        <time>2012-04-08T07:27:08Z</time>
      </trkpt>
      <trkpt lat="47.00192" lon="-0.6143">
        <ele>152.3</ele>
        <time>2012-04-08T07:27:09Z</time>
      </trkpt>
      <trkpt lat="47.00189" lon="-0.61439">
        <ele>152.3</ele>
        <time>2012-04-08T07:27:10Z</time>
      </trkpt>
      <trkpt lat="47.00186" lon="-0.61447">
        <ele>152.5</ele>
        <time>2012-04-08T07:27:11Z</time>
      </trkpt>
      <trkpt lat="47.00183" lon="-0.61456">
        <ele>152.5</ele>
        <time>2012-04-08T07:27:12Z</time>
      </trkpt>
      <trkpt lat="47.00181" lon="-0.61465">
        <ele>152.6</ele>
        <time>2012-04-08T07:27:13Z</time>
      </trkpt>
      <trkpt lat="47.00179" lon="-0.61473">
        <ele>152.6</ele>
        <time>2012-04-08T07:27:14Z</time>
      </trkpt>
      <trkpt lat="47.00177" lon="-0.61483">
        <ele>152.6</ele>
        <time>2012-04-08T07:27:15Z</time>
      </trkpt>
      <trkpt lat="47.00176" lon="-0.61492">
        <ele>152.6</ele>
        <time>2012-04-08T07:27:16Z</time>
      </trkpt>
      <trkpt lat="47.00174" lon="-0.61501">
        <ele>152.6</ele>
        <time>2012-04-08T07:27:17Z</time>
      </trkpt>
      <trkpt lat="47.00172" lon="-0.6151">
        <ele>152.6</ele>
        <time>2012-04-08T07:27:18Z</time>
      </trkpt>
      <trkpt lat="47.0017" lon="-0.61519">
        <ele>152.6</ele>
        <time>2012-04-08T07:27:19Z</time>
      </trkpt>
      <trkpt lat="47.00166" lon="-0.61526">
        <ele>152.6</ele>
        <time>2012-04-08T07:27:20Z</time>
      </trkpt>
      <trkpt lat="47.00162" lon="-0.61533">
        <ele>152.6</ele>
        <time>2012-04-08T07:27:21Z</time>
      </trkpt>
      <trkpt lat="47.00156" lon="-0.61538">
        <ele>152.6</ele>
        <time>2012-04-08T07:27:22Z</time>
      </trkpt>
      <trkpt lat="47.0015" lon="-0.61542">
        <ele>152.5</ele>
        <time>2012-04-08T07:27:23Z</time>
      </trkpt>
      <trkpt lat="47.00144" lon="-0.61546">
        <ele>152.5</ele>
        <time>2012-04-08T07:27:24Z</time>
      </trkpt>
      <trkpt lat="47.00137" lon="-0.61549">
        <ele>152.5</ele>
        <time>2012-04-08T07:27:25Z</time>
      </trkpt>
      <trkpt lat="47.00131" lon="-0.61552">
        <ele>152.6</ele>
        <time>2012-04-08T07:27:26Z</time>
      </trkpt>
      <trkpt lat="47.00125" lon="-0.61555">
        <ele>152.6</ele>
        <time>2012-04-08T07:27:27Z</time>
      </trkpt>
      <trkpt lat="47.00118" lon="-0.61558">
        <ele>152.6</ele>
        <time>2012-04-08T07:27:28Z</time>
      </trkpt>
      <trkpt lat="47.00113" lon="-0.61562">
        <ele>152.8</ele>
        <time>2012-04-08T07:27:29Z</time>
      </trkpt>
      <trkpt lat="47.00107" lon="-0.61566">
        <ele>152.8</ele>
        <time>2012-04-08T07:27:30Z</time>
      </trkpt>
      <trkpt lat="47.00102" lon="-0.61571">
        <ele>153.1</ele>
        <time>2012-04-08T07:27:31Z</time>
      </trkpt>
      <trkpt lat="47.00096" lon="-0.61576">
        <ele>153.1</ele>
        <time>2012-04-08T07:27:32Z</time>
      </trkpt>
      <trkpt lat="47.00091" lon="-0.61581">
        <ele>153.1</ele>
        <time>2012-04-08T07:27:33Z</time>
      </trkpt>
      <trkpt lat="47.00087" lon="-0.61587">
        <ele>153.3</ele>
        <time>2012-04-08T07:27:34Z</time>
      </trkpt>
      <trkpt lat="47.00082" lon="-0.61592">
        <ele>153.3</ele>
        <time>2012-04-08T07:27:35Z</time>
      </trkpt>
      <trkpt lat="47.00077" lon="-0.61597">
        <ele>153.5</ele>
        <time>2012-04-08T07:27:36Z</time>
      </trkpt>
      <trkpt lat="47.00072" lon="-0.61603">
        <ele>153.6</ele>
        <time>2012-04-08T07:27:37Z</time>
      </trkpt>
      <trkpt lat="47.00067" lon="-0.61609">
        <ele>153.8</ele>
        <time>2012-04-08T07:27:38Z</time>
      </trkpt>
      <trkpt lat="47.00063" lon="-0.61614">
        <ele>153.8</ele>
        <time>2012-04-08T07:27:39Z</time>
      </trkpt>
      <trkpt lat="47.00058" lon="-0.6162">
        <ele>153.8</ele>
        <time>2012-04-08T07:27:40Z</time>
      </trkpt>
      <trkpt lat="47.00053" lon="-0.61625">
        <ele>154</ele>
        <time>2012-04-08T07:27:41Z</time>
      </trkpt>
      <trkpt lat="47.00048" lon="-0.6163">
        <ele>154</ele>
        <time>2012-04-08T07:27:42Z</time>
      </trkpt>
      <trkpt lat="47.00043" lon="-0.61636">
        <ele>154</ele>
        <time>2012-04-08T07:27:43Z</time>
      </trkpt>
      <trkpt lat="47.00038" lon="-0.61641">
        <ele>154</ele>
        <time>2012-04-08T07:27:44Z</time>
      </trkpt>
      <trkpt lat="47.00033" lon="-0.61647">
        <ele>154</ele>
        <time>2012-04-08T07:27:45Z</time>
      </trkpt>
      <trkpt lat="47.00029" lon="-0.61653">
        <ele>154</ele>
        <time>2012-04-08T07:27:46Z</time>
      </trkpt>
      <trkpt lat="47.00024" lon="-0.61659">
        <ele>154.1</ele>
        <time>2012-04-08T07:27:47Z</time>
      </trkpt>
      <trkpt lat="47.0002" lon="-0.61664">
        <ele>154.1</ele>
        <time>2012-04-08T07:27:48Z</time>
      </trkpt>
      <trkpt lat="47.00016" lon="-0.6167">
        <ele>154.1</ele>
        <time>2012-04-08T07:27:49Z</time>
      </trkpt>
      <trkpt lat="47.00012" lon="-0.61675">
        <ele>154.1</ele>
        <time>2012-04-08T07:27:50Z</time>
      </trkpt>
      <trkpt lat="47.00008" lon="-0.61681">
        <ele>154.1</ele>
        <time>2012-04-08T07:27:51Z</time>
      </trkpt>
      <trkpt lat="47.00004" lon="-0.61688">
        <ele>154.1</ele>
        <time>2012-04-08T07:27:52Z</time>
      </trkpt>
      <trkpt lat="47" lon="-0.61695">
        <ele>154.1</ele>
        <time>2012-04-08T07:27:53Z</time>
      </trkpt>
      <trkpt lat="46.99996" lon="-0.61703">
        <ele>154.1</ele>
        <time>2012-04-08T07:27:54Z</time>
      </trkpt>
      <trkpt lat="46.99992" lon="-0.6171">
        <ele>154</ele>
        <time>2012-04-08T07:27:55Z</time>
      </trkpt>
      <trkpt lat="46.99988" lon="-0.61717">
        <ele>154</ele>
        <time>2012-04-08T07:27:56Z</time>
      </trkpt>
      <trkpt lat="46.99984" lon="-0.61724">
        <ele>153.8</ele>
        <time>2012-04-08T07:27:57Z</time>
      </trkpt>
      <trkpt lat="46.9998" lon="-0.6173">
        <ele>153.8</ele>
        <time>2012-04-08T07:27:58Z</time>
      </trkpt>
      <trkpt lat="46.99975" lon="-0.61736">
        <ele>153.8</ele>
        <time>2012-04-08T07:27:59Z</time>
      </trkpt>
      <trkpt lat="46.9997" lon="-0.61742">
        <ele>153.8</ele>
        <time>2012-04-08T07:28:00Z</time>
      </trkpt>
      <trkpt lat="46.99965" lon="-0.61747">
        <ele>153.6</ele>
        <time>2012-04-08T07:28:01Z</time>
      </trkpt>
      <trkpt lat="46.99961" lon="-0.61751">
        <ele>153.6</ele>
        <time>2012-04-08T07:28:02Z</time>
      </trkpt>
      <trkpt lat="46.99956" lon="-0.61756">
        <ele>153.5</ele>
        <time>2012-04-08T07:28:03Z</time>
      </trkpt>
      <trkpt lat="46.99951" lon="-0.61761">
        <ele>153.5</ele>
        <time>2012-04-08T07:28:04Z</time>
      </trkpt>
      <trkpt lat="46.99945" lon="-0.61765">
        <ele>153.3</ele>
        <time>2012-04-08T07:28:05Z</time>
      </trkpt>
      <trkpt lat="46.9994" lon="-0.6177">
        <ele>153.3</ele>
        <time>2012-04-08T07:28:06Z</time>
      </trkpt>
      <trkpt lat="46.99935" lon="-0.61775">
        <ele>153.3</ele>
        <time>2012-04-08T07:28:07Z</time>
      </trkpt>
      <trkpt lat="46.9993" lon="-0.61781">
        <ele>153.3</ele>
        <time>2012-04-08T07:28:08Z</time>
      </trkpt>
      <trkpt lat="46.99925" lon="-0.61787">
        <ele>153.3</ele>
        <time>2012-04-08T07:28:09Z</time>
      </trkpt>
      <trkpt lat="46.99921" lon="-0.61794">
        <ele>153.1</ele>
        <time>2012-04-08T07:28:10Z</time>
      </trkpt>
      <trkpt lat="46.99917" lon="-0.61801">
        <ele>153.1</ele>
        <time>2012-04-08T07:28:11Z</time>
      </trkpt>
      <trkpt lat="46.99913" lon="-0.61808">
        <ele>153.1</ele>
        <time>2012-04-08T07:28:12Z</time>
      </trkpt>
      <trkpt lat="46.9991" lon="-0.61815">
        <ele>153</ele>
        <time>2012-04-08T07:28:13Z</time>
      </trkpt>
      <trkpt lat="46.99906" lon="-0.61821">
        <ele>153</ele>
        <time>2012-04-08T07:28:14Z</time>
      </trkpt>
      <trkpt lat="46.99903" lon="-0.61827">
        <ele>153</ele>
        <time>2012-04-08T07:28:15Z</time>
      </trkpt>
      <trkpt lat="46.99899" lon="-0.61832">
        <ele>153</ele>
        <time>2012-04-08T07:28:16Z</time>
      </trkpt>
      <trkpt lat="46.99895" lon="-0.61838">
        <ele>153</ele>
        <time>2012-04-08T07:28:17Z</time>
      </trkpt>
      <trkpt lat="46.99893" lon="-0.61845">
        <ele>153</ele>
        <time>2012-04-08T07:28:18Z</time>
      </trkpt>
      <trkpt lat="46.99893" lon="-0.61852">
        <ele>153</ele>
        <time>2012-04-08T07:28:19Z</time>
      </trkpt>
      <trkpt lat="46.99892" lon="-0.6186">
        <ele>153</ele>
        <time>2012-04-08T07:28:20Z</time>
      </trkpt>
      <trkpt lat="46.99892" lon="-0.61868">
        <ele>152.8</ele>
        <time>2012-04-08T07:28:21Z</time>
      </trkpt>
      <trkpt lat="46.99893" lon="-0.61877">
        <ele>152.8</ele>
        <time>2012-04-08T07:28:22Z</time>
      </trkpt>
      <trkpt lat="46.99893" lon="-0.61885">
        <ele>152.6</ele>
        <time>2012-04-08T07:28:23Z</time>
      </trkpt>
      <trkpt lat="46.99893" lon="-0.61894">
        <ele>152.6</ele>
        <time>2012-04-08T07:28:24Z</time>
      </trkpt>
      <trkpt lat="46.99894" lon="-0.61902">
        <ele>152.6</ele>
        <time>2012-04-08T07:28:25Z</time>
      </trkpt>
      <trkpt lat="46.99894" lon="-0.6191">
        <ele>152.5</ele>
        <time>2012-04-08T07:28:26Z</time>
      </trkpt>
      <trkpt lat="46.99894" lon="-0.61919">
        <ele>152.3</ele>
        <time>2012-04-08T07:28:27Z</time>
      </trkpt>
      <trkpt lat="46.99894" lon="-0.61927">
        <ele>152.3</ele>
        <time>2012-04-08T07:28:28Z</time>
      </trkpt>
      <trkpt lat="46.99895" lon="-0.61935">
        <ele>152.3</ele>
        <time>2012-04-08T07:28:29Z</time>
      </trkpt>
      <trkpt lat="46.99895" lon="-0.61944">
        <ele>152.3</ele>
        <time>2012-04-08T07:28:30Z</time>
      </trkpt>
      <trkpt lat="46.99895" lon="-0.61952">
        <ele>152.3</ele>
        <time>2012-04-08T07:28:31Z</time>
      </trkpt>
      <trkpt lat="46.99895" lon="-0.6196">
        <ele>152.3</ele>
        <time>2012-04-08T07:28:32Z</time>
      </trkpt>
      <trkpt lat="46.99896" lon="-0.61968">
        <ele>152.3</ele>
        <time>2012-04-08T07:28:33Z</time>
      </trkpt>
      <trkpt lat="46.99896" lon="-0.61977">
        <ele>152.5</ele>
        <time>2012-04-08T07:28:34Z</time>
      </trkpt>
      <trkpt lat="46.99896" lon="-0.61985">
        <ele>152.6</ele>
        <time>2012-04-08T07:28:35Z</time>
      </trkpt>
      <trkpt lat="46.99897" lon="-0.61993">
        <ele>152.6</ele>
        <time>2012-04-08T07:28:36Z</time>
      </trkpt>
      <trkpt lat="46.99897" lon="-0.62">
        <ele>152.8</ele>
        <time>2012-04-08T07:28:37Z</time>
      </trkpt>
      <trkpt lat="46.99897" lon="-0.62008">
        <ele>152.8</ele>
        <time>2012-04-08T07:28:38Z</time>
      </trkpt>
      <trkpt lat="46.99897" lon="-0.62016">
        <ele>153</ele>
        <time>2012-04-08T07:28:39Z</time>
      </trkpt>
      <trkpt lat="46.99898" lon="-0.62023">
        <ele>153</ele>
        <time>2012-04-08T07:28:40Z</time>
      </trkpt>
      <trkpt lat="46.99898" lon="-0.62031">
        <ele>153.1</ele>
        <time>2012-04-08T07:28:41Z</time>
      </trkpt>
      <trkpt lat="46.99898" lon="-0.62039">
        <ele>153.1</ele>
        <time>2012-04-08T07:28:42Z</time>
      </trkpt>
      <trkpt lat="46.99898" lon="-0.62047">
        <ele>153.1</ele>
        <time>2012-04-08T07:28:43Z</time>
      </trkpt>
      <trkpt lat="46.99899" lon="-0.62055">
        <ele>153.3</ele>
        <time>2012-04-08T07:28:44Z</time>
      </trkpt>
      <trkpt lat="46.99899" lon="-0.62063">
        <ele>153.3</ele>
        <time>2012-04-08T07:28:45Z</time>
      </trkpt>
      <trkpt lat="46.99899" lon="-0.62071">
        <ele>153.3</ele>
        <time>2012-04-08T07:28:46Z</time>
      </trkpt>
      <trkpt lat="46.99899" lon="-0.62079">
        <ele>153.5</ele>
        <time>2012-04-08T07:28:47Z</time>
      </trkpt>
      <trkpt lat="46.99899" lon="-0.62088">
        <ele>153.5</ele>
        <time>2012-04-08T07:28:48Z</time>
      </trkpt>
      <trkpt lat="46.99899" lon="-0.62096">
        <ele>153.6</ele>
        <time>2012-04-08T07:28:49Z</time>
      </trkpt>
      <trkpt lat="46.99899" lon="-0.62105">
        <ele>153.6</ele>
        <time>2012-04-08T07:28:50Z</time>
      </trkpt>
      <trkpt lat="46.99899" lon="-0.62113">
        <ele>153.8</ele>
        <time>2012-04-08T07:28:51Z</time>
      </trkpt>
      <trkpt lat="46.99899" lon="-0.62121">
        <ele>153.8</ele>
        <time>2012-04-08T07:28:52Z</time>
      </trkpt>
      <trkpt lat="46.999" lon="-0.62129">
        <ele>153.8</ele>
        <time>2012-04-08T07:28:53Z</time>
      </trkpt>
      <trkpt lat="46.99899" lon="-0.62136">
        <ele>153.8</ele>
        <time>2012-04-08T07:28:54Z</time>
      </trkpt>
      <trkpt lat="46.99899" lon="-0.62144">
        <ele>154</ele>
        <time>2012-04-08T07:28:55Z</time>
      </trkpt>
      <trkpt lat="46.999" lon="-0.62151">
        <ele>154</ele>
        <time>2012-04-08T07:28:56Z</time>
      </trkpt>
      <trkpt lat="46.999" lon="-0.62158">
        <ele>154.1</ele>
        <time>2012-04-08T07:28:57Z</time>
      </trkpt>
      <trkpt lat="46.999" lon="-0.62165">
        <ele>154.1</ele>
        <time>2012-04-08T07:28:58Z</time>
      </trkpt>
      <trkpt lat="46.999" lon="-0.62172">
        <ele>154.1</ele>
        <time>2012-04-08T07:28:59Z</time>
      </trkpt>
      <trkpt lat="46.999" lon="-0.62179">
        <ele>154.3</ele>
        <time>2012-04-08T07:29:00Z</time>
      </trkpt>
      <trkpt lat="46.999" lon="-0.62185">
        <ele>154.3</ele>
        <time>2012-04-08T07:29:01Z</time>
      </trkpt>
      <trkpt lat="46.999" lon="-0.62192">
        <ele>154.3</ele>
        <time>2012-04-08T07:29:02Z</time>
      </trkpt>
      <trkpt lat="46.999" lon="-0.622">
        <ele>154.5</ele>
        <time>2012-04-08T07:29:03Z</time>
      </trkpt>
      <trkpt lat="46.999" lon="-0.62207">
        <ele>154.5</ele>
        <time>2012-04-08T07:29:04Z</time>
      </trkpt>
      <trkpt lat="46.999" lon="-0.62215">
        <ele>154.6</ele>
        <time>2012-04-08T07:29:05Z</time>
      </trkpt>
      <trkpt lat="46.999" lon="-0.62223">
        <ele>154.5</ele>
        <time>2012-04-08T07:29:06Z</time>
      </trkpt>
      <trkpt lat="46.999" lon="-0.62232">
        <ele>154.6</ele>
        <time>2012-04-08T07:29:07Z</time>
      </trkpt>
      <trkpt lat="46.999" lon="-0.6224">
        <ele>154.6</ele>
        <time>2012-04-08T07:29:08Z</time>
      </trkpt>
      <trkpt lat="46.99901" lon="-0.62249">
        <ele>154.6</ele>
        <time>2012-04-08T07:29:09Z</time>
      </trkpt>
      <trkpt lat="46.99901" lon="-0.62257">
        <ele>154.6</ele>
        <time>2012-04-08T07:29:10Z</time>
      </trkpt>
      <trkpt lat="46.99902" lon="-0.62265">
        <ele>154.6</ele>
        <time>2012-04-08T07:29:11Z</time>
      </trkpt>
      <trkpt lat="46.99903" lon="-0.62274">
        <ele>154.6</ele>
        <time>2012-04-08T07:29:12Z</time>
      </trkpt>
      <trkpt lat="46.99904" lon="-0.62282">
        <ele>154.6</ele>
        <time>2012-04-08T07:29:13Z</time>
      </trkpt>
      <trkpt lat="46.99905" lon="-0.62291">
        <ele>154.5</ele>
        <time>2012-04-08T07:29:14Z</time>
      </trkpt>
      <trkpt lat="46.99907" lon="-0.62299">
        <ele>154.5</ele>
        <time>2012-04-08T07:29:15Z</time>
      </trkpt>
      <trkpt lat="46.99908" lon="-0.62307">
        <ele>154.5</ele>
        <time>2012-04-08T07:29:16Z</time>
      </trkpt>
      <trkpt lat="46.9991" lon="-0.62316">
        <ele>154.3</ele>
        <time>2012-04-08T07:29:17Z</time>
      </trkpt>
      <trkpt lat="46.99912" lon="-0.62324">
        <ele>154.3</ele>
        <time>2012-04-08T07:29:18Z</time>
      </trkpt>
      <trkpt lat="46.99914" lon="-0.62333">
        <ele>154.1</ele>
        <time>2012-04-08T07:29:19Z</time>
      </trkpt>
      <trkpt lat="46.99916" lon="-0.62342">
        <ele>154.1</ele>
        <time>2012-04-08T07:29:20Z</time>
      </trkpt>
      <trkpt lat="46.99918" lon="-0.62351">
        <ele>154</ele>
        <time>2012-04-08T07:29:21Z</time>
      </trkpt>
      <trkpt lat="46.9992" lon="-0.6236">
        <ele>154</ele>
        <time>2012-04-08T07:29:22Z</time>
      </trkpt>
      <trkpt lat="46.99922" lon="-0.6237">
        <ele>154</ele>
        <time>2012-04-08T07:29:23Z</time>
      </trkpt>
      <trkpt lat="46.99924" lon="-0.6238">
        <ele>153.8</ele>
        <time>2012-04-08T07:29:24Z</time>
      </trkpt>
      <trkpt lat="46.99925" lon="-0.6239">
        <ele>154</ele>
        <time>2012-04-08T07:29:25Z</time>
      </trkpt>
      <trkpt lat="46.99926" lon="-0.624">
        <ele>154</ele>
        <time>2012-04-08T07:29:26Z</time>
      </trkpt>
      <trkpt lat="46.99925" lon="-0.62411">
        <ele>154.1</ele>
        <time>2012-04-08T07:29:27Z</time>
      </trkpt>
      <trkpt lat="46.99924" lon="-0.62422">
        <ele>154.3</ele>
        <time>2012-04-08T07:29:28Z</time>
      </trkpt>
      <trkpt lat="46.99921" lon="-0.62432">
        <ele>154.3</ele>
        <time>2012-04-08T07:29:29Z</time>
      </trkpt>
      <trkpt lat="46.99918" lon="-0.62442">
        <ele>154.3</ele>
        <time>2012-04-08T07:29:30Z</time>
      </trkpt>
      <trkpt lat="46.99915" lon="-0.62453">
        <ele>154.3</ele>
        <time>2012-04-08T07:29:31Z</time>
      </trkpt>
      <trkpt lat="46.99911" lon="-0.62462">
        <ele>154.5</ele>
        <time>2012-04-08T07:29:32Z</time>
      </trkpt>
      <trkpt lat="46.99908" lon="-0.62471">
        <ele>154.5</ele>
        <time>2012-04-08T07:29:33Z</time>
      </trkpt>
      <trkpt lat="46.99903" lon="-0.6248">
        <ele>154.6</ele>
        <time>2012-04-08T07:29:34Z</time>
      </trkpt>
      <trkpt lat="46.99899" lon="-0.62489">
        <ele>154.6</ele>
        <time>2012-04-08T07:29:35Z</time>
      </trkpt>
      <trkpt lat="46.99895" lon="-0.62498">
        <ele>154.6</ele>
        <time>2012-04-08T07:29:36Z</time>
      </trkpt>
      <trkpt lat="46.99891" lon="-0.62507">
        <ele>154.6</ele>
        <time>2012-04-08T07:29:37Z</time>
      </trkpt>
      <trkpt lat="46.99888" lon="-0.62515">
        <ele>154.5</ele>
        <time>2012-04-08T07:29:38Z</time>
      </trkpt>
      <trkpt lat="46.99884" lon="-0.62524">
        <ele>154.3</ele>
        <time>2012-04-08T07:29:39Z</time>
      </trkpt>
      <trkpt lat="46.99881" lon="-0.62534">
        <ele>154.3</ele>
        <time>2012-04-08T07:29:40Z</time>
      </trkpt>
      <trkpt lat="46.99878" lon="-0.62543">
        <ele>154.3</ele>
        <time>2012-04-08T07:29:41Z</time>
      </trkpt>
      <trkpt lat="46.99876" lon="-0.62553">
        <ele>154.1</ele>
        <time>2012-04-08T07:29:42Z</time>
      </trkpt>
      <trkpt lat="46.99874" lon="-0.62562">
        <ele>154</ele>
        <time>2012-04-08T07:29:43Z</time>
      </trkpt>
      <trkpt lat="46.99871" lon="-0.62572">
        <ele>153.8</ele>
        <time>2012-04-08T07:29:44Z</time>
      </trkpt>
      <trkpt lat="46.99869" lon="-0.62582">
        <ele>153.6</ele>
        <time>2012-04-08T07:29:45Z</time>
      </trkpt>
      <trkpt lat="46.99867" lon="-0.62592">
        <ele>153.5</ele>
        <time>2012-04-08T07:29:46Z</time>
      </trkpt>
      <trkpt lat="46.99865" lon="-0.62602">
        <ele>153.3</ele>
        <time>2012-04-08T07:29:47Z</time>
      </trkpt>
      <trkpt lat="46.99864" lon="-0.62612">
        <ele>153.3</ele>
        <time>2012-04-08T07:29:48Z</time>
      </trkpt>
      <trkpt lat="46.99862" lon="-0.62623">
        <ele>153.1</ele>
        <time>2012-04-08T07:29:49Z</time>
      </trkpt>
      <trkpt lat="46.99861" lon="-0.62634">
        <ele>153.1</ele>
        <time>2012-04-08T07:29:50Z</time>
      </trkpt>
      <trkpt lat="46.9986" lon="-0.62645">
        <ele>153.1</ele>
        <time>2012-04-08T07:29:51Z</time>
      </trkpt>
      <trkpt lat="46.99859" lon="-0.62656">
        <ele>153</ele>
        <time>2012-04-08T07:29:52Z</time>
      </trkpt>
      <trkpt lat="46.99858" lon="-0.62667">
        <ele>152.8</ele>
        <time>2012-04-08T07:29:53Z</time>
      </trkpt>
      <trkpt lat="46.99857" lon="-0.62678">
        <ele>152.8</ele>
        <time>2012-04-08T07:29:54Z</time>
      </trkpt>
      <trkpt lat="46.99857" lon="-0.62688">
        <ele>152.8</ele>
        <time>2012-04-08T07:29:55Z</time>
      </trkpt>
      <trkpt lat="46.99857" lon="-0.62699">
        <ele>152.6</ele>
        <time>2012-04-08T07:29:56Z</time>
      </trkpt>
      <trkpt lat="46.99857" lon="-0.62709">
        <ele>152.6</ele>
        <time>2012-04-08T07:29:57Z</time>
      </trkpt>
      <trkpt lat="46.99858" lon="-0.62719">
        <ele>152.6</ele>
        <time>2012-04-08T07:29:58Z</time>
      </trkpt>
      <trkpt lat="46.99859" lon="-0.62729">
        <ele>152.6</ele>
        <time>2012-04-08T07:29:59Z</time>
      </trkpt>
      <trkpt lat="46.99861" lon="-0.62739">
        <ele>152.6</ele>
        <time>2012-04-08T07:30:00Z</time>
      </trkpt>
      <trkpt lat="46.99862" lon="-0.62748">
        <ele>152.6</ele>
        <time>2012-04-08T07:30:01Z</time>
      </trkpt>
      <trkpt lat="46.99863" lon="-0.62756">
        <ele>152.6</ele>
        <time>2012-04-08T07:30:02Z</time>
      </trkpt>
      <trkpt lat="46.99864" lon="-0.62765">
        <ele>152.6</ele>
        <time>2012-04-08T07:30:03Z</time>
      </trkpt>
      <trkpt lat="46.99865" lon="-0.62774">
        <ele>152.8</ele>
        <time>2012-04-08T07:30:04Z</time>
      </trkpt>
      <trkpt lat="46.99865" lon="-0.62782">
        <ele>152.8</ele>
        <time>2012-04-08T07:30:05Z</time>
      </trkpt>
      <trkpt lat="46.99865" lon="-0.6279">
        <ele>152.8</ele>
        <time>2012-04-08T07:30:06Z</time>
      </trkpt>
      <trkpt lat="46.99865" lon="-0.62799">
        <ele>153</ele>
        <time>2012-04-08T07:30:07Z</time>
      </trkpt>
      <trkpt lat="46.99865" lon="-0.62808">
        <ele>153</ele>
        <time>2012-04-08T07:30:08Z</time>
      </trkpt>
      <trkpt lat="46.99864" lon="-0.62817">
        <ele>153.1</ele>
        <time>2012-04-08T07:30:09Z</time>
      </trkpt>
      <trkpt lat="46.99862" lon="-0.62826">
        <ele>153.1</ele>
        <time>2012-04-08T07:30:10Z</time>
      </trkpt>
      <trkpt lat="46.9986" lon="-0.62835">
        <ele>153.1</ele>
        <time>2012-04-08T07:30:11Z</time>
      </trkpt>
      <trkpt lat="46.99858" lon="-0.62845">
        <ele>153.1</ele>
        <time>2012-04-08T07:30:12Z</time>
      </trkpt>
      <trkpt lat="46.99856" lon="-0.62855">
        <ele>153</ele>
        <time>2012-04-08T07:30:13Z</time>
      </trkpt>
      <trkpt lat="46.99854" lon="-0.62866">
        <ele>152.8</ele>
        <time>2012-04-08T07:30:14Z</time>
      </trkpt>
      <trkpt lat="46.99851" lon="-0.62876">
        <ele>152.8</ele>
        <time>2012-04-08T07:30:15Z</time>
      </trkpt>
      <trkpt lat="46.99849" lon="-0.62886">
        <ele>152.8</ele>
        <time>2012-04-08T07:30:16Z</time>
      </trkpt>
      <trkpt lat="46.99847" lon="-0.62896">
        <ele>152.8</ele>
        <time>2012-04-08T07:30:17Z</time>
      </trkpt>
      <trkpt lat="46.99845" lon="-0.62905">
        <ele>152.6</ele>
        <time>2012-04-08T07:30:18Z</time>
      </trkpt>
      <trkpt lat="46.99842" lon="-0.62914">
        <ele>152.6</ele>
        <time>2012-04-08T07:30:19Z</time>
      </trkpt>
      <trkpt lat="46.9984" lon="-0.62922">
        <ele>152.6</ele>
        <time>2012-04-08T07:30:20Z</time>
      </trkpt>
      <trkpt lat="46.99839" lon="-0.6293">
        <ele>152.6</ele>
        <time>2012-04-08T07:30:21Z</time>
      </trkpt>
      <trkpt lat="46.99837" lon="-0.62937">
        <ele>152.6</ele>
        <time>2012-04-08T07:30:22Z</time>
      </trkpt>
      <trkpt lat="46.99834" lon="-0.62949">
        <ele>152.5</ele>
        <time>2012-04-08T07:30:24Z</time>
      </trkpt>
      <trkpt lat="46.9983" lon="-0.62957">
        <ele>152.3</ele>
        <time>2012-04-08T07:30:26Z</time>
      </trkpt>
      <trkpt lat="46.99822" lon="-0.62955">
        <ele>152.3</ele>
        <time>2012-04-08T07:30:28Z</time>
      </trkpt>
      <trkpt lat="46.99817" lon="-0.62951">
        <ele>152.5</ele>
        <time>2012-04-08T07:30:29Z</time>
      </trkpt>
      <trkpt lat="46.99812" lon="-0.62947">
        <ele>152.5</ele>
        <time>2012-04-08T07:30:30Z</time>
      </trkpt>
      <trkpt lat="46.99807" lon="-0.62942">
        <ele>152.5</ele>
        <time>2012-04-08T07:30:31Z</time>
      </trkpt>
      <trkpt lat="46.99802" lon="-0.62936">
        <ele>152.5</ele>
        <time>2012-04-08T07:30:32Z</time>
      </trkpt>
      <trkpt lat="46.99797" lon="-0.62933">
        <ele>152.5</ele>
        <time>2012-04-08T07:30:33Z</time>
      </trkpt>
      <trkpt lat="46.99791" lon="-0.62932">
        <ele>152.3</ele>
        <time>2012-04-08T07:30:34Z</time>
      </trkpt>
      <trkpt lat="46.99785" lon="-0.62932">
        <ele>152.3</ele>
        <time>2012-04-08T07:30:35Z</time>
      </trkpt>
      <trkpt lat="46.99778" lon="-0.62933">
        <ele>152.1</ele>
        <time>2012-04-08T07:30:36Z</time>
      </trkpt>
      <trkpt lat="46.99772" lon="-0.62934">
        <ele>152.1</ele>
        <time>2012-04-08T07:30:37Z</time>
      </trkpt>
      <trkpt lat="46.99766" lon="-0.62934">
        <ele>152</ele>
        <time>2012-04-08T07:30:38Z</time>
      </trkpt>
      <trkpt lat="46.99759" lon="-0.62934">
        <ele>151.8</ele>
        <time>2012-04-08T07:30:39Z</time>
      </trkpt>
      <trkpt lat="46.99753" lon="-0.62933">
        <ele>151.8</ele>
        <time>2012-04-08T07:30:40Z</time>
      </trkpt>
      <trkpt lat="46.99746" lon="-0.62932">
        <ele>151.8</ele>
        <time>2012-04-08T07:30:41Z</time>
      </trkpt>
      <trkpt lat="46.9974" lon="-0.62931">
        <ele>151.6</ele>
        <time>2012-04-08T07:30:42Z</time>
      </trkpt>
      <trkpt lat="46.99733" lon="-0.6293">
        <ele>151.6</ele>
        <time>2012-04-08T07:30:43Z</time>
      </trkpt>
      <trkpt lat="46.99727" lon="-0.62931">
        <ele>151.6</ele>
        <time>2012-04-08T07:30:44Z</time>
      </trkpt>
      <trkpt lat="46.99721" lon="-0.62932">
        <ele>151.5</ele>
        <time>2012-04-08T07:30:45Z</time>
      </trkpt>
      <trkpt lat="46.99714" lon="-0.62933">
        <ele>151.3</ele>
        <time>2012-04-08T07:30:46Z</time>
      </trkpt>
      <trkpt lat="46.99708" lon="-0.62934">
        <ele>151.3</ele>
        <time>2012-04-08T07:30:47Z</time>
      </trkpt>
      <trkpt lat="46.99702" lon="-0.62935">
        <ele>151.1</ele>
        <time>2012-04-08T07:30:48Z</time>
      </trkpt>
      <trkpt lat="46.99697" lon="-0.62937">
        <ele>151.1</ele>
        <time>2012-04-08T07:30:49Z</time>
      </trkpt>
      <trkpt lat="46.99692" lon="-0.62938">
        <ele>151</ele>
        <time>2012-04-08T07:30:50Z</time>
      </trkpt>
      <trkpt lat="46.99685" lon="-0.62935">
        <ele>150.8</ele>
        <time>2012-04-08T07:30:52Z</time>
      </trkpt>
      <trkpt lat="46.99684" lon="-0.62925">
        <ele>150.8</ele>
        <time>2012-04-08T07:30:54Z</time>
      </trkpt>
      <trkpt lat="46.99684" lon="-0.62919">
        <ele>150.8</ele>
        <time>2012-04-08T07:30:55Z</time>
      </trkpt>
      <trkpt lat="46.99684" lon="-0.62912">
        <ele>150.8</ele>
        <time>2012-04-08T07:30:56Z</time>
      </trkpt>
      <trkpt lat="46.99685" lon="-0.62905">
        <ele>150.8</ele>
        <time>2012-04-08T07:30:57Z</time>
      </trkpt>
      <trkpt lat="46.99685" lon="-0.62898">
        <ele>150.6</ele>
        <time>2012-04-08T07:30:58Z</time>
      </trkpt>
      <trkpt lat="46.99686" lon="-0.6289">
        <ele>150.6</ele>
        <time>2012-04-08T07:30:59Z</time>
      </trkpt>
      <trkpt lat="46.99686" lon="-0.62883">
        <ele>150.5</ele>
        <time>2012-04-08T07:31:00Z</time>
      </trkpt>
      <trkpt lat="46.99687" lon="-0.62876">
        <ele>150.3</ele>
        <time>2012-04-08T07:31:01Z</time>
      </trkpt>
      <trkpt lat="46.99687" lon="-0.62868">
        <ele>150.3</ele>
        <time>2012-04-08T07:31:02Z</time>
      </trkpt>
      <trkpt lat="46.99687" lon="-0.62861">
        <ele>150.1</ele>
        <time>2012-04-08T07:31:03Z</time>
      </trkpt>
      <trkpt lat="46.99688" lon="-0.62854">
        <ele>150.1</ele>
        <time>2012-04-08T07:31:04Z</time>
      </trkpt>
      <trkpt lat="46.99688" lon="-0.62846">
        <ele>150</ele>
        <time>2012-04-08T07:31:05Z</time>
      </trkpt>
      <trkpt lat="46.99688" lon="-0.62839">
        <ele>149.8</ele>
        <time>2012-04-08T07:31:06Z</time>
      </trkpt>
      <trkpt lat="46.99689" lon="-0.62832">
        <ele>149.8</ele>
        <time>2012-04-08T07:31:07Z</time>
      </trkpt>
      <trkpt lat="46.99689" lon="-0.62824">
        <ele>149.8</ele>
        <time>2012-04-08T07:31:08Z</time>
      </trkpt>
      <trkpt lat="46.99689" lon="-0.62817">
        <ele>149.6</ele>
        <time>2012-04-08T07:31:09Z</time>
      </trkpt>
      <trkpt lat="46.9969" lon="-0.6281">
        <ele>149.6</ele>
        <time>2012-04-08T07:31:10Z</time>
      </trkpt>
      <trkpt lat="46.9969" lon="-0.62803">
        <ele>149.6</ele>
        <time>2012-04-08T07:31:11Z</time>
      </trkpt>
      <trkpt lat="46.99691" lon="-0.62796">
        <ele>149.6</ele>
        <time>2012-04-08T07:31:12Z</time>
      </trkpt>
      <trkpt lat="46.99691" lon="-0.62789">
        <ele>149.5</ele>
        <time>2012-04-08T07:31:13Z</time>
      </trkpt>
      <trkpt lat="46.99692" lon="-0.62783">
        <ele>149.5</ele>
        <time>2012-04-08T07:31:14Z</time>
      </trkpt>
      <trkpt lat="46.99692" lon="-0.62776">
        <ele>149.5</ele>
        <time>2012-04-08T07:31:15Z</time>
      </trkpt>
      <trkpt lat="46.99693" lon="-0.62769">
        <ele>149.3</ele>
        <time>2012-04-08T07:31:16Z</time>
      </trkpt>
      <trkpt lat="46.99693" lon="-0.62762">
        <ele>149.1</ele>
        <time>2012-04-08T07:31:17Z</time>
      </trkpt>
      <trkpt lat="46.99693" lon="-0.62755">
        <ele>149.1</ele>
        <time>2012-04-08T07:31:18Z</time>
      </trkpt>
      <trkpt lat="46.99693" lon="-0.62748">
        <ele>148.8</ele>
        <time>2012-04-08T07:31:19Z</time>
      </trkpt>
      <trkpt lat="46.99694" lon="-0.62741">
        <ele>148.6</ele>
        <time>2012-04-08T07:31:20Z</time>
      </trkpt>
      <trkpt lat="46.99694" lon="-0.62734">
        <ele>148.5</ele>
        <time>2012-04-08T07:31:21Z</time>
      </trkpt>
      <trkpt lat="46.99694" lon="-0.62727">
        <ele>148.3</ele>
        <time>2012-04-08T07:31:22Z</time>
      </trkpt>
      <trkpt lat="46.99694" lon="-0.62715">
        <ele>148.1</ele>
        <time>2012-04-08T07:31:24Z</time>
      </trkpt>
      <trkpt lat="46.99687" lon="-0.6271">
        <ele>148.1</ele>
        <time>2012-04-08T07:31:27Z</time>
      </trkpt>
      <trkpt lat="46.99682" lon="-0.62714">
        <ele>148.1</ele>
        <time>2012-04-08T07:31:29Z</time>
      </trkpt>
      <trkpt lat="46.99676" lon="-0.6272">
        <ele>148</ele>
        <time>2012-04-08T07:31:31Z</time>
      </trkpt>
      <trkpt lat="46.9967" lon="-0.62727">
        <ele>147.8</ele>
        <time>2012-04-08T07:31:33Z</time>
      </trkpt>
      <trkpt lat="46.99664" lon="-0.62732">
        <ele>147.3</ele>
        <time>2012-04-08T07:31:35Z</time>
      </trkpt>
      <trkpt lat="46.99658" lon="-0.62738">
        <ele>147.3</ele>
        <time>2012-04-08T07:31:37Z</time>
      </trkpt>
      <trkpt lat="46.99652" lon="-0.62744">
        <ele>147.3</ele>
        <time>2012-04-08T07:31:39Z</time>
      </trkpt>
      <trkpt lat="46.99645" lon="-0.62749">
        <ele>147.1</ele>
        <time>2012-04-08T07:31:41Z</time>
      </trkpt>
      <trkpt lat="46.99639" lon="-0.62754">
        <ele>147.1</ele>
        <time>2012-04-08T07:31:43Z</time>
      </trkpt>
      <trkpt lat="46.99632" lon="-0.62758">
        <ele>147.1</ele>
        <time>2012-04-08T07:31:45Z</time>
      </trkpt>
      <trkpt lat="46.99625" lon="-0.62762">
        <ele>147.1</ele>
        <time>2012-04-08T07:31:47Z</time>
      </trkpt>
      <trkpt lat="46.99618" lon="-0.62765">
        <ele>147.1</ele>
        <time>2012-04-08T07:31:49Z</time>
      </trkpt>
      <trkpt lat="46.99612" lon="-0.62769">
        <ele>147.1</ele>
        <time>2012-04-08T07:31:51Z</time>
      </trkpt>
      <trkpt lat="46.99605" lon="-0.62772">
        <ele>147</ele>
        <time>2012-04-08T07:31:53Z</time>
      </trkpt>
      <trkpt lat="46.99599" lon="-0.62775">
        <ele>147</ele>
        <time>2012-04-08T07:31:55Z</time>
      </trkpt>
      <trkpt lat="46.99593" lon="-0.62779">
        <ele>147</ele>
        <time>2012-04-08T07:31:57Z</time>
      </trkpt>
      <trkpt lat="46.99586" lon="-0.62783">
        <ele>147</ele>
        <time>2012-04-08T07:31:59Z</time>
      </trkpt>
      <trkpt lat="46.99583" lon="-0.62784">
        <ele>147.1</ele>
        <time>2012-04-08T07:32:00Z</time>
      </trkpt>
      <trkpt lat="46.99574" lon="-0.6279">
        <ele>147.1</ele>
        <time>2012-04-08T07:32:03Z</time>
      </trkpt>
      <trkpt lat="46.99567" lon="-0.62794">
        <ele>147.1</ele>
        <time>2012-04-08T07:32:05Z</time>
      </trkpt>
      <trkpt lat="46.99561" lon="-0.62798">
        <ele>147.1</ele>
        <time>2012-04-08T07:32:07Z</time>
      </trkpt>
      <trkpt lat="46.99554" lon="-0.62802">
        <ele>147.3</ele>
        <time>2012-04-08T07:32:09Z</time>
      </trkpt>
      <trkpt lat="46.99548" lon="-0.62805">
        <ele>147.3</ele>
        <time>2012-04-08T07:32:11Z</time>
      </trkpt>
      <trkpt lat="46.99541" lon="-0.62808">
        <ele>147.3</ele>
        <time>2012-04-08T07:32:13Z</time>
      </trkpt>
      <trkpt lat="46.99534" lon="-0.62812">
        <ele>147.3</ele>
        <time>2012-04-08T07:32:15Z</time>
      </trkpt>
      <trkpt lat="46.99527" lon="-0.62816">
        <ele>147.3</ele>
        <time>2012-04-08T07:32:17Z</time>
      </trkpt>
      <trkpt lat="46.99521" lon="-0.62819">
        <ele>147.5</ele>
        <time>2012-04-08T07:32:19Z</time>
      </trkpt>
      <trkpt lat="46.99514" lon="-0.62823">
        <ele>147.5</ele>
        <time>2012-04-08T07:32:21Z</time>
      </trkpt>
      <trkpt lat="46.99507" lon="-0.62826">
        <ele>147.6</ele>
        <time>2012-04-08T07:32:23Z</time>
      </trkpt>
      <trkpt lat="46.99501" lon="-0.62829">
        <ele>147.6</ele>
        <time>2012-04-08T07:32:25Z</time>
      </trkpt>
      <trkpt lat="46.99493" lon="-0.62831">
        <ele>147.6</ele>
        <time>2012-04-08T07:32:47Z</time>
      </trkpt>
      <trkpt lat="46.99486" lon="-0.62828">
        <ele>148.1</ele>
        <time>2012-04-08T07:32:51Z</time>
      </trkpt>
      <trkpt lat="46.99482" lon="-0.62819">
        <ele>148.3</ele>
        <time>2012-04-08T07:32:54Z</time>
      </trkpt>
      <trkpt lat="46.99477" lon="-0.62812">
        <ele>148.5</ele>
        <time>2012-04-08T07:32:57Z</time>
      </trkpt>
      <trkpt lat="46.99469" lon="-0.62806">
        <ele>148.6</ele>
        <time>2012-04-08T07:33:00Z</time>
      </trkpt>
      <trkpt lat="46.99466" lon="-0.62805">
        <ele>148.8</ele>
        <time>2012-04-08T07:33:01Z</time>
      </trkpt>
      <trkpt lat="46.99457" lon="-0.628">
        <ele>148.8</ele>
        <time>2012-04-08T07:33:04Z</time>
      </trkpt>
      <trkpt lat="46.99451" lon="-0.62795">
        <ele>149</ele>
        <time>2012-04-08T07:33:06Z</time>
      </trkpt>
      <trkpt lat="46.99443" lon="-0.6279">
        <ele>149.8</ele>
        <time>2012-04-08T07:33:08Z</time>
      </trkpt>
      <trkpt lat="46.99436" lon="-0.62785">
        <ele>150.3</ele>
        <time>2012-04-08T07:33:10Z</time>
      </trkpt>
      <trkpt lat="46.99429" lon="-0.62779">
        <ele>150.6</ele>
        <time>2012-04-08T07:33:12Z</time>
      </trkpt>
      <trkpt lat="46.99421" lon="-0.62773">
        <ele>151</ele>
        <time>2012-04-08T07:33:14Z</time>
      </trkpt>
      <trkpt lat="46.99417" lon="-0.62769">
        <ele>151</ele>
        <time>2012-04-08T07:33:15Z</time>
      </trkpt>
      <trkpt lat="46.99413" lon="-0.62766">
        <ele>151.1</ele>
        <time>2012-04-08T07:33:16Z</time>
      </trkpt>
      <trkpt lat="46.99408" lon="-0.62763">
        <ele>151.1</ele>
        <time>2012-04-08T07:33:17Z</time>
      </trkpt>
      <trkpt lat="46.99404" lon="-0.62759">
        <ele>151.1</ele>
        <time>2012-04-08T07:33:18Z</time>
      </trkpt>
      <trkpt lat="46.994" lon="-0.62756">
        <ele>151</ele>
        <time>2012-04-08T07:33:19Z</time>
      </trkpt>
      <trkpt lat="46.99396" lon="-0.62752">
        <ele>151</ele>
        <time>2012-04-08T07:33:20Z</time>
      </trkpt>
      <trkpt lat="46.99391" lon="-0.62748">
        <ele>150.8</ele>
        <time>2012-04-08T07:33:21Z</time>
      </trkpt>
      <trkpt lat="46.99387" lon="-0.62743">
        <ele>150.8</ele>
        <time>2012-04-08T07:33:22Z</time>
      </trkpt>
      <trkpt lat="46.99383" lon="-0.62738">
        <ele>150.8</ele>
        <time>2012-04-08T07:33:23Z</time>
      </trkpt>
      <trkpt lat="46.99379" lon="-0.62733">
        <ele>150.8</ele>
        <time>2012-04-08T07:33:24Z</time>
      </trkpt>
      <trkpt lat="46.99375" lon="-0.62728">
        <ele>150.8</ele>
        <time>2012-04-08T07:33:25Z</time>
      </trkpt>
      <trkpt lat="46.99371" lon="-0.62723">
        <ele>150.8</ele>
        <time>2012-04-08T07:33:26Z</time>
      </trkpt>
      <trkpt lat="46.99368" lon="-0.62718">
        <ele>150.8</ele>
        <time>2012-04-08T07:33:27Z</time>
      </trkpt>
      <trkpt lat="46.99364" lon="-0.62712">
        <ele>150.8</ele>
        <time>2012-04-08T07:33:28Z</time>
      </trkpt>
      <trkpt lat="46.99361" lon="-0.62706">
        <ele>150.6</ele>
        <time>2012-04-08T07:33:29Z</time>
      </trkpt>
      <trkpt lat="46.99358" lon="-0.627">
        <ele>150.6</ele>
        <time>2012-04-08T07:33:30Z</time>
      </trkpt>
      <trkpt lat="46.99356" lon="-0.62694">
        <ele>150.6</ele>
        <time>2012-04-08T07:33:31Z</time>
      </trkpt>
      <trkpt lat="46.99354" lon="-0.62687">
        <ele>150.6</ele>
        <time>2012-04-08T07:33:32Z</time>
      </trkpt>
      <trkpt lat="46.99352" lon="-0.62681">
        <ele>150.5</ele>
        <time>2012-04-08T07:33:33Z</time>
      </trkpt>
      <trkpt lat="46.99347" lon="-0.6267">
        <ele>150.3</ele>
        <time>2012-04-08T07:33:35Z</time>
      </trkpt>
      <trkpt lat="46.99343" lon="-0.62662">
        <ele>150.3</ele>
        <time>2012-04-08T07:33:37Z</time>
      </trkpt>
      <trkpt lat="46.9934" lon="-0.62653">
        <ele>150.3</ele>
        <time>2012-04-08T07:33:39Z</time>
      </trkpt>
      <trkpt lat="46.99337" lon="-0.62644">
        <ele>150.3</ele>
        <time>2012-04-08T07:33:41Z</time>
      </trkpt>
      <trkpt lat="46.99334" lon="-0.62632">
        <ele>150.3</ele>
        <time>2012-04-08T07:33:44Z</time>
      </trkpt>
      <trkpt lat="46.99332" lon="-0.62624">
        <ele>150.1</ele>
        <time>2012-04-08T07:33:59Z</time>
      </trkpt>
      <trkpt lat="46.9933" lon="-0.62617">
        <ele>150.1</ele>
        <time>2012-04-08T07:34:04Z</time>
      </trkpt>
      <trkpt lat="46.99327" lon="-0.62611">
        <ele>149.8</ele>
        <time>2012-04-08T07:34:05Z</time>
      </trkpt>
      <trkpt lat="46.99321" lon="-0.62597">
        <ele>149.5</ele>
        <time>2012-04-08T07:34:28Z</time>
      </trkpt>
      <trkpt lat="46.99318" lon="-0.62586">
        <ele>149.3</ele>
        <time>2012-04-08T07:34:40Z</time>
      </trkpt>
      <trkpt lat="46.99313" lon="-0.62575">
        <ele>149.1</ele>
        <time>2012-04-08T07:34:45Z</time>
      </trkpt>
      <trkpt lat="46.9931" lon="-0.62565">
        <ele>149.1</ele>
        <time>2012-04-08T07:34:48Z</time>
      </trkpt>
      <trkpt lat="46.99306" lon="-0.62556">
        <ele>149</ele>
        <time>2012-04-08T07:34:51Z</time>
      </trkpt>
      <trkpt lat="46.99301" lon="-0.62546">
        <ele>148.8</ele>
        <time>2012-04-08T07:34:54Z</time>
      </trkpt>
      <trkpt lat="46.99297" lon="-0.62538">
        <ele>148.8</ele>
        <time>2012-04-08T07:34:57Z</time>
      </trkpt>
      <trkpt lat="46.99292" lon="-0.62529">
        <ele>148.6</ele>
        <time>2012-04-08T07:35:00Z</time>
      </trkpt>
      <trkpt lat="46.99286" lon="-0.6252">
        <ele>148.5</ele>
        <time>2012-04-08T07:35:03Z</time>
      </trkpt>
      <trkpt lat="46.99282" lon="-0.62513">
        <ele>148.3</ele>
        <time>2012-04-08T07:35:05Z</time>
      </trkpt>
      <trkpt lat="46.9928" lon="-0.6251">
        <ele>148.3</ele>
        <time>2012-04-08T07:35:06Z</time>
      </trkpt>
      <trkpt lat="46.9927" lon="-0.62499">
        <ele>148.1</ele>
        <time>2012-04-08T07:35:11Z</time>
      </trkpt>
      <trkpt lat="46.99265" lon="-0.62492">
        <ele>148</ele>
        <time>2012-04-08T07:35:14Z</time>
      </trkpt>
      <trkpt lat="46.9926" lon="-0.62483">
        <ele>147.8</ele>
        <time>2012-04-08T07:35:17Z</time>
      </trkpt>
      <trkpt lat="46.99254" lon="-0.62477">
        <ele>147.6</ele>
        <time>2012-04-08T07:35:20Z</time>
      </trkpt>
      <trkpt lat="46.99249" lon="-0.62472">
        <ele>147.6</ele>
        <time>2012-04-08T07:35:22Z</time>
      </trkpt>
      <trkpt lat="46.99243" lon="-0.62467">
        <ele>147.6</ele>
        <time>2012-04-08T07:35:24Z</time>
      </trkpt>
      <trkpt lat="46.99236" lon="-0.62461">
        <ele>147.3</ele>
        <time>2012-04-08T07:35:26Z</time>
      </trkpt>
      <trkpt lat="46.99229" lon="-0.62455">
        <ele>147.3</ele>
        <time>2012-04-08T07:35:28Z</time>
      </trkpt>
      <trkpt lat="46.99223" lon="-0.62448">
        <ele>147.3</ele>
        <time>2012-04-08T07:35:30Z</time>
      </trkpt>
      <trkpt lat="46.99216" lon="-0.62442">
        <ele>147.1</ele>
        <time>2012-04-08T07:35:32Z</time>
      </trkpt>
      <trkpt lat="46.99209" lon="-0.62435">
        <ele>147.1</ele>
        <time>2012-04-08T07:35:34Z</time>
      </trkpt>
      <trkpt lat="46.99201" lon="-0.62429">
        <ele>147.1</ele>
        <time>2012-04-08T07:35:36Z</time>
      </trkpt>
      <trkpt lat="46.99193" lon="-0.62423">
        <ele>147.3</ele>
        <time>2012-04-08T07:35:38Z</time>
      </trkpt>
      <trkpt lat="46.99185" lon="-0.62418">
        <ele>147.3</ele>
        <time>2012-04-08T07:35:40Z</time>
      </trkpt>
      <trkpt lat="46.99177" lon="-0.62412">
        <ele>147.3</ele>
        <time>2012-04-08T07:35:42Z</time>
      </trkpt>
      <trkpt lat="46.99173" lon="-0.62409">
        <ele>147.3</ele>
        <time>2012-04-08T07:35:43Z</time>
      </trkpt>
      <trkpt lat="46.99168" lon="-0.62406">
        <ele>147.3</ele>
        <time>2012-04-08T07:35:44Z</time>
      </trkpt>
      <trkpt lat="46.99164" lon="-0.62403">
        <ele>147.3</ele>
        <time>2012-04-08T07:35:45Z</time>
      </trkpt>
      <trkpt lat="46.9916" lon="-0.624">
        <ele>147.3</ele>
        <time>2012-04-08T07:35:46Z</time>
      </trkpt>
      <trkpt lat="46.99156" lon="-0.62396">
        <ele>147.3</ele>
        <time>2012-04-08T07:35:47Z</time>
      </trkpt>
      <trkpt lat="46.99152" lon="-0.62392">
        <ele>147.3</ele>
        <time>2012-04-08T07:35:48Z</time>
      </trkpt>
      <trkpt lat="46.99147" lon="-0.62388">
        <ele>147.3</ele>
        <time>2012-04-08T07:35:49Z</time>
      </trkpt>
      <trkpt lat="46.99143" lon="-0.62385">
        <ele>147.3</ele>
        <time>2012-04-08T07:35:50Z</time>
      </trkpt>
      <trkpt lat="46.99139" lon="-0.62381">
        <ele>147.3</ele>
        <time>2012-04-08T07:35:51Z</time>
      </trkpt>
      <trkpt lat="46.99135" lon="-0.62377">
        <ele>147.5</ele>
        <time>2012-04-08T07:35:52Z</time>
      </trkpt>
      <trkpt lat="46.99131" lon="-0.62374">
        <ele>147.5</ele>
        <time>2012-04-08T07:35:53Z</time>
      </trkpt>
      <trkpt lat="46.99127" lon="-0.6237">
        <ele>147.5</ele>
        <time>2012-04-08T07:35:54Z</time>
      </trkpt>
      <trkpt lat="46.99123" lon="-0.62366">
        <ele>147.6</ele>
        <time>2012-04-08T07:35:55Z</time>
      </trkpt>
      <trkpt lat="46.99119" lon="-0.62363">
        <ele>147.6</ele>
        <time>2012-04-08T07:35:56Z</time>
      </trkpt>
      <trkpt lat="46.99115" lon="-0.62359">
        <ele>147.6</ele>
        <time>2012-04-08T07:35:57Z</time>
      </trkpt>
      <trkpt lat="46.99112" lon="-0.62354">
        <ele>147.6</ele>
        <time>2012-04-08T07:35:58Z</time>
      </trkpt>
      <trkpt lat="46.99108" lon="-0.6235">
        <ele>147.6</ele>
        <time>2012-04-08T07:35:59Z</time>
      </trkpt>
      <trkpt lat="46.99104" lon="-0.62346">
        <ele>147.6</ele>
        <time>2012-04-08T07:36:00Z</time>
      </trkpt>
      <trkpt lat="46.991" lon="-0.62342">
        <ele>147.5</ele>
        <time>2012-04-08T07:36:01Z</time>
      </trkpt>
      <trkpt lat="46.99097" lon="-0.62337">
        <ele>147.5</ele>
        <time>2012-04-08T07:36:02Z</time>
      </trkpt>
      <trkpt lat="46.99093" lon="-0.62332">
        <ele>147.5</ele>
        <time>2012-04-08T07:36:03Z</time>
      </trkpt>
      <trkpt lat="46.9909" lon="-0.62327">
        <ele>147.5</ele>
        <time>2012-04-08T07:36:04Z</time>
      </trkpt>
      <trkpt lat="46.99086" lon="-0.62322">
        <ele>147.5</ele>
        <time>2012-04-08T07:36:05Z</time>
      </trkpt>
      <trkpt lat="46.99083" lon="-0.62317">
        <ele>147.6</ele>
        <time>2012-04-08T07:36:06Z</time>
      </trkpt>
      <trkpt lat="46.99079" lon="-0.62312">
        <ele>147.6</ele>
        <time>2012-04-08T07:36:07Z</time>
      </trkpt>
      <trkpt lat="46.99076" lon="-0.62306">
        <ele>147.6</ele>
        <time>2012-04-08T07:36:08Z</time>
      </trkpt>
      <trkpt lat="46.99073" lon="-0.62301">
        <ele>147.6</ele>
        <time>2012-04-08T07:36:09Z</time>
      </trkpt>
      <trkpt lat="46.99069" lon="-0.62295">
        <ele>147.8</ele>
        <time>2012-04-08T07:36:10Z</time>
      </trkpt>
      <trkpt lat="46.99066" lon="-0.62289">
        <ele>147.8</ele>
        <time>2012-04-08T07:36:11Z</time>
      </trkpt>
      <trkpt lat="46.99062" lon="-0.62284">
        <ele>147.8</ele>
        <time>2012-04-08T07:36:12Z</time>
      </trkpt>
      <trkpt lat="46.99059" lon="-0.62279">
        <ele>147.8</ele>
        <time>2012-04-08T07:36:13Z</time>
      </trkpt>
      <trkpt lat="46.99055" lon="-0.62274">
        <ele>147.8</ele>
        <time>2012-04-08T07:36:14Z</time>
      </trkpt>
      <trkpt lat="46.99052" lon="-0.6227">
        <ele>147.8</ele>
        <time>2012-04-08T07:36:15Z</time>
      </trkpt>
      <trkpt lat="46.99048" lon="-0.62265">
        <ele>147.6</ele>
        <time>2012-04-08T07:36:16Z</time>
      </trkpt>
      <trkpt lat="46.99045" lon="-0.62261">
        <ele>147.6</ele>
        <time>2012-04-08T07:36:17Z</time>
      </trkpt>
      <trkpt lat="46.99041" lon="-0.62256">
        <ele>147.6</ele>
        <time>2012-04-08T07:36:18Z</time>
      </trkpt>
      <trkpt lat="46.99038" lon="-0.62252">
        <ele>147.6</ele>
        <time>2012-04-08T07:36:19Z</time>
      </trkpt>
      <trkpt lat="46.99034" lon="-0.62247">
        <ele>147.5</ele>
        <time>2012-04-08T07:36:20Z</time>
      </trkpt>
      <trkpt lat="46.9903" lon="-0.62242">
        <ele>147.5</ele>
        <time>2012-04-08T07:36:21Z</time>
      </trkpt>
      <trkpt lat="46.99027" lon="-0.62238">
        <ele>147.3</ele>
        <time>2012-04-08T07:36:22Z</time>
      </trkpt>
      <trkpt lat="46.99023" lon="-0.62233">
        <ele>147.3</ele>
        <time>2012-04-08T07:36:23Z</time>
      </trkpt>
      <trkpt lat="46.99015" lon="-0.62226">
        <ele>147.1</ele>
        <time>2012-04-08T07:36:25Z</time>
      </trkpt>
      <trkpt lat="46.99008" lon="-0.6222">
        <ele>147.1</ele>
        <time>2012-04-08T07:36:27Z</time>
      </trkpt>
      <trkpt lat="46.99" lon="-0.62215">
        <ele>147.1</ele>
        <time>2012-04-08T07:36:29Z</time>
      </trkpt>
      <trkpt lat="46.98993" lon="-0.62209">
        <ele>147.1</ele>
        <time>2012-04-08T07:36:31Z</time>
      </trkpt>
      <trkpt lat="46.98985" lon="-0.62204">
        <ele>147.1</ele>
        <time>2012-04-08T07:36:33Z</time>
      </trkpt>
      <trkpt lat="46.98977" lon="-0.62199">
        <ele>147.1</ele>
        <time>2012-04-08T07:36:35Z</time>
      </trkpt>
      <trkpt lat="46.98969" lon="-0.62194">
        <ele>147.1</ele>
        <time>2012-04-08T07:36:37Z</time>
      </trkpt>
      <trkpt lat="46.98961" lon="-0.62191">
        <ele>147.1</ele>
        <time>2012-04-08T07:36:39Z</time>
      </trkpt>
      <trkpt lat="46.98953" lon="-0.62188">
        <ele>147.1</ele>
        <time>2012-04-08T07:36:41Z</time>
      </trkpt>
      <trkpt lat="46.98945" lon="-0.62186">
        <ele>147.1</ele>
        <time>2012-04-08T07:36:43Z</time>
      </trkpt>
      <trkpt lat="46.98937" lon="-0.62184">
        <ele>147.1</ele>
        <time>2012-04-08T07:36:45Z</time>
      </trkpt>
      <trkpt lat="46.98929" lon="-0.62182">
        <ele>147.1</ele>
        <time>2012-04-08T07:36:47Z</time>
      </trkpt>
      <trkpt lat="46.98921" lon="-0.62179">
        <ele>147.1</ele>
        <time>2012-04-08T07:36:49Z</time>
      </trkpt>
      <trkpt lat="46.98912" lon="-0.62176">
        <ele>147.3</ele>
        <time>2012-04-08T07:36:51Z</time>
      </trkpt>
      <trkpt lat="46.98908" lon="-0.62175">
        <ele>147.3</ele>
        <time>2012-04-08T07:36:52Z</time>
      </trkpt>
      <trkpt lat="46.98903" lon="-0.62173">
        <ele>147.3</ele>
        <time>2012-04-08T07:36:53Z</time>
      </trkpt>
      <trkpt lat="46.98899" lon="-0.6217">
        <ele>147.3</ele>
        <time>2012-04-08T07:36:54Z</time>
      </trkpt>
      <trkpt lat="46.98894" lon="-0.62168">
        <ele>147.5</ele>
        <time>2012-04-08T07:36:55Z</time>
      </trkpt>
      <trkpt lat="46.9889" lon="-0.62165">
        <ele>147.6</ele>
        <time>2012-04-08T07:36:56Z</time>
      </trkpt>
      <trkpt lat="46.98885" lon="-0.62162">
        <ele>147.6</ele>
        <time>2012-04-08T07:36:57Z</time>
      </trkpt>
      <trkpt lat="46.98881" lon="-0.62159">
        <ele>147.8</ele>
        <time>2012-04-08T07:36:58Z</time>
      </trkpt>
      <trkpt lat="46.98877" lon="-0.62156">
        <ele>147.8</ele>
        <time>2012-04-08T07:36:59Z</time>
      </trkpt>
      <trkpt lat="46.98872" lon="-0.62153">
        <ele>147.8</ele>
        <time>2012-04-08T07:37:00Z</time>
      </trkpt>
      <trkpt lat="46.98868" lon="-0.6215">
        <ele>148</ele>
        <time>2012-04-08T07:37:01Z</time>
      </trkpt>
      <trkpt lat="46.98864" lon="-0.62147">
        <ele>148</ele>
        <time>2012-04-08T07:37:02Z</time>
      </trkpt>
      <trkpt lat="46.98859" lon="-0.62144">
        <ele>148.1</ele>
        <time>2012-04-08T07:37:03Z</time>
      </trkpt>
      <trkpt lat="46.98855" lon="-0.62141">
        <ele>148.1</ele>
        <time>2012-04-08T07:37:04Z</time>
      </trkpt>
      <trkpt lat="46.9885" lon="-0.62138">
        <ele>148.1</ele>
        <time>2012-04-08T07:37:05Z</time>
      </trkpt>
      <trkpt lat="46.98846" lon="-0.62134">
        <ele>148.1</ele>
        <time>2012-04-08T07:37:06Z</time>
      </trkpt>
      <trkpt lat="46.98841" lon="-0.62131">
        <ele>148.1</ele>
        <time>2012-04-08T07:37:07Z</time>
      </trkpt>
      <trkpt lat="46.98836" lon="-0.62127">
        <ele>148.1</ele>
        <time>2012-04-08T07:37:08Z</time>
      </trkpt>
      <trkpt lat="46.98831" lon="-0.62124">
        <ele>148.1</ele>
        <time>2012-04-08T07:37:09Z</time>
      </trkpt>
      <trkpt lat="46.98826" lon="-0.6212">
        <ele>148.1</ele>
        <time>2012-04-08T07:37:10Z</time>
      </trkpt>
      <trkpt lat="46.98821" lon="-0.62117">
        <ele>148.1</ele>
        <time>2012-04-08T07:37:11Z</time>
      </trkpt>
      <trkpt lat="46.98817" lon="-0.62113">
        <ele>148.1</ele>
        <time>2012-04-08T07:37:12Z</time>
      </trkpt>
      <trkpt lat="46.98812" lon="-0.6211">
        <ele>148.1</ele>
        <time>2012-04-08T07:37:13Z</time>
      </trkpt>
      <trkpt lat="46.98807" lon="-0.62107">
        <ele>148.1</ele>
        <time>2012-04-08T07:37:14Z</time>
      </trkpt>
      <trkpt lat="46.98801" lon="-0.62104">
        <ele>148.1</ele>
        <time>2012-04-08T07:37:15Z</time>
      </trkpt>
      <trkpt lat="46.98796" lon="-0.62101">
        <ele>148.1</ele>
        <time>2012-04-08T07:37:16Z</time>
      </trkpt>
      <trkpt lat="46.98791" lon="-0.62098">
        <ele>148.1</ele>
        <time>2012-04-08T07:37:17Z</time>
      </trkpt>
      <trkpt lat="46.98785" lon="-0.62095">
        <ele>148.1</ele>
        <time>2012-04-08T07:37:18Z</time>
      </trkpt>
      <trkpt lat="46.9878" lon="-0.62091">
        <ele>148.1</ele>
        <time>2012-04-08T07:37:19Z</time>
      </trkpt>
      <trkpt lat="46.98775" lon="-0.62088">
        <ele>148.3</ele>
        <time>2012-04-08T07:37:20Z</time>
      </trkpt>
      <trkpt lat="46.98769" lon="-0.62084">
        <ele>148.3</ele>
        <time>2012-04-08T07:37:21Z</time>
      </trkpt>
      <trkpt lat="46.98764" lon="-0.62081">
        <ele>148.3</ele>
        <time>2012-04-08T07:37:22Z</time>
      </trkpt>
      <trkpt lat="46.98759" lon="-0.62078">
        <ele>148.3</ele>
        <time>2012-04-08T07:37:23Z</time>
      </trkpt>
      <trkpt lat="46.98753" lon="-0.62075">
        <ele>148.3</ele>
        <time>2012-04-08T07:37:24Z</time>
      </trkpt>
      <trkpt lat="46.98748" lon="-0.62071">
        <ele>148.3</ele>
        <time>2012-04-08T07:37:25Z</time>
      </trkpt>
      <trkpt lat="46.98742" lon="-0.62068">
        <ele>148.3</ele>
        <time>2012-04-08T07:37:26Z</time>
      </trkpt>
      <trkpt lat="46.98736" lon="-0.62065">
        <ele>148.5</ele>
        <time>2012-04-08T07:37:27Z</time>
      </trkpt>
      <trkpt lat="46.98731" lon="-0.62063">
        <ele>148.5</ele>
        <time>2012-04-08T07:37:28Z</time>
      </trkpt>
      <trkpt lat="46.98725" lon="-0.62061">
        <ele>148.3</ele>
        <time>2012-04-08T07:37:29Z</time>
      </trkpt>
      <trkpt lat="46.98719" lon="-0.6206">
        <ele>148.3</ele>
        <time>2012-04-08T07:37:30Z</time>
      </trkpt>
      <trkpt lat="46.98713" lon="-0.6206">
        <ele>148.3</ele>
        <time>2012-04-08T07:37:31Z</time>
      </trkpt>
      <trkpt lat="46.98706" lon="-0.6206">
        <ele>148.3</ele>
        <time>2012-04-08T07:37:32Z</time>
      </trkpt>
      <trkpt lat="46.987" lon="-0.6206">
        <ele>148.3</ele>
        <time>2012-04-08T07:37:33Z</time>
      </trkpt>
      <trkpt lat="46.98695" lon="-0.62061">
        <ele>148.3</ele>
        <time>2012-04-08T07:37:34Z</time>
      </trkpt>
      <trkpt lat="46.98689" lon="-0.62062">
        <ele>148.1</ele>
        <time>2012-04-08T07:37:35Z</time>
      </trkpt>
      <trkpt lat="46.98683" lon="-0.62064">
        <ele>148.1</ele>
        <time>2012-04-08T07:37:36Z</time>
      </trkpt>
      <trkpt lat="46.98678" lon="-0.62066">
        <ele>148.1</ele>
        <time>2012-04-08T07:37:37Z</time>
      </trkpt>
      <trkpt lat="46.98672" lon="-0.62067">
        <ele>148.1</ele>
        <time>2012-04-08T07:37:38Z</time>
      </trkpt>
      <trkpt lat="46.98667" lon="-0.62069">
        <ele>148.1</ele>
        <time>2012-04-08T07:37:39Z</time>
      </trkpt>
      <trkpt lat="46.98662" lon="-0.6207">
        <ele>148.1</ele>
        <time>2012-04-08T07:37:40Z</time>
      </trkpt>
      <trkpt lat="46.98657" lon="-0.62072">
        <ele>148.1</ele>
        <time>2012-04-08T07:37:41Z</time>
      </trkpt>
      <trkpt lat="46.98652" lon="-0.62074">
        <ele>148.1</ele>
        <time>2012-04-08T07:37:42Z</time>
      </trkpt>
      <trkpt lat="46.98644" lon="-0.62077">
        <ele>148</ele>
        <time>2012-04-08T07:37:44Z</time>
      </trkpt>
      <trkpt lat="46.98636" lon="-0.62079">
        <ele>148</ele>
        <time>2012-04-08T07:37:46Z</time>
      </trkpt>
      <trkpt lat="46.98628" lon="-0.62082">
        <ele>148</ele>
        <time>2012-04-08T07:37:48Z</time>
      </trkpt>
      <trkpt lat="46.98621" lon="-0.62084">
        <ele>148</ele>
        <time>2012-04-08T07:37:50Z</time>
      </trkpt>
      <trkpt lat="46.98615" lon="-0.62086">
        <ele>148</ele>
        <time>2012-04-08T07:37:52Z</time>
      </trkpt>
      <trkpt lat="46.98609" lon="-0.62087">
        <ele>148</ele>
        <time>2012-04-08T07:37:54Z</time>
      </trkpt>
      <trkpt lat="46.98604" lon="-0.62094">
        <ele>148</ele>
        <time>2012-04-08T07:37:56Z</time>
      </trkpt>
      <trkpt lat="46.98604" lon="-0.62105">
        <ele>147.6</ele>
        <time>2012-04-08T07:37:58Z</time>
      </trkpt>
      <trkpt lat="46.98605" lon="-0.62116">
        <ele>147.3</ele>
        <time>2012-04-08T07:38:00Z</time>
      </trkpt>
      <trkpt lat="46.98607" lon="-0.62128">
        <ele>147.1</ele>
        <time>2012-04-08T07:38:02Z</time>
      </trkpt>
      <trkpt lat="46.98608" lon="-0.62134">
        <ele>147.1</ele>
        <time>2012-04-08T07:38:03Z</time>
      </trkpt>
      <trkpt lat="46.98609" lon="-0.62141">
        <ele>147.1</ele>
        <time>2012-04-08T07:38:04Z</time>
      </trkpt>
      <trkpt lat="46.98611" lon="-0.62147">
        <ele>147</ele>
        <time>2012-04-08T07:38:05Z</time>
      </trkpt>
      <trkpt lat="46.98612" lon="-0.62154">
        <ele>147</ele>
        <time>2012-04-08T07:38:06Z</time>
      </trkpt>
      <trkpt lat="46.98613" lon="-0.62161">
        <ele>146.8</ele>
        <time>2012-04-08T07:38:07Z</time>
      </trkpt>
      <trkpt lat="46.98615" lon="-0.62168">
        <ele>146.8</ele>
        <time>2012-04-08T07:38:08Z</time>
      </trkpt>
      <trkpt lat="46.98616" lon="-0.62176">
        <ele>146.8</ele>
        <time>2012-04-08T07:38:09Z</time>
      </trkpt>
      <trkpt lat="46.98617" lon="-0.62183">
        <ele>146.8</ele>
        <time>2012-04-08T07:38:10Z</time>
      </trkpt>
      <trkpt lat="46.98618" lon="-0.6219">
        <ele>146.8</ele>
        <time>2012-04-08T07:38:11Z</time>
      </trkpt>
      <trkpt lat="46.98619" lon="-0.62198">
        <ele>146.8</ele>
        <time>2012-04-08T07:38:12Z</time>
      </trkpt>
      <trkpt lat="46.98621" lon="-0.62206">
        <ele>146.8</ele>
        <time>2012-04-08T07:38:13Z</time>
      </trkpt>
      <trkpt lat="46.98622" lon="-0.62213">
        <ele>147</ele>
        <time>2012-04-08T07:38:14Z</time>
      </trkpt>
      <trkpt lat="46.98623" lon="-0.6222">
        <ele>147</ele>
        <time>2012-04-08T07:38:15Z</time>
      </trkpt>
      <trkpt lat="46.98625" lon="-0.62228">
        <ele>147.1</ele>
        <time>2012-04-08T07:38:16Z</time>
      </trkpt>
      <trkpt lat="46.98626" lon="-0.62235">
        <ele>147.1</ele>
        <time>2012-04-08T07:38:17Z</time>
      </trkpt>
      <trkpt lat="46.98627" lon="-0.62242">
        <ele>147.3</ele>
        <time>2012-04-08T07:38:18Z</time>
      </trkpt>
      <trkpt lat="46.98629" lon="-0.62249">
        <ele>147.3</ele>
        <time>2012-04-08T07:38:19Z</time>
      </trkpt>
      <trkpt lat="46.9863" lon="-0.62256">
        <ele>147.5</ele>
        <time>2012-04-08T07:38:20Z</time>
      </trkpt>
      <trkpt lat="46.98631" lon="-0.62263">
        <ele>147.5</ele>
        <time>2012-04-08T07:38:21Z</time>
      </trkpt>
      <trkpt lat="46.98633" lon="-0.6227">
        <ele>147.5</ele>
        <time>2012-04-08T07:38:22Z</time>
      </trkpt>
      <trkpt lat="46.98634" lon="-0.62277">
        <ele>147.5</ele>
        <time>2012-04-08T07:38:23Z</time>
      </trkpt>
      <trkpt lat="46.98636" lon="-0.62285">
        <ele>147.3</ele>
        <time>2012-04-08T07:38:24Z</time>
      </trkpt>
      <trkpt lat="46.98637" lon="-0.62292">
        <ele>147.3</ele>
        <time>2012-04-08T07:38:25Z</time>
      </trkpt>
      <trkpt lat="46.98638" lon="-0.62299">
        <ele>147.3</ele>
        <time>2012-04-08T07:38:26Z</time>
      </trkpt>
      <trkpt lat="46.9864" lon="-0.62306">
        <ele>147.3</ele>
        <time>2012-04-08T07:38:27Z</time>
      </trkpt>
      <trkpt lat="46.9864" lon="-0.62313">
        <ele>147.3</ele>
        <time>2012-04-08T07:38:28Z</time>
      </trkpt>
      <trkpt lat="46.9864" lon="-0.6232">
        <ele>147.1</ele>
        <time>2012-04-08T07:38:29Z</time>
      </trkpt>
      <trkpt lat="46.9864" lon="-0.62327">
        <ele>147.1</ele>
        <time>2012-04-08T07:38:30Z</time>
      </trkpt>
      <trkpt lat="46.98639" lon="-0.62334">
        <ele>147.1</ele>
        <time>2012-04-08T07:38:31Z</time>
      </trkpt>
      <trkpt lat="46.98638" lon="-0.62342">
        <ele>147</ele>
        <time>2012-04-08T07:38:32Z</time>
      </trkpt>
      <trkpt lat="46.98637" lon="-0.62349">
        <ele>147.1</ele>
        <time>2012-04-08T07:38:33Z</time>
      </trkpt>
      <trkpt lat="46.98636" lon="-0.62357">
        <ele>147.1</ele>
        <time>2012-04-08T07:38:34Z</time>
      </trkpt>
      <trkpt lat="46.98634" lon="-0.62365">
        <ele>147.1</ele>
        <time>2012-04-08T07:38:35Z</time>
      </trkpt>
      <trkpt lat="46.98633" lon="-0.62372">
        <ele>147.1</ele>
        <time>2012-04-08T07:38:36Z</time>
      </trkpt>
      <trkpt lat="46.98631" lon="-0.6238">
        <ele>147.3</ele>
        <time>2012-04-08T07:38:37Z</time>
      </trkpt>
      <trkpt lat="46.98629" lon="-0.62388">
        <ele>147.3</ele>
        <time>2012-04-08T07:38:38Z</time>
      </trkpt>
      <trkpt lat="46.98627" lon="-0.62395">
        <ele>147.5</ele>
        <time>2012-04-08T07:38:39Z</time>
      </trkpt>
      <trkpt lat="46.98625" lon="-0.62403">
        <ele>147.6</ele>
        <time>2012-04-08T07:38:40Z</time>
      </trkpt>
      <trkpt lat="46.98623" lon="-0.62411">
        <ele>147.6</ele>
        <time>2012-04-08T07:38:41Z</time>
      </trkpt>
      <trkpt lat="46.9862" lon="-0.62418">
        <ele>147.6</ele>
        <time>2012-04-08T07:38:42Z</time>
      </trkpt>
      <trkpt lat="46.98618" lon="-0.62425">
        <ele>147.8</ele>
        <time>2012-04-08T07:38:43Z</time>
      </trkpt>
      <trkpt lat="46.98616" lon="-0.62433">
        <ele>147.8</ele>
        <time>2012-04-08T07:38:44Z</time>
      </trkpt>
      <trkpt lat="46.98613" lon="-0.62441">
        <ele>148</ele>
        <time>2012-04-08T07:38:45Z</time>
      </trkpt>
      <trkpt lat="46.9861" lon="-0.62448">
        <ele>148</ele>
        <time>2012-04-08T07:38:46Z</time>
      </trkpt>
      <trkpt lat="46.98607" lon="-0.62455">
        <ele>148.1</ele>
        <time>2012-04-08T07:38:47Z</time>
      </trkpt>
      <trkpt lat="46.98604" lon="-0.62462">
        <ele>148.1</ele>
        <time>2012-04-08T07:38:48Z</time>
      </trkpt>
      <trkpt lat="46.98601" lon="-0.62468">
        <ele>148.1</ele>
        <time>2012-04-08T07:38:49Z</time>
      </trkpt>
      <trkpt lat="46.98598" lon="-0.62476">
        <ele>148.1</ele>
        <time>2012-04-08T07:38:50Z</time>
      </trkpt>
      <trkpt lat="46.98596" lon="-0.62483">
        <ele>148.1</ele>
        <time>2012-04-08T07:38:51Z</time>
      </trkpt>
      <trkpt lat="46.98593" lon="-0.6249">
        <ele>148.1</ele>
        <time>2012-04-08T07:38:52Z</time>
      </trkpt>
      <trkpt lat="46.98591" lon="-0.62497">
        <ele>148.1</ele>
        <time>2012-04-08T07:38:53Z</time>
      </trkpt>
      <trkpt lat="46.98589" lon="-0.62504">
        <ele>148.1</ele>
        <time>2012-04-08T07:38:54Z</time>
      </trkpt>
      <trkpt lat="46.98588" lon="-0.62511">
        <ele>148.1</ele>
        <time>2012-04-08T07:38:55Z</time>
      </trkpt>
      <trkpt lat="46.98586" lon="-0.62518">
        <ele>148.1</ele>
        <time>2012-04-08T07:38:56Z</time>
      </trkpt>
      <trkpt lat="46.98584" lon="-0.62525">
        <ele>148.1</ele>
        <time>2012-04-08T07:38:57Z</time>
      </trkpt>
      <trkpt lat="46.98583" lon="-0.62533">
        <ele>148.3</ele>
        <time>2012-04-08T07:38:58Z</time>
      </trkpt>
      <trkpt lat="46.98581" lon="-0.6254">
        <ele>148.3</ele>
        <time>2012-04-08T07:38:59Z</time>
      </trkpt>
      <trkpt lat="46.9858" lon="-0.62547">
        <ele>148.3</ele>
        <time>2012-04-08T07:39:00Z</time>
      </trkpt>
      <trkpt lat="46.98579" lon="-0.62554">
        <ele>148.1</ele>
        <time>2012-04-08T07:39:01Z</time>
      </trkpt>
      <trkpt lat="46.98577" lon="-0.62566">
        <ele>148.1</ele>
        <time>2012-04-08T07:39:03Z</time>
      </trkpt>
      <trkpt lat="46.98576" lon="-0.62572">
        <ele>147.8</ele>
        <time>2012-04-08T07:39:04Z</time>
      </trkpt>
      <trkpt lat="46.98575" lon="-0.62579">
        <ele>147.8</ele>
        <time>2012-04-08T07:39:05Z</time>
      </trkpt>
      <trkpt lat="46.98574" lon="-0.62586">
        <ele>147.6</ele>
        <time>2012-04-08T07:39:06Z</time>
      </trkpt>
      <trkpt lat="46.98573" lon="-0.62593">
        <ele>147.3</ele>
        <time>2012-04-08T07:39:07Z</time>
      </trkpt>
      <trkpt lat="46.98572" lon="-0.62599">
        <ele>147.1</ele>
        <time>2012-04-08T07:39:08Z</time>
      </trkpt>
      <trkpt lat="46.9857" lon="-0.62606">
        <ele>147</ele>
        <time>2012-04-08T07:39:09Z</time>
      </trkpt>
      <trkpt lat="46.98569" lon="-0.62613">
        <ele>146.8</ele>
        <time>2012-04-08T07:39:10Z</time>
      </trkpt>
      <trkpt lat="46.98567" lon="-0.62625">
        <ele>146.6</ele>
        <time>2012-04-08T07:39:12Z</time>
      </trkpt>
      <trkpt lat="46.98565" lon="-0.62638">
        <ele>146.5</ele>
        <time>2012-04-08T07:39:14Z</time>
      </trkpt>
      <trkpt lat="46.98563" lon="-0.6265">
        <ele>146.5</ele>
        <time>2012-04-08T07:39:16Z</time>
      </trkpt>
      <trkpt lat="46.98562" lon="-0.62663">
        <ele>146.6</ele>
        <time>2012-04-08T07:39:18Z</time>
      </trkpt>
      <trkpt lat="46.9856" lon="-0.62669">
        <ele>146.6</ele>
        <time>2012-04-08T07:39:19Z</time>
      </trkpt>
      <trkpt lat="46.98559" lon="-0.62676">
        <ele>146.6</ele>
        <time>2012-04-08T07:39:20Z</time>
      </trkpt>
      <trkpt lat="46.98557" lon="-0.62682">
        <ele>146.8</ele>
        <time>2012-04-08T07:39:21Z</time>
      </trkpt>
      <trkpt lat="46.98556" lon="-0.62688">
        <ele>146.8</ele>
        <time>2012-04-08T07:39:22Z</time>
      </trkpt>
      <trkpt lat="46.98554" lon="-0.62694">
        <ele>146.8</ele>
        <time>2012-04-08T07:39:23Z</time>
      </trkpt>
      <trkpt lat="46.98551" lon="-0.62699">
        <ele>147</ele>
        <time>2012-04-08T07:39:24Z</time>
      </trkpt>
      <trkpt lat="46.98548" lon="-0.62705">
        <ele>147.3</ele>
        <time>2012-04-08T07:39:25Z</time>
      </trkpt>
      <trkpt lat="46.98545" lon="-0.6271">
        <ele>147.6</ele>
        <time>2012-04-08T07:39:26Z</time>
      </trkpt>
      <trkpt lat="46.98541" lon="-0.62716">
        <ele>148</ele>
        <time>2012-04-08T07:39:27Z</time>
      </trkpt>
      <trkpt lat="46.98538" lon="-0.62721">
        <ele>148.5</ele>
        <time>2012-04-08T07:39:28Z</time>
      </trkpt>
      <trkpt lat="46.98534" lon="-0.62727">
        <ele>148.8</ele>
        <time>2012-04-08T07:39:29Z</time>
      </trkpt>
      <trkpt lat="46.9853" lon="-0.62732">
        <ele>149.3</ele>
        <time>2012-04-08T07:39:30Z</time>
      </trkpt>
      <trkpt lat="46.98527" lon="-0.62739">
        <ele>149.8</ele>
        <time>2012-04-08T07:39:31Z</time>
      </trkpt>
      <trkpt lat="46.98525" lon="-0.62746">
        <ele>150.3</ele>
        <time>2012-04-08T07:39:32Z</time>
      </trkpt>
      <trkpt lat="46.98523" lon="-0.62753">
        <ele>150.6</ele>
        <time>2012-04-08T07:39:33Z</time>
      </trkpt>
      <trkpt lat="46.98523" lon="-0.62761">
        <ele>151</ele>
        <time>2012-04-08T07:39:34Z</time>
      </trkpt>
      <trkpt lat="46.98523" lon="-0.62769">
        <ele>151.1</ele>
        <time>2012-04-08T07:39:35Z</time>
      </trkpt>
      <trkpt lat="46.98524" lon="-0.62776">
        <ele>151.3</ele>
        <time>2012-04-08T07:39:36Z</time>
      </trkpt>
      <trkpt lat="46.98524" lon="-0.62784">
        <ele>151.6</ele>
        <time>2012-04-08T07:39:37Z</time>
      </trkpt>
      <trkpt lat="46.98525" lon="-0.6279">
        <ele>151.8</ele>
        <time>2012-04-08T07:39:38Z</time>
      </trkpt>
      <trkpt lat="46.98526" lon="-0.62797">
        <ele>151.8</ele>
        <time>2012-04-08T07:39:39Z</time>
      </trkpt>
      <trkpt lat="46.98526" lon="-0.62804">
        <ele>152</ele>
        <time>2012-04-08T07:39:40Z</time>
      </trkpt>
      <trkpt lat="46.98525" lon="-0.6281">
        <ele>152.1</ele>
        <time>2012-04-08T07:39:41Z</time>
      </trkpt>
      <trkpt lat="46.98523" lon="-0.62816">
        <ele>152.1</ele>
        <time>2012-04-08T07:39:42Z</time>
      </trkpt>
      <trkpt lat="46.9852" lon="-0.62828">
        <ele>152.5</ele>
        <time>2012-04-08T07:39:44Z</time>
      </trkpt>
      <trkpt lat="46.98515" lon="-0.62838">
        <ele>152.8</ele>
        <time>2012-04-08T07:39:46Z</time>
      </trkpt>
      <trkpt lat="46.98509" lon="-0.62846">
        <ele>153.1</ele>
        <time>2012-04-08T07:39:48Z</time>
      </trkpt>
      <trkpt lat="46.98503" lon="-0.62855">
        <ele>153.3</ele>
        <time>2012-04-08T07:39:50Z</time>
      </trkpt>
      <trkpt lat="46.98497" lon="-0.62863">
        <ele>153.6</ele>
        <time>2012-04-08T07:39:52Z</time>
      </trkpt>
      <trkpt lat="46.98491" lon="-0.62872">
        <ele>153.6</ele>
        <time>2012-04-08T07:39:54Z</time>
      </trkpt>
      <trkpt lat="46.98485" lon="-0.62879">
        <ele>153.6</ele>
        <time>2012-04-08T07:39:56Z</time>
      </trkpt>
      <trkpt lat="46.98479" lon="-0.62889">
        <ele>153.6</ele>
        <time>2012-04-08T07:39:59Z</time>
      </trkpt>
      <trkpt lat="46.98476" lon="-0.629">
        <ele>153.8</ele>
        <time>2012-04-08T07:40:03Z</time>
      </trkpt>
      <trkpt lat="46.98476" lon="-0.62911">
        <ele>153.8</ele>
        <time>2012-04-08T07:40:07Z</time>
      </trkpt>
      <trkpt lat="46.98477" lon="-0.62923">
        <ele>153.8</ele>
        <time>2012-04-08T07:40:11Z</time>
      </trkpt>
      <trkpt lat="46.98478" lon="-0.62927">
        <ele>153.8</ele>
        <time>2012-04-08T07:40:12Z</time>
      </trkpt>
      <trkpt lat="46.98478" lon="-0.62945">
        <ele>153.8</ele>
        <time>2012-04-08T07:40:17Z</time>
      </trkpt>
      <trkpt lat="46.98477" lon="-0.62957">
        <ele>153.8</ele>
        <time>2012-04-08T07:40:20Z</time>
      </trkpt>
      <trkpt lat="46.98476" lon="-0.62969">
        <ele>154</ele>
        <time>2012-04-08T07:40:23Z</time>
      </trkpt>
      <trkpt lat="46.98474" lon="-0.62979">
        <ele>154.1</ele>
        <time>2012-04-08T07:40:26Z</time>
      </trkpt>
      <trkpt lat="46.98473" lon="-0.62988">
        <ele>154.1</ele>
        <time>2012-04-08T07:40:29Z</time>
      </trkpt>
      <trkpt lat="46.98471" lon="-0.62998">
        <ele>154.3</ele>
        <time>2012-04-08T07:40:32Z</time>
      </trkpt>
      <trkpt lat="46.98469" lon="-0.63008">
        <ele>154.3</ele>
        <time>2012-04-08T07:40:35Z</time>
      </trkpt>
      <trkpt lat="46.98469" lon="-0.63019">
        <ele>154.6</ele>
        <time>2012-04-08T07:40:38Z</time>
      </trkpt>
      <trkpt lat="46.98472" lon="-0.63029">
        <ele>154.6</ele>
        <time>2012-04-08T07:40:41Z</time>
      </trkpt>
      <trkpt lat="46.98475" lon="-0.63038">
        <ele>155</ele>
        <time>2012-04-08T07:40:44Z</time>
      </trkpt>
      <trkpt lat="46.98478" lon="-0.6305">
        <ele>155.1</ele>
        <time>2012-04-08T07:40:47Z</time>
      </trkpt>
      <trkpt lat="46.9848" lon="-0.63062">
        <ele>155.5</ele>
        <time>2012-04-08T07:40:50Z</time>
      </trkpt>
      <trkpt lat="46.98481" lon="-0.63074">
        <ele>155.6</ele>
        <time>2012-04-08T07:40:53Z</time>
      </trkpt>
      <trkpt lat="46.98483" lon="-0.63086">
        <ele>155.8</ele>
        <time>2012-04-08T07:40:56Z</time>
      </trkpt>
      <trkpt lat="46.98484" lon="-0.63098">
        <ele>156.1</ele>
        <time>2012-04-08T07:40:59Z</time>
      </trkpt>
      <trkpt lat="46.98485" lon="-0.63109">
        <ele>156.3</ele>
        <time>2012-04-08T07:41:02Z</time>
      </trkpt>
      <trkpt lat="46.98482" lon="-0.6312">
        <ele>156.5</ele>
        <time>2012-04-08T07:41:05Z</time>
      </trkpt>
      <trkpt lat="46.98477" lon="-0.63129">
        <ele>156.6</ele>
        <time>2012-04-08T07:41:08Z</time>
      </trkpt>
      <trkpt lat="46.98472" lon="-0.63135">
        <ele>156.8</ele>
        <time>2012-04-08T07:41:10Z</time>
      </trkpt>
      <trkpt lat="46.98467" lon="-0.63141">
        <ele>157</ele>
        <time>2012-04-08T07:41:12Z</time>
      </trkpt>
      <trkpt lat="46.98465" lon="-0.63144">
        <ele>157</ele>
        <time>2012-04-08T07:41:13Z</time>
      </trkpt>
      <trkpt lat="46.98456" lon="-0.63152">
        <ele>157.1</ele>
        <time>2012-04-08T07:41:16Z</time>
      </trkpt>
      <trkpt lat="46.98451" lon="-0.63158">
        <ele>157.3</ele>
        <time>2012-04-08T07:41:18Z</time>
      </trkpt>
      <trkpt lat="46.98445" lon="-0.63163">
        <ele>157.3</ele>
        <time>2012-04-08T07:41:20Z</time>
      </trkpt>
      <trkpt lat="46.9844" lon="-0.63169">
        <ele>157.5</ele>
        <time>2012-04-08T07:41:22Z</time>
      </trkpt>
      <trkpt lat="46.98434" lon="-0.63174">
        <ele>157.6</ele>
        <time>2012-04-08T07:41:24Z</time>
      </trkpt>
      <trkpt lat="46.98429" lon="-0.6318">
        <ele>157.6</ele>
        <time>2012-04-08T07:41:26Z</time>
      </trkpt>
      <trkpt lat="46.98423" lon="-0.63185">
        <ele>157.8</ele>
        <time>2012-04-08T07:41:28Z</time>
      </trkpt>
      <trkpt lat="46.98418" lon="-0.63191">
        <ele>157.8</ele>
        <time>2012-04-08T07:41:30Z</time>
      </trkpt>
      <trkpt lat="46.98411" lon="-0.63199">
        <ele>158.1</ele>
        <time>2012-04-08T07:41:33Z</time>
      </trkpt>
      <trkpt lat="46.98407" lon="-0.63205">
        <ele>158.1</ele>
        <time>2012-04-08T07:41:35Z</time>
      </trkpt>
      <trkpt lat="46.98402" lon="-0.63211">
        <ele>158.1</ele>
        <time>2012-04-08T07:41:37Z</time>
      </trkpt>
      <trkpt lat="46.98398" lon="-0.63218">
        <ele>158.3</ele>
        <time>2012-04-08T07:41:39Z</time>
      </trkpt>
      <trkpt lat="46.98394" lon="-0.63225">
        <ele>158.5</ele>
        <time>2012-04-08T07:41:41Z</time>
      </trkpt>
      <trkpt lat="46.98389" lon="-0.63236">
        <ele>158.6</ele>
        <time>2012-04-08T07:41:44Z</time>
      </trkpt>
      <trkpt lat="46.98386" lon="-0.63248">
        <ele>158.8</ele>
        <time>2012-04-08T07:41:47Z</time>
      </trkpt>
      <trkpt lat="46.98384" lon="-0.63256">
        <ele>158.8</ele>
        <time>2012-04-08T07:41:49Z</time>
      </trkpt>
      <trkpt lat="46.98382" lon="-0.63265">
        <ele>159.1</ele>
        <time>2012-04-08T07:41:51Z</time>
      </trkpt>
      <trkpt lat="46.98381" lon="-0.63275">
        <ele>159.1</ele>
        <time>2012-04-08T07:41:53Z</time>
      </trkpt>
      <trkpt lat="46.98379" lon="-0.63285">
        <ele>159.3</ele>
        <time>2012-04-08T07:41:55Z</time>
      </trkpt>
      <trkpt lat="46.98378" lon="-0.63295">
        <ele>159.6</ele>
        <time>2012-04-08T07:41:57Z</time>
      </trkpt>
      <trkpt lat="46.98377" lon="-0.63305">
        <ele>159.6</ele>
        <time>2012-04-08T07:41:59Z</time>
      </trkpt>
      <trkpt lat="46.98375" lon="-0.63314">
        <ele>159.8</ele>
        <time>2012-04-08T07:42:01Z</time>
      </trkpt>
      <trkpt lat="46.98374" lon="-0.63324">
        <ele>160.1</ele>
        <time>2012-04-08T07:42:03Z</time>
      </trkpt>
      <trkpt lat="46.98372" lon="-0.63334">
        <ele>160.1</ele>
        <time>2012-04-08T07:42:05Z</time>
      </trkpt>
      <trkpt lat="46.9837" lon="-0.63345">
        <ele>160.3</ele>
        <time>2012-04-08T07:42:07Z</time>
      </trkpt>
      <trkpt lat="46.98369" lon="-0.63355">
        <ele>160.6</ele>
        <time>2012-04-08T07:42:09Z</time>
      </trkpt>
      <trkpt lat="46.98368" lon="-0.63366">
        <ele>160.8</ele>
        <time>2012-04-08T07:42:12Z</time>
      </trkpt>
      <trkpt lat="46.98367" lon="-0.63379">
        <ele>161.8</ele>
        <time>2012-04-08T07:44:24Z</time>
      </trkpt>
      <trkpt lat="46.98369" lon="-0.63381">
        <ele>161.8</ele>
        <time>2012-04-08T07:44:25Z</time>
      </trkpt>
      <trkpt lat="46.98381" lon="-0.63395">
        <ele>162</ele>
        <time>2012-04-08T07:44:32Z</time>
      </trkpt>
      <trkpt lat="46.98386" lon="-0.63406">
        <ele>162</ele>
        <time>2012-04-08T07:44:36Z</time>
      </trkpt>
      <trkpt lat="46.98389" lon="-0.63415">
        <ele>162.1</ele>
        <time>2012-04-08T07:44:39Z</time>
      </trkpt>
      <trkpt lat="46.98392" lon="-0.63425">
        <ele>162.1</ele>
        <time>2012-04-08T07:44:42Z</time>
      </trkpt>
      <trkpt lat="46.98395" lon="-0.63436">
        <ele>162.1</ele>
        <time>2012-04-08T07:44:45Z</time>
      </trkpt>
      <trkpt lat="46.98398" lon="-0.63445">
        <ele>162.1</ele>
        <time>2012-04-08T07:44:47Z</time>
      </trkpt>
      <trkpt lat="46.984" lon="-0.63455">
        <ele>162.1</ele>
        <time>2012-04-08T07:44:49Z</time>
      </trkpt>
      <trkpt lat="46.98403" lon="-0.63465">
        <ele>162.1</ele>
        <time>2012-04-08T07:44:51Z</time>
      </trkpt>
      <trkpt lat="46.98407" lon="-0.63475">
        <ele>162.1</ele>
        <time>2012-04-08T07:44:53Z</time>
      </trkpt>
      <trkpt lat="46.98411" lon="-0.63485">
        <ele>162.3</ele>
        <time>2012-04-08T07:44:55Z</time>
      </trkpt>
      <trkpt lat="46.98417" lon="-0.63494">
        <ele>162.5</ele>
        <time>2012-04-08T07:44:57Z</time>
      </trkpt>
      <trkpt lat="46.98423" lon="-0.63502">
        <ele>162.6</ele>
        <time>2012-04-08T07:44:59Z</time>
      </trkpt>
      <trkpt lat="46.98431" lon="-0.63509">
        <ele>162.6</ele>
        <time>2012-04-08T07:45:01Z</time>
      </trkpt>
      <trkpt lat="46.98438" lon="-0.63516">
        <ele>162.6</ele>
        <time>2012-04-08T07:45:03Z</time>
      </trkpt>
      <trkpt lat="46.98446" lon="-0.63522">
        <ele>162.6</ele>
        <time>2012-04-08T07:45:05Z</time>
      </trkpt>
      <trkpt lat="46.9845" lon="-0.63525">
        <ele>162.6</ele>
        <time>2012-04-08T07:45:06Z</time>
      </trkpt>
      <trkpt lat="46.98455" lon="-0.63528">
        <ele>162.6</ele>
        <time>2012-04-08T07:45:07Z</time>
      </trkpt>
      <trkpt lat="46.98459" lon="-0.63531">
        <ele>162.6</ele>
        <time>2012-04-08T07:45:08Z</time>
      </trkpt>
      <trkpt lat="46.98463" lon="-0.63534">
        <ele>162.5</ele>
        <time>2012-04-08T07:45:09Z</time>
      </trkpt>
      <trkpt lat="46.98467" lon="-0.63537">
        <ele>162.5</ele>
        <time>2012-04-08T07:45:10Z</time>
      </trkpt>
      <trkpt lat="46.98472" lon="-0.63541">
        <ele>162.5</ele>
        <time>2012-04-08T07:45:11Z</time>
      </trkpt>
      <trkpt lat="46.98476" lon="-0.63544">
        <ele>162.5</ele>
        <time>2012-04-08T07:45:12Z</time>
      </trkpt>
      <trkpt lat="46.98481" lon="-0.63547">
        <ele>162.5</ele>
        <time>2012-04-08T07:45:13Z</time>
      </trkpt>
      <trkpt lat="46.98485" lon="-0.63551">
        <ele>162.5</ele>
        <time>2012-04-08T07:45:14Z</time>
      </trkpt>
      <trkpt lat="46.9849" lon="-0.63554">
        <ele>162.5</ele>
        <time>2012-04-08T07:45:15Z</time>
      </trkpt>
      <trkpt lat="46.98495" lon="-0.63558">
        <ele>162.5</ele>
        <time>2012-04-08T07:45:16Z</time>
      </trkpt>
      <trkpt lat="46.98499" lon="-0.63561">
        <ele>162.3</ele>
        <time>2012-04-08T07:45:17Z</time>
      </trkpt>
      <trkpt lat="46.98504" lon="-0.63564">
        <ele>162.3</ele>
        <time>2012-04-08T07:45:18Z</time>
      </trkpt>
      <trkpt lat="46.98508" lon="-0.63568">
        <ele>162.3</ele>
        <time>2012-04-08T07:45:19Z</time>
      </trkpt>
      <trkpt lat="46.98513" lon="-0.63571">
        <ele>162.1</ele>
        <time>2012-04-08T07:45:20Z</time>
      </trkpt>
      <trkpt lat="46.98517" lon="-0.63574">
        <ele>162.1</ele>
        <time>2012-04-08T07:45:21Z</time>
      </trkpt>
      <trkpt lat="46.98522" lon="-0.63578">
        <ele>162.1</ele>
        <time>2012-04-08T07:45:22Z</time>
      </trkpt>
      <trkpt lat="46.98526" lon="-0.63581">
        <ele>162</ele>
        <time>2012-04-08T07:45:23Z</time>
      </trkpt>
      <trkpt lat="46.98534" lon="-0.63587">
        <ele>161.8</ele>
        <time>2012-04-08T07:45:25Z</time>
      </trkpt>
      <trkpt lat="46.98536" lon="-0.63591">
        <ele>161.8</ele>
        <time>2012-04-08T07:45:26Z</time>
      </trkpt>
      <trkpt lat="46.98526" lon="-0.63599">
        <ele>161.8</ele>
        <time>2012-04-08T07:45:31Z</time>
      </trkpt>
      <trkpt lat="46.98518" lon="-0.63599">
        <ele>161.6</ele>
        <time>2012-04-08T07:45:33Z</time>
      </trkpt>
      <trkpt lat="46.98513" lon="-0.63599">
        <ele>161.5</ele>
        <time>2012-04-08T07:45:34Z</time>
      </trkpt>
      <trkpt lat="46.98508" lon="-0.63601">
        <ele>161.3</ele>
        <time>2012-04-08T07:45:35Z</time>
      </trkpt>
      <trkpt lat="46.98504" lon="-0.63605">
        <ele>161.3</ele>
        <time>2012-04-08T07:45:36Z</time>
      </trkpt>
      <trkpt lat="46.985" lon="-0.63617">
        <ele>161.1</ele>
        <time>2012-04-08T07:45:38Z</time>
      </trkpt>
      <trkpt lat="46.985" lon="-0.6363">
        <ele>161.1</ele>
        <time>2012-04-08T07:45:40Z</time>
      </trkpt>
      <trkpt lat="46.98502" lon="-0.63643">
        <ele>161</ele>
        <time>2012-04-08T07:45:42Z</time>
      </trkpt>
      <trkpt lat="46.98503" lon="-0.63654">
        <ele>160.8</ele>
        <time>2012-04-08T07:45:44Z</time>
      </trkpt>
      <trkpt lat="46.98505" lon="-0.63666">
        <ele>160.8</ele>
        <time>2012-04-08T07:45:46Z</time>
      </trkpt>
      <trkpt lat="46.98507" lon="-0.63679">
        <ele>160.8</ele>
        <time>2012-04-08T07:45:48Z</time>
      </trkpt>
      <trkpt lat="46.98508" lon="-0.63686">
        <ele>160.8</ele>
        <time>2012-04-08T07:45:49Z</time>
      </trkpt>
      <trkpt lat="46.98509" lon="-0.63692">
        <ele>160.8</ele>
        <time>2012-04-08T07:45:50Z</time>
      </trkpt>
      <trkpt lat="46.9851" lon="-0.63699">
        <ele>160.8</ele>
        <time>2012-04-08T07:45:51Z</time>
      </trkpt>
      <trkpt lat="46.98512" lon="-0.63712">
        <ele>160.8</ele>
        <time>2012-04-08T07:45:53Z</time>
      </trkpt>
      <trkpt lat="46.98514" lon="-0.63724">
        <ele>160.8</ele>
        <time>2012-04-08T07:45:55Z</time>
      </trkpt>
      <trkpt lat="46.98515" lon="-0.63736">
        <ele>160.6</ele>
        <time>2012-04-08T07:45:57Z</time>
      </trkpt>
      <trkpt lat="46.98517" lon="-0.63748">
        <ele>160.3</ele>
        <time>2012-04-08T07:45:59Z</time>
      </trkpt>
      <trkpt lat="46.98519" lon="-0.6376">
        <ele>160.3</ele>
        <time>2012-04-08T07:46:01Z</time>
      </trkpt>
      <trkpt lat="46.98521" lon="-0.63771">
        <ele>160.1</ele>
        <time>2012-04-08T07:46:03Z</time>
      </trkpt>
      <trkpt lat="46.98523" lon="-0.63782">
        <ele>160.1</ele>
        <time>2012-04-08T07:46:05Z</time>
      </trkpt>
      <trkpt lat="46.98525" lon="-0.63793">
        <ele>160</ele>
        <time>2012-04-08T07:46:07Z</time>
      </trkpt>
      <trkpt lat="46.98527" lon="-0.63804">
        <ele>160</ele>
        <time>2012-04-08T07:46:09Z</time>
      </trkpt>
      <trkpt lat="46.98528" lon="-0.63814">
        <ele>160</ele>
        <time>2012-04-08T07:46:11Z</time>
      </trkpt>
      <trkpt lat="46.9853" lon="-0.63825">
        <ele>160</ele>
        <time>2012-04-08T07:46:13Z</time>
      </trkpt>
      <trkpt lat="46.98531" lon="-0.63835">
        <ele>160</ele>
        <time>2012-04-08T07:46:15Z</time>
      </trkpt>
      <trkpt lat="46.98533" lon="-0.63846">
        <ele>160</ele>
        <time>2012-04-08T07:46:17Z</time>
      </trkpt>
      <trkpt lat="46.98534" lon="-0.63856">
        <ele>160</ele>
        <time>2012-04-08T07:46:19Z</time>
      </trkpt>
      <trkpt lat="46.98535" lon="-0.63865">
        <ele>160</ele>
        <time>2012-04-08T07:46:21Z</time>
      </trkpt>
      <trkpt lat="46.98536" lon="-0.63875">
        <ele>160</ele>
        <time>2012-04-08T07:46:23Z</time>
      </trkpt>
      <trkpt lat="46.98537" lon="-0.63885">
        <ele>160</ele>
        <time>2012-04-08T07:46:25Z</time>
      </trkpt>
      <trkpt lat="46.98539" lon="-0.63895">
        <ele>159.8</ele>
        <time>2012-04-08T07:46:27Z</time>
      </trkpt>
      <trkpt lat="46.98539" lon="-0.63901">
        <ele>159.8</ele>
        <time>2012-04-08T07:46:28Z</time>
      </trkpt>
      <trkpt lat="46.98541" lon="-0.63915">
        <ele>159.8</ele>
        <time>2012-04-08T07:46:31Z</time>
      </trkpt>
      <trkpt lat="46.98542" lon="-0.63925">
        <ele>159.8</ele>
        <time>2012-04-08T07:46:33Z</time>
      </trkpt>
      <trkpt lat="46.98543" lon="-0.63935">
        <ele>159.8</ele>
        <time>2012-04-08T07:46:35Z</time>
      </trkpt>
      <trkpt lat="46.98544" lon="-0.63944">
        <ele>159.8</ele>
        <time>2012-04-08T07:46:37Z</time>
      </trkpt>
      <trkpt lat="46.98546" lon="-0.63957">
        <ele>159.8</ele>
        <time>2012-04-08T07:46:40Z</time>
      </trkpt>
      <trkpt lat="46.98548" lon="-0.63969">
        <ele>159.8</ele>
        <time>2012-04-08T07:46:43Z</time>
      </trkpt>
      <trkpt lat="46.9855" lon="-0.63982">
        <ele>159.8</ele>
        <time>2012-04-08T07:46:46Z</time>
      </trkpt>
      <trkpt lat="46.98551" lon="-0.6399">
        <ele>159.8</ele>
        <time>2012-04-08T07:46:48Z</time>
      </trkpt>
      <trkpt lat="46.98553" lon="-0.64">
        <ele>159.8</ele>
        <time>2012-04-08T07:46:50Z</time>
      </trkpt>
      <trkpt lat="46.98554" lon="-0.6401">
        <ele>160</ele>
        <time>2012-04-08T07:46:52Z</time>
      </trkpt>
      <trkpt lat="46.98556" lon="-0.64022">
        <ele>160.1</ele>
        <time>2012-04-08T07:46:55Z</time>
      </trkpt>
      <trkpt lat="46.98559" lon="-0.64034">
        <ele>160.3</ele>
        <time>2012-04-08T07:46:58Z</time>
      </trkpt>
      <trkpt lat="46.98561" lon="-0.64045">
        <ele>160.3</ele>
        <time>2012-04-08T07:47:01Z</time>
      </trkpt>
      <trkpt lat="46.98563" lon="-0.64055">
        <ele>160.5</ele>
        <time>2012-04-08T07:47:04Z</time>
      </trkpt>
      <trkpt lat="46.98565" lon="-0.64066">
        <ele>160.6</ele>
        <time>2012-04-08T07:47:08Z</time>
      </trkpt>
      <trkpt lat="46.98567" lon="-0.64078">
        <ele>160.8</ele>
        <time>2012-04-08T07:47:12Z</time>
      </trkpt>
      <trkpt lat="46.98567" lon="-0.6409">
        <ele>160.8</ele>
        <time>2012-04-08T07:47:16Z</time>
      </trkpt>
      <trkpt lat="46.98569" lon="-0.64102">
        <ele>161.1</ele>
        <time>2012-04-08T07:47:21Z</time>
      </trkpt>
      <trkpt lat="46.9857" lon="-0.64113">
        <ele>161.1</ele>
        <time>2012-04-08T07:47:25Z</time>
      </trkpt>
      <trkpt lat="46.98571" lon="-0.64125">
        <ele>161.3</ele>
        <time>2012-04-08T07:47:29Z</time>
      </trkpt>
      <trkpt lat="46.98571" lon="-0.64128">
        <ele>161.3</ele>
        <time>2012-04-08T07:47:30Z</time>
      </trkpt>
      <trkpt lat="46.98571" lon="-0.6415">
        <ele>161.3</ele>
        <time>2012-04-08T07:47:39Z</time>
      </trkpt>
      <trkpt lat="46.98571" lon="-0.64162">
        <ele>161.5</ele>
        <time>2012-04-08T07:47:43Z</time>
      </trkpt>
      <trkpt lat="46.98572" lon="-0.64173">
        <ele>161.6</ele>
        <time>2012-04-08T07:47:47Z</time>
      </trkpt>
      <trkpt lat="46.98575" lon="-0.64185">
        <ele>161.6</ele>
        <time>2012-04-08T07:47:52Z</time>
      </trkpt>
      <trkpt lat="46.98577" lon="-0.64195">
        <ele>161.8</ele>
        <time>2012-04-08T07:47:56Z</time>
      </trkpt>
      <trkpt lat="46.98581" lon="-0.64205">
        <ele>162</ele>
        <time>2012-04-08T07:47:59Z</time>
      </trkpt>
      <trkpt lat="46.98585" lon="-0.64216">
        <ele>162.1</ele>
        <time>2012-04-08T07:48:02Z</time>
      </trkpt>
      <trkpt lat="46.9859" lon="-0.64227">
        <ele>162.1</ele>
        <time>2012-04-08T07:48:05Z</time>
      </trkpt>
      <trkpt lat="46.98594" lon="-0.64237">
        <ele>162.3</ele>
        <time>2012-04-08T07:48:08Z</time>
      </trkpt>
      <trkpt lat="46.98599" lon="-0.64247">
        <ele>162.3</ele>
        <time>2012-04-08T07:48:11Z</time>
      </trkpt>
      <trkpt lat="46.98603" lon="-0.64258">
        <ele>162.6</ele>
        <time>2012-04-08T07:48:14Z</time>
      </trkpt>
      <trkpt lat="46.98608" lon="-0.64268">
        <ele>162.6</ele>
        <time>2012-04-08T07:48:17Z</time>
      </trkpt>
      <trkpt lat="46.98612" lon="-0.64279">
        <ele>162.8</ele>
        <time>2012-04-08T07:48:20Z</time>
      </trkpt>
      <trkpt lat="46.98616" lon="-0.64287">
        <ele>162.8</ele>
        <time>2012-04-08T07:48:22Z</time>
      </trkpt>
      <trkpt lat="46.98619" lon="-0.64295">
        <ele>163</ele>
        <time>2012-04-08T07:48:24Z</time>
      </trkpt>
      <trkpt lat="46.98623" lon="-0.64303">
        <ele>163.1</ele>
        <time>2012-04-08T07:48:26Z</time>
      </trkpt>
      <trkpt lat="46.98626" lon="-0.64311">
        <ele>163.1</ele>
        <time>2012-04-08T07:48:28Z</time>
      </trkpt>
      <trkpt lat="46.9863" lon="-0.64319">
        <ele>163.1</ele>
        <time>2012-04-08T07:48:30Z</time>
      </trkpt>
      <trkpt lat="46.98631" lon="-0.64323">
        <ele>163.3</ele>
        <time>2012-04-08T07:48:31Z</time>
      </trkpt>
      <trkpt lat="46.98637" lon="-0.64335">
        <ele>163.3</ele>
        <time>2012-04-08T07:48:34Z</time>
      </trkpt>
      <trkpt lat="46.9864" lon="-0.64343">
        <ele>163.5</ele>
        <time>2012-04-08T07:48:36Z</time>
      </trkpt>
      <trkpt lat="46.98644" lon="-0.64352">
        <ele>163.6</ele>
        <time>2012-04-08T07:48:38Z</time>
      </trkpt>
      <trkpt lat="46.98648" lon="-0.6436">
        <ele>163.6</ele>
        <time>2012-04-08T07:48:40Z</time>
      </trkpt>
      <trkpt lat="46.98652" lon="-0.6437">
        <ele>163.8</ele>
        <time>2012-04-08T07:48:42Z</time>
      </trkpt>
      <trkpt lat="46.98656" lon="-0.64379">
        <ele>163.8</ele>
        <time>2012-04-08T07:48:44Z</time>
      </trkpt>
      <trkpt lat="46.9866" lon="-0.64388">
        <ele>163.8</ele>
        <time>2012-04-08T07:48:46Z</time>
      </trkpt>
      <trkpt lat="46.98665" lon="-0.64395">
        <ele>164</ele>
        <time>2012-04-08T07:48:48Z</time>
      </trkpt>
      <trkpt lat="46.9867" lon="-0.64402">
        <ele>164.1</ele>
        <time>2012-04-08T07:48:50Z</time>
      </trkpt>
      <trkpt lat="46.98676" lon="-0.64408">
        <ele>164.1</ele>
        <time>2012-04-08T07:48:52Z</time>
      </trkpt>
      <trkpt lat="46.98682" lon="-0.64414">
        <ele>164.3</ele>
        <time>2012-04-08T07:48:54Z</time>
      </trkpt>
      <trkpt lat="46.98688" lon="-0.6442">
        <ele>164.3</ele>
        <time>2012-04-08T07:48:56Z</time>
      </trkpt>
      <trkpt lat="46.98694" lon="-0.64426">
        <ele>164.3</ele>
        <time>2012-04-08T07:48:58Z</time>
      </trkpt>
      <trkpt lat="46.987" lon="-0.6443">
        <ele>164.3</ele>
        <time>2012-04-08T07:49:00Z</time>
      </trkpt>
      <trkpt lat="46.98706" lon="-0.64434">
        <ele>164.5</ele>
        <time>2012-04-08T07:49:02Z</time>
      </trkpt>
      <trkpt lat="46.98713" lon="-0.64439">
        <ele>164.6</ele>
        <time>2012-04-08T07:49:04Z</time>
      </trkpt>
      <trkpt lat="46.98719" lon="-0.64443">
        <ele>164.6</ele>
        <time>2012-04-08T07:49:06Z</time>
      </trkpt>
      <trkpt lat="46.98726" lon="-0.64446">
        <ele>164.6</ele>
        <time>2012-04-08T07:49:08Z</time>
      </trkpt>
      <trkpt lat="46.98732" lon="-0.64449">
        <ele>164.6</ele>
        <time>2012-04-08T07:49:10Z</time>
      </trkpt>
      <trkpt lat="46.98738" lon="-0.64453">
        <ele>164.8</ele>
        <time>2012-04-08T07:49:12Z</time>
      </trkpt>
      <trkpt lat="46.98744" lon="-0.64458">
        <ele>164.8</ele>
        <time>2012-04-08T07:49:14Z</time>
      </trkpt>
      <trkpt lat="46.9875" lon="-0.64464">
        <ele>164.8</ele>
        <time>2012-04-08T07:49:16Z</time>
      </trkpt>
      <trkpt lat="46.98756" lon="-0.6447">
        <ele>164.8</ele>
        <time>2012-04-08T07:49:18Z</time>
      </trkpt>
      <trkpt lat="46.98762" lon="-0.64477">
        <ele>165</ele>
        <time>2012-04-08T07:49:20Z</time>
      </trkpt>
      <trkpt lat="46.98767" lon="-0.64485">
        <ele>165</ele>
        <time>2012-04-08T07:49:22Z</time>
      </trkpt>
      <trkpt lat="46.98772" lon="-0.64495">
        <ele>165.1</ele>
        <time>2012-04-08T07:49:24Z</time>
      </trkpt>
      <trkpt lat="46.98777" lon="-0.64505">
        <ele>165.1</ele>
        <time>2012-04-08T07:49:26Z</time>
      </trkpt>
      <trkpt lat="46.98782" lon="-0.64517">
        <ele>165.6</ele>
        <time>2012-04-08T07:49:28Z</time>
      </trkpt>
      <trkpt lat="46.98787" lon="-0.64528">
        <ele>166</ele>
        <time>2012-04-08T07:49:30Z</time>
      </trkpt>
      <trkpt lat="46.98791" lon="-0.64539">
        <ele>166.3</ele>
        <time>2012-04-08T07:49:32Z</time>
      </trkpt>
      <trkpt lat="46.98794" lon="-0.64544">
        <ele>166.3</ele>
        <time>2012-04-08T07:49:33Z</time>
      </trkpt>
      <trkpt lat="46.98801" lon="-0.6456">
        <ele>166.6</ele>
        <time>2012-04-08T07:49:36Z</time>
      </trkpt>
      <trkpt lat="46.98806" lon="-0.6457">
        <ele>166.6</ele>
        <time>2012-04-08T07:49:38Z</time>
      </trkpt>
      <trkpt lat="46.98812" lon="-0.6458">
        <ele>166.8</ele>
        <time>2012-04-08T07:49:40Z</time>
      </trkpt>
      <trkpt lat="46.98817" lon="-0.6459">
        <ele>166.8</ele>
        <time>2012-04-08T07:49:42Z</time>
      </trkpt>
      <trkpt lat="46.98821" lon="-0.646">
        <ele>166.8</ele>
        <time>2012-04-08T07:49:44Z</time>
      </trkpt>
      <trkpt lat="46.98825" lon="-0.64607">
        <ele>166.8</ele>
        <time>2012-04-08T07:49:46Z</time>
      </trkpt>
      <trkpt lat="46.9883" lon="-0.64613">
        <ele>167</ele>
        <time>2012-04-08T07:49:48Z</time>
      </trkpt>
      <trkpt lat="46.98836" lon="-0.6462">
        <ele>167</ele>
        <time>2012-04-08T07:49:50Z</time>
      </trkpt>
      <trkpt lat="46.98841" lon="-0.64626">
        <ele>167.1</ele>
        <time>2012-04-08T07:49:52Z</time>
      </trkpt>
      <trkpt lat="46.98848" lon="-0.64632">
        <ele>167.3</ele>
        <time>2012-04-08T07:49:54Z</time>
      </trkpt>
      <trkpt lat="46.98852" lon="-0.64634">
        <ele>167.3</ele>
        <time>2012-04-08T07:49:55Z</time>
      </trkpt>
      <trkpt lat="46.98857" lon="-0.64636">
        <ele>167.3</ele>
        <time>2012-04-08T07:49:56Z</time>
      </trkpt>
      <trkpt lat="46.98862" lon="-0.64639">
        <ele>167.5</ele>
        <time>2012-04-08T07:49:57Z</time>
      </trkpt>
      <trkpt lat="46.98866" lon="-0.64642">
        <ele>167.6</ele>
        <time>2012-04-08T07:49:58Z</time>
      </trkpt>
      <trkpt lat="46.98871" lon="-0.64646">
        <ele>167.6</ele>
        <time>2012-04-08T07:49:59Z</time>
      </trkpt>
      <trkpt lat="46.98875" lon="-0.64649">
        <ele>167.8</ele>
        <time>2012-04-08T07:50:00Z</time>
      </trkpt>
      <trkpt lat="46.98879" lon="-0.64653">
        <ele>167.8</ele>
        <time>2012-04-08T07:50:01Z</time>
      </trkpt>
      <trkpt lat="46.98883" lon="-0.64657">
        <ele>167.8</ele>
        <time>2012-04-08T07:50:02Z</time>
      </trkpt>
      <trkpt lat="46.98887" lon="-0.6466">
        <ele>167.8</ele>
        <time>2012-04-08T07:50:03Z</time>
      </trkpt>
      <trkpt lat="46.98894" lon="-0.64668">
        <ele>167.6</ele>
        <time>2012-04-08T07:50:05Z</time>
      </trkpt>
      <trkpt lat="46.98898" lon="-0.64672">
        <ele>167.6</ele>
        <time>2012-04-08T07:50:06Z</time>
      </trkpt>
      <trkpt lat="46.98901" lon="-0.64676">
        <ele>167.3</ele>
        <time>2012-04-08T07:50:07Z</time>
      </trkpt>
      <trkpt lat="46.98905" lon="-0.6468">
        <ele>167.3</ele>
        <time>2012-04-08T07:50:08Z</time>
      </trkpt>
      <trkpt lat="46.98908" lon="-0.64685">
        <ele>167.3</ele>
        <time>2012-04-08T07:50:09Z</time>
      </trkpt>
      <trkpt lat="46.98912" lon="-0.6469">
        <ele>167.1</ele>
        <time>2012-04-08T07:50:10Z</time>
      </trkpt>
      <trkpt lat="46.98916" lon="-0.64695">
        <ele>167.1</ele>
        <time>2012-04-08T07:50:11Z</time>
      </trkpt>
      <trkpt lat="46.98919" lon="-0.647">
        <ele>166.8</ele>
        <time>2012-04-08T07:50:12Z</time>
      </trkpt>
      <trkpt lat="46.98923" lon="-0.64706">
        <ele>166.6</ele>
        <time>2012-04-08T07:50:13Z</time>
      </trkpt>
      <trkpt lat="46.98928" lon="-0.6471">
        <ele>166.6</ele>
        <time>2012-04-08T07:50:14Z</time>
      </trkpt>
      <trkpt lat="46.98932" lon="-0.64715">
        <ele>166.5</ele>
        <time>2012-04-08T07:50:15Z</time>
      </trkpt>
      <trkpt lat="46.98936" lon="-0.64718">
        <ele>166.3</ele>
        <time>2012-04-08T07:50:16Z</time>
      </trkpt>
      <trkpt lat="46.98943" lon="-0.64725">
        <ele>166.1</ele>
        <time>2012-04-08T07:50:18Z</time>
      </trkpt>
      <trkpt lat="46.98949" lon="-0.64731">
        <ele>166.1</ele>
        <time>2012-04-08T07:50:20Z</time>
      </trkpt>
      <trkpt lat="46.98956" lon="-0.64737">
        <ele>166.1</ele>
        <time>2012-04-08T07:50:22Z</time>
      </trkpt>
      <trkpt lat="46.98963" lon="-0.64743">
        <ele>166.3</ele>
        <time>2012-04-08T07:50:24Z</time>
      </trkpt>
      <trkpt lat="46.98967" lon="-0.64747">
        <ele>166.3</ele>
        <time>2012-04-08T07:50:25Z</time>
      </trkpt>
      <trkpt lat="46.98971" lon="-0.6475">
        <ele>166.5</ele>
        <time>2012-04-08T07:50:26Z</time>
      </trkpt>
      <trkpt lat="46.98975" lon="-0.64755">
        <ele>166.6</ele>
        <time>2012-04-08T07:50:27Z</time>
      </trkpt>
      <trkpt lat="46.98979" lon="-0.64759">
        <ele>166.6</ele>
        <time>2012-04-08T07:50:28Z</time>
      </trkpt>
      <trkpt lat="46.98983" lon="-0.64763">
        <ele>166.8</ele>
        <time>2012-04-08T07:50:29Z</time>
      </trkpt>
      <trkpt lat="46.98986" lon="-0.64768">
        <ele>166.8</ele>
        <time>2012-04-08T07:50:30Z</time>
      </trkpt>
      <trkpt lat="46.9899" lon="-0.64772">
        <ele>166.8</ele>
        <time>2012-04-08T07:50:31Z</time>
      </trkpt>
      <trkpt lat="46.98994" lon="-0.64777">
        <ele>166.8</ele>
        <time>2012-04-08T07:50:32Z</time>
      </trkpt>
      <trkpt lat="46.98998" lon="-0.64782">
        <ele>167</ele>
        <time>2012-04-08T07:50:33Z</time>
      </trkpt>
      <trkpt lat="46.99001" lon="-0.64787">
        <ele>167</ele>
        <time>2012-04-08T07:50:34Z</time>
      </trkpt>
      <trkpt lat="46.99005" lon="-0.64792">
        <ele>167</ele>
        <time>2012-04-08T07:50:35Z</time>
      </trkpt>
      <trkpt lat="46.99009" lon="-0.64797">
        <ele>167</ele>
        <time>2012-04-08T07:50:36Z</time>
      </trkpt>
      <trkpt lat="46.99013" lon="-0.64802">
        <ele>166.8</ele>
        <time>2012-04-08T07:50:37Z</time>
      </trkpt>
      <trkpt lat="46.99017" lon="-0.64807">
        <ele>166.8</ele>
        <time>2012-04-08T07:50:38Z</time>
      </trkpt>
      <trkpt lat="46.9902" lon="-0.64812">
        <ele>166.8</ele>
        <time>2012-04-08T07:50:39Z</time>
      </trkpt>
      <trkpt lat="46.99024" lon="-0.64818">
        <ele>166.8</ele>
        <time>2012-04-08T07:50:40Z</time>
      </trkpt>
      <trkpt lat="46.99028" lon="-0.64824">
        <ele>166.6</ele>
        <time>2012-04-08T07:50:41Z</time>
      </trkpt>
      <trkpt lat="46.99031" lon="-0.6483">
        <ele>166.6</ele>
        <time>2012-04-08T07:50:42Z</time>
      </trkpt>
      <trkpt lat="46.99035" lon="-0.64836">
        <ele>166.6</ele>
        <time>2012-04-08T07:50:43Z</time>
      </trkpt>
      <trkpt lat="46.99039" lon="-0.64842">
        <ele>166.6</ele>
        <time>2012-04-08T07:50:44Z</time>
      </trkpt>
      <trkpt lat="46.99043" lon="-0.64847">
        <ele>166.6</ele>
        <time>2012-04-08T07:50:45Z</time>
      </trkpt>
      <trkpt lat="46.99047" lon="-0.64853">
        <ele>166.6</ele>
        <time>2012-04-08T07:50:46Z</time>
      </trkpt>
      <trkpt lat="46.99051" lon="-0.64859">
        <ele>166.5</ele>
        <time>2012-04-08T07:50:47Z</time>
      </trkpt>
      <trkpt lat="46.99055" lon="-0.64864">
        <ele>166.3</ele>
        <time>2012-04-08T07:50:48Z</time>
      </trkpt>
      <trkpt lat="46.99059" lon="-0.64869">
        <ele>166.3</ele>
        <time>2012-04-08T07:50:49Z</time>
      </trkpt>
      <trkpt lat="46.99063" lon="-0.64875">
        <ele>166.1</ele>
        <time>2012-04-08T07:50:50Z</time>
      </trkpt>
      <trkpt lat="46.99067" lon="-0.6488">
        <ele>165.8</ele>
        <time>2012-04-08T07:50:51Z</time>
      </trkpt>
      <trkpt lat="46.99071" lon="-0.64885">
        <ele>165.6</ele>
        <time>2012-04-08T07:50:52Z</time>
      </trkpt>
      <trkpt lat="46.99075" lon="-0.64889">
        <ele>165.5</ele>
        <time>2012-04-08T07:50:53Z</time>
      </trkpt>
      <trkpt lat="46.9908" lon="-0.64894">
        <ele>165.3</ele>
        <time>2012-04-08T07:50:54Z</time>
      </trkpt>
      <trkpt lat="46.99084" lon="-0.64898">
        <ele>165.3</ele>
        <time>2012-04-08T07:50:55Z</time>
      </trkpt>
      <trkpt lat="46.99088" lon="-0.64902">
        <ele>165.3</ele>
        <time>2012-04-08T07:50:56Z</time>
      </trkpt>
      <trkpt lat="46.99092" lon="-0.64907">
        <ele>165.3</ele>
        <time>2012-04-08T07:50:57Z</time>
      </trkpt>
      <trkpt lat="46.99097" lon="-0.64911">
        <ele>165.3</ele>
        <time>2012-04-08T07:50:58Z</time>
      </trkpt>
      <trkpt lat="46.99101" lon="-0.64914">
        <ele>165.3</ele>
        <time>2012-04-08T07:50:59Z</time>
      </trkpt>
      <trkpt lat="46.99106" lon="-0.64918">
        <ele>165.1</ele>
        <time>2012-04-08T07:51:00Z</time>
      </trkpt>
      <trkpt lat="46.99111" lon="-0.64921">
        <ele>165.3</ele>
        <time>2012-04-08T07:51:01Z</time>
      </trkpt>
      <trkpt lat="46.99115" lon="-0.64925">
        <ele>165.3</ele>
        <time>2012-04-08T07:51:02Z</time>
      </trkpt>
      <trkpt lat="46.99119" lon="-0.64929">
        <ele>165.3</ele>
        <time>2012-04-08T07:51:03Z</time>
      </trkpt>
      <trkpt lat="46.99124" lon="-0.64932">
        <ele>165.3</ele>
        <time>2012-04-08T07:51:04Z</time>
      </trkpt>
      <trkpt lat="46.99128" lon="-0.64936">
        <ele>165.3</ele>
        <time>2012-04-08T07:51:05Z</time>
      </trkpt>
      <trkpt lat="46.99133" lon="-0.6494">
        <ele>165.1</ele>
        <time>2012-04-08T07:51:06Z</time>
      </trkpt>
      <trkpt lat="46.99138" lon="-0.64944">
        <ele>165.1</ele>
        <time>2012-04-08T07:51:07Z</time>
      </trkpt>
      <trkpt lat="46.99142" lon="-0.64949">
        <ele>164.8</ele>
        <time>2012-04-08T07:51:08Z</time>
      </trkpt>
      <trkpt lat="46.99146" lon="-0.64954">
        <ele>164.6</ele>
        <time>2012-04-08T07:51:09Z</time>
      </trkpt>
      <trkpt lat="46.99151" lon="-0.64959">
        <ele>164.5</ele>
        <time>2012-04-08T07:51:10Z</time>
      </trkpt>
      <trkpt lat="46.99155" lon="-0.64965">
        <ele>164.3</ele>
        <time>2012-04-08T07:51:11Z</time>
      </trkpt>
      <trkpt lat="46.99159" lon="-0.6497">
        <ele>164.1</ele>
        <time>2012-04-08T07:51:12Z</time>
      </trkpt>
      <trkpt lat="46.99163" lon="-0.64976">
        <ele>164.1</ele>
        <time>2012-04-08T07:51:13Z</time>
      </trkpt>
      <trkpt lat="46.99168" lon="-0.64982">
        <ele>164</ele>
        <time>2012-04-08T07:51:14Z</time>
      </trkpt>
      <trkpt lat="46.99172" lon="-0.64987">
        <ele>163.8</ele>
        <time>2012-04-08T07:51:15Z</time>
      </trkpt>
      <trkpt lat="46.99175" lon="-0.64992">
        <ele>163.8</ele>
        <time>2012-04-08T07:51:16Z</time>
      </trkpt>
      <trkpt lat="46.99179" lon="-0.64997">
        <ele>163.8</ele>
        <time>2012-04-08T07:51:17Z</time>
      </trkpt>
      <trkpt lat="46.99185" lon="-0.65007">
        <ele>163.6</ele>
        <time>2012-04-08T07:51:19Z</time>
      </trkpt>
      <trkpt lat="46.99191" lon="-0.65015">
        <ele>163.5</ele>
        <time>2012-04-08T07:51:21Z</time>
      </trkpt>
      <trkpt lat="46.99198" lon="-0.65021">
        <ele>163.3</ele>
        <time>2012-04-08T07:51:23Z</time>
      </trkpt>
      <trkpt lat="46.99204" lon="-0.65027">
        <ele>163.3</ele>
        <time>2012-04-08T07:51:25Z</time>
      </trkpt>
      <trkpt lat="46.9921" lon="-0.65034">
        <ele>163.3</ele>
        <time>2012-04-08T07:51:27Z</time>
      </trkpt>
      <trkpt lat="46.99217" lon="-0.6504">
        <ele>163</ele>
        <time>2012-04-08T07:51:29Z</time>
      </trkpt>
      <trkpt lat="46.99225" lon="-0.65046">
        <ele>162.5</ele>
        <time>2012-04-08T07:51:31Z</time>
      </trkpt>
      <trkpt lat="46.99232" lon="-0.65052">
        <ele>162</ele>
        <time>2012-04-08T07:51:33Z</time>
      </trkpt>
      <trkpt lat="46.99238" lon="-0.65057">
        <ele>161.8</ele>
        <time>2012-04-08T07:51:35Z</time>
      </trkpt>
      <trkpt lat="46.99241" lon="-0.65059">
        <ele>161.8</ele>
        <time>2012-04-08T07:51:36Z</time>
      </trkpt>
      <trkpt lat="46.99253" lon="-0.65066">
        <ele>161.8</ele>
        <time>2012-04-08T07:51:40Z</time>
      </trkpt>
      <trkpt lat="46.9926" lon="-0.65069">
        <ele>161.6</ele>
        <time>2012-04-08T07:51:42Z</time>
      </trkpt>
      <trkpt lat="46.99267" lon="-0.65072">
        <ele>161.6</ele>
        <time>2012-04-08T07:51:44Z</time>
      </trkpt>
      <trkpt lat="46.99275" lon="-0.65074">
        <ele>161</ele>
        <time>2012-04-08T07:51:46Z</time>
      </trkpt>
      <trkpt lat="46.99284" lon="-0.65076">
        <ele>160.6</ele>
        <time>2012-04-08T07:51:48Z</time>
      </trkpt>
      <trkpt lat="46.99293" lon="-0.65078">
        <ele>160.1</ele>
        <time>2012-04-08T07:51:50Z</time>
      </trkpt>
      <trkpt lat="46.99301" lon="-0.6508">
        <ele>159.8</ele>
        <time>2012-04-08T07:51:52Z</time>
      </trkpt>
      <trkpt lat="46.99309" lon="-0.65083">
        <ele>159.5</ele>
        <time>2012-04-08T07:51:54Z</time>
      </trkpt>
      <trkpt lat="46.99317" lon="-0.65086">
        <ele>159.1</ele>
        <time>2012-04-08T07:51:56Z</time>
      </trkpt>
      <trkpt lat="46.99325" lon="-0.6509">
        <ele>158.8</ele>
        <time>2012-04-08T07:51:58Z</time>
      </trkpt>
      <trkpt lat="46.9933" lon="-0.65092">
        <ele>158.6</ele>
        <time>2012-04-08T07:51:59Z</time>
      </trkpt>
      <trkpt lat="46.99334" lon="-0.65095">
        <ele>158.5</ele>
        <time>2012-04-08T07:52:00Z</time>
      </trkpt>
      <trkpt lat="46.99339" lon="-0.65097">
        <ele>158.3</ele>
        <time>2012-04-08T07:52:01Z</time>
      </trkpt>
      <trkpt lat="46.99344" lon="-0.651">
        <ele>158.1</ele>
        <time>2012-04-08T07:52:02Z</time>
      </trkpt>
      <trkpt lat="46.99349" lon="-0.65103">
        <ele>157.8</ele>
        <time>2012-04-08T07:52:03Z</time>
      </trkpt>
      <trkpt lat="46.99354" lon="-0.65106">
        <ele>157.8</ele>
        <time>2012-04-08T07:52:04Z</time>
      </trkpt>
      <trkpt lat="46.99359" lon="-0.6511">
        <ele>157.6</ele>
        <time>2012-04-08T07:52:05Z</time>
      </trkpt>
      <trkpt lat="46.99364" lon="-0.65113">
        <ele>157.5</ele>
        <time>2012-04-08T07:52:06Z</time>
      </trkpt>
      <trkpt lat="46.9937" lon="-0.65116">
        <ele>157.3</ele>
        <time>2012-04-08T07:52:07Z</time>
      </trkpt>
      <trkpt lat="46.99375" lon="-0.65119">
        <ele>157.1</ele>
        <time>2012-04-08T07:52:08Z</time>
      </trkpt>
      <trkpt lat="46.9938" lon="-0.65123">
        <ele>157.1</ele>
        <time>2012-04-08T07:52:09Z</time>
      </trkpt>
      <trkpt lat="46.99385" lon="-0.65126">
        <ele>157</ele>
        <time>2012-04-08T07:52:10Z</time>
      </trkpt>
      <trkpt lat="46.9939" lon="-0.65129">
        <ele>156.8</ele>
        <time>2012-04-08T07:52:11Z</time>
      </trkpt>
      <trkpt lat="46.99395" lon="-0.65132">
        <ele>156.8</ele>
        <time>2012-04-08T07:52:12Z</time>
      </trkpt>
      <trkpt lat="46.994" lon="-0.65135">
        <ele>156.8</ele>
        <time>2012-04-08T07:52:13Z</time>
      </trkpt>
      <trkpt lat="46.99408" lon="-0.6514">
        <ele>156.6</ele>
        <time>2012-04-08T07:52:15Z</time>
      </trkpt>
      <trkpt lat="46.99415" lon="-0.65145">
        <ele>156.1</ele>
        <time>2012-04-08T07:52:17Z</time>
      </trkpt>
      <trkpt lat="46.99422" lon="-0.65151">
        <ele>156</ele>
        <time>2012-04-08T07:52:19Z</time>
      </trkpt>
      <trkpt lat="46.99428" lon="-0.65158">
        <ele>155.8</ele>
        <time>2012-04-08T07:52:21Z</time>
      </trkpt>
      <trkpt lat="46.99435" lon="-0.65167">
        <ele>155.8</ele>
        <time>2012-04-08T07:52:24Z</time>
      </trkpt>
      <trkpt lat="46.99439" lon="-0.65174">
        <ele>155.8</ele>
        <time>2012-04-08T07:52:26Z</time>
      </trkpt>
      <trkpt lat="46.99444" lon="-0.65183">
        <ele>155.6</ele>
        <time>2012-04-08T07:52:29Z</time>
      </trkpt>
      <trkpt lat="46.99449" lon="-0.65191">
        <ele>155.6</ele>
        <time>2012-04-08T07:52:32Z</time>
      </trkpt>
      <trkpt lat="46.99454" lon="-0.65199">
        <ele>155.6</ele>
        <time>2012-04-08T07:52:35Z</time>
      </trkpt>
      <trkpt lat="46.99459" lon="-0.65207">
        <ele>155.5</ele>
        <time>2012-04-08T07:52:39Z</time>
      </trkpt>
      <trkpt lat="46.99461" lon="-0.65209">
        <ele>155.3</ele>
        <time>2012-04-08T07:52:40Z</time>
      </trkpt>
      <trkpt lat="46.99472" lon="-0.65221">
        <ele>155.1</ele>
        <time>2012-04-08T07:52:48Z</time>
      </trkpt>
      <trkpt lat="46.99477" lon="-0.65228">
        <ele>155.1</ele>
        <time>2012-04-08T07:52:51Z</time>
      </trkpt>
      <trkpt lat="46.99481" lon="-0.65236">
        <ele>155.1</ele>
        <time>2012-04-08T07:52:54Z</time>
      </trkpt>
      <trkpt lat="46.99487" lon="-0.65246">
        <ele>155.1</ele>
        <time>2012-04-08T07:52:58Z</time>
      </trkpt>
      <trkpt lat="46.99493" lon="-0.65254">
        <ele>155</ele>
        <time>2012-04-08T07:53:02Z</time>
      </trkpt>
      <trkpt lat="46.99499" lon="-0.65261">
        <ele>155</ele>
        <time>2012-04-08T07:53:05Z</time>
      </trkpt>
      <trkpt lat="46.99505" lon="-0.6527">
        <ele>155</ele>
        <time>2012-04-08T07:53:08Z</time>
      </trkpt>
      <trkpt lat="46.99511" lon="-0.65279">
        <ele>154.8</ele>
        <time>2012-04-08T07:53:11Z</time>
      </trkpt>
      <trkpt lat="46.99517" lon="-0.65287">
        <ele>154.8</ele>
        <time>2012-04-08T07:53:14Z</time>
      </trkpt>
      <trkpt lat="46.99523" lon="-0.65296">
        <ele>154.8</ele>
        <time>2012-04-08T07:53:17Z</time>
      </trkpt>
      <trkpt lat="46.9953" lon="-0.65304">
        <ele>154.8</ele>
        <time>2012-04-08T07:53:20Z</time>
      </trkpt>
      <trkpt lat="46.99535" lon="-0.65312">
        <ele>154.8</ele>
        <time>2012-04-08T07:53:23Z</time>
      </trkpt>
      <trkpt lat="46.99541" lon="-0.65321">
        <ele>154.8</ele>
        <time>2012-04-08T07:53:26Z</time>
      </trkpt>
      <trkpt lat="46.99547" lon="-0.6533">
        <ele>154.8</ele>
        <time>2012-04-08T07:53:29Z</time>
      </trkpt>
      <trkpt lat="46.99551" lon="-0.65336">
        <ele>155</ele>
        <time>2012-04-08T07:53:31Z</time>
      </trkpt>
      <trkpt lat="46.99556" lon="-0.65342">
        <ele>155</ele>
        <time>2012-04-08T07:53:33Z</time>
      </trkpt>
      <trkpt lat="46.9956" lon="-0.65349">
        <ele>155</ele>
        <time>2012-04-08T07:53:35Z</time>
      </trkpt>
      <trkpt lat="46.99565" lon="-0.65355">
        <ele>155</ele>
        <time>2012-04-08T07:53:37Z</time>
      </trkpt>
      <trkpt lat="46.9957" lon="-0.65362">
        <ele>155</ele>
        <time>2012-04-08T07:53:39Z</time>
      </trkpt>
      <trkpt lat="46.99576" lon="-0.65371">
        <ele>155.1</ele>
        <time>2012-04-08T07:53:42Z</time>
      </trkpt>
      <trkpt lat="46.99577" lon="-0.65375">
        <ele>155.1</ele>
        <time>2012-04-08T07:53:43Z</time>
      </trkpt>
      <trkpt lat="46.99575" lon="-0.65395">
        <ele>155.1</ele>
        <time>2012-04-08T07:53:48Z</time>
      </trkpt>
      <trkpt lat="46.99572" lon="-0.65404">
        <ele>155.1</ele>
        <time>2012-04-08T07:53:50Z</time>
      </trkpt>
      <trkpt lat="46.9957" lon="-0.65413">
        <ele>155.3</ele>
        <time>2012-04-08T07:53:52Z</time>
      </trkpt>
      <trkpt lat="46.99566" lon="-0.65423">
        <ele>155.3</ele>
        <time>2012-04-08T07:53:54Z</time>
      </trkpt>
      <trkpt lat="46.99563" lon="-0.65432">
        <ele>155.5</ele>
        <time>2012-04-08T07:53:56Z</time>
      </trkpt>
      <trkpt lat="46.99559" lon="-0.65442">
        <ele>155.6</ele>
        <time>2012-04-08T07:53:58Z</time>
      </trkpt>
      <trkpt lat="46.99556" lon="-0.65451">
        <ele>155.6</ele>
        <time>2012-04-08T07:54:00Z</time>
      </trkpt>
      <trkpt lat="46.99552" lon="-0.65458">
        <ele>155.8</ele>
        <time>2012-04-08T07:54:02Z</time>
      </trkpt>
      <trkpt lat="46.99549" lon="-0.65465">
        <ele>155.8</ele>
        <time>2012-04-08T07:54:04Z</time>
      </trkpt>
      <trkpt lat="46.99545" lon="-0.65473">
        <ele>156</ele>
        <time>2012-04-08T07:54:06Z</time>
      </trkpt>
      <trkpt lat="46.9954" lon="-0.65481">
        <ele>156.6</ele>
        <time>2012-04-08T07:54:08Z</time>
      </trkpt>
      <trkpt lat="46.99535" lon="-0.6549">
        <ele>157.3</ele>
        <time>2012-04-08T07:54:10Z</time>
      </trkpt>
      <trkpt lat="46.99529" lon="-0.65498">
        <ele>157.8</ele>
        <time>2012-04-08T07:54:12Z</time>
      </trkpt>
      <trkpt lat="46.99523" lon="-0.65506">
        <ele>158.1</ele>
        <time>2012-04-08T07:54:14Z</time>
      </trkpt>
      <trkpt lat="46.9952" lon="-0.65516">
        <ele>158.3</ele>
        <time>2012-04-08T07:54:16Z</time>
      </trkpt>
      <trkpt lat="46.99522" lon="-0.65527">
        <ele>158.6</ele>
        <time>2012-04-08T07:54:18Z</time>
      </trkpt>
      <trkpt lat="46.99526" lon="-0.65538">
        <ele>158.6</ele>
        <time>2012-04-08T07:54:20Z</time>
      </trkpt>
      <trkpt lat="46.99529" lon="-0.65548">
        <ele>158.6</ele>
        <time>2012-04-08T07:54:22Z</time>
      </trkpt>
      <trkpt lat="46.99533" lon="-0.65557">
        <ele>158.5</ele>
        <time>2012-04-08T07:54:24Z</time>
      </trkpt>
      <trkpt lat="46.99536" lon="-0.65565">
        <ele>158.5</ele>
        <time>2012-04-08T07:54:26Z</time>
      </trkpt>
      <trkpt lat="46.99539" lon="-0.65573">
        <ele>158.5</ele>
        <time>2012-04-08T07:54:28Z</time>
      </trkpt>
      <trkpt lat="46.99542" lon="-0.65581">
        <ele>158.5</ele>
        <time>2012-04-08T07:54:30Z</time>
      </trkpt>
      <trkpt lat="46.99545" lon="-0.65589">
        <ele>158.5</ele>
        <time>2012-04-08T07:54:32Z</time>
      </trkpt>
      <trkpt lat="46.99548" lon="-0.65598">
        <ele>158.6</ele>
        <time>2012-04-08T07:54:34Z</time>
      </trkpt>
      <trkpt lat="46.99552" lon="-0.65606">
        <ele>158.6</ele>
        <time>2012-04-08T07:54:36Z</time>
      </trkpt>
      <trkpt lat="46.99555" lon="-0.65615">
        <ele>158.5</ele>
        <time>2012-04-08T07:54:38Z</time>
      </trkpt>
      <trkpt lat="46.99559" lon="-0.65626">
        <ele>158.5</ele>
        <time>2012-04-08T07:54:40Z</time>
      </trkpt>
      <trkpt lat="46.99562" lon="-0.65632">
        <ele>158.5</ele>
        <time>2012-04-08T07:54:41Z</time>
      </trkpt>
      <trkpt lat="46.99564" lon="-0.65638">
        <ele>158.3</ele>
        <time>2012-04-08T07:54:42Z</time>
      </trkpt>
      <trkpt lat="46.99567" lon="-0.65644">
        <ele>158.3</ele>
        <time>2012-04-08T07:54:43Z</time>
      </trkpt>
      <trkpt lat="46.9957" lon="-0.65651">
        <ele>158.3</ele>
        <time>2012-04-08T07:54:44Z</time>
      </trkpt>
      <trkpt lat="46.99572" lon="-0.65658">
        <ele>158.1</ele>
        <time>2012-04-08T07:54:45Z</time>
      </trkpt>
      <trkpt lat="46.99575" lon="-0.65666">
        <ele>158.1</ele>
        <time>2012-04-08T07:54:46Z</time>
      </trkpt>
      <trkpt lat="46.99578" lon="-0.65673">
        <ele>158</ele>
        <time>2012-04-08T07:54:47Z</time>
      </trkpt>
      <trkpt lat="46.99581" lon="-0.65681">
        <ele>158</ele>
        <time>2012-04-08T07:54:48Z</time>
      </trkpt>
      <trkpt lat="46.99583" lon="-0.65689">
        <ele>158</ele>
        <time>2012-04-08T07:54:49Z</time>
      </trkpt>
      <trkpt lat="46.99586" lon="-0.65697">
        <ele>158</ele>
        <time>2012-04-08T07:54:50Z</time>
      </trkpt>
      <trkpt lat="46.99589" lon="-0.65705">
        <ele>158</ele>
        <time>2012-04-08T07:54:51Z</time>
      </trkpt>
      <trkpt lat="46.99592" lon="-0.65713">
        <ele>158</ele>
        <time>2012-04-08T07:54:52Z</time>
      </trkpt>
      <trkpt lat="46.99594" lon="-0.65721">
        <ele>157.8</ele>
        <time>2012-04-08T07:54:53Z</time>
      </trkpt>
      <trkpt lat="46.99597" lon="-0.65729">
        <ele>157.8</ele>
        <time>2012-04-08T07:54:54Z</time>
      </trkpt>
      <trkpt lat="46.996" lon="-0.65737">
        <ele>157.8</ele>
        <time>2012-04-08T07:54:55Z</time>
      </trkpt>
      <trkpt lat="46.99603" lon="-0.65744">
        <ele>157.8</ele>
        <time>2012-04-08T07:54:56Z</time>
      </trkpt>
      <trkpt lat="46.99606" lon="-0.65751">
        <ele>157.8</ele>
        <time>2012-04-08T07:54:57Z</time>
      </trkpt>
      <trkpt lat="46.99609" lon="-0.65758">
        <ele>157.8</ele>
        <time>2012-04-08T07:54:58Z</time>
      </trkpt>
      <trkpt lat="46.99612" lon="-0.65764">
        <ele>157.8</ele>
        <time>2012-04-08T07:54:59Z</time>
      </trkpt>
      <trkpt lat="46.99615" lon="-0.6577">
        <ele>157.8</ele>
        <time>2012-04-08T07:55:00Z</time>
      </trkpt>
      <trkpt lat="46.99617" lon="-0.65776">
        <ele>157.8</ele>
        <time>2012-04-08T07:55:01Z</time>
      </trkpt>
      <trkpt lat="46.99621" lon="-0.65787">
        <ele>157.8</ele>
        <time>2012-04-08T07:55:03Z</time>
      </trkpt>
      <trkpt lat="46.99625" lon="-0.65798">
        <ele>157.6</ele>
        <time>2012-04-08T07:55:05Z</time>
      </trkpt>
      <trkpt lat="46.99629" lon="-0.65807">
        <ele>157.6</ele>
        <time>2012-04-08T07:55:07Z</time>
      </trkpt>
      <trkpt lat="46.99633" lon="-0.65817">
        <ele>157.6</ele>
        <time>2012-04-08T07:55:09Z</time>
      </trkpt>
      <trkpt lat="46.99636" lon="-0.65826">
        <ele>157.6</ele>
        <time>2012-04-08T07:55:11Z</time>
      </trkpt>
      <trkpt lat="46.9964" lon="-0.65835">
        <ele>157.6</ele>
        <time>2012-04-08T07:55:13Z</time>
      </trkpt>
      <trkpt lat="46.99643" lon="-0.65844">
        <ele>157.5</ele>
        <time>2012-04-08T07:55:15Z</time>
      </trkpt>
      <trkpt lat="46.99646" lon="-0.65852">
        <ele>157.5</ele>
        <time>2012-04-08T07:55:17Z</time>
      </trkpt>
      <trkpt lat="46.99649" lon="-0.6586">
        <ele>157.5</ele>
        <time>2012-04-08T07:55:19Z</time>
      </trkpt>
      <trkpt lat="46.99653" lon="-0.65867">
        <ele>157.5</ele>
        <time>2012-04-08T07:55:21Z</time>
      </trkpt>
      <trkpt lat="46.99656" lon="-0.65875">
        <ele>157.3</ele>
        <time>2012-04-08T07:55:23Z</time>
      </trkpt>
      <trkpt lat="46.99659" lon="-0.65883">
        <ele>157.3</ele>
        <time>2012-04-08T07:55:25Z</time>
      </trkpt>
      <trkpt lat="46.99662" lon="-0.65891">
        <ele>157.3</ele>
        <time>2012-04-08T07:55:27Z</time>
      </trkpt>
      <trkpt lat="46.99666" lon="-0.65902">
        <ele>157.3</ele>
        <time>2012-04-08T07:55:30Z</time>
      </trkpt>
      <trkpt lat="46.9967" lon="-0.65913">
        <ele>157.1</ele>
        <time>2012-04-08T07:55:33Z</time>
      </trkpt>
      <trkpt lat="46.99674" lon="-0.65924">
        <ele>157.1</ele>
        <time>2012-04-08T07:55:36Z</time>
      </trkpt>
      <trkpt lat="46.99679" lon="-0.65935">
        <ele>157.1</ele>
        <time>2012-04-08T07:55:39Z</time>
      </trkpt>
      <trkpt lat="46.99683" lon="-0.65946">
        <ele>157.1</ele>
        <time>2012-04-08T07:55:42Z</time>
      </trkpt>
      <trkpt lat="46.99687" lon="-0.65957">
        <ele>157.1</ele>
        <time>2012-04-08T07:55:45Z</time>
      </trkpt>
      <trkpt lat="46.99689" lon="-0.65961">
        <ele>157.1</ele>
        <time>2012-04-08T07:55:46Z</time>
      </trkpt>
      <trkpt lat="46.99696" lon="-0.65979">
        <ele>157.1</ele>
        <time>2012-04-08T07:55:51Z</time>
      </trkpt>
      <trkpt lat="46.997" lon="-0.6599">
        <ele>157.1</ele>
        <time>2012-04-08T07:55:54Z</time>
      </trkpt>
      <trkpt lat="46.99705" lon="-0.66001">
        <ele>157.1</ele>
        <time>2012-04-08T07:55:57Z</time>
      </trkpt>
      <trkpt lat="46.99708" lon="-0.66009">
        <ele>157.1</ele>
        <time>2012-04-08T07:55:59Z</time>
      </trkpt>
      <trkpt lat="46.99711" lon="-0.66017">
        <ele>157.3</ele>
        <time>2012-04-08T07:56:01Z</time>
      </trkpt>
      <trkpt lat="46.99714" lon="-0.66025">
        <ele>157.3</ele>
        <time>2012-04-08T07:56:03Z</time>
      </trkpt>
      <trkpt lat="46.99718" lon="-0.66034">
        <ele>157.3</ele>
        <time>2012-04-08T07:56:05Z</time>
      </trkpt>
      <trkpt lat="46.99721" lon="-0.66043">
        <ele>157.5</ele>
        <time>2012-04-08T07:56:07Z</time>
      </trkpt>
      <trkpt lat="46.99724" lon="-0.66052">
        <ele>157.5</ele>
        <time>2012-04-08T07:56:09Z</time>
      </trkpt>
      <trkpt lat="46.99728" lon="-0.66061">
        <ele>157.6</ele>
        <time>2012-04-08T07:56:11Z</time>
      </trkpt>
      <trkpt lat="46.99731" lon="-0.6607">
        <ele>157.6</ele>
        <time>2012-04-08T07:56:13Z</time>
      </trkpt>
      <trkpt lat="46.99735" lon="-0.66079">
        <ele>157.6</ele>
        <time>2012-04-08T07:56:15Z</time>
      </trkpt>
      <trkpt lat="46.99739" lon="-0.66089">
        <ele>157.6</ele>
        <time>2012-04-08T07:56:17Z</time>
      </trkpt>
      <trkpt lat="46.99743" lon="-0.66099">
        <ele>158.3</ele>
        <time>2012-04-08T07:56:19Z</time>
      </trkpt>
      <trkpt lat="46.99747" lon="-0.66109">
        <ele>158.6</ele>
        <time>2012-04-08T07:56:21Z</time>
      </trkpt>
      <trkpt lat="46.99751" lon="-0.66118">
        <ele>158.6</ele>
        <time>2012-04-08T07:56:23Z</time>
      </trkpt>
      <trkpt lat="46.99755" lon="-0.66128">
        <ele>158.6</ele>
        <time>2012-04-08T07:56:25Z</time>
      </trkpt>
      <trkpt lat="46.99758" lon="-0.66138">
        <ele>158.6</ele>
        <time>2012-04-08T07:56:27Z</time>
      </trkpt>
      <trkpt lat="46.99762" lon="-0.66148">
        <ele>158.8</ele>
        <time>2012-04-08T07:56:29Z</time>
      </trkpt>
      <trkpt lat="46.99765" lon="-0.66159">
        <ele>158.8</ele>
        <time>2012-04-08T07:56:31Z</time>
      </trkpt>
      <trkpt lat="46.99769" lon="-0.66169">
        <ele>158.8</ele>
        <time>2012-04-08T07:56:33Z</time>
      </trkpt>
      <trkpt lat="46.99773" lon="-0.66179">
        <ele>158.8</ele>
        <time>2012-04-08T07:56:35Z</time>
      </trkpt>
      <trkpt lat="46.99777" lon="-0.6619">
        <ele>159</ele>
        <time>2012-04-08T07:56:37Z</time>
      </trkpt>
      <trkpt lat="46.99782" lon="-0.66201">
        <ele>159.3</ele>
        <time>2012-04-08T07:56:39Z</time>
      </trkpt>
      <trkpt lat="46.99784" lon="-0.66206">
        <ele>159.3</ele>
        <time>2012-04-08T07:56:40Z</time>
      </trkpt>
      <trkpt lat="46.99786" lon="-0.66212">
        <ele>159.6</ele>
        <time>2012-04-08T07:56:41Z</time>
      </trkpt>
      <trkpt lat="46.99791" lon="-0.66223">
        <ele>159.6</ele>
        <time>2012-04-08T07:56:43Z</time>
      </trkpt>
      <trkpt lat="46.99796" lon="-0.66234">
        <ele>159.6</ele>
        <time>2012-04-08T07:56:45Z</time>
      </trkpt>
      <trkpt lat="46.99798" lon="-0.6624">
        <ele>159.6</ele>
        <time>2012-04-08T07:56:46Z</time>
      </trkpt>
      <trkpt lat="46.99801" lon="-0.66245">
        <ele>159.6</ele>
        <time>2012-04-08T07:56:47Z</time>
      </trkpt>
      <trkpt lat="46.99803" lon="-0.66251">
        <ele>159.6</ele>
        <time>2012-04-08T07:56:48Z</time>
      </trkpt>
      <trkpt lat="46.99805" lon="-0.66257">
        <ele>159.8</ele>
        <time>2012-04-08T07:56:49Z</time>
      </trkpt>
      <trkpt lat="46.99807" lon="-0.66263">
        <ele>160.1</ele>
        <time>2012-04-08T07:56:50Z</time>
      </trkpt>
      <trkpt lat="46.99809" lon="-0.66269">
        <ele>160.3</ele>
        <time>2012-04-08T07:56:51Z</time>
      </trkpt>
      <trkpt lat="46.99813" lon="-0.66281">
        <ele>160.8</ele>
        <time>2012-04-08T07:56:53Z</time>
      </trkpt>
      <trkpt lat="46.99817" lon="-0.66293">
        <ele>161.3</ele>
        <time>2012-04-08T07:56:55Z</time>
      </trkpt>
      <trkpt lat="46.99821" lon="-0.66304">
        <ele>161.6</ele>
        <time>2012-04-08T07:56:57Z</time>
      </trkpt>
      <trkpt lat="46.99824" lon="-0.6631">
        <ele>161.8</ele>
        <time>2012-04-08T07:56:58Z</time>
      </trkpt>
      <trkpt lat="46.99826" lon="-0.66315">
        <ele>162</ele>
        <time>2012-04-08T07:56:59Z</time>
      </trkpt>
      <trkpt lat="46.99828" lon="-0.66321">
        <ele>162.1</ele>
        <time>2012-04-08T07:57:00Z</time>
      </trkpt>
      <trkpt lat="46.99831" lon="-0.66327">
        <ele>162.1</ele>
        <time>2012-04-08T07:57:01Z</time>
      </trkpt>
      <trkpt lat="46.99833" lon="-0.66333">
        <ele>162.1</ele>
        <time>2012-04-08T07:57:02Z</time>
      </trkpt>
      <trkpt lat="46.99835" lon="-0.66338">
        <ele>162.1</ele>
        <time>2012-04-08T07:57:03Z</time>
      </trkpt>
      <trkpt lat="46.99838" lon="-0.66344">
        <ele>162.1</ele>
        <time>2012-04-08T07:57:04Z</time>
      </trkpt>
      <trkpt lat="46.9984" lon="-0.6635">
        <ele>162</ele>
        <time>2012-04-08T07:57:05Z</time>
      </trkpt>
      <trkpt lat="46.99842" lon="-0.66355">
        <ele>161.8</ele>
        <time>2012-04-08T07:57:06Z</time>
      </trkpt>
      <trkpt lat="46.99845" lon="-0.66361">
        <ele>161.6</ele>
        <time>2012-04-08T07:57:07Z</time>
      </trkpt>
      <trkpt lat="46.99849" lon="-0.66372">
        <ele>161.1</ele>
        <time>2012-04-08T07:57:09Z</time>
      </trkpt>
      <trkpt lat="46.99854" lon="-0.66383">
        <ele>160.6</ele>
        <time>2012-04-08T07:57:11Z</time>
      </trkpt>
      <trkpt lat="46.99858" lon="-0.66394">
        <ele>160.3</ele>
        <time>2012-04-08T07:57:13Z</time>
      </trkpt>
      <trkpt lat="46.99862" lon="-0.66405">
        <ele>160.1</ele>
        <time>2012-04-08T07:57:15Z</time>
      </trkpt>
      <trkpt lat="46.99866" lon="-0.66416">
        <ele>160</ele>
        <time>2012-04-08T07:57:17Z</time>
      </trkpt>
      <trkpt lat="46.99871" lon="-0.66427">
        <ele>159.8</ele>
        <time>2012-04-08T07:57:19Z</time>
      </trkpt>
      <trkpt lat="46.99875" lon="-0.66438">
        <ele>160.3</ele>
        <time>2012-04-08T07:57:21Z</time>
      </trkpt>
      <trkpt lat="46.99879" lon="-0.66449">
        <ele>161</ele>
        <time>2012-04-08T07:57:23Z</time>
      </trkpt>
      <trkpt lat="46.99883" lon="-0.6646">
        <ele>161.8</ele>
        <time>2012-04-08T07:57:25Z</time>
      </trkpt>
      <trkpt lat="46.99887" lon="-0.66471">
        <ele>162.3</ele>
        <time>2012-04-08T07:57:27Z</time>
      </trkpt>
      <trkpt lat="46.99891" lon="-0.66481">
        <ele>162.8</ele>
        <time>2012-04-08T07:57:29Z</time>
      </trkpt>
      <trkpt lat="46.99895" lon="-0.66491">
        <ele>163.3</ele>
        <time>2012-04-08T07:57:31Z</time>
      </trkpt>
      <trkpt lat="46.99899" lon="-0.66502">
        <ele>163.6</ele>
        <time>2012-04-08T07:57:33Z</time>
      </trkpt>
      <trkpt lat="46.99903" lon="-0.66512">
        <ele>163.8</ele>
        <time>2012-04-08T07:57:35Z</time>
      </trkpt>
      <trkpt lat="46.99907" lon="-0.66522">
        <ele>164</ele>
        <time>2012-04-08T07:57:37Z</time>
      </trkpt>
      <trkpt lat="46.99911" lon="-0.66532">
        <ele>164.1</ele>
        <time>2012-04-08T07:57:39Z</time>
      </trkpt>
      <trkpt lat="46.99915" lon="-0.66542">
        <ele>164</ele>
        <time>2012-04-08T07:57:41Z</time>
      </trkpt>
      <trkpt lat="46.99919" lon="-0.66554">
        <ele>163.8</ele>
        <time>2012-04-08T07:57:43Z</time>
      </trkpt>
      <trkpt lat="46.99923" lon="-0.66565">
        <ele>163.8</ele>
        <time>2012-04-08T07:57:45Z</time>
      </trkpt>
      <trkpt lat="46.99927" lon="-0.66576">
        <ele>164</ele>
        <time>2012-04-08T07:57:47Z</time>
      </trkpt>
      <trkpt lat="46.99929" lon="-0.66582">
        <ele>164.1</ele>
        <time>2012-04-08T07:57:48Z</time>
      </trkpt>
      <trkpt lat="46.99934" lon="-0.66599">
        <ele>164.5</ele>
        <time>2012-04-08T07:57:51Z</time>
      </trkpt>
      <trkpt lat="46.99938" lon="-0.6661">
        <ele>164.8</ele>
        <time>2012-04-08T07:57:53Z</time>
      </trkpt>
      <trkpt lat="46.99943" lon="-0.66621">
        <ele>165.1</ele>
        <time>2012-04-08T07:57:55Z</time>
      </trkpt>
      <trkpt lat="46.99947" lon="-0.66633">
        <ele>165.3</ele>
        <time>2012-04-08T07:57:57Z</time>
      </trkpt>
      <trkpt lat="46.99949" lon="-0.66638">
        <ele>165.5</ele>
        <time>2012-04-08T07:57:58Z</time>
      </trkpt>
      <trkpt lat="46.99954" lon="-0.6665">
        <ele>165.6</ele>
        <time>2012-04-08T07:58:00Z</time>
      </trkpt>
      <trkpt lat="46.99956" lon="-0.66655">
        <ele>165.6</ele>
        <time>2012-04-08T07:58:01Z</time>
      </trkpt>
      <trkpt lat="46.9996" lon="-0.66667">
        <ele>165.6</ele>
        <time>2012-04-08T07:58:03Z</time>
      </trkpt>
      <trkpt lat="46.99965" lon="-0.66678">
        <ele>165.6</ele>
        <time>2012-04-08T07:58:05Z</time>
      </trkpt>
      <trkpt lat="46.99969" lon="-0.66689">
        <ele>165.6</ele>
        <time>2012-04-08T07:58:07Z</time>
      </trkpt>
      <trkpt lat="46.99974" lon="-0.667">
        <ele>165.8</ele>
        <time>2012-04-08T07:58:09Z</time>
      </trkpt>
      <trkpt lat="46.99978" lon="-0.66712">
        <ele>165.8</ele>
        <time>2012-04-08T07:58:11Z</time>
      </trkpt>
      <trkpt lat="46.99982" lon="-0.66722">
        <ele>165.8</ele>
        <time>2012-04-08T07:58:13Z</time>
      </trkpt>
      <trkpt lat="46.99986" lon="-0.66732">
        <ele>165.8</ele>
        <time>2012-04-08T07:58:15Z</time>
      </trkpt>
      <trkpt lat="46.9999" lon="-0.66743">
        <ele>165.8</ele>
        <time>2012-04-08T07:58:17Z</time>
      </trkpt>
      <trkpt lat="46.99994" lon="-0.66752">
        <ele>165.8</ele>
        <time>2012-04-08T07:58:19Z</time>
      </trkpt>
      <trkpt lat="46.99997" lon="-0.66762">
        <ele>166</ele>
        <time>2012-04-08T07:58:21Z</time>
      </trkpt>
      <trkpt lat="47.00001" lon="-0.66771">
        <ele>166</ele>
        <time>2012-04-08T07:58:23Z</time>
      </trkpt>
      <trkpt lat="47.00005" lon="-0.66781">
        <ele>166.1</ele>
        <time>2012-04-08T07:58:26Z</time>
      </trkpt>
      <trkpt lat="47.00006" lon="-0.66793">
        <ele>167.3</ele>
        <time>2012-04-08T07:59:30Z</time>
      </trkpt>
      <trkpt lat="47.00005" lon="-0.66796">
        <ele>167.5</ele>
        <time>2012-04-08T07:59:31Z</time>
      </trkpt>
      <trkpt lat="46.99997" lon="-0.6681">
        <ele>168.1</ele>
        <time>2012-04-08T07:59:36Z</time>
      </trkpt>
      <trkpt lat="46.9999" lon="-0.66816">
        <ele>168.6</ele>
        <time>2012-04-08T07:59:39Z</time>
      </trkpt>
      <trkpt lat="46.99982" lon="-0.66822">
        <ele>169</ele>
        <time>2012-04-08T07:59:42Z</time>
      </trkpt>
      <trkpt lat="46.99976" lon="-0.66826">
        <ele>169.3</ele>
        <time>2012-04-08T07:59:44Z</time>
      </trkpt>
      <trkpt lat="46.9997" lon="-0.66831">
        <ele>169.6</ele>
        <time>2012-04-08T07:59:46Z</time>
      </trkpt>
      <trkpt lat="46.99963" lon="-0.66835">
        <ele>169.8</ele>
        <time>2012-04-08T07:59:48Z</time>
      </trkpt>
      <trkpt lat="46.99957" lon="-0.6684">
        <ele>170</ele>
        <time>2012-04-08T07:59:50Z</time>
      </trkpt>
      <trkpt lat="46.9995" lon="-0.66845">
        <ele>171.3</ele>
        <time>2012-04-08T07:59:52Z</time>
      </trkpt>
      <trkpt lat="46.99943" lon="-0.6685">
        <ele>172.8</ele>
        <time>2012-04-08T07:59:54Z</time>
      </trkpt>
      <trkpt lat="46.99936" lon="-0.66855">
        <ele>174</ele>
        <time>2012-04-08T07:59:56Z</time>
      </trkpt>
      <trkpt lat="46.99929" lon="-0.66861">
        <ele>174.6</ele>
        <time>2012-04-08T07:59:58Z</time>
      </trkpt>
      <trkpt lat="46.99921" lon="-0.66867">
        <ele>175.1</ele>
        <time>2012-04-08T08:00:00Z</time>
      </trkpt>
      <trkpt lat="46.99913" lon="-0.66872">
        <ele>175.5</ele>
        <time>2012-04-08T08:00:02Z</time>
      </trkpt>
      <trkpt lat="46.99905" lon="-0.66878">
        <ele>175.6</ele>
        <time>2012-04-08T08:00:04Z</time>
      </trkpt>
      <trkpt lat="46.99897" lon="-0.66884">
        <ele>175.8</ele>
        <time>2012-04-08T08:00:06Z</time>
      </trkpt>
      <trkpt lat="46.99889" lon="-0.6689">
        <ele>176</ele>
        <time>2012-04-08T08:00:08Z</time>
      </trkpt>
      <trkpt lat="46.99881" lon="-0.66895">
        <ele>176.1</ele>
        <time>2012-04-08T08:00:10Z</time>
      </trkpt>
      <trkpt lat="46.99873" lon="-0.66901">
        <ele>176.1</ele>
        <time>2012-04-08T08:00:12Z</time>
      </trkpt>
      <trkpt lat="46.99869" lon="-0.66904">
        <ele>176.1</ele>
        <time>2012-04-08T08:00:13Z</time>
      </trkpt>
      <trkpt lat="46.99865" lon="-0.66907">
        <ele>176.1</ele>
        <time>2012-04-08T08:00:14Z</time>
      </trkpt>
      <trkpt lat="46.99861" lon="-0.66911">
        <ele>176.3</ele>
        <time>2012-04-08T08:00:15Z</time>
      </trkpt>
      <trkpt lat="46.99857" lon="-0.66913">
        <ele>176.3</ele>
        <time>2012-04-08T08:00:16Z</time>
      </trkpt>
      <trkpt lat="46.99848" lon="-0.66919">
        <ele>176.3</ele>
        <time>2012-04-08T08:00:18Z</time>
      </trkpt>
      <trkpt lat="46.9984" lon="-0.66925">
        <ele>176.3</ele>
        <time>2012-04-08T08:00:20Z</time>
      </trkpt>
      <trkpt lat="46.99836" lon="-0.66928">
        <ele>176.3</ele>
        <time>2012-04-08T08:00:21Z</time>
      </trkpt>
      <trkpt lat="46.99832" lon="-0.66931">
        <ele>176.3</ele>
        <time>2012-04-08T08:00:22Z</time>
      </trkpt>
      <trkpt lat="46.99828" lon="-0.66934">
        <ele>176.3</ele>
        <time>2012-04-08T08:00:23Z</time>
      </trkpt>
      <trkpt lat="46.99824" lon="-0.66937">
        <ele>176.3</ele>
        <time>2012-04-08T08:00:24Z</time>
      </trkpt>
      <trkpt lat="46.9982" lon="-0.6694">
        <ele>176.3</ele>
        <time>2012-04-08T08:00:25Z</time>
      </trkpt>
      <trkpt lat="46.99815" lon="-0.66943">
        <ele>176.3</ele>
        <time>2012-04-08T08:00:26Z</time>
      </trkpt>
      <trkpt lat="46.99811" lon="-0.66946">
        <ele>176.5</ele>
        <time>2012-04-08T08:00:27Z</time>
      </trkpt>
      <trkpt lat="46.99807" lon="-0.6695">
        <ele>176.5</ele>
        <time>2012-04-08T08:00:28Z</time>
      </trkpt>
      <trkpt lat="46.99802" lon="-0.66953">
        <ele>176.6</ele>
        <time>2012-04-08T08:00:29Z</time>
      </trkpt>
      <trkpt lat="46.99798" lon="-0.66956">
        <ele>176.6</ele>
        <time>2012-04-08T08:00:30Z</time>
      </trkpt>
      <trkpt lat="46.99794" lon="-0.6696">
        <ele>176.6</ele>
        <time>2012-04-08T08:00:31Z</time>
      </trkpt>
      <trkpt lat="46.9979" lon="-0.66963">
        <ele>176.6</ele>
        <time>2012-04-08T08:00:32Z</time>
      </trkpt>
      <trkpt lat="46.99786" lon="-0.66967">
        <ele>176.6</ele>
        <time>2012-04-08T08:00:33Z</time>
      </trkpt>
      <trkpt lat="46.99782" lon="-0.66971">
        <ele>176.6</ele>
        <time>2012-04-08T08:00:34Z</time>
      </trkpt>
      <trkpt lat="46.99777" lon="-0.66974">
        <ele>176.6</ele>
        <time>2012-04-08T08:00:35Z</time>
      </trkpt>
      <trkpt lat="46.99773" lon="-0.66978">
        <ele>176.8</ele>
        <time>2012-04-08T08:00:36Z</time>
      </trkpt>
      <trkpt lat="46.99769" lon="-0.66982">
        <ele>176.8</ele>
        <time>2012-04-08T08:00:37Z</time>
      </trkpt>
      <trkpt lat="46.99765" lon="-0.66985">
        <ele>176.8</ele>
        <time>2012-04-08T08:00:38Z</time>
      </trkpt>
      <trkpt lat="46.9976" lon="-0.66989">
        <ele>176.8</ele>
        <time>2012-04-08T08:00:39Z</time>
      </trkpt>
      <trkpt lat="46.99756" lon="-0.66993">
        <ele>176.8</ele>
        <time>2012-04-08T08:00:40Z</time>
      </trkpt>
      <trkpt lat="46.99751" lon="-0.66997">
        <ele>176.8</ele>
        <time>2012-04-08T08:00:41Z</time>
      </trkpt>
      <trkpt lat="46.99747" lon="-0.67001">
        <ele>177</ele>
        <time>2012-04-08T08:00:42Z</time>
      </trkpt>
      <trkpt lat="46.99742" lon="-0.67005">
        <ele>177</ele>
        <time>2012-04-08T08:00:43Z</time>
      </trkpt>
      <trkpt lat="46.99738" lon="-0.67009">
        <ele>177</ele>
        <time>2012-04-08T08:00:44Z</time>
      </trkpt>
      <trkpt lat="46.99733" lon="-0.67014">
        <ele>177.1</ele>
        <time>2012-04-08T08:00:45Z</time>
      </trkpt>
      <trkpt lat="46.99729" lon="-0.67018">
        <ele>177.1</ele>
        <time>2012-04-08T08:00:46Z</time>
      </trkpt>
      <trkpt lat="46.99724" lon="-0.67022">
        <ele>177.1</ele>
        <time>2012-04-08T08:00:47Z</time>
      </trkpt>
      <trkpt lat="46.9972" lon="-0.67026">
        <ele>177.1</ele>
        <time>2012-04-08T08:00:48Z</time>
      </trkpt>
      <trkpt lat="46.99716" lon="-0.6703">
        <ele>177</ele>
        <time>2012-04-08T08:00:49Z</time>
      </trkpt>
      <trkpt lat="46.99708" lon="-0.67035">
        <ele>176.8</ele>
        <time>2012-04-08T08:00:51Z</time>
      </trkpt>
      <trkpt lat="46.99701" lon="-0.67031">
        <ele>176.8</ele>
        <time>2012-04-08T08:00:53Z</time>
      </trkpt>
      <trkpt lat="46.99696" lon="-0.67022">
        <ele>176.8</ele>
        <time>2012-04-08T08:00:55Z</time>
      </trkpt>
      <trkpt lat="46.99694" lon="-0.67016">
        <ele>176.6</ele>
        <time>2012-04-08T08:00:56Z</time>
      </trkpt>
      <trkpt lat="46.99691" lon="-0.6701">
        <ele>176.6</ele>
        <time>2012-04-08T08:00:57Z</time>
      </trkpt>
      <trkpt lat="46.99689" lon="-0.67004">
        <ele>176.6</ele>
        <time>2012-04-08T08:00:58Z</time>
      </trkpt>
      <trkpt lat="46.99687" lon="-0.66998">
        <ele>176.5</ele>
        <time>2012-04-08T08:00:59Z</time>
      </trkpt>
      <trkpt lat="46.99685" lon="-0.66992">
        <ele>176.3</ele>
        <time>2012-04-08T08:01:00Z</time>
      </trkpt>
      <trkpt lat="46.99682" lon="-0.66986">
        <ele>176.3</ele>
        <time>2012-04-08T08:01:01Z</time>
      </trkpt>
      <trkpt lat="46.9968" lon="-0.6698">
        <ele>176.3</ele>
        <time>2012-04-08T08:01:02Z</time>
      </trkpt>
      <trkpt lat="46.99677" lon="-0.66975">
        <ele>176.1</ele>
        <time>2012-04-08T08:01:03Z</time>
      </trkpt>
      <trkpt lat="46.99674" lon="-0.66969">
        <ele>176.1</ele>
        <time>2012-04-08T08:01:04Z</time>
      </trkpt>
      <trkpt lat="46.99672" lon="-0.66963">
        <ele>176.1</ele>
        <time>2012-04-08T08:01:05Z</time>
      </trkpt>
      <trkpt lat="46.99669" lon="-0.66958">
        <ele>176.1</ele>
        <time>2012-04-08T08:01:06Z</time>
      </trkpt>
      <trkpt lat="46.99667" lon="-0.66952">
        <ele>176.1</ele>
        <time>2012-04-08T08:01:07Z</time>
      </trkpt>
      <trkpt lat="46.99664" lon="-0.66946">
        <ele>176.1</ele>
        <time>2012-04-08T08:01:08Z</time>
      </trkpt>
      <trkpt lat="46.99662" lon="-0.6694">
        <ele>176</ele>
        <time>2012-04-08T08:01:09Z</time>
      </trkpt>
      <trkpt lat="46.9966" lon="-0.66934">
        <ele>176</ele>
        <time>2012-04-08T08:01:10Z</time>
      </trkpt>
      <trkpt lat="46.99655" lon="-0.66923">
        <ele>176</ele>
        <time>2012-04-08T08:01:12Z</time>
      </trkpt>
      <trkpt lat="46.9965" lon="-0.66913">
        <ele>175.8</ele>
        <time>2012-04-08T08:01:14Z</time>
      </trkpt>
      <trkpt lat="46.99643" lon="-0.66907">
        <ele>175.8</ele>
        <time>2012-04-08T08:01:16Z</time>
      </trkpt>
      <trkpt lat="46.99635" lon="-0.66906">
        <ele>175.8</ele>
        <time>2012-04-08T08:01:18Z</time>
      </trkpt>
      <trkpt lat="46.99626" lon="-0.66908">
        <ele>175.8</ele>
        <time>2012-04-08T08:01:20Z</time>
      </trkpt>
      <trkpt lat="46.99622" lon="-0.6691">
        <ele>175.6</ele>
        <time>2012-04-08T08:01:21Z</time>
      </trkpt>
      <trkpt lat="46.99617" lon="-0.66912">
        <ele>175.6</ele>
        <time>2012-04-08T08:01:22Z</time>
      </trkpt>
      <trkpt lat="46.99609" lon="-0.66917">
        <ele>175.6</ele>
        <time>2012-04-08T08:01:24Z</time>
      </trkpt>
      <trkpt lat="46.99601" lon="-0.66922">
        <ele>175.6</ele>
        <time>2012-04-08T08:01:26Z</time>
      </trkpt>
      <trkpt lat="46.99594" lon="-0.66927">
        <ele>175.6</ele>
        <time>2012-04-08T08:01:28Z</time>
      </trkpt>
      <trkpt lat="46.99586" lon="-0.66931">
        <ele>175.6</ele>
        <time>2012-04-08T08:01:30Z</time>
      </trkpt>
      <trkpt lat="46.99578" lon="-0.66935">
        <ele>175.6</ele>
        <time>2012-04-08T08:01:32Z</time>
      </trkpt>
      <trkpt lat="46.99574" lon="-0.66937">
        <ele>175.6</ele>
        <time>2012-04-08T08:01:33Z</time>
      </trkpt>
      <trkpt lat="46.99562" lon="-0.66943">
        <ele>175.6</ele>
        <time>2012-04-08T08:01:36Z</time>
      </trkpt>
      <trkpt lat="46.99557" lon="-0.66945">
        <ele>175.8</ele>
        <time>2012-04-08T08:01:37Z</time>
      </trkpt>
      <trkpt lat="46.99553" lon="-0.66948">
        <ele>175.8</ele>
        <time>2012-04-08T08:01:38Z</time>
      </trkpt>
      <trkpt lat="46.99548" lon="-0.6695">
        <ele>175.8</ele>
        <time>2012-04-08T08:01:39Z</time>
      </trkpt>
      <trkpt lat="46.99543" lon="-0.66953">
        <ele>176</ele>
        <time>2012-04-08T08:01:40Z</time>
      </trkpt>
      <trkpt lat="46.99538" lon="-0.66955">
        <ele>176</ele>
        <time>2012-04-08T08:01:41Z</time>
      </trkpt>
      <trkpt lat="46.99532" lon="-0.66958">
        <ele>176</ele>
        <time>2012-04-08T08:01:42Z</time>
      </trkpt>
      <trkpt lat="46.99526" lon="-0.66961">
        <ele>176</ele>
        <time>2012-04-08T08:01:43Z</time>
      </trkpt>
      <trkpt lat="46.9952" lon="-0.66964">
        <ele>176.1</ele>
        <time>2012-04-08T08:01:44Z</time>
      </trkpt>
      <trkpt lat="46.99515" lon="-0.66967">
        <ele>176.1</ele>
        <time>2012-04-08T08:01:45Z</time>
      </trkpt>
      <trkpt lat="46.99509" lon="-0.6697">
        <ele>176.1</ele>
        <time>2012-04-08T08:01:46Z</time>
      </trkpt>
      <trkpt lat="46.99502" lon="-0.66973">
        <ele>176.1</ele>
        <time>2012-04-08T08:01:47Z</time>
      </trkpt>
      <trkpt lat="46.99496" lon="-0.66976">
        <ele>176.1</ele>
        <time>2012-04-08T08:01:48Z</time>
      </trkpt>
      <trkpt lat="46.9949" lon="-0.66978">
        <ele>176.1</ele>
        <time>2012-04-08T08:01:49Z</time>
      </trkpt>
      <trkpt lat="46.99484" lon="-0.66981">
        <ele>176.1</ele>
        <time>2012-04-08T08:01:50Z</time>
      </trkpt>
      <trkpt lat="46.99478" lon="-0.66984">
        <ele>176</ele>
        <time>2012-04-08T08:01:51Z</time>
      </trkpt>
      <trkpt lat="46.99472" lon="-0.66987">
        <ele>176.1</ele>
        <time>2012-04-08T08:01:52Z</time>
      </trkpt>
      <trkpt lat="46.99465" lon="-0.6699">
        <ele>176.1</ele>
        <time>2012-04-08T08:01:53Z</time>
      </trkpt>
      <trkpt lat="46.99459" lon="-0.66993">
        <ele>176.1</ele>
        <time>2012-04-08T08:01:54Z</time>
      </trkpt>
      <trkpt lat="46.99452" lon="-0.66996">
        <ele>176.1</ele>
        <time>2012-04-08T08:01:55Z</time>
      </trkpt>
      <trkpt lat="46.99446" lon="-0.66999">
        <ele>176.1</ele>
        <time>2012-04-08T08:01:56Z</time>
      </trkpt>
      <trkpt lat="46.99439" lon="-0.67002">
        <ele>176.1</ele>
        <time>2012-04-08T08:01:57Z</time>
      </trkpt>
      <trkpt lat="46.99432" lon="-0.67005">
        <ele>176.3</ele>
        <time>2012-04-08T08:01:58Z</time>
      </trkpt>
      <trkpt lat="46.99426" lon="-0.67007">
        <ele>176.3</ele>
        <time>2012-04-08T08:01:59Z</time>
      </trkpt>
      <trkpt lat="46.99419" lon="-0.67009">
        <ele>176.3</ele>
        <time>2012-04-08T08:02:00Z</time>
      </trkpt>
      <trkpt lat="46.99413" lon="-0.6701">
        <ele>176.3</ele>
        <time>2012-04-08T08:02:01Z</time>
      </trkpt>
      <trkpt lat="46.99407" lon="-0.67012">
        <ele>176.3</ele>
        <time>2012-04-08T08:02:02Z</time>
      </trkpt>
      <trkpt lat="46.994" lon="-0.67013">
        <ele>176.3</ele>
        <time>2012-04-08T08:02:03Z</time>
      </trkpt>
      <trkpt lat="46.99394" lon="-0.67014">
        <ele>176.3</ele>
        <time>2012-04-08T08:02:04Z</time>
      </trkpt>
      <trkpt lat="46.99388" lon="-0.67016">
        <ele>176.1</ele>
        <time>2012-04-08T08:02:05Z</time>
      </trkpt>
      <trkpt lat="46.99382" lon="-0.67017">
        <ele>176.1</ele>
        <time>2012-04-08T08:02:06Z</time>
      </trkpt>
      <trkpt lat="46.99376" lon="-0.67019">
        <ele>176</ele>
        <time>2012-04-08T08:02:07Z</time>
      </trkpt>
      <trkpt lat="46.9937" lon="-0.6702">
        <ele>176</ele>
        <time>2012-04-08T08:02:08Z</time>
      </trkpt>
      <trkpt lat="46.99364" lon="-0.67022">
        <ele>175.8</ele>
        <time>2012-04-08T08:02:09Z</time>
      </trkpt>
      <trkpt lat="46.99358" lon="-0.67023">
        <ele>175.8</ele>
        <time>2012-04-08T08:02:10Z</time>
      </trkpt>
      <trkpt lat="46.99352" lon="-0.67024">
        <ele>175.8</ele>
        <time>2012-04-08T08:02:11Z</time>
      </trkpt>
      <trkpt lat="46.99347" lon="-0.67025">
        <ele>175.6</ele>
        <time>2012-04-08T08:02:12Z</time>
      </trkpt>
      <trkpt lat="46.99342" lon="-0.67026">
        <ele>175.6</ele>
        <time>2012-04-08T08:02:13Z</time>
      </trkpt>
      <trkpt lat="46.99337" lon="-0.67027">
        <ele>175.6</ele>
        <time>2012-04-08T08:02:14Z</time>
      </trkpt>
      <trkpt lat="46.99332" lon="-0.67028">
        <ele>175.6</ele>
        <time>2012-04-08T08:02:15Z</time>
      </trkpt>
      <trkpt lat="46.99327" lon="-0.67028">
        <ele>175.5</ele>
        <time>2012-04-08T08:02:16Z</time>
      </trkpt>
      <trkpt lat="46.99322" lon="-0.67029">
        <ele>175.5</ele>
        <time>2012-04-08T08:02:17Z</time>
      </trkpt>
      <trkpt lat="46.99317" lon="-0.6703">
        <ele>175.5</ele>
        <time>2012-04-08T08:02:18Z</time>
      </trkpt>
      <trkpt lat="46.99312" lon="-0.67031">
        <ele>175.3</ele>
        <time>2012-04-08T08:02:19Z</time>
      </trkpt>
      <trkpt lat="46.99308" lon="-0.67032">
        <ele>175.3</ele>
        <time>2012-04-08T08:02:20Z</time>
      </trkpt>
      <trkpt lat="46.99303" lon="-0.67032">
        <ele>175.3</ele>
        <time>2012-04-08T08:02:21Z</time>
      </trkpt>
      <trkpt lat="46.99294" lon="-0.67032">
        <ele>175.1</ele>
        <time>2012-04-08T08:02:23Z</time>
      </trkpt>
      <trkpt lat="46.99286" lon="-0.6703">
        <ele>175.1</ele>
        <time>2012-04-08T08:02:25Z</time>
      </trkpt>
      <trkpt lat="46.99278" lon="-0.67032">
        <ele>174.8</ele>
        <time>2012-04-08T08:02:27Z</time>
      </trkpt>
      <trkpt lat="46.99271" lon="-0.67037">
        <ele>174.8</ele>
        <time>2012-04-08T08:02:29Z</time>
      </trkpt>
      <trkpt lat="46.99263" lon="-0.67042">
        <ele>174.8</ele>
        <time>2012-04-08T08:02:31Z</time>
      </trkpt>
      <trkpt lat="46.99259" lon="-0.67044">
        <ele>174.8</ele>
        <time>2012-04-08T08:02:32Z</time>
      </trkpt>
      <trkpt lat="46.99254" lon="-0.67046">
        <ele>174.8</ele>
        <time>2012-04-08T08:02:33Z</time>
      </trkpt>
      <trkpt lat="46.9925" lon="-0.67048">
        <ele>174.8</ele>
        <time>2012-04-08T08:02:34Z</time>
      </trkpt>
      <trkpt lat="46.99245" lon="-0.6705">
        <ele>174.8</ele>
        <time>2012-04-08T08:02:35Z</time>
      </trkpt>
      <trkpt lat="46.99241" lon="-0.67053">
        <ele>174.6</ele>
        <time>2012-04-08T08:02:36Z</time>
      </trkpt>
      <trkpt lat="46.99237" lon="-0.67055">
        <ele>174.6</ele>
        <time>2012-04-08T08:02:37Z</time>
      </trkpt>
      <trkpt lat="46.99228" lon="-0.67059">
        <ele>174.6</ele>
        <time>2012-04-08T08:02:39Z</time>
      </trkpt>
      <trkpt lat="46.99221" lon="-0.67063">
        <ele>174.5</ele>
        <time>2012-04-08T08:02:41Z</time>
      </trkpt>
      <trkpt lat="46.99214" lon="-0.67064">
        <ele>174.3</ele>
        <time>2012-04-08T08:02:43Z</time>
      </trkpt>
      <trkpt lat="46.99207" lon="-0.6706">
        <ele>174.3</ele>
        <time>2012-04-08T08:02:45Z</time>
      </trkpt>
      <trkpt lat="46.99202" lon="-0.67054">
        <ele>174.3</ele>
        <time>2012-04-08T08:02:47Z</time>
      </trkpt>
      <trkpt lat="46.99198" lon="-0.67047">
        <ele>174.3</ele>
        <time>2012-04-08T08:02:49Z</time>
      </trkpt>
      <trkpt lat="46.99193" lon="-0.6704">
        <ele>174.3</ele>
        <time>2012-04-08T08:02:51Z</time>
      </trkpt>
      <trkpt lat="46.99188" lon="-0.67034">
        <ele>174.3</ele>
        <time>2012-04-08T08:02:53Z</time>
      </trkpt>
      <trkpt lat="46.99183" lon="-0.67028">
        <ele>174.1</ele>
        <time>2012-04-08T08:02:55Z</time>
      </trkpt>
      <trkpt lat="46.99177" lon="-0.67022">
        <ele>174.1</ele>
        <time>2012-04-08T08:02:57Z</time>
      </trkpt>
      <trkpt lat="46.99172" lon="-0.67016">
        <ele>174.1</ele>
        <time>2012-04-08T08:02:59Z</time>
      </trkpt>
      <trkpt lat="46.99167" lon="-0.67009">
        <ele>174.1</ele>
        <time>2012-04-08T08:03:01Z</time>
      </trkpt>
      <trkpt lat="46.99162" lon="-0.66999">
        <ele>174</ele>
        <time>2012-04-08T08:03:04Z</time>
      </trkpt>
      <trkpt lat="46.99158" lon="-0.66993">
        <ele>174</ele>
        <time>2012-04-08T08:03:06Z</time>
      </trkpt>
      <trkpt lat="46.99153" lon="-0.66982">
        <ele>174</ele>
        <time>2012-04-08T08:03:09Z</time>
      </trkpt>
      <trkpt lat="46.99149" lon="-0.66975">
        <ele>173.8</ele>
        <time>2012-04-08T08:03:11Z</time>
      </trkpt>
      <trkpt lat="46.99145" lon="-0.66968">
        <ele>173.8</ele>
        <time>2012-04-08T08:03:13Z</time>
      </trkpt>
      <trkpt lat="46.99141" lon="-0.66961">
        <ele>173.8</ele>
        <time>2012-04-08T08:03:15Z</time>
      </trkpt>
      <trkpt lat="46.99137" lon="-0.66954">
        <ele>173.8</ele>
        <time>2012-04-08T08:03:17Z</time>
      </trkpt>
      <trkpt lat="46.99133" lon="-0.66947">
        <ele>173.8</ele>
        <time>2012-04-08T08:03:19Z</time>
      </trkpt>
      <trkpt lat="46.99129" lon="-0.6694">
        <ele>173.8</ele>
        <time>2012-04-08T08:03:21Z</time>
      </trkpt>
      <trkpt lat="46.99125" lon="-0.66934">
        <ele>173.8</ele>
        <time>2012-04-08T08:03:23Z</time>
      </trkpt>
      <trkpt lat="46.99121" lon="-0.66926">
        <ele>173.8</ele>
        <time>2012-04-08T08:03:25Z</time>
      </trkpt>
      <trkpt lat="46.99116" lon="-0.66919">
        <ele>173.8</ele>
        <time>2012-04-08T08:03:27Z</time>
      </trkpt>
      <trkpt lat="46.99111" lon="-0.66911">
        <ele>173.8</ele>
        <time>2012-04-08T08:03:29Z</time>
      </trkpt>
      <trkpt lat="46.99107" lon="-0.66903">
        <ele>173.8</ele>
        <time>2012-04-08T08:03:31Z</time>
      </trkpt>
      <trkpt lat="46.99102" lon="-0.66895">
        <ele>173.8</ele>
        <time>2012-04-08T08:03:33Z</time>
      </trkpt>
      <trkpt lat="46.99098" lon="-0.66886">
        <ele>173.8</ele>
        <time>2012-04-08T08:03:35Z</time>
      </trkpt>
      <trkpt lat="46.99097" lon="-0.66881">
        <ele>173.8</ele>
        <time>2012-04-08T08:03:36Z</time>
      </trkpt>
      <trkpt lat="46.99091" lon="-0.66867">
        <ele>174.1</ele>
        <time>2012-04-08T08:03:39Z</time>
      </trkpt>
      <trkpt lat="46.99086" lon="-0.66857">
        <ele>174.1</ele>
        <time>2012-04-08T08:03:41Z</time>
      </trkpt>
      <trkpt lat="46.99082" lon="-0.66847">
        <ele>174.3</ele>
        <time>2012-04-08T08:03:43Z</time>
      </trkpt>
      <trkpt lat="46.99077" lon="-0.66838">
        <ele>174.5</ele>
        <time>2012-04-08T08:03:45Z</time>
      </trkpt>
      <trkpt lat="46.99073" lon="-0.66829">
        <ele>174.5</ele>
        <time>2012-04-08T08:03:47Z</time>
      </trkpt>
      <trkpt lat="46.99067" lon="-0.6682">
        <ele>174.5</ele>
        <time>2012-04-08T08:03:49Z</time>
      </trkpt>
      <trkpt lat="46.99062" lon="-0.66812">
        <ele>174.5</ele>
        <time>2012-04-08T08:03:51Z</time>
      </trkpt>
      <trkpt lat="46.99057" lon="-0.66803">
        <ele>174.3</ele>
        <time>2012-04-08T08:03:53Z</time>
      </trkpt>
      <trkpt lat="46.99051" lon="-0.66796">
        <ele>174.3</ele>
        <time>2012-04-08T08:03:55Z</time>
      </trkpt>
      <trkpt lat="46.99043" lon="-0.6679">
        <ele>174.3</ele>
        <time>2012-04-08T08:03:58Z</time>
      </trkpt>
      <trkpt lat="46.99036" lon="-0.66784">
        <ele>174.3</ele>
        <time>2012-04-08T08:04:01Z</time>
      </trkpt>
      <trkpt lat="46.99031" lon="-0.66779">
        <ele>174.3</ele>
        <time>2012-04-08T08:04:03Z</time>
      </trkpt>
      <trkpt lat="46.99025" lon="-0.66774">
        <ele>174.3</ele>
        <time>2012-04-08T08:04:05Z</time>
      </trkpt>
      <trkpt lat="46.9902" lon="-0.66769">
        <ele>174.3</ele>
        <time>2012-04-08T08:04:07Z</time>
      </trkpt>
      <trkpt lat="46.99014" lon="-0.66765">
        <ele>174.3</ele>
        <time>2012-04-08T08:04:09Z</time>
      </trkpt>
      <trkpt lat="46.99007" lon="-0.66761">
        <ele>174.3</ele>
        <time>2012-04-08T08:04:11Z</time>
      </trkpt>
      <trkpt lat="46.99" lon="-0.66756">
        <ele>174.3</ele>
        <time>2012-04-08T08:04:13Z</time>
      </trkpt>
      <trkpt lat="46.98993" lon="-0.66752">
        <ele>174.3</ele>
        <time>2012-04-08T08:04:15Z</time>
      </trkpt>
      <trkpt lat="46.98985" lon="-0.66749">
        <ele>174.3</ele>
        <time>2012-04-08T08:04:17Z</time>
      </trkpt>
      <trkpt lat="46.98978" lon="-0.66746">
        <ele>174.5</ele>
        <time>2012-04-08T08:04:19Z</time>
      </trkpt>
      <trkpt lat="46.98971" lon="-0.66742">
        <ele>174.6</ele>
        <time>2012-04-08T08:04:21Z</time>
      </trkpt>
      <trkpt lat="46.98964" lon="-0.66739">
        <ele>174.6</ele>
        <time>2012-04-08T08:04:23Z</time>
      </trkpt>
      <trkpt lat="46.98958" lon="-0.66737">
        <ele>174.6</ele>
        <time>2012-04-08T08:04:25Z</time>
      </trkpt>
      <trkpt lat="46.98952" lon="-0.66735">
        <ele>174.8</ele>
        <time>2012-04-08T08:04:27Z</time>
      </trkpt>
      <trkpt lat="46.98946" lon="-0.66732">
        <ele>174.8</ele>
        <time>2012-04-08T08:04:29Z</time>
      </trkpt>
      <trkpt lat="46.9894" lon="-0.6673">
        <ele>174.8</ele>
        <time>2012-04-08T08:04:31Z</time>
      </trkpt>
      <trkpt lat="46.98932" lon="-0.66726">
        <ele>175</ele>
        <time>2012-04-08T08:04:34Z</time>
      </trkpt>
      <trkpt lat="46.98924" lon="-0.66722">
        <ele>175.1</ele>
        <time>2012-04-08T08:04:37Z</time>
      </trkpt>
      <trkpt lat="46.98922" lon="-0.66721">
        <ele>175.1</ele>
        <time>2012-04-08T08:04:38Z</time>
      </trkpt>
      <trkpt lat="46.98909" lon="-0.66719">
        <ele>175.3</ele>
        <time>2012-04-08T08:04:58Z</time>
      </trkpt>
      <trkpt lat="46.98901" lon="-0.66718">
        <ele>175.3</ele>
        <time>2012-04-08T08:05:02Z</time>
      </trkpt>
      <trkpt lat="46.98893" lon="-0.66717">
        <ele>175.5</ele>
        <time>2012-04-08T08:05:05Z</time>
      </trkpt>
      <trkpt lat="46.98885" lon="-0.66715">
        <ele>175.6</ele>
        <time>2012-04-08T08:05:08Z</time>
      </trkpt>
      <trkpt lat="46.98879" lon="-0.66714">
        <ele>175.6</ele>
        <time>2012-04-08T08:05:10Z</time>
      </trkpt>
      <trkpt lat="46.98872" lon="-0.66714">
        <ele>175.6</ele>
        <time>2012-04-08T08:05:12Z</time>
      </trkpt>
      <trkpt lat="46.98866" lon="-0.66714">
        <ele>175.8</ele>
        <time>2012-04-08T08:05:14Z</time>
      </trkpt>
      <trkpt lat="46.98859" lon="-0.66713">
        <ele>175.8</ele>
        <time>2012-04-08T08:05:16Z</time>
      </trkpt>
      <trkpt lat="46.9885" lon="-0.66712">
        <ele>175.8</ele>
        <time>2012-04-08T08:05:19Z</time>
      </trkpt>
      <trkpt lat="46.98844" lon="-0.6671">
        <ele>176</ele>
        <time>2012-04-08T08:05:21Z</time>
      </trkpt>
      <trkpt lat="46.98836" lon="-0.66708">
        <ele>176.1</ele>
        <time>2012-04-08T08:05:24Z</time>
      </trkpt>
      <trkpt lat="46.98827" lon="-0.66707">
        <ele>176.1</ele>
        <time>2012-04-08T08:05:27Z</time>
      </trkpt>
      <trkpt lat="46.98821" lon="-0.6671">
        <ele>176.1</ele>
        <time>2012-04-08T08:05:29Z</time>
      </trkpt>
      <trkpt lat="46.98814" lon="-0.66713">
        <ele>176.1</ele>
        <time>2012-04-08T08:05:31Z</time>
      </trkpt>
      <trkpt lat="46.98807" lon="-0.66716">
        <ele>176.1</ele>
        <time>2012-04-08T08:05:33Z</time>
      </trkpt>
      <trkpt lat="46.98801" lon="-0.66718">
        <ele>176.1</ele>
        <time>2012-04-08T08:05:35Z</time>
      </trkpt>
      <trkpt lat="46.98795" lon="-0.66721">
        <ele>176.1</ele>
        <time>2012-04-08T08:05:37Z</time>
      </trkpt>
      <trkpt lat="46.98789" lon="-0.66724">
        <ele>176.1</ele>
        <time>2012-04-08T08:05:39Z</time>
      </trkpt>
      <trkpt lat="46.98786" lon="-0.66725">
        <ele>176.1</ele>
        <time>2012-04-08T08:05:40Z</time>
      </trkpt>
      <trkpt lat="46.98777" lon="-0.66731">
        <ele>176.1</ele>
        <time>2012-04-08T08:05:43Z</time>
      </trkpt>
      <trkpt lat="46.9877" lon="-0.66736">
        <ele>176.1</ele>
        <time>2012-04-08T08:05:45Z</time>
      </trkpt>
      <trkpt lat="46.98764" lon="-0.6674">
        <ele>176</ele>
        <time>2012-04-08T08:05:47Z</time>
      </trkpt>
      <trkpt lat="46.98758" lon="-0.66745">
        <ele>176</ele>
        <time>2012-04-08T08:05:49Z</time>
      </trkpt>
      <trkpt lat="46.98752" lon="-0.6675">
        <ele>176</ele>
        <time>2012-04-08T08:05:51Z</time>
      </trkpt>
      <trkpt lat="46.98746" lon="-0.66755">
        <ele>175.8</ele>
        <time>2012-04-08T08:05:53Z</time>
      </trkpt>
      <trkpt lat="46.9874" lon="-0.6676">
        <ele>175.8</ele>
        <time>2012-04-08T08:05:55Z</time>
      </trkpt>
      <trkpt lat="46.98734" lon="-0.66765">
        <ele>175.8</ele>
        <time>2012-04-08T08:05:57Z</time>
      </trkpt>
      <trkpt lat="46.98728" lon="-0.66771">
        <ele>175.8</ele>
        <time>2012-04-08T08:05:59Z</time>
      </trkpt>
      <trkpt lat="46.98721" lon="-0.66777">
        <ele>175.6</ele>
        <time>2012-04-08T08:06:01Z</time>
      </trkpt>
      <trkpt lat="46.98715" lon="-0.66784">
        <ele>175.3</ele>
        <time>2012-04-08T08:06:03Z</time>
      </trkpt>
      <trkpt lat="46.98708" lon="-0.66792">
        <ele>174.8</ele>
        <time>2012-04-08T08:06:05Z</time>
      </trkpt>
      <trkpt lat="46.98702" lon="-0.66799">
        <ele>174.8</ele>
        <time>2012-04-08T08:06:07Z</time>
      </trkpt>
      <trkpt lat="46.98695" lon="-0.66805">
        <ele>174.6</ele>
        <time>2012-04-08T08:06:09Z</time>
      </trkpt>
      <trkpt lat="46.98689" lon="-0.66811">
        <ele>174.6</ele>
        <time>2012-04-08T08:06:11Z</time>
      </trkpt>
      <trkpt lat="46.98683" lon="-0.66817">
        <ele>174.6</ele>
        <time>2012-04-08T08:06:13Z</time>
      </trkpt>
      <trkpt lat="46.98678" lon="-0.66823">
        <ele>174.6</ele>
        <time>2012-04-08T08:06:15Z</time>
      </trkpt>
      <trkpt lat="46.98673" lon="-0.6683">
        <ele>174.6</ele>
        <time>2012-04-08T08:06:17Z</time>
      </trkpt>
      <trkpt lat="46.98668" lon="-0.66837">
        <ele>174.6</ele>
        <time>2012-04-08T08:06:19Z</time>
      </trkpt>
      <trkpt lat="46.98664" lon="-0.66845">
        <ele>174.6</ele>
        <time>2012-04-08T08:06:21Z</time>
      </trkpt>
      <trkpt lat="46.9866" lon="-0.66853">
        <ele>174.6</ele>
        <time>2012-04-08T08:06:23Z</time>
      </trkpt>
      <trkpt lat="46.98656" lon="-0.66862">
        <ele>174.6</ele>
        <time>2012-04-08T08:06:25Z</time>
      </trkpt>
      <trkpt lat="46.98653" lon="-0.66872">
        <ele>174.6</ele>
        <time>2012-04-08T08:06:27Z</time>
      </trkpt>
      <trkpt lat="46.98651" lon="-0.66882">
        <ele>174.6</ele>
        <time>2012-04-08T08:06:29Z</time>
      </trkpt>
      <trkpt lat="46.98648" lon="-0.66893">
        <ele>174.6</ele>
        <time>2012-04-08T08:06:31Z</time>
      </trkpt>
      <trkpt lat="46.98646" lon="-0.66903">
        <ele>174.6</ele>
        <time>2012-04-08T08:06:33Z</time>
      </trkpt>
      <trkpt lat="46.98644" lon="-0.66915">
        <ele>174.5</ele>
        <time>2012-04-08T08:06:35Z</time>
      </trkpt>
      <trkpt lat="46.98642" lon="-0.66926">
        <ele>174.3</ele>
        <time>2012-04-08T08:06:37Z</time>
      </trkpt>
      <trkpt lat="46.9864" lon="-0.66936">
        <ele>174.3</ele>
        <time>2012-04-08T08:06:39Z</time>
      </trkpt>
      <trkpt lat="46.98638" lon="-0.66947">
        <ele>174.5</ele>
        <time>2012-04-08T08:06:41Z</time>
      </trkpt>
      <trkpt lat="46.98637" lon="-0.66953">
        <ele>174.5</ele>
        <time>2012-04-08T08:06:42Z</time>
      </trkpt>
      <trkpt lat="46.98633" lon="-0.66969">
        <ele>174.3</ele>
        <time>2012-04-08T08:06:45Z</time>
      </trkpt>
      <trkpt lat="46.98631" lon="-0.66981">
        <ele>174.3</ele>
        <time>2012-04-08T08:06:47Z</time>
      </trkpt>
      <trkpt lat="46.98628" lon="-0.66992">
        <ele>174.1</ele>
        <time>2012-04-08T08:06:49Z</time>
      </trkpt>
      <trkpt lat="46.98625" lon="-0.67004">
        <ele>173.8</ele>
        <time>2012-04-08T08:06:51Z</time>
      </trkpt>
      <trkpt lat="46.98623" lon="-0.67016">
        <ele>173.6</ele>
        <time>2012-04-08T08:06:53Z</time>
      </trkpt>
      <trkpt lat="46.98621" lon="-0.67028">
        <ele>173.5</ele>
        <time>2012-04-08T08:06:55Z</time>
      </trkpt>
      <trkpt lat="46.98618" lon="-0.67039">
        <ele>173.5</ele>
        <time>2012-04-08T08:06:57Z</time>
      </trkpt>
      <trkpt lat="46.98615" lon="-0.67048">
        <ele>173.5</ele>
        <time>2012-04-08T08:06:59Z</time>
      </trkpt>
      <trkpt lat="46.98607" lon="-0.67045">
        <ele>173.5</ele>
        <time>2012-04-08T08:07:03Z</time>
      </trkpt>
      <trkpt lat="46.98604" lon="-0.67038">
        <ele>173.5</ele>
        <time>2012-04-08T08:07:05Z</time>
      </trkpt>
      <trkpt lat="46.98601" lon="-0.67029">
        <ele>173.5</ele>
        <time>2012-04-08T08:07:07Z</time>
      </trkpt>
      <trkpt lat="46.98598" lon="-0.67021">
        <ele>173.5</ele>
        <time>2012-04-08T08:07:09Z</time>
      </trkpt>
      <trkpt lat="46.98596" lon="-0.67013">
        <ele>173.6</ele>
        <time>2012-04-08T08:07:11Z</time>
      </trkpt>
      <trkpt lat="46.98593" lon="-0.67005">
        <ele>173.6</ele>
        <time>2012-04-08T08:07:13Z</time>
      </trkpt>
      <trkpt lat="46.9859" lon="-0.66997">
        <ele>173.6</ele>
        <time>2012-04-08T08:07:15Z</time>
      </trkpt>
      <trkpt lat="46.98587" lon="-0.66989">
        <ele>173.6</ele>
        <time>2012-04-08T08:07:17Z</time>
      </trkpt>
      <trkpt lat="46.98584" lon="-0.66981">
        <ele>173.6</ele>
        <time>2012-04-08T08:07:19Z</time>
      </trkpt>
      <trkpt lat="46.98581" lon="-0.66973">
        <ele>173.6</ele>
        <time>2012-04-08T08:07:21Z</time>
      </trkpt>
      <trkpt lat="46.98579" lon="-0.66965">
        <ele>173.8</ele>
        <time>2012-04-08T08:07:23Z</time>
      </trkpt>
      <trkpt lat="46.98576" lon="-0.66956">
        <ele>173.8</ele>
        <time>2012-04-08T08:07:25Z</time>
      </trkpt>
      <trkpt lat="46.98573" lon="-0.66948">
        <ele>173.8</ele>
        <time>2012-04-08T08:07:27Z</time>
      </trkpt>
      <trkpt lat="46.9857" lon="-0.6694">
        <ele>174</ele>
        <time>2012-04-08T08:07:29Z</time>
      </trkpt>
      <trkpt lat="46.98567" lon="-0.66932">
        <ele>174</ele>
        <time>2012-04-08T08:07:31Z</time>
      </trkpt>
      <trkpt lat="46.98564" lon="-0.66923">
        <ele>174.1</ele>
        <time>2012-04-08T08:07:33Z</time>
      </trkpt>
      <trkpt lat="46.98562" lon="-0.66915">
        <ele>174.1</ele>
        <time>2012-04-08T08:07:35Z</time>
      </trkpt>
      <trkpt lat="46.98559" lon="-0.66907">
        <ele>174.1</ele>
        <time>2012-04-08T08:07:37Z</time>
      </trkpt>
      <trkpt lat="46.98556" lon="-0.66899">
        <ele>174.1</ele>
        <time>2012-04-08T08:07:39Z</time>
      </trkpt>
      <trkpt lat="46.98553" lon="-0.66889">
        <ele>174.3</ele>
        <time>2012-04-08T08:07:41Z</time>
      </trkpt>
      <trkpt lat="46.9855" lon="-0.6688">
        <ele>174.3</ele>
        <time>2012-04-08T08:07:43Z</time>
      </trkpt>
      <trkpt lat="46.98549" lon="-0.66875">
        <ele>174.3</ele>
        <time>2012-04-08T08:07:44Z</time>
      </trkpt>
      <trkpt lat="46.98545" lon="-0.6686">
        <ele>174.5</ele>
        <time>2012-04-08T08:07:47Z</time>
      </trkpt>
      <trkpt lat="46.98542" lon="-0.66849">
        <ele>175.1</ele>
        <time>2012-04-08T08:07:49Z</time>
      </trkpt>
      <trkpt lat="46.98538" lon="-0.66839">
        <ele>175.5</ele>
        <time>2012-04-08T08:07:51Z</time>
      </trkpt>
      <trkpt lat="46.98535" lon="-0.66829">
        <ele>175.6</ele>
        <time>2012-04-08T08:07:53Z</time>
      </trkpt>
      <trkpt lat="46.98531" lon="-0.66818">
        <ele>175.8</ele>
        <time>2012-04-08T08:07:55Z</time>
      </trkpt>
      <trkpt lat="46.98528" lon="-0.66808">
        <ele>176</ele>
        <time>2012-04-08T08:07:57Z</time>
      </trkpt>
      <trkpt lat="46.98524" lon="-0.66798">
        <ele>176.1</ele>
        <time>2012-04-08T08:07:59Z</time>
      </trkpt>
      <trkpt lat="46.98521" lon="-0.66788">
        <ele>176.1</ele>
        <time>2012-04-08T08:08:01Z</time>
      </trkpt>
      <trkpt lat="46.98517" lon="-0.66778">
        <ele>176.1</ele>
        <time>2012-04-08T08:08:03Z</time>
      </trkpt>
      <trkpt lat="46.98514" lon="-0.66769">
        <ele>176.1</ele>
        <time>2012-04-08T08:08:05Z</time>
      </trkpt>
      <trkpt lat="46.9851" lon="-0.66759">
        <ele>176.3</ele>
        <time>2012-04-08T08:08:07Z</time>
      </trkpt>
      <trkpt lat="46.98506" lon="-0.66749">
        <ele>176.3</ele>
        <time>2012-04-08T08:08:09Z</time>
      </trkpt>
      <trkpt lat="46.98502" lon="-0.6674">
        <ele>176.3</ele>
        <time>2012-04-08T08:08:11Z</time>
      </trkpt>
      <trkpt lat="46.98498" lon="-0.6673">
        <ele>176.5</ele>
        <time>2012-04-08T08:08:13Z</time>
      </trkpt>
      <trkpt lat="46.98493" lon="-0.6672">
        <ele>176.6</ele>
        <time>2012-04-08T08:08:15Z</time>
      </trkpt>
      <trkpt lat="46.98489" lon="-0.6671">
        <ele>176.6</ele>
        <time>2012-04-08T08:08:17Z</time>
      </trkpt>
      <trkpt lat="46.98485" lon="-0.66699">
        <ele>176.8</ele>
        <time>2012-04-08T08:08:19Z</time>
      </trkpt>
      <trkpt lat="46.9848" lon="-0.66688">
        <ele>176.8</ele>
        <time>2012-04-08T08:08:21Z</time>
      </trkpt>
      <trkpt lat="46.98476" lon="-0.66679">
        <ele>177</ele>
        <time>2012-04-08T08:08:23Z</time>
      </trkpt>
      <trkpt lat="46.98473" lon="-0.66669">
        <ele>177.1</ele>
        <time>2012-04-08T08:08:25Z</time>
      </trkpt>
      <trkpt lat="46.98469" lon="-0.6666">
        <ele>177.1</ele>
        <time>2012-04-08T08:08:27Z</time>
      </trkpt>
      <trkpt lat="46.98465" lon="-0.66651">
        <ele>177.1</ele>
        <time>2012-04-08T08:08:29Z</time>
      </trkpt>
      <trkpt lat="46.98462" lon="-0.66643">
        <ele>177.1</ele>
        <time>2012-04-08T08:08:31Z</time>
      </trkpt>
      <trkpt lat="46.98459" lon="-0.66635">
        <ele>177.1</ele>
        <time>2012-04-08T08:09:44Z</time>
      </trkpt>
      <trkpt lat="46.98457" lon="-0.66631">
        <ele>177.3</ele>
        <time>2012-04-08T08:09:45Z</time>
      </trkpt>
      <trkpt lat="46.98445" lon="-0.66634">
        <ele>177.5</ele>
        <time>2012-04-08T08:09:51Z</time>
      </trkpt>
      <trkpt lat="46.98439" lon="-0.66637">
        <ele>177.6</ele>
        <time>2012-04-08T08:09:53Z</time>
      </trkpt>
      <trkpt lat="46.98432" lon="-0.6664">
        <ele>177.6</ele>
        <time>2012-04-08T08:09:55Z</time>
      </trkpt>
      <trkpt lat="46.98425" lon="-0.66644">
        <ele>178.3</ele>
        <time>2012-04-08T08:09:57Z</time>
      </trkpt>
      <trkpt lat="46.98419" lon="-0.66649">
        <ele>178.3</ele>
        <time>2012-04-08T08:09:59Z</time>
      </trkpt>
      <trkpt lat="46.98412" lon="-0.66649">
        <ele>178.3</ele>
        <time>2012-04-08T08:10:01Z</time>
      </trkpt>
      <trkpt lat="46.98405" lon="-0.66645">
        <ele>178.6</ele>
        <time>2012-04-08T08:10:03Z</time>
      </trkpt>
      <trkpt lat="46.98398" lon="-0.66641">
        <ele>178.8</ele>
        <time>2012-04-08T08:10:05Z</time>
      </trkpt>
      <trkpt lat="46.9839" lon="-0.66639">
        <ele>179</ele>
        <time>2012-04-08T08:10:07Z</time>
      </trkpt>
      <trkpt lat="46.98382" lon="-0.66636">
        <ele>179.1</ele>
        <time>2012-04-08T08:10:09Z</time>
      </trkpt>
      <trkpt lat="46.98374" lon="-0.66633">
        <ele>179.1</ele>
        <time>2012-04-08T08:10:11Z</time>
      </trkpt>
      <trkpt lat="46.98365" lon="-0.66629">
        <ele>179.3</ele>
        <time>2012-04-08T08:10:13Z</time>
      </trkpt>
      <trkpt lat="46.98357" lon="-0.66626">
        <ele>179.3</ele>
        <time>2012-04-08T08:10:15Z</time>
      </trkpt>
      <trkpt lat="46.98349" lon="-0.66623">
        <ele>179.3</ele>
        <time>2012-04-08T08:10:17Z</time>
      </trkpt>
      <trkpt lat="46.98342" lon="-0.6662">
        <ele>179.3</ele>
        <time>2012-04-08T08:10:19Z</time>
      </trkpt>
      <trkpt lat="46.98334" lon="-0.66617">
        <ele>179.3</ele>
        <time>2012-04-08T08:10:21Z</time>
      </trkpt>
      <trkpt lat="46.98326" lon="-0.66614">
        <ele>179.3</ele>
        <time>2012-04-08T08:10:23Z</time>
      </trkpt>
      <trkpt lat="46.98317" lon="-0.66612">
        <ele>179.3</ele>
        <time>2012-04-08T08:10:25Z</time>
      </trkpt>
      <trkpt lat="46.9831" lon="-0.66609">
        <ele>179.3</ele>
        <time>2012-04-08T08:10:27Z</time>
      </trkpt>
      <trkpt lat="46.98302" lon="-0.66606">
        <ele>179.3</ele>
        <time>2012-04-08T08:10:29Z</time>
      </trkpt>
      <trkpt lat="46.98295" lon="-0.66602">
        <ele>179.3</ele>
        <time>2012-04-08T08:10:31Z</time>
      </trkpt>
      <trkpt lat="46.98288" lon="-0.66597">
        <ele>179.3</ele>
        <time>2012-04-08T08:10:33Z</time>
      </trkpt>
      <trkpt lat="46.98281" lon="-0.66592">
        <ele>179.3</ele>
        <time>2012-04-08T08:10:35Z</time>
      </trkpt>
      <trkpt lat="46.98273" lon="-0.66587">
        <ele>179.6</ele>
        <time>2012-04-08T08:10:37Z</time>
      </trkpt>
      <trkpt lat="46.98266" lon="-0.66581">
        <ele>179.8</ele>
        <time>2012-04-08T08:10:39Z</time>
      </trkpt>
      <trkpt lat="46.98259" lon="-0.66576">
        <ele>179.8</ele>
        <time>2012-04-08T08:10:41Z</time>
      </trkpt>
      <trkpt lat="46.98253" lon="-0.66571">
        <ele>179.8</ele>
        <time>2012-04-08T08:10:43Z</time>
      </trkpt>
      <trkpt lat="46.98248" lon="-0.66564">
        <ele>179.8</ele>
        <time>2012-04-08T08:10:45Z</time>
      </trkpt>
      <trkpt lat="46.98245" lon="-0.66561">
        <ele>179.8</ele>
        <time>2012-04-08T08:10:46Z</time>
      </trkpt>
      <trkpt lat="46.98236" lon="-0.66551">
        <ele>179.8</ele>
        <time>2012-04-08T08:10:49Z</time>
      </trkpt>
      <trkpt lat="46.9823" lon="-0.66545">
        <ele>179.8</ele>
        <time>2012-04-08T08:10:51Z</time>
      </trkpt>
      <trkpt lat="46.98224" lon="-0.66539">
        <ele>179.8</ele>
        <time>2012-04-08T08:10:53Z</time>
      </trkpt>
      <trkpt lat="46.98218" lon="-0.66532">
        <ele>179.8</ele>
        <time>2012-04-08T08:10:55Z</time>
      </trkpt>
      <trkpt lat="46.98213" lon="-0.66523">
        <ele>179.8</ele>
        <time>2012-04-08T08:10:57Z</time>
      </trkpt>
      <trkpt lat="46.98208" lon="-0.66512">
        <ele>179.6</ele>
        <time>2012-04-08T08:10:59Z</time>
      </trkpt>
      <trkpt lat="46.98203" lon="-0.66502">
        <ele>179.6</ele>
        <time>2012-04-08T08:11:01Z</time>
      </trkpt>
      <trkpt lat="46.98199" lon="-0.66492">
        <ele>179.5</ele>
        <time>2012-04-08T08:11:03Z</time>
      </trkpt>
      <trkpt lat="46.98196" lon="-0.66481">
        <ele>179.5</ele>
        <time>2012-04-08T08:11:05Z</time>
      </trkpt>
      <trkpt lat="46.98194" lon="-0.66471">
        <ele>179.5</ele>
        <time>2012-04-08T08:11:07Z</time>
      </trkpt>
      <trkpt lat="46.98192" lon="-0.6646">
        <ele>179.5</ele>
        <time>2012-04-08T08:11:09Z</time>
      </trkpt>
      <trkpt lat="46.98189" lon="-0.66451">
        <ele>179.5</ele>
        <time>2012-04-08T08:11:11Z</time>
      </trkpt>
      <trkpt lat="46.98187" lon="-0.66441">
        <ele>179.5</ele>
        <time>2012-04-08T08:11:13Z</time>
      </trkpt>
      <trkpt lat="46.98183" lon="-0.66432">
        <ele>179.5</ele>
        <time>2012-04-08T08:11:15Z</time>
      </trkpt>
      <trkpt lat="46.98179" lon="-0.66424">
        <ele>179.5</ele>
        <time>2012-04-08T08:11:17Z</time>
      </trkpt>
      <trkpt lat="46.98175" lon="-0.66416">
        <ele>179.3</ele>
        <time>2012-04-08T08:11:19Z</time>
      </trkpt>
      <trkpt lat="46.9817" lon="-0.66409">
        <ele>179.3</ele>
        <time>2012-04-08T08:11:21Z</time>
      </trkpt>
      <trkpt lat="46.98164" lon="-0.66403">
        <ele>179.3</ele>
        <time>2012-04-08T08:11:23Z</time>
      </trkpt>
      <trkpt lat="46.98158" lon="-0.66398">
        <ele>179.3</ele>
        <time>2012-04-08T08:11:25Z</time>
      </trkpt>
      <trkpt lat="46.98152" lon="-0.66393">
        <ele>179.3</ele>
        <time>2012-04-08T08:11:27Z</time>
      </trkpt>
      <trkpt lat="46.98146" lon="-0.66389">
        <ele>179.3</ele>
        <time>2012-04-08T08:11:29Z</time>
      </trkpt>
      <trkpt lat="46.98139" lon="-0.66386">
        <ele>179.3</ele>
        <time>2012-04-08T08:11:31Z</time>
      </trkpt>
      <trkpt lat="46.98132" lon="-0.66383">
        <ele>179.3</ele>
        <time>2012-04-08T08:11:33Z</time>
      </trkpt>
      <trkpt lat="46.98126" lon="-0.66381">
        <ele>179.3</ele>
        <time>2012-04-08T08:11:35Z</time>
      </trkpt>
      <trkpt lat="46.98119" lon="-0.66379">
        <ele>179.3</ele>
        <time>2012-04-08T08:11:37Z</time>
      </trkpt>
      <trkpt lat="46.98113" lon="-0.66377">
        <ele>179.3</ele>
        <time>2012-04-08T08:11:39Z</time>
      </trkpt>
      <trkpt lat="46.98106" lon="-0.66374">
        <ele>179.3</ele>
        <time>2012-04-08T08:11:41Z</time>
      </trkpt>
      <trkpt lat="46.981" lon="-0.66372">
        <ele>179.3</ele>
        <time>2012-04-08T08:11:43Z</time>
      </trkpt>
      <trkpt lat="46.98094" lon="-0.6637">
        <ele>179.3</ele>
        <time>2012-04-08T08:11:45Z</time>
      </trkpt>
      <trkpt lat="46.98086" lon="-0.66368">
        <ele>179.3</ele>
        <time>2012-04-08T08:11:47Z</time>
      </trkpt>
      <trkpt lat="46.98083" lon="-0.66367">
        <ele>179.1</ele>
        <time>2012-04-08T08:11:48Z</time>
      </trkpt>
      <trkpt lat="46.98071" lon="-0.66364">
        <ele>179</ele>
        <time>2012-04-08T08:11:51Z</time>
      </trkpt>
      <trkpt lat="46.98063" lon="-0.66362">
        <ele>178.8</ele>
        <time>2012-04-08T08:11:53Z</time>
      </trkpt>
      <trkpt lat="46.98055" lon="-0.6636">
        <ele>178.8</ele>
        <time>2012-04-08T08:11:55Z</time>
      </trkpt>
      <trkpt lat="46.98047" lon="-0.66357">
        <ele>178.8</ele>
        <time>2012-04-08T08:11:57Z</time>
      </trkpt>
      <trkpt lat="46.98039" lon="-0.66355">
        <ele>178.8</ele>
        <time>2012-04-08T08:11:59Z</time>
      </trkpt>
      <trkpt lat="46.98031" lon="-0.66351">
        <ele>178.8</ele>
        <time>2012-04-08T08:12:01Z</time>
      </trkpt>
      <trkpt lat="46.98026" lon="-0.66349">
        <ele>179</ele>
        <time>2012-04-08T08:12:02Z</time>
      </trkpt>
      <trkpt lat="46.98022" lon="-0.66347">
        <ele>179</ele>
        <time>2012-04-08T08:12:03Z</time>
      </trkpt>
      <trkpt lat="46.98018" lon="-0.66345">
        <ele>179</ele>
        <time>2012-04-08T08:12:04Z</time>
      </trkpt>
      <trkpt lat="46.98013" lon="-0.66343">
        <ele>179.1</ele>
        <time>2012-04-08T08:12:05Z</time>
      </trkpt>
      <trkpt lat="46.98005" lon="-0.66339">
        <ele>179.1</ele>
        <time>2012-04-08T08:12:07Z</time>
      </trkpt>
      <trkpt lat="46.97997" lon="-0.66334">
        <ele>179.1</ele>
        <time>2012-04-08T08:12:09Z</time>
      </trkpt>
      <trkpt lat="46.97989" lon="-0.66329">
        <ele>179.1</ele>
        <time>2012-04-08T08:12:11Z</time>
      </trkpt>
      <trkpt lat="46.97985" lon="-0.66327">
        <ele>179.1</ele>
        <time>2012-04-08T08:12:12Z</time>
      </trkpt>
      <trkpt lat="46.97981" lon="-0.66325">
        <ele>179.3</ele>
        <time>2012-04-08T08:12:13Z</time>
      </trkpt>
      <trkpt lat="46.97976" lon="-0.66322">
        <ele>179.3</ele>
        <time>2012-04-08T08:12:14Z</time>
      </trkpt>
      <trkpt lat="46.97972" lon="-0.6632">
        <ele>179.5</ele>
        <time>2012-04-08T08:12:15Z</time>
      </trkpt>
      <trkpt lat="46.97967" lon="-0.66318">
        <ele>179.6</ele>
        <time>2012-04-08T08:12:16Z</time>
      </trkpt>
      <trkpt lat="46.97962" lon="-0.66316">
        <ele>179.6</ele>
        <time>2012-04-08T08:12:17Z</time>
      </trkpt>
      <trkpt lat="46.97958" lon="-0.66314">
        <ele>179.6</ele>
        <time>2012-04-08T08:12:18Z</time>
      </trkpt>
      <trkpt lat="46.97953" lon="-0.66313">
        <ele>179.6</ele>
        <time>2012-04-08T08:12:19Z</time>
      </trkpt>
      <trkpt lat="46.97948" lon="-0.66312">
        <ele>179.6</ele>
        <time>2012-04-08T08:12:20Z</time>
      </trkpt>
      <trkpt lat="46.97939" lon="-0.66311">
        <ele>179.6</ele>
        <time>2012-04-08T08:12:22Z</time>
      </trkpt>
      <trkpt lat="46.97933" lon="-0.66307">
        <ele>179.6</ele>
        <time>2012-04-08T08:12:24Z</time>
      </trkpt>
      <trkpt lat="46.97928" lon="-0.66296">
        <ele>179.5</ele>
        <time>2012-04-08T08:12:27Z</time>
      </trkpt>
      <trkpt lat="46.97928" lon="-0.66287">
        <ele>179.5</ele>
        <time>2012-04-08T08:12:29Z</time>
      </trkpt>
      <trkpt lat="46.97929" lon="-0.66278">
        <ele>179.5</ele>
        <time>2012-04-08T08:12:31Z</time>
      </trkpt>
      <trkpt lat="46.97929" lon="-0.66268">
        <ele>179.5</ele>
        <time>2012-04-08T08:12:33Z</time>
      </trkpt>
      <trkpt lat="46.97929" lon="-0.66258">
        <ele>179.5</ele>
        <time>2012-04-08T08:12:35Z</time>
      </trkpt>
      <trkpt lat="46.9793" lon="-0.66248">
        <ele>179.5</ele>
        <time>2012-04-08T08:12:37Z</time>
      </trkpt>
      <trkpt lat="46.9793" lon="-0.66238">
        <ele>179.5</ele>
        <time>2012-04-08T08:12:39Z</time>
      </trkpt>
      <trkpt lat="46.97929" lon="-0.66227">
        <ele>179.3</ele>
        <time>2012-04-08T08:12:41Z</time>
      </trkpt>
      <trkpt lat="46.97929" lon="-0.66217">
        <ele>179.3</ele>
        <time>2012-04-08T08:12:43Z</time>
      </trkpt>
      <trkpt lat="46.97929" lon="-0.66207">
        <ele>179.3</ele>
        <time>2012-04-08T08:12:45Z</time>
      </trkpt>
      <trkpt lat="46.97929" lon="-0.66196">
        <ele>179.3</ele>
        <time>2012-04-08T08:12:47Z</time>
      </trkpt>
      <trkpt lat="46.9793" lon="-0.66185">
        <ele>179.5</ele>
        <time>2012-04-08T08:12:49Z</time>
      </trkpt>
      <trkpt lat="46.97929" lon="-0.6618">
        <ele>179.5</ele>
        <time>2012-04-08T08:12:50Z</time>
      </trkpt>
      <trkpt lat="46.97929" lon="-0.66165">
        <ele>179.5</ele>
        <time>2012-04-08T08:12:53Z</time>
      </trkpt>
      <trkpt lat="46.97927" lon="-0.66154">
        <ele>179.5</ele>
        <time>2012-04-08T08:12:55Z</time>
      </trkpt>
      <trkpt lat="46.97924" lon="-0.66143">
        <ele>179.6</ele>
        <time>2012-04-08T08:12:57Z</time>
      </trkpt>
      <trkpt lat="46.9792" lon="-0.66132">
        <ele>179.6</ele>
        <time>2012-04-08T08:12:59Z</time>
      </trkpt>
      <trkpt lat="46.97917" lon="-0.66121">
        <ele>179.6</ele>
        <time>2012-04-08T08:13:01Z</time>
      </trkpt>
      <trkpt lat="46.97913" lon="-0.66112">
        <ele>179.6</ele>
        <time>2012-04-08T08:13:03Z</time>
      </trkpt>
      <trkpt lat="46.97906" lon="-0.66112">
        <ele>179.6</ele>
        <time>2012-04-08T08:13:05Z</time>
      </trkpt>
      <trkpt lat="46.97899" lon="-0.66118">
        <ele>179.3</ele>
        <time>2012-04-08T08:13:07Z</time>
      </trkpt>
      <trkpt lat="46.97895" lon="-0.66121">
        <ele>179.3</ele>
        <time>2012-04-08T08:13:08Z</time>
      </trkpt>
      <trkpt lat="46.97891" lon="-0.66125">
        <ele>179.1</ele>
        <time>2012-04-08T08:13:09Z</time>
      </trkpt>
      <trkpt lat="46.97887" lon="-0.66128">
        <ele>179</ele>
        <time>2012-04-08T08:13:10Z</time>
      </trkpt>
      <trkpt lat="46.97883" lon="-0.66132">
        <ele>178.8</ele>
        <time>2012-04-08T08:13:11Z</time>
      </trkpt>
      <trkpt lat="46.97879" lon="-0.66136">
        <ele>178.8</ele>
        <time>2012-04-08T08:13:12Z</time>
      </trkpt>
      <trkpt lat="46.97875" lon="-0.6614">
        <ele>178.8</ele>
        <time>2012-04-08T08:13:13Z</time>
      </trkpt>
      <trkpt lat="46.97871" lon="-0.66144">
        <ele>178.8</ele>
        <time>2012-04-08T08:13:14Z</time>
      </trkpt>
      <trkpt lat="46.97867" lon="-0.66148">
        <ele>178.8</ele>
        <time>2012-04-08T08:13:15Z</time>
      </trkpt>
      <trkpt lat="46.97863" lon="-0.66151">
        <ele>178.8</ele>
        <time>2012-04-08T08:13:16Z</time>
      </trkpt>
      <trkpt lat="46.97859" lon="-0.66155">
        <ele>178.8</ele>
        <time>2012-04-08T08:13:17Z</time>
      </trkpt>
      <trkpt lat="46.97855" lon="-0.66159">
        <ele>178.8</ele>
        <time>2012-04-08T08:13:18Z</time>
      </trkpt>
      <trkpt lat="46.97851" lon="-0.66162">
        <ele>178.8</ele>
        <time>2012-04-08T08:13:19Z</time>
      </trkpt>
      <trkpt lat="46.97847" lon="-0.66166">
        <ele>178.8</ele>
        <time>2012-04-08T08:13:20Z</time>
      </trkpt>
      <trkpt lat="46.97843" lon="-0.6617">
        <ele>178.8</ele>
        <time>2012-04-08T08:13:21Z</time>
      </trkpt>
      <trkpt lat="46.97839" lon="-0.66174">
        <ele>178.8</ele>
        <time>2012-04-08T08:13:22Z</time>
      </trkpt>
      <trkpt lat="46.97835" lon="-0.66178">
        <ele>179</ele>
        <time>2012-04-08T08:13:23Z</time>
      </trkpt>
      <trkpt lat="46.97828" lon="-0.66185">
        <ele>179</ele>
        <time>2012-04-08T08:13:25Z</time>
      </trkpt>
      <trkpt lat="46.97821" lon="-0.66192">
        <ele>178.8</ele>
        <time>2012-04-08T08:13:27Z</time>
      </trkpt>
      <trkpt lat="46.97813" lon="-0.66198">
        <ele>178.8</ele>
        <time>2012-04-08T08:13:29Z</time>
      </trkpt>
      <trkpt lat="46.97806" lon="-0.66205">
        <ele>178.8</ele>
        <time>2012-04-08T08:13:31Z</time>
      </trkpt>
      <trkpt lat="46.97803" lon="-0.66209">
        <ele>178.6</ele>
        <time>2012-04-08T08:13:32Z</time>
      </trkpt>
      <trkpt lat="46.97799" lon="-0.66213">
        <ele>178.6</ele>
        <time>2012-04-08T08:13:33Z</time>
      </trkpt>
      <trkpt lat="46.97795" lon="-0.66217">
        <ele>178.6</ele>
        <time>2012-04-08T08:13:34Z</time>
      </trkpt>
      <trkpt lat="46.97791" lon="-0.66221">
        <ele>178.6</ele>
        <time>2012-04-08T08:13:35Z</time>
      </trkpt>
      <trkpt lat="46.97787" lon="-0.66224">
        <ele>178.6</ele>
        <time>2012-04-08T08:13:36Z</time>
      </trkpt>
      <trkpt lat="46.9778" lon="-0.66231">
        <ele>178.5</ele>
        <time>2012-04-08T08:13:38Z</time>
      </trkpt>
      <trkpt lat="46.97773" lon="-0.66239">
        <ele>178.3</ele>
        <time>2012-04-08T08:13:40Z</time>
      </trkpt>
      <trkpt lat="46.97769" lon="-0.66242">
        <ele>178.3</ele>
        <time>2012-04-08T08:13:41Z</time>
      </trkpt>
      <trkpt lat="46.97764" lon="-0.66246">
        <ele>178.3</ele>
        <time>2012-04-08T08:13:42Z</time>
      </trkpt>
      <trkpt lat="46.9776" lon="-0.6625">
        <ele>178.1</ele>
        <time>2012-04-08T08:13:43Z</time>
      </trkpt>
      <trkpt lat="46.97756" lon="-0.66255">
        <ele>178.1</ele>
        <time>2012-04-08T08:13:44Z</time>
      </trkpt>
      <trkpt lat="46.97751" lon="-0.66259">
        <ele>178.1</ele>
        <time>2012-04-08T08:13:45Z</time>
      </trkpt>
      <trkpt lat="46.97746" lon="-0.66263">
        <ele>178.1</ele>
        <time>2012-04-08T08:13:46Z</time>
      </trkpt>
      <trkpt lat="46.97742" lon="-0.66268">
        <ele>178.1</ele>
        <time>2012-04-08T08:13:47Z</time>
      </trkpt>
      <trkpt lat="46.97737" lon="-0.66273">
        <ele>178.1</ele>
        <time>2012-04-08T08:13:48Z</time>
      </trkpt>
      <trkpt lat="46.97732" lon="-0.66277">
        <ele>178.1</ele>
        <time>2012-04-08T08:13:49Z</time>
      </trkpt>
      <trkpt lat="46.97727" lon="-0.66282">
        <ele>178.1</ele>
        <time>2012-04-08T08:13:50Z</time>
      </trkpt>
      <trkpt lat="46.97722" lon="-0.66287">
        <ele>178.1</ele>
        <time>2012-04-08T08:13:51Z</time>
      </trkpt>
      <trkpt lat="46.97717" lon="-0.66291">
        <ele>178.1</ele>
        <time>2012-04-08T08:13:52Z</time>
      </trkpt>
      <trkpt lat="46.97712" lon="-0.66296">
        <ele>178.1</ele>
        <time>2012-04-08T08:13:53Z</time>
      </trkpt>
      <trkpt lat="46.97707" lon="-0.66301">
        <ele>178.1</ele>
        <time>2012-04-08T08:13:54Z</time>
      </trkpt>
      <trkpt lat="46.97701" lon="-0.66306">
        <ele>178.1</ele>
        <time>2012-04-08T08:13:55Z</time>
      </trkpt>
      <trkpt lat="46.97696" lon="-0.66311">
        <ele>178.1</ele>
        <time>2012-04-08T08:13:56Z</time>
      </trkpt>
      <trkpt lat="46.97691" lon="-0.66316">
        <ele>178.1</ele>
        <time>2012-04-08T08:13:57Z</time>
      </trkpt>
      <trkpt lat="46.97685" lon="-0.66321">
        <ele>178.1</ele>
        <time>2012-04-08T08:13:58Z</time>
      </trkpt>
      <trkpt lat="46.9768" lon="-0.66326">
        <ele>178.1</ele>
        <time>2012-04-08T08:13:59Z</time>
      </trkpt>
      <trkpt lat="46.97674" lon="-0.66331">
        <ele>178.1</ele>
        <time>2012-04-08T08:14:00Z</time>
      </trkpt>
      <trkpt lat="46.97668" lon="-0.66336">
        <ele>178.1</ele>
        <time>2012-04-08T08:14:01Z</time>
      </trkpt>
      <trkpt lat="46.97663" lon="-0.66341">
        <ele>178.1</ele>
        <time>2012-04-08T08:14:02Z</time>
      </trkpt>
      <trkpt lat="46.97657" lon="-0.66346">
        <ele>178.1</ele>
        <time>2012-04-08T08:14:03Z</time>
      </trkpt>
      <trkpt lat="46.97652" lon="-0.66351">
        <ele>178.1</ele>
        <time>2012-04-08T08:14:04Z</time>
      </trkpt>
      <trkpt lat="46.97647" lon="-0.66355">
        <ele>178.1</ele>
        <time>2012-04-08T08:14:05Z</time>
      </trkpt>
      <trkpt lat="46.97642" lon="-0.6636">
        <ele>178.1</ele>
        <time>2012-04-08T08:14:06Z</time>
      </trkpt>
      <trkpt lat="46.97637" lon="-0.66364">
        <ele>178.1</ele>
        <time>2012-04-08T08:14:07Z</time>
      </trkpt>
      <trkpt lat="46.97632" lon="-0.66368">
        <ele>178.3</ele>
        <time>2012-04-08T08:14:08Z</time>
      </trkpt>
      <trkpt lat="46.97628" lon="-0.66372">
        <ele>178.3</ele>
        <time>2012-04-08T08:14:09Z</time>
      </trkpt>
      <trkpt lat="46.97623" lon="-0.66376">
        <ele>178.3</ele>
        <time>2012-04-08T08:14:10Z</time>
      </trkpt>
      <trkpt lat="46.97618" lon="-0.6638">
        <ele>178.3</ele>
        <time>2012-04-08T08:14:11Z</time>
      </trkpt>
      <trkpt lat="46.97613" lon="-0.66384">
        <ele>178.5</ele>
        <time>2012-04-08T08:14:12Z</time>
      </trkpt>
      <trkpt lat="46.97608" lon="-0.66388">
        <ele>178.5</ele>
        <time>2012-04-08T08:14:13Z</time>
      </trkpt>
      <trkpt lat="46.97603" lon="-0.66392">
        <ele>178.5</ele>
        <time>2012-04-08T08:14:14Z</time>
      </trkpt>
      <trkpt lat="46.97598" lon="-0.66396">
        <ele>178.6</ele>
        <time>2012-04-08T08:14:15Z</time>
      </trkpt>
      <trkpt lat="46.97593" lon="-0.66401">
        <ele>178.6</ele>
        <time>2012-04-08T08:14:16Z</time>
      </trkpt>
      <trkpt lat="46.97588" lon="-0.66405">
        <ele>178.6</ele>
        <time>2012-04-08T08:14:17Z</time>
      </trkpt>
      <trkpt lat="46.97583" lon="-0.6641">
        <ele>178.6</ele>
        <time>2012-04-08T08:14:18Z</time>
      </trkpt>
      <trkpt lat="46.97578" lon="-0.66414">
        <ele>178.6</ele>
        <time>2012-04-08T08:14:19Z</time>
      </trkpt>
      <trkpt lat="46.97573" lon="-0.66419">
        <ele>178.6</ele>
        <time>2012-04-08T08:14:20Z</time>
      </trkpt>
      <trkpt lat="46.97568" lon="-0.66423">
        <ele>178.6</ele>
        <time>2012-04-08T08:14:21Z</time>
      </trkpt>
      <trkpt lat="46.97563" lon="-0.66427">
        <ele>178.6</ele>
        <time>2012-04-08T08:14:22Z</time>
      </trkpt>
      <trkpt lat="46.97557" lon="-0.66432">
        <ele>178.6</ele>
        <time>2012-04-08T08:14:23Z</time>
      </trkpt>
      <trkpt lat="46.97552" lon="-0.66436">
        <ele>178.6</ele>
        <time>2012-04-08T08:14:24Z</time>
      </trkpt>
      <trkpt lat="46.97547" lon="-0.6644">
        <ele>178.6</ele>
        <time>2012-04-08T08:14:25Z</time>
      </trkpt>
      <trkpt lat="46.97542" lon="-0.66444">
        <ele>178.6</ele>
        <time>2012-04-08T08:14:26Z</time>
      </trkpt>
      <trkpt lat="46.97537" lon="-0.66448">
        <ele>178.6</ele>
        <time>2012-04-08T08:14:27Z</time>
      </trkpt>
      <trkpt lat="46.97531" lon="-0.66452">
        <ele>178.6</ele>
        <time>2012-04-08T08:14:28Z</time>
      </trkpt>
      <trkpt lat="46.97526" lon="-0.66456">
        <ele>178.6</ele>
        <time>2012-04-08T08:14:29Z</time>
      </trkpt>
      <trkpt lat="46.97521" lon="-0.6646">
        <ele>178.5</ele>
        <time>2012-04-08T08:14:30Z</time>
      </trkpt>
      <trkpt lat="46.97516" lon="-0.66464">
        <ele>178.5</ele>
        <time>2012-04-08T08:14:31Z</time>
      </trkpt>
      <trkpt lat="46.97512" lon="-0.66468">
        <ele>178.5</ele>
        <time>2012-04-08T08:14:32Z</time>
      </trkpt>
      <trkpt lat="46.97507" lon="-0.66472">
        <ele>178.5</ele>
        <time>2012-04-08T08:14:33Z</time>
      </trkpt>
      <trkpt lat="46.97502" lon="-0.66476">
        <ele>178.5</ele>
        <time>2012-04-08T08:14:34Z</time>
      </trkpt>
      <trkpt lat="46.97496" lon="-0.6648">
        <ele>178.3</ele>
        <time>2012-04-08T08:14:35Z</time>
      </trkpt>
      <trkpt lat="46.97491" lon="-0.66484">
        <ele>178.3</ele>
        <time>2012-04-08T08:14:36Z</time>
      </trkpt>
      <trkpt lat="46.97486" lon="-0.66489">
        <ele>178.3</ele>
        <time>2012-04-08T08:14:37Z</time>
      </trkpt>
      <trkpt lat="46.97481" lon="-0.66493">
        <ele>178.3</ele>
        <time>2012-04-08T08:14:38Z</time>
      </trkpt>
      <trkpt lat="46.97476" lon="-0.66497">
        <ele>178.3</ele>
        <time>2012-04-08T08:14:39Z</time>
      </trkpt>
      <trkpt lat="46.97471" lon="-0.66501">
        <ele>178.3</ele>
        <time>2012-04-08T08:14:40Z</time>
      </trkpt>
      <trkpt lat="46.97466" lon="-0.66505">
        <ele>178.3</ele>
        <time>2012-04-08T08:14:41Z</time>
      </trkpt>
      <trkpt lat="46.97461" lon="-0.6651">
        <ele>178.1</ele>
        <time>2012-04-08T08:14:42Z</time>
      </trkpt>
      <trkpt lat="46.97456" lon="-0.66514">
        <ele>178.1</ele>
        <time>2012-04-08T08:14:43Z</time>
      </trkpt>
      <trkpt lat="46.97451" lon="-0.66518">
        <ele>178</ele>
        <time>2012-04-08T08:14:44Z</time>
      </trkpt>
      <trkpt lat="46.97446" lon="-0.66522">
        <ele>177.8</ele>
        <time>2012-04-08T08:14:45Z</time>
      </trkpt>
      <trkpt lat="46.97441" lon="-0.66526">
        <ele>177.8</ele>
        <time>2012-04-08T08:14:46Z</time>
      </trkpt>
      <trkpt lat="46.97436" lon="-0.6653">
        <ele>177.8</ele>
        <time>2012-04-08T08:14:47Z</time>
      </trkpt>
      <trkpt lat="46.97431" lon="-0.66534">
        <ele>177.8</ele>
        <time>2012-04-08T08:14:48Z</time>
      </trkpt>
      <trkpt lat="46.97426" lon="-0.66539">
        <ele>177.8</ele>
        <time>2012-04-08T08:14:49Z</time>
      </trkpt>
      <trkpt lat="46.97421" lon="-0.66543">
        <ele>177.8</ele>
        <time>2012-04-08T08:14:50Z</time>
      </trkpt>
      <trkpt lat="46.97416" lon="-0.66547">
        <ele>177.8</ele>
        <time>2012-04-08T08:14:51Z</time>
      </trkpt>
      <trkpt lat="46.97411" lon="-0.66551">
        <ele>177.8</ele>
        <time>2012-04-08T08:14:52Z</time>
      </trkpt>
      <trkpt lat="46.97406" lon="-0.66555">
        <ele>177.8</ele>
        <time>2012-04-08T08:14:53Z</time>
      </trkpt>
      <trkpt lat="46.97401" lon="-0.66559">
        <ele>177.8</ele>
        <time>2012-04-08T08:14:54Z</time>
      </trkpt>
      <trkpt lat="46.97397" lon="-0.66563">
        <ele>177.8</ele>
        <time>2012-04-08T08:14:55Z</time>
      </trkpt>
      <trkpt lat="46.97392" lon="-0.66567">
        <ele>177.8</ele>
        <time>2012-04-08T08:14:56Z</time>
      </trkpt>
      <trkpt lat="46.97387" lon="-0.66571">
        <ele>177.8</ele>
        <time>2012-04-08T08:14:57Z</time>
      </trkpt>
      <trkpt lat="46.97382" lon="-0.66575">
        <ele>177.8</ele>
        <time>2012-04-08T08:14:58Z</time>
      </trkpt>
      <trkpt lat="46.97377" lon="-0.66579">
        <ele>177.8</ele>
        <time>2012-04-08T08:14:59Z</time>
      </trkpt>
      <trkpt lat="46.97372" lon="-0.66583">
        <ele>177.8</ele>
        <time>2012-04-08T08:15:00Z</time>
      </trkpt>
      <trkpt lat="46.97367" lon="-0.66587">
        <ele>177.8</ele>
        <time>2012-04-08T08:15:01Z</time>
      </trkpt>
      <trkpt lat="46.97362" lon="-0.66591">
        <ele>177.6</ele>
        <time>2012-04-08T08:15:02Z</time>
      </trkpt>
      <trkpt lat="46.97357" lon="-0.66595">
        <ele>177.6</ele>
        <time>2012-04-08T08:15:03Z</time>
      </trkpt>
      <trkpt lat="46.97352" lon="-0.66599">
        <ele>177.5</ele>
        <time>2012-04-08T08:15:04Z</time>
      </trkpt>
      <trkpt lat="46.97347" lon="-0.66603">
        <ele>177.3</ele>
        <time>2012-04-08T08:15:05Z</time>
      </trkpt>
      <trkpt lat="46.97343" lon="-0.66607">
        <ele>177.3</ele>
        <time>2012-04-08T08:15:06Z</time>
      </trkpt>
      <trkpt lat="46.97338" lon="-0.6661">
        <ele>177.3</ele>
        <time>2012-04-08T08:15:07Z</time>
      </trkpt>
      <trkpt lat="46.97333" lon="-0.66614">
        <ele>177.1</ele>
        <time>2012-04-08T08:15:08Z</time>
      </trkpt>
      <trkpt lat="46.97328" lon="-0.66618">
        <ele>177.1</ele>
        <time>2012-04-08T08:15:09Z</time>
      </trkpt>
      <trkpt lat="46.97323" lon="-0.66623">
        <ele>177.1</ele>
        <time>2012-04-08T08:15:10Z</time>
      </trkpt>
      <trkpt lat="46.97318" lon="-0.66627">
        <ele>177.1</ele>
        <time>2012-04-08T08:15:11Z</time>
      </trkpt>
      <trkpt lat="46.97313" lon="-0.66631">
        <ele>177.1</ele>
        <time>2012-04-08T08:15:12Z</time>
      </trkpt>
      <trkpt lat="46.97308" lon="-0.66636">
        <ele>177.1</ele>
        <time>2012-04-08T08:15:13Z</time>
      </trkpt>
      <trkpt lat="46.97302" lon="-0.6664">
        <ele>177.1</ele>
        <time>2012-04-08T08:15:14Z</time>
      </trkpt>
      <trkpt lat="46.97297" lon="-0.66645">
        <ele>177.1</ele>
        <time>2012-04-08T08:15:15Z</time>
      </trkpt>
      <trkpt lat="46.97291" lon="-0.66649">
        <ele>177.1</ele>
        <time>2012-04-08T08:15:16Z</time>
      </trkpt>
      <trkpt lat="46.97286" lon="-0.66654">
        <ele>177.1</ele>
        <time>2012-04-08T08:15:17Z</time>
      </trkpt>
      <trkpt lat="46.9728" lon="-0.66658">
        <ele>177.1</ele>
        <time>2012-04-08T08:15:18Z</time>
      </trkpt>
      <trkpt lat="46.97275" lon="-0.66662">
        <ele>177.1</ele>
        <time>2012-04-08T08:15:19Z</time>
      </trkpt>
      <trkpt lat="46.9727" lon="-0.66666">
        <ele>177.1</ele>
        <time>2012-04-08T08:15:20Z</time>
      </trkpt>
      <trkpt lat="46.97265" lon="-0.6667">
        <ele>177</ele>
        <time>2012-04-08T08:15:21Z</time>
      </trkpt>
      <trkpt lat="46.9726" lon="-0.66674">
        <ele>177</ele>
        <time>2012-04-08T08:15:22Z</time>
      </trkpt>
      <trkpt lat="46.97254" lon="-0.66678">
        <ele>177</ele>
        <time>2012-04-08T08:15:23Z</time>
      </trkpt>
      <trkpt lat="46.97249" lon="-0.66681">
        <ele>177</ele>
        <time>2012-04-08T08:15:24Z</time>
      </trkpt>
      <trkpt lat="46.97243" lon="-0.66685">
        <ele>177</ele>
        <time>2012-04-08T08:15:25Z</time>
      </trkpt>
      <trkpt lat="46.97238" lon="-0.66689">
        <ele>177</ele>
        <time>2012-04-08T08:15:26Z</time>
      </trkpt>
      <trkpt lat="46.97232" lon="-0.66693">
        <ele>177</ele>
        <time>2012-04-08T08:15:27Z</time>
      </trkpt>
      <trkpt lat="46.97227" lon="-0.66698">
        <ele>177</ele>
        <time>2012-04-08T08:15:28Z</time>
      </trkpt>
      <trkpt lat="46.97221" lon="-0.66702">
        <ele>177</ele>
        <time>2012-04-08T08:15:29Z</time>
      </trkpt>
      <trkpt lat="46.97215" lon="-0.66707">
        <ele>177</ele>
        <time>2012-04-08T08:15:30Z</time>
      </trkpt>
      <trkpt lat="46.9721" lon="-0.66712">
        <ele>177</ele>
        <time>2012-04-08T08:15:31Z</time>
      </trkpt>
      <trkpt lat="46.97204" lon="-0.66718">
        <ele>176.8</ele>
        <time>2012-04-08T08:15:32Z</time>
      </trkpt>
      <trkpt lat="46.97199" lon="-0.66723">
        <ele>176.8</ele>
        <time>2012-04-08T08:15:33Z</time>
      </trkpt>
      <trkpt lat="46.97193" lon="-0.66729">
        <ele>176.8</ele>
        <time>2012-04-08T08:15:34Z</time>
      </trkpt>
      <trkpt lat="46.97187" lon="-0.66734">
        <ele>176.8</ele>
        <time>2012-04-08T08:15:35Z</time>
      </trkpt>
      <trkpt lat="46.97182" lon="-0.6674">
        <ele>176.6</ele>
        <time>2012-04-08T08:15:36Z</time>
      </trkpt>
      <trkpt lat="46.97177" lon="-0.66746">
        <ele>176.6</ele>
        <time>2012-04-08T08:15:37Z</time>
      </trkpt>
      <trkpt lat="46.97171" lon="-0.66751">
        <ele>176.5</ele>
        <time>2012-04-08T08:15:38Z</time>
      </trkpt>
      <trkpt lat="46.97166" lon="-0.66757">
        <ele>176.5</ele>
        <time>2012-04-08T08:15:39Z</time>
      </trkpt>
      <trkpt lat="46.97161" lon="-0.66763">
        <ele>176.3</ele>
        <time>2012-04-08T08:15:40Z</time>
      </trkpt>
      <trkpt lat="46.97156" lon="-0.66768">
        <ele>176.3</ele>
        <time>2012-04-08T08:15:41Z</time>
      </trkpt>
      <trkpt lat="46.97151" lon="-0.66773">
        <ele>176.3</ele>
        <time>2012-04-08T08:15:42Z</time>
      </trkpt>
      <trkpt lat="46.97146" lon="-0.66778">
        <ele>176.3</ele>
        <time>2012-04-08T08:15:43Z</time>
      </trkpt>
      <trkpt lat="46.97141" lon="-0.66783">
        <ele>176.3</ele>
        <time>2012-04-08T08:15:44Z</time>
      </trkpt>
      <trkpt lat="46.97136" lon="-0.66788">
        <ele>176.1</ele>
        <time>2012-04-08T08:15:45Z</time>
      </trkpt>
      <trkpt lat="46.97131" lon="-0.66793">
        <ele>176.1</ele>
        <time>2012-04-08T08:15:46Z</time>
      </trkpt>
      <trkpt lat="46.97126" lon="-0.66799">
        <ele>176.1</ele>
        <time>2012-04-08T08:15:47Z</time>
      </trkpt>
      <trkpt lat="46.97121" lon="-0.66803">
        <ele>176.1</ele>
        <time>2012-04-08T08:15:48Z</time>
      </trkpt>
      <trkpt lat="46.97117" lon="-0.66808">
        <ele>176.1</ele>
        <time>2012-04-08T08:15:49Z</time>
      </trkpt>
      <trkpt lat="46.97112" lon="-0.66813">
        <ele>176.1</ele>
        <time>2012-04-08T08:15:50Z</time>
      </trkpt>
      <trkpt lat="46.97107" lon="-0.66817">
        <ele>176.1</ele>
        <time>2012-04-08T08:15:51Z</time>
      </trkpt>
      <trkpt lat="46.97102" lon="-0.66822">
        <ele>176.1</ele>
        <time>2012-04-08T08:15:52Z</time>
      </trkpt>
      <trkpt lat="46.97098" lon="-0.66827">
        <ele>176.1</ele>
        <time>2012-04-08T08:15:53Z</time>
      </trkpt>
      <trkpt lat="46.97093" lon="-0.66831">
        <ele>176.1</ele>
        <time>2012-04-08T08:15:54Z</time>
      </trkpt>
      <trkpt lat="46.97089" lon="-0.66834">
        <ele>176</ele>
        <time>2012-04-08T08:15:55Z</time>
      </trkpt>
      <trkpt lat="46.9708" lon="-0.66838">
        <ele>175.8</ele>
        <time>2012-04-08T08:15:57Z</time>
      </trkpt>
      <trkpt lat="46.97074" lon="-0.66839">
        <ele>175.8</ele>
        <time>2012-04-08T08:15:59Z</time>
      </trkpt>
      <trkpt lat="46.9707" lon="-0.66833">
        <ele>175.8</ele>
        <time>2012-04-08T08:16:01Z</time>
      </trkpt>
      <trkpt lat="46.97069" lon="-0.66822">
        <ele>175.6</ele>
        <time>2012-04-08T08:16:03Z</time>
      </trkpt>
      <trkpt lat="46.97069" lon="-0.66815">
        <ele>175.6</ele>
        <time>2012-04-08T08:16:04Z</time>
      </trkpt>
      <trkpt lat="46.97069" lon="-0.66808">
        <ele>175.5</ele>
        <time>2012-04-08T08:16:05Z</time>
      </trkpt>
      <trkpt lat="46.97069" lon="-0.668">
        <ele>175.3</ele>
        <time>2012-04-08T08:16:06Z</time>
      </trkpt>
      <trkpt lat="46.97069" lon="-0.66792">
        <ele>175.1</ele>
        <time>2012-04-08T08:16:07Z</time>
      </trkpt>
      <trkpt lat="46.97069" lon="-0.66783">
        <ele>175.1</ele>
        <time>2012-04-08T08:16:08Z</time>
      </trkpt>
      <trkpt lat="46.97069" lon="-0.66774">
        <ele>174.8</ele>
        <time>2012-04-08T08:16:09Z</time>
      </trkpt>
      <trkpt lat="46.9707" lon="-0.66764">
        <ele>174.6</ele>
        <time>2012-04-08T08:16:10Z</time>
      </trkpt>
      <trkpt lat="46.9707" lon="-0.66754">
        <ele>174.6</ele>
        <time>2012-04-08T08:16:11Z</time>
      </trkpt>
      <trkpt lat="46.9707" lon="-0.66743">
        <ele>174.3</ele>
        <time>2012-04-08T08:16:12Z</time>
      </trkpt>
      <trkpt lat="46.97071" lon="-0.66733">
        <ele>174.3</ele>
        <time>2012-04-08T08:16:13Z</time>
      </trkpt>
      <trkpt lat="46.97071" lon="-0.66723">
        <ele>174.1</ele>
        <time>2012-04-08T08:16:14Z</time>
      </trkpt>
      <trkpt lat="46.97071" lon="-0.66713">
        <ele>174</ele>
        <time>2012-04-08T08:16:15Z</time>
      </trkpt>
      <trkpt lat="46.97071" lon="-0.66704">
        <ele>173.8</ele>
        <time>2012-04-08T08:16:16Z</time>
      </trkpt>
      <trkpt lat="46.97071" lon="-0.66695">
        <ele>173.8</ele>
        <time>2012-04-08T08:16:17Z</time>
      </trkpt>
      <trkpt lat="46.97071" lon="-0.66687">
        <ele>173.6</ele>
        <time>2012-04-08T08:16:18Z</time>
      </trkpt>
      <trkpt lat="46.97071" lon="-0.66678">
        <ele>173.6</ele>
        <time>2012-04-08T08:16:19Z</time>
      </trkpt>
      <trkpt lat="46.97071" lon="-0.6667">
        <ele>173.5</ele>
        <time>2012-04-08T08:16:20Z</time>
      </trkpt>
      <trkpt lat="46.97071" lon="-0.66662">
        <ele>173.3</ele>
        <time>2012-04-08T08:16:21Z</time>
      </trkpt>
      <trkpt lat="46.97071" lon="-0.66654">
        <ele>173.1</ele>
        <time>2012-04-08T08:16:22Z</time>
      </trkpt>
      <trkpt lat="46.97071" lon="-0.66647">
        <ele>173.1</ele>
        <time>2012-04-08T08:16:23Z</time>
      </trkpt>
      <trkpt lat="46.9707" lon="-0.6664">
        <ele>172.8</ele>
        <time>2012-04-08T08:16:24Z</time>
      </trkpt>
      <trkpt lat="46.9707" lon="-0.66633">
        <ele>172.8</ele>
        <time>2012-04-08T08:16:25Z</time>
      </trkpt>
      <trkpt lat="46.9707" lon="-0.66625">
        <ele>172.6</ele>
        <time>2012-04-08T08:16:26Z</time>
      </trkpt>
      <trkpt lat="46.9707" lon="-0.66618">
        <ele>172.6</ele>
        <time>2012-04-08T08:16:27Z</time>
      </trkpt>
      <trkpt lat="46.9707" lon="-0.6661">
        <ele>172.5</ele>
        <time>2012-04-08T08:16:28Z</time>
      </trkpt>
      <trkpt lat="46.9707" lon="-0.66603">
        <ele>172.3</ele>
        <time>2012-04-08T08:16:29Z</time>
      </trkpt>
      <trkpt lat="46.9707" lon="-0.66595">
        <ele>172.3</ele>
        <time>2012-04-08T08:16:30Z</time>
      </trkpt>
      <trkpt lat="46.97072" lon="-0.66587">
        <ele>172.1</ele>
        <time>2012-04-08T08:16:31Z</time>
      </trkpt>
      <trkpt lat="46.97074" lon="-0.6658">
        <ele>172.1</ele>
        <time>2012-04-08T08:16:32Z</time>
      </trkpt>
      <trkpt lat="46.97076" lon="-0.66573">
        <ele>172</ele>
        <time>2012-04-08T08:16:33Z</time>
      </trkpt>
      <trkpt lat="46.97078" lon="-0.66566">
        <ele>171.8</ele>
        <time>2012-04-08T08:16:34Z</time>
      </trkpt>
      <trkpt lat="46.97081" lon="-0.6656">
        <ele>171.8</ele>
        <time>2012-04-08T08:16:35Z</time>
      </trkpt>
      <trkpt lat="46.97082" lon="-0.66552">
        <ele>171.8</ele>
        <time>2012-04-08T08:16:36Z</time>
      </trkpt>
      <trkpt lat="46.97081" lon="-0.66545">
        <ele>171.6</ele>
        <time>2012-04-08T08:16:37Z</time>
      </trkpt>
      <trkpt lat="46.97078" lon="-0.6654">
        <ele>171.6</ele>
        <time>2012-04-08T08:16:38Z</time>
      </trkpt>
      <trkpt lat="46.97075" lon="-0.66535">
        <ele>171.5</ele>
        <time>2012-04-08T08:16:39Z</time>
      </trkpt>
      <trkpt lat="46.97072" lon="-0.6653">
        <ele>171.3</ele>
        <time>2012-04-08T08:16:40Z</time>
      </trkpt>
      <trkpt lat="46.97068" lon="-0.66526">
        <ele>171.3</ele>
        <time>2012-04-08T08:16:41Z</time>
      </trkpt>
      <trkpt lat="46.97064" lon="-0.66522">
        <ele>171.1</ele>
        <time>2012-04-08T08:16:42Z</time>
      </trkpt>
      <trkpt lat="46.9706" lon="-0.66518">
        <ele>171.1</ele>
        <time>2012-04-08T08:16:43Z</time>
      </trkpt>
      <trkpt lat="46.97056" lon="-0.66514">
        <ele>171</ele>
        <time>2012-04-08T08:16:44Z</time>
      </trkpt>
      <trkpt lat="46.97052" lon="-0.6651">
        <ele>170.8</ele>
        <time>2012-04-08T08:16:45Z</time>
      </trkpt>
      <trkpt lat="46.97048" lon="-0.66506">
        <ele>170.8</ele>
        <time>2012-04-08T08:16:46Z</time>
      </trkpt>
      <trkpt lat="46.97044" lon="-0.66503">
        <ele>170.8</ele>
        <time>2012-04-08T08:16:47Z</time>
      </trkpt>
      <trkpt lat="46.9704" lon="-0.66499">
        <ele>170.8</ele>
        <time>2012-04-08T08:16:48Z</time>
      </trkpt>
      <trkpt lat="46.97036" lon="-0.66495">
        <ele>170.8</ele>
        <time>2012-04-08T08:16:49Z</time>
      </trkpt>
      <trkpt lat="46.97032" lon="-0.66491">
        <ele>170.8</ele>
        <time>2012-04-08T08:16:50Z</time>
      </trkpt>
      <trkpt lat="46.97028" lon="-0.66487">
        <ele>170.8</ele>
        <time>2012-04-08T08:16:51Z</time>
      </trkpt>
      <trkpt lat="46.97024" lon="-0.66483">
        <ele>170.8</ele>
        <time>2012-04-08T08:16:52Z</time>
      </trkpt>
      <trkpt lat="46.9702" lon="-0.66479">
        <ele>171</ele>
        <time>2012-04-08T08:16:53Z</time>
      </trkpt>
      <trkpt lat="46.97016" lon="-0.66475">
        <ele>171</ele>
        <time>2012-04-08T08:16:54Z</time>
      </trkpt>
      <trkpt lat="46.97012" lon="-0.66471">
        <ele>171.1</ele>
        <time>2012-04-08T08:16:55Z</time>
      </trkpt>
      <trkpt lat="46.97005" lon="-0.66463">
        <ele>171.1</ele>
        <time>2012-04-08T08:16:57Z</time>
      </trkpt>
      <trkpt lat="46.96997" lon="-0.66461">
        <ele>171.3</ele>
        <time>2012-04-08T08:16:59Z</time>
      </trkpt>
      <trkpt lat="46.9699" lon="-0.66467">
        <ele>171.3</ele>
        <time>2012-04-08T08:17:01Z</time>
      </trkpt>
      <trkpt lat="46.96985" lon="-0.6647">
        <ele>171.3</ele>
        <time>2012-04-08T08:17:02Z</time>
      </trkpt>
      <trkpt lat="46.96981" lon="-0.66474">
        <ele>171.1</ele>
        <time>2012-04-08T08:17:03Z</time>
      </trkpt>
      <trkpt lat="46.96977" lon="-0.66477">
        <ele>171.1</ele>
        <time>2012-04-08T08:17:04Z</time>
      </trkpt>
      <trkpt lat="46.96973" lon="-0.66481">
        <ele>171.1</ele>
        <time>2012-04-08T08:17:05Z</time>
      </trkpt>
      <trkpt lat="46.96968" lon="-0.66484">
        <ele>171.1</ele>
        <time>2012-04-08T08:17:06Z</time>
      </trkpt>
      <trkpt lat="46.96964" lon="-0.66488">
        <ele>171</ele>
        <time>2012-04-08T08:17:07Z</time>
      </trkpt>
      <trkpt lat="46.9696" lon="-0.66492">
        <ele>171</ele>
        <time>2012-04-08T08:17:08Z</time>
      </trkpt>
      <trkpt lat="46.96956" lon="-0.66495">
        <ele>171</ele>
        <time>2012-04-08T08:17:09Z</time>
      </trkpt>
      <trkpt lat="46.96951" lon="-0.66499">
        <ele>170.8</ele>
        <time>2012-04-08T08:17:10Z</time>
      </trkpt>
      <trkpt lat="46.96947" lon="-0.66503">
        <ele>170.8</ele>
        <time>2012-04-08T08:17:11Z</time>
      </trkpt>
      <trkpt lat="46.96943" lon="-0.66507">
        <ele>170.8</ele>
        <time>2012-04-08T08:17:12Z</time>
      </trkpt>
      <trkpt lat="46.96939" lon="-0.66511">
        <ele>170.8</ele>
        <time>2012-04-08T08:17:13Z</time>
      </trkpt>
      <trkpt lat="46.96935" lon="-0.66514">
        <ele>170.8</ele>
        <time>2012-04-08T08:17:14Z</time>
      </trkpt>
      <trkpt lat="46.96931" lon="-0.66518">
        <ele>170.8</ele>
        <time>2012-04-08T08:17:15Z</time>
      </trkpt>
      <trkpt lat="46.96927" lon="-0.66521">
        <ele>170.6</ele>
        <time>2012-04-08T08:17:16Z</time>
      </trkpt>
      <trkpt lat="46.96923" lon="-0.66525">
        <ele>170.6</ele>
        <time>2012-04-08T08:17:17Z</time>
      </trkpt>
      <trkpt lat="46.96918" lon="-0.66528">
        <ele>170.6</ele>
        <time>2012-04-08T08:17:18Z</time>
      </trkpt>
      <trkpt lat="46.96914" lon="-0.66532">
        <ele>170.6</ele>
        <time>2012-04-08T08:17:19Z</time>
      </trkpt>
      <trkpt lat="46.9691" lon="-0.66535">
        <ele>170.6</ele>
        <time>2012-04-08T08:17:20Z</time>
      </trkpt>
      <trkpt lat="46.96906" lon="-0.66539">
        <ele>170.6</ele>
        <time>2012-04-08T08:17:21Z</time>
      </trkpt>
      <trkpt lat="46.96902" lon="-0.66542">
        <ele>170.6</ele>
        <time>2012-04-08T08:17:22Z</time>
      </trkpt>
      <trkpt lat="46.96899" lon="-0.66545">
        <ele>170.5</ele>
        <time>2012-04-08T08:17:23Z</time>
      </trkpt>
      <trkpt lat="46.96895" lon="-0.66549">
        <ele>170.5</ele>
        <time>2012-04-08T08:17:24Z</time>
      </trkpt>
      <trkpt lat="46.96891" lon="-0.66552">
        <ele>170.5</ele>
        <time>2012-04-08T08:17:25Z</time>
      </trkpt>
      <trkpt lat="46.96886" lon="-0.66556">
        <ele>170.3</ele>
        <time>2012-04-08T08:17:26Z</time>
      </trkpt>
      <trkpt lat="46.96882" lon="-0.66559">
        <ele>170.3</ele>
        <time>2012-04-08T08:17:27Z</time>
      </trkpt>
      <trkpt lat="46.96877" lon="-0.66562">
        <ele>170.3</ele>
        <time>2012-04-08T08:17:28Z</time>
      </trkpt>
      <trkpt lat="46.96872" lon="-0.66566">
        <ele>170.3</ele>
        <time>2012-04-08T08:17:29Z</time>
      </trkpt>
      <trkpt lat="46.96868" lon="-0.6657">
        <ele>170.3</ele>
        <time>2012-04-08T08:17:30Z</time>
      </trkpt>
      <trkpt lat="46.96863" lon="-0.66574">
        <ele>170.3</ele>
        <time>2012-04-08T08:17:31Z</time>
      </trkpt>
      <trkpt lat="46.96858" lon="-0.66578">
        <ele>170.3</ele>
        <time>2012-04-08T08:17:32Z</time>
      </trkpt>
      <trkpt lat="46.96853" lon="-0.66582">
        <ele>170.3</ele>
        <time>2012-04-08T08:17:33Z</time>
      </trkpt>
      <trkpt lat="46.96849" lon="-0.66586">
        <ele>170.1</ele>
        <time>2012-04-08T08:17:34Z</time>
      </trkpt>
      <trkpt lat="46.96844" lon="-0.66591">
        <ele>170.1</ele>
        <time>2012-04-08T08:17:35Z</time>
      </trkpt>
      <trkpt lat="46.96838" lon="-0.66595">
        <ele>170.1</ele>
        <time>2012-04-08T08:17:36Z</time>
      </trkpt>
      <trkpt lat="46.96833" lon="-0.666">
        <ele>170</ele>
        <time>2012-04-08T08:17:37Z</time>
      </trkpt>
      <trkpt lat="46.96828" lon="-0.66605">
        <ele>169.8</ele>
        <time>2012-04-08T08:17:38Z</time>
      </trkpt>
      <trkpt lat="46.96822" lon="-0.66609">
        <ele>169.8</ele>
        <time>2012-04-08T08:17:39Z</time>
      </trkpt>
      <trkpt lat="46.96817" lon="-0.66614">
        <ele>169.8</ele>
        <time>2012-04-08T08:17:40Z</time>
      </trkpt>
      <trkpt lat="46.96811" lon="-0.66619">
        <ele>169.8</ele>
        <time>2012-04-08T08:17:41Z</time>
      </trkpt>
      <trkpt lat="46.96806" lon="-0.66624">
        <ele>169.8</ele>
        <time>2012-04-08T08:17:42Z</time>
      </trkpt>
      <trkpt lat="46.96801" lon="-0.66628">
        <ele>169.8</ele>
        <time>2012-04-08T08:17:43Z</time>
      </trkpt>
      <trkpt lat="46.96796" lon="-0.66633">
        <ele>169.6</ele>
        <time>2012-04-08T08:17:44Z</time>
      </trkpt>
      <trkpt lat="46.96791" lon="-0.66637">
        <ele>169.6</ele>
        <time>2012-04-08T08:17:45Z</time>
      </trkpt>
      <trkpt lat="46.96786" lon="-0.66641">
        <ele>169.5</ele>
        <time>2012-04-08T08:17:46Z</time>
      </trkpt>
      <trkpt lat="46.96782" lon="-0.66645">
        <ele>169.5</ele>
        <time>2012-04-08T08:17:47Z</time>
      </trkpt>
      <trkpt lat="46.96777" lon="-0.66649">
        <ele>169.5</ele>
        <time>2012-04-08T08:17:48Z</time>
      </trkpt>
      <trkpt lat="46.96773" lon="-0.66653">
        <ele>169.5</ele>
        <time>2012-04-08T08:17:49Z</time>
      </trkpt>
      <trkpt lat="46.96768" lon="-0.66657">
        <ele>169.5</ele>
        <time>2012-04-08T08:17:50Z</time>
      </trkpt>
      <trkpt lat="46.96764" lon="-0.66661">
        <ele>169.5</ele>
        <time>2012-04-08T08:17:51Z</time>
      </trkpt>
      <trkpt lat="46.96759" lon="-0.66665">
        <ele>169.6</ele>
        <time>2012-04-08T08:17:52Z</time>
      </trkpt>
      <trkpt lat="46.96754" lon="-0.66669">
        <ele>169.6</ele>
        <time>2012-04-08T08:17:53Z</time>
      </trkpt>
      <trkpt lat="46.96749" lon="-0.66673">
        <ele>169.6</ele>
        <time>2012-04-08T08:17:54Z</time>
      </trkpt>
      <trkpt lat="46.96744" lon="-0.66678">
        <ele>169.6</ele>
        <time>2012-04-08T08:17:55Z</time>
      </trkpt>
      <trkpt lat="46.9674" lon="-0.66682">
        <ele>169.6</ele>
        <time>2012-04-08T08:17:56Z</time>
      </trkpt>
      <trkpt lat="46.96735" lon="-0.66686">
        <ele>169.6</ele>
        <time>2012-04-08T08:17:57Z</time>
      </trkpt>
      <trkpt lat="46.96731" lon="-0.6669">
        <ele>169.6</ele>
        <time>2012-04-08T08:17:58Z</time>
      </trkpt>
      <trkpt lat="46.96726" lon="-0.66692">
        <ele>169.5</ele>
        <time>2012-04-08T08:17:59Z</time>
      </trkpt>
      <trkpt lat="46.96722" lon="-0.66694">
        <ele>169.3</ele>
        <time>2012-04-08T08:18:00Z</time>
      </trkpt>
      <trkpt lat="46.96717" lon="-0.66696">
        <ele>169.3</ele>
        <time>2012-04-08T08:18:01Z</time>
      </trkpt>
      <trkpt lat="46.96712" lon="-0.66698">
        <ele>169.3</ele>
        <time>2012-04-08T08:18:02Z</time>
      </trkpt>
      <trkpt lat="46.96705" lon="-0.66705">
        <ele>169.1</ele>
        <time>2012-04-08T08:18:04Z</time>
      </trkpt>
      <trkpt lat="46.96698" lon="-0.66714">
        <ele>168.8</ele>
        <time>2012-04-08T08:18:06Z</time>
      </trkpt>
      <trkpt lat="46.96693" lon="-0.66723">
        <ele>168.6</ele>
        <time>2012-04-08T08:18:08Z</time>
      </trkpt>
      <trkpt lat="46.9669" lon="-0.66734">
        <ele>168.6</ele>
        <time>2012-04-08T08:18:10Z</time>
      </trkpt>
      <trkpt lat="46.96687" lon="-0.66744">
        <ele>168.5</ele>
        <time>2012-04-08T08:18:12Z</time>
      </trkpt>
      <trkpt lat="46.96682" lon="-0.66753">
        <ele>168.1</ele>
        <time>2012-04-08T08:18:14Z</time>
      </trkpt>
      <trkpt lat="46.96676" lon="-0.66763">
        <ele>167.5</ele>
        <time>2012-04-08T08:18:16Z</time>
      </trkpt>
      <trkpt lat="46.96671" lon="-0.66773">
        <ele>167.1</ele>
        <time>2012-04-08T08:18:18Z</time>
      </trkpt>
      <trkpt lat="46.96666" lon="-0.66782">
        <ele>166.6</ele>
        <time>2012-04-08T08:18:20Z</time>
      </trkpt>
      <trkpt lat="46.96661" lon="-0.66789">
        <ele>166.6</ele>
        <time>2012-04-08T08:18:22Z</time>
      </trkpt>
      <trkpt lat="46.96656" lon="-0.66797">
        <ele>166.6</ele>
        <time>2012-04-08T08:18:24Z</time>
      </trkpt>
      <trkpt lat="46.96651" lon="-0.66805">
        <ele>166.6</ele>
        <time>2012-04-08T08:18:26Z</time>
      </trkpt>
      <trkpt lat="46.96645" lon="-0.66812">
        <ele>166.6</ele>
        <time>2012-04-08T08:18:28Z</time>
      </trkpt>
      <trkpt lat="46.96639" lon="-0.66819">
        <ele>166.1</ele>
        <time>2012-04-08T08:18:30Z</time>
      </trkpt>
      <trkpt lat="46.96632" lon="-0.66826">
        <ele>165.8</ele>
        <time>2012-04-08T08:18:32Z</time>
      </trkpt>
      <trkpt lat="46.96626" lon="-0.66832">
        <ele>165.8</ele>
        <time>2012-04-08T08:18:34Z</time>
      </trkpt>
      <trkpt lat="46.9662" lon="-0.66837">
        <ele>165.8</ele>
        <time>2012-04-08T08:18:36Z</time>
      </trkpt>
      <trkpt lat="46.96613" lon="-0.66844">
        <ele>165.8</ele>
        <time>2012-04-08T08:18:38Z</time>
      </trkpt>
      <trkpt lat="46.96608" lon="-0.66851">
        <ele>165.8</ele>
        <time>2012-04-08T08:18:40Z</time>
      </trkpt>
      <trkpt lat="46.96602" lon="-0.66858">
        <ele>165.8</ele>
        <time>2012-04-08T08:18:42Z</time>
      </trkpt>
      <trkpt lat="46.96596" lon="-0.66866">
        <ele>165.8</ele>
        <time>2012-04-08T08:18:44Z</time>
      </trkpt>
      <trkpt lat="46.96591" lon="-0.66873">
        <ele>165.8</ele>
        <time>2012-04-08T08:18:46Z</time>
      </trkpt>
      <trkpt lat="46.96586" lon="-0.6688">
        <ele>165.8</ele>
        <time>2012-04-08T08:18:48Z</time>
      </trkpt>
      <trkpt lat="46.96581" lon="-0.66886">
        <ele>165.8</ele>
        <time>2012-04-08T08:18:50Z</time>
      </trkpt>
      <trkpt lat="46.96575" lon="-0.66895">
        <ele>165.8</ele>
        <time>2012-04-08T08:18:53Z</time>
      </trkpt>
      <trkpt lat="46.9657" lon="-0.66904">
        <ele>165.8</ele>
        <time>2012-04-08T08:18:56Z</time>
      </trkpt>
      <trkpt lat="46.96568" lon="-0.66908">
        <ele>165.8</ele>
        <time>2012-04-08T08:18:57Z</time>
      </trkpt>
      <trkpt lat="46.96559" lon="-0.66923">
        <ele>165.8</ele>
        <time>2012-04-08T08:19:02Z</time>
      </trkpt>
      <trkpt lat="46.96554" lon="-0.66933">
        <ele>165.8</ele>
        <time>2012-04-08T08:19:05Z</time>
      </trkpt>
      <trkpt lat="46.96548" lon="-0.66943">
        <ele>165.8</ele>
        <time>2012-04-08T08:19:08Z</time>
      </trkpt>
      <trkpt lat="46.96543" lon="-0.66954">
        <ele>165.8</ele>
        <time>2012-04-08T08:19:11Z</time>
      </trkpt>
      <trkpt lat="46.9654" lon="-0.66961">
        <ele>165.8</ele>
        <time>2012-04-08T08:19:13Z</time>
      </trkpt>
      <trkpt lat="46.96534" lon="-0.66971">
        <ele>165.8</ele>
        <time>2012-04-08T08:19:16Z</time>
      </trkpt>
      <trkpt lat="46.96529" lon="-0.66981">
        <ele>165.6</ele>
        <time>2012-04-08T08:19:19Z</time>
      </trkpt>
      <trkpt lat="46.96524" lon="-0.66989">
        <ele>165.6</ele>
        <time>2012-04-08T08:19:22Z</time>
      </trkpt>
      <trkpt lat="46.9652" lon="-0.66994">
        <ele>165.5</ele>
        <time>2012-04-08T08:21:32Z</time>
      </trkpt>
      <trkpt lat="46.96517" lon="-0.66999">
        <ele>165.6</ele>
        <time>2012-04-08T08:21:33Z</time>
      </trkpt>
      <trkpt lat="46.96512" lon="-0.67001">
        <ele>165.8</ele>
        <time>2012-04-08T08:24:39Z</time>
      </trkpt>
      <trkpt lat="46.96504" lon="-0.67008">
        <ele>166.1</ele>
        <time>2012-04-08T08:29:40Z</time>
      </trkpt>
      <trkpt lat="46.96493" lon="-0.67021">
        <ele>165.8</ele>
        <time>2012-04-08T08:29:48Z</time>
      </trkpt>
      <trkpt lat="46.96487" lon="-0.67029">
        <ele>165.8</ele>
        <time>2012-04-08T08:29:51Z</time>
      </trkpt>
      <trkpt lat="46.96482" lon="-0.67034">
        <ele>165.8</ele>
        <time>2012-04-08T08:29:53Z</time>
      </trkpt>
      <trkpt lat="46.96476" lon="-0.67041">
        <ele>165.6</ele>
        <time>2012-04-08T08:29:55Z</time>
      </trkpt>
      <trkpt lat="46.96471" lon="-0.67048">
        <ele>165.3</ele>
        <time>2012-04-08T08:29:57Z</time>
      </trkpt>
      <trkpt lat="46.96464" lon="-0.67056">
        <ele>165</ele>
        <time>2012-04-08T08:29:59Z</time>
      </trkpt>
      <trkpt lat="46.96458" lon="-0.67065">
        <ele>164.6</ele>
        <time>2012-04-08T08:30:01Z</time>
      </trkpt>
      <trkpt lat="46.96453" lon="-0.67073">
        <ele>164.3</ele>
        <time>2012-04-08T08:30:03Z</time>
      </trkpt>
      <trkpt lat="46.96447" lon="-0.67083">
        <ele>164</ele>
        <time>2012-04-08T08:30:05Z</time>
      </trkpt>
      <trkpt lat="46.96442" lon="-0.67092">
        <ele>163.6</ele>
        <time>2012-04-08T08:30:07Z</time>
      </trkpt>
      <trkpt lat="46.96437" lon="-0.67103">
        <ele>163.5</ele>
        <time>2012-04-08T08:30:09Z</time>
      </trkpt>
      <trkpt lat="46.96433" lon="-0.67113">
        <ele>163.1</ele>
        <time>2012-04-08T08:30:11Z</time>
      </trkpt>
      <trkpt lat="46.96428" lon="-0.67122">
        <ele>163.1</ele>
        <time>2012-04-08T08:30:13Z</time>
      </trkpt>
      <trkpt lat="46.96424" lon="-0.67133">
        <ele>163</ele>
        <time>2012-04-08T08:30:15Z</time>
      </trkpt>
      <trkpt lat="46.96419" lon="-0.67144">
        <ele>162.8</ele>
        <time>2012-04-08T08:30:17Z</time>
      </trkpt>
      <trkpt lat="46.96415" lon="-0.67155">
        <ele>162.8</ele>
        <time>2012-04-08T08:30:19Z</time>
      </trkpt>
      <trkpt lat="46.96412" lon="-0.67165">
        <ele>162.8</ele>
        <time>2012-04-08T08:30:21Z</time>
      </trkpt>
      <trkpt lat="46.96408" lon="-0.67175">
        <ele>162.8</ele>
        <time>2012-04-08T08:30:23Z</time>
      </trkpt>
      <trkpt lat="46.96403" lon="-0.67185">
        <ele>163</ele>
        <time>2012-04-08T08:30:25Z</time>
      </trkpt>
      <trkpt lat="46.96399" lon="-0.67193">
        <ele>163</ele>
        <time>2012-04-08T08:30:27Z</time>
      </trkpt>
      <trkpt lat="46.96393" lon="-0.67202">
        <ele>163.1</ele>
        <time>2012-04-08T08:30:29Z</time>
      </trkpt>
      <trkpt lat="46.96387" lon="-0.67209">
        <ele>163.3</ele>
        <time>2012-04-08T08:30:31Z</time>
      </trkpt>
      <trkpt lat="46.96381" lon="-0.67216">
        <ele>163.3</ele>
        <time>2012-04-08T08:30:33Z</time>
      </trkpt>
      <trkpt lat="46.96374" lon="-0.67223">
        <ele>163.5</ele>
        <time>2012-04-08T08:30:35Z</time>
      </trkpt>
      <trkpt lat="46.96367" lon="-0.67229">
        <ele>163.6</ele>
        <time>2012-04-08T08:30:37Z</time>
      </trkpt>
      <trkpt lat="46.96359" lon="-0.67234">
        <ele>163.6</ele>
        <time>2012-04-08T08:30:39Z</time>
      </trkpt>
      <trkpt lat="46.96352" lon="-0.67239">
        <ele>163.8</ele>
        <time>2012-04-08T08:30:41Z</time>
      </trkpt>
      <trkpt lat="46.96348" lon="-0.67242">
        <ele>163.8</ele>
        <time>2012-04-08T08:30:42Z</time>
      </trkpt>
      <trkpt lat="46.96338" lon="-0.6725">
        <ele>163.8</ele>
        <time>2012-04-08T08:30:45Z</time>
      </trkpt>
      <trkpt lat="46.96331" lon="-0.67255">
        <ele>163.8</ele>
        <time>2012-04-08T08:30:47Z</time>
      </trkpt>
      <trkpt lat="46.96324" lon="-0.67261">
        <ele>164</ele>
        <time>2012-04-08T08:30:49Z</time>
      </trkpt>
      <trkpt lat="46.96317" lon="-0.67267">
        <ele>164.1</ele>
        <time>2012-04-08T08:30:51Z</time>
      </trkpt>
      <trkpt lat="46.9631" lon="-0.67273">
        <ele>164.3</ele>
        <time>2012-04-08T08:30:53Z</time>
      </trkpt>
      <trkpt lat="46.96303" lon="-0.67279">
        <ele>164.6</ele>
        <time>2012-04-08T08:30:55Z</time>
      </trkpt>
      <trkpt lat="46.96296" lon="-0.67285">
        <ele>164.8</ele>
        <time>2012-04-08T08:30:57Z</time>
      </trkpt>
      <trkpt lat="46.96289" lon="-0.67292">
        <ele>164.8</ele>
        <time>2012-04-08T08:30:59Z</time>
      </trkpt>
      <trkpt lat="46.96283" lon="-0.67299">
        <ele>165</ele>
        <time>2012-04-08T08:31:01Z</time>
      </trkpt>
      <trkpt lat="46.96277" lon="-0.67305">
        <ele>165.1</ele>
        <time>2012-04-08T08:31:03Z</time>
      </trkpt>
      <trkpt lat="46.96271" lon="-0.6731">
        <ele>165.1</ele>
        <time>2012-04-08T08:31:05Z</time>
      </trkpt>
      <trkpt lat="46.96266" lon="-0.67317">
        <ele>165.1</ele>
        <time>2012-04-08T08:31:08Z</time>
      </trkpt>
      <trkpt lat="46.96261" lon="-0.67321">
        <ele>165.1</ele>
        <time>2012-04-08T08:32:20Z</time>
      </trkpt>
      <trkpt lat="46.96258" lon="-0.67327">
        <ele>165.8</ele>
        <time>2012-04-08T08:32:21Z</time>
      </trkpt>
      <trkpt lat="46.96248" lon="-0.67332">
        <ele>166.3</ele>
        <time>2012-04-08T08:32:26Z</time>
      </trkpt>
      <trkpt lat="46.9624" lon="-0.67333">
        <ele>166.6</ele>
        <time>2012-04-08T08:32:29Z</time>
      </trkpt>
      <trkpt lat="46.96234" lon="-0.67333">
        <ele>166.6</ele>
        <time>2012-04-08T08:32:31Z</time>
      </trkpt>
      <trkpt lat="46.96227" lon="-0.67334">
        <ele>166.8</ele>
        <time>2012-04-08T08:32:33Z</time>
      </trkpt>
      <trkpt lat="46.9622" lon="-0.67334">
        <ele>167</ele>
        <time>2012-04-08T08:32:35Z</time>
      </trkpt>
      <trkpt lat="46.96214" lon="-0.67335">
        <ele>167.1</ele>
        <time>2012-04-08T08:32:37Z</time>
      </trkpt>
      <trkpt lat="46.96207" lon="-0.67338">
        <ele>167.3</ele>
        <time>2012-04-08T08:32:39Z</time>
      </trkpt>
      <trkpt lat="46.962" lon="-0.67341">
        <ele>168.6</ele>
        <time>2012-04-08T08:32:41Z</time>
      </trkpt>
      <trkpt lat="46.96191" lon="-0.67344">
        <ele>169.5</ele>
        <time>2012-04-08T08:32:43Z</time>
      </trkpt>
      <trkpt lat="46.96186" lon="-0.67345">
        <ele>169.8</ele>
        <time>2012-04-08T08:32:44Z</time>
      </trkpt>
      <trkpt lat="46.96181" lon="-0.67347">
        <ele>170.1</ele>
        <time>2012-04-08T08:32:45Z</time>
      </trkpt>
      <trkpt lat="46.96177" lon="-0.67348">
        <ele>170.3</ele>
        <time>2012-04-08T08:32:46Z</time>
      </trkpt>
      <trkpt lat="46.96172" lon="-0.6735">
        <ele>170.6</ele>
        <time>2012-04-08T08:32:47Z</time>
      </trkpt>
      <trkpt lat="46.96167" lon="-0.67352">
        <ele>170.8</ele>
        <time>2012-04-08T08:32:48Z</time>
      </trkpt>
      <trkpt lat="46.96162" lon="-0.67353">
        <ele>171</ele>
        <time>2012-04-08T08:32:49Z</time>
      </trkpt>
      <trkpt lat="46.96157" lon="-0.67355">
        <ele>171.1</ele>
        <time>2012-04-08T08:32:50Z</time>
      </trkpt>
      <trkpt lat="46.96152" lon="-0.67357">
        <ele>171.1</ele>
        <time>2012-04-08T08:32:51Z</time>
      </trkpt>
      <trkpt lat="46.96147" lon="-0.67358">
        <ele>171.3</ele>
        <time>2012-04-08T08:32:52Z</time>
      </trkpt>
      <trkpt lat="46.96142" lon="-0.6736">
        <ele>171.3</ele>
        <time>2012-04-08T08:32:53Z</time>
      </trkpt>
      <trkpt lat="46.96137" lon="-0.67362">
        <ele>171.3</ele>
        <time>2012-04-08T08:32:54Z</time>
      </trkpt>
      <trkpt lat="46.96132" lon="-0.67365">
        <ele>171.3</ele>
        <time>2012-04-08T08:32:55Z</time>
      </trkpt>
      <trkpt lat="46.96127" lon="-0.67367">
        <ele>171.3</ele>
        <time>2012-04-08T08:32:56Z</time>
      </trkpt>
      <trkpt lat="46.96122" lon="-0.6737">
        <ele>171.3</ele>
        <time>2012-04-08T08:32:57Z</time>
      </trkpt>
      <trkpt lat="46.96117" lon="-0.67372">
        <ele>171.3</ele>
        <time>2012-04-08T08:32:58Z</time>
      </trkpt>
      <trkpt lat="46.96112" lon="-0.67375">
        <ele>171.3</ele>
        <time>2012-04-08T08:32:59Z</time>
      </trkpt>
      <trkpt lat="46.96106" lon="-0.67378">
        <ele>171.3</ele>
        <time>2012-04-08T08:33:00Z</time>
      </trkpt>
      <trkpt lat="46.96101" lon="-0.67381">
        <ele>171.3</ele>
        <time>2012-04-08T08:33:01Z</time>
      </trkpt>
      <trkpt lat="46.96096" lon="-0.67384">
        <ele>171.3</ele>
        <time>2012-04-08T08:33:02Z</time>
      </trkpt>
      <trkpt lat="46.96091" lon="-0.67388">
        <ele>171.3</ele>
        <time>2012-04-08T08:33:03Z</time>
      </trkpt>
      <trkpt lat="46.96086" lon="-0.67392">
        <ele>171.3</ele>
        <time>2012-04-08T08:33:04Z</time>
      </trkpt>
      <trkpt lat="46.96082" lon="-0.67395">
        <ele>171.3</ele>
        <time>2012-04-08T08:33:05Z</time>
      </trkpt>
      <trkpt lat="46.96077" lon="-0.67399">
        <ele>171.3</ele>
        <time>2012-04-08T08:33:06Z</time>
      </trkpt>
      <trkpt lat="46.96073" lon="-0.67404">
        <ele>171.3</ele>
        <time>2012-04-08T08:33:07Z</time>
      </trkpt>
      <trkpt lat="46.96068" lon="-0.67408">
        <ele>171.3</ele>
        <time>2012-04-08T08:33:08Z</time>
      </trkpt>
      <trkpt lat="46.96064" lon="-0.67412">
        <ele>171.3</ele>
        <time>2012-04-08T08:33:09Z</time>
      </trkpt>
      <trkpt lat="46.96059" lon="-0.67416">
        <ele>171.3</ele>
        <time>2012-04-08T08:33:10Z</time>
      </trkpt>
      <trkpt lat="46.96054" lon="-0.67421">
        <ele>171.3</ele>
        <time>2012-04-08T08:33:11Z</time>
      </trkpt>
      <trkpt lat="46.9605" lon="-0.67426">
        <ele>171.3</ele>
        <time>2012-04-08T08:33:12Z</time>
      </trkpt>
      <trkpt lat="46.96045" lon="-0.67431">
        <ele>171.3</ele>
        <time>2012-04-08T08:33:13Z</time>
      </trkpt>
      <trkpt lat="46.9604" lon="-0.67436">
        <ele>171.3</ele>
        <time>2012-04-08T08:33:14Z</time>
      </trkpt>
      <trkpt lat="46.96036" lon="-0.67441">
        <ele>171.3</ele>
        <time>2012-04-08T08:33:15Z</time>
      </trkpt>
      <trkpt lat="46.96031" lon="-0.67446">
        <ele>171.3</ele>
        <time>2012-04-08T08:33:16Z</time>
      </trkpt>
      <trkpt lat="46.96027" lon="-0.67452">
        <ele>171.1</ele>
        <time>2012-04-08T08:33:17Z</time>
      </trkpt>
      <trkpt lat="46.96023" lon="-0.67458">
        <ele>171.1</ele>
        <time>2012-04-08T08:33:18Z</time>
      </trkpt>
      <trkpt lat="46.96019" lon="-0.67463">
        <ele>171.1</ele>
        <time>2012-04-08T08:33:19Z</time>
      </trkpt>
      <trkpt lat="46.96014" lon="-0.67469">
        <ele>171.1</ele>
        <time>2012-04-08T08:33:20Z</time>
      </trkpt>
      <trkpt lat="46.9601" lon="-0.67475">
        <ele>171.1</ele>
        <time>2012-04-08T08:33:21Z</time>
      </trkpt>
      <trkpt lat="46.96006" lon="-0.67481">
        <ele>171.1</ele>
        <time>2012-04-08T08:33:22Z</time>
      </trkpt>
      <trkpt lat="46.96002" lon="-0.67487">
        <ele>171.1</ele>
        <time>2012-04-08T08:33:23Z</time>
      </trkpt>
      <trkpt lat="46.95998" lon="-0.67493">
        <ele>171.1</ele>
        <time>2012-04-08T08:33:24Z</time>
      </trkpt>
      <trkpt lat="46.95994" lon="-0.67498">
        <ele>171.1</ele>
        <time>2012-04-08T08:33:25Z</time>
      </trkpt>
      <trkpt lat="46.9599" lon="-0.67503">
        <ele>171.1</ele>
        <time>2012-04-08T08:33:26Z</time>
      </trkpt>
      <trkpt lat="46.95985" lon="-0.67509">
        <ele>171.1</ele>
        <time>2012-04-08T08:33:27Z</time>
      </trkpt>
      <trkpt lat="46.95981" lon="-0.67514">
        <ele>171.1</ele>
        <time>2012-04-08T08:33:28Z</time>
      </trkpt>
      <trkpt lat="46.95976" lon="-0.67519">
        <ele>171.1</ele>
        <time>2012-04-08T08:33:29Z</time>
      </trkpt>
      <trkpt lat="46.95972" lon="-0.67523">
        <ele>171</ele>
        <time>2012-04-08T08:33:30Z</time>
      </trkpt>
      <trkpt lat="46.95967" lon="-0.67528">
        <ele>171</ele>
        <time>2012-04-08T08:33:31Z</time>
      </trkpt>
      <trkpt lat="46.95962" lon="-0.67534">
        <ele>171</ele>
        <time>2012-04-08T08:33:32Z</time>
      </trkpt>
      <trkpt lat="46.95957" lon="-0.67539">
        <ele>171</ele>
        <time>2012-04-08T08:33:33Z</time>
      </trkpt>
      <trkpt lat="46.95952" lon="-0.67544">
        <ele>171</ele>
        <time>2012-04-08T08:33:34Z</time>
      </trkpt>
      <trkpt lat="46.95947" lon="-0.67549">
        <ele>170.8</ele>
        <time>2012-04-08T08:33:35Z</time>
      </trkpt>
      <trkpt lat="46.95942" lon="-0.67554">
        <ele>170.8</ele>
        <time>2012-04-08T08:33:36Z</time>
      </trkpt>
      <trkpt lat="46.95937" lon="-0.67559">
        <ele>170.8</ele>
        <time>2012-04-08T08:33:37Z</time>
      </trkpt>
      <trkpt lat="46.95931" lon="-0.67564">
        <ele>170.8</ele>
        <time>2012-04-08T08:33:38Z</time>
      </trkpt>
      <trkpt lat="46.95926" lon="-0.67569">
        <ele>170.8</ele>
        <time>2012-04-08T08:33:39Z</time>
      </trkpt>
      <trkpt lat="46.95921" lon="-0.67574">
        <ele>170.8</ele>
        <time>2012-04-08T08:33:40Z</time>
      </trkpt>
      <trkpt lat="46.95916" lon="-0.6758">
        <ele>170.8</ele>
        <time>2012-04-08T08:33:41Z</time>
      </trkpt>
      <trkpt lat="46.95911" lon="-0.67586">
        <ele>170.6</ele>
        <time>2012-04-08T08:33:42Z</time>
      </trkpt>
      <trkpt lat="46.95906" lon="-0.67593">
        <ele>170.6</ele>
        <time>2012-04-08T08:33:43Z</time>
      </trkpt>
      <trkpt lat="46.95901" lon="-0.676">
        <ele>170.6</ele>
        <time>2012-04-08T08:33:44Z</time>
      </trkpt>
      <trkpt lat="46.95897" lon="-0.67607">
        <ele>170.6</ele>
        <time>2012-04-08T08:33:45Z</time>
      </trkpt>
      <trkpt lat="46.95893" lon="-0.67614">
        <ele>170.6</ele>
        <time>2012-04-08T08:33:46Z</time>
      </trkpt>
      <trkpt lat="46.95888" lon="-0.67621">
        <ele>170.6</ele>
        <time>2012-04-08T08:33:47Z</time>
      </trkpt>
      <trkpt lat="46.95884" lon="-0.67628">
        <ele>170.6</ele>
        <time>2012-04-08T08:33:48Z</time>
      </trkpt>
      <trkpt lat="46.9588" lon="-0.67636">
        <ele>170.6</ele>
        <time>2012-04-08T08:33:49Z</time>
      </trkpt>
      <trkpt lat="46.95876" lon="-0.67644">
        <ele>170.5</ele>
        <time>2012-04-08T08:33:50Z</time>
      </trkpt>
      <trkpt lat="46.95873" lon="-0.67653">
        <ele>170.3</ele>
        <time>2012-04-08T08:33:51Z</time>
      </trkpt>
      <trkpt lat="46.95869" lon="-0.67663">
        <ele>170.1</ele>
        <time>2012-04-08T08:33:52Z</time>
      </trkpt>
      <trkpt lat="46.95864" lon="-0.67672">
        <ele>170</ele>
        <time>2012-04-08T08:33:53Z</time>
      </trkpt>
      <trkpt lat="46.9586" lon="-0.67682">
        <ele>169.8</ele>
        <time>2012-04-08T08:33:54Z</time>
      </trkpt>
      <trkpt lat="46.95855" lon="-0.67692">
        <ele>169.6</ele>
        <time>2012-04-08T08:33:55Z</time>
      </trkpt>
      <trkpt lat="46.95849" lon="-0.67701">
        <ele>169.6</ele>
        <time>2012-04-08T08:33:56Z</time>
      </trkpt>
      <trkpt lat="46.95843" lon="-0.67709">
        <ele>169.5</ele>
        <time>2012-04-08T08:33:57Z</time>
      </trkpt>
      <trkpt lat="46.95837" lon="-0.67717">
        <ele>169.3</ele>
        <time>2012-04-08T08:33:58Z</time>
      </trkpt>
      <trkpt lat="46.9583" lon="-0.67724">
        <ele>169.3</ele>
        <time>2012-04-08T08:33:59Z</time>
      </trkpt>
      <trkpt lat="46.95823" lon="-0.6773">
        <ele>169.1</ele>
        <time>2012-04-08T08:34:00Z</time>
      </trkpt>
      <trkpt lat="46.95815" lon="-0.67737">
        <ele>169.1</ele>
        <time>2012-04-08T08:34:01Z</time>
      </trkpt>
      <trkpt lat="46.95808" lon="-0.67744">
        <ele>168.8</ele>
        <time>2012-04-08T08:34:02Z</time>
      </trkpt>
      <trkpt lat="46.958" lon="-0.67751">
        <ele>168.6</ele>
        <time>2012-04-08T08:34:03Z</time>
      </trkpt>
      <trkpt lat="46.95792" lon="-0.67758">
        <ele>168.6</ele>
        <time>2012-04-08T08:34:04Z</time>
      </trkpt>
      <trkpt lat="46.95784" lon="-0.67766">
        <ele>168.3</ele>
        <time>2012-04-08T08:34:05Z</time>
      </trkpt>
      <trkpt lat="46.95776" lon="-0.67773">
        <ele>168.1</ele>
        <time>2012-04-08T08:34:06Z</time>
      </trkpt>
      <trkpt lat="46.95768" lon="-0.67781">
        <ele>167.8</ele>
        <time>2012-04-08T08:34:07Z</time>
      </trkpt>
      <trkpt lat="46.95759" lon="-0.67788">
        <ele>167.6</ele>
        <time>2012-04-08T08:34:08Z</time>
      </trkpt>
      <trkpt lat="46.95751" lon="-0.67796">
        <ele>167.3</ele>
        <time>2012-04-08T08:34:09Z</time>
      </trkpt>
      <trkpt lat="46.95743" lon="-0.67803">
        <ele>167.1</ele>
        <time>2012-04-08T08:34:10Z</time>
      </trkpt>
      <trkpt lat="46.95734" lon="-0.67811">
        <ele>166.8</ele>
        <time>2012-04-08T08:34:11Z</time>
      </trkpt>
      <trkpt lat="46.95726" lon="-0.67818">
        <ele>166.5</ele>
        <time>2012-04-08T08:34:12Z</time>
      </trkpt>
      <trkpt lat="46.95718" lon="-0.67825">
        <ele>166.1</ele>
        <time>2012-04-08T08:34:13Z</time>
      </trkpt>
      <trkpt lat="46.9571" lon="-0.67833">
        <ele>165.8</ele>
        <time>2012-04-08T08:34:14Z</time>
      </trkpt>
      <trkpt lat="46.95702" lon="-0.6784">
        <ele>165.5</ele>
        <time>2012-04-08T08:34:15Z</time>
      </trkpt>
      <trkpt lat="46.95695" lon="-0.67847">
        <ele>165.1</ele>
        <time>2012-04-08T08:34:16Z</time>
      </trkpt>
      <trkpt lat="46.95687" lon="-0.67854">
        <ele>164.8</ele>
        <time>2012-04-08T08:34:17Z</time>
      </trkpt>
      <trkpt lat="46.9568" lon="-0.6786">
        <ele>164.3</ele>
        <time>2012-04-08T08:34:18Z</time>
      </trkpt>
      <trkpt lat="46.95673" lon="-0.67866">
        <ele>164.1</ele>
        <time>2012-04-08T08:34:19Z</time>
      </trkpt>
      <trkpt lat="46.95667" lon="-0.67873">
        <ele>163.6</ele>
        <time>2012-04-08T08:34:20Z</time>
      </trkpt>
      <trkpt lat="46.9566" lon="-0.67879">
        <ele>163.3</ele>
        <time>2012-04-08T08:34:21Z</time>
      </trkpt>
      <trkpt lat="46.95654" lon="-0.67885">
        <ele>163</ele>
        <time>2012-04-08T08:34:22Z</time>
      </trkpt>
      <trkpt lat="46.95648" lon="-0.6789">
        <ele>162.6</ele>
        <time>2012-04-08T08:34:23Z</time>
      </trkpt>
      <trkpt lat="46.95642" lon="-0.67896">
        <ele>162.1</ele>
        <time>2012-04-08T08:34:24Z</time>
      </trkpt>
      <trkpt lat="46.95636" lon="-0.67901">
        <ele>161.8</ele>
        <time>2012-04-08T08:34:25Z</time>
      </trkpt>
      <trkpt lat="46.9563" lon="-0.67906">
        <ele>161.6</ele>
        <time>2012-04-08T08:34:26Z</time>
      </trkpt>
      <trkpt lat="46.95624" lon="-0.67911">
        <ele>161.3</ele>
        <time>2012-04-08T08:34:27Z</time>
      </trkpt>
      <trkpt lat="46.95618" lon="-0.67915">
        <ele>161.1</ele>
        <time>2012-04-08T08:34:28Z</time>
      </trkpt>
      <trkpt lat="46.95612" lon="-0.67919">
        <ele>160.8</ele>
        <time>2012-04-08T08:34:29Z</time>
      </trkpt>
      <trkpt lat="46.95605" lon="-0.67922">
        <ele>160.6</ele>
        <time>2012-04-08T08:34:30Z</time>
      </trkpt>
      <trkpt lat="46.95599" lon="-0.67925">
        <ele>160.5</ele>
        <time>2012-04-08T08:34:31Z</time>
      </trkpt>
      <trkpt lat="46.95592" lon="-0.67928">
        <ele>160.3</ele>
        <time>2012-04-08T08:34:32Z</time>
      </trkpt>
      <trkpt lat="46.95586" lon="-0.67931">
        <ele>160.1</ele>
        <time>2012-04-08T08:34:33Z</time>
      </trkpt>
      <trkpt lat="46.95579" lon="-0.67933">
        <ele>160.1</ele>
        <time>2012-04-08T08:34:34Z</time>
      </trkpt>
      <trkpt lat="46.95572" lon="-0.67936">
        <ele>160</ele>
        <time>2012-04-08T08:34:35Z</time>
      </trkpt>
      <trkpt lat="46.95566" lon="-0.67938">
        <ele>160</ele>
        <time>2012-04-08T08:34:36Z</time>
      </trkpt>
      <trkpt lat="46.95559" lon="-0.6794">
        <ele>159.8</ele>
        <time>2012-04-08T08:34:37Z</time>
      </trkpt>
      <trkpt lat="46.95553" lon="-0.67942">
        <ele>159.8</ele>
        <time>2012-04-08T08:34:38Z</time>
      </trkpt>
      <trkpt lat="46.95546" lon="-0.67944">
        <ele>159.8</ele>
        <time>2012-04-08T08:34:39Z</time>
      </trkpt>
      <trkpt lat="46.9554" lon="-0.67945">
        <ele>159.6</ele>
        <time>2012-04-08T08:34:40Z</time>
      </trkpt>
      <trkpt lat="46.95534" lon="-0.67947">
        <ele>159.6</ele>
        <time>2012-04-08T08:34:41Z</time>
      </trkpt>
      <trkpt lat="46.95528" lon="-0.67948">
        <ele>159.6</ele>
        <time>2012-04-08T08:34:42Z</time>
      </trkpt>
      <trkpt lat="46.95522" lon="-0.67949">
        <ele>159.6</ele>
        <time>2012-04-08T08:34:43Z</time>
      </trkpt>
      <trkpt lat="46.95515" lon="-0.67951">
        <ele>159.6</ele>
        <time>2012-04-08T08:34:44Z</time>
      </trkpt>
      <trkpt lat="46.95508" lon="-0.67952">
        <ele>159.6</ele>
        <time>2012-04-08T08:34:45Z</time>
      </trkpt>
      <trkpt lat="46.95502" lon="-0.67954">
        <ele>159.6</ele>
        <time>2012-04-08T08:34:46Z</time>
      </trkpt>
      <trkpt lat="46.95495" lon="-0.67956">
        <ele>159.8</ele>
        <time>2012-04-08T08:34:47Z</time>
      </trkpt>
      <trkpt lat="46.95488" lon="-0.67957">
        <ele>159.8</ele>
        <time>2012-04-08T08:34:48Z</time>
      </trkpt>
      <trkpt lat="46.9548" lon="-0.67959">
        <ele>159.8</ele>
        <time>2012-04-08T08:34:49Z</time>
      </trkpt>
      <trkpt lat="46.95473" lon="-0.67961">
        <ele>159.8</ele>
        <time>2012-04-08T08:34:50Z</time>
      </trkpt>
      <trkpt lat="46.95466" lon="-0.67962">
        <ele>159.8</ele>
        <time>2012-04-08T08:34:51Z</time>
      </trkpt>
      <trkpt lat="46.95459" lon="-0.67964">
        <ele>159.8</ele>
        <time>2012-04-08T08:34:52Z</time>
      </trkpt>
      <trkpt lat="46.95452" lon="-0.67966">
        <ele>159.8</ele>
        <time>2012-04-08T08:34:53Z</time>
      </trkpt>
      <trkpt lat="46.95445" lon="-0.67967">
        <ele>159.8</ele>
        <time>2012-04-08T08:34:54Z</time>
      </trkpt>
      <trkpt lat="46.95438" lon="-0.67968">
        <ele>159.8</ele>
        <time>2012-04-08T08:34:55Z</time>
      </trkpt>
      <trkpt lat="46.95432" lon="-0.6797">
        <ele>159.8</ele>
        <time>2012-04-08T08:34:56Z</time>
      </trkpt>
      <trkpt lat="46.95425" lon="-0.67971">
        <ele>159.8</ele>
        <time>2012-04-08T08:34:57Z</time>
      </trkpt>
      <trkpt lat="46.95419" lon="-0.67972">
        <ele>159.6</ele>
        <time>2012-04-08T08:34:58Z</time>
      </trkpt>
      <trkpt lat="46.95414" lon="-0.67974">
        <ele>159.6</ele>
        <time>2012-04-08T08:34:59Z</time>
      </trkpt>
      <trkpt lat="46.95406" lon="-0.67975">
        <ele>159.5</ele>
        <time>2012-04-08T08:35:01Z</time>
      </trkpt>
      <trkpt lat="46.95398" lon="-0.67978">
        <ele>159.3</ele>
        <time>2012-04-08T08:35:04Z</time>
      </trkpt>
      <trkpt lat="46.95391" lon="-0.67979">
        <ele>159.3</ele>
        <time>2012-04-08T08:35:07Z</time>
      </trkpt>
      <trkpt lat="46.95382" lon="-0.6798">
        <ele>159.1</ele>
        <time>2012-04-08T08:35:11Z</time>
      </trkpt>
      <trkpt lat="46.95374" lon="-0.67982">
        <ele>159.1</ele>
        <time>2012-04-08T08:35:14Z</time>
      </trkpt>
      <trkpt lat="46.95368" lon="-0.67983">
        <ele>159.1</ele>
        <time>2012-04-08T08:35:16Z</time>
      </trkpt>
      <trkpt lat="46.9536" lon="-0.67984">
        <ele>159.1</ele>
        <time>2012-04-08T08:35:18Z</time>
      </trkpt>
      <trkpt lat="46.95353" lon="-0.67986">
        <ele>159.1</ele>
        <time>2012-04-08T08:35:20Z</time>
      </trkpt>
      <trkpt lat="46.95346" lon="-0.67988">
        <ele>159.1</ele>
        <time>2012-04-08T08:35:22Z</time>
      </trkpt>
      <trkpt lat="46.95338" lon="-0.67989">
        <ele>159.3</ele>
        <time>2012-04-08T08:35:25Z</time>
      </trkpt>
      <trkpt lat="46.95335" lon="-0.6799">
        <ele>159.3</ele>
        <time>2012-04-08T08:35:26Z</time>
      </trkpt>
      <trkpt lat="46.95332" lon="-0.68002">
        <ele>159.5</ele>
        <time>2012-04-08T08:35:34Z</time>
      </trkpt>
      <trkpt lat="46.95339" lon="-0.68002">
        <ele>159.5</ele>
        <time>2012-04-08T08:35:36Z</time>
      </trkpt>
      <trkpt lat="46.95346" lon="-0.68003">
        <ele>159.6</ele>
        <time>2012-04-08T08:35:38Z</time>
      </trkpt>
      <trkpt lat="46.95353" lon="-0.68004">
        <ele>159.6</ele>
        <time>2012-04-08T08:35:41Z</time>
      </trkpt>
      <trkpt lat="46.95362" lon="-0.68008">
        <ele>159.6</ele>
        <time>2012-04-08T08:35:44Z</time>
      </trkpt>
      <trkpt lat="46.95368" lon="-0.68011">
        <ele>159.8</ele>
        <time>2012-04-08T08:35:46Z</time>
      </trkpt>
      <trkpt lat="46.95375" lon="-0.68014">
        <ele>159.8</ele>
        <time>2012-04-08T08:35:48Z</time>
      </trkpt>
      <trkpt lat="46.95382" lon="-0.68017">
        <ele>159.8</ele>
        <time>2012-04-08T08:35:50Z</time>
      </trkpt>
      <trkpt lat="46.95389" lon="-0.68021">
        <ele>159.8</ele>
        <time>2012-04-08T08:35:52Z</time>
      </trkpt>
      <trkpt lat="46.95396" lon="-0.68024">
        <ele>159.6</ele>
        <time>2012-04-08T08:35:54Z</time>
      </trkpt>
      <trkpt lat="46.95403" lon="-0.68028">
        <ele>159.6</ele>
        <time>2012-04-08T08:35:56Z</time>
      </trkpt>
      <trkpt lat="46.9541" lon="-0.68032">
        <ele>159.6</ele>
        <time>2012-04-08T08:35:58Z</time>
      </trkpt>
      <trkpt lat="46.95416" lon="-0.68037">
        <ele>159.8</ele>
        <time>2012-04-08T08:36:00Z</time>
      </trkpt>
      <trkpt lat="46.95422" lon="-0.68042">
        <ele>159.8</ele>
        <time>2012-04-08T08:36:02Z</time>
      </trkpt>
      <trkpt lat="46.95427" lon="-0.68047">
        <ele>159.8</ele>
        <time>2012-04-08T08:36:04Z</time>
      </trkpt>
      <trkpt lat="46.95433" lon="-0.68052">
        <ele>159.8</ele>
        <time>2012-04-08T08:36:06Z</time>
      </trkpt>
      <trkpt lat="46.95438" lon="-0.68057">
        <ele>159.8</ele>
        <time>2012-04-08T08:36:08Z</time>
      </trkpt>
      <trkpt lat="46.95445" lon="-0.68065">
        <ele>159.8</ele>
        <time>2012-04-08T08:36:11Z</time>
      </trkpt>
      <trkpt lat="46.95451" lon="-0.68073">
        <ele>160</ele>
        <time>2012-04-08T08:36:16Z</time>
      </trkpt>
      <trkpt lat="46.95457" lon="-0.68079">
        <ele>160.1</ele>
        <time>2012-04-08T08:36:33Z</time>
      </trkpt>
      <trkpt lat="46.95461" lon="-0.68082">
        <ele>160.1</ele>
        <time>2012-04-08T08:36:34Z</time>
      </trkpt>
      <trkpt lat="46.95464" lon="-0.68087">
        <ele>160.8</ele>
        <time>2012-04-08T08:38:06Z</time>
      </trkpt>
      <trkpt lat="46.95464" lon="-0.68107">
        <ele>161.5</ele>
        <time>2012-04-08T08:38:20Z</time>
      </trkpt>
      <trkpt lat="46.95457" lon="-0.68116">
        <ele>161.6</ele>
        <time>2012-04-08T08:38:25Z</time>
      </trkpt>
      <trkpt lat="46.95451" lon="-0.68123">
        <ele>161.6</ele>
        <time>2012-04-08T08:38:28Z</time>
      </trkpt>
      <trkpt lat="46.95447" lon="-0.6813">
        <ele>161.6</ele>
        <time>2012-04-08T08:38:30Z</time>
      </trkpt>
      <trkpt lat="46.95442" lon="-0.68138">
        <ele>161.8</ele>
        <time>2012-04-08T08:38:32Z</time>
      </trkpt>
      <trkpt lat="46.95437" lon="-0.68145">
        <ele>161.8</ele>
        <time>2012-04-08T08:38:34Z</time>
      </trkpt>
      <trkpt lat="46.95433" lon="-0.68152">
        <ele>161.8</ele>
        <time>2012-04-08T08:38:36Z</time>
      </trkpt>
      <trkpt lat="46.95428" lon="-0.6816">
        <ele>161.8</ele>
        <time>2012-04-08T08:38:38Z</time>
      </trkpt>
      <trkpt lat="46.95423" lon="-0.68168">
        <ele>161.8</ele>
        <time>2012-04-08T08:38:40Z</time>
      </trkpt>
      <trkpt lat="46.95419" lon="-0.68177">
        <ele>161.8</ele>
        <time>2012-04-08T08:38:42Z</time>
      </trkpt>
      <trkpt lat="46.95415" lon="-0.68186">
        <ele>161.8</ele>
        <time>2012-04-08T08:38:44Z</time>
      </trkpt>
      <trkpt lat="46.9541" lon="-0.68195">
        <ele>161.8</ele>
        <time>2012-04-08T08:38:46Z</time>
      </trkpt>
      <trkpt lat="46.95407" lon="-0.68203">
        <ele>161.8</ele>
        <time>2012-04-08T08:38:48Z</time>
      </trkpt>
      <trkpt lat="46.95403" lon="-0.68212">
        <ele>161.8</ele>
        <time>2012-04-08T08:38:50Z</time>
      </trkpt>
      <trkpt lat="46.954" lon="-0.6822">
        <ele>162</ele>
        <time>2012-04-08T08:38:52Z</time>
      </trkpt>
      <trkpt lat="46.95397" lon="-0.68228">
        <ele>162</ele>
        <time>2012-04-08T08:38:54Z</time>
      </trkpt>
      <trkpt lat="46.95394" lon="-0.68236">
        <ele>162</ele>
        <time>2012-04-08T08:38:56Z</time>
      </trkpt>
      <trkpt lat="46.95392" lon="-0.68244">
        <ele>162</ele>
        <time>2012-04-08T08:38:58Z</time>
      </trkpt>
      <trkpt lat="46.95389" lon="-0.68253">
        <ele>162</ele>
        <time>2012-04-08T08:39:00Z</time>
      </trkpt>
      <trkpt lat="46.95387" lon="-0.68261">
        <ele>162</ele>
        <time>2012-04-08T08:39:02Z</time>
      </trkpt>
      <trkpt lat="46.95385" lon="-0.68269">
        <ele>162</ele>
        <time>2012-04-08T08:39:04Z</time>
      </trkpt>
      <trkpt lat="46.95383" lon="-0.68278">
        <ele>162</ele>
        <time>2012-04-08T08:39:06Z</time>
      </trkpt>
      <trkpt lat="46.95382" lon="-0.68282">
        <ele>162</ele>
        <time>2012-04-08T08:39:07Z</time>
      </trkpt>
      <trkpt lat="46.95376" lon="-0.68301">
        <ele>162</ele>
        <time>2012-04-08T08:39:12Z</time>
      </trkpt>
      <trkpt lat="46.95372" lon="-0.68311">
        <ele>161.8</ele>
        <time>2012-04-08T08:39:15Z</time>
      </trkpt>
      <trkpt lat="46.95371" lon="-0.68322">
        <ele>161.8</ele>
        <time>2012-04-08T08:39:18Z</time>
      </trkpt>
      <trkpt lat="46.95372" lon="-0.68332">
        <ele>161.8</ele>
        <time>2012-04-08T08:39:21Z</time>
      </trkpt>
      <trkpt lat="46.95371" lon="-0.68342">
        <ele>161.8</ele>
        <time>2012-04-08T08:39:24Z</time>
      </trkpt>
      <trkpt lat="46.95368" lon="-0.68353">
        <ele>161.8</ele>
        <time>2012-04-08T08:39:27Z</time>
      </trkpt>
      <trkpt lat="46.95366" lon="-0.68363">
        <ele>161.8</ele>
        <time>2012-04-08T08:39:30Z</time>
      </trkpt>
      <trkpt lat="46.95362" lon="-0.68374">
        <ele>161.6</ele>
        <time>2012-04-08T08:39:34Z</time>
      </trkpt>
      <trkpt lat="46.95355" lon="-0.68377">
        <ele>161.6</ele>
        <time>2012-04-08T08:39:37Z</time>
      </trkpt>
      <trkpt lat="46.95348" lon="-0.6838">
        <ele>161.6</ele>
        <time>2012-04-08T08:39:40Z</time>
      </trkpt>
      <trkpt lat="46.95343" lon="-0.68381">
        <ele>161.6</ele>
        <time>2012-04-08T08:40:21Z</time>
      </trkpt>
      <trkpt lat="46.95338" lon="-0.68381">
        <ele>161.6</ele>
        <time>2012-04-08T08:40:22Z</time>
      </trkpt>
      <trkpt lat="46.95326" lon="-0.68384">
        <ele>161.6</ele>
        <time>2012-04-08T08:40:36Z</time>
      </trkpt>
      <trkpt lat="46.95319" lon="-0.6839">
        <ele>161.8</ele>
        <time>2012-04-08T08:40:42Z</time>
      </trkpt>
      <trkpt lat="46.95316" lon="-0.68401">
        <ele>161.8</ele>
        <time>2012-04-08T08:40:47Z</time>
      </trkpt>
      <trkpt lat="46.95315" lon="-0.68413">
        <ele>162</ele>
        <time>2012-04-08T08:40:52Z</time>
      </trkpt>
      <trkpt lat="46.95314" lon="-0.68424">
        <ele>162.1</ele>
        <time>2012-04-08T08:40:57Z</time>
      </trkpt>
      <trkpt lat="46.95312" lon="-0.68435">
        <ele>162.3</ele>
        <time>2012-04-08T08:41:02Z</time>
      </trkpt>
      <trkpt lat="46.95311" lon="-0.68447">
        <ele>162.3</ele>
        <time>2012-04-08T08:41:07Z</time>
      </trkpt>
      <trkpt lat="46.95309" lon="-0.68459">
        <ele>162.5</ele>
        <time>2012-04-08T08:41:12Z</time>
      </trkpt>
      <trkpt lat="46.95304" lon="-0.68469">
        <ele>162.8</ele>
        <time>2012-04-08T08:41:52Z</time>
      </trkpt>
      <trkpt lat="46.95304" lon="-0.68471">
        <ele>162.8</ele>
        <time>2012-04-08T08:41:53Z</time>
      </trkpt>
      <trkpt lat="46.9529" lon="-0.68464">
        <ele>163.1</ele>
        <time>2012-04-08T08:42:02Z</time>
      </trkpt>
      <trkpt lat="46.95283" lon="-0.68459">
        <ele>163.1</ele>
        <time>2012-04-08T08:42:05Z</time>
      </trkpt>
      <trkpt lat="46.95275" lon="-0.68455">
        <ele>163.3</ele>
        <time>2012-04-08T08:42:08Z</time>
      </trkpt>
      <trkpt lat="46.95268" lon="-0.68452">
        <ele>163.3</ele>
        <time>2012-04-08T08:42:11Z</time>
      </trkpt>
      <trkpt lat="46.95259" lon="-0.68448">
        <ele>163.5</ele>
        <time>2012-04-08T08:42:14Z</time>
      </trkpt>
      <trkpt lat="46.95253" lon="-0.68445">
        <ele>163.6</ele>
        <time>2012-04-08T08:42:16Z</time>
      </trkpt>
      <trkpt lat="46.95245" lon="-0.68442">
        <ele>164</ele>
        <time>2012-04-08T08:42:18Z</time>
      </trkpt>
      <trkpt lat="46.95238" lon="-0.68438">
        <ele>164</ele>
        <time>2012-04-08T08:42:20Z</time>
      </trkpt>
      <trkpt lat="46.95232" lon="-0.68432">
        <ele>164.1</ele>
        <time>2012-04-08T08:42:22Z</time>
      </trkpt>
      <trkpt lat="46.95226" lon="-0.68426">
        <ele>164.1</ele>
        <time>2012-04-08T08:42:24Z</time>
      </trkpt>
      <trkpt lat="46.95219" lon="-0.68419">
        <ele>164.1</ele>
        <time>2012-04-08T08:42:26Z</time>
      </trkpt>
      <trkpt lat="46.95212" lon="-0.68413">
        <ele>164.1</ele>
        <time>2012-04-08T08:42:28Z</time>
      </trkpt>
      <trkpt lat="46.95204" lon="-0.68407">
        <ele>164.1</ele>
        <time>2012-04-08T08:42:30Z</time>
      </trkpt>
      <trkpt lat="46.95196" lon="-0.68404">
        <ele>164.3</ele>
        <time>2012-04-08T08:42:32Z</time>
      </trkpt>
      <trkpt lat="46.95189" lon="-0.68408">
        <ele>164.3</ele>
        <time>2012-04-08T08:42:34Z</time>
      </trkpt>
      <trkpt lat="46.95184" lon="-0.68415">
        <ele>164.3</ele>
        <time>2012-04-08T08:42:36Z</time>
      </trkpt>
      <trkpt lat="46.95179" lon="-0.68422">
        <ele>164.3</ele>
        <time>2012-04-08T08:42:38Z</time>
      </trkpt>
      <trkpt lat="46.95175" lon="-0.68431">
        <ele>164.3</ele>
        <time>2012-04-08T08:42:40Z</time>
      </trkpt>
      <trkpt lat="46.95171" lon="-0.68441">
        <ele>164.5</ele>
        <time>2012-04-08T08:42:43Z</time>
      </trkpt>
      <trkpt lat="46.95167" lon="-0.68449">
        <ele>164.6</ele>
        <time>2012-04-08T08:43:20Z</time>
      </trkpt>
      <trkpt lat="46.95163" lon="-0.68451">
        <ele>164.8</ele>
        <time>2012-04-08T08:43:21Z</time>
      </trkpt>
      <trkpt lat="46.95151" lon="-0.68449">
        <ele>167.5</ele>
        <time>2012-04-08T08:44:25Z</time>
      </trkpt>
      <trkpt lat="46.95148" lon="-0.68448">
        <ele>167.8</ele>
        <time>2012-04-08T08:44:26Z</time>
      </trkpt>
      <trkpt lat="46.95134" lon="-0.68441">
        <ele>169.3</ele>
        <time>2012-04-08T08:44:44Z</time>
      </trkpt>
      <trkpt lat="46.95127" lon="-0.68437">
        <ele>169.8</ele>
        <time>2012-04-08T08:44:51Z</time>
      </trkpt>
      <trkpt lat="46.95119" lon="-0.68433">
        <ele>170.5</ele>
        <time>2012-04-08T08:44:59Z</time>
      </trkpt>
      <trkpt lat="46.95111" lon="-0.68428">
        <ele>171</ele>
        <time>2012-04-08T08:45:07Z</time>
      </trkpt>
      <trkpt lat="46.95103" lon="-0.68424">
        <ele>171.5</ele>
        <time>2012-04-08T08:45:15Z</time>
      </trkpt>
      <trkpt lat="46.95096" lon="-0.6842">
        <ele>171.8</ele>
        <time>2012-04-08T08:45:31Z</time>
      </trkpt>
      <trkpt lat="46.95093" lon="-0.68419">
        <ele>172.1</ele>
        <time>2012-04-08T08:45:32Z</time>
      </trkpt>
      <trkpt lat="46.95081" lon="-0.68412">
        <ele>172.5</ele>
        <time>2012-04-08T08:45:43Z</time>
      </trkpt>
      <trkpt lat="46.95073" lon="-0.68407">
        <ele>172.8</ele>
        <time>2012-04-08T08:45:50Z</time>
      </trkpt>
      <trkpt lat="46.95065" lon="-0.68403">
        <ele>173.1</ele>
        <time>2012-04-08T08:45:58Z</time>
      </trkpt>
      <trkpt lat="46.95057" lon="-0.68399">
        <ele>173.3</ele>
        <time>2012-04-08T08:46:05Z</time>
      </trkpt>
      <trkpt lat="46.95049" lon="-0.68394">
        <ele>173.6</ele>
        <time>2012-04-08T08:46:13Z</time>
      </trkpt>
      <trkpt lat="46.95041" lon="-0.6839">
        <ele>173.8</ele>
        <time>2012-04-08T08:46:22Z</time>
      </trkpt>
      <trkpt lat="46.95034" lon="-0.68385">
        <ele>174.1</ele>
        <time>2012-04-08T08:46:31Z</time>
      </trkpt>
      <trkpt lat="46.95025" lon="-0.68381">
        <ele>174.1</ele>
        <time>2012-04-08T08:46:40Z</time>
      </trkpt>
      <trkpt lat="46.95025" lon="-0.6838">
        <ele>174.1</ele>
        <time>2012-04-08T08:46:41Z</time>
      </trkpt>
      <trkpt lat="46.9501" lon="-0.68372">
        <ele>174.6</ele>
        <time>2012-04-08T08:47:00Z</time>
      </trkpt>
      <trkpt lat="46.95002" lon="-0.68368">
        <ele>174.8</ele>
        <time>2012-04-08T08:47:08Z</time>
      </trkpt>
      <trkpt lat="46.94994" lon="-0.68363">
        <ele>174.8</ele>
        <time>2012-04-08T08:47:16Z</time>
      </trkpt>
      <trkpt lat="46.94987" lon="-0.68359">
        <ele>175.1</ele>
        <time>2012-04-08T08:47:24Z</time>
      </trkpt>
      <trkpt lat="46.94979" lon="-0.68354">
        <ele>175.3</ele>
        <time>2012-04-08T08:47:32Z</time>
      </trkpt>
      <trkpt lat="46.94971" lon="-0.6835">
        <ele>175.5</ele>
        <time>2012-04-08T08:47:40Z</time>
      </trkpt>
      <trkpt lat="46.94963" lon="-0.68346">
        <ele>175.6</ele>
        <time>2012-04-08T08:47:47Z</time>
      </trkpt>
      <trkpt lat="46.94962" lon="-0.68345">
        <ele>175.6</ele>
        <time>2012-04-08T08:47:48Z</time>
      </trkpt>
      <trkpt lat="46.94948" lon="-0.68337">
        <ele>176</ele>
        <time>2012-04-08T08:48:01Z</time>
      </trkpt>
      <trkpt lat="46.9494" lon="-0.68332">
        <ele>176.1</ele>
        <time>2012-04-08T08:48:09Z</time>
      </trkpt>
      <trkpt lat="46.94932" lon="-0.68327">
        <ele>176.3</ele>
        <time>2012-04-08T08:48:17Z</time>
      </trkpt>
      <trkpt lat="46.94924" lon="-0.68322">
        <ele>176.6</ele>
        <time>2012-04-08T08:48:26Z</time>
      </trkpt>
      <trkpt lat="46.94919" lon="-0.68332">
        <ele>176.6</ele>
        <time>2012-04-08T08:49:09Z</time>
      </trkpt>
      <trkpt lat="46.9492" lon="-0.68333">
        <ele>176.6</ele>
        <time>2012-04-08T08:49:10Z</time>
      </trkpt>
      <trkpt lat="46.94928" lon="-0.68352">
        <ele>176.6</ele>
        <time>2012-04-08T08:49:29Z</time>
      </trkpt>
      <trkpt lat="46.94931" lon="-0.68363">
        <ele>176.6</ele>
        <time>2012-04-08T08:49:34Z</time>
      </trkpt>
      <trkpt lat="46.94935" lon="-0.68373">
        <ele>176.6</ele>
        <time>2012-04-08T08:49:38Z</time>
      </trkpt>
      <trkpt lat="46.9494" lon="-0.68382">
        <ele>176.8</ele>
        <time>2012-04-08T08:49:42Z</time>
      </trkpt>
      <trkpt lat="46.94944" lon="-0.6839">
        <ele>176.8</ele>
        <time>2012-04-08T08:49:45Z</time>
      </trkpt>
      <trkpt lat="46.94948" lon="-0.68398">
        <ele>176.8</ele>
        <time>2012-04-08T08:49:47Z</time>
      </trkpt>
      <trkpt lat="46.94952" lon="-0.68405">
        <ele>176.8</ele>
        <time>2012-04-08T08:49:49Z</time>
      </trkpt>
      <trkpt lat="46.94955" lon="-0.68413">
        <ele>176.8</ele>
        <time>2012-04-08T08:49:51Z</time>
      </trkpt>
      <trkpt lat="46.94958" lon="-0.68422">
        <ele>176.8</ele>
        <time>2012-04-08T08:49:53Z</time>
      </trkpt>
      <trkpt lat="46.94961" lon="-0.68429">
        <ele>177</ele>
        <time>2012-04-08T08:49:55Z</time>
      </trkpt>
      <trkpt lat="46.94964" lon="-0.68437">
        <ele>177</ele>
        <time>2012-04-08T08:49:57Z</time>
      </trkpt>
      <trkpt lat="46.94968" lon="-0.68446">
        <ele>176.8</ele>
        <time>2012-04-08T08:49:59Z</time>
      </trkpt>
      <trkpt lat="46.94972" lon="-0.68456">
        <ele>176.8</ele>
        <time>2012-04-08T08:50:01Z</time>
      </trkpt>
      <trkpt lat="46.94974" lon="-0.68462">
        <ele>176.8</ele>
        <time>2012-04-08T08:50:02Z</time>
      </trkpt>
      <trkpt lat="46.94977" lon="-0.68468">
        <ele>176.6</ele>
        <time>2012-04-08T08:50:03Z</time>
      </trkpt>
      <trkpt lat="46.9498" lon="-0.68474">
        <ele>176.6</ele>
        <time>2012-04-08T08:50:04Z</time>
      </trkpt>
      <trkpt lat="46.94982" lon="-0.68481">
        <ele>176.6</ele>
        <time>2012-04-08T08:50:05Z</time>
      </trkpt>
      <trkpt lat="46.94985" lon="-0.68488">
        <ele>176.5</ele>
        <time>2012-04-08T08:50:06Z</time>
      </trkpt>
      <trkpt lat="46.94989" lon="-0.68495">
        <ele>176.3</ele>
        <time>2012-04-08T08:50:07Z</time>
      </trkpt>
      <trkpt lat="46.94992" lon="-0.68503">
        <ele>176.3</ele>
        <time>2012-04-08T08:50:08Z</time>
      </trkpt>
      <trkpt lat="46.94995" lon="-0.68511">
        <ele>176.1</ele>
        <time>2012-04-08T08:50:09Z</time>
      </trkpt>
      <trkpt lat="46.94998" lon="-0.68519">
        <ele>176.1</ele>
        <time>2012-04-08T08:50:10Z</time>
      </trkpt>
      <trkpt lat="46.95002" lon="-0.68526">
        <ele>176</ele>
        <time>2012-04-08T08:50:11Z</time>
      </trkpt>
      <trkpt lat="46.95004" lon="-0.68534">
        <ele>176</ele>
        <time>2012-04-08T08:50:12Z</time>
      </trkpt>
      <trkpt lat="46.95006" lon="-0.68541">
        <ele>176</ele>
        <time>2012-04-08T08:50:13Z</time>
      </trkpt>
      <trkpt lat="46.95007" lon="-0.68549">
        <ele>175.8</ele>
        <time>2012-04-08T08:50:14Z</time>
      </trkpt>
      <trkpt lat="46.95006" lon="-0.68556">
        <ele>175.8</ele>
        <time>2012-04-08T08:50:15Z</time>
      </trkpt>
      <trkpt lat="46.95002" lon="-0.68568">
        <ele>175.8</ele>
        <time>2012-04-08T08:50:17Z</time>
      </trkpt>
      <trkpt lat="46.94994" lon="-0.68575">
        <ele>175.8</ele>
        <time>2012-04-08T08:50:19Z</time>
      </trkpt>
      <trkpt lat="46.9499" lon="-0.68578">
        <ele>175.8</ele>
        <time>2012-04-08T08:50:20Z</time>
      </trkpt>
      <trkpt lat="46.94985" lon="-0.68581">
        <ele>175.8</ele>
        <time>2012-04-08T08:50:21Z</time>
      </trkpt>
      <trkpt lat="46.94981" lon="-0.68583">
        <ele>175.8</ele>
        <time>2012-04-08T08:50:22Z</time>
      </trkpt>
      <trkpt lat="46.94977" lon="-0.68586">
        <ele>175.8</ele>
        <time>2012-04-08T08:50:23Z</time>
      </trkpt>
      <trkpt lat="46.94972" lon="-0.68589">
        <ele>175.6</ele>
        <time>2012-04-08T08:50:24Z</time>
      </trkpt>
      <trkpt lat="46.94968" lon="-0.68592">
        <ele>175.6</ele>
        <time>2012-04-08T08:50:25Z</time>
      </trkpt>
      <trkpt lat="46.94964" lon="-0.68595">
        <ele>175.6</ele>
        <time>2012-04-08T08:50:26Z</time>
      </trkpt>
      <trkpt lat="46.94959" lon="-0.68598">
        <ele>175.6</ele>
        <time>2012-04-08T08:50:27Z</time>
      </trkpt>
      <trkpt lat="46.94955" lon="-0.68601">
        <ele>175.6</ele>
        <time>2012-04-08T08:50:28Z</time>
      </trkpt>
      <trkpt lat="46.94951" lon="-0.68604">
        <ele>175.6</ele>
        <time>2012-04-08T08:50:29Z</time>
      </trkpt>
      <trkpt lat="46.94946" lon="-0.68607">
        <ele>175.6</ele>
        <time>2012-04-08T08:50:30Z</time>
      </trkpt>
      <trkpt lat="46.94942" lon="-0.6861">
        <ele>175.8</ele>
        <time>2012-04-08T08:50:31Z</time>
      </trkpt>
      <trkpt lat="46.94938" lon="-0.68614">
        <ele>175.8</ele>
        <time>2012-04-08T08:50:32Z</time>
      </trkpt>
      <trkpt lat="46.94934" lon="-0.68617">
        <ele>175.8</ele>
        <time>2012-04-08T08:50:33Z</time>
      </trkpt>
      <trkpt lat="46.9493" lon="-0.68621">
        <ele>176</ele>
        <time>2012-04-08T08:50:34Z</time>
      </trkpt>
      <trkpt lat="46.94926" lon="-0.68624">
        <ele>176.1</ele>
        <time>2012-04-08T08:50:35Z</time>
      </trkpt>
      <trkpt lat="46.94922" lon="-0.68627">
        <ele>176.3</ele>
        <time>2012-04-08T08:50:36Z</time>
      </trkpt>
      <trkpt lat="46.94918" lon="-0.6863">
        <ele>176.3</ele>
        <time>2012-04-08T08:50:37Z</time>
      </trkpt>
      <trkpt lat="46.94913" lon="-0.68632">
        <ele>176.6</ele>
        <time>2012-04-08T08:50:38Z</time>
      </trkpt>
      <trkpt lat="46.94909" lon="-0.68635">
        <ele>176.6</ele>
        <time>2012-04-08T08:50:39Z</time>
      </trkpt>
      <trkpt lat="46.94904" lon="-0.68637">
        <ele>176.8</ele>
        <time>2012-04-08T08:50:40Z</time>
      </trkpt>
      <trkpt lat="46.94899" lon="-0.68639">
        <ele>177</ele>
        <time>2012-04-08T08:50:41Z</time>
      </trkpt>
      <trkpt lat="46.94894" lon="-0.68641">
        <ele>177.1</ele>
        <time>2012-04-08T08:50:42Z</time>
      </trkpt>
      <trkpt lat="46.9489" lon="-0.68644">
        <ele>177.1</ele>
        <time>2012-04-08T08:50:43Z</time>
      </trkpt>
      <trkpt lat="46.94885" lon="-0.68646">
        <ele>177.3</ele>
        <time>2012-04-08T08:50:44Z</time>
      </trkpt>
      <trkpt lat="46.9488" lon="-0.68648">
        <ele>177.3</ele>
        <time>2012-04-08T08:50:45Z</time>
      </trkpt>
      <trkpt lat="46.94875" lon="-0.6865">
        <ele>177.3</ele>
        <time>2012-04-08T08:50:46Z</time>
      </trkpt>
      <trkpt lat="46.9487" lon="-0.68652">
        <ele>177.5</ele>
        <time>2012-04-08T08:50:47Z</time>
      </trkpt>
      <trkpt lat="46.94866" lon="-0.68654">
        <ele>177.5</ele>
        <time>2012-04-08T08:50:48Z</time>
      </trkpt>
      <trkpt lat="46.94861" lon="-0.68656">
        <ele>177.5</ele>
        <time>2012-04-08T08:50:49Z</time>
      </trkpt>
      <trkpt lat="46.94856" lon="-0.68658">
        <ele>177.5</ele>
        <time>2012-04-08T08:50:50Z</time>
      </trkpt>
      <trkpt lat="46.94852" lon="-0.6866">
        <ele>177.6</ele>
        <time>2012-04-08T08:50:51Z</time>
      </trkpt>
      <trkpt lat="46.94847" lon="-0.68662">
        <ele>177.6</ele>
        <time>2012-04-08T08:50:52Z</time>
      </trkpt>
      <trkpt lat="46.94843" lon="-0.68664">
        <ele>177.8</ele>
        <time>2012-04-08T08:50:53Z</time>
      </trkpt>
      <trkpt lat="46.94838" lon="-0.68665">
        <ele>177.8</ele>
        <time>2012-04-08T08:50:54Z</time>
      </trkpt>
      <trkpt lat="46.94834" lon="-0.68667">
        <ele>178</ele>
        <time>2012-04-08T08:50:55Z</time>
      </trkpt>
      <trkpt lat="46.94829" lon="-0.68669">
        <ele>178.1</ele>
        <time>2012-04-08T08:50:56Z</time>
      </trkpt>
      <trkpt lat="46.94825" lon="-0.68671">
        <ele>178.3</ele>
        <time>2012-04-08T08:50:57Z</time>
      </trkpt>
      <trkpt lat="46.9482" lon="-0.68673">
        <ele>178.3</ele>
        <time>2012-04-08T08:50:58Z</time>
      </trkpt>
      <trkpt lat="46.94816" lon="-0.68674">
        <ele>178.5</ele>
        <time>2012-04-08T08:50:59Z</time>
      </trkpt>
      <trkpt lat="46.94812" lon="-0.68676">
        <ele>178.6</ele>
        <time>2012-04-08T08:51:00Z</time>
      </trkpt>
      <trkpt lat="46.94807" lon="-0.68678">
        <ele>178.8</ele>
        <time>2012-04-08T08:51:01Z</time>
      </trkpt>
      <trkpt lat="46.94803" lon="-0.68679">
        <ele>178.8</ele>
        <time>2012-04-08T08:51:02Z</time>
      </trkpt>
      <trkpt lat="46.94798" lon="-0.68681">
        <ele>179</ele>
        <time>2012-04-08T08:51:03Z</time>
      </trkpt>
      <trkpt lat="46.94794" lon="-0.68683">
        <ele>179.1</ele>
        <time>2012-04-08T08:51:04Z</time>
      </trkpt>
      <trkpt lat="46.94789" lon="-0.68685">
        <ele>179.1</ele>
        <time>2012-04-08T08:51:05Z</time>
      </trkpt>
      <trkpt lat="46.94781" lon="-0.68688">
        <ele>179.3</ele>
        <time>2012-04-08T08:51:07Z</time>
      </trkpt>
      <trkpt lat="46.94776" lon="-0.6869">
        <ele>179.5</ele>
        <time>2012-04-08T08:51:08Z</time>
      </trkpt>
      <trkpt lat="46.94772" lon="-0.68692">
        <ele>179.5</ele>
        <time>2012-04-08T08:51:09Z</time>
      </trkpt>
      <trkpt lat="46.94767" lon="-0.68693">
        <ele>179.6</ele>
        <time>2012-04-08T08:51:10Z</time>
      </trkpt>
      <trkpt lat="46.94762" lon="-0.68695">
        <ele>179.6</ele>
        <time>2012-04-08T08:51:11Z</time>
      </trkpt>
      <trkpt lat="46.94758" lon="-0.68696">
        <ele>179.6</ele>
        <time>2012-04-08T08:51:12Z</time>
      </trkpt>
      <trkpt lat="46.94753" lon="-0.68698">
        <ele>179.6</ele>
        <time>2012-04-08T08:51:13Z</time>
      </trkpt>
      <trkpt lat="46.94748" lon="-0.687">
        <ele>179.6</ele>
        <time>2012-04-08T08:51:14Z</time>
      </trkpt>
      <trkpt lat="46.94743" lon="-0.68701">
        <ele>179.6</ele>
        <time>2012-04-08T08:51:15Z</time>
      </trkpt>
      <trkpt lat="46.94737" lon="-0.68703">
        <ele>179.8</ele>
        <time>2012-04-08T08:51:16Z</time>
      </trkpt>
      <trkpt lat="46.94732" lon="-0.68705">
        <ele>179.8</ele>
        <time>2012-04-08T08:51:17Z</time>
      </trkpt>
      <trkpt lat="46.94727" lon="-0.68707">
        <ele>179.8</ele>
        <time>2012-04-08T08:51:18Z</time>
      </trkpt>
      <trkpt lat="46.94721" lon="-0.68709">
        <ele>180</ele>
        <time>2012-04-08T08:51:19Z</time>
      </trkpt>
      <trkpt lat="46.94715" lon="-0.68711">
        <ele>180</ele>
        <time>2012-04-08T08:51:20Z</time>
      </trkpt>
      <trkpt lat="46.9471" lon="-0.68713">
        <ele>180.1</ele>
        <time>2012-04-08T08:51:21Z</time>
      </trkpt>
      <trkpt lat="46.94704" lon="-0.68715">
        <ele>180.1</ele>
        <time>2012-04-08T08:51:22Z</time>
      </trkpt>
      <trkpt lat="46.94698" lon="-0.68717">
        <ele>180.1</ele>
        <time>2012-04-08T08:51:23Z</time>
      </trkpt>
      <trkpt lat="46.94692" lon="-0.68719">
        <ele>180.1</ele>
        <time>2012-04-08T08:51:24Z</time>
      </trkpt>
      <trkpt lat="46.94686" lon="-0.68722">
        <ele>180.3</ele>
        <time>2012-04-08T08:51:25Z</time>
      </trkpt>
      <trkpt lat="46.9468" lon="-0.68725">
        <ele>180.3</ele>
        <time>2012-04-08T08:51:26Z</time>
      </trkpt>
      <trkpt lat="46.94673" lon="-0.68727">
        <ele>180.3</ele>
        <time>2012-04-08T08:51:27Z</time>
      </trkpt>
      <trkpt lat="46.94667" lon="-0.6873">
        <ele>180.3</ele>
        <time>2012-04-08T08:51:28Z</time>
      </trkpt>
      <trkpt lat="46.94661" lon="-0.68733">
        <ele>180.3</ele>
        <time>2012-04-08T08:51:29Z</time>
      </trkpt>
      <trkpt lat="46.94655" lon="-0.68735">
        <ele>180.3</ele>
        <time>2012-04-08T08:51:30Z</time>
      </trkpt>
      <trkpt lat="46.94648" lon="-0.68737">
        <ele>180.3</ele>
        <time>2012-04-08T08:51:31Z</time>
      </trkpt>
      <trkpt lat="46.94642" lon="-0.6874">
        <ele>180.1</ele>
        <time>2012-04-08T08:51:32Z</time>
      </trkpt>
      <trkpt lat="46.94636" lon="-0.68742">
        <ele>180.1</ele>
        <time>2012-04-08T08:51:33Z</time>
      </trkpt>
      <trkpt lat="46.94629" lon="-0.68744">
        <ele>180.1</ele>
        <time>2012-04-08T08:51:34Z</time>
      </trkpt>
      <trkpt lat="46.94623" lon="-0.68747">
        <ele>180.1</ele>
        <time>2012-04-08T08:51:35Z</time>
      </trkpt>
      <trkpt lat="46.94617" lon="-0.68749">
        <ele>180.1</ele>
        <time>2012-04-08T08:51:36Z</time>
      </trkpt>
      <trkpt lat="46.94611" lon="-0.68751">
        <ele>180.1</ele>
        <time>2012-04-08T08:51:37Z</time>
      </trkpt>
      <trkpt lat="46.94605" lon="-0.68754">
        <ele>180.1</ele>
        <time>2012-04-08T08:51:38Z</time>
      </trkpt>
      <trkpt lat="46.94599" lon="-0.68756">
        <ele>180.1</ele>
        <time>2012-04-08T08:51:39Z</time>
      </trkpt>
      <trkpt lat="46.94593" lon="-0.68759">
        <ele>180.1</ele>
        <time>2012-04-08T08:51:40Z</time>
      </trkpt>
      <trkpt lat="46.94588" lon="-0.68761">
        <ele>180</ele>
        <time>2012-04-08T08:51:41Z</time>
      </trkpt>
      <trkpt lat="46.94582" lon="-0.68763">
        <ele>180</ele>
        <time>2012-04-08T08:51:42Z</time>
      </trkpt>
      <trkpt lat="46.94576" lon="-0.68766">
        <ele>180</ele>
        <time>2012-04-08T08:51:43Z</time>
      </trkpt>
      <trkpt lat="46.94571" lon="-0.68768">
        <ele>180</ele>
        <time>2012-04-08T08:51:44Z</time>
      </trkpt>
      <trkpt lat="46.94565" lon="-0.68771">
        <ele>179.8</ele>
        <time>2012-04-08T08:51:45Z</time>
      </trkpt>
      <trkpt lat="46.9456" lon="-0.68773">
        <ele>179.8</ele>
        <time>2012-04-08T08:51:46Z</time>
      </trkpt>
      <trkpt lat="46.94555" lon="-0.68775">
        <ele>179.8</ele>
        <time>2012-04-08T08:51:47Z</time>
      </trkpt>
      <trkpt lat="46.9455" lon="-0.68777">
        <ele>179.8</ele>
        <time>2012-04-08T08:51:48Z</time>
      </trkpt>
      <trkpt lat="46.94545" lon="-0.68779">
        <ele>179.8</ele>
        <time>2012-04-08T08:51:49Z</time>
      </trkpt>
      <trkpt lat="46.9454" lon="-0.68781">
        <ele>179.8</ele>
        <time>2012-04-08T08:51:50Z</time>
      </trkpt>
      <trkpt lat="46.94535" lon="-0.68783">
        <ele>179.8</ele>
        <time>2012-04-08T08:51:51Z</time>
      </trkpt>
      <trkpt lat="46.9453" lon="-0.68785">
        <ele>179.6</ele>
        <time>2012-04-08T08:51:52Z</time>
      </trkpt>
      <trkpt lat="46.94525" lon="-0.68787">
        <ele>179.6</ele>
        <time>2012-04-08T08:51:53Z</time>
      </trkpt>
      <trkpt lat="46.9452" lon="-0.68789">
        <ele>179.6</ele>
        <time>2012-04-08T08:51:54Z</time>
      </trkpt>
      <trkpt lat="46.94515" lon="-0.68791">
        <ele>179.6</ele>
        <time>2012-04-08T08:51:55Z</time>
      </trkpt>
      <trkpt lat="46.9451" lon="-0.68793">
        <ele>179.6</ele>
        <time>2012-04-08T08:51:56Z</time>
      </trkpt>
      <trkpt lat="46.94505" lon="-0.68795">
        <ele>179.6</ele>
        <time>2012-04-08T08:51:57Z</time>
      </trkpt>
      <trkpt lat="46.945" lon="-0.68796">
        <ele>179.6</ele>
        <time>2012-04-08T08:51:58Z</time>
      </trkpt>
      <trkpt lat="46.94495" lon="-0.68798">
        <ele>179.6</ele>
        <time>2012-04-08T08:51:59Z</time>
      </trkpt>
      <trkpt lat="46.9449" lon="-0.688">
        <ele>179.8</ele>
        <time>2012-04-08T08:52:00Z</time>
      </trkpt>
      <trkpt lat="46.94486" lon="-0.68802">
        <ele>179.8</ele>
        <time>2012-04-08T08:52:01Z</time>
      </trkpt>
      <trkpt lat="46.94481" lon="-0.68804">
        <ele>179.8</ele>
        <time>2012-04-08T08:52:02Z</time>
      </trkpt>
      <trkpt lat="46.94476" lon="-0.68806">
        <ele>180</ele>
        <time>2012-04-08T08:52:03Z</time>
      </trkpt>
      <trkpt lat="46.94471" lon="-0.68807">
        <ele>180</ele>
        <time>2012-04-08T08:52:04Z</time>
      </trkpt>
      <trkpt lat="46.94467" lon="-0.68809">
        <ele>180.1</ele>
        <time>2012-04-08T08:52:05Z</time>
      </trkpt>
      <trkpt lat="46.94462" lon="-0.68811">
        <ele>180.1</ele>
        <time>2012-04-08T08:52:06Z</time>
      </trkpt>
      <trkpt lat="46.94457" lon="-0.68814">
        <ele>180.1</ele>
        <time>2012-04-08T08:52:07Z</time>
      </trkpt>
      <trkpt lat="46.94453" lon="-0.68815">
        <ele>180.1</ele>
        <time>2012-04-08T08:52:08Z</time>
      </trkpt>
      <trkpt lat="46.94448" lon="-0.68817">
        <ele>180.1</ele>
        <time>2012-04-08T08:52:09Z</time>
      </trkpt>
      <trkpt lat="46.94443" lon="-0.68819">
        <ele>180.1</ele>
        <time>2012-04-08T08:52:10Z</time>
      </trkpt>
      <trkpt lat="46.94438" lon="-0.68821">
        <ele>180.1</ele>
        <time>2012-04-08T08:52:11Z</time>
      </trkpt>
      <trkpt lat="46.94433" lon="-0.68823">
        <ele>180.1</ele>
        <time>2012-04-08T08:52:12Z</time>
      </trkpt>
      <trkpt lat="46.94428" lon="-0.68825">
        <ele>180.1</ele>
        <time>2012-04-08T08:52:13Z</time>
      </trkpt>
      <trkpt lat="46.94423" lon="-0.68826">
        <ele>180.1</ele>
        <time>2012-04-08T08:52:14Z</time>
      </trkpt>
      <trkpt lat="46.94418" lon="-0.68828">
        <ele>180.1</ele>
        <time>2012-04-08T08:52:15Z</time>
      </trkpt>
      <trkpt lat="46.94412" lon="-0.6883">
        <ele>180.1</ele>
        <time>2012-04-08T08:52:16Z</time>
      </trkpt>
      <trkpt lat="46.94407" lon="-0.68833">
        <ele>180.1</ele>
        <time>2012-04-08T08:52:17Z</time>
      </trkpt>
      <trkpt lat="46.94401" lon="-0.68835">
        <ele>180.1</ele>
        <time>2012-04-08T08:52:18Z</time>
      </trkpt>
      <trkpt lat="46.94395" lon="-0.68837">
        <ele>180.1</ele>
        <time>2012-04-08T08:52:19Z</time>
      </trkpt>
      <trkpt lat="46.94389" lon="-0.6884">
        <ele>180.1</ele>
        <time>2012-04-08T08:52:20Z</time>
      </trkpt>
      <trkpt lat="46.94382" lon="-0.68843">
        <ele>180.1</ele>
        <time>2012-04-08T08:52:21Z</time>
      </trkpt>
      <trkpt lat="46.94376" lon="-0.68845">
        <ele>180.1</ele>
        <time>2012-04-08T08:52:22Z</time>
      </trkpt>
      <trkpt lat="46.9437" lon="-0.68848">
        <ele>180</ele>
        <time>2012-04-08T08:52:23Z</time>
      </trkpt>
      <trkpt lat="46.94363" lon="-0.68851">
        <ele>180</ele>
        <time>2012-04-08T08:52:24Z</time>
      </trkpt>
      <trkpt lat="46.94357" lon="-0.68854">
        <ele>180</ele>
        <time>2012-04-08T08:52:25Z</time>
      </trkpt>
      <trkpt lat="46.94351" lon="-0.68857">
        <ele>180</ele>
        <time>2012-04-08T08:52:26Z</time>
      </trkpt>
      <trkpt lat="46.94344" lon="-0.6886">
        <ele>180</ele>
        <time>2012-04-08T08:52:27Z</time>
      </trkpt>
      <trkpt lat="46.94338" lon="-0.68863">
        <ele>180</ele>
        <time>2012-04-08T08:52:28Z</time>
      </trkpt>
      <trkpt lat="46.94331" lon="-0.68867">
        <ele>180</ele>
        <time>2012-04-08T08:52:29Z</time>
      </trkpt>
      <trkpt lat="46.94325" lon="-0.68871">
        <ele>180</ele>
        <time>2012-04-08T08:52:30Z</time>
      </trkpt>
      <trkpt lat="46.94319" lon="-0.68876">
        <ele>180</ele>
        <time>2012-04-08T08:52:31Z</time>
      </trkpt>
      <trkpt lat="46.94314" lon="-0.68881">
        <ele>179.8</ele>
        <time>2012-04-08T08:52:32Z</time>
      </trkpt>
      <trkpt lat="46.94308" lon="-0.68886">
        <ele>179.8</ele>
        <time>2012-04-08T08:52:33Z</time>
      </trkpt>
      <trkpt lat="46.94302" lon="-0.68891">
        <ele>179.8</ele>
        <time>2012-04-08T08:52:34Z</time>
      </trkpt>
      <trkpt lat="46.94295" lon="-0.68897">
        <ele>179.8</ele>
        <time>2012-04-08T08:52:35Z</time>
      </trkpt>
      <trkpt lat="46.94289" lon="-0.68902">
        <ele>179.6</ele>
        <time>2012-04-08T08:52:36Z</time>
      </trkpt>
      <trkpt lat="46.94283" lon="-0.68908">
        <ele>179.6</ele>
        <time>2012-04-08T08:52:37Z</time>
      </trkpt>
      <trkpt lat="46.94277" lon="-0.68914">
        <ele>179.6</ele>
        <time>2012-04-08T08:52:38Z</time>
      </trkpt>
      <trkpt lat="46.94272" lon="-0.6892">
        <ele>179.5</ele>
        <time>2012-04-08T08:52:39Z</time>
      </trkpt>
      <trkpt lat="46.94266" lon="-0.68926">
        <ele>179.5</ele>
        <time>2012-04-08T08:52:40Z</time>
      </trkpt>
      <trkpt lat="46.9426" lon="-0.68931">
        <ele>179.3</ele>
        <time>2012-04-08T08:52:41Z</time>
      </trkpt>
      <trkpt lat="46.94255" lon="-0.68936">
        <ele>179.3</ele>
        <time>2012-04-08T08:52:42Z</time>
      </trkpt>
      <trkpt lat="46.94249" lon="-0.68938">
        <ele>179.3</ele>
        <time>2012-04-08T08:52:43Z</time>
      </trkpt>
      <trkpt lat="46.94243" lon="-0.6894">
        <ele>179.1</ele>
        <time>2012-04-08T08:52:44Z</time>
      </trkpt>
      <trkpt lat="46.94237" lon="-0.68942">
        <ele>179.1</ele>
        <time>2012-04-08T08:52:45Z</time>
      </trkpt>
      <trkpt lat="46.94231" lon="-0.68944">
        <ele>179.1</ele>
        <time>2012-04-08T08:52:46Z</time>
      </trkpt>
      <trkpt lat="46.94226" lon="-0.68946">
        <ele>179</ele>
        <time>2012-04-08T08:52:47Z</time>
      </trkpt>
      <trkpt lat="46.9422" lon="-0.68948">
        <ele>178.8</ele>
        <time>2012-04-08T08:52:48Z</time>
      </trkpt>
      <trkpt lat="46.94215" lon="-0.6895">
        <ele>178.8</ele>
        <time>2012-04-08T08:52:49Z</time>
      </trkpt>
      <trkpt lat="46.94209" lon="-0.68951">
        <ele>178.8</ele>
        <time>2012-04-08T08:52:50Z</time>
      </trkpt>
      <trkpt lat="46.94204" lon="-0.68953">
        <ele>178.6</ele>
        <time>2012-04-08T08:52:51Z</time>
      </trkpt>
      <trkpt lat="46.94198" lon="-0.68954">
        <ele>178.6</ele>
        <time>2012-04-08T08:52:52Z</time>
      </trkpt>
      <trkpt lat="46.94192" lon="-0.68955">
        <ele>178.6</ele>
        <time>2012-04-08T08:52:53Z</time>
      </trkpt>
      <trkpt lat="46.94187" lon="-0.68956">
        <ele>178.6</ele>
        <time>2012-04-08T08:52:54Z</time>
      </trkpt>
      <trkpt lat="46.94182" lon="-0.68956">
        <ele>178.5</ele>
        <time>2012-04-08T08:52:55Z</time>
      </trkpt>
      <trkpt lat="46.94174" lon="-0.68958">
        <ele>178.3</ele>
        <time>2012-04-08T08:52:57Z</time>
      </trkpt>
      <trkpt lat="46.94167" lon="-0.68958">
        <ele>178.3</ele>
        <time>2012-04-08T08:53:03Z</time>
      </trkpt>
      <trkpt lat="46.94168" lon="-0.68945">
        <ele>178.3</ele>
        <time>2012-04-08T08:53:05Z</time>
      </trkpt>
      <trkpt lat="46.94172" lon="-0.68935">
        <ele>178.1</ele>
        <time>2012-04-08T08:53:07Z</time>
      </trkpt>
      <trkpt lat="46.94176" lon="-0.68925">
        <ele>178.1</ele>
        <time>2012-04-08T08:53:09Z</time>
      </trkpt>
      <trkpt lat="46.94181" lon="-0.68915">
        <ele>178.1</ele>
        <time>2012-04-08T08:53:11Z</time>
      </trkpt>
      <trkpt lat="46.94184" lon="-0.68909">
        <ele>178.1</ele>
        <time>2012-04-08T08:53:12Z</time>
      </trkpt>
      <trkpt lat="46.94187" lon="-0.68904">
        <ele>178</ele>
        <time>2012-04-08T08:53:13Z</time>
      </trkpt>
      <trkpt lat="46.94189" lon="-0.68898">
        <ele>178</ele>
        <time>2012-04-08T08:53:14Z</time>
      </trkpt>
      <trkpt lat="46.94192" lon="-0.68893">
        <ele>178</ele>
        <time>2012-04-08T08:53:15Z</time>
      </trkpt>
      <trkpt lat="46.94194" lon="-0.68887">
        <ele>177.8</ele>
        <time>2012-04-08T08:53:16Z</time>
      </trkpt>
      <trkpt lat="46.94197" lon="-0.68881">
        <ele>177.8</ele>
        <time>2012-04-08T08:53:17Z</time>
      </trkpt>
      <trkpt lat="46.942" lon="-0.68876">
        <ele>177.8</ele>
        <time>2012-04-08T08:53:18Z</time>
      </trkpt>
      <trkpt lat="46.94203" lon="-0.6887">
        <ele>177.8</ele>
        <time>2012-04-08T08:53:19Z</time>
      </trkpt>
      <trkpt lat="46.94207" lon="-0.68865">
        <ele>178</ele>
        <time>2012-04-08T08:53:20Z</time>
      </trkpt>
      <trkpt lat="46.9421" lon="-0.6886">
        <ele>178</ele>
        <time>2012-04-08T08:53:21Z</time>
      </trkpt>
      <trkpt lat="46.94214" lon="-0.68855">
        <ele>178</ele>
        <time>2012-04-08T08:53:22Z</time>
      </trkpt>
      <trkpt lat="46.94217" lon="-0.6885">
        <ele>178.1</ele>
        <time>2012-04-08T08:53:23Z</time>
      </trkpt>
      <trkpt lat="46.94221" lon="-0.68845">
        <ele>178.1</ele>
        <time>2012-04-08T08:53:24Z</time>
      </trkpt>
      <trkpt lat="46.94224" lon="-0.68841">
        <ele>178.1</ele>
        <time>2012-04-08T08:53:25Z</time>
      </trkpt>
      <trkpt lat="46.94227" lon="-0.68836">
        <ele>178.1</ele>
        <time>2012-04-08T08:53:26Z</time>
      </trkpt>
      <trkpt lat="46.94231" lon="-0.68832">
        <ele>178.3</ele>
        <time>2012-04-08T08:53:27Z</time>
      </trkpt>
      <trkpt lat="46.94234" lon="-0.68828">
        <ele>178.3</ele>
        <time>2012-04-08T08:53:28Z</time>
      </trkpt>
      <trkpt lat="46.94242" lon="-0.6882">
        <ele>178.1</ele>
        <time>2012-04-08T08:53:30Z</time>
      </trkpt>
      <trkpt lat="46.94249" lon="-0.68812">
        <ele>178.3</ele>
        <time>2012-04-08T08:53:32Z</time>
      </trkpt>
      <trkpt lat="46.94253" lon="-0.68802">
        <ele>178.3</ele>
        <time>2012-04-08T08:53:34Z</time>
      </trkpt>
      <trkpt lat="46.94251" lon="-0.68791">
        <ele>178.1</ele>
        <time>2012-04-08T08:53:36Z</time>
      </trkpt>
      <trkpt lat="46.94247" lon="-0.6878">
        <ele>178.1</ele>
        <time>2012-04-08T08:53:38Z</time>
      </trkpt>
      <trkpt lat="46.94244" lon="-0.68775">
        <ele>178.1</ele>
        <time>2012-04-08T08:53:39Z</time>
      </trkpt>
      <trkpt lat="46.9424" lon="-0.68771">
        <ele>178.1</ele>
        <time>2012-04-08T08:53:40Z</time>
      </trkpt>
      <trkpt lat="46.94236" lon="-0.68767">
        <ele>178.1</ele>
        <time>2012-04-08T08:53:41Z</time>
      </trkpt>
      <trkpt lat="46.94231" lon="-0.68764">
        <ele>178.1</ele>
        <time>2012-04-08T08:53:42Z</time>
      </trkpt>
      <trkpt lat="46.94227" lon="-0.68761">
        <ele>178.3</ele>
        <time>2012-04-08T08:53:43Z</time>
      </trkpt>
      <trkpt lat="46.94222" lon="-0.68758">
        <ele>178.3</ele>
        <time>2012-04-08T08:53:44Z</time>
      </trkpt>
      <trkpt lat="46.94217" lon="-0.68756">
        <ele>178.5</ele>
        <time>2012-04-08T08:53:45Z</time>
      </trkpt>
      <trkpt lat="46.94212" lon="-0.68754">
        <ele>178.6</ele>
        <time>2012-04-08T08:53:46Z</time>
      </trkpt>
      <trkpt lat="46.94208" lon="-0.68748">
        <ele>178.6</ele>
        <time>2012-04-08T08:53:47Z</time>
      </trkpt>
      <trkpt lat="46.94207" lon="-0.68741">
        <ele>178.6</ele>
        <time>2012-04-08T08:53:48Z</time>
      </trkpt>
      <trkpt lat="46.94207" lon="-0.68735">
        <ele>178.6</ele>
        <time>2012-04-08T08:53:49Z</time>
      </trkpt>
      <trkpt lat="46.94207" lon="-0.68728">
        <ele>178.6</ele>
        <time>2012-04-08T08:53:50Z</time>
      </trkpt>
      <trkpt lat="46.94208" lon="-0.68721">
        <ele>178.6</ele>
        <time>2012-04-08T08:53:51Z</time>
      </trkpt>
      <trkpt lat="46.94209" lon="-0.68714">
        <ele>178.6</ele>
        <time>2012-04-08T08:53:52Z</time>
      </trkpt>
      <trkpt lat="46.94211" lon="-0.68707">
        <ele>178.5</ele>
        <time>2012-04-08T08:53:53Z</time>
      </trkpt>
      <trkpt lat="46.94211" lon="-0.68695">
        <ele>178.3</ele>
        <time>2012-04-08T08:53:55Z</time>
      </trkpt>
      <trkpt lat="46.94207" lon="-0.68684">
        <ele>178.3</ele>
        <time>2012-04-08T08:53:57Z</time>
      </trkpt>
      <trkpt lat="46.94203" lon="-0.68679">
        <ele>178.3</ele>
        <time>2012-04-08T08:53:58Z</time>
      </trkpt>
      <trkpt lat="46.942" lon="-0.68673">
        <ele>178.5</ele>
        <time>2012-04-08T08:53:59Z</time>
      </trkpt>
      <trkpt lat="46.94196" lon="-0.68668">
        <ele>178.5</ele>
        <time>2012-04-08T08:54:00Z</time>
      </trkpt>
      <trkpt lat="46.94193" lon="-0.68663">
        <ele>178.3</ele>
        <time>2012-04-08T08:54:01Z</time>
      </trkpt>
      <trkpt lat="46.94188" lon="-0.68659">
        <ele>178.3</ele>
        <time>2012-04-08T08:54:02Z</time>
      </trkpt>
      <trkpt lat="46.94184" lon="-0.68656">
        <ele>178.3</ele>
        <time>2012-04-08T08:54:03Z</time>
      </trkpt>
      <trkpt lat="46.94178" lon="-0.68653">
        <ele>178.3</ele>
        <time>2012-04-08T08:54:04Z</time>
      </trkpt>
      <trkpt lat="46.94174" lon="-0.68651">
        <ele>178.1</ele>
        <time>2012-04-08T08:54:05Z</time>
      </trkpt>
      <trkpt lat="46.94169" lon="-0.68649">
        <ele>178.1</ele>
        <time>2012-04-08T08:54:06Z</time>
      </trkpt>
      <trkpt lat="46.94165" lon="-0.68646">
        <ele>178.1</ele>
        <time>2012-04-08T08:54:07Z</time>
      </trkpt>
      <trkpt lat="46.94157" lon="-0.68641">
        <ele>177.8</ele>
        <time>2012-04-08T08:54:09Z</time>
      </trkpt>
      <trkpt lat="46.94153" lon="-0.6863">
        <ele>177.8</ele>
        <time>2012-04-08T08:54:12Z</time>
      </trkpt>
      <trkpt lat="46.94155" lon="-0.68619">
        <ele>177.6</ele>
        <time>2012-04-08T08:54:14Z</time>
      </trkpt>
      <trkpt lat="46.94157" lon="-0.68613">
        <ele>177.6</ele>
        <time>2012-04-08T08:54:15Z</time>
      </trkpt>
      <trkpt lat="46.94159" lon="-0.686">
        <ele>177.3</ele>
        <time>2012-04-08T08:54:17Z</time>
      </trkpt>
      <trkpt lat="46.94158" lon="-0.68593">
        <ele>177.3</ele>
        <time>2012-04-08T08:54:18Z</time>
      </trkpt>
      <trkpt lat="46.94156" lon="-0.68587">
        <ele>177.1</ele>
        <time>2012-04-08T08:54:19Z</time>
      </trkpt>
      <trkpt lat="46.94152" lon="-0.68583">
        <ele>177.1</ele>
        <time>2012-04-08T08:54:20Z</time>
      </trkpt>
      <trkpt lat="46.94147" lon="-0.6858">
        <ele>177</ele>
        <time>2012-04-08T08:54:21Z</time>
      </trkpt>
      <trkpt lat="46.94143" lon="-0.68578">
        <ele>177</ele>
        <time>2012-04-08T08:54:22Z</time>
      </trkpt>
      <trkpt lat="46.94138" lon="-0.68576">
        <ele>176.8</ele>
        <time>2012-04-08T08:54:23Z</time>
      </trkpt>
      <trkpt lat="46.94133" lon="-0.68573">
        <ele>176.8</ele>
        <time>2012-04-08T08:54:24Z</time>
      </trkpt>
      <trkpt lat="46.94129" lon="-0.68569">
        <ele>176.8</ele>
        <time>2012-04-08T08:54:25Z</time>
      </trkpt>
      <trkpt lat="46.94121" lon="-0.68563">
        <ele>176.8</ele>
        <time>2012-04-08T08:54:27Z</time>
      </trkpt>
      <trkpt lat="46.94114" lon="-0.68558">
        <ele>176.8</ele>
        <time>2012-04-08T08:54:30Z</time>
      </trkpt>
      <trkpt lat="46.94107" lon="-0.68555">
        <ele>176.8</ele>
        <time>2012-04-08T08:54:32Z</time>
      </trkpt>
      <trkpt lat="46.94099" lon="-0.68549">
        <ele>176.8</ele>
        <time>2012-04-08T08:54:34Z</time>
      </trkpt>
      <trkpt lat="46.94095" lon="-0.68538">
        <ele>176.8</ele>
        <time>2012-04-08T08:54:36Z</time>
      </trkpt>
      <trkpt lat="46.94093" lon="-0.68525">
        <ele>176.8</ele>
        <time>2012-04-08T08:54:38Z</time>
      </trkpt>
      <trkpt lat="46.94092" lon="-0.68512">
        <ele>176.8</ele>
        <time>2012-04-08T08:54:40Z</time>
      </trkpt>
      <trkpt lat="46.94091" lon="-0.68506">
        <ele>176.8</ele>
        <time>2012-04-08T08:54:41Z</time>
      </trkpt>
      <trkpt lat="46.9409" lon="-0.68499">
        <ele>176.6</ele>
        <time>2012-04-08T08:54:42Z</time>
      </trkpt>
      <trkpt lat="46.94089" lon="-0.68492">
        <ele>176.6</ele>
        <time>2012-04-08T08:54:43Z</time>
      </trkpt>
      <trkpt lat="46.94087" lon="-0.68485">
        <ele>176.6</ele>
        <time>2012-04-08T08:54:44Z</time>
      </trkpt>
      <trkpt lat="46.94086" lon="-0.68478">
        <ele>176.6</ele>
        <time>2012-04-08T08:54:45Z</time>
      </trkpt>
      <trkpt lat="46.94085" lon="-0.6847">
        <ele>176.6</ele>
        <time>2012-04-08T08:54:46Z</time>
      </trkpt>
      <trkpt lat="46.94085" lon="-0.68461">
        <ele>176.6</ele>
        <time>2012-04-08T08:54:47Z</time>
      </trkpt>
      <trkpt lat="46.94085" lon="-0.68453">
        <ele>176.6</ele>
        <time>2012-04-08T08:54:48Z</time>
      </trkpt>
      <trkpt lat="46.94085" lon="-0.68444">
        <ele>176.5</ele>
        <time>2012-04-08T08:54:49Z</time>
      </trkpt>
      <trkpt lat="46.94085" lon="-0.68435">
        <ele>176.5</ele>
        <time>2012-04-08T08:54:50Z</time>
      </trkpt>
      <trkpt lat="46.94085" lon="-0.68426">
        <ele>176.5</ele>
        <time>2012-04-08T08:54:51Z</time>
      </trkpt>
      <trkpt lat="46.94085" lon="-0.68418">
        <ele>176.5</ele>
        <time>2012-04-08T08:54:52Z</time>
      </trkpt>
      <trkpt lat="46.94085" lon="-0.6841">
        <ele>176.5</ele>
        <time>2012-04-08T08:54:53Z</time>
      </trkpt>
      <trkpt lat="46.94085" lon="-0.68402">
        <ele>176.5</ele>
        <time>2012-04-08T08:54:54Z</time>
      </trkpt>
      <trkpt lat="46.94086" lon="-0.68394">
        <ele>176.3</ele>
        <time>2012-04-08T08:54:55Z</time>
      </trkpt>
      <trkpt lat="46.94086" lon="-0.68385">
        <ele>176.3</ele>
        <time>2012-04-08T08:54:56Z</time>
      </trkpt>
      <trkpt lat="46.94087" lon="-0.68376">
        <ele>176.3</ele>
        <time>2012-04-08T08:54:57Z</time>
      </trkpt>
      <trkpt lat="46.94087" lon="-0.68366">
        <ele>176.1</ele>
        <time>2012-04-08T08:54:58Z</time>
      </trkpt>
      <trkpt lat="46.94087" lon="-0.68357">
        <ele>176.1</ele>
        <time>2012-04-08T08:54:59Z</time>
      </trkpt>
      <trkpt lat="46.94088" lon="-0.68347">
        <ele>176</ele>
        <time>2012-04-08T08:55:00Z</time>
      </trkpt>
      <trkpt lat="46.94088" lon="-0.68336">
        <ele>175.8</ele>
        <time>2012-04-08T08:55:01Z</time>
      </trkpt>
      <trkpt lat="46.94088" lon="-0.68326">
        <ele>175.6</ele>
        <time>2012-04-08T08:55:02Z</time>
      </trkpt>
      <trkpt lat="46.94088" lon="-0.68315">
        <ele>175.5</ele>
        <time>2012-04-08T08:55:03Z</time>
      </trkpt>
      <trkpt lat="46.94088" lon="-0.68305">
        <ele>175.3</ele>
        <time>2012-04-08T08:55:04Z</time>
      </trkpt>
      <trkpt lat="46.94087" lon="-0.68294">
        <ele>175.3</ele>
        <time>2012-04-08T08:55:05Z</time>
      </trkpt>
      <trkpt lat="46.94087" lon="-0.68283">
        <ele>175.1</ele>
        <time>2012-04-08T08:55:06Z</time>
      </trkpt>
      <trkpt lat="46.94087" lon="-0.68272">
        <ele>175.1</ele>
        <time>2012-04-08T08:55:07Z</time>
      </trkpt>
      <trkpt lat="46.94086" lon="-0.68262">
        <ele>175</ele>
        <time>2012-04-08T08:55:08Z</time>
      </trkpt>
      <trkpt lat="46.94086" lon="-0.68252">
        <ele>174.8</ele>
        <time>2012-04-08T08:55:09Z</time>
      </trkpt>
      <trkpt lat="46.94086" lon="-0.68241">
        <ele>174.6</ele>
        <time>2012-04-08T08:55:10Z</time>
      </trkpt>
      <trkpt lat="46.94086" lon="-0.68232">
        <ele>174.3</ele>
        <time>2012-04-08T08:55:11Z</time>
      </trkpt>
      <trkpt lat="46.94085" lon="-0.68222">
        <ele>174.1</ele>
        <time>2012-04-08T08:55:12Z</time>
      </trkpt>
      <trkpt lat="46.94085" lon="-0.68213">
        <ele>174.1</ele>
        <time>2012-04-08T08:55:13Z</time>
      </trkpt>
      <trkpt lat="46.94085" lon="-0.68204">
        <ele>174</ele>
        <time>2012-04-08T08:55:14Z</time>
      </trkpt>
      <trkpt lat="46.94085" lon="-0.68195">
        <ele>173.8</ele>
        <time>2012-04-08T08:55:15Z</time>
      </trkpt>
      <trkpt lat="46.94085" lon="-0.68186">
        <ele>173.8</ele>
        <time>2012-04-08T08:55:16Z</time>
      </trkpt>
      <trkpt lat="46.94084" lon="-0.68177">
        <ele>173.8</ele>
        <time>2012-04-08T08:55:17Z</time>
      </trkpt>
      <trkpt lat="46.94084" lon="-0.68168">
        <ele>173.6</ele>
        <time>2012-04-08T08:55:18Z</time>
      </trkpt>
      <trkpt lat="46.94083" lon="-0.68159">
        <ele>173.5</ele>
        <time>2012-04-08T08:55:19Z</time>
      </trkpt>
      <trkpt lat="46.94084" lon="-0.68149">
        <ele>173.3</ele>
        <time>2012-04-08T08:55:20Z</time>
      </trkpt>
      <trkpt lat="46.94086" lon="-0.6814">
        <ele>173.1</ele>
        <time>2012-04-08T08:55:21Z</time>
      </trkpt>
      <trkpt lat="46.94088" lon="-0.68131">
        <ele>173</ele>
        <time>2012-04-08T08:55:22Z</time>
      </trkpt>
      <trkpt lat="46.9409" lon="-0.68122">
        <ele>172.6</ele>
        <time>2012-04-08T08:55:23Z</time>
      </trkpt>
      <trkpt lat="46.94093" lon="-0.68112">
        <ele>172.6</ele>
        <time>2012-04-08T08:55:24Z</time>
      </trkpt>
      <trkpt lat="46.94096" lon="-0.68102">
        <ele>172.3</ele>
        <time>2012-04-08T08:55:25Z</time>
      </trkpt>
      <trkpt lat="46.94098" lon="-0.68092">
        <ele>172.3</ele>
        <time>2012-04-08T08:55:26Z</time>
      </trkpt>
      <trkpt lat="46.941" lon="-0.68082">
        <ele>172.1</ele>
        <time>2012-04-08T08:55:27Z</time>
      </trkpt>
      <trkpt lat="46.94102" lon="-0.68072">
        <ele>172.1</ele>
        <time>2012-04-08T08:55:28Z</time>
      </trkpt>
      <trkpt lat="46.94104" lon="-0.68061">
        <ele>172</ele>
        <time>2012-04-08T08:55:29Z</time>
      </trkpt>
      <trkpt lat="46.94106" lon="-0.68051">
        <ele>172</ele>
        <time>2012-04-08T08:55:30Z</time>
      </trkpt>
      <trkpt lat="46.94107" lon="-0.6804">
        <ele>171.8</ele>
        <time>2012-04-08T08:55:31Z</time>
      </trkpt>
      <trkpt lat="46.94109" lon="-0.68029">
        <ele>171.8</ele>
        <time>2012-04-08T08:55:32Z</time>
      </trkpt>
      <trkpt lat="46.9411" lon="-0.68018">
        <ele>171.8</ele>
        <time>2012-04-08T08:55:33Z</time>
      </trkpt>
      <trkpt lat="46.94112" lon="-0.68008">
        <ele>171.8</ele>
        <time>2012-04-08T08:55:34Z</time>
      </trkpt>
      <trkpt lat="46.94113" lon="-0.67997">
        <ele>171.6</ele>
        <time>2012-04-08T08:55:35Z</time>
      </trkpt>
      <trkpt lat="46.94115" lon="-0.67986">
        <ele>171.6</ele>
        <time>2012-04-08T08:55:36Z</time>
      </trkpt>
      <trkpt lat="46.94116" lon="-0.67976">
        <ele>171.6</ele>
        <time>2012-04-08T08:55:37Z</time>
      </trkpt>
      <trkpt lat="46.94118" lon="-0.67966">
        <ele>171.6</ele>
        <time>2012-04-08T08:55:38Z</time>
      </trkpt>
      <trkpt lat="46.94119" lon="-0.67956">
        <ele>171.5</ele>
        <time>2012-04-08T08:55:39Z</time>
      </trkpt>
      <trkpt lat="46.94121" lon="-0.67946">
        <ele>171.3</ele>
        <time>2012-04-08T08:55:40Z</time>
      </trkpt>
      <trkpt lat="46.94122" lon="-0.67937">
        <ele>171.3</ele>
        <time>2012-04-08T08:55:41Z</time>
      </trkpt>
      <trkpt lat="46.94123" lon="-0.67927">
        <ele>171.3</ele>
        <time>2012-04-08T08:55:42Z</time>
      </trkpt>
      <trkpt lat="46.94124" lon="-0.67917">
        <ele>171.1</ele>
        <time>2012-04-08T08:55:43Z</time>
      </trkpt>
      <trkpt lat="46.94125" lon="-0.67908">
        <ele>171.1</ele>
        <time>2012-04-08T08:55:44Z</time>
      </trkpt>
      <trkpt lat="46.94125" lon="-0.67898">
        <ele>171.1</ele>
        <time>2012-04-08T08:55:45Z</time>
      </trkpt>
      <trkpt lat="46.94126" lon="-0.67889">
        <ele>171.1</ele>
        <time>2012-04-08T08:55:46Z</time>
      </trkpt>
      <trkpt lat="46.94127" lon="-0.6788">
        <ele>171</ele>
        <time>2012-04-08T08:55:47Z</time>
      </trkpt>
      <trkpt lat="46.94127" lon="-0.6787">
        <ele>171</ele>
        <time>2012-04-08T08:55:48Z</time>
      </trkpt>
      <trkpt lat="46.94128" lon="-0.67861">
        <ele>170.8</ele>
        <time>2012-04-08T08:55:49Z</time>
      </trkpt>
      <trkpt lat="46.94129" lon="-0.67851">
        <ele>170.8</ele>
        <time>2012-04-08T08:55:50Z</time>
      </trkpt>
      <trkpt lat="46.9413" lon="-0.67841">
        <ele>170.8</ele>
        <time>2012-04-08T08:55:51Z</time>
      </trkpt>
      <trkpt lat="46.94131" lon="-0.67832">
        <ele>170.6</ele>
        <time>2012-04-08T08:55:52Z</time>
      </trkpt>
      <trkpt lat="46.94132" lon="-0.67822">
        <ele>170.6</ele>
        <time>2012-04-08T08:55:53Z</time>
      </trkpt>
      <trkpt lat="46.94133" lon="-0.67813">
        <ele>170.6</ele>
        <time>2012-04-08T08:55:54Z</time>
      </trkpt>
      <trkpt lat="46.94134" lon="-0.67804">
        <ele>170.5</ele>
        <time>2012-04-08T08:55:55Z</time>
      </trkpt>
      <trkpt lat="46.94135" lon="-0.67795">
        <ele>170.3</ele>
        <time>2012-04-08T08:55:56Z</time>
      </trkpt>
      <trkpt lat="46.94136" lon="-0.67785">
        <ele>170.3</ele>
        <time>2012-04-08T08:55:57Z</time>
      </trkpt>
      <trkpt lat="46.94137" lon="-0.67776">
        <ele>170.3</ele>
        <time>2012-04-08T08:55:58Z</time>
      </trkpt>
      <trkpt lat="46.94138" lon="-0.67768">
        <ele>170.1</ele>
        <time>2012-04-08T08:55:59Z</time>
      </trkpt>
      <trkpt lat="46.94139" lon="-0.67759">
        <ele>170.1</ele>
        <time>2012-04-08T08:56:00Z</time>
      </trkpt>
      <trkpt lat="46.9414" lon="-0.67751">
        <ele>170.1</ele>
        <time>2012-04-08T08:56:01Z</time>
      </trkpt>
      <trkpt lat="46.94142" lon="-0.67742">
        <ele>170</ele>
        <time>2012-04-08T08:56:02Z</time>
      </trkpt>
      <trkpt lat="46.94143" lon="-0.67733">
        <ele>170</ele>
        <time>2012-04-08T08:56:03Z</time>
      </trkpt>
      <trkpt lat="46.94144" lon="-0.67725">
        <ele>169.8</ele>
        <time>2012-04-08T08:56:04Z</time>
      </trkpt>
      <trkpt lat="46.94145" lon="-0.67716">
        <ele>169.8</ele>
        <time>2012-04-08T08:56:05Z</time>
      </trkpt>
      <trkpt lat="46.94146" lon="-0.67707">
        <ele>169.8</ele>
        <time>2012-04-08T08:56:06Z</time>
      </trkpt>
      <trkpt lat="46.94147" lon="-0.67698">
        <ele>169.6</ele>
        <time>2012-04-08T08:56:07Z</time>
      </trkpt>
      <trkpt lat="46.94148" lon="-0.67689">
        <ele>169.6</ele>
        <time>2012-04-08T08:56:08Z</time>
      </trkpt>
      <trkpt lat="46.94149" lon="-0.67679">
        <ele>169.6</ele>
        <time>2012-04-08T08:56:09Z</time>
      </trkpt>
      <trkpt lat="46.9415" lon="-0.67669">
        <ele>169.5</ele>
        <time>2012-04-08T08:56:10Z</time>
      </trkpt>
      <trkpt lat="46.94151" lon="-0.67658">
        <ele>169.3</ele>
        <time>2012-04-08T08:56:11Z</time>
      </trkpt>
      <trkpt lat="46.94151" lon="-0.67647">
        <ele>169.1</ele>
        <time>2012-04-08T08:56:12Z</time>
      </trkpt>
      <trkpt lat="46.94153" lon="-0.67635">
        <ele>169</ele>
        <time>2012-04-08T08:56:13Z</time>
      </trkpt>
      <trkpt lat="46.94154" lon="-0.67623">
        <ele>168.8</ele>
        <time>2012-04-08T08:56:14Z</time>
      </trkpt>
      <trkpt lat="46.94157" lon="-0.6761">
        <ele>168.6</ele>
        <time>2012-04-08T08:56:15Z</time>
      </trkpt>
      <trkpt lat="46.94159" lon="-0.67597">
        <ele>168.3</ele>
        <time>2012-04-08T08:56:16Z</time>
      </trkpt>
      <trkpt lat="46.94163" lon="-0.67584">
        <ele>168.1</ele>
        <time>2012-04-08T08:56:17Z</time>
      </trkpt>
      <trkpt lat="46.94167" lon="-0.67572">
        <ele>168</ele>
        <time>2012-04-08T08:56:18Z</time>
      </trkpt>
      <trkpt lat="46.9417" lon="-0.67559">
        <ele>167.8</ele>
        <time>2012-04-08T08:56:19Z</time>
      </trkpt>
      <trkpt lat="46.94174" lon="-0.67547">
        <ele>167.5</ele>
        <time>2012-04-08T08:56:20Z</time>
      </trkpt>
      <trkpt lat="46.94178" lon="-0.67535">
        <ele>167.3</ele>
        <time>2012-04-08T08:56:21Z</time>
      </trkpt>
      <trkpt lat="46.94181" lon="-0.67523">
        <ele>167</ele>
        <time>2012-04-08T08:56:22Z</time>
      </trkpt>
      <trkpt lat="46.94185" lon="-0.6751">
        <ele>166.6</ele>
        <time>2012-04-08T08:56:23Z</time>
      </trkpt>
      <trkpt lat="46.94187" lon="-0.67497">
        <ele>166.3</ele>
        <time>2012-04-08T08:56:24Z</time>
      </trkpt>
      <trkpt lat="46.9419" lon="-0.67484">
        <ele>166</ele>
        <time>2012-04-08T08:56:25Z</time>
      </trkpt>
      <trkpt lat="46.94192" lon="-0.67472">
        <ele>165.6</ele>
        <time>2012-04-08T08:56:26Z</time>
      </trkpt>
      <trkpt lat="46.94193" lon="-0.6746">
        <ele>165.5</ele>
        <time>2012-04-08T08:56:27Z</time>
      </trkpt>
      <trkpt lat="46.94193" lon="-0.67448">
        <ele>165.1</ele>
        <time>2012-04-08T08:56:28Z</time>
      </trkpt>
      <trkpt lat="46.94194" lon="-0.67437">
        <ele>164.8</ele>
        <time>2012-04-08T08:56:29Z</time>
      </trkpt>
      <trkpt lat="46.94194" lon="-0.67426">
        <ele>164.6</ele>
        <time>2012-04-08T08:56:30Z</time>
      </trkpt>
      <trkpt lat="46.94195" lon="-0.67416">
        <ele>164.3</ele>
        <time>2012-04-08T08:56:31Z</time>
      </trkpt>
      <trkpt lat="46.94195" lon="-0.67407">
        <ele>163.8</ele>
        <time>2012-04-08T08:56:32Z</time>
      </trkpt>
      <trkpt lat="46.94196" lon="-0.67398">
        <ele>163.6</ele>
        <time>2012-04-08T08:56:33Z</time>
      </trkpt>
      <trkpt lat="46.94196" lon="-0.6739">
        <ele>163.3</ele>
        <time>2012-04-08T08:56:34Z</time>
      </trkpt>
      <trkpt lat="46.94197" lon="-0.67382">
        <ele>163</ele>
        <time>2012-04-08T08:56:35Z</time>
      </trkpt>
      <trkpt lat="46.94197" lon="-0.67374">
        <ele>162.8</ele>
        <time>2012-04-08T08:56:36Z</time>
      </trkpt>
      <trkpt lat="46.94198" lon="-0.67366">
        <ele>162.5</ele>
        <time>2012-04-08T08:56:37Z</time>
      </trkpt>
      <trkpt lat="46.94198" lon="-0.67358">
        <ele>162.3</ele>
        <time>2012-04-08T08:56:38Z</time>
      </trkpt>
      <trkpt lat="46.94199" lon="-0.67351">
        <ele>162.1</ele>
        <time>2012-04-08T08:56:39Z</time>
      </trkpt>
      <trkpt lat="46.94201" lon="-0.67343">
        <ele>162.1</ele>
        <time>2012-04-08T08:56:40Z</time>
      </trkpt>
      <trkpt lat="46.94203" lon="-0.67336">
        <ele>161.8</ele>
        <time>2012-04-08T08:56:41Z</time>
      </trkpt>
      <trkpt lat="46.94205" lon="-0.6733">
        <ele>161.8</ele>
        <time>2012-04-08T08:56:42Z</time>
      </trkpt>
      <trkpt lat="46.94207" lon="-0.67323">
        <ele>161.6</ele>
        <time>2012-04-08T08:56:43Z</time>
      </trkpt>
      <trkpt lat="46.9421" lon="-0.67318">
        <ele>161.6</ele>
        <time>2012-04-08T08:56:44Z</time>
      </trkpt>
      <trkpt lat="46.94212" lon="-0.67312">
        <ele>161.5</ele>
        <time>2012-04-08T08:56:45Z</time>
      </trkpt>
      <trkpt lat="46.94215" lon="-0.67306">
        <ele>161.3</ele>
        <time>2012-04-08T08:56:46Z</time>
      </trkpt>
      <trkpt lat="46.94217" lon="-0.673">
        <ele>161.3</ele>
        <time>2012-04-08T08:56:47Z</time>
      </trkpt>
      <trkpt lat="46.94219" lon="-0.67295">
        <ele>161.1</ele>
        <time>2012-04-08T08:56:48Z</time>
      </trkpt>
      <trkpt lat="46.94221" lon="-0.67289">
        <ele>161.1</ele>
        <time>2012-04-08T08:56:49Z</time>
      </trkpt>
      <trkpt lat="46.94224" lon="-0.67283">
        <ele>161</ele>
        <time>2012-04-08T08:56:50Z</time>
      </trkpt>
      <trkpt lat="46.94226" lon="-0.67276">
        <ele>160.8</ele>
        <time>2012-04-08T08:56:51Z</time>
      </trkpt>
      <trkpt lat="46.94229" lon="-0.67269">
        <ele>160.6</ele>
        <time>2012-04-08T08:56:52Z</time>
      </trkpt>
      <trkpt lat="46.94231" lon="-0.67262">
        <ele>160.6</ele>
        <time>2012-04-08T08:56:53Z</time>
      </trkpt>
      <trkpt lat="46.94234" lon="-0.67254">
        <ele>160.3</ele>
        <time>2012-04-08T08:56:54Z</time>
      </trkpt>
      <trkpt lat="46.94237" lon="-0.67245">
        <ele>160.3</ele>
        <time>2012-04-08T08:56:55Z</time>
      </trkpt>
      <trkpt lat="46.9424" lon="-0.67237">
        <ele>160.1</ele>
        <time>2012-04-08T08:56:56Z</time>
      </trkpt>
      <trkpt lat="46.94243" lon="-0.6723">
        <ele>160</ele>
        <time>2012-04-08T08:56:57Z</time>
      </trkpt>
      <trkpt lat="46.94245" lon="-0.67223">
        <ele>159.8</ele>
        <time>2012-04-08T08:56:58Z</time>
      </trkpt>
      <trkpt lat="46.94245" lon="-0.67211">
        <ele>159.6</ele>
        <time>2012-04-08T08:57:00Z</time>
      </trkpt>
      <trkpt lat="46.9424" lon="-0.67205">
        <ele>159.5</ele>
        <time>2012-04-08T08:57:02Z</time>
      </trkpt>
      <trkpt lat="46.94235" lon="-0.67201">
        <ele>159.5</ele>
        <time>2012-04-08T08:57:04Z</time>
      </trkpt>
      <trkpt lat="46.94229" lon="-0.67198">
        <ele>159.3</ele>
        <time>2012-04-08T08:57:06Z</time>
      </trkpt>
      <trkpt lat="46.94221" lon="-0.67194">
        <ele>159.3</ele>
        <time>2012-04-08T08:57:09Z</time>
      </trkpt>
      <trkpt lat="46.94212" lon="-0.6719">
        <ele>159.3</ele>
        <time>2012-04-08T08:57:12Z</time>
      </trkpt>
      <trkpt lat="46.94204" lon="-0.67189">
        <ele>159.1</ele>
        <time>2012-04-08T08:57:14Z</time>
      </trkpt>
      <trkpt lat="46.94198" lon="-0.67187">
        <ele>159.1</ele>
        <time>2012-04-08T08:57:16Z</time>
      </trkpt>
      <trkpt lat="46.94189" lon="-0.67186">
        <ele>159</ele>
        <time>2012-04-08T08:57:19Z</time>
      </trkpt>
      <trkpt lat="46.94186" lon="-0.67184">
        <ele>158.8</ele>
        <time>2012-04-08T08:57:20Z</time>
      </trkpt>
      <trkpt lat="46.94182" lon="-0.6717">
        <ele>158</ele>
        <time>2012-04-08T08:57:23Z</time>
      </trkpt>
      <trkpt lat="46.94181" lon="-0.67161">
        <ele>157.1</ele>
        <time>2012-04-08T08:57:24Z</time>
      </trkpt>
      <trkpt lat="46.94183" lon="-0.67152">
        <ele>156.5</ele>
        <time>2012-04-08T08:57:25Z</time>
      </trkpt>
      <trkpt lat="46.94185" lon="-0.67143">
        <ele>155.8</ele>
        <time>2012-04-08T08:57:26Z</time>
      </trkpt>
      <trkpt lat="46.94187" lon="-0.67132">
        <ele>155.3</ele>
        <time>2012-04-08T08:57:27Z</time>
      </trkpt>
      <trkpt lat="46.94189" lon="-0.67121">
        <ele>154.8</ele>
        <time>2012-04-08T08:57:28Z</time>
      </trkpt>
      <trkpt lat="46.9419" lon="-0.67109">
        <ele>154.3</ele>
        <time>2012-04-08T08:57:29Z</time>
      </trkpt>
      <trkpt lat="46.94192" lon="-0.67098">
        <ele>153.6</ele>
        <time>2012-04-08T08:57:30Z</time>
      </trkpt>
      <trkpt lat="46.94196" lon="-0.67089">
        <ele>153.3</ele>
        <time>2012-04-08T08:57:31Z</time>
      </trkpt>
      <trkpt lat="46.94199" lon="-0.67081">
        <ele>152.8</ele>
        <time>2012-04-08T08:57:32Z</time>
      </trkpt>
      <trkpt lat="46.94202" lon="-0.67073">
        <ele>152.5</ele>
        <time>2012-04-08T08:57:33Z</time>
      </trkpt>
      <trkpt lat="46.94204" lon="-0.67064">
        <ele>152.1</ele>
        <time>2012-04-08T08:57:34Z</time>
      </trkpt>
      <trkpt lat="46.94206" lon="-0.67056">
        <ele>151.8</ele>
        <time>2012-04-08T08:57:35Z</time>
      </trkpt>
      <trkpt lat="46.94208" lon="-0.67047">
        <ele>151.6</ele>
        <time>2012-04-08T08:57:36Z</time>
      </trkpt>
      <trkpt lat="46.94209" lon="-0.67039">
        <ele>151.3</ele>
        <time>2012-04-08T08:57:37Z</time>
      </trkpt>
      <trkpt lat="46.9421" lon="-0.6703">
        <ele>151</ele>
        <time>2012-04-08T08:57:38Z</time>
      </trkpt>
      <trkpt lat="46.94211" lon="-0.67021">
        <ele>150.6</ele>
        <time>2012-04-08T08:57:39Z</time>
      </trkpt>
      <trkpt lat="46.94211" lon="-0.67013">
        <ele>150.5</ele>
        <time>2012-04-08T08:57:40Z</time>
      </trkpt>
      <trkpt lat="46.94212" lon="-0.67004">
        <ele>150.1</ele>
        <time>2012-04-08T08:57:41Z</time>
      </trkpt>
      <trkpt lat="46.94213" lon="-0.66995">
        <ele>149.8</ele>
        <time>2012-04-08T08:57:42Z</time>
      </trkpt>
      <trkpt lat="46.94215" lon="-0.66986">
        <ele>149.6</ele>
        <time>2012-04-08T08:57:43Z</time>
      </trkpt>
      <trkpt lat="46.94216" lon="-0.66977">
        <ele>149.3</ele>
        <time>2012-04-08T08:57:44Z</time>
      </trkpt>
      <trkpt lat="46.94219" lon="-0.66971">
        <ele>149.1</ele>
        <time>2012-04-08T08:57:45Z</time>
      </trkpt>
      <trkpt lat="46.94222" lon="-0.66965">
        <ele>148.8</ele>
        <time>2012-04-08T08:57:46Z</time>
      </trkpt>
      <trkpt lat="46.94226" lon="-0.6696">
        <ele>148.6</ele>
        <time>2012-04-08T08:57:47Z</time>
      </trkpt>
      <trkpt lat="46.94228" lon="-0.66954">
        <ele>148.5</ele>
        <time>2012-04-08T08:57:48Z</time>
      </trkpt>
      <trkpt lat="46.94229" lon="-0.66948">
        <ele>148.3</ele>
        <time>2012-04-08T08:57:49Z</time>
      </trkpt>
      <trkpt lat="46.9423" lon="-0.66941">
        <ele>148.1</ele>
        <time>2012-04-08T08:57:50Z</time>
      </trkpt>
      <trkpt lat="46.94231" lon="-0.66934">
        <ele>148</ele>
        <time>2012-04-08T08:57:51Z</time>
      </trkpt>
      <trkpt lat="46.94233" lon="-0.66921">
        <ele>147.6</ele>
        <time>2012-04-08T08:57:53Z</time>
      </trkpt>
      <trkpt lat="46.94234" lon="-0.6691">
        <ele>147.5</ele>
        <time>2012-04-08T08:57:56Z</time>
      </trkpt>
      <trkpt lat="46.94236" lon="-0.669">
        <ele>147.3</ele>
        <time>2012-04-08T08:57:59Z</time>
      </trkpt>
      <trkpt lat="46.94233" lon="-0.66888">
        <ele>147.1</ele>
        <time>2012-04-08T08:58:03Z</time>
      </trkpt>
      <trkpt lat="46.94227" lon="-0.6688">
        <ele>146.6</ele>
        <time>2012-04-08T08:58:08Z</time>
      </trkpt>
      <trkpt lat="46.94227" lon="-0.66869">
        <ele>146.3</ele>
        <time>2012-04-08T08:58:13Z</time>
      </trkpt>
      <trkpt lat="46.94228" lon="-0.66856">
        <ele>146</ele>
        <time>2012-04-08T08:58:16Z</time>
      </trkpt>
      <trkpt lat="46.94228" lon="-0.66846">
        <ele>145.8</ele>
        <time>2012-04-08T08:58:18Z</time>
      </trkpt>
      <trkpt lat="46.94228" lon="-0.66836">
        <ele>145.6</ele>
        <time>2012-04-08T08:58:20Z</time>
      </trkpt>
      <trkpt lat="46.94228" lon="-0.66831">
        <ele>145.6</ele>
        <time>2012-04-08T08:58:21Z</time>
      </trkpt>
      <trkpt lat="46.94229" lon="-0.66814">
        <ele>145.3</ele>
        <time>2012-04-08T08:58:24Z</time>
      </trkpt>
      <trkpt lat="46.94226" lon="-0.66804">
        <ele>145.1</ele>
        <time>2012-04-08T08:58:26Z</time>
      </trkpt>
      <trkpt lat="46.94224" lon="-0.66794">
        <ele>145.1</ele>
        <time>2012-04-08T08:58:28Z</time>
      </trkpt>
      <trkpt lat="46.94223" lon="-0.66784">
        <ele>145</ele>
        <time>2012-04-08T08:58:30Z</time>
      </trkpt>
      <trkpt lat="46.94223" lon="-0.66771">
        <ele>143.8</ele>
        <time>2012-04-08T08:58:32Z</time>
      </trkpt>
      <trkpt lat="46.94222" lon="-0.6676">
        <ele>143.3</ele>
        <time>2012-04-08T08:58:34Z</time>
      </trkpt>
      <trkpt lat="46.94221" lon="-0.6675">
        <ele>143.3</ele>
        <time>2012-04-08T08:58:36Z</time>
      </trkpt>
      <trkpt lat="46.94219" lon="-0.66741">
        <ele>143.1</ele>
        <time>2012-04-08T08:58:38Z</time>
      </trkpt>
      <trkpt lat="46.94221" lon="-0.6673">
        <ele>142.8</ele>
        <time>2012-04-08T08:58:41Z</time>
      </trkpt>
      <trkpt lat="46.94229" lon="-0.66725">
        <ele>142.5</ele>
        <time>2012-04-08T08:58:46Z</time>
      </trkpt>
      <trkpt lat="46.94237" lon="-0.66724">
        <ele>142.1</ele>
        <time>2012-04-08T08:58:52Z</time>
      </trkpt>
      <trkpt lat="46.94245" lon="-0.66724">
        <ele>141.8</ele>
        <time>2012-04-08T08:58:56Z</time>
      </trkpt>
      <trkpt lat="46.94253" lon="-0.66726">
        <ele>141.8</ele>
        <time>2012-04-08T08:59:00Z</time>
      </trkpt>
      <trkpt lat="46.9426" lon="-0.66728">
        <ele>141.8</ele>
        <time>2012-04-08T08:59:04Z</time>
      </trkpt>
      <trkpt lat="46.94268" lon="-0.66726">
        <ele>142</ele>
        <time>2012-04-08T08:59:09Z</time>
      </trkpt>
      <trkpt lat="46.94271" lon="-0.66715">
        <ele>142</ele>
        <time>2012-04-08T08:59:12Z</time>
      </trkpt>
      <trkpt lat="46.9427" lon="-0.66705">
        <ele>142</ele>
        <time>2012-04-08T08:59:14Z</time>
      </trkpt>
      <trkpt lat="46.9427" lon="-0.66694">
        <ele>142</ele>
        <time>2012-04-08T08:59:16Z</time>
      </trkpt>
      <trkpt lat="46.9427" lon="-0.66682">
        <ele>141.8</ele>
        <time>2012-04-08T08:59:18Z</time>
      </trkpt>
      <trkpt lat="46.94271" lon="-0.66675">
        <ele>141.8</ele>
        <time>2012-04-08T08:59:19Z</time>
      </trkpt>
      <trkpt lat="46.94271" lon="-0.66668">
        <ele>141.8</ele>
        <time>2012-04-08T08:59:20Z</time>
      </trkpt>
      <trkpt lat="46.94271" lon="-0.66661">
        <ele>141.8</ele>
        <time>2012-04-08T08:59:21Z</time>
      </trkpt>
      <trkpt lat="46.94271" lon="-0.66653">
        <ele>141.8</ele>
        <time>2012-04-08T08:59:22Z</time>
      </trkpt>
      <trkpt lat="46.94272" lon="-0.66645">
        <ele>141.8</ele>
        <time>2012-04-08T08:59:23Z</time>
      </trkpt>
      <trkpt lat="46.94272" lon="-0.66637">
        <ele>141.8</ele>
        <time>2012-04-08T08:59:24Z</time>
      </trkpt>
      <trkpt lat="46.94272" lon="-0.66628">
        <ele>141.6</ele>
        <time>2012-04-08T08:59:25Z</time>
      </trkpt>
      <trkpt lat="46.94272" lon="-0.6662">
        <ele>141.6</ele>
        <time>2012-04-08T08:59:26Z</time>
      </trkpt>
      <trkpt lat="46.94273" lon="-0.66611">
        <ele>141.6</ele>
        <time>2012-04-08T08:59:27Z</time>
      </trkpt>
      <trkpt lat="46.94273" lon="-0.66603">
        <ele>141.6</ele>
        <time>2012-04-08T08:59:28Z</time>
      </trkpt>
      <trkpt lat="46.94274" lon="-0.66593">
        <ele>141.6</ele>
        <time>2012-04-08T08:59:29Z</time>
      </trkpt>
      <trkpt lat="46.94274" lon="-0.66584">
        <ele>141.6</ele>
        <time>2012-04-08T08:59:30Z</time>
      </trkpt>
      <trkpt lat="46.94275" lon="-0.66574">
        <ele>141.6</ele>
        <time>2012-04-08T08:59:31Z</time>
      </trkpt>
      <trkpt lat="46.94276" lon="-0.66564">
        <ele>141.6</ele>
        <time>2012-04-08T08:59:32Z</time>
      </trkpt>
      <trkpt lat="46.94277" lon="-0.66555">
        <ele>141.6</ele>
        <time>2012-04-08T08:59:33Z</time>
      </trkpt>
      <trkpt lat="46.94277" lon="-0.66545">
        <ele>141.6</ele>
        <time>2012-04-08T08:59:34Z</time>
      </trkpt>
      <trkpt lat="46.94278" lon="-0.66536">
        <ele>141.6</ele>
        <time>2012-04-08T08:59:35Z</time>
      </trkpt>
      <trkpt lat="46.94279" lon="-0.66526">
        <ele>141.8</ele>
        <time>2012-04-08T08:59:36Z</time>
      </trkpt>
      <trkpt lat="46.9428" lon="-0.66517">
        <ele>141.8</ele>
        <time>2012-04-08T08:59:37Z</time>
      </trkpt>
      <trkpt lat="46.9428" lon="-0.66507">
        <ele>141.8</ele>
        <time>2012-04-08T08:59:38Z</time>
      </trkpt>
      <trkpt lat="46.9428" lon="-0.66498">
        <ele>141.8</ele>
        <time>2012-04-08T08:59:39Z</time>
      </trkpt>
      <trkpt lat="46.94281" lon="-0.6649">
        <ele>141.8</ele>
        <time>2012-04-08T08:59:40Z</time>
      </trkpt>
      <trkpt lat="46.94281" lon="-0.66481">
        <ele>142</ele>
        <time>2012-04-08T08:59:41Z</time>
      </trkpt>
      <trkpt lat="46.94282" lon="-0.66472">
        <ele>142.1</ele>
        <time>2012-04-08T08:59:42Z</time>
      </trkpt>
      <trkpt lat="46.94282" lon="-0.66464">
        <ele>142.3</ele>
        <time>2012-04-08T08:59:43Z</time>
      </trkpt>
      <trkpt lat="46.94282" lon="-0.66455">
        <ele>142.5</ele>
        <time>2012-04-08T08:59:44Z</time>
      </trkpt>
      <trkpt lat="46.94282" lon="-0.66447">
        <ele>142.6</ele>
        <time>2012-04-08T08:59:45Z</time>
      </trkpt>
      <trkpt lat="46.94281" lon="-0.66439">
        <ele>142.8</ele>
        <time>2012-04-08T08:59:46Z</time>
      </trkpt>
      <trkpt lat="46.94281" lon="-0.66431">
        <ele>143</ele>
        <time>2012-04-08T08:59:47Z</time>
      </trkpt>
      <trkpt lat="46.9428" lon="-0.66422">
        <ele>143.1</ele>
        <time>2012-04-08T08:59:48Z</time>
      </trkpt>
      <trkpt lat="46.9428" lon="-0.66413">
        <ele>143.3</ele>
        <time>2012-04-08T08:59:49Z</time>
      </trkpt>
      <trkpt lat="46.94279" lon="-0.66405">
        <ele>143.6</ele>
        <time>2012-04-08T08:59:50Z</time>
      </trkpt>
      <trkpt lat="46.94279" lon="-0.66396">
        <ele>143.8</ele>
        <time>2012-04-08T08:59:51Z</time>
      </trkpt>
      <trkpt lat="46.94278" lon="-0.66388">
        <ele>143.8</ele>
        <time>2012-04-08T08:59:52Z</time>
      </trkpt>
      <trkpt lat="46.94278" lon="-0.66379">
        <ele>143.8</ele>
        <time>2012-04-08T08:59:53Z</time>
      </trkpt>
      <trkpt lat="46.94277" lon="-0.6637">
        <ele>143.8</ele>
        <time>2012-04-08T08:59:54Z</time>
      </trkpt>
      <trkpt lat="46.94277" lon="-0.6636">
        <ele>143.8</ele>
        <time>2012-04-08T08:59:55Z</time>
      </trkpt>
      <trkpt lat="46.94277" lon="-0.66351">
        <ele>143.8</ele>
        <time>2012-04-08T08:59:56Z</time>
      </trkpt>
      <trkpt lat="46.94277" lon="-0.66342">
        <ele>143.8</ele>
        <time>2012-04-08T08:59:57Z</time>
      </trkpt>
      <trkpt lat="46.94277" lon="-0.66332">
        <ele>143.8</ele>
        <time>2012-04-08T08:59:58Z</time>
      </trkpt>
      <trkpt lat="46.94277" lon="-0.66323">
        <ele>143.6</ele>
        <time>2012-04-08T08:59:59Z</time>
      </trkpt>
      <trkpt lat="46.94278" lon="-0.66313">
        <ele>143.6</ele>
        <time>2012-04-08T09:00:00Z</time>
      </trkpt>
      <trkpt lat="46.94279" lon="-0.66303">
        <ele>143.6</ele>
        <time>2012-04-08T09:00:01Z</time>
      </trkpt>
      <trkpt lat="46.9428" lon="-0.66294">
        <ele>143.5</ele>
        <time>2012-04-08T09:00:02Z</time>
      </trkpt>
      <trkpt lat="46.94282" lon="-0.66284">
        <ele>143.3</ele>
        <time>2012-04-08T09:00:03Z</time>
      </trkpt>
      <trkpt lat="46.94284" lon="-0.66273">
        <ele>143.3</ele>
        <time>2012-04-08T09:00:04Z</time>
      </trkpt>
      <trkpt lat="46.94286" lon="-0.66263">
        <ele>143.1</ele>
        <time>2012-04-08T09:00:05Z</time>
      </trkpt>
      <trkpt lat="46.94289" lon="-0.66253">
        <ele>143.1</ele>
        <time>2012-04-08T09:00:06Z</time>
      </trkpt>
      <trkpt lat="46.94291" lon="-0.66243">
        <ele>143.1</ele>
        <time>2012-04-08T09:00:07Z</time>
      </trkpt>
      <trkpt lat="46.94293" lon="-0.66233">
        <ele>143</ele>
        <time>2012-04-08T09:00:08Z</time>
      </trkpt>
      <trkpt lat="46.94295" lon="-0.66223">
        <ele>143</ele>
        <time>2012-04-08T09:00:09Z</time>
      </trkpt>
      <trkpt lat="46.94297" lon="-0.66212">
        <ele>142.8</ele>
        <time>2012-04-08T09:00:10Z</time>
      </trkpt>
      <trkpt lat="46.94298" lon="-0.66201">
        <ele>142.6</ele>
        <time>2012-04-08T09:00:11Z</time>
      </trkpt>
      <trkpt lat="46.94299" lon="-0.66191">
        <ele>142.6</ele>
        <time>2012-04-08T09:00:12Z</time>
      </trkpt>
      <trkpt lat="46.94299" lon="-0.66181">
        <ele>142.3</ele>
        <time>2012-04-08T09:00:13Z</time>
      </trkpt>
      <trkpt lat="46.943" lon="-0.6617">
        <ele>142.1</ele>
        <time>2012-04-08T09:00:14Z</time>
      </trkpt>
      <trkpt lat="46.943" lon="-0.6616">
        <ele>142</ele>
        <time>2012-04-08T09:00:15Z</time>
      </trkpt>
      <trkpt lat="46.943" lon="-0.6615">
        <ele>141.8</ele>
        <time>2012-04-08T09:00:16Z</time>
      </trkpt>
      <trkpt lat="46.943" lon="-0.6614">
        <ele>141.8</ele>
        <time>2012-04-08T09:00:17Z</time>
      </trkpt>
      <trkpt lat="46.943" lon="-0.6613">
        <ele>141.6</ele>
        <time>2012-04-08T09:00:18Z</time>
      </trkpt>
      <trkpt lat="46.943" lon="-0.6612">
        <ele>141.6</ele>
        <time>2012-04-08T09:00:19Z</time>
      </trkpt>
      <trkpt lat="46.943" lon="-0.6611">
        <ele>141.6</ele>
        <time>2012-04-08T09:00:20Z</time>
      </trkpt>
      <trkpt lat="46.943" lon="-0.66101">
        <ele>141.6</ele>
        <time>2012-04-08T09:00:21Z</time>
      </trkpt>
      <trkpt lat="46.943" lon="-0.66092">
        <ele>141.6</ele>
        <time>2012-04-08T09:00:22Z</time>
      </trkpt>
      <trkpt lat="46.94301" lon="-0.66083">
        <ele>141.6</ele>
        <time>2012-04-08T09:00:23Z</time>
      </trkpt>
      <trkpt lat="46.94302" lon="-0.66073">
        <ele>141.3</ele>
        <time>2012-04-08T09:00:24Z</time>
      </trkpt>
      <trkpt lat="46.94303" lon="-0.66065">
        <ele>141.3</ele>
        <time>2012-04-08T09:00:25Z</time>
      </trkpt>
      <trkpt lat="46.94306" lon="-0.66056">
        <ele>141.1</ele>
        <time>2012-04-08T09:00:26Z</time>
      </trkpt>
      <trkpt lat="46.94309" lon="-0.66048">
        <ele>141</ele>
        <time>2012-04-08T09:00:27Z</time>
      </trkpt>
      <trkpt lat="46.9431" lon="-0.66039">
        <ele>140.8</ele>
        <time>2012-04-08T09:00:28Z</time>
      </trkpt>
      <trkpt lat="46.94311" lon="-0.66029">
        <ele>140.6</ele>
        <time>2012-04-08T09:00:29Z</time>
      </trkpt>
      <trkpt lat="46.94312" lon="-0.66019">
        <ele>140.3</ele>
        <time>2012-04-08T09:00:30Z</time>
      </trkpt>
      <trkpt lat="46.94312" lon="-0.6601">
        <ele>140.1</ele>
        <time>2012-04-08T09:00:31Z</time>
      </trkpt>
      <trkpt lat="46.94313" lon="-0.66">
        <ele>139.8</ele>
        <time>2012-04-08T09:00:32Z</time>
      </trkpt>
      <trkpt lat="46.94315" lon="-0.65992">
        <ele>139.5</ele>
        <time>2012-04-08T09:00:33Z</time>
      </trkpt>
      <trkpt lat="46.94317" lon="-0.65984">
        <ele>139.3</ele>
        <time>2012-04-08T09:00:34Z</time>
      </trkpt>
      <trkpt lat="46.94319" lon="-0.65976">
        <ele>139</ele>
        <time>2012-04-08T09:00:35Z</time>
      </trkpt>
      <trkpt lat="46.94321" lon="-0.65968">
        <ele>138.6</ele>
        <time>2012-04-08T09:00:36Z</time>
      </trkpt>
      <trkpt lat="46.94323" lon="-0.6596">
        <ele>138.3</ele>
        <time>2012-04-08T09:00:37Z</time>
      </trkpt>
      <trkpt lat="46.94325" lon="-0.65948">
        <ele>137.8</ele>
        <time>2012-04-08T09:00:39Z</time>
      </trkpt>
      <trkpt lat="46.94323" lon="-0.65937">
        <ele>137.8</ele>
        <time>2012-04-08T09:00:41Z</time>
      </trkpt>
      <trkpt lat="46.94321" lon="-0.65924">
        <ele>137.3</ele>
        <time>2012-04-08T09:00:43Z</time>
      </trkpt>
      <trkpt lat="46.94323" lon="-0.65917">
        <ele>137.1</ele>
        <time>2012-04-08T09:00:44Z</time>
      </trkpt>
      <trkpt lat="46.94326" lon="-0.65911">
        <ele>136.6</ele>
        <time>2012-04-08T09:00:45Z</time>
      </trkpt>
      <trkpt lat="46.94328" lon="-0.65905">
        <ele>136.3</ele>
        <time>2012-04-08T09:00:46Z</time>
      </trkpt>
      <trkpt lat="46.94331" lon="-0.65899">
        <ele>136.1</ele>
        <time>2012-04-08T09:00:47Z</time>
      </trkpt>
      <trkpt lat="46.94334" lon="-0.65893">
        <ele>136</ele>
        <time>2012-04-08T09:00:48Z</time>
      </trkpt>
      <trkpt lat="46.94336" lon="-0.65887">
        <ele>135.8</ele>
        <time>2012-04-08T09:00:49Z</time>
      </trkpt>
      <trkpt lat="46.94339" lon="-0.65881">
        <ele>135.8</ele>
        <time>2012-04-08T09:00:50Z</time>
      </trkpt>
      <trkpt lat="46.94342" lon="-0.65874">
        <ele>135.6</ele>
        <time>2012-04-08T09:00:51Z</time>
      </trkpt>
      <trkpt lat="46.94345" lon="-0.65867">
        <ele>135.6</ele>
        <time>2012-04-08T09:00:52Z</time>
      </trkpt>
      <trkpt lat="46.94349" lon="-0.6586">
        <ele>135.6</ele>
        <time>2012-04-08T09:00:53Z</time>
      </trkpt>
      <trkpt lat="46.94352" lon="-0.65853">
        <ele>135.5</ele>
        <time>2012-04-08T09:00:54Z</time>
      </trkpt>
      <trkpt lat="46.94356" lon="-0.65846">
        <ele>135.3</ele>
        <time>2012-04-08T09:00:55Z</time>
      </trkpt>
      <trkpt lat="46.94359" lon="-0.65839">
        <ele>135.1</ele>
        <time>2012-04-08T09:00:56Z</time>
      </trkpt>
      <trkpt lat="46.94363" lon="-0.65832">
        <ele>134.8</ele>
        <time>2012-04-08T09:00:57Z</time>
      </trkpt>
      <trkpt lat="46.94366" lon="-0.65825">
        <ele>134.6</ele>
        <time>2012-04-08T09:00:58Z</time>
      </trkpt>
      <trkpt lat="46.94369" lon="-0.65817">
        <ele>134.3</ele>
        <time>2012-04-08T09:00:59Z</time>
      </trkpt>
      <trkpt lat="46.94372" lon="-0.65809">
        <ele>134.1</ele>
        <time>2012-04-08T09:01:00Z</time>
      </trkpt>
      <trkpt lat="46.94375" lon="-0.65801">
        <ele>133.8</ele>
        <time>2012-04-08T09:01:01Z</time>
      </trkpt>
      <trkpt lat="46.94378" lon="-0.65793">
        <ele>133.6</ele>
        <time>2012-04-08T09:01:02Z</time>
      </trkpt>
      <trkpt lat="46.94381" lon="-0.65785">
        <ele>133.3</ele>
        <time>2012-04-08T09:01:03Z</time>
      </trkpt>
      <trkpt lat="46.94385" lon="-0.65778">
        <ele>133.1</ele>
        <time>2012-04-08T09:01:04Z</time>
      </trkpt>
      <trkpt lat="46.94389" lon="-0.65772">
        <ele>132.8</ele>
        <time>2012-04-08T09:01:05Z</time>
      </trkpt>
      <trkpt lat="46.94393" lon="-0.65766">
        <ele>132.3</ele>
        <time>2012-04-08T09:01:06Z</time>
      </trkpt>
      <trkpt lat="46.94398" lon="-0.6576">
        <ele>131.8</ele>
        <time>2012-04-08T09:01:07Z</time>
      </trkpt>
      <trkpt lat="46.94403" lon="-0.65755">
        <ele>131.3</ele>
        <time>2012-04-08T09:01:08Z</time>
      </trkpt>
      <trkpt lat="46.94408" lon="-0.65749">
        <ele>130.8</ele>
        <time>2012-04-08T09:01:09Z</time>
      </trkpt>
      <trkpt lat="46.94413" lon="-0.65744">
        <ele>130.5</ele>
        <time>2012-04-08T09:01:10Z</time>
      </trkpt>
      <trkpt lat="46.94419" lon="-0.6574">
        <ele>130.1</ele>
        <time>2012-04-08T09:01:11Z</time>
      </trkpt>
      <trkpt lat="46.94424" lon="-0.65736">
        <ele>129.8</ele>
        <time>2012-04-08T09:01:12Z</time>
      </trkpt>
      <trkpt lat="46.9443" lon="-0.65732">
        <ele>129.6</ele>
        <time>2012-04-08T09:01:13Z</time>
      </trkpt>
      <trkpt lat="46.94436" lon="-0.65728">
        <ele>129.5</ele>
        <time>2012-04-08T09:01:14Z</time>
      </trkpt>
      <trkpt lat="46.94442" lon="-0.65725">
        <ele>129.3</ele>
        <time>2012-04-08T09:01:15Z</time>
      </trkpt>
      <trkpt lat="46.94448" lon="-0.65722">
        <ele>129.3</ele>
        <time>2012-04-08T09:01:16Z</time>
      </trkpt>
      <trkpt lat="46.94454" lon="-0.6572">
        <ele>129.3</ele>
        <time>2012-04-08T09:01:17Z</time>
      </trkpt>
      <trkpt lat="46.9446" lon="-0.65717">
        <ele>129.1</ele>
        <time>2012-04-08T09:01:18Z</time>
      </trkpt>
      <trkpt lat="46.94465" lon="-0.65715">
        <ele>129.1</ele>
        <time>2012-04-08T09:01:19Z</time>
      </trkpt>
      <trkpt lat="46.94471" lon="-0.65713">
        <ele>129.1</ele>
        <time>2012-04-08T09:01:20Z</time>
      </trkpt>
      <trkpt lat="46.94477" lon="-0.65711">
        <ele>129.1</ele>
        <time>2012-04-08T09:01:21Z</time>
      </trkpt>
      <trkpt lat="46.94483" lon="-0.65708">
        <ele>129</ele>
        <time>2012-04-08T09:01:22Z</time>
      </trkpt>
      <trkpt lat="46.94489" lon="-0.65705">
        <ele>129</ele>
        <time>2012-04-08T09:01:23Z</time>
      </trkpt>
      <trkpt lat="46.94495" lon="-0.65702">
        <ele>129</ele>
        <time>2012-04-08T09:01:24Z</time>
      </trkpt>
      <trkpt lat="46.94501" lon="-0.65699">
        <ele>128.8</ele>
        <time>2012-04-08T09:01:25Z</time>
      </trkpt>
      <trkpt lat="46.94506" lon="-0.65696">
        <ele>128.8</ele>
        <time>2012-04-08T09:01:26Z</time>
      </trkpt>
      <trkpt lat="46.94511" lon="-0.65692">
        <ele>128.8</ele>
        <time>2012-04-08T09:01:27Z</time>
      </trkpt>
      <trkpt lat="46.94516" lon="-0.65688">
        <ele>128.8</ele>
        <time>2012-04-08T09:01:28Z</time>
      </trkpt>
      <trkpt lat="46.94521" lon="-0.65684">
        <ele>128.8</ele>
        <time>2012-04-08T09:01:29Z</time>
      </trkpt>
      <trkpt lat="46.94525" lon="-0.6568">
        <ele>128.8</ele>
        <time>2012-04-08T09:01:30Z</time>
      </trkpt>
      <trkpt lat="46.94531" lon="-0.65676">
        <ele>128.8</ele>
        <time>2012-04-08T09:01:31Z</time>
      </trkpt>
      <trkpt lat="46.94536" lon="-0.65673">
        <ele>128.8</ele>
        <time>2012-04-08T09:01:32Z</time>
      </trkpt>
      <trkpt lat="46.94542" lon="-0.6567">
        <ele>128.8</ele>
        <time>2012-04-08T09:01:33Z</time>
      </trkpt>
      <trkpt lat="46.94548" lon="-0.65666">
        <ele>128.8</ele>
        <time>2012-04-08T09:01:34Z</time>
      </trkpt>
      <trkpt lat="46.94554" lon="-0.65663">
        <ele>128.8</ele>
        <time>2012-04-08T09:01:35Z</time>
      </trkpt>
      <trkpt lat="46.94559" lon="-0.6566">
        <ele>128.8</ele>
        <time>2012-04-08T09:01:36Z</time>
      </trkpt>
      <trkpt lat="46.94565" lon="-0.65656">
        <ele>128.6</ele>
        <time>2012-04-08T09:01:37Z</time>
      </trkpt>
      <trkpt lat="46.9457" lon="-0.65652">
        <ele>128.6</ele>
        <time>2012-04-08T09:01:38Z</time>
      </trkpt>
      <trkpt lat="46.94575" lon="-0.65648">
        <ele>128.6</ele>
        <time>2012-04-08T09:01:39Z</time>
      </trkpt>
      <trkpt lat="46.9458" lon="-0.65643">
        <ele>128.5</ele>
        <time>2012-04-08T09:01:40Z</time>
      </trkpt>
      <trkpt lat="46.94585" lon="-0.65638">
        <ele>128.3</ele>
        <time>2012-04-08T09:01:41Z</time>
      </trkpt>
      <trkpt lat="46.9459" lon="-0.65633">
        <ele>128.3</ele>
        <time>2012-04-08T09:01:42Z</time>
      </trkpt>
      <trkpt lat="46.94596" lon="-0.65628">
        <ele>128.1</ele>
        <time>2012-04-08T09:01:43Z</time>
      </trkpt>
      <trkpt lat="46.94601" lon="-0.65622">
        <ele>128.1</ele>
        <time>2012-04-08T09:01:44Z</time>
      </trkpt>
      <trkpt lat="46.94606" lon="-0.65617">
        <ele>128</ele>
        <time>2012-04-08T09:01:45Z</time>
      </trkpt>
      <trkpt lat="46.94611" lon="-0.65612">
        <ele>127.8</ele>
        <time>2012-04-08T09:01:46Z</time>
      </trkpt>
      <trkpt lat="46.94616" lon="-0.65607">
        <ele>127.5</ele>
        <time>2012-04-08T09:01:47Z</time>
      </trkpt>
      <trkpt lat="46.9462" lon="-0.65602">
        <ele>127.3</ele>
        <time>2012-04-08T09:01:48Z</time>
      </trkpt>
      <trkpt lat="46.94625" lon="-0.65597">
        <ele>127</ele>
        <time>2012-04-08T09:01:49Z</time>
      </trkpt>
      <trkpt lat="46.9463" lon="-0.65592">
        <ele>126.9</ele>
        <time>2012-04-08T09:01:50Z</time>
      </trkpt>
      <trkpt lat="46.94635" lon="-0.65587">
        <ele>126.5</ele>
        <time>2012-04-08T09:01:51Z</time>
      </trkpt>
      <trkpt lat="46.9464" lon="-0.65581">
        <ele>126.5</ele>
        <time>2012-04-08T09:01:52Z</time>
      </trkpt>
      <trkpt lat="46.94644" lon="-0.65575">
        <ele>126.3</ele>
        <time>2012-04-08T09:01:53Z</time>
      </trkpt>
      <trkpt lat="46.94649" lon="-0.65569">
        <ele>126</ele>
        <time>2012-04-08T09:01:54Z</time>
      </trkpt>
      <trkpt lat="46.94653" lon="-0.65562">
        <ele>125.9</ele>
        <time>2012-04-08T09:01:55Z</time>
      </trkpt>
      <trkpt lat="46.94657" lon="-0.65555">
        <ele>125.5</ele>
        <time>2012-04-08T09:01:56Z</time>
      </trkpt>
      <trkpt lat="46.9466" lon="-0.65547">
        <ele>125.5</ele>
        <time>2012-04-08T09:01:57Z</time>
      </trkpt>
      <trkpt lat="46.94664" lon="-0.65539">
        <ele>125.4</ele>
        <time>2012-04-08T09:01:58Z</time>
      </trkpt>
      <trkpt lat="46.94668" lon="-0.65532">
        <ele>125.3</ele>
        <time>2012-04-08T09:01:59Z</time>
      </trkpt>
      <trkpt lat="46.94671" lon="-0.65524">
        <ele>125</ele>
        <time>2012-04-08T09:02:00Z</time>
      </trkpt>
      <trkpt lat="46.94675" lon="-0.65516">
        <ele>125</ele>
        <time>2012-04-08T09:02:01Z</time>
      </trkpt>
      <trkpt lat="46.94679" lon="-0.65509">
        <ele>124.8</ele>
        <time>2012-04-08T09:02:02Z</time>
      </trkpt>
      <trkpt lat="46.94682" lon="-0.65501">
        <ele>124.5</ele>
        <time>2012-04-08T09:02:03Z</time>
      </trkpt>
      <trkpt lat="46.94685" lon="-0.65493">
        <ele>124.5</ele>
        <time>2012-04-08T09:02:04Z</time>
      </trkpt>
      <trkpt lat="46.94688" lon="-0.65485">
        <ele>124.5</ele>
        <time>2012-04-08T09:02:05Z</time>
      </trkpt>
      <trkpt lat="46.94691" lon="-0.65476">
        <ele>124.3</ele>
        <time>2012-04-08T09:02:06Z</time>
      </trkpt>
      <trkpt lat="46.94693" lon="-0.65468">
        <ele>124</ele>
        <time>2012-04-08T09:02:07Z</time>
      </trkpt>
      <trkpt lat="46.94696" lon="-0.65459">
        <ele>124</ele>
        <time>2012-04-08T09:02:08Z</time>
      </trkpt>
      <trkpt lat="46.94699" lon="-0.65451">
        <ele>124</ele>
        <time>2012-04-08T09:02:09Z</time>
      </trkpt>
      <trkpt lat="46.94701" lon="-0.65443">
        <ele>124</ele>
        <time>2012-04-08T09:02:10Z</time>
      </trkpt>
      <trkpt lat="46.94703" lon="-0.65434">
        <ele>123.9</ele>
        <time>2012-04-08T09:02:11Z</time>
      </trkpt>
      <trkpt lat="46.94706" lon="-0.65426">
        <ele>123.5</ele>
        <time>2012-04-08T09:02:12Z</time>
      </trkpt>
      <trkpt lat="46.94708" lon="-0.65418">
        <ele>123.5</ele>
        <time>2012-04-08T09:02:13Z</time>
      </trkpt>
      <trkpt lat="46.9471" lon="-0.65409">
        <ele>123.5</ele>
        <time>2012-04-08T09:02:14Z</time>
      </trkpt>
      <trkpt lat="46.94712" lon="-0.65401">
        <ele>123.4</ele>
        <time>2012-04-08T09:02:15Z</time>
      </trkpt>
      <trkpt lat="46.94714" lon="-0.65393">
        <ele>123.3</ele>
        <time>2012-04-08T09:02:16Z</time>
      </trkpt>
      <trkpt lat="46.94716" lon="-0.65385">
        <ele>123</ele>
        <time>2012-04-08T09:02:17Z</time>
      </trkpt>
      <trkpt lat="46.94717" lon="-0.65378">
        <ele>123</ele>
        <time>2012-04-08T09:02:18Z</time>
      </trkpt>
      <trkpt lat="46.94719" lon="-0.65371">
        <ele>123</ele>
        <time>2012-04-08T09:02:19Z</time>
      </trkpt>
      <trkpt lat="46.94721" lon="-0.65364">
        <ele>123</ele>
        <time>2012-04-08T09:02:20Z</time>
      </trkpt>
      <trkpt lat="46.94723" lon="-0.65357">
        <ele>122.9</ele>
        <time>2012-04-08T09:02:21Z</time>
      </trkpt>
      <trkpt lat="46.94725" lon="-0.6535">
        <ele>122.5</ele>
        <time>2012-04-08T09:02:22Z</time>
      </trkpt>
      <trkpt lat="46.94727" lon="-0.65342">
        <ele>122.5</ele>
        <time>2012-04-08T09:02:23Z</time>
      </trkpt>
      <trkpt lat="46.94729" lon="-0.65335">
        <ele>122.4</ele>
        <time>2012-04-08T09:02:24Z</time>
      </trkpt>
      <trkpt lat="46.94731" lon="-0.65327">
        <ele>122.3</ele>
        <time>2012-04-08T09:02:25Z</time>
      </trkpt>
      <trkpt lat="46.94734" lon="-0.6532">
        <ele>122</ele>
        <time>2012-04-08T09:02:26Z</time>
      </trkpt>
      <trkpt lat="46.94737" lon="-0.65314">
        <ele>122</ele>
        <time>2012-04-08T09:02:27Z</time>
      </trkpt>
      <trkpt lat="46.9474" lon="-0.65307">
        <ele>122</ele>
        <time>2012-04-08T09:02:28Z</time>
      </trkpt>
      <trkpt lat="46.94743" lon="-0.65301">
        <ele>122</ele>
        <time>2012-04-08T09:02:29Z</time>
      </trkpt>
      <trkpt lat="46.94746" lon="-0.65295">
        <ele>122</ele>
        <time>2012-04-08T09:02:30Z</time>
      </trkpt>
      <trkpt lat="46.9475" lon="-0.65289">
        <ele>122</ele>
        <time>2012-04-08T09:02:31Z</time>
      </trkpt>
      <trkpt lat="46.94753" lon="-0.65283">
        <ele>122</ele>
        <time>2012-04-08T09:02:32Z</time>
      </trkpt>
      <trkpt lat="46.94757" lon="-0.65277">
        <ele>122</ele>
        <time>2012-04-08T09:02:33Z</time>
      </trkpt>
      <trkpt lat="46.9476" lon="-0.65272">
        <ele>122.3</ele>
        <time>2012-04-08T09:02:34Z</time>
      </trkpt>
      <trkpt lat="46.94764" lon="-0.65266">
        <ele>122.3</ele>
        <time>2012-04-08T09:02:35Z</time>
      </trkpt>
      <trkpt lat="46.94767" lon="-0.65261">
        <ele>122.4</ele>
        <time>2012-04-08T09:02:36Z</time>
      </trkpt>
      <trkpt lat="46.94771" lon="-0.65255">
        <ele>122.4</ele>
        <time>2012-04-08T09:02:37Z</time>
      </trkpt>
      <trkpt lat="46.94774" lon="-0.65249">
        <ele>122.5</ele>
        <time>2012-04-08T09:02:38Z</time>
      </trkpt>
      <trkpt lat="46.94778" lon="-0.65242">
        <ele>122.5</ele>
        <time>2012-04-08T09:02:39Z</time>
      </trkpt>
      <trkpt lat="46.94781" lon="-0.65236">
        <ele>122.9</ele>
        <time>2012-04-08T09:02:40Z</time>
      </trkpt>
      <trkpt lat="46.94783" lon="-0.65229">
        <ele>123</ele>
        <time>2012-04-08T09:02:41Z</time>
      </trkpt>
      <trkpt lat="46.94785" lon="-0.65221">
        <ele>123</ele>
        <time>2012-04-08T09:02:42Z</time>
      </trkpt>
      <trkpt lat="46.94786" lon="-0.65214">
        <ele>123</ele>
        <time>2012-04-08T09:02:43Z</time>
      </trkpt>
      <trkpt lat="46.94788" lon="-0.65208">
        <ele>123</ele>
        <time>2012-04-08T09:02:44Z</time>
      </trkpt>
      <trkpt lat="46.94792" lon="-0.65196">
        <ele>123</ele>
        <time>2012-04-08T09:02:46Z</time>
      </trkpt>
      <trkpt lat="46.94795" lon="-0.65185">
        <ele>123</ele>
        <time>2012-04-08T09:02:48Z</time>
      </trkpt>
      <trkpt lat="46.94798" lon="-0.65175">
        <ele>123</ele>
        <time>2012-04-08T09:02:50Z</time>
      </trkpt>
      <trkpt lat="46.94801" lon="-0.65167">
        <ele>123</ele>
        <time>2012-04-08T09:02:52Z</time>
      </trkpt>
      <trkpt lat="46.94803" lon="-0.65158">
        <ele>123</ele>
        <time>2012-04-08T09:02:55Z</time>
      </trkpt>
      <trkpt lat="46.94803" lon="-0.65149">
        <ele>123</ele>
        <time>2012-04-08T09:02:56Z</time>
      </trkpt>
      <trkpt lat="46.94798" lon="-0.65147">
        <ele>123</ele>
        <time>2012-04-08T09:02:57Z</time>
      </trkpt>
      <trkpt lat="46.94794" lon="-0.65147">
        <ele>123</ele>
        <time>2012-04-08T09:02:58Z</time>
      </trkpt>
      <trkpt lat="46.94788" lon="-0.65145">
        <ele>123.3</ele>
        <time>2012-04-08T09:02:59Z</time>
      </trkpt>
      <trkpt lat="46.94784" lon="-0.65141">
        <ele>123.4</ele>
        <time>2012-04-08T09:03:00Z</time>
      </trkpt>
      <trkpt lat="46.9478" lon="-0.65137">
        <ele>123.5</ele>
        <time>2012-04-08T09:03:01Z</time>
      </trkpt>
      <trkpt lat="46.94775" lon="-0.65134">
        <ele>123.5</ele>
        <time>2012-04-08T09:03:02Z</time>
      </trkpt>
      <trkpt lat="46.94768" lon="-0.65127">
        <ele>123.9</ele>
        <time>2012-04-08T09:03:04Z</time>
      </trkpt>
      <trkpt lat="46.94762" lon="-0.65123">
        <ele>123.9</ele>
        <time>2012-04-08T09:03:06Z</time>
      </trkpt>
      <trkpt lat="46.94753" lon="-0.65119">
        <ele>123.9</ele>
        <time>2012-04-08T09:03:10Z</time>
      </trkpt>
      <trkpt lat="46.94745" lon="-0.65115">
        <ele>123.8</ele>
        <time>2012-04-08T09:03:15Z</time>
      </trkpt>
      <trkpt lat="46.94743" lon="-0.65103">
        <ele>123.8</ele>
        <time>2012-04-08T09:03:18Z</time>
      </trkpt>
      <trkpt lat="46.94742" lon="-0.65094">
        <ele>123.5</ele>
        <time>2012-04-08T09:03:20Z</time>
      </trkpt>
      <trkpt lat="46.94739" lon="-0.65084">
        <ele>123.5</ele>
        <time>2012-04-08T09:03:22Z</time>
      </trkpt>
      <trkpt lat="46.94736" lon="-0.65074">
        <ele>123.5</ele>
        <time>2012-04-08T09:03:24Z</time>
      </trkpt>
      <trkpt lat="46.94735" lon="-0.65068">
        <ele>123.4</ele>
        <time>2012-04-08T09:03:25Z</time>
      </trkpt>
      <trkpt lat="46.94733" lon="-0.65062">
        <ele>123</ele>
        <time>2012-04-08T09:03:26Z</time>
      </trkpt>
      <trkpt lat="46.94731" lon="-0.65054">
        <ele>122.8</ele>
        <time>2012-04-08T09:03:27Z</time>
      </trkpt>
      <trkpt lat="46.94729" lon="-0.65047">
        <ele>122.8</ele>
        <time>2012-04-08T09:03:28Z</time>
      </trkpt>
      <trkpt lat="46.94726" lon="-0.6504">
        <ele>122.9</ele>
        <time>2012-04-08T09:03:29Z</time>
      </trkpt>
      <trkpt lat="46.94724" lon="-0.65032">
        <ele>123</ele>
        <time>2012-04-08T09:03:30Z</time>
      </trkpt>
      <trkpt lat="46.94722" lon="-0.65025">
        <ele>123</ele>
        <time>2012-04-08T09:03:31Z</time>
      </trkpt>
      <trkpt lat="46.94721" lon="-0.65017">
        <ele>123.3</ele>
        <time>2012-04-08T09:03:32Z</time>
      </trkpt>
      <trkpt lat="46.9472" lon="-0.6501">
        <ele>123.4</ele>
        <time>2012-04-08T09:03:33Z</time>
      </trkpt>
      <trkpt lat="46.9472" lon="-0.65002">
        <ele>123.5</ele>
        <time>2012-04-08T09:03:34Z</time>
      </trkpt>
      <trkpt lat="46.94719" lon="-0.64995">
        <ele>123.8</ele>
        <time>2012-04-08T09:03:35Z</time>
      </trkpt>
      <trkpt lat="46.94719" lon="-0.64987">
        <ele>124</ele>
        <time>2012-04-08T09:03:36Z</time>
      </trkpt>
      <trkpt lat="46.9472" lon="-0.6498">
        <ele>124.4</ele>
        <time>2012-04-08T09:03:37Z</time>
      </trkpt>
      <trkpt lat="46.9472" lon="-0.64972">
        <ele>124.5</ele>
        <time>2012-04-08T09:03:38Z</time>
      </trkpt>
      <trkpt lat="46.9472" lon="-0.64964">
        <ele>124.8</ele>
        <time>2012-04-08T09:03:39Z</time>
      </trkpt>
      <trkpt lat="46.9472" lon="-0.64956">
        <ele>125</ele>
        <time>2012-04-08T09:03:40Z</time>
      </trkpt>
      <trkpt lat="46.94719" lon="-0.64949">
        <ele>125</ele>
        <time>2012-04-08T09:03:41Z</time>
      </trkpt>
      <trkpt lat="46.94717" lon="-0.64942">
        <ele>125</ele>
        <time>2012-04-08T09:03:42Z</time>
      </trkpt>
      <trkpt lat="46.94715" lon="-0.64935">
        <ele>125</ele>
        <time>2012-04-08T09:03:43Z</time>
      </trkpt>
      <trkpt lat="46.94713" lon="-0.64927">
        <ele>125</ele>
        <time>2012-04-08T09:03:44Z</time>
      </trkpt>
      <trkpt lat="46.94712" lon="-0.6492">
        <ele>124.9</ele>
        <time>2012-04-08T09:03:45Z</time>
      </trkpt>
      <trkpt lat="46.94711" lon="-0.64913">
        <ele>124.8</ele>
        <time>2012-04-08T09:03:46Z</time>
      </trkpt>
      <trkpt lat="46.9471" lon="-0.64906">
        <ele>124.5</ele>
        <time>2012-04-08T09:03:47Z</time>
      </trkpt>
      <trkpt lat="46.94709" lon="-0.64898">
        <ele>124.3</ele>
        <time>2012-04-08T09:03:48Z</time>
      </trkpt>
      <trkpt lat="46.94708" lon="-0.6489">
        <ele>124</ele>
        <time>2012-04-08T09:03:49Z</time>
      </trkpt>
      <trkpt lat="46.94708" lon="-0.64881">
        <ele>123.5</ele>
        <time>2012-04-08T09:03:50Z</time>
      </trkpt>
      <trkpt lat="46.94709" lon="-0.64873">
        <ele>123.4</ele>
        <time>2012-04-08T09:03:51Z</time>
      </trkpt>
      <trkpt lat="46.94709" lon="-0.64865">
        <ele>123</ele>
        <time>2012-04-08T09:03:52Z</time>
      </trkpt>
      <trkpt lat="46.9471" lon="-0.64857">
        <ele>123</ele>
        <time>2012-04-08T09:03:53Z</time>
      </trkpt>
      <trkpt lat="46.94711" lon="-0.64849">
        <ele>122.9</ele>
        <time>2012-04-08T09:03:54Z</time>
      </trkpt>
      <trkpt lat="46.94712" lon="-0.64842">
        <ele>122.8</ele>
        <time>2012-04-08T09:03:55Z</time>
      </trkpt>
      <trkpt lat="46.94713" lon="-0.64835">
        <ele>122.5</ele>
        <time>2012-04-08T09:03:56Z</time>
      </trkpt>
      <trkpt lat="46.94716" lon="-0.64824">
        <ele>122.5</ele>
        <time>2012-04-08T09:03:58Z</time>
      </trkpt>
      <trkpt lat="46.94722" lon="-0.64817">
        <ele>122.5</ele>
        <time>2012-04-08T09:04:00Z</time>
      </trkpt>
      <trkpt lat="46.9473" lon="-0.64811">
        <ele>122.5</ele>
        <time>2012-04-08T09:04:03Z</time>
      </trkpt>
      <trkpt lat="46.94731" lon="-0.64798">
        <ele>122.9</ele>
        <time>2012-04-08T09:04:23Z</time>
      </trkpt>
      <trkpt lat="46.94724" lon="-0.64792">
        <ele>123</ele>
        <time>2012-04-08T09:04:26Z</time>
      </trkpt>
      <trkpt lat="46.94721" lon="-0.6479">
        <ele>123</ele>
        <time>2012-04-08T09:04:27Z</time>
      </trkpt>
      <trkpt lat="46.94712" lon="-0.64785">
        <ele>123.3</ele>
        <time>2012-04-08T09:04:30Z</time>
      </trkpt>
      <trkpt lat="46.94705" lon="-0.64782">
        <ele>123.5</ele>
        <time>2012-04-08T09:04:32Z</time>
      </trkpt>
      <trkpt lat="46.94698" lon="-0.64778">
        <ele>123.5</ele>
        <time>2012-04-08T09:04:34Z</time>
      </trkpt>
      <trkpt lat="46.94692" lon="-0.64775">
        <ele>123.5</ele>
        <time>2012-04-08T09:04:36Z</time>
      </trkpt>
      <trkpt lat="46.94686" lon="-0.64771">
        <ele>123.9</ele>
        <time>2012-04-08T09:04:38Z</time>
      </trkpt>
      <trkpt lat="46.9468" lon="-0.64768">
        <ele>124</ele>
        <time>2012-04-08T09:04:40Z</time>
      </trkpt>
      <trkpt lat="46.94674" lon="-0.64764">
        <ele>124</ele>
        <time>2012-04-08T09:04:42Z</time>
      </trkpt>
      <trkpt lat="46.94668" lon="-0.6476">
        <ele>124</ele>
        <time>2012-04-08T09:04:44Z</time>
      </trkpt>
      <trkpt lat="46.94661" lon="-0.64756">
        <ele>124.3</ele>
        <time>2012-04-08T09:04:46Z</time>
      </trkpt>
      <trkpt lat="46.94655" lon="-0.64752">
        <ele>124.5</ele>
        <time>2012-04-08T09:04:48Z</time>
      </trkpt>
      <trkpt lat="46.94648" lon="-0.64748">
        <ele>124.5</ele>
        <time>2012-04-08T09:04:50Z</time>
      </trkpt>
      <trkpt lat="46.94642" lon="-0.64744">
        <ele>124.5</ele>
        <time>2012-04-08T09:04:52Z</time>
      </trkpt>
      <trkpt lat="46.94635" lon="-0.6474">
        <ele>124.8</ele>
        <time>2012-04-08T09:04:54Z</time>
      </trkpt>
      <trkpt lat="46.94628" lon="-0.64736">
        <ele>125</ele>
        <time>2012-04-08T09:04:56Z</time>
      </trkpt>
      <trkpt lat="46.94621" lon="-0.64732">
        <ele>126</ele>
        <time>2012-04-08T09:04:58Z</time>
      </trkpt>
      <trkpt lat="46.94613" lon="-0.64727">
        <ele>126.9</ele>
        <time>2012-04-08T09:05:00Z</time>
      </trkpt>
      <trkpt lat="46.94606" lon="-0.64723">
        <ele>127.4</ele>
        <time>2012-04-08T09:05:02Z</time>
      </trkpt>
      <trkpt lat="46.946" lon="-0.6472">
        <ele>127.5</ele>
        <time>2012-04-08T09:05:04Z</time>
      </trkpt>
      <trkpt lat="46.94593" lon="-0.64717">
        <ele>127.5</ele>
        <time>2012-04-08T09:05:06Z</time>
      </trkpt>
      <trkpt lat="46.94587" lon="-0.64715">
        <ele>127.5</ele>
        <time>2012-04-08T09:05:08Z</time>
      </trkpt>
      <trkpt lat="46.94579" lon="-0.64712">
        <ele>127.8</ele>
        <time>2012-04-08T09:05:11Z</time>
      </trkpt>
      <trkpt lat="46.9457" lon="-0.6471">
        <ele>127.9</ele>
        <time>2012-04-08T09:05:14Z</time>
      </trkpt>
      <trkpt lat="46.94561" lon="-0.64709">
        <ele>128.1</ele>
        <time>2012-04-08T09:05:17Z</time>
      </trkpt>
      <trkpt lat="46.94553" lon="-0.6471">
        <ele>128.1</ele>
        <time>2012-04-08T09:05:20Z</time>
      </trkpt>
      <trkpt lat="46.94544" lon="-0.64711">
        <ele>128.3</ele>
        <time>2012-04-08T09:05:23Z</time>
      </trkpt>
      <trkpt lat="46.94536" lon="-0.64712">
        <ele>128.6</ele>
        <time>2012-04-08T09:05:26Z</time>
      </trkpt>
      <trkpt lat="46.94529" lon="-0.64715">
        <ele>128.8</ele>
        <time>2012-04-08T09:05:29Z</time>
      </trkpt>
      <trkpt lat="46.94526" lon="-0.64716">
        <ele>128.8</ele>
        <time>2012-04-08T09:05:30Z</time>
      </trkpt>
      <trkpt lat="46.94513" lon="-0.6472">
        <ele>129.1</ele>
        <time>2012-04-08T09:05:35Z</time>
      </trkpt>
      <trkpt lat="46.94505" lon="-0.64722">
        <ele>129.3</ele>
        <time>2012-04-08T09:05:38Z</time>
      </trkpt>
      <trkpt lat="46.94498" lon="-0.64725">
        <ele>129.6</ele>
        <time>2012-04-08T09:05:41Z</time>
      </trkpt>
      <trkpt lat="46.9449" lon="-0.64727">
        <ele>130</ele>
        <time>2012-04-08T09:05:44Z</time>
      </trkpt>
      <trkpt lat="46.94483" lon="-0.64729">
        <ele>130.1</ele>
        <time>2012-04-08T09:05:47Z</time>
      </trkpt>
      <trkpt lat="46.94476" lon="-0.64731">
        <ele>130.5</ele>
        <time>2012-04-08T09:05:50Z</time>
      </trkpt>
      <trkpt lat="46.94469" lon="-0.64732">
        <ele>130.8</ele>
        <time>2012-04-08T09:05:53Z</time>
      </trkpt>
      <trkpt lat="46.94462" lon="-0.64733">
        <ele>131</ele>
        <time>2012-04-08T09:05:56Z</time>
      </trkpt>
      <trkpt lat="46.94454" lon="-0.64734">
        <ele>131.3</ele>
        <time>2012-04-08T09:05:59Z</time>
      </trkpt>
      <trkpt lat="46.94447" lon="-0.64735">
        <ele>131.6</ele>
        <time>2012-04-08T09:06:02Z</time>
      </trkpt>
      <trkpt lat="46.9444" lon="-0.64735">
        <ele>131.8</ele>
        <time>2012-04-08T09:06:05Z</time>
      </trkpt>
      <trkpt lat="46.94432" lon="-0.64736">
        <ele>132.1</ele>
        <time>2012-04-08T09:06:08Z</time>
      </trkpt>
      <trkpt lat="46.94423" lon="-0.64737">
        <ele>132.5</ele>
        <time>2012-04-08T09:06:11Z</time>
      </trkpt>
      <trkpt lat="46.94415" lon="-0.64737">
        <ele>132.8</ele>
        <time>2012-04-08T09:06:14Z</time>
      </trkpt>
      <trkpt lat="46.94406" lon="-0.64738">
        <ele>133.1</ele>
        <time>2012-04-08T09:06:17Z</time>
      </trkpt>
      <trkpt lat="46.94397" lon="-0.64738">
        <ele>133.3</ele>
        <time>2012-04-08T09:06:20Z</time>
      </trkpt>
      <trkpt lat="46.94388" lon="-0.64738">
        <ele>133.6</ele>
        <time>2012-04-08T09:06:23Z</time>
      </trkpt>
      <trkpt lat="46.9438" lon="-0.64739">
        <ele>134.1</ele>
        <time>2012-04-08T09:06:26Z</time>
      </trkpt>
      <trkpt lat="46.94371" lon="-0.64739">
        <ele>134.3</ele>
        <time>2012-04-08T09:06:29Z</time>
      </trkpt>
      <trkpt lat="46.94363" lon="-0.6474">
        <ele>134.6</ele>
        <time>2012-04-08T09:06:32Z</time>
      </trkpt>
      <trkpt lat="46.9436" lon="-0.6474">
        <ele>134.6</ele>
        <time>2012-04-08T09:06:33Z</time>
      </trkpt>
      <trkpt lat="46.94345" lon="-0.64741">
        <ele>135.1</ele>
        <time>2012-04-08T09:06:38Z</time>
      </trkpt>
      <trkpt lat="46.94339" lon="-0.64742">
        <ele>135.3</ele>
        <time>2012-04-08T09:06:40Z</time>
      </trkpt>
      <trkpt lat="46.94333" lon="-0.64743">
        <ele>135.5</ele>
        <time>2012-04-08T09:06:42Z</time>
      </trkpt>
      <trkpt lat="46.94327" lon="-0.64743">
        <ele>135.6</ele>
        <time>2012-04-08T09:06:44Z</time>
      </trkpt>
      <trkpt lat="46.94318" lon="-0.64744">
        <ele>135.8</ele>
        <time>2012-04-08T09:06:47Z</time>
      </trkpt>
      <trkpt lat="46.94309" lon="-0.64746">
        <ele>136.1</ele>
        <time>2012-04-08T09:06:50Z</time>
      </trkpt>
      <trkpt lat="46.94303" lon="-0.64748">
        <ele>136.3</ele>
        <time>2012-04-08T09:06:52Z</time>
      </trkpt>
      <trkpt lat="46.94297" lon="-0.64749">
        <ele>136.5</ele>
        <time>2012-04-08T09:06:54Z</time>
      </trkpt>
      <trkpt lat="46.94291" lon="-0.64751">
        <ele>136.6</ele>
        <time>2012-04-08T09:06:56Z</time>
      </trkpt>
      <trkpt lat="46.94285" lon="-0.64753">
        <ele>136.8</ele>
        <time>2012-04-08T09:06:58Z</time>
      </trkpt>
      <trkpt lat="46.94279" lon="-0.64756">
        <ele>137</ele>
        <time>2012-04-08T09:07:00Z</time>
      </trkpt>
      <trkpt lat="46.94273" lon="-0.64759">
        <ele>137.1</ele>
        <time>2012-04-08T09:07:02Z</time>
      </trkpt>
      <trkpt lat="46.94266" lon="-0.64761">
        <ele>137.3</ele>
        <time>2012-04-08T09:07:04Z</time>
      </trkpt>
      <trkpt lat="46.9426" lon="-0.64764">
        <ele>137.5</ele>
        <time>2012-04-08T09:07:06Z</time>
      </trkpt>
      <trkpt lat="46.94254" lon="-0.64768">
        <ele>137.6</ele>
        <time>2012-04-08T09:07:08Z</time>
      </trkpt>
      <trkpt lat="46.94248" lon="-0.64772">
        <ele>137.8</ele>
        <time>2012-04-08T09:07:10Z</time>
      </trkpt>
      <trkpt lat="46.94242" lon="-0.64775">
        <ele>137.8</ele>
        <time>2012-04-08T09:07:12Z</time>
      </trkpt>
      <trkpt lat="46.94236" lon="-0.64779">
        <ele>138.1</ele>
        <time>2012-04-08T09:07:14Z</time>
      </trkpt>
      <trkpt lat="46.9423" lon="-0.64783">
        <ele>138.1</ele>
        <time>2012-04-08T09:07:16Z</time>
      </trkpt>
      <trkpt lat="46.94223" lon="-0.64787">
        <ele>138.3</ele>
        <time>2012-04-08T09:07:18Z</time>
      </trkpt>
      <trkpt lat="46.94217" lon="-0.64792">
        <ele>138.5</ele>
        <time>2012-04-08T09:07:20Z</time>
      </trkpt>
      <trkpt lat="46.9421" lon="-0.64796">
        <ele>138.6</ele>
        <time>2012-04-08T09:07:22Z</time>
      </trkpt>
      <trkpt lat="46.94203" lon="-0.64801">
        <ele>140.1</ele>
        <time>2012-04-08T09:07:24Z</time>
      </trkpt>
      <trkpt lat="46.94195" lon="-0.64806">
        <ele>141.1</ele>
        <time>2012-04-08T09:07:26Z</time>
      </trkpt>
      <trkpt lat="46.94188" lon="-0.64811">
        <ele>141.6</ele>
        <time>2012-04-08T09:07:28Z</time>
      </trkpt>
      <trkpt lat="46.94181" lon="-0.64815">
        <ele>142.1</ele>
        <time>2012-04-08T09:07:30Z</time>
      </trkpt>
      <trkpt lat="46.94173" lon="-0.6482">
        <ele>142.6</ele>
        <time>2012-04-08T09:07:32Z</time>
      </trkpt>
      <trkpt lat="46.94169" lon="-0.64823">
        <ele>142.6</ele>
        <time>2012-04-08T09:07:33Z</time>
      </trkpt>
      <trkpt lat="46.94164" lon="-0.64825">
        <ele>142.8</ele>
        <time>2012-04-08T09:07:34Z</time>
      </trkpt>
      <trkpt lat="46.9416" lon="-0.64828">
        <ele>142.8</ele>
        <time>2012-04-08T09:07:35Z</time>
      </trkpt>
      <trkpt lat="46.94156" lon="-0.64831">
        <ele>143</ele>
        <time>2012-04-08T09:07:36Z</time>
      </trkpt>
      <trkpt lat="46.94152" lon="-0.64834">
        <ele>143.1</ele>
        <time>2012-04-08T09:07:37Z</time>
      </trkpt>
      <trkpt lat="46.94147" lon="-0.64837">
        <ele>143.1</ele>
        <time>2012-04-08T09:07:38Z</time>
      </trkpt>
      <trkpt lat="46.94143" lon="-0.6484">
        <ele>143.3</ele>
        <time>2012-04-08T09:07:39Z</time>
      </trkpt>
      <trkpt lat="46.94138" lon="-0.64843">
        <ele>143.3</ele>
        <time>2012-04-08T09:07:40Z</time>
      </trkpt>
      <trkpt lat="46.94134" lon="-0.64845">
        <ele>143.5</ele>
        <time>2012-04-08T09:07:41Z</time>
      </trkpt>
      <trkpt lat="46.94129" lon="-0.64848">
        <ele>143.6</ele>
        <time>2012-04-08T09:07:42Z</time>
      </trkpt>
      <trkpt lat="46.94125" lon="-0.64851">
        <ele>143.6</ele>
        <time>2012-04-08T09:07:43Z</time>
      </trkpt>
      <trkpt lat="46.94117" lon="-0.64856">
        <ele>143.8</ele>
        <time>2012-04-08T09:07:45Z</time>
      </trkpt>
      <trkpt lat="46.94111" lon="-0.64863">
        <ele>143.8</ele>
        <time>2012-04-08T09:07:47Z</time>
      </trkpt>
      <trkpt lat="46.94106" lon="-0.64871">
        <ele>143.8</ele>
        <time>2012-04-08T09:07:49Z</time>
      </trkpt>
      <trkpt lat="46.94101" lon="-0.64876">
        <ele>143.8</ele>
        <time>2012-04-08T09:07:51Z</time>
      </trkpt>
      <trkpt lat="46.94093" lon="-0.64873">
        <ele>143.8</ele>
        <time>2012-04-08T09:07:53Z</time>
      </trkpt>
      <trkpt lat="46.94089" lon="-0.64869">
        <ele>143.6</ele>
        <time>2012-04-08T09:07:54Z</time>
      </trkpt>
      <trkpt lat="46.94085" lon="-0.64865">
        <ele>143.6</ele>
        <time>2012-04-08T09:07:55Z</time>
      </trkpt>
      <trkpt lat="46.94081" lon="-0.6486">
        <ele>143.6</ele>
        <time>2012-04-08T09:07:56Z</time>
      </trkpt>
      <trkpt lat="46.94077" lon="-0.64855">
        <ele>143.6</ele>
        <time>2012-04-08T09:07:57Z</time>
      </trkpt>
      <trkpt lat="46.94072" lon="-0.64849">
        <ele>143.5</ele>
        <time>2012-04-08T09:07:58Z</time>
      </trkpt>
      <trkpt lat="46.94068" lon="-0.64844">
        <ele>143.5</ele>
        <time>2012-04-08T09:07:59Z</time>
      </trkpt>
      <trkpt lat="46.94063" lon="-0.64839">
        <ele>143.5</ele>
        <time>2012-04-08T09:08:00Z</time>
      </trkpt>
      <trkpt lat="46.94059" lon="-0.64833">
        <ele>143.3</ele>
        <time>2012-04-08T09:08:01Z</time>
      </trkpt>
      <trkpt lat="46.94054" lon="-0.64827">
        <ele>143.5</ele>
        <time>2012-04-08T09:08:02Z</time>
      </trkpt>
      <trkpt lat="46.94049" lon="-0.64821">
        <ele>143.5</ele>
        <time>2012-04-08T09:08:03Z</time>
      </trkpt>
      <trkpt lat="46.94044" lon="-0.64814">
        <ele>143.6</ele>
        <time>2012-04-08T09:08:04Z</time>
      </trkpt>
      <trkpt lat="46.94039" lon="-0.64808">
        <ele>143.6</ele>
        <time>2012-04-08T09:08:05Z</time>
      </trkpt>
      <trkpt lat="46.94034" lon="-0.64802">
        <ele>143.6</ele>
        <time>2012-04-08T09:08:06Z</time>
      </trkpt>
      <trkpt lat="46.94028" lon="-0.64795">
        <ele>143.6</ele>
        <time>2012-04-08T09:08:07Z</time>
      </trkpt>
      <trkpt lat="46.94023" lon="-0.64789">
        <ele>143.6</ele>
        <time>2012-04-08T09:08:08Z</time>
      </trkpt>
      <trkpt lat="46.94019" lon="-0.64784">
        <ele>143.6</ele>
        <time>2012-04-08T09:08:09Z</time>
      </trkpt>
      <trkpt lat="46.94013" lon="-0.64781">
        <ele>143.6</ele>
        <time>2012-04-08T09:08:10Z</time>
      </trkpt>
      <trkpt lat="46.94008" lon="-0.64781">
        <ele>143.6</ele>
        <time>2012-04-08T09:08:11Z</time>
      </trkpt>
      <trkpt lat="46.94003" lon="-0.64783">
        <ele>143.6</ele>
        <time>2012-04-08T09:08:12Z</time>
      </trkpt>
      <trkpt lat="46.93998" lon="-0.64787">
        <ele>143.3</ele>
        <time>2012-04-08T09:08:13Z</time>
      </trkpt>
      <trkpt lat="46.93994" lon="-0.64792">
        <ele>143.1</ele>
        <time>2012-04-08T09:08:14Z</time>
      </trkpt>
      <trkpt lat="46.93991" lon="-0.64798">
        <ele>143.1</ele>
        <time>2012-04-08T09:08:15Z</time>
      </trkpt>
      <trkpt lat="46.93989" lon="-0.64805">
        <ele>143</ele>
        <time>2012-04-08T09:08:16Z</time>
      </trkpt>
      <trkpt lat="46.93986" lon="-0.64812">
        <ele>142.8</ele>
        <time>2012-04-08T09:08:17Z</time>
      </trkpt>
      <trkpt lat="46.93984" lon="-0.64818">
        <ele>142.8</ele>
        <time>2012-04-08T09:08:18Z</time>
      </trkpt>
      <trkpt lat="46.93982" lon="-0.64825">
        <ele>142.6</ele>
        <time>2012-04-08T09:08:19Z</time>
      </trkpt>
      <trkpt lat="46.9398" lon="-0.64832">
        <ele>142.6</ele>
        <time>2012-04-08T09:08:20Z</time>
      </trkpt>
      <trkpt lat="46.93978" lon="-0.64839">
        <ele>142.5</ele>
        <time>2012-04-08T09:08:21Z</time>
      </trkpt>
      <trkpt lat="46.93976" lon="-0.64846">
        <ele>142.5</ele>
        <time>2012-04-08T09:08:22Z</time>
      </trkpt>
      <trkpt lat="46.93973" lon="-0.64852">
        <ele>142.3</ele>
        <time>2012-04-08T09:08:23Z</time>
      </trkpt>
      <trkpt lat="46.9397" lon="-0.64858">
        <ele>142.3</ele>
        <time>2012-04-08T09:08:24Z</time>
      </trkpt>
      <trkpt lat="46.93966" lon="-0.64863">
        <ele>142.3</ele>
        <time>2012-04-08T09:08:25Z</time>
      </trkpt>
      <trkpt lat="46.93963" lon="-0.64868">
        <ele>142.3</ele>
        <time>2012-04-08T09:08:26Z</time>
      </trkpt>
      <trkpt lat="46.93959" lon="-0.64873">
        <ele>142.3</ele>
        <time>2012-04-08T09:08:27Z</time>
      </trkpt>
      <trkpt lat="46.93956" lon="-0.64878">
        <ele>142.3</ele>
        <time>2012-04-08T09:08:28Z</time>
      </trkpt>
      <trkpt lat="46.93953" lon="-0.64884">
        <ele>142.5</ele>
        <time>2012-04-08T09:08:29Z</time>
      </trkpt>
      <trkpt lat="46.9395" lon="-0.6489">
        <ele>142.6</ele>
        <time>2012-04-08T09:08:30Z</time>
      </trkpt>
      <trkpt lat="46.93947" lon="-0.64901">
        <ele>142.6</ele>
        <time>2012-04-08T09:08:32Z</time>
      </trkpt>
      <trkpt lat="46.93942" lon="-0.64911">
        <ele>142.8</ele>
        <time>2012-04-08T09:08:34Z</time>
      </trkpt>
      <trkpt lat="46.93939" lon="-0.64915">
        <ele>142.8</ele>
        <time>2012-04-08T09:08:35Z</time>
      </trkpt>
      <trkpt lat="46.93931" lon="-0.64923">
        <ele>143.1</ele>
        <time>2012-04-08T09:08:37Z</time>
      </trkpt>
      <trkpt lat="46.93927" lon="-0.64928">
        <ele>143.1</ele>
        <time>2012-04-08T09:08:38Z</time>
      </trkpt>
      <trkpt lat="46.93924" lon="-0.64932">
        <ele>143.1</ele>
        <time>2012-04-08T09:08:39Z</time>
      </trkpt>
      <trkpt lat="46.9392" lon="-0.64937">
        <ele>143.1</ele>
        <time>2012-04-08T09:08:40Z</time>
      </trkpt>
      <trkpt lat="46.93916" lon="-0.64942">
        <ele>143.1</ele>
        <time>2012-04-08T09:08:41Z</time>
      </trkpt>
      <trkpt lat="46.93913" lon="-0.64946">
        <ele>143.1</ele>
        <time>2012-04-08T09:08:42Z</time>
      </trkpt>
      <trkpt lat="46.93909" lon="-0.6495">
        <ele>143.1</ele>
        <time>2012-04-08T09:08:43Z</time>
      </trkpt>
      <trkpt lat="46.93905" lon="-0.64954">
        <ele>143.1</ele>
        <time>2012-04-08T09:08:44Z</time>
      </trkpt>
      <trkpt lat="46.93901" lon="-0.64959">
        <ele>143.1</ele>
        <time>2012-04-08T09:08:45Z</time>
      </trkpt>
      <trkpt lat="46.93897" lon="-0.64963">
        <ele>143.1</ele>
        <time>2012-04-08T09:08:46Z</time>
      </trkpt>
      <trkpt lat="46.93893" lon="-0.64967">
        <ele>143.1</ele>
        <time>2012-04-08T09:08:47Z</time>
      </trkpt>
      <trkpt lat="46.93889" lon="-0.6497">
        <ele>143</ele>
        <time>2012-04-08T09:08:48Z</time>
      </trkpt>
      <trkpt lat="46.93885" lon="-0.64974">
        <ele>143</ele>
        <time>2012-04-08T09:08:49Z</time>
      </trkpt>
      <trkpt lat="46.93881" lon="-0.64978">
        <ele>143</ele>
        <time>2012-04-08T09:08:50Z</time>
      </trkpt>
      <trkpt lat="46.93877" lon="-0.64981">
        <ele>143.1</ele>
        <time>2012-04-08T09:08:51Z</time>
      </trkpt>
      <trkpt lat="46.93873" lon="-0.64984">
        <ele>143.1</ele>
        <time>2012-04-08T09:08:52Z</time>
      </trkpt>
      <trkpt lat="46.93866" lon="-0.64991">
        <ele>143.5</ele>
        <time>2012-04-08T09:08:54Z</time>
      </trkpt>
      <trkpt lat="46.9386" lon="-0.65">
        <ele>143.6</ele>
        <time>2012-04-08T09:08:56Z</time>
      </trkpt>
      <trkpt lat="46.93856" lon="-0.65007">
        <ele>143.6</ele>
        <time>2012-04-08T09:08:58Z</time>
      </trkpt>
      <trkpt lat="46.9385" lon="-0.65017">
        <ele>143.8</ele>
        <time>2012-04-08T09:09:02Z</time>
      </trkpt>
      <trkpt lat="46.93845" lon="-0.65027">
        <ele>143.8</ele>
        <time>2012-04-08T09:09:05Z</time>
      </trkpt>
      <trkpt lat="46.9384" lon="-0.65037">
        <ele>143.8</ele>
        <time>2012-04-08T09:09:08Z</time>
      </trkpt>
      <trkpt lat="46.93836" lon="-0.65046">
        <ele>143.8</ele>
        <time>2012-04-08T09:09:11Z</time>
      </trkpt>
      <trkpt lat="46.93831" lon="-0.65056">
        <ele>144</ele>
        <time>2012-04-08T09:09:14Z</time>
      </trkpt>
      <trkpt lat="46.93826" lon="-0.65066">
        <ele>144.1</ele>
        <time>2012-04-08T09:09:17Z</time>
      </trkpt>
      <trkpt lat="46.93822" lon="-0.65073">
        <ele>144.1</ele>
        <time>2012-04-08T09:09:19Z</time>
      </trkpt>
      <trkpt lat="46.93818" lon="-0.6508">
        <ele>144.1</ele>
        <time>2012-04-08T09:09:21Z</time>
      </trkpt>
      <trkpt lat="46.93814" lon="-0.65087">
        <ele>144.1</ele>
        <time>2012-04-08T09:09:23Z</time>
      </trkpt>
      <trkpt lat="46.93809" lon="-0.65097">
        <ele>144.3</ele>
        <time>2012-04-08T09:09:26Z</time>
      </trkpt>
      <trkpt lat="46.93805" lon="-0.65106">
        <ele>144.3</ele>
        <time>2012-04-08T09:09:29Z</time>
      </trkpt>
      <trkpt lat="46.938" lon="-0.65116">
        <ele>144.3</ele>
        <time>2012-04-08T09:09:32Z</time>
      </trkpt>
      <trkpt lat="46.93796" lon="-0.65124">
        <ele>144.5</ele>
        <time>2012-04-08T09:09:35Z</time>
      </trkpt>
      <trkpt lat="46.93795" lon="-0.65127">
        <ele>144.5</ele>
        <time>2012-04-08T09:09:36Z</time>
      </trkpt>
      <trkpt lat="46.93787" lon="-0.65141">
        <ele>144.6</ele>
        <time>2012-04-08T09:09:41Z</time>
      </trkpt>
      <trkpt lat="46.93782" lon="-0.6515">
        <ele>144.6</ele>
        <time>2012-04-08T09:09:44Z</time>
      </trkpt>
      <trkpt lat="46.93776" lon="-0.65158">
        <ele>144.8</ele>
        <time>2012-04-08T09:09:47Z</time>
      </trkpt>
      <trkpt lat="46.93771" lon="-0.65166">
        <ele>144.8</ele>
        <time>2012-04-08T09:09:50Z</time>
      </trkpt>
      <trkpt lat="46.93766" lon="-0.65173">
        <ele>144.8</ele>
        <time>2012-04-08T09:09:53Z</time>
      </trkpt>
      <trkpt lat="46.93761" lon="-0.65182">
        <ele>145.1</ele>
        <time>2012-04-08T09:09:57Z</time>
      </trkpt>
      <trkpt lat="46.93756" lon="-0.65191">
        <ele>145.3</ele>
        <time>2012-04-08T09:10:01Z</time>
      </trkpt>
      <trkpt lat="46.93749" lon="-0.65201">
        <ele>145.5</ele>
        <time>2012-04-08T09:10:05Z</time>
      </trkpt>
      <trkpt lat="46.93744" lon="-0.65209">
        <ele>145.6</ele>
        <time>2012-04-08T09:10:08Z</time>
      </trkpt>
      <trkpt lat="46.93738" lon="-0.65216">
        <ele>145.6</ele>
        <time>2012-04-08T09:10:11Z</time>
      </trkpt>
      <trkpt lat="46.93732" lon="-0.65225">
        <ele>145.8</ele>
        <time>2012-04-08T09:10:14Z</time>
      </trkpt>
      <trkpt lat="46.93727" lon="-0.65233">
        <ele>145.8</ele>
        <time>2012-04-08T09:10:17Z</time>
      </trkpt>
      <trkpt lat="46.93722" lon="-0.65242">
        <ele>146</ele>
        <time>2012-04-08T09:10:20Z</time>
      </trkpt>
      <trkpt lat="46.93717" lon="-0.65249">
        <ele>146.1</ele>
        <time>2012-04-08T09:10:23Z</time>
      </trkpt>
      <trkpt lat="46.93712" lon="-0.65256">
        <ele>146.1</ele>
        <time>2012-04-08T09:10:26Z</time>
      </trkpt>
      <trkpt lat="46.93707" lon="-0.65265">
        <ele>146.3</ele>
        <time>2012-04-08T09:10:30Z</time>
      </trkpt>
      <trkpt lat="46.93702" lon="-0.65273">
        <ele>146.6</ele>
        <time>2012-04-08T09:10:34Z</time>
      </trkpt>
      <trkpt lat="46.93697" lon="-0.65282">
        <ele>146.8</ele>
        <time>2012-04-08T09:10:38Z</time>
      </trkpt>
      <trkpt lat="46.93695" lon="-0.65285">
        <ele>146.8</ele>
        <time>2012-04-08T09:10:39Z</time>
      </trkpt>
      <trkpt lat="46.93686" lon="-0.653">
        <ele>147.3</ele>
        <time>2012-04-08T09:10:45Z</time>
      </trkpt>
      <trkpt lat="46.93681" lon="-0.65308">
        <ele>147.6</ele>
        <time>2012-04-08T09:10:49Z</time>
      </trkpt>
      <trkpt lat="46.93676" lon="-0.65316">
        <ele>147.6</ele>
        <time>2012-04-08T09:10:52Z</time>
      </trkpt>
      <trkpt lat="46.9367" lon="-0.65326">
        <ele>147.8</ele>
        <time>2012-04-08T09:10:55Z</time>
      </trkpt>
      <trkpt lat="46.93666" lon="-0.65333">
        <ele>148</ele>
        <time>2012-04-08T09:10:57Z</time>
      </trkpt>
      <trkpt lat="46.93662" lon="-0.6534">
        <ele>148.1</ele>
        <time>2012-04-08T09:10:59Z</time>
      </trkpt>
      <trkpt lat="46.93658" lon="-0.65346">
        <ele>148.1</ele>
        <time>2012-04-08T09:11:01Z</time>
      </trkpt>
      <trkpt lat="46.93654" lon="-0.65353">
        <ele>148.3</ele>
        <time>2012-04-08T09:11:03Z</time>
      </trkpt>
      <trkpt lat="46.9365" lon="-0.65359">
        <ele>148.5</ele>
        <time>2012-04-08T09:11:05Z</time>
      </trkpt>
      <trkpt lat="46.93644" lon="-0.65369">
        <ele>148.6</ele>
        <time>2012-04-08T09:11:08Z</time>
      </trkpt>
      <trkpt lat="46.93638" lon="-0.65378">
        <ele>148.8</ele>
        <time>2012-04-08T09:11:11Z</time>
      </trkpt>
      <trkpt lat="46.93633" lon="-0.65387">
        <ele>149.1</ele>
        <time>2012-04-08T09:11:14Z</time>
      </trkpt>
      <trkpt lat="46.93627" lon="-0.65397">
        <ele>149.1</ele>
        <time>2012-04-08T09:11:17Z</time>
      </trkpt>
      <trkpt lat="46.93623" lon="-0.65403">
        <ele>149.3</ele>
        <time>2012-04-08T09:11:19Z</time>
      </trkpt>
      <trkpt lat="46.93619" lon="-0.65411">
        <ele>149.3</ele>
        <time>2012-04-08T09:11:21Z</time>
      </trkpt>
      <trkpt lat="46.93615" lon="-0.65418">
        <ele>149.5</ele>
        <time>2012-04-08T09:11:23Z</time>
      </trkpt>
      <trkpt lat="46.9361" lon="-0.65424">
        <ele>149.5</ele>
        <time>2012-04-08T09:11:25Z</time>
      </trkpt>
      <trkpt lat="46.93604" lon="-0.65434">
        <ele>149.6</ele>
        <time>2012-04-08T09:11:28Z</time>
      </trkpt>
      <trkpt lat="46.93599" lon="-0.65444">
        <ele>149.6</ele>
        <time>2012-04-08T09:11:31Z</time>
      </trkpt>
      <trkpt lat="46.93593" lon="-0.65453">
        <ele>149.8</ele>
        <time>2012-04-08T09:11:34Z</time>
      </trkpt>
      <trkpt lat="46.93589" lon="-0.65463">
        <ele>149.8</ele>
        <time>2012-04-08T09:11:37Z</time>
      </trkpt>
      <trkpt lat="46.93585" lon="-0.65472">
        <ele>150.1</ele>
        <time>2012-04-08T09:11:40Z</time>
      </trkpt>
      <trkpt lat="46.93583" lon="-0.65475">
        <ele>150.1</ele>
        <time>2012-04-08T09:11:41Z</time>
      </trkpt>
      <trkpt lat="46.93576" lon="-0.6549">
        <ele>150.6</ele>
        <time>2012-04-08T09:11:46Z</time>
      </trkpt>
      <trkpt lat="46.93572" lon="-0.65499">
        <ele>150.8</ele>
        <time>2012-04-08T09:11:49Z</time>
      </trkpt>
      <trkpt lat="46.93567" lon="-0.6551">
        <ele>151.3</ele>
        <time>2012-04-08T09:11:53Z</time>
      </trkpt>
      <trkpt lat="46.93559" lon="-0.65511">
        <ele>151.6</ele>
        <time>2012-04-08T09:11:57Z</time>
      </trkpt>
      <trkpt lat="46.93553" lon="-0.65504">
        <ele>151.8</ele>
        <time>2012-04-08T09:12:01Z</time>
      </trkpt>
      <trkpt lat="46.93549" lon="-0.65496">
        <ele>152.1</ele>
        <time>2012-04-08T09:12:04Z</time>
      </trkpt>
      <trkpt lat="46.93544" lon="-0.65486">
        <ele>152.3</ele>
        <time>2012-04-08T09:12:07Z</time>
      </trkpt>
      <trkpt lat="46.9354" lon="-0.65479">
        <ele>152.3</ele>
        <time>2012-04-08T09:12:09Z</time>
      </trkpt>
      <trkpt lat="46.93536" lon="-0.65472">
        <ele>152.1</ele>
        <time>2012-04-08T09:12:11Z</time>
      </trkpt>
      <trkpt lat="46.93532" lon="-0.65465">
        <ele>152.1</ele>
        <time>2012-04-08T09:12:13Z</time>
      </trkpt>
      <trkpt lat="46.93526" lon="-0.65457">
        <ele>152.1</ele>
        <time>2012-04-08T09:12:16Z</time>
      </trkpt>
      <trkpt lat="46.93519" lon="-0.6545">
        <ele>152.1</ele>
        <time>2012-04-08T09:12:19Z</time>
      </trkpt>
      <trkpt lat="46.93511" lon="-0.65445">
        <ele>152.1</ele>
        <time>2012-04-08T09:12:22Z</time>
      </trkpt>
      <trkpt lat="46.93505" lon="-0.65442">
        <ele>152.3</ele>
        <time>2012-04-08T09:12:24Z</time>
      </trkpt>
      <trkpt lat="46.93499" lon="-0.65439">
        <ele>152.3</ele>
        <time>2012-04-08T09:12:26Z</time>
      </trkpt>
      <trkpt lat="46.93494" lon="-0.65431">
        <ele>152.5</ele>
        <time>2012-04-08T09:12:28Z</time>
      </trkpt>
      <trkpt lat="46.9349" lon="-0.65421">
        <ele>152.6</ele>
        <time>2012-04-08T09:12:30Z</time>
      </trkpt>
      <trkpt lat="46.93487" lon="-0.6541">
        <ele>153</ele>
        <time>2012-04-08T09:12:32Z</time>
      </trkpt>
      <trkpt lat="46.93485" lon="-0.65399">
        <ele>153.1</ele>
        <time>2012-04-08T09:12:34Z</time>
      </trkpt>
      <trkpt lat="46.93484" lon="-0.65388">
        <ele>153.5</ele>
        <time>2012-04-08T09:12:36Z</time>
      </trkpt>
      <trkpt lat="46.93482" lon="-0.65379">
        <ele>153.8</ele>
        <time>2012-04-08T09:12:38Z</time>
      </trkpt>
      <trkpt lat="46.93478" lon="-0.65369">
        <ele>154</ele>
        <time>2012-04-08T09:12:40Z</time>
      </trkpt>
      <trkpt lat="46.93474" lon="-0.6536">
        <ele>154.3</ele>
        <time>2012-04-08T09:12:42Z</time>
      </trkpt>
      <trkpt lat="46.93472" lon="-0.65355">
        <ele>154.5</ele>
        <time>2012-04-08T09:12:43Z</time>
      </trkpt>
      <trkpt lat="46.93467" lon="-0.65341">
        <ele>154.8</ele>
        <time>2012-04-08T09:12:46Z</time>
      </trkpt>
      <trkpt lat="46.93462" lon="-0.65332">
        <ele>155.3</ele>
        <time>2012-04-08T09:12:48Z</time>
      </trkpt>
      <trkpt lat="46.93459" lon="-0.65323">
        <ele>155.6</ele>
        <time>2012-04-08T09:12:50Z</time>
      </trkpt>
      <trkpt lat="46.93455" lon="-0.65314">
        <ele>155.8</ele>
        <time>2012-04-08T09:12:52Z</time>
      </trkpt>
      <trkpt lat="46.93451" lon="-0.65304">
        <ele>156.1</ele>
        <time>2012-04-08T09:12:54Z</time>
      </trkpt>
      <trkpt lat="46.93446" lon="-0.65294">
        <ele>156.3</ele>
        <time>2012-04-08T09:12:56Z</time>
      </trkpt>
      <trkpt lat="46.93442" lon="-0.65284">
        <ele>156.6</ele>
        <time>2012-04-08T09:12:58Z</time>
      </trkpt>
      <trkpt lat="46.93438" lon="-0.65275">
        <ele>156.8</ele>
        <time>2012-04-08T09:13:00Z</time>
      </trkpt>
      <trkpt lat="46.93435" lon="-0.65267">
        <ele>157.1</ele>
        <time>2012-04-08T09:13:02Z</time>
      </trkpt>
      <trkpt lat="46.93432" lon="-0.65259">
        <ele>157.3</ele>
        <time>2012-04-08T09:13:04Z</time>
      </trkpt>
      <trkpt lat="46.93427" lon="-0.65248">
        <ele>157.6</ele>
        <time>2012-04-08T09:13:07Z</time>
      </trkpt>
      <trkpt lat="46.93425" lon="-0.6524">
        <ele>157.6</ele>
        <time>2012-04-08T09:13:09Z</time>
      </trkpt>
      <trkpt lat="46.93423" lon="-0.65231">
        <ele>157.8</ele>
        <time>2012-04-08T09:13:11Z</time>
      </trkpt>
      <trkpt lat="46.93422" lon="-0.65219">
        <ele>158.1</ele>
        <time>2012-04-08T09:13:13Z</time>
      </trkpt>
      <trkpt lat="46.93423" lon="-0.65207">
        <ele>159.8</ele>
        <time>2012-04-08T09:13:15Z</time>
      </trkpt>
      <trkpt lat="46.93423" lon="-0.65196">
        <ele>160</ele>
        <time>2012-04-08T09:13:17Z</time>
      </trkpt>
      <trkpt lat="46.93423" lon="-0.65186">
        <ele>160.1</ele>
        <time>2012-04-08T09:13:19Z</time>
      </trkpt>
      <trkpt lat="46.93423" lon="-0.65173">
        <ele>160.3</ele>
        <time>2012-04-08T09:13:25Z</time>
      </trkpt>
      <trkpt lat="46.93427" lon="-0.65161">
        <ele>161.3</ele>
        <time>2012-04-08T09:14:29Z</time>
      </trkpt>
      <trkpt lat="46.93428" lon="-0.65159">
        <ele>161.3</ele>
        <time>2012-04-08T09:14:30Z</time>
      </trkpt>
      <trkpt lat="46.93434" lon="-0.65141">
        <ele>161.8</ele>
        <time>2012-04-08T09:14:35Z</time>
      </trkpt>
      <trkpt lat="46.93436" lon="-0.65132">
        <ele>162</ele>
        <time>2012-04-08T09:14:37Z</time>
      </trkpt>
      <trkpt lat="46.93438" lon="-0.65123">
        <ele>162.1</ele>
        <time>2012-04-08T09:14:39Z</time>
      </trkpt>
      <trkpt lat="46.9344" lon="-0.65113">
        <ele>162.3</ele>
        <time>2012-04-08T09:14:41Z</time>
      </trkpt>
      <trkpt lat="46.93442" lon="-0.65103">
        <ele>162.3</ele>
        <time>2012-04-08T09:14:43Z</time>
      </trkpt>
      <trkpt lat="46.93444" lon="-0.65094">
        <ele>162.5</ele>
        <time>2012-04-08T09:14:45Z</time>
      </trkpt>
      <trkpt lat="46.93446" lon="-0.65083">
        <ele>162.6</ele>
        <time>2012-04-08T09:14:47Z</time>
      </trkpt>
      <trkpt lat="46.93449" lon="-0.65073">
        <ele>162.6</ele>
        <time>2012-04-08T09:14:49Z</time>
      </trkpt>
      <trkpt lat="46.93453" lon="-0.65064">
        <ele>162.6</ele>
        <time>2012-04-08T09:14:51Z</time>
      </trkpt>
      <trkpt lat="46.93455" lon="-0.65055">
        <ele>162.6</ele>
        <time>2012-04-08T09:14:53Z</time>
      </trkpt>
      <trkpt lat="46.93459" lon="-0.65045">
        <ele>162.8</ele>
        <time>2012-04-08T09:14:55Z</time>
      </trkpt>
      <trkpt lat="46.93462" lon="-0.65036">
        <ele>163</ele>
        <time>2012-04-08T09:14:57Z</time>
      </trkpt>
      <trkpt lat="46.93467" lon="-0.65025">
        <ele>163.1</ele>
        <time>2012-04-08T09:14:59Z</time>
      </trkpt>
      <trkpt lat="46.9347" lon="-0.65019">
        <ele>163.1</ele>
        <time>2012-04-08T09:15:00Z</time>
      </trkpt>
      <trkpt lat="46.93473" lon="-0.65013">
        <ele>163.1</ele>
        <time>2012-04-08T09:15:01Z</time>
      </trkpt>
      <trkpt lat="46.93476" lon="-0.65007">
        <ele>163.1</ele>
        <time>2012-04-08T09:15:02Z</time>
      </trkpt>
      <trkpt lat="46.9348" lon="-0.65001">
        <ele>163.1</ele>
        <time>2012-04-08T09:15:03Z</time>
      </trkpt>
      <trkpt lat="46.93483" lon="-0.64995">
        <ele>163.1</ele>
        <time>2012-04-08T09:15:04Z</time>
      </trkpt>
      <trkpt lat="46.93486" lon="-0.64989">
        <ele>163.1</ele>
        <time>2012-04-08T09:15:05Z</time>
      </trkpt>
      <trkpt lat="46.9349" lon="-0.64983">
        <ele>163</ele>
        <time>2012-04-08T09:15:06Z</time>
      </trkpt>
      <trkpt lat="46.93493" lon="-0.64977">
        <ele>163</ele>
        <time>2012-04-08T09:15:07Z</time>
      </trkpt>
      <trkpt lat="46.93496" lon="-0.64971">
        <ele>163</ele>
        <time>2012-04-08T09:15:08Z</time>
      </trkpt>
      <trkpt lat="46.93499" lon="-0.64965">
        <ele>163</ele>
        <time>2012-04-08T09:15:09Z</time>
      </trkpt>
      <trkpt lat="46.93503" lon="-0.64959">
        <ele>162.8</ele>
        <time>2012-04-08T09:15:10Z</time>
      </trkpt>
      <trkpt lat="46.93506" lon="-0.64953">
        <ele>162.8</ele>
        <time>2012-04-08T09:15:11Z</time>
      </trkpt>
      <trkpt lat="46.93509" lon="-0.64947">
        <ele>162.8</ele>
        <time>2012-04-08T09:15:12Z</time>
      </trkpt>
      <trkpt lat="46.93512" lon="-0.64942">
        <ele>162.8</ele>
        <time>2012-04-08T09:15:13Z</time>
      </trkpt>
      <trkpt lat="46.93515" lon="-0.64936">
        <ele>163</ele>
        <time>2012-04-08T09:15:14Z</time>
      </trkpt>
      <trkpt lat="46.93517" lon="-0.64931">
        <ele>163</ele>
        <time>2012-04-08T09:15:15Z</time>
      </trkpt>
      <trkpt lat="46.9352" lon="-0.64925">
        <ele>162.8</ele>
        <time>2012-04-08T09:15:16Z</time>
      </trkpt>
      <trkpt lat="46.93525" lon="-0.64914">
        <ele>162.6</ele>
        <time>2012-04-08T09:15:18Z</time>
      </trkpt>
      <trkpt lat="46.93528" lon="-0.64909">
        <ele>162.5</ele>
        <time>2012-04-08T09:15:19Z</time>
      </trkpt>
      <trkpt lat="46.93531" lon="-0.64903">
        <ele>162.3</ele>
        <time>2012-04-08T09:15:20Z</time>
      </trkpt>
      <trkpt lat="46.93533" lon="-0.64897">
        <ele>162.1</ele>
        <time>2012-04-08T09:15:21Z</time>
      </trkpt>
      <trkpt lat="46.93536" lon="-0.64891">
        <ele>162</ele>
        <time>2012-04-08T09:15:22Z</time>
      </trkpt>
      <trkpt lat="46.93539" lon="-0.64884">
        <ele>161.8</ele>
        <time>2012-04-08T09:15:23Z</time>
      </trkpt>
      <trkpt lat="46.93541" lon="-0.64876">
        <ele>161.6</ele>
        <time>2012-04-08T09:15:24Z</time>
      </trkpt>
      <trkpt lat="46.93545" lon="-0.64869">
        <ele>161.5</ele>
        <time>2012-04-08T09:15:25Z</time>
      </trkpt>
      <trkpt lat="46.93548" lon="-0.64861">
        <ele>161.3</ele>
        <time>2012-04-08T09:15:26Z</time>
      </trkpt>
      <trkpt lat="46.93551" lon="-0.64853">
        <ele>161</ele>
        <time>2012-04-08T09:15:27Z</time>
      </trkpt>
      <trkpt lat="46.93554" lon="-0.64844">
        <ele>160.8</ele>
        <time>2012-04-08T09:15:28Z</time>
      </trkpt>
      <trkpt lat="46.93557" lon="-0.64835">
        <ele>160.6</ele>
        <time>2012-04-08T09:15:29Z</time>
      </trkpt>
      <trkpt lat="46.9356" lon="-0.64826">
        <ele>160.5</ele>
        <time>2012-04-08T09:15:30Z</time>
      </trkpt>
      <trkpt lat="46.93564" lon="-0.64817">
        <ele>160.3</ele>
        <time>2012-04-08T09:15:31Z</time>
      </trkpt>
      <trkpt lat="46.93568" lon="-0.64807">
        <ele>160.1</ele>
        <time>2012-04-08T09:15:32Z</time>
      </trkpt>
      <trkpt lat="46.93571" lon="-0.64797">
        <ele>159.8</ele>
        <time>2012-04-08T09:15:33Z</time>
      </trkpt>
      <trkpt lat="46.93575" lon="-0.64787">
        <ele>159.8</ele>
        <time>2012-04-08T09:15:34Z</time>
      </trkpt>
      <trkpt lat="46.93579" lon="-0.64776">
        <ele>159.6</ele>
        <time>2012-04-08T09:15:35Z</time>
      </trkpt>
      <trkpt lat="46.93583" lon="-0.64766">
        <ele>159.6</ele>
        <time>2012-04-08T09:15:36Z</time>
      </trkpt>
      <trkpt lat="46.93587" lon="-0.64756">
        <ele>159.6</ele>
        <time>2012-04-08T09:15:37Z</time>
      </trkpt>
      <trkpt lat="46.93591" lon="-0.64746">
        <ele>159.5</ele>
        <time>2012-04-08T09:15:38Z</time>
      </trkpt>
      <trkpt lat="46.93595" lon="-0.64735">
        <ele>159.5</ele>
        <time>2012-04-08T09:15:39Z</time>
      </trkpt>
      <trkpt lat="46.93599" lon="-0.64724">
        <ele>159.3</ele>
        <time>2012-04-08T09:15:40Z</time>
      </trkpt>
      <trkpt lat="46.93603" lon="-0.64713">
        <ele>159.3</ele>
        <time>2012-04-08T09:15:41Z</time>
      </trkpt>
      <trkpt lat="46.93606" lon="-0.64702">
        <ele>159.1</ele>
        <time>2012-04-08T09:15:42Z</time>
      </trkpt>
      <trkpt lat="46.9361" lon="-0.64692">
        <ele>159.1</ele>
        <time>2012-04-08T09:15:43Z</time>
      </trkpt>
      <trkpt lat="46.93614" lon="-0.64681">
        <ele>158.8</ele>
        <time>2012-04-08T09:15:44Z</time>
      </trkpt>
      <trkpt lat="46.93619" lon="-0.6467">
        <ele>158.6</ele>
        <time>2012-04-08T09:15:45Z</time>
      </trkpt>
      <trkpt lat="46.93623" lon="-0.64659">
        <ele>158.5</ele>
        <time>2012-04-08T09:15:46Z</time>
      </trkpt>
      <trkpt lat="46.93627" lon="-0.64649">
        <ele>158.3</ele>
        <time>2012-04-08T09:15:47Z</time>
      </trkpt>
      <trkpt lat="46.93632" lon="-0.64639">
        <ele>158.1</ele>
        <time>2012-04-08T09:15:48Z</time>
      </trkpt>
      <trkpt lat="46.93636" lon="-0.64629">
        <ele>158</ele>
        <time>2012-04-08T09:15:49Z</time>
      </trkpt>
      <trkpt lat="46.93641" lon="-0.6462">
        <ele>157.8</ele>
        <time>2012-04-08T09:15:50Z</time>
      </trkpt>
      <trkpt lat="46.93645" lon="-0.64611">
        <ele>157.6</ele>
        <time>2012-04-08T09:15:51Z</time>
      </trkpt>
      <trkpt lat="46.9365" lon="-0.64602">
        <ele>157.6</ele>
        <time>2012-04-08T09:15:52Z</time>
      </trkpt>
      <trkpt lat="46.93655" lon="-0.64592">
        <ele>157.5</ele>
        <time>2012-04-08T09:15:53Z</time>
      </trkpt>
      <trkpt lat="46.93659" lon="-0.64583">
        <ele>157.3</ele>
        <time>2012-04-08T09:15:54Z</time>
      </trkpt>
      <trkpt lat="46.93663" lon="-0.64573">
        <ele>157.1</ele>
        <time>2012-04-08T09:15:55Z</time>
      </trkpt>
      <trkpt lat="46.93667" lon="-0.64563">
        <ele>157.1</ele>
        <time>2012-04-08T09:15:56Z</time>
      </trkpt>
      <trkpt lat="46.93671" lon="-0.64553">
        <ele>157</ele>
        <time>2012-04-08T09:15:57Z</time>
      </trkpt>
      <trkpt lat="46.93674" lon="-0.64543">
        <ele>156.8</ele>
        <time>2012-04-08T09:15:58Z</time>
      </trkpt>
      <trkpt lat="46.93678" lon="-0.64534">
        <ele>156.8</ele>
        <time>2012-04-08T09:15:59Z</time>
      </trkpt>
      <trkpt lat="46.9368" lon="-0.64524">
        <ele>156.6</ele>
        <time>2012-04-08T09:16:00Z</time>
      </trkpt>
      <trkpt lat="46.93683" lon="-0.64514">
        <ele>156.6</ele>
        <time>2012-04-08T09:16:01Z</time>
      </trkpt>
      <trkpt lat="46.93685" lon="-0.64505">
        <ele>156.5</ele>
        <time>2012-04-08T09:16:02Z</time>
      </trkpt>
      <trkpt lat="46.93688" lon="-0.64496">
        <ele>156.3</ele>
        <time>2012-04-08T09:16:03Z</time>
      </trkpt>
      <trkpt lat="46.93691" lon="-0.64487">
        <ele>156.1</ele>
        <time>2012-04-08T09:16:04Z</time>
      </trkpt>
      <trkpt lat="46.93694" lon="-0.64479">
        <ele>156</ele>
        <time>2012-04-08T09:16:05Z</time>
      </trkpt>
      <trkpt lat="46.93697" lon="-0.6447">
        <ele>155.8</ele>
        <time>2012-04-08T09:16:06Z</time>
      </trkpt>
      <trkpt lat="46.937" lon="-0.64461">
        <ele>155.8</ele>
        <time>2012-04-08T09:16:07Z</time>
      </trkpt>
      <trkpt lat="46.93703" lon="-0.64453">
        <ele>155.8</ele>
        <time>2012-04-08T09:16:08Z</time>
      </trkpt>
      <trkpt lat="46.93706" lon="-0.64445">
        <ele>155.6</ele>
        <time>2012-04-08T09:16:09Z</time>
      </trkpt>
      <trkpt lat="46.93709" lon="-0.64436">
        <ele>155.5</ele>
        <time>2012-04-08T09:16:10Z</time>
      </trkpt>
      <trkpt lat="46.93712" lon="-0.64428">
        <ele>155.3</ele>
        <time>2012-04-08T09:16:11Z</time>
      </trkpt>
      <trkpt lat="46.93715" lon="-0.64419">
        <ele>155.1</ele>
        <time>2012-04-08T09:16:12Z</time>
      </trkpt>
      <trkpt lat="46.93718" lon="-0.64409">
        <ele>154.8</ele>
        <time>2012-04-08T09:16:13Z</time>
      </trkpt>
      <trkpt lat="46.9372" lon="-0.644">
        <ele>154.6</ele>
        <time>2012-04-08T09:16:14Z</time>
      </trkpt>
      <trkpt lat="46.93722" lon="-0.6439">
        <ele>154.6</ele>
        <time>2012-04-08T09:16:15Z</time>
      </trkpt>
      <trkpt lat="46.93724" lon="-0.6438">
        <ele>154.6</ele>
        <time>2012-04-08T09:16:16Z</time>
      </trkpt>
      <trkpt lat="46.93726" lon="-0.6437">
        <ele>154.5</ele>
        <time>2012-04-08T09:16:17Z</time>
      </trkpt>
      <trkpt lat="46.93727" lon="-0.6436">
        <ele>154.3</ele>
        <time>2012-04-08T09:16:18Z</time>
      </trkpt>
      <trkpt lat="46.93729" lon="-0.6435">
        <ele>154.3</ele>
        <time>2012-04-08T09:16:19Z</time>
      </trkpt>
      <trkpt lat="46.9373" lon="-0.6434">
        <ele>154.1</ele>
        <time>2012-04-08T09:16:20Z</time>
      </trkpt>
      <trkpt lat="46.93731" lon="-0.6433">
        <ele>154.1</ele>
        <time>2012-04-08T09:16:21Z</time>
      </trkpt>
      <trkpt lat="46.93733" lon="-0.6432">
        <ele>153.8</ele>
        <time>2012-04-08T09:16:22Z</time>
      </trkpt>
      <trkpt lat="46.93734" lon="-0.6431">
        <ele>153.8</ele>
        <time>2012-04-08T09:16:23Z</time>
      </trkpt>
      <trkpt lat="46.93736" lon="-0.643">
        <ele>153.6</ele>
        <time>2012-04-08T09:16:24Z</time>
      </trkpt>
      <trkpt lat="46.93737" lon="-0.6429">
        <ele>153.3</ele>
        <time>2012-04-08T09:16:25Z</time>
      </trkpt>
      <trkpt lat="46.93738" lon="-0.6428">
        <ele>153.3</ele>
        <time>2012-04-08T09:16:26Z</time>
      </trkpt>
      <trkpt lat="46.9374" lon="-0.6427">
        <ele>153.1</ele>
        <time>2012-04-08T09:16:27Z</time>
      </trkpt>
      <trkpt lat="46.93741" lon="-0.6426">
        <ele>153.1</ele>
        <time>2012-04-08T09:16:28Z</time>
      </trkpt>
      <trkpt lat="46.93743" lon="-0.6425">
        <ele>153</ele>
        <time>2012-04-08T09:16:29Z</time>
      </trkpt>
      <trkpt lat="46.93745" lon="-0.6424">
        <ele>152.8</ele>
        <time>2012-04-08T09:16:30Z</time>
      </trkpt>
      <trkpt lat="46.93746" lon="-0.6423">
        <ele>152.8</ele>
        <time>2012-04-08T09:16:31Z</time>
      </trkpt>
      <trkpt lat="46.93748" lon="-0.6422">
        <ele>152.6</ele>
        <time>2012-04-08T09:16:32Z</time>
      </trkpt>
      <trkpt lat="46.9375" lon="-0.6421">
        <ele>152.6</ele>
        <time>2012-04-08T09:16:33Z</time>
      </trkpt>
      <trkpt lat="46.93752" lon="-0.642">
        <ele>152.6</ele>
        <time>2012-04-08T09:16:34Z</time>
      </trkpt>
      <trkpt lat="46.93754" lon="-0.6419">
        <ele>152.5</ele>
        <time>2012-04-08T09:16:35Z</time>
      </trkpt>
      <trkpt lat="46.93756" lon="-0.6418">
        <ele>152.5</ele>
        <time>2012-04-08T09:16:36Z</time>
      </trkpt>
      <trkpt lat="46.93758" lon="-0.64171">
        <ele>152.3</ele>
        <time>2012-04-08T09:16:37Z</time>
      </trkpt>
      <trkpt lat="46.93761" lon="-0.64161">
        <ele>152.3</ele>
        <time>2012-04-08T09:16:38Z</time>
      </trkpt>
      <trkpt lat="46.93763" lon="-0.64151">
        <ele>152.3</ele>
        <time>2012-04-08T09:16:39Z</time>
      </trkpt>
      <trkpt lat="46.93766" lon="-0.64141">
        <ele>152.3</ele>
        <time>2012-04-08T09:16:40Z</time>
      </trkpt>
      <trkpt lat="46.93769" lon="-0.64131">
        <ele>152.3</ele>
        <time>2012-04-08T09:16:41Z</time>
      </trkpt>
      <trkpt lat="46.93772" lon="-0.64122">
        <ele>152.3</ele>
        <time>2012-04-08T09:16:42Z</time>
      </trkpt>
      <trkpt lat="46.93776" lon="-0.64113">
        <ele>152.3</ele>
        <time>2012-04-08T09:16:43Z</time>
      </trkpt>
      <trkpt lat="46.9378" lon="-0.64104">
        <ele>152.3</ele>
        <time>2012-04-08T09:16:44Z</time>
      </trkpt>
      <trkpt lat="46.93783" lon="-0.64095">
        <ele>152.1</ele>
        <time>2012-04-08T09:16:45Z</time>
      </trkpt>
      <trkpt lat="46.93787" lon="-0.64085">
        <ele>152.1</ele>
        <time>2012-04-08T09:16:46Z</time>
      </trkpt>
      <trkpt lat="46.9379" lon="-0.64075">
        <ele>152.1</ele>
        <time>2012-04-08T09:16:47Z</time>
      </trkpt>
      <trkpt lat="46.93792" lon="-0.64065">
        <ele>152.1</ele>
        <time>2012-04-08T09:16:48Z</time>
      </trkpt>
      <trkpt lat="46.93794" lon="-0.64055">
        <ele>152.1</ele>
        <time>2012-04-08T09:16:49Z</time>
      </trkpt>
      <trkpt lat="46.93797" lon="-0.64046">
        <ele>152</ele>
        <time>2012-04-08T09:16:50Z</time>
      </trkpt>
      <trkpt lat="46.93799" lon="-0.64037">
        <ele>152</ele>
        <time>2012-04-08T09:16:51Z</time>
      </trkpt>
      <trkpt lat="46.93801" lon="-0.64028">
        <ele>152</ele>
        <time>2012-04-08T09:16:52Z</time>
      </trkpt>
      <trkpt lat="46.93803" lon="-0.64019">
        <ele>152</ele>
        <time>2012-04-08T09:16:53Z</time>
      </trkpt>
      <trkpt lat="46.93805" lon="-0.6401">
        <ele>151.8</ele>
        <time>2012-04-08T09:16:54Z</time>
      </trkpt>
      <trkpt lat="46.93807" lon="-0.64001">
        <ele>151.8</ele>
        <time>2012-04-08T09:16:55Z</time>
      </trkpt>
      <trkpt lat="46.93809" lon="-0.63992">
        <ele>151.8</ele>
        <time>2012-04-08T09:16:56Z</time>
      </trkpt>
      <trkpt lat="46.93811" lon="-0.63982">
        <ele>151.8</ele>
        <time>2012-04-08T09:16:57Z</time>
      </trkpt>
      <trkpt lat="46.93812" lon="-0.63973">
        <ele>151.8</ele>
        <time>2012-04-08T09:16:58Z</time>
      </trkpt>
      <trkpt lat="46.93814" lon="-0.63964">
        <ele>151.8</ele>
        <time>2012-04-08T09:16:59Z</time>
      </trkpt>
      <trkpt lat="46.93815" lon="-0.63955">
        <ele>151.8</ele>
        <time>2012-04-08T09:17:00Z</time>
      </trkpt>
      <trkpt lat="46.93816" lon="-0.63945">
        <ele>151.6</ele>
        <time>2012-04-08T09:17:01Z</time>
      </trkpt>
      <trkpt lat="46.93817" lon="-0.63936">
        <ele>151.6</ele>
        <time>2012-04-08T09:17:02Z</time>
      </trkpt>
      <trkpt lat="46.93819" lon="-0.63926">
        <ele>151.6</ele>
        <time>2012-04-08T09:17:03Z</time>
      </trkpt>
      <trkpt lat="46.9382" lon="-0.63917">
        <ele>151.5</ele>
        <time>2012-04-08T09:17:04Z</time>
      </trkpt>
      <trkpt lat="46.93821" lon="-0.63908">
        <ele>151.5</ele>
        <time>2012-04-08T09:17:05Z</time>
      </trkpt>
      <trkpt lat="46.93822" lon="-0.63899">
        <ele>151.3</ele>
        <time>2012-04-08T09:17:06Z</time>
      </trkpt>
      <trkpt lat="46.93824" lon="-0.63889">
        <ele>151.3</ele>
        <time>2012-04-08T09:17:07Z</time>
      </trkpt>
      <trkpt lat="46.93825" lon="-0.63879">
        <ele>151.1</ele>
        <time>2012-04-08T09:17:08Z</time>
      </trkpt>
      <trkpt lat="46.93827" lon="-0.6387">
        <ele>151</ele>
        <time>2012-04-08T09:17:09Z</time>
      </trkpt>
      <trkpt lat="46.93829" lon="-0.6386">
        <ele>150.8</ele>
        <time>2012-04-08T09:17:10Z</time>
      </trkpt>
      <trkpt lat="46.93831" lon="-0.6385">
        <ele>150.6</ele>
        <time>2012-04-08T09:17:11Z</time>
      </trkpt>
      <trkpt lat="46.93832" lon="-0.6384">
        <ele>150.6</ele>
        <time>2012-04-08T09:17:12Z</time>
      </trkpt>
      <trkpt lat="46.93834" lon="-0.63831">
        <ele>150.3</ele>
        <time>2012-04-08T09:17:13Z</time>
      </trkpt>
      <trkpt lat="46.93835" lon="-0.63821">
        <ele>150.3</ele>
        <time>2012-04-08T09:17:14Z</time>
      </trkpt>
      <trkpt lat="46.93837" lon="-0.63812">
        <ele>150.1</ele>
        <time>2012-04-08T09:17:15Z</time>
      </trkpt>
      <trkpt lat="46.93839" lon="-0.63803">
        <ele>150.1</ele>
        <time>2012-04-08T09:17:16Z</time>
      </trkpt>
      <trkpt lat="46.9384" lon="-0.63794">
        <ele>150.1</ele>
        <time>2012-04-08T09:17:17Z</time>
      </trkpt>
      <trkpt lat="46.93842" lon="-0.63784">
        <ele>150.1</ele>
        <time>2012-04-08T09:17:18Z</time>
      </trkpt>
      <trkpt lat="46.93844" lon="-0.63775">
        <ele>150.1</ele>
        <time>2012-04-08T09:17:19Z</time>
      </trkpt>
      <trkpt lat="46.93845" lon="-0.63766">
        <ele>150.1</ele>
        <time>2012-04-08T09:17:20Z</time>
      </trkpt>
      <trkpt lat="46.93847" lon="-0.63756">
        <ele>150.1</ele>
        <time>2012-04-08T09:17:21Z</time>
      </trkpt>
      <trkpt lat="46.93848" lon="-0.63747">
        <ele>150</ele>
        <time>2012-04-08T09:17:22Z</time>
      </trkpt>
      <trkpt lat="46.93849" lon="-0.63737">
        <ele>150</ele>
        <time>2012-04-08T09:17:23Z</time>
      </trkpt>
      <trkpt lat="46.93851" lon="-0.63728">
        <ele>150</ele>
        <time>2012-04-08T09:17:24Z</time>
      </trkpt>
      <trkpt lat="46.93852" lon="-0.63718">
        <ele>150</ele>
        <time>2012-04-08T09:17:25Z</time>
      </trkpt>
      <trkpt lat="46.93853" lon="-0.63708">
        <ele>150</ele>
        <time>2012-04-08T09:17:26Z</time>
      </trkpt>
      <trkpt lat="46.93855" lon="-0.63699">
        <ele>150</ele>
        <time>2012-04-08T09:17:27Z</time>
      </trkpt>
      <trkpt lat="46.93856" lon="-0.63689">
        <ele>150</ele>
        <time>2012-04-08T09:17:28Z</time>
      </trkpt>
      <trkpt lat="46.93857" lon="-0.6368">
        <ele>150</ele>
        <time>2012-04-08T09:17:29Z</time>
      </trkpt>
      <trkpt lat="46.93858" lon="-0.63671">
        <ele>150</ele>
        <time>2012-04-08T09:17:30Z</time>
      </trkpt>
      <trkpt lat="46.93859" lon="-0.63662">
        <ele>150</ele>
        <time>2012-04-08T09:17:31Z</time>
      </trkpt>
      <trkpt lat="46.9386" lon="-0.63653">
        <ele>150</ele>
        <time>2012-04-08T09:17:32Z</time>
      </trkpt>
      <trkpt lat="46.93861" lon="-0.63644">
        <ele>150</ele>
        <time>2012-04-08T09:17:33Z</time>
      </trkpt>
      <trkpt lat="46.93862" lon="-0.63634">
        <ele>150</ele>
        <time>2012-04-08T09:17:34Z</time>
      </trkpt>
      <trkpt lat="46.93863" lon="-0.63625">
        <ele>150</ele>
        <time>2012-04-08T09:17:35Z</time>
      </trkpt>
      <trkpt lat="46.93864" lon="-0.63616">
        <ele>150</ele>
        <time>2012-04-08T09:17:36Z</time>
      </trkpt>
      <trkpt lat="46.93865" lon="-0.63607">
        <ele>150</ele>
        <time>2012-04-08T09:17:37Z</time>
      </trkpt>
      <trkpt lat="46.93866" lon="-0.63598">
        <ele>150</ele>
        <time>2012-04-08T09:17:38Z</time>
      </trkpt>
      <trkpt lat="46.93867" lon="-0.6359">
        <ele>150</ele>
        <time>2012-04-08T09:17:39Z</time>
      </trkpt>
      <trkpt lat="46.93869" lon="-0.63581">
        <ele>149.8</ele>
        <time>2012-04-08T09:17:40Z</time>
      </trkpt>
      <trkpt lat="46.93871" lon="-0.63572">
        <ele>149.6</ele>
        <time>2012-04-08T09:17:41Z</time>
      </trkpt>
      <trkpt lat="46.93873" lon="-0.63564">
        <ele>149.6</ele>
        <time>2012-04-08T09:17:42Z</time>
      </trkpt>
      <trkpt lat="46.93876" lon="-0.63556">
        <ele>149.5</ele>
        <time>2012-04-08T09:17:43Z</time>
      </trkpt>
      <trkpt lat="46.93878" lon="-0.63547">
        <ele>149.3</ele>
        <time>2012-04-08T09:17:44Z</time>
      </trkpt>
      <trkpt lat="46.93881" lon="-0.63539">
        <ele>149.3</ele>
        <time>2012-04-08T09:17:45Z</time>
      </trkpt>
      <trkpt lat="46.93884" lon="-0.63531">
        <ele>149.3</ele>
        <time>2012-04-08T09:17:46Z</time>
      </trkpt>
      <trkpt lat="46.93886" lon="-0.63522">
        <ele>149.3</ele>
        <time>2012-04-08T09:17:47Z</time>
      </trkpt>
      <trkpt lat="46.93886" lon="-0.63513">
        <ele>149.1</ele>
        <time>2012-04-08T09:17:48Z</time>
      </trkpt>
      <trkpt lat="46.93886" lon="-0.63504">
        <ele>149.1</ele>
        <time>2012-04-08T09:17:49Z</time>
      </trkpt>
      <trkpt lat="46.93886" lon="-0.63495">
        <ele>149.1</ele>
        <time>2012-04-08T09:17:50Z</time>
      </trkpt>
      <trkpt lat="46.93885" lon="-0.63486">
        <ele>149.1</ele>
        <time>2012-04-08T09:17:51Z</time>
      </trkpt>
      <trkpt lat="46.93883" lon="-0.63477">
        <ele>149.1</ele>
        <time>2012-04-08T09:17:52Z</time>
      </trkpt>
      <trkpt lat="46.93882" lon="-0.63469">
        <ele>149.1</ele>
        <time>2012-04-08T09:17:53Z</time>
      </trkpt>
      <trkpt lat="46.9388" lon="-0.6346">
        <ele>149.1</ele>
        <time>2012-04-08T09:17:54Z</time>
      </trkpt>
      <trkpt lat="46.93878" lon="-0.63452">
        <ele>149.1</ele>
        <time>2012-04-08T09:17:55Z</time>
      </trkpt>
      <trkpt lat="46.93877" lon="-0.63443">
        <ele>149.1</ele>
        <time>2012-04-08T09:17:56Z</time>
      </trkpt>
      <trkpt lat="46.93876" lon="-0.63434">
        <ele>149.1</ele>
        <time>2012-04-08T09:17:57Z</time>
      </trkpt>
      <trkpt lat="46.93876" lon="-0.63424">
        <ele>149.3</ele>
        <time>2012-04-08T09:17:58Z</time>
      </trkpt>
      <trkpt lat="46.93875" lon="-0.63415">
        <ele>149.3</ele>
        <time>2012-04-08T09:17:59Z</time>
      </trkpt>
      <trkpt lat="46.93875" lon="-0.63405">
        <ele>149.3</ele>
        <time>2012-04-08T09:18:00Z</time>
      </trkpt>
      <trkpt lat="46.93875" lon="-0.63394">
        <ele>149.3</ele>
        <time>2012-04-08T09:18:01Z</time>
      </trkpt>
      <trkpt lat="46.93876" lon="-0.63384">
        <ele>149.1</ele>
        <time>2012-04-08T09:18:02Z</time>
      </trkpt>
      <trkpt lat="46.93876" lon="-0.63373">
        <ele>149.1</ele>
        <time>2012-04-08T09:18:03Z</time>
      </trkpt>
      <trkpt lat="46.93877" lon="-0.63362">
        <ele>149</ele>
        <time>2012-04-08T09:18:04Z</time>
      </trkpt>
      <trkpt lat="46.93878" lon="-0.63351">
        <ele>148.8</ele>
        <time>2012-04-08T09:18:05Z</time>
      </trkpt>
      <trkpt lat="46.93879" lon="-0.6334">
        <ele>148.8</ele>
        <time>2012-04-08T09:18:06Z</time>
      </trkpt>
      <trkpt lat="46.93881" lon="-0.63329">
        <ele>148.8</ele>
        <time>2012-04-08T09:18:07Z</time>
      </trkpt>
      <trkpt lat="46.93882" lon="-0.63317">
        <ele>148.8</ele>
        <time>2012-04-08T09:18:08Z</time>
      </trkpt>
      <trkpt lat="46.93884" lon="-0.63306">
        <ele>148.6</ele>
        <time>2012-04-08T09:18:09Z</time>
      </trkpt>
      <trkpt lat="46.93885" lon="-0.63295">
        <ele>148.6</ele>
        <time>2012-04-08T09:18:10Z</time>
      </trkpt>
      <trkpt lat="46.93887" lon="-0.63285">
        <ele>148.6</ele>
        <time>2012-04-08T09:18:11Z</time>
      </trkpt>
      <trkpt lat="46.93888" lon="-0.63274">
        <ele>148.6</ele>
        <time>2012-04-08T09:18:12Z</time>
      </trkpt>
      <trkpt lat="46.9389" lon="-0.63264">
        <ele>148.6</ele>
        <time>2012-04-08T09:18:13Z</time>
      </trkpt>
      <trkpt lat="46.93891" lon="-0.63254">
        <ele>148.5</ele>
        <time>2012-04-08T09:18:14Z</time>
      </trkpt>
      <trkpt lat="46.93893" lon="-0.63245">
        <ele>148.3</ele>
        <time>2012-04-08T09:18:15Z</time>
      </trkpt>
      <trkpt lat="46.93894" lon="-0.63235">
        <ele>148.3</ele>
        <time>2012-04-08T09:18:16Z</time>
      </trkpt>
      <trkpt lat="46.93896" lon="-0.63226">
        <ele>148.1</ele>
        <time>2012-04-08T09:18:17Z</time>
      </trkpt>
      <trkpt lat="46.93897" lon="-0.63217">
        <ele>148.1</ele>
        <time>2012-04-08T09:18:18Z</time>
      </trkpt>
      <trkpt lat="46.93898" lon="-0.63208">
        <ele>148</ele>
        <time>2012-04-08T09:18:19Z</time>
      </trkpt>
      <trkpt lat="46.93899" lon="-0.63199">
        <ele>147.8</ele>
        <time>2012-04-08T09:18:20Z</time>
      </trkpt>
      <trkpt lat="46.939" lon="-0.6319">
        <ele>147.8</ele>
        <time>2012-04-08T09:18:21Z</time>
      </trkpt>
      <trkpt lat="46.939" lon="-0.63181">
        <ele>147.8</ele>
        <time>2012-04-08T09:18:22Z</time>
      </trkpt>
      <trkpt lat="46.93901" lon="-0.63172">
        <ele>147.6</ele>
        <time>2012-04-08T09:18:23Z</time>
      </trkpt>
      <trkpt lat="46.93902" lon="-0.63164">
        <ele>147.6</ele>
        <time>2012-04-08T09:18:24Z</time>
      </trkpt>
      <trkpt lat="46.93903" lon="-0.63157">
        <ele>147.5</ele>
        <time>2012-04-08T09:18:25Z</time>
      </trkpt>
      <trkpt lat="46.93904" lon="-0.6315">
        <ele>147.3</ele>
        <time>2012-04-08T09:18:26Z</time>
      </trkpt>
      <trkpt lat="46.93907" lon="-0.63137">
        <ele>147.3</ele>
        <time>2012-04-08T09:18:28Z</time>
      </trkpt>
      <trkpt lat="46.93909" lon="-0.63126">
        <ele>147.1</ele>
        <time>2012-04-08T09:18:30Z</time>
      </trkpt>
      <trkpt lat="46.93911" lon="-0.63115">
        <ele>147</ele>
        <time>2012-04-08T09:18:32Z</time>
      </trkpt>
      <trkpt lat="46.93914" lon="-0.63104">
        <ele>146.8</ele>
        <time>2012-04-08T09:18:34Z</time>
      </trkpt>
      <trkpt lat="46.93915" lon="-0.63099">
        <ele>146.8</ele>
        <time>2012-04-08T09:18:35Z</time>
      </trkpt>
      <trkpt lat="46.93918" lon="-0.63082">
        <ele>146.6</ele>
        <time>2012-04-08T09:18:38Z</time>
      </trkpt>
      <trkpt lat="46.9392" lon="-0.63069">
        <ele>146.6</ele>
        <time>2012-04-08T09:18:40Z</time>
      </trkpt>
      <trkpt lat="46.93923" lon="-0.63057">
        <ele>146.5</ele>
        <time>2012-04-08T09:18:42Z</time>
      </trkpt>
      <trkpt lat="46.93925" lon="-0.63045">
        <ele>146.3</ele>
        <time>2012-04-08T09:18:44Z</time>
      </trkpt>
      <trkpt lat="46.93928" lon="-0.63034">
        <ele>146.3</ele>
        <time>2012-04-08T09:18:46Z</time>
      </trkpt>
      <trkpt lat="46.93931" lon="-0.63022">
        <ele>146.1</ele>
        <time>2012-04-08T09:18:48Z</time>
      </trkpt>
      <trkpt lat="46.93934" lon="-0.63009">
        <ele>146</ele>
        <time>2012-04-08T09:18:50Z</time>
      </trkpt>
      <trkpt lat="46.93937" lon="-0.62998">
        <ele>145.8</ele>
        <time>2012-04-08T09:18:52Z</time>
      </trkpt>
      <trkpt lat="46.9394" lon="-0.62987">
        <ele>145.8</ele>
        <time>2012-04-08T09:18:54Z</time>
      </trkpt>
      <trkpt lat="46.93943" lon="-0.62976">
        <ele>145.8</ele>
        <time>2012-04-08T09:18:56Z</time>
      </trkpt>
      <trkpt lat="46.93946" lon="-0.62965">
        <ele>145.6</ele>
        <time>2012-04-08T09:18:58Z</time>
      </trkpt>
      <trkpt lat="46.93949" lon="-0.62954">
        <ele>145.5</ele>
        <time>2012-04-08T09:19:00Z</time>
      </trkpt>
      <trkpt lat="46.93952" lon="-0.62944">
        <ele>145.3</ele>
        <time>2012-04-08T09:19:02Z</time>
      </trkpt>
      <trkpt lat="46.93955" lon="-0.62933">
        <ele>145.1</ele>
        <time>2012-04-08T09:19:04Z</time>
      </trkpt>
      <trkpt lat="46.93958" lon="-0.62922">
        <ele>145.1</ele>
        <time>2012-04-08T09:19:06Z</time>
      </trkpt>
      <trkpt lat="46.93961" lon="-0.62911">
        <ele>145</ele>
        <time>2012-04-08T09:19:08Z</time>
      </trkpt>
      <trkpt lat="46.93964" lon="-0.629">
        <ele>144.8</ele>
        <time>2012-04-08T09:19:10Z</time>
      </trkpt>
      <trkpt lat="46.93966" lon="-0.62889">
        <ele>144.8</ele>
        <time>2012-04-08T09:19:12Z</time>
      </trkpt>
      <trkpt lat="46.93969" lon="-0.62878">
        <ele>144.8</ele>
        <time>2012-04-08T09:19:14Z</time>
      </trkpt>
      <trkpt lat="46.93972" lon="-0.62867">
        <ele>144.8</ele>
        <time>2012-04-08T09:19:16Z</time>
      </trkpt>
      <trkpt lat="46.93974" lon="-0.62861">
        <ele>144.8</ele>
        <time>2012-04-08T09:19:17Z</time>
      </trkpt>
      <trkpt lat="46.93975" lon="-0.62855">
        <ele>144.6</ele>
        <time>2012-04-08T09:19:18Z</time>
      </trkpt>
      <trkpt lat="46.93977" lon="-0.62848">
        <ele>144.6</ele>
        <time>2012-04-08T09:19:19Z</time>
      </trkpt>
      <trkpt lat="46.93979" lon="-0.62842">
        <ele>144.6</ele>
        <time>2012-04-08T09:19:20Z</time>
      </trkpt>
      <trkpt lat="46.93981" lon="-0.62836">
        <ele>144.6</ele>
        <time>2012-04-08T09:19:21Z</time>
      </trkpt>
      <trkpt lat="46.93982" lon="-0.6283">
        <ele>144.6</ele>
        <time>2012-04-08T09:19:22Z</time>
      </trkpt>
      <trkpt lat="46.93984" lon="-0.62823">
        <ele>144.6</ele>
        <time>2012-04-08T09:19:23Z</time>
      </trkpt>
      <trkpt lat="46.93988" lon="-0.62812">
        <ele>144.6</ele>
        <time>2012-04-08T09:19:25Z</time>
      </trkpt>
      <trkpt lat="46.93991" lon="-0.62799">
        <ele>144.6</ele>
        <time>2012-04-08T09:19:27Z</time>
      </trkpt>
      <trkpt lat="46.93992" lon="-0.62793">
        <ele>144.6</ele>
        <time>2012-04-08T09:19:28Z</time>
      </trkpt>
      <trkpt lat="46.93994" lon="-0.62787">
        <ele>144.5</ele>
        <time>2012-04-08T09:19:29Z</time>
      </trkpt>
      <trkpt lat="46.93995" lon="-0.62781">
        <ele>144.5</ele>
        <time>2012-04-08T09:19:30Z</time>
      </trkpt>
      <trkpt lat="46.93997" lon="-0.62774">
        <ele>144.5</ele>
        <time>2012-04-08T09:19:31Z</time>
      </trkpt>
      <trkpt lat="46.93999" lon="-0.62768">
        <ele>144.5</ele>
        <time>2012-04-08T09:19:32Z</time>
      </trkpt>
      <trkpt lat="46.94001" lon="-0.62762">
        <ele>144.5</ele>
        <time>2012-04-08T09:19:33Z</time>
      </trkpt>
      <trkpt lat="46.94002" lon="-0.62755">
        <ele>144.3</ele>
        <time>2012-04-08T09:19:34Z</time>
      </trkpt>
      <trkpt lat="46.94004" lon="-0.62749">
        <ele>144.3</ele>
        <time>2012-04-08T09:19:35Z</time>
      </trkpt>
      <trkpt lat="46.94006" lon="-0.62742">
        <ele>144.3</ele>
        <time>2012-04-08T09:19:36Z</time>
      </trkpt>
      <trkpt lat="46.94007" lon="-0.62735">
        <ele>144.3</ele>
        <time>2012-04-08T09:19:37Z</time>
      </trkpt>
      <trkpt lat="46.94009" lon="-0.62729">
        <ele>144.3</ele>
        <time>2012-04-08T09:19:38Z</time>
      </trkpt>
      <trkpt lat="46.9401" lon="-0.62722">
        <ele>144.1</ele>
        <time>2012-04-08T09:19:39Z</time>
      </trkpt>
      <trkpt lat="46.94012" lon="-0.62715">
        <ele>144.1</ele>
        <time>2012-04-08T09:19:40Z</time>
      </trkpt>
      <trkpt lat="46.94014" lon="-0.62708">
        <ele>144.1</ele>
        <time>2012-04-08T09:19:41Z</time>
      </trkpt>
      <trkpt lat="46.94015" lon="-0.62702">
        <ele>144.1</ele>
        <time>2012-04-08T09:19:42Z</time>
      </trkpt>
      <trkpt lat="46.94017" lon="-0.62695">
        <ele>144.1</ele>
        <time>2012-04-08T09:19:43Z</time>
      </trkpt>
      <trkpt lat="46.94018" lon="-0.62689">
        <ele>144.1</ele>
        <time>2012-04-08T09:19:44Z</time>
      </trkpt>
      <trkpt lat="46.94019" lon="-0.62683">
        <ele>144.1</ele>
        <time>2012-04-08T09:19:45Z</time>
      </trkpt>
      <trkpt lat="46.94021" lon="-0.62676">
        <ele>144.1</ele>
        <time>2012-04-08T09:19:46Z</time>
      </trkpt>
      <trkpt lat="46.94022" lon="-0.62669">
        <ele>144.1</ele>
        <time>2012-04-08T09:19:47Z</time>
      </trkpt>
      <trkpt lat="46.94024" lon="-0.62657">
        <ele>144</ele>
        <time>2012-04-08T09:19:49Z</time>
      </trkpt>
      <trkpt lat="46.94026" lon="-0.62644">
        <ele>143.8</ele>
        <time>2012-04-08T09:19:51Z</time>
      </trkpt>
      <trkpt lat="46.94027" lon="-0.62632">
        <ele>143.6</ele>
        <time>2012-04-08T09:19:53Z</time>
      </trkpt>
      <trkpt lat="46.94028" lon="-0.62625">
        <ele>143.6</ele>
        <time>2012-04-08T09:19:54Z</time>
      </trkpt>
      <trkpt lat="46.94028" lon="-0.62619">
        <ele>143.6</ele>
        <time>2012-04-08T09:19:55Z</time>
      </trkpt>
      <trkpt lat="46.94029" lon="-0.62612">
        <ele>143.5</ele>
        <time>2012-04-08T09:19:56Z</time>
      </trkpt>
      <trkpt lat="46.9403" lon="-0.62605">
        <ele>143.5</ele>
        <time>2012-04-08T09:19:57Z</time>
      </trkpt>
      <trkpt lat="46.94033" lon="-0.62599">
        <ele>143.5</ele>
        <time>2012-04-08T09:19:58Z</time>
      </trkpt>
      <trkpt lat="46.94036" lon="-0.62593">
        <ele>143.3</ele>
        <time>2012-04-08T09:19:59Z</time>
      </trkpt>
      <trkpt lat="46.94038" lon="-0.62588">
        <ele>143.3</ele>
        <time>2012-04-08T09:20:00Z</time>
      </trkpt>
      <trkpt lat="46.94041" lon="-0.62582">
        <ele>143.3</ele>
        <time>2012-04-08T09:20:01Z</time>
      </trkpt>
      <trkpt lat="46.94044" lon="-0.62576">
        <ele>143.3</ele>
        <time>2012-04-08T09:20:02Z</time>
      </trkpt>
      <trkpt lat="46.94046" lon="-0.6257">
        <ele>143.3</ele>
        <time>2012-04-08T09:20:03Z</time>
      </trkpt>
      <trkpt lat="46.94049" lon="-0.62563">
        <ele>143.3</ele>
        <time>2012-04-08T09:20:04Z</time>
      </trkpt>
      <trkpt lat="46.94052" lon="-0.62557">
        <ele>143.3</ele>
        <time>2012-04-08T09:20:05Z</time>
      </trkpt>
      <trkpt lat="46.94055" lon="-0.6255">
        <ele>143.1</ele>
        <time>2012-04-08T09:20:06Z</time>
      </trkpt>
      <trkpt lat="46.94057" lon="-0.62543">
        <ele>143.1</ele>
        <time>2012-04-08T09:20:07Z</time>
      </trkpt>
      <trkpt lat="46.9406" lon="-0.62536">
        <ele>143.1</ele>
        <time>2012-04-08T09:20:08Z</time>
      </trkpt>
      <trkpt lat="46.94062" lon="-0.62529">
        <ele>143.1</ele>
        <time>2012-04-08T09:20:09Z</time>
      </trkpt>
      <trkpt lat="46.94065" lon="-0.62523">
        <ele>143.1</ele>
        <time>2012-04-08T09:20:10Z</time>
      </trkpt>
      <trkpt lat="46.94068" lon="-0.62517">
        <ele>143.1</ele>
        <time>2012-04-08T09:20:11Z</time>
      </trkpt>
      <trkpt lat="46.94071" lon="-0.62511">
        <ele>143</ele>
        <time>2012-04-08T09:20:12Z</time>
      </trkpt>
      <trkpt lat="46.94074" lon="-0.62506">
        <ele>143</ele>
        <time>2012-04-08T09:20:13Z</time>
      </trkpt>
      <trkpt lat="46.94077" lon="-0.625">
        <ele>143</ele>
        <time>2012-04-08T09:20:14Z</time>
      </trkpt>
      <trkpt lat="46.9408" lon="-0.62495">
        <ele>142.8</ele>
        <time>2012-04-08T09:20:15Z</time>
      </trkpt>
      <trkpt lat="46.94082" lon="-0.62489">
        <ele>142.8</ele>
        <time>2012-04-08T09:20:16Z</time>
      </trkpt>
      <trkpt lat="46.94085" lon="-0.62483">
        <ele>142.6</ele>
        <time>2012-04-08T09:20:17Z</time>
      </trkpt>
      <trkpt lat="46.94088" lon="-0.62477">
        <ele>142.6</ele>
        <time>2012-04-08T09:20:18Z</time>
      </trkpt>
      <trkpt lat="46.9409" lon="-0.62471">
        <ele>142.6</ele>
        <time>2012-04-08T09:20:19Z</time>
      </trkpt>
      <trkpt lat="46.94093" lon="-0.62465">
        <ele>142.5</ele>
        <time>2012-04-08T09:20:20Z</time>
      </trkpt>
      <trkpt lat="46.94096" lon="-0.6246">
        <ele>142.3</ele>
        <time>2012-04-08T09:20:21Z</time>
      </trkpt>
      <trkpt lat="46.94099" lon="-0.62454">
        <ele>142.3</ele>
        <time>2012-04-08T09:20:22Z</time>
      </trkpt>
      <trkpt lat="46.94101" lon="-0.62449">
        <ele>142.3</ele>
        <time>2012-04-08T09:20:23Z</time>
      </trkpt>
      <trkpt lat="46.94104" lon="-0.62443">
        <ele>142.1</ele>
        <time>2012-04-08T09:20:24Z</time>
      </trkpt>
      <trkpt lat="46.94107" lon="-0.62437">
        <ele>142.1</ele>
        <time>2012-04-08T09:20:25Z</time>
      </trkpt>
      <trkpt lat="46.9411" lon="-0.62432">
        <ele>142.1</ele>
        <time>2012-04-08T09:20:26Z</time>
      </trkpt>
      <trkpt lat="46.94113" lon="-0.62426">
        <ele>142.1</ele>
        <time>2012-04-08T09:20:27Z</time>
      </trkpt>
      <trkpt lat="46.94117" lon="-0.6242">
        <ele>142.1</ele>
        <time>2012-04-08T09:20:28Z</time>
      </trkpt>
      <trkpt lat="46.9412" lon="-0.62414">
        <ele>142.1</ele>
        <time>2012-04-08T09:20:29Z</time>
      </trkpt>
      <trkpt lat="46.94123" lon="-0.62408">
        <ele>142.1</ele>
        <time>2012-04-08T09:20:30Z</time>
      </trkpt>
      <trkpt lat="46.94126" lon="-0.62402">
        <ele>142.1</ele>
        <time>2012-04-08T09:20:31Z</time>
      </trkpt>
      <trkpt lat="46.94128" lon="-0.62396">
        <ele>142.1</ele>
        <time>2012-04-08T09:20:32Z</time>
      </trkpt>
      <trkpt lat="46.94131" lon="-0.6239">
        <ele>142</ele>
        <time>2012-04-08T09:20:33Z</time>
      </trkpt>
      <trkpt lat="46.94134" lon="-0.62384">
        <ele>142</ele>
        <time>2012-04-08T09:20:34Z</time>
      </trkpt>
      <trkpt lat="46.94136" lon="-0.62378">
        <ele>142</ele>
        <time>2012-04-08T09:20:35Z</time>
      </trkpt>
      <trkpt lat="46.94139" lon="-0.62371">
        <ele>142</ele>
        <time>2012-04-08T09:20:36Z</time>
      </trkpt>
      <trkpt lat="46.94141" lon="-0.62365">
        <ele>141.8</ele>
        <time>2012-04-08T09:20:37Z</time>
      </trkpt>
      <trkpt lat="46.94144" lon="-0.62359">
        <ele>141.8</ele>
        <time>2012-04-08T09:20:38Z</time>
      </trkpt>
      <trkpt lat="46.94146" lon="-0.62352">
        <ele>141.8</ele>
        <time>2012-04-08T09:20:39Z</time>
      </trkpt>
      <trkpt lat="46.94149" lon="-0.62346">
        <ele>141.8</ele>
        <time>2012-04-08T09:20:40Z</time>
      </trkpt>
      <trkpt lat="46.94151" lon="-0.62339">
        <ele>141.8</ele>
        <time>2012-04-08T09:20:41Z</time>
      </trkpt>
      <trkpt lat="46.94154" lon="-0.62333">
        <ele>141.8</ele>
        <time>2012-04-08T09:20:42Z</time>
      </trkpt>
      <trkpt lat="46.94156" lon="-0.62326">
        <ele>141.6</ele>
        <time>2012-04-08T09:20:43Z</time>
      </trkpt>
      <trkpt lat="46.94159" lon="-0.62319">
        <ele>141.6</ele>
        <time>2012-04-08T09:20:44Z</time>
      </trkpt>
      <trkpt lat="46.94161" lon="-0.62312">
        <ele>141.6</ele>
        <time>2012-04-08T09:20:45Z</time>
      </trkpt>
      <trkpt lat="46.94164" lon="-0.62305">
        <ele>141.6</ele>
        <time>2012-04-08T09:20:46Z</time>
      </trkpt>
      <trkpt lat="46.94167" lon="-0.62298">
        <ele>141.5</ele>
        <time>2012-04-08T09:20:47Z</time>
      </trkpt>
      <trkpt lat="46.9417" lon="-0.6229">
        <ele>141.5</ele>
        <time>2012-04-08T09:20:48Z</time>
      </trkpt>
      <trkpt lat="46.94173" lon="-0.62283">
        <ele>141.5</ele>
        <time>2012-04-08T09:20:49Z</time>
      </trkpt>
      <trkpt lat="46.94176" lon="-0.62275">
        <ele>141.3</ele>
        <time>2012-04-08T09:20:50Z</time>
      </trkpt>
      <trkpt lat="46.94179" lon="-0.62267">
        <ele>141.3</ele>
        <time>2012-04-08T09:20:51Z</time>
      </trkpt>
      <trkpt lat="46.94183" lon="-0.6226">
        <ele>141.3</ele>
        <time>2012-04-08T09:20:52Z</time>
      </trkpt>
      <trkpt lat="46.94188" lon="-0.62253">
        <ele>141.3</ele>
        <time>2012-04-08T09:20:53Z</time>
      </trkpt>
      <trkpt lat="46.94193" lon="-0.62246">
        <ele>141.1</ele>
        <time>2012-04-08T09:20:54Z</time>
      </trkpt>
      <trkpt lat="46.94198" lon="-0.62239">
        <ele>141.1</ele>
        <time>2012-04-08T09:20:55Z</time>
      </trkpt>
      <trkpt lat="46.94203" lon="-0.62231">
        <ele>140.8</ele>
        <time>2012-04-08T09:20:56Z</time>
      </trkpt>
      <trkpt lat="46.94209" lon="-0.62224">
        <ele>140.8</ele>
        <time>2012-04-08T09:20:57Z</time>
      </trkpt>
      <trkpt lat="46.94214" lon="-0.62217">
        <ele>140.6</ele>
        <time>2012-04-08T09:20:58Z</time>
      </trkpt>
      <trkpt lat="46.94219" lon="-0.62209">
        <ele>140.6</ele>
        <time>2012-04-08T09:20:59Z</time>
      </trkpt>
      <trkpt lat="46.94225" lon="-0.62202">
        <ele>140.5</ele>
        <time>2012-04-08T09:21:00Z</time>
      </trkpt>
      <trkpt lat="46.94231" lon="-0.62194">
        <ele>140.3</ele>
        <time>2012-04-08T09:21:01Z</time>
      </trkpt>
      <trkpt lat="46.94236" lon="-0.62186">
        <ele>140.3</ele>
        <time>2012-04-08T09:21:02Z</time>
      </trkpt>
      <trkpt lat="46.94242" lon="-0.62178">
        <ele>140.3</ele>
        <time>2012-04-08T09:21:03Z</time>
      </trkpt>
      <trkpt lat="46.94247" lon="-0.6217">
        <ele>140.1</ele>
        <time>2012-04-08T09:21:04Z</time>
      </trkpt>
      <trkpt lat="46.94252" lon="-0.62163">
        <ele>140.1</ele>
        <time>2012-04-08T09:21:05Z</time>
      </trkpt>
      <trkpt lat="46.94258" lon="-0.62156">
        <ele>140.1</ele>
        <time>2012-04-08T09:21:06Z</time>
      </trkpt>
      <trkpt lat="46.94264" lon="-0.62149">
        <ele>140.1</ele>
        <time>2012-04-08T09:21:07Z</time>
      </trkpt>
      <trkpt lat="46.9427" lon="-0.62141">
        <ele>140.1</ele>
        <time>2012-04-08T09:21:08Z</time>
      </trkpt>
      <trkpt lat="46.94275" lon="-0.62132">
        <ele>140.1</ele>
        <time>2012-04-08T09:21:09Z</time>
      </trkpt>
      <trkpt lat="46.9428" lon="-0.62123">
        <ele>140.1</ele>
        <time>2012-04-08T09:21:10Z</time>
      </trkpt>
      <trkpt lat="46.94285" lon="-0.62113">
        <ele>140.1</ele>
        <time>2012-04-08T09:21:11Z</time>
      </trkpt>
      <trkpt lat="46.9429" lon="-0.62103">
        <ele>140.1</ele>
        <time>2012-04-08T09:21:12Z</time>
      </trkpt>
      <trkpt lat="46.94294" lon="-0.62094">
        <ele>140.1</ele>
        <time>2012-04-08T09:21:13Z</time>
      </trkpt>
      <trkpt lat="46.94299" lon="-0.62086">
        <ele>140.3</ele>
        <time>2012-04-08T09:21:14Z</time>
      </trkpt>
      <trkpt lat="46.94303" lon="-0.62078">
        <ele>140.3</ele>
        <time>2012-04-08T09:21:15Z</time>
      </trkpt>
      <trkpt lat="46.94308" lon="-0.6207">
        <ele>140.3</ele>
        <time>2012-04-08T09:21:16Z</time>
      </trkpt>
      <trkpt lat="46.94313" lon="-0.62063">
        <ele>140.3</ele>
        <time>2012-04-08T09:21:17Z</time>
      </trkpt>
      <trkpt lat="46.94318" lon="-0.62055">
        <ele>140.5</ele>
        <time>2012-04-08T09:21:18Z</time>
      </trkpt>
      <trkpt lat="46.94323" lon="-0.62048">
        <ele>140.5</ele>
        <time>2012-04-08T09:21:19Z</time>
      </trkpt>
      <trkpt lat="46.94328" lon="-0.6204">
        <ele>140.5</ele>
        <time>2012-04-08T09:21:20Z</time>
      </trkpt>
      <trkpt lat="46.94332" lon="-0.62032">
        <ele>140.3</ele>
        <time>2012-04-08T09:21:21Z</time>
      </trkpt>
      <trkpt lat="46.94337" lon="-0.62023">
        <ele>140.3</ele>
        <time>2012-04-08T09:21:22Z</time>
      </trkpt>
      <trkpt lat="46.94341" lon="-0.62014">
        <ele>140.1</ele>
        <time>2012-04-08T09:21:23Z</time>
      </trkpt>
      <trkpt lat="46.94346" lon="-0.62004">
        <ele>140</ele>
        <time>2012-04-08T09:21:24Z</time>
      </trkpt>
      <trkpt lat="46.94349" lon="-0.61995">
        <ele>139.8</ele>
        <time>2012-04-08T09:21:25Z</time>
      </trkpt>
      <trkpt lat="46.94353" lon="-0.61984">
        <ele>139.6</ele>
        <time>2012-04-08T09:21:26Z</time>
      </trkpt>
      <trkpt lat="46.94357" lon="-0.61974">
        <ele>139.5</ele>
        <time>2012-04-08T09:21:27Z</time>
      </trkpt>
      <trkpt lat="46.9436" lon="-0.61964">
        <ele>139.3</ele>
        <time>2012-04-08T09:21:28Z</time>
      </trkpt>
      <trkpt lat="46.94364" lon="-0.61954">
        <ele>139.1</ele>
        <time>2012-04-08T09:21:29Z</time>
      </trkpt>
      <trkpt lat="46.94367" lon="-0.61944">
        <ele>139.1</ele>
        <time>2012-04-08T09:21:30Z</time>
      </trkpt>
      <trkpt lat="46.94371" lon="-0.61933">
        <ele>139</ele>
        <time>2012-04-08T09:21:31Z</time>
      </trkpt>
      <trkpt lat="46.94374" lon="-0.61922">
        <ele>138.8</ele>
        <time>2012-04-08T09:21:32Z</time>
      </trkpt>
      <trkpt lat="46.94377" lon="-0.61911">
        <ele>138.6</ele>
        <time>2012-04-08T09:21:33Z</time>
      </trkpt>
      <trkpt lat="46.9438" lon="-0.619">
        <ele>138.6</ele>
        <time>2012-04-08T09:21:34Z</time>
      </trkpt>
      <trkpt lat="46.94382" lon="-0.6189">
        <ele>138.5</ele>
        <time>2012-04-08T09:21:35Z</time>
      </trkpt>
      <trkpt lat="46.94385" lon="-0.61879">
        <ele>138.3</ele>
        <time>2012-04-08T09:21:36Z</time>
      </trkpt>
      <trkpt lat="46.94387" lon="-0.61869">
        <ele>138.3</ele>
        <time>2012-04-08T09:21:37Z</time>
      </trkpt>
      <trkpt lat="46.94389" lon="-0.61859">
        <ele>138.3</ele>
        <time>2012-04-08T09:21:38Z</time>
      </trkpt>
      <trkpt lat="46.94391" lon="-0.61849">
        <ele>138.3</ele>
        <time>2012-04-08T09:21:39Z</time>
      </trkpt>
      <trkpt lat="46.94393" lon="-0.61839">
        <ele>138.1</ele>
        <time>2012-04-08T09:21:40Z</time>
      </trkpt>
      <trkpt lat="46.94395" lon="-0.61829">
        <ele>138.1</ele>
        <time>2012-04-08T09:21:41Z</time>
      </trkpt>
      <trkpt lat="46.94396" lon="-0.6182">
        <ele>138.1</ele>
        <time>2012-04-08T09:21:42Z</time>
      </trkpt>
      <trkpt lat="46.94398" lon="-0.6181">
        <ele>138.1</ele>
        <time>2012-04-08T09:21:43Z</time>
      </trkpt>
      <trkpt lat="46.94398" lon="-0.61801">
        <ele>138.1</ele>
        <time>2012-04-08T09:21:44Z</time>
      </trkpt>
      <trkpt lat="46.94397" lon="-0.61791">
        <ele>138</ele>
        <time>2012-04-08T09:21:45Z</time>
      </trkpt>
      <trkpt lat="46.94397" lon="-0.61782">
        <ele>137.8</ele>
        <time>2012-04-08T09:21:46Z</time>
      </trkpt>
      <trkpt lat="46.94396" lon="-0.61773">
        <ele>137.8</ele>
        <time>2012-04-08T09:21:47Z</time>
      </trkpt>
      <trkpt lat="46.94396" lon="-0.61764">
        <ele>137.6</ele>
        <time>2012-04-08T09:21:48Z</time>
      </trkpt>
      <trkpt lat="46.94397" lon="-0.61757">
        <ele>137.5</ele>
        <time>2012-04-08T09:21:49Z</time>
      </trkpt>
      <trkpt lat="46.94404" lon="-0.61749">
        <ele>137.1</ele>
        <time>2012-04-08T09:21:51Z</time>
      </trkpt>
      <trkpt lat="46.94408" lon="-0.61739">
        <ele>137</ele>
        <time>2012-04-08T09:21:54Z</time>
      </trkpt>
      <trkpt lat="46.9441" lon="-0.61728">
        <ele>136.8</ele>
        <time>2012-04-08T09:21:59Z</time>
      </trkpt>
      <trkpt lat="46.9441" lon="-0.61716">
        <ele>136.8</ele>
        <time>2012-04-08T09:22:02Z</time>
      </trkpt>
      <trkpt lat="46.9441" lon="-0.61706">
        <ele>136.6</ele>
        <time>2012-04-08T09:22:04Z</time>
      </trkpt>
      <trkpt lat="46.94411" lon="-0.61695">
        <ele>136.6</ele>
        <time>2012-04-08T09:22:06Z</time>
      </trkpt>
      <trkpt lat="46.94412" lon="-0.61682">
        <ele>136.3</ele>
        <time>2012-04-08T09:22:09Z</time>
      </trkpt>
      <trkpt lat="46.94417" lon="-0.61673">
        <ele>135.8</ele>
        <time>2012-04-08T09:22:16Z</time>
      </trkpt>
      <trkpt lat="46.94421" lon="-0.61664">
        <ele>135.3</ele>
        <time>2012-04-08T09:22:20Z</time>
      </trkpt>
      <trkpt lat="46.94423" lon="-0.61654">
        <ele>135.1</ele>
        <time>2012-04-08T09:22:22Z</time>
      </trkpt>
      <trkpt lat="46.94424" lon="-0.61643">
        <ele>134.3</ele>
        <time>2012-04-08T09:22:24Z</time>
      </trkpt>
      <trkpt lat="46.94424" lon="-0.61631">
        <ele>133.1</ele>
        <time>2012-04-08T09:22:26Z</time>
      </trkpt>
      <trkpt lat="46.94423" lon="-0.61625">
        <ele>132.6</ele>
        <time>2012-04-08T09:22:27Z</time>
      </trkpt>
      <trkpt lat="46.94423" lon="-0.61618">
        <ele>132.1</ele>
        <time>2012-04-08T09:22:28Z</time>
      </trkpt>
      <trkpt lat="46.94423" lon="-0.61611">
        <ele>131.8</ele>
        <time>2012-04-08T09:22:29Z</time>
      </trkpt>
      <trkpt lat="46.94422" lon="-0.61604">
        <ele>131.6</ele>
        <time>2012-04-08T09:22:30Z</time>
      </trkpt>
      <trkpt lat="46.94421" lon="-0.61596">
        <ele>131.5</ele>
        <time>2012-04-08T09:22:31Z</time>
      </trkpt>
      <trkpt lat="46.94421" lon="-0.61589">
        <ele>131.3</ele>
        <time>2012-04-08T09:22:32Z</time>
      </trkpt>
      <trkpt lat="46.9442" lon="-0.61581">
        <ele>131.1</ele>
        <time>2012-04-08T09:22:33Z</time>
      </trkpt>
      <trkpt lat="46.94419" lon="-0.61574">
        <ele>131</ele>
        <time>2012-04-08T09:22:34Z</time>
      </trkpt>
      <trkpt lat="46.94418" lon="-0.61567">
        <ele>130.8</ele>
        <time>2012-04-08T09:22:35Z</time>
      </trkpt>
      <trkpt lat="46.94417" lon="-0.61561">
        <ele>130.6</ele>
        <time>2012-04-08T09:22:36Z</time>
      </trkpt>
      <trkpt lat="46.94417" lon="-0.61554">
        <ele>130.5</ele>
        <time>2012-04-08T09:22:37Z</time>
      </trkpt>
      <trkpt lat="46.94417" lon="-0.61547">
        <ele>130.3</ele>
        <time>2012-04-08T09:22:38Z</time>
      </trkpt>
      <trkpt lat="46.94416" lon="-0.6154">
        <ele>130.1</ele>
        <time>2012-04-08T09:22:39Z</time>
      </trkpt>
      <trkpt lat="46.94416" lon="-0.61533">
        <ele>129.8</ele>
        <time>2012-04-08T09:22:40Z</time>
      </trkpt>
      <trkpt lat="46.94415" lon="-0.61525">
        <ele>129.8</ele>
        <time>2012-04-08T09:22:41Z</time>
      </trkpt>
      <trkpt lat="46.94414" lon="-0.61518">
        <ele>129.6</ele>
        <time>2012-04-08T09:22:42Z</time>
      </trkpt>
      <trkpt lat="46.94413" lon="-0.61511">
        <ele>129.6</ele>
        <time>2012-04-08T09:22:43Z</time>
      </trkpt>
      <trkpt lat="46.94412" lon="-0.61503">
        <ele>129.6</ele>
        <time>2012-04-08T09:22:44Z</time>
      </trkpt>
      <trkpt lat="46.94411" lon="-0.61496">
        <ele>129.5</ele>
        <time>2012-04-08T09:22:45Z</time>
      </trkpt>
      <trkpt lat="46.9441" lon="-0.61485">
        <ele>129.5</ele>
        <time>2012-04-08T09:22:47Z</time>
      </trkpt>
      <trkpt lat="46.94409" lon="-0.61476">
        <ele>129.3</ele>
        <time>2012-04-08T09:22:49Z</time>
      </trkpt>
      <trkpt lat="46.94408" lon="-0.61464">
        <ele>129.6</ele>
        <time>2012-04-08T09:22:51Z</time>
      </trkpt>
      <trkpt lat="46.94407" lon="-0.61458">
        <ele>129.8</ele>
        <time>2012-04-08T09:22:52Z</time>
      </trkpt>
      <trkpt lat="46.94407" lon="-0.6145">
        <ele>130</ele>
        <time>2012-04-08T09:22:53Z</time>
      </trkpt>
      <trkpt lat="46.94405" lon="-0.61443">
        <ele>129.8</ele>
        <time>2012-04-08T09:22:54Z</time>
      </trkpt>
      <trkpt lat="46.94404" lon="-0.61435">
        <ele>129.8</ele>
        <time>2012-04-08T09:22:55Z</time>
      </trkpt>
      <trkpt lat="46.94403" lon="-0.61427">
        <ele>129.6</ele>
        <time>2012-04-08T09:22:56Z</time>
      </trkpt>
      <trkpt lat="46.94402" lon="-0.61419">
        <ele>129.6</ele>
        <time>2012-04-08T09:22:57Z</time>
      </trkpt>
      <trkpt lat="46.944" lon="-0.6141">
        <ele>129.6</ele>
        <time>2012-04-08T09:22:58Z</time>
      </trkpt>
      <trkpt lat="46.94399" lon="-0.61402">
        <ele>129.6</ele>
        <time>2012-04-08T09:22:59Z</time>
      </trkpt>
      <trkpt lat="46.94397" lon="-0.61394">
        <ele>129.8</ele>
        <time>2012-04-08T09:23:00Z</time>
      </trkpt>
      <trkpt lat="46.94395" lon="-0.61385">
        <ele>129.8</ele>
        <time>2012-04-08T09:23:01Z</time>
      </trkpt>
      <trkpt lat="46.94393" lon="-0.61377">
        <ele>129.8</ele>
        <time>2012-04-08T09:23:02Z</time>
      </trkpt>
      <trkpt lat="46.94392" lon="-0.61368">
        <ele>129.8</ele>
        <time>2012-04-08T09:23:03Z</time>
      </trkpt>
      <trkpt lat="46.9439" lon="-0.6136">
        <ele>129.8</ele>
        <time>2012-04-08T09:23:04Z</time>
      </trkpt>
      <trkpt lat="46.94388" lon="-0.61352">
        <ele>129.8</ele>
        <time>2012-04-08T09:23:05Z</time>
      </trkpt>
      <trkpt lat="46.94386" lon="-0.61343">
        <ele>129.8</ele>
        <time>2012-04-08T09:23:06Z</time>
      </trkpt>
      <trkpt lat="46.94384" lon="-0.61335">
        <ele>129.8</ele>
        <time>2012-04-08T09:23:07Z</time>
      </trkpt>
      <trkpt lat="46.94383" lon="-0.61328">
        <ele>129.8</ele>
        <time>2012-04-08T09:23:08Z</time>
      </trkpt>
      <trkpt lat="46.94381" lon="-0.61321">
        <ele>129.6</ele>
        <time>2012-04-08T09:23:09Z</time>
      </trkpt>
      <trkpt lat="46.9438" lon="-0.61313">
        <ele>129.6</ele>
        <time>2012-04-08T09:23:10Z</time>
      </trkpt>
      <trkpt lat="46.94378" lon="-0.61305">
        <ele>129.6</ele>
        <time>2012-04-08T09:23:11Z</time>
      </trkpt>
      <trkpt lat="46.94376" lon="-0.61298">
        <ele>129.5</ele>
        <time>2012-04-08T09:23:12Z</time>
      </trkpt>
      <trkpt lat="46.94375" lon="-0.61291">
        <ele>129.6</ele>
        <time>2012-04-08T09:23:13Z</time>
      </trkpt>
      <trkpt lat="46.94373" lon="-0.61284">
        <ele>129.6</ele>
        <time>2012-04-08T09:23:14Z</time>
      </trkpt>
      <trkpt lat="46.94372" lon="-0.61277">
        <ele>129.6</ele>
        <time>2012-04-08T09:23:15Z</time>
      </trkpt>
      <trkpt lat="46.9437" lon="-0.61266">
        <ele>129.6</ele>
        <time>2012-04-08T09:23:17Z</time>
      </trkpt>
      <trkpt lat="46.94368" lon="-0.61255">
        <ele>129.6</ele>
        <time>2012-04-08T09:23:19Z</time>
      </trkpt>
      <trkpt lat="46.94365" lon="-0.61244">
        <ele>129.5</ele>
        <time>2012-04-08T09:23:22Z</time>
      </trkpt>
      <trkpt lat="46.94364" lon="-0.61241">
        <ele>129.5</ele>
        <time>2012-04-08T09:23:30Z</time>
      </trkpt>
      <trkpt lat="46.94359" lon="-0.6123">
        <ele>129</ele>
        <time>2012-04-08T09:23:32Z</time>
      </trkpt>
      <trkpt lat="46.94357" lon="-0.61222">
        <ele>128.8</ele>
        <time>2012-04-08T09:23:34Z</time>
      </trkpt>
      <trkpt lat="46.94353" lon="-0.6121">
        <ele>128.5</ele>
        <time>2012-04-08T09:23:36Z</time>
      </trkpt>
      <trkpt lat="46.94351" lon="-0.61198">
        <ele>128.3</ele>
        <time>2012-04-08T09:23:38Z</time>
      </trkpt>
      <trkpt lat="46.94348" lon="-0.61186">
        <ele>128.1</ele>
        <time>2012-04-08T09:23:40Z</time>
      </trkpt>
      <trkpt lat="46.94346" lon="-0.61179">
        <ele>128</ele>
        <time>2012-04-08T09:23:41Z</time>
      </trkpt>
      <trkpt lat="46.94345" lon="-0.61171">
        <ele>128</ele>
        <time>2012-04-08T09:23:42Z</time>
      </trkpt>
      <trkpt lat="46.94343" lon="-0.61163">
        <ele>128</ele>
        <time>2012-04-08T09:23:43Z</time>
      </trkpt>
      <trkpt lat="46.94342" lon="-0.61154">
        <ele>128</ele>
        <time>2012-04-08T09:23:44Z</time>
      </trkpt>
      <trkpt lat="46.9434" lon="-0.61146">
        <ele>127.9</ele>
        <time>2012-04-08T09:23:45Z</time>
      </trkpt>
      <trkpt lat="46.94339" lon="-0.61138">
        <ele>127.8</ele>
        <time>2012-04-08T09:23:46Z</time>
      </trkpt>
      <trkpt lat="46.94337" lon="-0.6113">
        <ele>127.8</ele>
        <time>2012-04-08T09:23:47Z</time>
      </trkpt>
      <trkpt lat="46.94335" lon="-0.61121">
        <ele>127.8</ele>
        <time>2012-04-08T09:23:48Z</time>
      </trkpt>
      <trkpt lat="46.94334" lon="-0.61113">
        <ele>127.5</ele>
        <time>2012-04-08T09:23:49Z</time>
      </trkpt>
      <trkpt lat="46.94333" lon="-0.61105">
        <ele>127.4</ele>
        <time>2012-04-08T09:23:50Z</time>
      </trkpt>
      <trkpt lat="46.94332" lon="-0.61097">
        <ele>127</ele>
        <time>2012-04-08T09:23:51Z</time>
      </trkpt>
      <trkpt lat="46.94332" lon="-0.61089">
        <ele>126.8</ele>
        <time>2012-04-08T09:23:52Z</time>
      </trkpt>
      <trkpt lat="46.94331" lon="-0.6108">
        <ele>126.5</ele>
        <time>2012-04-08T09:23:53Z</time>
      </trkpt>
      <trkpt lat="46.94331" lon="-0.61071">
        <ele>126</ele>
        <time>2012-04-08T09:23:54Z</time>
      </trkpt>
      <trkpt lat="46.94331" lon="-0.61062">
        <ele>125.9</ele>
        <time>2012-04-08T09:23:55Z</time>
      </trkpt>
      <trkpt lat="46.9433" lon="-0.61053">
        <ele>125.5</ele>
        <time>2012-04-08T09:23:56Z</time>
      </trkpt>
      <trkpt lat="46.9433" lon="-0.61044">
        <ele>125.5</ele>
        <time>2012-04-08T09:23:57Z</time>
      </trkpt>
      <trkpt lat="46.9433" lon="-0.61035">
        <ele>125.5</ele>
        <time>2012-04-08T09:23:58Z</time>
      </trkpt>
      <trkpt lat="46.9433" lon="-0.61027">
        <ele>125.4</ele>
        <time>2012-04-08T09:23:59Z</time>
      </trkpt>
      <trkpt lat="46.9433" lon="-0.61018">
        <ele>125.4</ele>
        <time>2012-04-08T09:24:00Z</time>
      </trkpt>
      <trkpt lat="46.94331" lon="-0.6101">
        <ele>125.5</ele>
        <time>2012-04-08T09:24:01Z</time>
      </trkpt>
      <trkpt lat="46.94331" lon="-0.61001">
        <ele>125.5</ele>
        <time>2012-04-08T09:24:02Z</time>
      </trkpt>
      <trkpt lat="46.94332" lon="-0.60993">
        <ele>125.9</ele>
        <time>2012-04-08T09:24:03Z</time>
      </trkpt>
      <trkpt lat="46.94333" lon="-0.60985">
        <ele>126.3</ele>
        <time>2012-04-08T09:24:04Z</time>
      </trkpt>
      <trkpt lat="46.94334" lon="-0.60978">
        <ele>126.5</ele>
        <time>2012-04-08T09:24:05Z</time>
      </trkpt>
      <trkpt lat="46.94334" lon="-0.60966">
        <ele>126.4</ele>
        <time>2012-04-08T09:24:07Z</time>
      </trkpt>
      <trkpt lat="46.94337" lon="-0.60957">
        <ele>126.3</ele>
        <time>2012-04-08T09:24:14Z</time>
      </trkpt>
      <trkpt lat="46.94342" lon="-0.60948">
        <ele>126</ele>
        <time>2012-04-08T09:24:16Z</time>
      </trkpt>
      <trkpt lat="46.94343" lon="-0.6094">
        <ele>125.8</ele>
        <time>2012-04-08T09:24:18Z</time>
      </trkpt>
      <trkpt lat="46.94343" lon="-0.60929">
        <ele>125.5</ele>
        <time>2012-04-08T09:24:20Z</time>
      </trkpt>
      <trkpt lat="46.94344" lon="-0.60922">
        <ele>124.3</ele>
        <time>2012-04-08T09:24:21Z</time>
      </trkpt>
      <trkpt lat="46.94344" lon="-0.60915">
        <ele>123.3</ele>
        <time>2012-04-08T09:24:22Z</time>
      </trkpt>
      <trkpt lat="46.94345" lon="-0.60908">
        <ele>122.5</ele>
        <time>2012-04-08T09:24:23Z</time>
      </trkpt>
      <trkpt lat="46.94345" lon="-0.609">
        <ele>121.9</ele>
        <time>2012-04-08T09:24:24Z</time>
      </trkpt>
      <trkpt lat="46.94346" lon="-0.60892">
        <ele>121.5</ele>
        <time>2012-04-08T09:24:25Z</time>
      </trkpt>
      <trkpt lat="46.94346" lon="-0.60884">
        <ele>121.5</ele>
        <time>2012-04-08T09:24:26Z</time>
      </trkpt>
      <trkpt lat="46.94347" lon="-0.60875">
        <ele>121.5</ele>
        <time>2012-04-08T09:24:27Z</time>
      </trkpt>
      <trkpt lat="46.94347" lon="-0.60867">
        <ele>121.9</ele>
        <time>2012-04-08T09:24:28Z</time>
      </trkpt>
      <trkpt lat="46.94347" lon="-0.60859">
        <ele>122</ele>
        <time>2012-04-08T09:24:29Z</time>
      </trkpt>
      <trkpt lat="46.94347" lon="-0.6085">
        <ele>122.4</ele>
        <time>2012-04-08T09:24:30Z</time>
      </trkpt>
      <trkpt lat="46.94347" lon="-0.60842">
        <ele>122.5</ele>
        <time>2012-04-08T09:24:31Z</time>
      </trkpt>
      <trkpt lat="46.94348" lon="-0.60834">
        <ele>122.8</ele>
        <time>2012-04-08T09:24:32Z</time>
      </trkpt>
      <trkpt lat="46.94348" lon="-0.60825">
        <ele>123</ele>
        <time>2012-04-08T09:24:33Z</time>
      </trkpt>
      <trkpt lat="46.94348" lon="-0.60817">
        <ele>123</ele>
        <time>2012-04-08T09:24:34Z</time>
      </trkpt>
      <trkpt lat="46.94348" lon="-0.60809">
        <ele>123.3</ele>
        <time>2012-04-08T09:24:35Z</time>
      </trkpt>
      <trkpt lat="46.94349" lon="-0.60801">
        <ele>123.4</ele>
        <time>2012-04-08T09:24:36Z</time>
      </trkpt>
      <trkpt lat="46.9435" lon="-0.60793">
        <ele>123.5</ele>
        <time>2012-04-08T09:24:37Z</time>
      </trkpt>
      <trkpt lat="46.9435" lon="-0.60784">
        <ele>123.8</ele>
        <time>2012-04-08T09:24:38Z</time>
      </trkpt>
      <trkpt lat="46.94351" lon="-0.60776">
        <ele>124</ele>
        <time>2012-04-08T09:24:39Z</time>
      </trkpt>
      <trkpt lat="46.94351" lon="-0.60769">
        <ele>124</ele>
        <time>2012-04-08T09:24:40Z</time>
      </trkpt>
      <trkpt lat="46.94352" lon="-0.60761">
        <ele>124</ele>
        <time>2012-04-08T09:24:41Z</time>
      </trkpt>
      <trkpt lat="46.94353" lon="-0.60753">
        <ele>124</ele>
        <time>2012-04-08T09:24:42Z</time>
      </trkpt>
      <trkpt lat="46.94353" lon="-0.60746">
        <ele>124</ele>
        <time>2012-04-08T09:24:43Z</time>
      </trkpt>
      <trkpt lat="46.94354" lon="-0.60739">
        <ele>124</ele>
        <time>2012-04-08T09:24:44Z</time>
      </trkpt>
      <trkpt lat="46.94355" lon="-0.60731">
        <ele>124</ele>
        <time>2012-04-08T09:24:45Z</time>
      </trkpt>
      <trkpt lat="46.94355" lon="-0.60724">
        <ele>124</ele>
        <time>2012-04-08T09:24:46Z</time>
      </trkpt>
      <trkpt lat="46.94356" lon="-0.60717">
        <ele>124</ele>
        <time>2012-04-08T09:24:47Z</time>
      </trkpt>
      <trkpt lat="46.94356" lon="-0.60709">
        <ele>124</ele>
        <time>2012-04-08T09:24:48Z</time>
      </trkpt>
      <trkpt lat="46.94357" lon="-0.60702">
        <ele>124.3</ele>
        <time>2012-04-08T09:24:49Z</time>
      </trkpt>
      <trkpt lat="46.94357" lon="-0.6069">
        <ele>124.3</ele>
        <time>2012-04-08T09:24:51Z</time>
      </trkpt>
      <trkpt lat="46.94357" lon="-0.60683">
        <ele>124.3</ele>
        <time>2012-04-08T09:24:56Z</time>
      </trkpt>
      <trkpt lat="46.94355" lon="-0.60673">
        <ele>123.9</ele>
        <time>2012-04-08T09:24:59Z</time>
      </trkpt>
      <trkpt lat="46.94355" lon="-0.60665">
        <ele>123.8</ele>
        <time>2012-04-08T09:25:01Z</time>
      </trkpt>
      <trkpt lat="46.94355" lon="-0.60654">
        <ele>123.5</ele>
        <time>2012-04-08T09:25:03Z</time>
      </trkpt>
      <trkpt lat="46.94355" lon="-0.60643">
        <ele>123.4</ele>
        <time>2012-04-08T09:25:05Z</time>
      </trkpt>
      <trkpt lat="46.94355" lon="-0.6063">
        <ele>122.8</ele>
        <time>2012-04-08T09:25:07Z</time>
      </trkpt>
      <trkpt lat="46.94355" lon="-0.60624">
        <ele>122.3</ele>
        <time>2012-04-08T09:25:08Z</time>
      </trkpt>
      <trkpt lat="46.94354" lon="-0.60616">
        <ele>122</ele>
        <time>2012-04-08T09:25:09Z</time>
      </trkpt>
      <trkpt lat="46.94354" lon="-0.60609">
        <ele>122</ele>
        <time>2012-04-08T09:25:10Z</time>
      </trkpt>
      <trkpt lat="46.94353" lon="-0.60601">
        <ele>122</ele>
        <time>2012-04-08T09:25:11Z</time>
      </trkpt>
      <trkpt lat="46.94352" lon="-0.60593">
        <ele>122.4</ele>
        <time>2012-04-08T09:25:12Z</time>
      </trkpt>
      <trkpt lat="46.94352" lon="-0.60585">
        <ele>122.5</ele>
        <time>2012-04-08T09:25:13Z</time>
      </trkpt>
      <trkpt lat="46.94351" lon="-0.60577">
        <ele>122.5</ele>
        <time>2012-04-08T09:25:14Z</time>
      </trkpt>
      <trkpt lat="46.9435" lon="-0.6057">
        <ele>122.5</ele>
        <time>2012-04-08T09:25:15Z</time>
      </trkpt>
      <trkpt lat="46.9435" lon="-0.60559">
        <ele>122.5</ele>
        <time>2012-04-08T09:25:17Z</time>
      </trkpt>
      <trkpt lat="46.9435" lon="-0.60549">
        <ele>122.5</ele>
        <time>2012-04-08T09:25:33Z</time>
      </trkpt>
      <trkpt lat="46.94352" lon="-0.6054">
        <ele>122.9</ele>
        <time>2012-04-08T09:25:34Z</time>
      </trkpt>
      <trkpt lat="46.94351" lon="-0.60528">
        <ele>123</ele>
        <time>2012-04-08T09:25:37Z</time>
      </trkpt>
      <trkpt lat="46.94349" lon="-0.60517">
        <ele>123</ele>
        <time>2012-04-08T09:25:40Z</time>
      </trkpt>
      <trkpt lat="46.94348" lon="-0.60508">
        <ele>123.3</ele>
        <time>2012-04-08T09:25:42Z</time>
      </trkpt>
      <trkpt lat="46.94348" lon="-0.60503">
        <ele>123.4</ele>
        <time>2012-04-08T09:25:43Z</time>
      </trkpt>
      <trkpt lat="46.94347" lon="-0.60487">
        <ele>123.5</ele>
        <time>2012-04-08T09:25:46Z</time>
      </trkpt>
      <trkpt lat="46.94346" lon="-0.60476">
        <ele>123.5</ele>
        <time>2012-04-08T09:25:48Z</time>
      </trkpt>
      <trkpt lat="46.94344" lon="-0.60464">
        <ele>123.5</ele>
        <time>2012-04-08T09:25:50Z</time>
      </trkpt>
      <trkpt lat="46.94342" lon="-0.60453">
        <ele>123.8</ele>
        <time>2012-04-08T09:25:52Z</time>
      </trkpt>
      <trkpt lat="46.94341" lon="-0.60446">
        <ele>124.5</ele>
        <time>2012-04-08T09:25:53Z</time>
      </trkpt>
      <trkpt lat="46.9434" lon="-0.60439">
        <ele>125</ele>
        <time>2012-04-08T09:25:54Z</time>
      </trkpt>
      <trkpt lat="46.94338" lon="-0.60431">
        <ele>125.5</ele>
        <time>2012-04-08T09:25:55Z</time>
      </trkpt>
      <trkpt lat="46.94337" lon="-0.60423">
        <ele>126</ele>
        <time>2012-04-08T09:25:56Z</time>
      </trkpt>
      <trkpt lat="46.94335" lon="-0.60414">
        <ele>126</ele>
        <time>2012-04-08T09:25:57Z</time>
      </trkpt>
      <trkpt lat="46.94334" lon="-0.60405">
        <ele>126</ele>
        <time>2012-04-08T09:25:58Z</time>
      </trkpt>
      <trkpt lat="46.94332" lon="-0.60397">
        <ele>126.4</ele>
        <time>2012-04-08T09:25:59Z</time>
      </trkpt>
      <trkpt lat="46.9433" lon="-0.60388">
        <ele>126.5</ele>
        <time>2012-04-08T09:26:00Z</time>
      </trkpt>
      <trkpt lat="46.94328" lon="-0.6038">
        <ele>126.9</ele>
        <time>2012-04-08T09:26:01Z</time>
      </trkpt>
      <trkpt lat="46.94327" lon="-0.60372">
        <ele>127.3</ele>
        <time>2012-04-08T09:26:02Z</time>
      </trkpt>
      <trkpt lat="46.94325" lon="-0.60364">
        <ele>127.5</ele>
        <time>2012-04-08T09:26:03Z</time>
      </trkpt>
      <trkpt lat="46.94323" lon="-0.60356">
        <ele>127.8</ele>
        <time>2012-04-08T09:26:04Z</time>
      </trkpt>
      <trkpt lat="46.94322" lon="-0.60348">
        <ele>127.9</ele>
        <time>2012-04-08T09:26:05Z</time>
      </trkpt>
      <trkpt lat="46.9432" lon="-0.60341">
        <ele>128</ele>
        <time>2012-04-08T09:26:06Z</time>
      </trkpt>
      <trkpt lat="46.94319" lon="-0.60333">
        <ele>128.1</ele>
        <time>2012-04-08T09:26:07Z</time>
      </trkpt>
      <trkpt lat="46.94318" lon="-0.60326">
        <ele>128.1</ele>
        <time>2012-04-08T09:26:08Z</time>
      </trkpt>
      <trkpt lat="46.94316" lon="-0.60318">
        <ele>128.3</ele>
        <time>2012-04-08T09:26:09Z</time>
      </trkpt>
      <trkpt lat="46.94315" lon="-0.60311">
        <ele>128.5</ele>
        <time>2012-04-08T09:26:10Z</time>
      </trkpt>
      <trkpt lat="46.94313" lon="-0.60304">
        <ele>128.6</ele>
        <time>2012-04-08T09:26:11Z</time>
      </trkpt>
      <trkpt lat="46.94312" lon="-0.60296">
        <ele>128.6</ele>
        <time>2012-04-08T09:26:12Z</time>
      </trkpt>
      <trkpt lat="46.94311" lon="-0.60288">
        <ele>128.8</ele>
        <time>2012-04-08T09:26:13Z</time>
      </trkpt>
      <trkpt lat="46.94309" lon="-0.60281">
        <ele>129</ele>
        <time>2012-04-08T09:26:14Z</time>
      </trkpt>
      <trkpt lat="46.94307" lon="-0.60273">
        <ele>129.1</ele>
        <time>2012-04-08T09:26:15Z</time>
      </trkpt>
      <trkpt lat="46.94306" lon="-0.60265">
        <ele>129.1</ele>
        <time>2012-04-08T09:26:16Z</time>
      </trkpt>
      <trkpt lat="46.94304" lon="-0.60257">
        <ele>129.3</ele>
        <time>2012-04-08T09:26:17Z</time>
      </trkpt>
      <trkpt lat="46.94303" lon="-0.60249">
        <ele>129.3</ele>
        <time>2012-04-08T09:26:18Z</time>
      </trkpt>
      <trkpt lat="46.94301" lon="-0.60242">
        <ele>129.3</ele>
        <time>2012-04-08T09:26:19Z</time>
      </trkpt>
      <trkpt lat="46.943" lon="-0.60234">
        <ele>129.3</ele>
        <time>2012-04-08T09:26:20Z</time>
      </trkpt>
      <trkpt lat="46.94298" lon="-0.60227">
        <ele>129.3</ele>
        <time>2012-04-08T09:26:21Z</time>
      </trkpt>
      <trkpt lat="46.94297" lon="-0.6022">
        <ele>129.5</ele>
        <time>2012-04-08T09:26:22Z</time>
      </trkpt>
      <trkpt lat="46.94295" lon="-0.60213">
        <ele>129.1</ele>
        <time>2012-04-08T09:26:23Z</time>
      </trkpt>
      <trkpt lat="46.94294" lon="-0.60206">
        <ele>128.8</ele>
        <time>2012-04-08T09:26:24Z</time>
      </trkpt>
      <trkpt lat="46.94291" lon="-0.60194">
        <ele>128.5</ele>
        <time>2012-04-08T09:26:26Z</time>
      </trkpt>
      <trkpt lat="46.94288" lon="-0.60182">
        <ele>128.3</ele>
        <time>2012-04-08T09:26:29Z</time>
      </trkpt>
      <trkpt lat="46.94287" lon="-0.60169">
        <ele>128.1</ele>
        <time>2012-04-08T09:26:34Z</time>
      </trkpt>
      <trkpt lat="46.94286" lon="-0.6016">
        <ele>128.1</ele>
        <time>2012-04-08T09:26:36Z</time>
      </trkpt>
      <trkpt lat="46.94284" lon="-0.60149">
        <ele>128</ele>
        <time>2012-04-08T09:26:38Z</time>
      </trkpt>
      <trkpt lat="46.94281" lon="-0.60137">
        <ele>126.5</ele>
        <time>2012-04-08T09:26:40Z</time>
      </trkpt>
      <trkpt lat="46.94278" lon="-0.60125">
        <ele>125</ele>
        <time>2012-04-08T09:26:42Z</time>
      </trkpt>
      <trkpt lat="46.94276" lon="-0.60115">
        <ele>125</ele>
        <time>2012-04-08T09:26:45Z</time>
      </trkpt>
      <trkpt lat="46.94275" lon="-0.60112">
        <ele>124.9</ele>
        <time>2012-04-08T09:26:46Z</time>
      </trkpt>
      <trkpt lat="46.94271" lon="-0.60096">
        <ele>124.8</ele>
        <time>2012-04-08T09:26:49Z</time>
      </trkpt>
      <trkpt lat="46.94269" lon="-0.60084">
        <ele>124.5</ele>
        <time>2012-04-08T09:26:51Z</time>
      </trkpt>
      <trkpt lat="46.94268" lon="-0.60072">
        <ele>123.5</ele>
        <time>2012-04-08T09:26:53Z</time>
      </trkpt>
      <trkpt lat="46.94266" lon="-0.60065">
        <ele>123.4</ele>
        <time>2012-04-08T09:26:54Z</time>
      </trkpt>
      <trkpt lat="46.94264" lon="-0.60058">
        <ele>123</ele>
        <time>2012-04-08T09:26:55Z</time>
      </trkpt>
      <trkpt lat="46.94262" lon="-0.6005">
        <ele>122.9</ele>
        <time>2012-04-08T09:26:56Z</time>
      </trkpt>
      <trkpt lat="46.9426" lon="-0.60042">
        <ele>122.9</ele>
        <time>2012-04-08T09:26:57Z</time>
      </trkpt>
      <trkpt lat="46.94258" lon="-0.60034">
        <ele>122.8</ele>
        <time>2012-04-08T09:26:58Z</time>
      </trkpt>
      <trkpt lat="46.94257" lon="-0.60027">
        <ele>123</ele>
        <time>2012-04-08T09:26:59Z</time>
      </trkpt>
      <trkpt lat="46.94255" lon="-0.6002">
        <ele>123</ele>
        <time>2012-04-08T09:27:00Z</time>
      </trkpt>
      <trkpt lat="46.94254" lon="-0.60013">
        <ele>123</ele>
        <time>2012-04-08T09:27:01Z</time>
      </trkpt>
      <trkpt lat="46.94253" lon="-0.60006">
        <ele>123</ele>
        <time>2012-04-08T09:27:02Z</time>
      </trkpt>
      <trkpt lat="46.94251" lon="-0.6">
        <ele>123</ele>
        <time>2012-04-08T09:27:03Z</time>
      </trkpt>
      <trkpt lat="46.9425" lon="-0.59993">
        <ele>123.3</ele>
        <time>2012-04-08T09:27:04Z</time>
      </trkpt>
      <trkpt lat="46.94249" lon="-0.59987">
        <ele>123.4</ele>
        <time>2012-04-08T09:27:05Z</time>
      </trkpt>
      <trkpt lat="46.94246" lon="-0.59974">
        <ele>123.5</ele>
        <time>2012-04-08T09:27:07Z</time>
      </trkpt>
      <trkpt lat="46.94245" lon="-0.59965">
        <ele>123.5</ele>
        <time>2012-04-08T09:27:09Z</time>
      </trkpt>
      <trkpt lat="46.94242" lon="-0.59954">
        <ele>123.5</ele>
        <time>2012-04-08T09:27:12Z</time>
      </trkpt>
      <trkpt lat="46.9424" lon="-0.59943">
        <ele>123.5</ele>
        <time>2012-04-08T09:27:15Z</time>
      </trkpt>
      <trkpt lat="46.94239" lon="-0.59933">
        <ele>123.5</ele>
        <time>2012-04-08T09:27:17Z</time>
      </trkpt>
      <trkpt lat="46.94239" lon="-0.59922">
        <ele>123.5</ele>
        <time>2012-04-08T09:27:19Z</time>
      </trkpt>
      <trkpt lat="46.94238" lon="-0.5991">
        <ele>123.5</ele>
        <time>2012-04-08T09:27:21Z</time>
      </trkpt>
      <trkpt lat="46.94238" lon="-0.59901">
        <ele>123.4</ele>
        <time>2012-04-08T09:27:23Z</time>
      </trkpt>
      <trkpt lat="46.94235" lon="-0.59891">
        <ele>123.4</ele>
        <time>2012-04-08T09:27:25Z</time>
      </trkpt>
      <trkpt lat="46.94233" lon="-0.5988">
        <ele>123.5</ele>
        <time>2012-04-08T09:27:27Z</time>
      </trkpt>
      <trkpt lat="46.94231" lon="-0.59868">
        <ele>123.5</ele>
        <time>2012-04-08T09:27:29Z</time>
      </trkpt>
      <trkpt lat="46.94227" lon="-0.59858">
        <ele>123.5</ele>
        <time>2012-04-08T09:27:31Z</time>
      </trkpt>
      <trkpt lat="46.94224" lon="-0.59846">
        <ele>123.8</ele>
        <time>2012-04-08T09:27:33Z</time>
      </trkpt>
      <trkpt lat="46.94222" lon="-0.59837">
        <ele>123.9</ele>
        <time>2012-04-08T09:27:35Z</time>
      </trkpt>
      <trkpt lat="46.94222" lon="-0.59826">
        <ele>124</ele>
        <time>2012-04-08T09:27:37Z</time>
      </trkpt>
      <trkpt lat="46.94221" lon="-0.59814">
        <ele>124</ele>
        <time>2012-04-08T09:27:39Z</time>
      </trkpt>
      <trkpt lat="46.94221" lon="-0.59805">
        <ele>124</ele>
        <time>2012-04-08T09:27:41Z</time>
      </trkpt>
      <trkpt lat="46.94218" lon="-0.59796">
        <ele>123.9</ele>
        <time>2012-04-08T09:27:43Z</time>
      </trkpt>
      <trkpt lat="46.94214" lon="-0.59785">
        <ele>123.5</ele>
        <time>2012-04-08T09:27:45Z</time>
      </trkpt>
      <trkpt lat="46.94213" lon="-0.59773">
        <ele>123.5</ele>
        <time>2012-04-08T09:27:47Z</time>
      </trkpt>
      <trkpt lat="46.94213" lon="-0.59767">
        <ele>123.5</ele>
        <time>2012-04-08T09:27:48Z</time>
      </trkpt>
      <trkpt lat="46.94212" lon="-0.59751">
        <ele>123.4</ele>
        <time>2012-04-08T09:27:51Z</time>
      </trkpt>
      <trkpt lat="46.9421" lon="-0.59742">
        <ele>123.3</ele>
        <time>2012-04-08T09:27:53Z</time>
      </trkpt>
      <trkpt lat="46.94208" lon="-0.59731">
        <ele>123</ele>
        <time>2012-04-08T09:27:55Z</time>
      </trkpt>
      <trkpt lat="46.94205" lon="-0.59718">
        <ele>123</ele>
        <time>2012-04-08T09:27:57Z</time>
      </trkpt>
      <trkpt lat="46.94204" lon="-0.59712">
        <ele>123</ele>
        <time>2012-04-08T09:27:58Z</time>
      </trkpt>
      <trkpt lat="46.94202" lon="-0.59705">
        <ele>123</ele>
        <time>2012-04-08T09:27:59Z</time>
      </trkpt>
      <trkpt lat="46.94201" lon="-0.59698">
        <ele>123</ele>
        <time>2012-04-08T09:28:00Z</time>
      </trkpt>
      <trkpt lat="46.94199" lon="-0.5969">
        <ele>122.5</ele>
        <time>2012-04-08T09:28:01Z</time>
      </trkpt>
      <trkpt lat="46.94198" lon="-0.59682">
        <ele>122.4</ele>
        <time>2012-04-08T09:28:02Z</time>
      </trkpt>
      <trkpt lat="46.94196" lon="-0.59673">
        <ele>122</ele>
        <time>2012-04-08T09:28:03Z</time>
      </trkpt>
      <trkpt lat="46.94195" lon="-0.59664">
        <ele>121.9</ele>
        <time>2012-04-08T09:28:04Z</time>
      </trkpt>
      <trkpt lat="46.94194" lon="-0.59655">
        <ele>121.5</ele>
        <time>2012-04-08T09:28:05Z</time>
      </trkpt>
      <trkpt lat="46.94193" lon="-0.59646">
        <ele>121.4</ele>
        <time>2012-04-08T09:28:06Z</time>
      </trkpt>
      <trkpt lat="46.94192" lon="-0.59637">
        <ele>121.3</ele>
        <time>2012-04-08T09:28:07Z</time>
      </trkpt>
      <trkpt lat="46.9419" lon="-0.59629">
        <ele>121</ele>
        <time>2012-04-08T09:28:08Z</time>
      </trkpt>
      <trkpt lat="46.94189" lon="-0.59623">
        <ele>120.9</ele>
        <time>2012-04-08T09:28:09Z</time>
      </trkpt>
      <trkpt lat="46.94187" lon="-0.59611">
        <ele>120.5</ele>
        <time>2012-04-08T09:28:11Z</time>
      </trkpt>
      <trkpt lat="46.94184" lon="-0.59599">
        <ele>120.3</ele>
        <time>2012-04-08T09:28:13Z</time>
      </trkpt>
      <trkpt lat="46.94181" lon="-0.59587">
        <ele>120</ele>
        <time>2012-04-08T09:28:15Z</time>
      </trkpt>
      <trkpt lat="46.94179" lon="-0.59574">
        <ele>119.9</ele>
        <time>2012-04-08T09:28:17Z</time>
      </trkpt>
      <trkpt lat="46.94176" lon="-0.59562">
        <ele>119.8</ele>
        <time>2012-04-08T09:28:19Z</time>
      </trkpt>
      <trkpt lat="46.94174" lon="-0.5955">
        <ele>119.5</ele>
        <time>2012-04-08T09:28:21Z</time>
      </trkpt>
      <trkpt lat="46.94171" lon="-0.59538">
        <ele>119.5</ele>
        <time>2012-04-08T09:28:23Z</time>
      </trkpt>
      <trkpt lat="46.94169" lon="-0.59526">
        <ele>119.5</ele>
        <time>2012-04-08T09:28:25Z</time>
      </trkpt>
      <trkpt lat="46.94166" lon="-0.59514">
        <ele>119.3</ele>
        <time>2012-04-08T09:28:27Z</time>
      </trkpt>
      <trkpt lat="46.94165" lon="-0.59508">
        <ele>119.3</ele>
        <time>2012-04-08T09:28:28Z</time>
      </trkpt>
      <trkpt lat="46.94164" lon="-0.59501">
        <ele>119</ele>
        <time>2012-04-08T09:28:29Z</time>
      </trkpt>
      <trkpt lat="46.94162" lon="-0.59495">
        <ele>119</ele>
        <time>2012-04-08T09:28:30Z</time>
      </trkpt>
      <trkpt lat="46.94161" lon="-0.59488">
        <ele>119</ele>
        <time>2012-04-08T09:28:31Z</time>
      </trkpt>
      <trkpt lat="46.9416" lon="-0.59481">
        <ele>119</ele>
        <time>2012-04-08T09:28:32Z</time>
      </trkpt>
      <trkpt lat="46.94158" lon="-0.59475">
        <ele>119</ele>
        <time>2012-04-08T09:28:33Z</time>
      </trkpt>
      <trkpt lat="46.94157" lon="-0.59468">
        <ele>119</ele>
        <time>2012-04-08T09:28:34Z</time>
      </trkpt>
      <trkpt lat="46.94155" lon="-0.59462">
        <ele>119</ele>
        <time>2012-04-08T09:28:35Z</time>
      </trkpt>
      <trkpt lat="46.94154" lon="-0.59455">
        <ele>119</ele>
        <time>2012-04-08T09:28:36Z</time>
      </trkpt>
      <trkpt lat="46.94153" lon="-0.59449">
        <ele>119</ele>
        <time>2012-04-08T09:28:37Z</time>
      </trkpt>
      <trkpt lat="46.94151" lon="-0.59442">
        <ele>119</ele>
        <time>2012-04-08T09:28:38Z</time>
      </trkpt>
      <trkpt lat="46.9415" lon="-0.59436">
        <ele>119</ele>
        <time>2012-04-08T09:28:39Z</time>
      </trkpt>
      <trkpt lat="46.94149" lon="-0.59429">
        <ele>119</ele>
        <time>2012-04-08T09:28:40Z</time>
      </trkpt>
      <trkpt lat="46.94148" lon="-0.59423">
        <ele>119</ele>
        <time>2012-04-08T09:28:41Z</time>
      </trkpt>
      <trkpt lat="46.94146" lon="-0.59416">
        <ele>118.9</ele>
        <time>2012-04-08T09:28:42Z</time>
      </trkpt>
      <trkpt lat="46.94145" lon="-0.5941">
        <ele>118.8</ele>
        <time>2012-04-08T09:28:43Z</time>
      </trkpt>
      <trkpt lat="46.94144" lon="-0.59403">
        <ele>118.8</ele>
        <time>2012-04-08T09:28:44Z</time>
      </trkpt>
      <trkpt lat="46.94143" lon="-0.59397">
        <ele>118.5</ele>
        <time>2012-04-08T09:28:45Z</time>
      </trkpt>
      <trkpt lat="46.94141" lon="-0.5939">
        <ele>118.5</ele>
        <time>2012-04-08T09:28:46Z</time>
      </trkpt>
      <trkpt lat="46.9414" lon="-0.59383">
        <ele>118.8</ele>
        <time>2012-04-08T09:28:47Z</time>
      </trkpt>
      <trkpt lat="46.94139" lon="-0.59377">
        <ele>118.5</ele>
        <time>2012-04-08T09:28:48Z</time>
      </trkpt>
      <trkpt lat="46.94138" lon="-0.5937">
        <ele>118.5</ele>
        <time>2012-04-08T09:28:49Z</time>
      </trkpt>
      <trkpt lat="46.94137" lon="-0.59364">
        <ele>118.5</ele>
        <time>2012-04-08T09:28:50Z</time>
      </trkpt>
      <trkpt lat="46.94136" lon="-0.59357">
        <ele>118.5</ele>
        <time>2012-04-08T09:28:51Z</time>
      </trkpt>
      <trkpt lat="46.94135" lon="-0.5935">
        <ele>118.5</ele>
        <time>2012-04-08T09:28:52Z</time>
      </trkpt>
      <trkpt lat="46.94134" lon="-0.59344">
        <ele>118.5</ele>
        <time>2012-04-08T09:28:53Z</time>
      </trkpt>
      <trkpt lat="46.94132" lon="-0.59337">
        <ele>118.5</ele>
        <time>2012-04-08T09:28:54Z</time>
      </trkpt>
      <trkpt lat="46.94132" lon="-0.5933">
        <ele>118.5</ele>
        <time>2012-04-08T09:28:55Z</time>
      </trkpt>
      <trkpt lat="46.9413" lon="-0.59324">
        <ele>118.5</ele>
        <time>2012-04-08T09:28:56Z</time>
      </trkpt>
      <trkpt lat="46.94129" lon="-0.59317">
        <ele>118.5</ele>
        <time>2012-04-08T09:28:57Z</time>
      </trkpt>
      <trkpt lat="46.94128" lon="-0.5931">
        <ele>118.4</ele>
        <time>2012-04-08T09:28:58Z</time>
      </trkpt>
      <trkpt lat="46.94127" lon="-0.59303">
        <ele>118.3</ele>
        <time>2012-04-08T09:28:59Z</time>
      </trkpt>
      <trkpt lat="46.94126" lon="-0.59296">
        <ele>118.3</ele>
        <time>2012-04-08T09:29:00Z</time>
      </trkpt>
      <trkpt lat="46.94125" lon="-0.59289">
        <ele>118.3</ele>
        <time>2012-04-08T09:29:01Z</time>
      </trkpt>
      <trkpt lat="46.94123" lon="-0.59283">
        <ele>118</ele>
        <time>2012-04-08T09:29:02Z</time>
      </trkpt>
      <trkpt lat="46.94122" lon="-0.59276">
        <ele>118</ele>
        <time>2012-04-08T09:29:03Z</time>
      </trkpt>
      <trkpt lat="46.94121" lon="-0.5927">
        <ele>118.3</ele>
        <time>2012-04-08T09:29:04Z</time>
      </trkpt>
      <trkpt lat="46.94119" lon="-0.59263">
        <ele>118.3</ele>
        <time>2012-04-08T09:29:05Z</time>
      </trkpt>
      <trkpt lat="46.94118" lon="-0.59257">
        <ele>118.3</ele>
        <time>2012-04-08T09:29:06Z</time>
      </trkpt>
      <trkpt lat="46.94116" lon="-0.5925">
        <ele>118.3</ele>
        <time>2012-04-08T09:29:07Z</time>
      </trkpt>
      <trkpt lat="46.94115" lon="-0.59243">
        <ele>118.3</ele>
        <time>2012-04-08T09:29:08Z</time>
      </trkpt>
      <trkpt lat="46.94113" lon="-0.59235">
        <ele>118.4</ele>
        <time>2012-04-08T09:29:09Z</time>
      </trkpt>
      <trkpt lat="46.94112" lon="-0.59228">
        <ele>118.4</ele>
        <time>2012-04-08T09:29:10Z</time>
      </trkpt>
      <trkpt lat="46.94111" lon="-0.59221">
        <ele>118.4</ele>
        <time>2012-04-08T09:29:11Z</time>
      </trkpt>
      <trkpt lat="46.94109" lon="-0.59214">
        <ele>118.5</ele>
        <time>2012-04-08T09:29:12Z</time>
      </trkpt>
      <trkpt lat="46.94108" lon="-0.59207">
        <ele>118.5</ele>
        <time>2012-04-08T09:29:13Z</time>
      </trkpt>
      <trkpt lat="46.94106" lon="-0.59201">
        <ele>118.5</ele>
        <time>2012-04-08T09:29:14Z</time>
      </trkpt>
      <trkpt lat="46.94105" lon="-0.59194">
        <ele>118.5</ele>
        <time>2012-04-08T09:29:15Z</time>
      </trkpt>
      <trkpt lat="46.94103" lon="-0.59187">
        <ele>118.5</ele>
        <time>2012-04-08T09:29:16Z</time>
      </trkpt>
      <trkpt lat="46.94101" lon="-0.5918">
        <ele>118.8</ele>
        <time>2012-04-08T09:29:17Z</time>
      </trkpt>
      <trkpt lat="46.941" lon="-0.59173">
        <ele>118.9</ele>
        <time>2012-04-08T09:29:18Z</time>
      </trkpt>
      <trkpt lat="46.94098" lon="-0.59167">
        <ele>118.9</ele>
        <time>2012-04-08T09:29:19Z</time>
      </trkpt>
      <trkpt lat="46.94092" lon="-0.59158">
        <ele>119</ele>
        <time>2012-04-08T09:29:21Z</time>
      </trkpt>
      <trkpt lat="46.94085" lon="-0.59151">
        <ele>119</ele>
        <time>2012-04-08T09:29:23Z</time>
      </trkpt>
      <trkpt lat="46.9408" lon="-0.59143">
        <ele>119</ele>
        <time>2012-04-08T09:29:25Z</time>
      </trkpt>
      <trkpt lat="46.94077" lon="-0.59131">
        <ele>118.9</ele>
        <time>2012-04-08T09:29:28Z</time>
      </trkpt>
      <trkpt lat="46.94073" lon="-0.59121">
        <ele>118.8</ele>
        <time>2012-04-08T09:29:32Z</time>
      </trkpt>
      <trkpt lat="46.94068" lon="-0.59112">
        <ele>118.5</ele>
        <time>2012-04-08T09:30:03Z</time>
      </trkpt>
      <trkpt lat="46.94065" lon="-0.59111">
        <ele>118.5</ele>
        <time>2012-04-08T09:30:04Z</time>
      </trkpt>
      <trkpt lat="46.94055" lon="-0.59116">
        <ele>118.5</ele>
        <time>2012-04-08T09:30:07Z</time>
      </trkpt>
      <trkpt lat="46.94049" lon="-0.59123">
        <ele>118.5</ele>
        <time>2012-04-08T09:30:09Z</time>
      </trkpt>
      <trkpt lat="46.94043" lon="-0.59132">
        <ele>118.5</ele>
        <time>2012-04-08T09:30:11Z</time>
      </trkpt>
      <trkpt lat="46.94039" lon="-0.59134">
        <ele>118.5</ele>
        <time>2012-04-08T09:30:12Z</time>
      </trkpt>
      <trkpt lat="46.94034" lon="-0.59134">
        <ele>118.5</ele>
        <time>2012-04-08T09:30:13Z</time>
      </trkpt>
      <trkpt lat="46.94029" lon="-0.5913">
        <ele>118.5</ele>
        <time>2012-04-08T09:30:14Z</time>
      </trkpt>
      <trkpt lat="46.94025" lon="-0.59124">
        <ele>118.5</ele>
        <time>2012-04-08T09:30:15Z</time>
      </trkpt>
      <trkpt lat="46.94021" lon="-0.59117">
        <ele>118.4</ele>
        <time>2012-04-08T09:30:16Z</time>
      </trkpt>
      <trkpt lat="46.94015" lon="-0.59113">
        <ele>118.4</ele>
        <time>2012-04-08T09:30:17Z</time>
      </trkpt>
      <trkpt lat="46.94009" lon="-0.59108">
        <ele>118.4</ele>
        <time>2012-04-08T09:30:18Z</time>
      </trkpt>
      <trkpt lat="46.94003" lon="-0.59105">
        <ele>118.5</ele>
        <time>2012-04-08T09:30:19Z</time>
      </trkpt>
      <trkpt lat="46.93996" lon="-0.59103">
        <ele>118.5</ele>
        <time>2012-04-08T09:30:20Z</time>
      </trkpt>
      <trkpt lat="46.9399" lon="-0.59102">
        <ele>118.5</ele>
        <time>2012-04-08T09:30:21Z</time>
      </trkpt>
      <trkpt lat="46.93983" lon="-0.591">
        <ele>118.9</ele>
        <time>2012-04-08T09:30:22Z</time>
      </trkpt>
      <trkpt lat="46.93976" lon="-0.59099">
        <ele>119</ele>
        <time>2012-04-08T09:30:23Z</time>
      </trkpt>
      <trkpt lat="46.93969" lon="-0.59098">
        <ele>119</ele>
        <time>2012-04-08T09:30:24Z</time>
      </trkpt>
      <trkpt lat="46.93962" lon="-0.59097">
        <ele>119.4</ele>
        <time>2012-04-08T09:30:25Z</time>
      </trkpt>
      <trkpt lat="46.93956" lon="-0.59096">
        <ele>119.5</ele>
        <time>2012-04-08T09:30:26Z</time>
      </trkpt>
      <trkpt lat="46.93949" lon="-0.59094">
        <ele>119.5</ele>
        <time>2012-04-08T09:30:27Z</time>
      </trkpt>
      <trkpt lat="46.93942" lon="-0.59093">
        <ele>119.8</ele>
        <time>2012-04-08T09:30:28Z</time>
      </trkpt>
      <trkpt lat="46.93936" lon="-0.59093">
        <ele>119.9</ele>
        <time>2012-04-08T09:30:29Z</time>
      </trkpt>
      <trkpt lat="46.93929" lon="-0.59093">
        <ele>119.9</ele>
        <time>2012-04-08T09:30:30Z</time>
      </trkpt>
      <trkpt lat="46.93923" lon="-0.59093">
        <ele>119.9</ele>
        <time>2012-04-08T09:30:31Z</time>
      </trkpt>
      <trkpt lat="46.93917" lon="-0.59093">
        <ele>119.9</ele>
        <time>2012-04-08T09:30:32Z</time>
      </trkpt>
      <trkpt lat="46.9391" lon="-0.59092">
        <ele>119.9</ele>
        <time>2012-04-08T09:30:33Z</time>
      </trkpt>
      <trkpt lat="46.93904" lon="-0.59092">
        <ele>119.9</ele>
        <time>2012-04-08T09:30:34Z</time>
      </trkpt>
      <trkpt lat="46.93897" lon="-0.59091">
        <ele>119.9</ele>
        <time>2012-04-08T09:30:35Z</time>
      </trkpt>
      <trkpt lat="46.93891" lon="-0.59091">
        <ele>119.9</ele>
        <time>2012-04-08T09:30:36Z</time>
      </trkpt>
      <trkpt lat="46.93885" lon="-0.5909">
        <ele>119.9</ele>
        <time>2012-04-08T09:30:37Z</time>
      </trkpt>
      <trkpt lat="46.93879" lon="-0.59089">
        <ele>119.9</ele>
        <time>2012-04-08T09:30:38Z</time>
      </trkpt>
      <trkpt lat="46.93873" lon="-0.59088">
        <ele>120</ele>
        <time>2012-04-08T09:30:39Z</time>
      </trkpt>
      <trkpt lat="46.93867" lon="-0.59087">
        <ele>120</ele>
        <time>2012-04-08T09:30:40Z</time>
      </trkpt>
      <trkpt lat="46.93861" lon="-0.59085">
        <ele>120</ele>
        <time>2012-04-08T09:30:41Z</time>
      </trkpt>
      <trkpt lat="46.93856" lon="-0.59084">
        <ele>120</ele>
        <time>2012-04-08T09:30:42Z</time>
      </trkpt>
      <trkpt lat="46.9385" lon="-0.59083">
        <ele>120.3</ele>
        <time>2012-04-08T09:30:43Z</time>
      </trkpt>
      <trkpt lat="46.93845" lon="-0.59083">
        <ele>120.4</ele>
        <time>2012-04-08T09:30:44Z</time>
      </trkpt>
      <trkpt lat="46.93839" lon="-0.59082">
        <ele>120.5</ele>
        <time>2012-04-08T09:30:45Z</time>
      </trkpt>
      <trkpt lat="46.93834" lon="-0.59082">
        <ele>120.5</ele>
        <time>2012-04-08T09:30:46Z</time>
      </trkpt>
      <trkpt lat="46.93829" lon="-0.59082">
        <ele>120.5</ele>
        <time>2012-04-08T09:30:47Z</time>
      </trkpt>
      <trkpt lat="46.93824" lon="-0.59081">
        <ele>120.5</ele>
        <time>2012-04-08T09:30:48Z</time>
      </trkpt>
      <trkpt lat="46.93819" lon="-0.59081">
        <ele>120.8</ele>
        <time>2012-04-08T09:30:49Z</time>
      </trkpt>
      <trkpt lat="46.93814" lon="-0.5908">
        <ele>120.9</ele>
        <time>2012-04-08T09:30:50Z</time>
      </trkpt>
      <trkpt lat="46.93809" lon="-0.5908">
        <ele>121</ele>
        <time>2012-04-08T09:30:51Z</time>
      </trkpt>
      <trkpt lat="46.93804" lon="-0.59079">
        <ele>121</ele>
        <time>2012-04-08T09:30:52Z</time>
      </trkpt>
      <trkpt lat="46.93799" lon="-0.59079">
        <ele>121.3</ele>
        <time>2012-04-08T09:30:53Z</time>
      </trkpt>
      <trkpt lat="46.93794" lon="-0.59079">
        <ele>121.4</ele>
        <time>2012-04-08T09:30:54Z</time>
      </trkpt>
      <trkpt lat="46.93789" lon="-0.59079">
        <ele>121.5</ele>
        <time>2012-04-08T09:30:55Z</time>
      </trkpt>
      <trkpt lat="46.93784" lon="-0.59079">
        <ele>121.5</ele>
        <time>2012-04-08T09:30:56Z</time>
      </trkpt>
      <trkpt lat="46.93779" lon="-0.59078">
        <ele>121.9</ele>
        <time>2012-04-08T09:30:57Z</time>
      </trkpt>
      <trkpt lat="46.93775" lon="-0.59078">
        <ele>122</ele>
        <time>2012-04-08T09:30:58Z</time>
      </trkpt>
      <trkpt lat="46.9377" lon="-0.59077">
        <ele>122</ele>
        <time>2012-04-08T09:30:59Z</time>
      </trkpt>
      <trkpt lat="46.93761" lon="-0.59077">
        <ele>122.5</ele>
        <time>2012-04-08T09:31:01Z</time>
      </trkpt>
      <trkpt lat="46.93753" lon="-0.59076">
        <ele>123</ele>
        <time>2012-04-08T09:31:03Z</time>
      </trkpt>
      <trkpt lat="46.93744" lon="-0.59075">
        <ele>123.5</ele>
        <time>2012-04-08T09:31:05Z</time>
      </trkpt>
      <trkpt lat="46.9374" lon="-0.59075">
        <ele>123.5</ele>
        <time>2012-04-08T09:31:06Z</time>
      </trkpt>
      <trkpt lat="46.93728" lon="-0.59075">
        <ele>124</ele>
        <time>2012-04-08T09:31:09Z</time>
      </trkpt>
      <trkpt lat="46.93721" lon="-0.59073">
        <ele>123.9</ele>
        <time>2012-04-08T09:31:11Z</time>
      </trkpt>
      <trkpt lat="46.93713" lon="-0.5907">
        <ele>123.9</ele>
        <time>2012-04-08T09:31:13Z</time>
      </trkpt>
      <trkpt lat="46.93706" lon="-0.59066">
        <ele>123.9</ele>
        <time>2012-04-08T09:31:15Z</time>
      </trkpt>
      <trkpt lat="46.93699" lon="-0.59062">
        <ele>124.4</ele>
        <time>2012-04-08T09:31:17Z</time>
      </trkpt>
      <trkpt lat="46.93691" lon="-0.59061">
        <ele>125</ele>
        <time>2012-04-08T09:31:19Z</time>
      </trkpt>
      <trkpt lat="46.93683" lon="-0.59059">
        <ele>125.8</ele>
        <time>2012-04-08T09:31:21Z</time>
      </trkpt>
      <trkpt lat="46.93675" lon="-0.59057">
        <ele>126.5</ele>
        <time>2012-04-08T09:31:23Z</time>
      </trkpt>
      <trkpt lat="46.93668" lon="-0.5905">
        <ele>127.3</ele>
        <time>2012-04-08T09:31:25Z</time>
      </trkpt>
      <trkpt lat="46.93665" lon="-0.59038">
        <ele>128</ele>
        <time>2012-04-08T09:31:27Z</time>
      </trkpt>
      <trkpt lat="46.93665" lon="-0.5903">
        <ele>128.1</ele>
        <time>2012-04-08T09:31:28Z</time>
      </trkpt>
      <trkpt lat="46.93665" lon="-0.59022">
        <ele>128.5</ele>
        <time>2012-04-08T09:31:29Z</time>
      </trkpt>
      <trkpt lat="46.93665" lon="-0.59014">
        <ele>128.6</ele>
        <time>2012-04-08T09:31:30Z</time>
      </trkpt>
      <trkpt lat="46.93666" lon="-0.59006">
        <ele>128.8</ele>
        <time>2012-04-08T09:31:31Z</time>
      </trkpt>
      <trkpt lat="46.93668" lon="-0.58999">
        <ele>129.1</ele>
        <time>2012-04-08T09:31:32Z</time>
      </trkpt>
      <trkpt lat="46.93669" lon="-0.58992">
        <ele>129.3</ele>
        <time>2012-04-08T09:31:33Z</time>
      </trkpt>
      <trkpt lat="46.93671" lon="-0.58986">
        <ele>129.3</ele>
        <time>2012-04-08T09:31:34Z</time>
      </trkpt>
      <trkpt lat="46.93673" lon="-0.58979">
        <ele>129.6</ele>
        <time>2012-04-08T09:31:35Z</time>
      </trkpt>
      <trkpt lat="46.93674" lon="-0.58972">
        <ele>129.6</ele>
        <time>2012-04-08T09:31:36Z</time>
      </trkpt>
      <trkpt lat="46.93677" lon="-0.58961">
        <ele>129.6</ele>
        <time>2012-04-08T09:31:38Z</time>
      </trkpt>
      <trkpt lat="46.93681" lon="-0.5895">
        <ele>129.5</ele>
        <time>2012-04-08T09:31:40Z</time>
      </trkpt>
      <trkpt lat="46.93685" lon="-0.5894">
        <ele>129.3</ele>
        <time>2012-04-08T09:31:42Z</time>
      </trkpt>
      <trkpt lat="46.93687" lon="-0.58928">
        <ele>129</ele>
        <time>2012-04-08T09:31:44Z</time>
      </trkpt>
      <trkpt lat="46.93687" lon="-0.58918">
        <ele>128.8</ele>
        <time>2012-04-08T09:32:03Z</time>
      </trkpt>
      <trkpt lat="46.93689" lon="-0.58906">
        <ele>128.8</ele>
        <time>2012-04-08T09:32:06Z</time>
      </trkpt>
      <trkpt lat="46.93691" lon="-0.58903">
        <ele>128.6</ele>
        <time>2012-04-08T09:32:07Z</time>
      </trkpt>
      <trkpt lat="46.93706" lon="-0.58902">
        <ele>128.5</ele>
        <time>2012-04-08T09:32:12Z</time>
      </trkpt>
      <trkpt lat="46.93712" lon="-0.58902">
        <ele>128.5</ele>
        <time>2012-04-08T09:32:14Z</time>
      </trkpt>
      <trkpt lat="46.93719" lon="-0.58902">
        <ele>128.3</ele>
        <time>2012-04-08T09:32:16Z</time>
      </trkpt>
      <trkpt lat="46.93726" lon="-0.58902">
        <ele>128.3</ele>
        <time>2012-04-08T09:32:18Z</time>
      </trkpt>
      <trkpt lat="46.93732" lon="-0.589">
        <ele>128.3</ele>
        <time>2012-04-08T09:32:20Z</time>
      </trkpt>
      <trkpt lat="46.93738" lon="-0.58899">
        <ele>128.1</ele>
        <time>2012-04-08T09:32:22Z</time>
      </trkpt>
      <trkpt lat="46.93744" lon="-0.58897">
        <ele>128.1</ele>
        <time>2012-04-08T09:32:24Z</time>
      </trkpt>
      <trkpt lat="46.9375" lon="-0.58894">
        <ele>128.1</ele>
        <time>2012-04-08T09:32:26Z</time>
      </trkpt>
      <trkpt lat="46.93756" lon="-0.58891">
        <ele>128</ele>
        <time>2012-04-08T09:32:28Z</time>
      </trkpt>
      <trkpt lat="46.93762" lon="-0.58888">
        <ele>128</ele>
        <time>2012-04-08T09:32:30Z</time>
      </trkpt>
      <trkpt lat="46.9377" lon="-0.58884">
        <ele>127.9</ele>
        <time>2012-04-08T09:32:33Z</time>
      </trkpt>
      <trkpt lat="46.93776" lon="-0.5888">
        <ele>127.9</ele>
        <time>2012-04-08T09:32:36Z</time>
      </trkpt>
    </trkseg>
  </trk>
</gpx>